<?xml version='1.0' encoding='UTF-8'?><gpx version="1.1" creator="JPX - https://github.com/jenetics/jpx" xmlns="http://www.topografix.com/GPX/1/1"><trk><trkseg><trkpt lat="41.6451625" lon="-0.8766427"><ele>222.0</ele><time>2026-05-04T07:08:20.19Z</time></trkpt><trkpt lat="41.6451603" lon="-0.8765561"><ele>222.0</ele><time>2026-05-04T07:08:41.602Z</time></trkpt><trkpt lat="41.6451435" lon="-0.8764737"><ele>222.0</ele><time>2026-05-04T07:08:50.606Z</time></trkpt><trkpt lat="41.6451223" lon="-0.8763931"><ele>222.0</ele><time>2026-05-04T07:09:03.614Z</time></trkpt><trkpt lat="41.6451545" lon="-0.8763179"><ele>222.0</ele><time>2026-05-04T07:09:10.603Z</time></trkpt><trkpt lat="41.6451958" lon="-0.8762482"><ele>222.0</ele><time>2026-05-04T07:09:20.611Z</time></trkpt><trkpt lat="41.6452583" lon="-0.8762291"><ele>222.0</ele><time>2026-05-04T07:09:31.602Z</time></trkpt><trkpt lat="41.6452441" lon="-0.8761435"><ele>222.0</ele><time>2026-05-04T07:09:39.607Z</time></trkpt><trkpt lat="41.6451933" lon="-0.8760835"><ele>222.0</ele><time>2026-05-04T07:09:46.611Z</time></trkpt><trkpt lat="41.6451892" lon="-0.8759954"><ele>222.0</ele><time>2026-05-04T07:09:55.616Z</time></trkpt><trkpt lat="41.645184" lon="-0.8760898"><ele>222.0</ele><time>2026-05-04T07:10:52.593Z</time></trkpt><trkpt lat="41.6452283" lon="-0.8761524"><ele>222.0</ele><time>2026-05-04T07:11:01.607Z</time></trkpt><trkpt lat="41.6452728" lon="-0.8762224"><ele>222.0</ele><time>2026-05-04T07:11:12.599Z</time></trkpt><trkpt lat="41.645328" lon="-0.876154"><ele>222.0</ele><time>2026-05-04T07:11:39.588Z</time></trkpt><trkpt lat="41.6453234" lon="-0.876248"><ele>222.0</ele><time>2026-05-04T07:11:47.602Z</time></trkpt><trkpt lat="41.6452817" lon="-0.8761673"><ele>222.0</ele><time>2026-05-04T07:32:43.607Z</time></trkpt><trkpt lat="41.6452824" lon="-0.8762812"><ele>222.0</ele><time>2026-05-04T07:32:48.616Z</time></trkpt><trkpt lat="41.6452261" lon="-0.8763236"><ele>222.0</ele><time>2026-05-04T07:33:36.61Z</time></trkpt><trkpt lat="41.6451846" lon="-0.8764157"><ele>222.0</ele><time>2026-05-04T07:33:38.606Z</time></trkpt><trkpt lat="41.6451432" lon="-0.876505"><ele>222.0</ele><time>2026-05-04T07:33:40.6Z</time></trkpt><trkpt lat="41.6451099" lon="-0.8765858"><ele>222.0</ele><time>2026-05-04T07:33:42.598Z</time></trkpt><trkpt lat="41.6450903" lon="-0.8766761"><ele>222.0</ele><time>2026-05-04T07:33:44.604Z</time></trkpt><trkpt lat="41.6450539" lon="-0.8767831"><ele>222.0</ele><time>2026-05-04T07:33:47.61Z</time></trkpt><trkpt lat="41.6450573" lon="-0.8768753"><ele>222.0</ele><time>2026-05-04T07:33:51.599Z</time></trkpt><trkpt lat="41.6450711" lon="-0.8770146"><ele>222.0</ele><time>2026-05-04T07:34:28.616Z</time></trkpt><trkpt lat="41.645044" lon="-0.877168"><ele>222.5</ele><time>2026-05-04T07:34:30.622Z</time></trkpt><trkpt lat="41.6450451" lon="-0.8772594"><ele>223.0</ele><time>2026-05-04T07:34:31.607Z</time></trkpt><trkpt lat="41.6450471" lon="-0.8773618"><ele>223.5</ele><time>2026-05-04T07:34:32.613Z</time></trkpt><trkpt lat="41.6450471" lon="-0.8774693"><ele>224.0</ele><time>2026-05-04T07:34:33.616Z</time></trkpt><trkpt lat="41.6450363" lon="-0.877566"><ele>224.5</ele><time>2026-05-04T07:34:34.611Z</time></trkpt><trkpt lat="41.6450239" lon="-0.8776514"><ele>225.0</ele><time>2026-05-04T07:34:35.614Z</time></trkpt><trkpt lat="41.6449807" lon="-0.8777685"><ele>225.0</ele><time>2026-05-04T07:34:37.606Z</time></trkpt><trkpt lat="41.6449091" lon="-0.8778025"><ele>225.0</ele><time>2026-05-04T07:34:40.606Z</time></trkpt><trkpt lat="41.6448541" lon="-0.8777263"><ele>225.0</ele><time>2026-05-04T07:35:33.613Z</time></trkpt><trkpt lat="41.6448164" lon="-0.8776294"><ele>225.0</ele><time>2026-05-04T07:35:35.611Z</time></trkpt><trkpt lat="41.6448135" lon="-0.8775154"><ele>225.0</ele><time>2026-05-04T07:35:37.615Z</time></trkpt><trkpt lat="41.6448373" lon="-0.8774321"><ele>225.0</ele><time>2026-05-04T07:35:39.614Z</time></trkpt><trkpt lat="41.6448684" lon="-0.8773456"><ele>223.66666666666666</ele><time>2026-05-04T07:36:10.624Z</time></trkpt><trkpt lat="41.6449272" lon="-0.877236"><ele>222.33333333333331</ele><time>2026-05-04T07:36:14.607Z</time></trkpt><trkpt lat="41.645004" lon="-0.8771102"><ele>221.0</ele><time>2026-05-04T07:36:16.613Z</time></trkpt><trkpt lat="41.6450431" lon="-0.8770304"><ele>219.66666666666666</ele><time>2026-05-04T07:36:17.613Z</time></trkpt><trkpt lat="41.645082" lon="-0.8769486"><ele>218.33333333333331</ele><time>2026-05-04T07:36:18.608Z</time></trkpt><trkpt lat="41.6451233" lon="-0.8768649"><ele>217.0</ele><time>2026-05-04T07:36:19.602Z</time></trkpt><trkpt lat="41.6451636" lon="-0.8767736"><ele>217.71428571428572</ele><time>2026-05-04T07:36:20.6Z</time></trkpt><trkpt lat="41.645193" lon="-0.87669"><ele>218.42857142857144</ele><time>2026-05-04T07:36:21.597Z</time></trkpt><trkpt lat="41.6452244" lon="-0.8766051"><ele>219.14285714285714</ele><time>2026-05-04T07:36:22.605Z</time></trkpt><trkpt lat="41.6452624" lon="-0.8765222"><ele>219.85714285714286</ele><time>2026-05-04T07:36:23.606Z</time></trkpt><trkpt lat="41.6453033" lon="-0.8764339"><ele>220.57142857142858</ele><time>2026-05-04T07:36:24.62Z</time></trkpt><trkpt lat="41.6453397" lon="-0.876344"><ele>221.28571428571428</ele><time>2026-05-04T07:36:25.596Z</time></trkpt><trkpt lat="41.6453813" lon="-0.8762588"><ele>222.0</ele><time>2026-05-04T07:36:26.601Z</time></trkpt><trkpt lat="41.645422" lon="-0.8761603"><ele>222.0</ele><time>2026-05-04T07:36:27.601Z</time></trkpt><trkpt lat="41.6454647" lon="-0.8760546"><ele>222.0</ele><time>2026-05-04T07:36:28.611Z</time></trkpt><trkpt lat="41.645509" lon="-0.8759442"><ele>222.0</ele><time>2026-05-04T07:36:29.607Z</time></trkpt><trkpt lat="41.6455558" lon="-0.8758412"><ele>222.0</ele><time>2026-05-04T07:36:30.608Z</time></trkpt><trkpt lat="41.6456009" lon="-0.8757456"><ele>222.0</ele><time>2026-05-04T07:36:31.61Z</time></trkpt><trkpt lat="41.6456464" lon="-0.8756616"><ele>222.0</ele><time>2026-05-04T07:36:32.606Z</time></trkpt><trkpt lat="41.645686" lon="-0.8755866"><ele>221.83333333333334</ele><time>2026-05-04T07:36:33.604Z</time></trkpt><trkpt lat="41.6457413" lon="-0.8754558"><ele>221.66666666666669</ele><time>2026-05-04T07:36:35.607Z</time></trkpt><trkpt lat="41.6457882" lon="-0.875345"><ele>221.5</ele><time>2026-05-04T07:36:37.603Z</time></trkpt><trkpt lat="41.6458249" lon="-0.8752068"><ele>221.33333333333334</ele><time>2026-05-04T07:36:39.601Z</time></trkpt><trkpt lat="41.645856" lon="-0.875132"><ele>221.16666666666669</ele><time>2026-05-04T07:36:40.603Z</time></trkpt><trkpt lat="41.6458859" lon="-0.8750564"><ele>221.0</ele><time>2026-05-04T07:36:41.602Z</time></trkpt><trkpt lat="41.6459249" lon="-0.8749783"><ele>221.00000000000003</ele><time>2026-05-04T07:36:42.607Z</time></trkpt><trkpt lat="41.6459592" lon="-0.8748946"><ele>221.0</ele><time>2026-05-04T07:36:43.608Z</time></trkpt><trkpt lat="41.6459986" lon="-0.8748123"><ele>221.0</ele><time>2026-05-04T07:36:44.606Z</time></trkpt><trkpt lat="41.646033" lon="-0.8747249"><ele>221.0</ele><time>2026-05-04T07:36:45.603Z</time></trkpt><trkpt lat="41.6460771" lon="-0.8746473"><ele>221.0</ele><time>2026-05-04T07:36:46.611Z</time></trkpt><trkpt lat="41.6461235" lon="-0.8745688"><ele>221.00000000000003</ele><time>2026-05-04T07:36:47.603Z</time></trkpt><trkpt lat="41.6461705" lon="-0.8744928"><ele>221.0</ele><time>2026-05-04T07:36:48.608Z</time></trkpt><trkpt lat="41.64621" lon="-0.8744157"><ele>220.57142857142858</ele><time>2026-05-04T07:36:49.609Z</time></trkpt><trkpt lat="41.6462515" lon="-0.8743331"><ele>220.14285714285714</ele><time>2026-05-04T07:36:50.607Z</time></trkpt><trkpt lat="41.6462917" lon="-0.8742469"><ele>219.71428571428572</ele><time>2026-05-04T07:36:51.603Z</time></trkpt><trkpt lat="41.6463281" lon="-0.8741588"><ele>219.28571428571428</ele><time>2026-05-04T07:36:52.607Z</time></trkpt><trkpt lat="41.6463604" lon="-0.8740738"><ele>218.85714285714286</ele><time>2026-05-04T07:36:53.606Z</time></trkpt><trkpt lat="41.6463972" lon="-0.8739881"><ele>218.42857142857144</ele><time>2026-05-04T07:36:54.604Z</time></trkpt><trkpt lat="41.6464327" lon="-0.8739033"><ele>218.0</ele><time>2026-05-04T07:36:55.619Z</time></trkpt><trkpt lat="41.6464648" lon="-0.8738194"><ele>218.00000000000003</ele><time>2026-05-04T07:36:56.601Z</time></trkpt><trkpt lat="41.6465062" lon="-0.8737376"><ele>218.0</ele><time>2026-05-04T07:36:57.601Z</time></trkpt><trkpt lat="41.6465524" lon="-0.8736555"><ele>218.0</ele><time>2026-05-04T07:36:58.604Z</time></trkpt><trkpt lat="41.6465971" lon="-0.8735665"><ele>218.0</ele><time>2026-05-04T07:36:59.6Z</time></trkpt><trkpt lat="41.6466418" lon="-0.8734816"><ele>218.00000000000003</ele><time>2026-05-04T07:37:00.6Z</time></trkpt><trkpt lat="41.6466884" lon="-0.8734014"><ele>218.0</ele><time>2026-05-04T07:37:01.602Z</time></trkpt><trkpt lat="41.64673" lon="-0.8733225"><ele>218.16666666666669</ele><time>2026-05-04T07:37:02.604Z</time></trkpt><trkpt lat="41.6467761" lon="-0.8732379"><ele>218.33333333333334</ele><time>2026-05-04T07:37:03.599Z</time></trkpt><trkpt lat="41.6468227" lon="-0.8731461"><ele>218.5</ele><time>2026-05-04T07:37:04.6Z</time></trkpt><trkpt lat="41.6468608" lon="-0.8730481"><ele>218.66666666666669</ele><time>2026-05-04T07:37:05.599Z</time></trkpt><trkpt lat="41.646895" lon="-0.8729445"><ele>218.83333333333334</ele><time>2026-05-04T07:37:06.618Z</time></trkpt><trkpt lat="41.6469335" lon="-0.8728521"><ele>219.0</ele><time>2026-05-04T07:37:07.615Z</time></trkpt><trkpt lat="41.6469744" lon="-0.872764"><ele>218.16666666666666</ele><time>2026-05-04T07:37:08.607Z</time></trkpt><trkpt lat="41.6470188" lon="-0.8726684"><ele>217.33333333333331</ele><time>2026-05-04T07:37:09.607Z</time></trkpt><trkpt lat="41.6470621" lon="-0.8725667"><ele>216.5</ele><time>2026-05-04T07:37:10.606Z</time></trkpt><trkpt lat="41.6471042" lon="-0.8724595"><ele>215.66666666666666</ele><time>2026-05-04T07:37:11.602Z</time></trkpt><trkpt lat="41.6471573" lon="-0.8723637"><ele>214.83333333333331</ele><time>2026-05-04T07:37:12.605Z</time></trkpt><trkpt lat="41.6472028" lon="-0.8722765"><ele>214.0</ele><time>2026-05-04T07:37:13.599Z</time></trkpt><trkpt lat="41.6472408" lon="-0.8721849"><ele>213.49999999999997</ele><time>2026-05-04T07:37:14.597Z</time></trkpt><trkpt lat="41.647282" lon="-0.8720914"><ele>213.0</ele><time>2026-05-04T07:37:15.594Z</time></trkpt><trkpt lat="41.6473188" lon="-0.872"><ele>212.5</ele><time>2026-05-04T07:37:16.603Z</time></trkpt><trkpt lat="41.6473509" lon="-0.871899"><ele>212.0</ele><time>2026-05-04T07:37:17.598Z</time></trkpt><trkpt lat="41.6473899" lon="-0.8718015"><ele>211.49999999999997</ele><time>2026-05-04T07:37:18.598Z</time></trkpt><trkpt lat="41.6474152" lon="-0.8716936"><ele>211.0</ele><time>2026-05-04T07:37:19.605Z</time></trkpt><trkpt lat="41.647439" lon="-0.8715833"><ele>210.4</ele><time>2026-05-04T07:37:20.603Z</time></trkpt><trkpt lat="41.6474641" lon="-0.8714661"><ele>209.8</ele><time>2026-05-04T07:37:21.615Z</time></trkpt><trkpt lat="41.647486" lon="-0.8713475"><ele>209.20000000000002</ele><time>2026-05-04T07:37:22.609Z</time></trkpt><trkpt lat="41.6475066" lon="-0.8712278"><ele>208.60000000000002</ele><time>2026-05-04T07:37:23.609Z</time></trkpt><trkpt lat="41.6475265" lon="-0.871113"><ele>208.0</ele><time>2026-05-04T07:37:24.607Z</time></trkpt><trkpt lat="41.6475449" lon="-0.8709886"><ele>207.49999999999997</ele><time>2026-05-04T07:37:25.609Z</time></trkpt><trkpt lat="41.6475563" lon="-0.8708595"><ele>207.0</ele><time>2026-05-04T07:37:26.626Z</time></trkpt><trkpt lat="41.647572" lon="-0.8707344"><ele>206.5</ele><time>2026-05-04T07:37:27.609Z</time></trkpt><trkpt lat="41.6475862" lon="-0.870622"><ele>206.0</ele><time>2026-05-04T07:37:28.607Z</time></trkpt><trkpt lat="41.6476" lon="-0.8705199"><ele>205.49999999999997</ele><time>2026-05-04T07:37:29.606Z</time></trkpt><trkpt lat="41.6476122" lon="-0.8704289"><ele>205.0</ele><time>2026-05-04T07:37:30.611Z</time></trkpt><trkpt lat="41.6476298" lon="-0.8702978"><ele>205.0</ele><time>2026-05-04T07:37:32.602Z</time></trkpt><trkpt lat="41.647641" lon="-0.8701931"><ele>205.0</ele><time>2026-05-04T07:37:35.599Z</time></trkpt><trkpt lat="41.647672" lon="-0.8701042"><ele>205.0</ele><time>2026-05-04T07:38:24.598Z</time></trkpt><trkpt lat="41.6477274" lon="-0.8699454"><ele>205.0</ele><time>2026-05-04T07:38:26.602Z</time></trkpt><trkpt lat="41.6477617" lon="-0.8698543"><ele>205.0</ele><time>2026-05-04T07:38:27.595Z</time></trkpt><trkpt lat="41.647812" lon="-0.869751"><ele>204.8</ele><time>2026-05-04T07:38:28.616Z</time></trkpt><trkpt lat="41.6478645" lon="-0.8696363"><ele>204.6</ele><time>2026-05-04T07:38:29.6Z</time></trkpt><trkpt lat="41.6479242" lon="-0.8695178"><ele>204.39999999999998</ele><time>2026-05-04T07:38:30.603Z</time></trkpt><trkpt lat="41.6479898" lon="-0.8693933"><ele>204.2</ele><time>2026-05-04T07:38:31.6Z</time></trkpt><trkpt lat="41.6480505" lon="-0.8692635"><ele>204.0</ele><time>2026-05-04T07:38:32.606Z</time></trkpt><trkpt lat="41.6481071" lon="-0.8691266"><ele>203.6</ele><time>2026-05-04T07:38:33.604Z</time></trkpt><trkpt lat="41.6481565" lon="-0.8689891"><ele>203.2</ele><time>2026-05-04T07:38:34.605Z</time></trkpt><trkpt lat="41.6482005" lon="-0.8688542"><ele>202.79999999999998</ele><time>2026-05-04T07:38:35.603Z</time></trkpt><trkpt lat="41.6482398" lon="-0.8687231"><ele>202.39999999999998</ele><time>2026-05-04T07:38:36.616Z</time></trkpt><trkpt lat="41.6482753" lon="-0.8685967"><ele>202.0</ele><time>2026-05-04T07:38:37.605Z</time></trkpt><trkpt lat="41.648307" lon="-0.8684692"><ele>201.2</ele><time>2026-05-04T07:38:38.601Z</time></trkpt><trkpt lat="41.6483378" lon="-0.8683422"><ele>200.39999999999998</ele><time>2026-05-04T07:38:39.604Z</time></trkpt><trkpt lat="41.6483652" lon="-0.868212"><ele>199.60000000000002</ele><time>2026-05-04T07:38:40.604Z</time></trkpt><trkpt lat="41.6483976" lon="-0.8680809"><ele>198.8</ele><time>2026-05-04T07:38:41.603Z</time></trkpt><trkpt lat="41.6484286" lon="-0.8679435"><ele>198.0</ele><time>2026-05-04T07:38:42.61Z</time></trkpt><trkpt lat="41.6484596" lon="-0.8678042"><ele>198.0</ele><time>2026-05-04T07:38:43.607Z</time></trkpt><trkpt lat="41.648492" lon="-0.8676638"><ele>198.0</ele><time>2026-05-04T07:38:44.61Z</time></trkpt><trkpt lat="41.6485267" lon="-0.8675324"><ele>198.0</ele><time>2026-05-04T07:38:45.61Z</time></trkpt><trkpt lat="41.6485573" lon="-0.8673985"><ele>198.0</ele><time>2026-05-04T07:38:46.614Z</time></trkpt><trkpt lat="41.6485921" lon="-0.867263"><ele>198.0</ele><time>2026-05-04T07:38:47.614Z</time></trkpt><trkpt lat="41.6486241" lon="-0.8671287"><ele>198.0</ele><time>2026-05-04T07:38:48.613Z</time></trkpt><trkpt lat="41.648656" lon="-0.8669963"><ele>198.0</ele><time>2026-05-04T07:38:49.611Z</time></trkpt><trkpt lat="41.6486842" lon="-0.8668604"><ele>198.0</ele><time>2026-05-04T07:38:50.611Z</time></trkpt><trkpt lat="41.6487122" lon="-0.8667224"><ele>198.0</ele><time>2026-05-04T07:38:51.609Z</time></trkpt><trkpt lat="41.6487413" lon="-0.8665863"><ele>198.0</ele><time>2026-05-04T07:38:52.606Z</time></trkpt><trkpt lat="41.6487735" lon="-0.8664522"><ele>197.8</ele><time>2026-05-04T07:38:53.612Z</time></trkpt><trkpt lat="41.6488053" lon="-0.866322"><ele>197.60000000000002</ele><time>2026-05-04T07:38:54.606Z</time></trkpt><trkpt lat="41.6488371" lon="-0.8661988"><ele>197.39999999999998</ele><time>2026-05-04T07:38:55.606Z</time></trkpt><trkpt lat="41.6488669" lon="-0.866071"><ele>197.2</ele><time>2026-05-04T07:38:56.608Z</time></trkpt><trkpt lat="41.6488976" lon="-0.8659453"><ele>197.0</ele><time>2026-05-04T07:38:57.612Z</time></trkpt><trkpt lat="41.6489281" lon="-0.8658194"><ele>197.8</ele><time>2026-05-04T07:38:58.607Z</time></trkpt><trkpt lat="41.6489602" lon="-0.8656906"><ele>198.6</ele><time>2026-05-04T07:38:59.623Z</time></trkpt><trkpt lat="41.6489944" lon="-0.8655616"><ele>199.4</ele><time>2026-05-04T07:39:00.608Z</time></trkpt><trkpt lat="41.6490309" lon="-0.8654348"><ele>200.20000000000002</ele><time>2026-05-04T07:39:01.607Z</time></trkpt><trkpt lat="41.6490752" lon="-0.8653111"><ele>201.0</ele><time>2026-05-04T07:39:02.612Z</time></trkpt><trkpt lat="41.6491264" lon="-0.8651872"><ele>200.60000000000002</ele><time>2026-05-04T07:39:03.607Z</time></trkpt><trkpt lat="41.6491834" lon="-0.8650689"><ele>200.2</ele><time>2026-05-04T07:39:04.609Z</time></trkpt><trkpt lat="41.6492418" lon="-0.8649576"><ele>199.8</ele><time>2026-05-04T07:39:05.61Z</time></trkpt><trkpt lat="41.649301" lon="-0.864854"><ele>199.39999999999998</ele><time>2026-05-04T07:39:06.617Z</time></trkpt><trkpt lat="41.6493584" lon="-0.8647546"><ele>199.0</ele><time>2026-05-04T07:39:07.609Z</time></trkpt><trkpt lat="41.6494237" lon="-0.8646623"><ele>199.0</ele><time>2026-05-04T07:39:08.611Z</time></trkpt><trkpt lat="41.6494885" lon="-0.8645717"><ele>199.0</ele><time>2026-05-04T07:39:09.605Z</time></trkpt><trkpt lat="41.6495593" lon="-0.8644923"><ele>199.0</ele><time>2026-05-04T07:39:10.607Z</time></trkpt><trkpt lat="41.6496321" lon="-0.8644118"><ele>199.0</ele><time>2026-05-04T07:39:11.614Z</time></trkpt><trkpt lat="41.6497079" lon="-0.864334"><ele>199.0</ele><time>2026-05-04T07:39:12.611Z</time></trkpt><trkpt lat="41.649787" lon="-0.8642619"><ele>199.0</ele><time>2026-05-04T07:39:13.61Z</time></trkpt><trkpt lat="41.6498716" lon="-0.8641955"><ele>199.0</ele><time>2026-05-04T07:39:14.61Z</time></trkpt><trkpt lat="41.6499574" lon="-0.8641325"><ele>199.0</ele><time>2026-05-04T07:39:15.613Z</time></trkpt><trkpt lat="41.6500462" lon="-0.8640676"><ele>199.0</ele><time>2026-05-04T07:39:16.61Z</time></trkpt><trkpt lat="41.6501369" lon="-0.8640071"><ele>199.0</ele><time>2026-05-04T07:39:17.618Z</time></trkpt><trkpt lat="41.650227" lon="-0.8639424"><ele>198.79999999999998</ele><time>2026-05-04T07:39:18.612Z</time></trkpt><trkpt lat="41.6503181" lon="-0.8638696"><ele>198.6</ele><time>2026-05-04T07:39:19.609Z</time></trkpt><trkpt lat="41.6504087" lon="-0.8637991"><ele>198.4</ele><time>2026-05-04T07:39:20.612Z</time></trkpt><trkpt lat="41.6505027" lon="-0.8637299"><ele>198.2</ele><time>2026-05-04T07:39:21.626Z</time></trkpt><trkpt lat="41.6505991" lon="-0.8636652"><ele>198.0</ele><time>2026-05-04T07:39:22.608Z</time></trkpt><trkpt lat="41.6506921" lon="-0.8636015"><ele>198.0</ele><time>2026-05-04T07:39:23.617Z</time></trkpt><trkpt lat="41.6507905" lon="-0.8635397"><ele>198.0</ele><time>2026-05-04T07:39:24.614Z</time></trkpt><trkpt lat="41.6508845" lon="-0.8634781"><ele>198.0</ele><time>2026-05-04T07:39:25.617Z</time></trkpt><trkpt lat="41.6509792" lon="-0.8634149"><ele>198.0</ele><time>2026-05-04T07:39:26.624Z</time></trkpt><trkpt lat="41.6510713" lon="-0.8633513"><ele>198.0</ele><time>2026-05-04T07:39:27.618Z</time></trkpt><trkpt lat="41.6511631" lon="-0.8632924"><ele>197.8</ele><time>2026-05-04T07:39:28.619Z</time></trkpt><trkpt lat="41.6512516" lon="-0.8632359"><ele>197.60000000000002</ele><time>2026-05-04T07:39:29.619Z</time></trkpt><trkpt lat="41.6513369" lon="-0.8631806"><ele>197.39999999999998</ele><time>2026-05-04T07:39:30.635Z</time></trkpt><trkpt lat="41.6514233" lon="-0.8631243"><ele>197.2</ele><time>2026-05-04T07:39:31.614Z</time></trkpt><trkpt lat="41.6515095" lon="-0.863064"><ele>197.0</ele><time>2026-05-04T07:39:32.621Z</time></trkpt><trkpt lat="41.6515963" lon="-0.8630096"><ele>197.0</ele><time>2026-05-04T07:39:33.62Z</time></trkpt><trkpt lat="41.6516869" lon="-0.8629525"><ele>197.0</ele><time>2026-05-04T07:39:34.618Z</time></trkpt><trkpt lat="41.6517798" lon="-0.862894"><ele>197.0</ele><time>2026-05-04T07:39:35.619Z</time></trkpt><trkpt lat="41.6518679" lon="-0.8628378"><ele>197.0</ele><time>2026-05-04T07:39:36.628Z</time></trkpt><trkpt lat="41.6519551" lon="-0.8627813"><ele>197.0</ele><time>2026-05-04T07:39:37.623Z</time></trkpt><trkpt lat="41.6520423" lon="-0.862725"><ele>195.6</ele><time>2026-05-04T07:39:38.624Z</time></trkpt><trkpt lat="41.6521308" lon="-0.862669"><ele>194.2</ele><time>2026-05-04T07:39:39.624Z</time></trkpt><trkpt lat="41.6522236" lon="-0.862608"><ele>192.8</ele><time>2026-05-04T07:39:40.624Z</time></trkpt><trkpt lat="41.6523118" lon="-0.8625464"><ele>191.4</ele><time>2026-05-04T07:39:41.625Z</time></trkpt><trkpt lat="41.6523969" lon="-0.8624847"><ele>190.0</ele><time>2026-05-04T07:39:42.625Z</time></trkpt><trkpt lat="41.6524841" lon="-0.8624211"><ele>190.0</ele><time>2026-05-04T07:39:43.627Z</time></trkpt><trkpt lat="41.6525769" lon="-0.8623562"><ele>190.0</ele><time>2026-05-04T07:39:44.625Z</time></trkpt><trkpt lat="41.6526751" lon="-0.862292"><ele>190.0</ele><time>2026-05-04T07:39:45.626Z</time></trkpt><trkpt lat="41.6527694" lon="-0.8622265"><ele>190.0</ele><time>2026-05-04T07:39:46.63Z</time></trkpt><trkpt lat="41.6528604" lon="-0.8621578"><ele>190.0</ele><time>2026-05-04T07:39:47.625Z</time></trkpt><trkpt lat="41.6529529" lon="-0.8620942"><ele>190.2</ele><time>2026-05-04T07:39:48.626Z</time></trkpt><trkpt lat="41.6530406" lon="-0.8620344"><ele>190.4</ele><time>2026-05-04T07:39:49.631Z</time></trkpt><trkpt lat="41.6531268" lon="-0.8619756"><ele>190.60000000000002</ele><time>2026-05-04T07:39:50.619Z</time></trkpt><trkpt lat="41.6532133" lon="-0.8619174"><ele>190.8</ele><time>2026-05-04T07:39:51.623Z</time></trkpt><trkpt lat="41.6532984" lon="-0.8618587"><ele>191.0</ele><time>2026-05-04T07:39:52.626Z</time></trkpt><trkpt lat="41.6533802" lon="-0.8618038"><ele>190.4</ele><time>2026-05-04T07:39:53.621Z</time></trkpt><trkpt lat="41.6534647" lon="-0.861748"><ele>189.8</ele><time>2026-05-04T07:39:54.627Z</time></trkpt><trkpt lat="41.6535516" lon="-0.8616884"><ele>189.20000000000002</ele><time>2026-05-04T07:39:55.621Z</time></trkpt><trkpt lat="41.6536396" lon="-0.861628"><ele>188.60000000000002</ele><time>2026-05-04T07:39:56.622Z</time></trkpt><trkpt lat="41.653724" lon="-0.8615669"><ele>188.0</ele><time>2026-05-04T07:39:57.626Z</time></trkpt><trkpt lat="41.6538108" lon="-0.8615093"><ele>189.4</ele><time>2026-05-04T07:39:58.625Z</time></trkpt><trkpt lat="41.6538957" lon="-0.8614523"><ele>190.8</ele><time>2026-05-04T07:39:59.627Z</time></trkpt><trkpt lat="41.6539804" lon="-0.8613949"><ele>192.2</ele><time>2026-05-04T07:40:00.628Z</time></trkpt><trkpt lat="41.6540652" lon="-0.8613419"><ele>193.6</ele><time>2026-05-04T07:40:01.66Z</time></trkpt><trkpt lat="41.6541481" lon="-0.8612892"><ele>195.0</ele><time>2026-05-04T07:40:02.624Z</time></trkpt><trkpt lat="41.6542277" lon="-0.8612356"><ele>195.0</ele><time>2026-05-04T07:40:03.629Z</time></trkpt><trkpt lat="41.6543093" lon="-0.8611857"><ele>195.0</ele><time>2026-05-04T07:40:04.623Z</time></trkpt><trkpt lat="41.6543892" lon="-0.8611352"><ele>195.0</ele><time>2026-05-04T07:40:05.609Z</time></trkpt><trkpt lat="41.6544688" lon="-0.8610833"><ele>195.0</ele><time>2026-05-04T07:40:06.634Z</time></trkpt><trkpt lat="41.6545485" lon="-0.8610271"><ele>195.0</ele><time>2026-05-04T07:40:07.616Z</time></trkpt><trkpt lat="41.6546257" lon="-0.8609692"><ele>195.0</ele><time>2026-05-04T07:40:08.622Z</time></trkpt><trkpt lat="41.6547026" lon="-0.8609103"><ele>195.4</ele><time>2026-05-04T07:40:09.619Z</time></trkpt><trkpt lat="41.6547785" lon="-0.8608544"><ele>195.8</ele><time>2026-05-04T07:40:10.622Z</time></trkpt><trkpt lat="41.6548591" lon="-0.8607989"><ele>196.2</ele><time>2026-05-04T07:40:11.617Z</time></trkpt><trkpt lat="41.6549455" lon="-0.860749"><ele>196.6</ele><time>2026-05-04T07:40:12.62Z</time></trkpt><trkpt lat="41.6550302" lon="-0.8607019"><ele>197.0</ele><time>2026-05-04T07:40:13.622Z</time></trkpt><trkpt lat="41.6551128" lon="-0.8606543"><ele>197.00000000000003</ele><time>2026-05-04T07:40:14.614Z</time></trkpt><trkpt lat="41.6551929" lon="-0.8606097"><ele>197.0</ele><time>2026-05-04T07:40:15.617Z</time></trkpt><trkpt lat="41.655268" lon="-0.8605613"><ele>197.0</ele><time>2026-05-04T07:40:16.618Z</time></trkpt><trkpt lat="41.6553416" lon="-0.8605087"><ele>197.0</ele><time>2026-05-04T07:40:17.621Z</time></trkpt><trkpt lat="41.6554199" lon="-0.860455"><ele>197.00000000000003</ele><time>2026-05-04T07:40:18.62Z</time></trkpt><trkpt lat="41.6555099" lon="-0.8604031"><ele>197.0</ele><time>2026-05-04T07:40:19.62Z</time></trkpt><trkpt lat="41.6556064" lon="-0.8603545"><ele>197.0</ele><time>2026-05-04T07:40:20.617Z</time></trkpt><trkpt lat="41.6557034" lon="-0.8603151"><ele>197.0</ele><time>2026-05-04T07:40:21.62Z</time></trkpt><trkpt lat="41.6558016" lon="-0.8602782"><ele>197.0</ele><time>2026-05-04T07:40:22.617Z</time></trkpt><trkpt lat="41.6559012" lon="-0.8602438"><ele>197.0</ele><time>2026-05-04T07:40:23.611Z</time></trkpt><trkpt lat="41.6560048" lon="-0.8602126"><ele>197.0</ele><time>2026-05-04T07:40:24.617Z</time></trkpt><trkpt lat="41.6561107" lon="-0.8601953"><ele>196.39999999999998</ele><time>2026-05-04T07:40:25.618Z</time></trkpt><trkpt lat="41.6562148" lon="-0.8601838"><ele>195.79999999999998</ele><time>2026-05-04T07:40:26.612Z</time></trkpt><trkpt lat="41.6563159" lon="-0.8601782"><ele>195.2</ele><time>2026-05-04T07:40:27.619Z</time></trkpt><trkpt lat="41.6564185" lon="-0.8601791"><ele>194.6</ele><time>2026-05-04T07:40:28.614Z</time></trkpt><trkpt lat="41.6565205" lon="-0.8601859"><ele>194.0</ele><time>2026-05-04T07:40:29.615Z</time></trkpt><trkpt lat="41.6566231" lon="-0.8602002"><ele>194.0</ele><time>2026-05-04T07:40:30.622Z</time></trkpt><trkpt lat="41.6567297" lon="-0.8602194"><ele>194.0</ele><time>2026-05-04T07:40:31.635Z</time></trkpt><trkpt lat="41.6568348" lon="-0.8602448"><ele>194.0</ele><time>2026-05-04T07:40:32.614Z</time></trkpt><trkpt lat="41.6569412" lon="-0.8602748"><ele>194.0</ele><time>2026-05-04T07:40:33.611Z</time></trkpt><trkpt lat="41.6570454" lon="-0.8603099"><ele>194.0</ele><time>2026-05-04T07:40:34.617Z</time></trkpt><trkpt lat="41.6571467" lon="-0.8603533"><ele>193.79999999999998</ele><time>2026-05-04T07:40:35.615Z</time></trkpt><trkpt lat="41.6572428" lon="-0.8603998"><ele>193.6</ele><time>2026-05-04T07:40:36.618Z</time></trkpt><trkpt lat="41.6573354" lon="-0.8604563"><ele>193.4</ele><time>2026-05-04T07:40:37.61Z</time></trkpt><trkpt lat="41.6574235" lon="-0.8605144"><ele>193.2</ele><time>2026-05-04T07:40:38.614Z</time></trkpt><trkpt lat="41.6575066" lon="-0.8605741"><ele>193.0</ele><time>2026-05-04T07:40:39.613Z</time></trkpt><trkpt lat="41.6575903" lon="-0.8606403"><ele>193.0</ele><time>2026-05-04T07:40:40.621Z</time></trkpt><trkpt lat="41.6576681" lon="-0.8607124"><ele>193.0</ele><time>2026-05-04T07:40:41.61Z</time></trkpt><trkpt lat="41.6577446" lon="-0.8607908"><ele>193.0</ele><time>2026-05-04T07:40:42.614Z</time></trkpt><trkpt lat="41.6578193" lon="-0.8608787"><ele>193.0</ele><time>2026-05-04T07:40:43.615Z</time></trkpt><trkpt lat="41.6578945" lon="-0.8609733"><ele>193.0</ele><time>2026-05-04T07:40:44.61Z</time></trkpt><trkpt lat="41.6579673" lon="-0.8610716"><ele>193.4</ele><time>2026-05-04T07:40:45.611Z</time></trkpt><trkpt lat="41.6580392" lon="-0.8611682"><ele>193.8</ele><time>2026-05-04T07:40:46.615Z</time></trkpt><trkpt lat="41.6581138" lon="-0.8612616"><ele>194.2</ele><time>2026-05-04T07:40:47.614Z</time></trkpt><trkpt lat="41.6581864" lon="-0.861358"><ele>194.6</ele><time>2026-05-04T07:40:48.614Z</time></trkpt><trkpt lat="41.6582615" lon="-0.8614481"><ele>195.0</ele><time>2026-05-04T07:40:49.613Z</time></trkpt><trkpt lat="41.6583377" lon="-0.86154"><ele>195.0</ele><time>2026-05-04T07:40:50.617Z</time></trkpt><trkpt lat="41.6584119" lon="-0.8616277"><ele>195.0</ele><time>2026-05-04T07:40:51.615Z</time></trkpt><trkpt lat="41.6584863" lon="-0.8617187"><ele>195.0</ele><time>2026-05-04T07:40:52.621Z</time></trkpt><trkpt lat="41.6585619" lon="-0.8618084"><ele>195.0</ele><time>2026-05-04T07:40:53.619Z</time></trkpt><trkpt lat="41.6586399" lon="-0.8619026"><ele>195.0</ele><time>2026-05-04T07:40:54.617Z</time></trkpt><trkpt lat="41.6587159" lon="-0.8619979"><ele>195.2</ele><time>2026-05-04T07:40:55.619Z</time></trkpt><trkpt lat="41.6587906" lon="-0.8620936"><ele>195.4</ele><time>2026-05-04T07:40:56.62Z</time></trkpt><trkpt lat="41.6588627" lon="-0.8621812"><ele>195.60000000000002</ele><time>2026-05-04T07:40:57.617Z</time></trkpt><trkpt lat="41.6589349" lon="-0.8622669"><ele>195.8</ele><time>2026-05-04T07:40:58.619Z</time></trkpt><trkpt lat="41.65901" lon="-0.8623449"><ele>196.0</ele><time>2026-05-04T07:40:59.615Z</time></trkpt><trkpt lat="41.659079" lon="-0.8624167"><ele>195.99999999999997</ele><time>2026-05-04T07:41:00.613Z</time></trkpt><trkpt lat="41.6591411" lon="-0.8624885"><ele>196.0</ele><time>2026-05-04T07:41:01.61Z</time></trkpt><trkpt lat="41.659197" lon="-0.8625526"><ele>196.0</ele><time>2026-05-04T07:41:02.627Z</time></trkpt><trkpt lat="41.6592751" lon="-0.862648"><ele>196.0</ele><time>2026-05-04T07:41:04.61Z</time></trkpt><trkpt lat="41.6593287" lon="-0.8627086"><ele>195.99999999999997</ele><time>2026-05-04T07:41:06.623Z</time></trkpt><trkpt lat="41.6594045" lon="-0.8627676"><ele>196.0</ele><time>2026-05-04T07:41:28.607Z</time></trkpt><trkpt lat="41.6594871" lon="-0.8628689"><ele>196.83333333333331</ele><time>2026-05-04T07:41:30.61Z</time></trkpt><trkpt lat="41.6595409" lon="-0.8629258"><ele>197.66666666666666</ele><time>2026-05-04T07:41:31.607Z</time></trkpt><trkpt lat="41.6596064" lon="-0.8629886"><ele>198.5</ele><time>2026-05-04T07:41:32.61Z</time></trkpt><trkpt lat="41.6596767" lon="-0.8630558"><ele>199.33333333333331</ele><time>2026-05-04T07:41:33.627Z</time></trkpt><trkpt lat="41.6597484" lon="-0.8631231"><ele>200.16666666666666</ele><time>2026-05-04T07:41:34.609Z</time></trkpt><trkpt lat="41.6598233" lon="-0.8631841"><ele>201.0</ele><time>2026-05-04T07:41:35.607Z</time></trkpt><trkpt lat="41.659901" lon="-0.8632505"><ele>201.0</ele><time>2026-05-04T07:41:36.617Z</time></trkpt><trkpt lat="41.6599782" lon="-0.8633114"><ele>201.0</ele><time>2026-05-04T07:41:37.609Z</time></trkpt><trkpt lat="41.6600578" lon="-0.8633737"><ele>201.0</ele><time>2026-05-04T07:41:38.607Z</time></trkpt><trkpt lat="41.6601357" lon="-0.8634342"><ele>201.0</ele><time>2026-05-04T07:41:39.613Z</time></trkpt><trkpt lat="41.6602116" lon="-0.863502"><ele>201.0</ele><time>2026-05-04T07:41:40.606Z</time></trkpt><trkpt lat="41.6602919" lon="-0.8635647"><ele>202.60000000000002</ele><time>2026-05-04T07:41:41.604Z</time></trkpt><trkpt lat="41.6603779" lon="-0.8636328"><ele>204.2</ele><time>2026-05-04T07:41:42.606Z</time></trkpt><trkpt lat="41.6604665" lon="-0.8636962"><ele>205.8</ele><time>2026-05-04T07:41:43.604Z</time></trkpt><trkpt lat="41.6605607" lon="-0.8637574"><ele>207.39999999999998</ele><time>2026-05-04T07:41:44.606Z</time></trkpt><trkpt lat="41.6606488" lon="-0.8638188"><ele>209.0</ele><time>2026-05-04T07:41:45.604Z</time></trkpt><trkpt lat="41.660735" lon="-0.8638874"><ele>209.0</ele><time>2026-05-04T07:41:46.605Z</time></trkpt><trkpt lat="41.6608204" lon="-0.8639618"><ele>209.0</ele><time>2026-05-04T07:41:47.606Z</time></trkpt><trkpt lat="41.6609057" lon="-0.8640299"><ele>209.0</ele><time>2026-05-04T07:41:48.607Z</time></trkpt><trkpt lat="41.6609957" lon="-0.8640963"><ele>209.0</ele><time>2026-05-04T07:41:49.605Z</time></trkpt><trkpt lat="41.6610844" lon="-0.8641589"><ele>209.0</ele><time>2026-05-04T07:41:50.604Z</time></trkpt><trkpt lat="41.6611702" lon="-0.8642205"><ele>209.00000000000003</ele><time>2026-05-04T07:41:51.602Z</time></trkpt><trkpt lat="41.6612484" lon="-0.8642726"><ele>209.0</ele><time>2026-05-04T07:41:52.603Z</time></trkpt><trkpt lat="41.6613166" lon="-0.8643226"><ele>209.0</ele><time>2026-05-04T07:41:53.593Z</time></trkpt><trkpt lat="41.6613799" lon="-0.8643642"><ele>209.0</ele><time>2026-05-04T07:41:54.595Z</time></trkpt><trkpt lat="41.6614366" lon="-0.8644055"><ele>209.00000000000003</ele><time>2026-05-04T07:41:55.59Z</time></trkpt><trkpt lat="41.6615411" lon="-0.8644732"><ele>209.0</ele><time>2026-05-04T07:41:57.599Z</time></trkpt><trkpt lat="41.6616449" lon="-0.8645672"><ele>207.33333333333334</ele><time>2026-05-04T07:41:59.597Z</time></trkpt><trkpt lat="41.6616999" lon="-0.8646116"><ele>205.66666666666669</ele><time>2026-05-04T07:42:00.602Z</time></trkpt><trkpt lat="41.6618099" lon="-0.864694"><ele>204.0</ele><time>2026-05-04T07:42:02.596Z</time></trkpt><trkpt lat="41.6618723" lon="-0.8647337"><ele>202.33333333333331</ele><time>2026-05-04T07:42:03.6Z</time></trkpt><trkpt lat="41.6619375" lon="-0.8647645"><ele>200.66666666666666</ele><time>2026-05-04T07:42:04.62Z</time></trkpt><trkpt lat="41.6619991" lon="-0.864793"><ele>199.0</ele><time>2026-05-04T07:42:05.599Z</time></trkpt><trkpt lat="41.6620997" lon="-0.8648232"><ele>198.66666666666666</ele><time>2026-05-04T07:42:07.593Z</time></trkpt><trkpt lat="41.6621812" lon="-0.8647922"><ele>198.33333333333331</ele><time>2026-05-04T07:42:10.591Z</time></trkpt><trkpt lat="41.6622543" lon="-0.8647311"><ele>198.0</ele><time>2026-05-04T07:42:12.602Z</time></trkpt><trkpt lat="41.6623168" lon="-0.8646414"><ele>197.66666666666669</ele><time>2026-05-04T07:42:14.607Z</time></trkpt><trkpt lat="41.662368" lon="-0.864535"><ele>197.33333333333334</ele><time>2026-05-04T07:42:16.604Z</time></trkpt><trkpt lat="41.6624145" lon="-0.8644336"><ele>197.0</ele><time>2026-05-04T07:42:18.608Z</time></trkpt><trkpt lat="41.6624551" lon="-0.8643327"><ele>197.83333333333334</ele><time>2026-05-04T07:42:20.603Z</time></trkpt><trkpt lat="41.662505" lon="-0.8642239"><ele>198.66666666666669</ele><time>2026-05-04T07:42:22.606Z</time></trkpt><trkpt lat="41.6625535" lon="-0.8641058"><ele>199.5</ele><time>2026-05-04T07:42:24.608Z</time></trkpt><trkpt lat="41.6625986" lon="-0.863965"><ele>200.33333333333331</ele><time>2026-05-04T07:42:26.602Z</time></trkpt><trkpt lat="41.6626279" lon="-0.8638867"><ele>201.16666666666666</ele><time>2026-05-04T07:42:27.603Z</time></trkpt><trkpt lat="41.6626624" lon="-0.8638021"><ele>202.0</ele><time>2026-05-04T07:42:28.604Z</time></trkpt><trkpt lat="41.6626955" lon="-0.8637201"><ele>201.99999999999997</ele><time>2026-05-04T07:42:29.606Z</time></trkpt><trkpt lat="41.6627288" lon="-0.8636263"><ele>202.0</ele><time>2026-05-04T07:42:30.603Z</time></trkpt><trkpt lat="41.6627627" lon="-0.8635324"><ele>202.0</ele><time>2026-05-04T07:42:31.592Z</time></trkpt><trkpt lat="41.6627947" lon="-0.8634312"><ele>202.0</ele><time>2026-05-04T07:42:32.596Z</time></trkpt><trkpt lat="41.6628352" lon="-0.863326"><ele>201.99999999999997</ele><time>2026-05-04T07:42:33.596Z</time></trkpt><trkpt lat="41.6628729" lon="-0.8632175"><ele>202.0</ele><time>2026-05-04T07:42:34.597Z</time></trkpt><trkpt lat="41.6629113" lon="-0.8631033"><ele>202.0</ele><time>2026-05-04T07:42:35.614Z</time></trkpt><trkpt lat="41.6629504" lon="-0.8629919"><ele>202.0</ele><time>2026-05-04T07:42:36.612Z</time></trkpt><trkpt lat="41.6629893" lon="-0.8628816"><ele>202.0</ele><time>2026-05-04T07:42:37.599Z</time></trkpt><trkpt lat="41.6630343" lon="-0.8627753"><ele>202.0</ele><time>2026-05-04T07:42:38.595Z</time></trkpt><trkpt lat="41.663071" lon="-0.8626669"><ele>202.0</ele><time>2026-05-04T07:42:39.597Z</time></trkpt><trkpt lat="41.6631128" lon="-0.862559"><ele>201.99999999999997</ele><time>2026-05-04T07:42:40.598Z</time></trkpt><trkpt lat="41.663154" lon="-0.8624535"><ele>202.0</ele><time>2026-05-04T07:42:41.598Z</time></trkpt><trkpt lat="41.6631925" lon="-0.8623475"><ele>202.0</ele><time>2026-05-04T07:42:42.601Z</time></trkpt><trkpt lat="41.6632288" lon="-0.8622461"><ele>202.0</ele><time>2026-05-04T07:42:43.601Z</time></trkpt><trkpt lat="41.6632724" lon="-0.8621519"><ele>201.99999999999997</ele><time>2026-05-04T07:42:44.602Z</time></trkpt><trkpt lat="41.6633092" lon="-0.8620681"><ele>202.0</ele><time>2026-05-04T07:42:45.601Z</time></trkpt><trkpt lat="41.6633662" lon="-0.8619394"><ele>201.99999999999997</ele><time>2026-05-04T07:42:47.597Z</time></trkpt><trkpt lat="41.6634107" lon="-0.8618518"><ele>202.0</ele><time>2026-05-04T07:42:49.597Z</time></trkpt><trkpt lat="41.663461" lon="-0.8617972"><ele>202.0</ele><time>2026-05-04T07:43:05.583Z</time></trkpt><trkpt lat="41.6634895" lon="-0.8617149"><ele>202.0</ele><time>2026-05-04T07:43:22.599Z</time></trkpt><trkpt lat="41.6635388" lon="-0.8615583"><ele>201.99999999999997</ele><time>2026-05-04T07:43:24.597Z</time></trkpt><trkpt lat="41.6635637" lon="-0.8614711"><ele>202.0</ele><time>2026-05-04T07:43:25.595Z</time></trkpt><trkpt lat="41.6635923" lon="-0.8613778"><ele>201.33333333333331</ele><time>2026-05-04T07:43:26.598Z</time></trkpt><trkpt lat="41.6636281" lon="-0.8612886"><ele>200.66666666666666</ele><time>2026-05-04T07:43:27.608Z</time></trkpt><trkpt lat="41.6636725" lon="-0.8611951"><ele>200.0</ele><time>2026-05-04T07:43:28.61Z</time></trkpt><trkpt lat="41.663719" lon="-0.8610976"><ele>199.33333333333331</ele><time>2026-05-04T07:43:29.608Z</time></trkpt><trkpt lat="41.6637617" lon="-0.8609903"><ele>198.66666666666666</ele><time>2026-05-04T07:43:30.604Z</time></trkpt><trkpt lat="41.6638034" lon="-0.8608799"><ele>198.0</ele><time>2026-05-04T07:43:31.603Z</time></trkpt><trkpt lat="41.6638539" lon="-0.8607679"><ele>198.0</ele><time>2026-05-04T07:43:32.607Z</time></trkpt><trkpt lat="41.6638977" lon="-0.8606567"><ele>198.0</ele><time>2026-05-04T07:43:33.609Z</time></trkpt><trkpt lat="41.6639457" lon="-0.8605402"><ele>198.0</ele><time>2026-05-04T07:43:34.605Z</time></trkpt><trkpt lat="41.6639939" lon="-0.8604249"><ele>198.0</ele><time>2026-05-04T07:43:35.601Z</time></trkpt><trkpt lat="41.6640392" lon="-0.8603134"><ele>198.0</ele><time>2026-05-04T07:43:36.606Z</time></trkpt><trkpt lat="41.6640876" lon="-0.8602137"><ele>198.66666666666666</ele><time>2026-05-04T07:43:37.618Z</time></trkpt><trkpt lat="41.6641339" lon="-0.860113"><ele>199.33333333333331</ele><time>2026-05-04T07:43:38.61Z</time></trkpt><trkpt lat="41.6641895" lon="-0.8600163"><ele>200.0</ele><time>2026-05-04T07:43:39.607Z</time></trkpt><trkpt lat="41.6642359" lon="-0.859922"><ele>200.66666666666666</ele><time>2026-05-04T07:43:40.604Z</time></trkpt><trkpt lat="41.6642831" lon="-0.8598231"><ele>201.33333333333331</ele><time>2026-05-04T07:43:41.61Z</time></trkpt><trkpt lat="41.6643276" lon="-0.859725"><ele>202.0</ele><time>2026-05-04T07:43:42.607Z</time></trkpt><trkpt lat="41.6643718" lon="-0.8596266"><ele>201.99999999999997</ele><time>2026-05-04T07:43:43.605Z</time></trkpt><trkpt lat="41.6644138" lon="-0.8595255"><ele>202.0</ele><time>2026-05-04T07:43:44.608Z</time></trkpt><trkpt lat="41.6644567" lon="-0.8594226"><ele>202.0</ele><time>2026-05-04T07:43:45.606Z</time></trkpt><trkpt lat="41.6645003" lon="-0.8593181"><ele>202.0</ele><time>2026-05-04T07:43:46.617Z</time></trkpt><trkpt lat="41.6645416" lon="-0.8592141"><ele>201.99999999999997</ele><time>2026-05-04T07:43:47.607Z</time></trkpt><trkpt lat="41.6645868" lon="-0.8591023"><ele>202.0</ele><time>2026-05-04T07:43:48.609Z</time></trkpt><trkpt lat="41.6646289" lon="-0.8589866"><ele>201.2</ele><time>2026-05-04T07:43:49.611Z</time></trkpt><trkpt lat="41.6646662" lon="-0.8588692"><ele>200.39999999999998</ele><time>2026-05-04T07:43:50.611Z</time></trkpt><trkpt lat="41.6646977" lon="-0.8587492"><ele>199.60000000000002</ele><time>2026-05-04T07:43:51.612Z</time></trkpt><trkpt lat="41.6647116" lon="-0.8586279"><ele>198.8</ele><time>2026-05-04T07:43:52.608Z</time></trkpt><trkpt lat="41.6647108" lon="-0.858501"><ele>198.0</ele><time>2026-05-04T07:43:53.612Z</time></trkpt><trkpt lat="41.664704" lon="-0.8583723"><ele>198.0</ele><time>2026-05-04T07:43:54.612Z</time></trkpt><trkpt lat="41.6646971" lon="-0.858246"><ele>198.0</ele><time>2026-05-04T07:43:55.617Z</time></trkpt><trkpt lat="41.6646911" lon="-0.8581217"><ele>198.0</ele><time>2026-05-04T07:43:56.61Z</time></trkpt><trkpt lat="41.6646869" lon="-0.8579973"><ele>198.0</ele><time>2026-05-04T07:43:57.607Z</time></trkpt><trkpt lat="41.6646921" lon="-0.8578701"><ele>198.0</ele><time>2026-05-04T07:43:58.605Z</time></trkpt><trkpt lat="41.6647084" lon="-0.857748"><ele>198.0</ele><time>2026-05-04T07:43:59.607Z</time></trkpt><trkpt lat="41.664744" lon="-0.8576422"><ele>198.0</ele><time>2026-05-04T07:44:00.608Z</time></trkpt><trkpt lat="41.6647944" lon="-0.8575515"><ele>198.0</ele><time>2026-05-04T07:44:01.602Z</time></trkpt><trkpt lat="41.664859" lon="-0.8574817"><ele>198.0</ele><time>2026-05-04T07:44:02.598Z</time></trkpt><trkpt lat="41.6649349" lon="-0.8574256"><ele>198.0</ele><time>2026-05-04T07:44:03.604Z</time></trkpt><trkpt lat="41.6650214" lon="-0.8573797"><ele>198.0</ele><time>2026-05-04T07:44:04.607Z</time></trkpt><trkpt lat="41.6651115" lon="-0.8573338"><ele>198.0</ele><time>2026-05-04T07:44:05.607Z</time></trkpt><trkpt lat="41.665196" lon="-0.8572801"><ele>198.0</ele><time>2026-05-04T07:44:06.611Z</time></trkpt><trkpt lat="41.6652763" lon="-0.8572144"><ele>198.0</ele><time>2026-05-04T07:44:07.609Z</time></trkpt><trkpt lat="41.665346" lon="-0.8571454"><ele>198.0</ele><time>2026-05-04T07:44:08.632Z</time></trkpt><trkpt lat="41.6654065" lon="-0.8570593"><ele>198.0</ele><time>2026-05-04T07:44:09.609Z</time></trkpt><trkpt lat="41.665456" lon="-0.8569591"><ele>198.33333333333334</ele><time>2026-05-04T07:44:10.611Z</time></trkpt><trkpt lat="41.6654933" lon="-0.8568556"><ele>198.66666666666669</ele><time>2026-05-04T07:44:11.611Z</time></trkpt><trkpt lat="41.6655269" lon="-0.856755"><ele>199.0</ele><time>2026-05-04T07:44:12.615Z</time></trkpt><trkpt lat="41.6655613" lon="-0.8566592"><ele>199.33333333333334</ele><time>2026-05-04T07:44:13.618Z</time></trkpt><trkpt lat="41.6655944" lon="-0.8565676"><ele>199.66666666666669</ele><time>2026-05-04T07:44:14.614Z</time></trkpt><trkpt lat="41.6656283" lon="-0.856483"><ele>200.0</ele><time>2026-05-04T07:44:15.615Z</time></trkpt><trkpt lat="41.6656609" lon="-0.8564031"><ele>200.00000000000003</ele><time>2026-05-04T07:44:16.62Z</time></trkpt><trkpt lat="41.6656934" lon="-0.8563287"><ele>200.0</ele><time>2026-05-04T07:44:17.618Z</time></trkpt><trkpt lat="41.6657532" lon="-0.8562037"><ele>200.0</ele><time>2026-05-04T07:44:19.619Z</time></trkpt><trkpt lat="41.6657985" lon="-0.8560946"><ele>200.0</ele><time>2026-05-04T07:44:21.621Z</time></trkpt><trkpt lat="41.6658269" lon="-0.8560131"><ele>200.00000000000003</ele><time>2026-05-04T07:44:23.626Z</time></trkpt><trkpt lat="41.6658615" lon="-0.8559119"><ele>200.0</ele><time>2026-05-04T07:44:48.617Z</time></trkpt><trkpt lat="41.6659278" lon="-0.8557741"><ele>200.00000000000003</ele><time>2026-05-04T07:44:50.616Z</time></trkpt><trkpt lat="41.6659658" lon="-0.8556943"><ele>200.0</ele><time>2026-05-04T07:44:51.611Z</time></trkpt><trkpt lat="41.6660045" lon="-0.8556095"><ele>200.0</ele><time>2026-05-04T07:44:52.611Z</time></trkpt><trkpt lat="41.6660437" lon="-0.855519"><ele>200.0</ele><time>2026-05-04T07:44:53.61Z</time></trkpt><trkpt lat="41.6660827" lon="-0.8554251"><ele>200.00000000000003</ele><time>2026-05-04T07:44:54.612Z</time></trkpt><trkpt lat="41.6661224" lon="-0.8553288"><ele>200.0</ele><time>2026-05-04T07:44:55.602Z</time></trkpt><trkpt lat="41.666164" lon="-0.8552284"><ele>199.2</ele><time>2026-05-04T07:44:56.612Z</time></trkpt><trkpt lat="41.6662012" lon="-0.8551187"><ele>198.4</ele><time>2026-05-04T07:44:57.614Z</time></trkpt><trkpt lat="41.6662447" lon="-0.8550099"><ele>197.60000000000002</ele><time>2026-05-04T07:44:58.618Z</time></trkpt><trkpt lat="41.6662882" lon="-0.854901"><ele>196.8</ele><time>2026-05-04T07:44:59.62Z</time></trkpt><trkpt lat="41.6663414" lon="-0.8547833"><ele>196.0</ele><time>2026-05-04T07:45:00.62Z</time></trkpt><trkpt lat="41.6663971" lon="-0.8546583"><ele>196.0</ele><time>2026-05-04T07:45:01.614Z</time></trkpt><trkpt lat="41.6664519" lon="-0.8545284"><ele>196.0</ele><time>2026-05-04T07:45:02.617Z</time></trkpt><trkpt lat="41.6664999" lon="-0.8544018"><ele>196.0</ele><time>2026-05-04T07:45:03.614Z</time></trkpt><trkpt lat="41.6665503" lon="-0.8542699"><ele>196.0</ele><time>2026-05-04T07:45:04.616Z</time></trkpt><trkpt lat="41.6666035" lon="-0.854145"><ele>196.0</ele><time>2026-05-04T07:45:05.614Z</time></trkpt><trkpt lat="41.6666508" lon="-0.8540289"><ele>196.20000000000002</ele><time>2026-05-04T07:45:06.624Z</time></trkpt><trkpt lat="41.6667048" lon="-0.8539065"><ele>196.4</ele><time>2026-05-04T07:45:07.617Z</time></trkpt><trkpt lat="41.6667605" lon="-0.8537849"><ele>196.6</ele><time>2026-05-04T07:45:08.62Z</time></trkpt><trkpt lat="41.6668158" lon="-0.8536651"><ele>196.8</ele><time>2026-05-04T07:45:09.631Z</time></trkpt><trkpt lat="41.666871" lon="-0.8535437"><ele>197.0</ele><time>2026-05-04T07:45:10.615Z</time></trkpt><trkpt lat="41.6669254" lon="-0.8534216"><ele>197.2</ele><time>2026-05-04T07:45:11.614Z</time></trkpt><trkpt lat="41.6669789" lon="-0.8532987"><ele>197.39999999999998</ele><time>2026-05-04T07:45:12.617Z</time></trkpt><trkpt lat="41.6670315" lon="-0.8531769"><ele>197.60000000000002</ele><time>2026-05-04T07:45:13.615Z</time></trkpt><trkpt lat="41.6670819" lon="-0.8530523"><ele>197.8</ele><time>2026-05-04T07:45:14.614Z</time></trkpt><trkpt lat="41.6671309" lon="-0.8529297"><ele>198.0</ele><time>2026-05-04T07:45:15.616Z</time></trkpt><trkpt lat="41.6671825" lon="-0.8528079"><ele>198.0</ele><time>2026-05-04T07:45:16.618Z</time></trkpt><trkpt lat="41.6672353" lon="-0.852683"><ele>198.0</ele><time>2026-05-04T07:45:17.617Z</time></trkpt><trkpt lat="41.6672887" lon="-0.8525586"><ele>198.0</ele><time>2026-05-04T07:45:18.612Z</time></trkpt><trkpt lat="41.6673417" lon="-0.8524304"><ele>198.0</ele><time>2026-05-04T07:45:19.614Z</time></trkpt><trkpt lat="41.6673967" lon="-0.8523043"><ele>198.0</ele><time>2026-05-04T07:45:20.614Z</time></trkpt><trkpt lat="41.667449" lon="-0.8521886"><ele>197.83333333333334</ele><time>2026-05-04T07:45:21.611Z</time></trkpt><trkpt lat="41.6674909" lon="-0.8520735"><ele>197.66666666666669</ele><time>2026-05-04T07:45:22.614Z</time></trkpt><trkpt lat="41.6675269" lon="-0.851974"><ele>197.5</ele><time>2026-05-04T07:45:23.612Z</time></trkpt><trkpt lat="41.6675561" lon="-0.8518891"><ele>197.33333333333334</ele><time>2026-05-04T07:45:24.606Z</time></trkpt><trkpt lat="41.6675851" lon="-0.8518081"><ele>197.16666666666669</ele><time>2026-05-04T07:45:25.61Z</time></trkpt><trkpt lat="41.6676165" lon="-0.8517317"><ele>197.0</ele><time>2026-05-04T07:45:26.615Z</time></trkpt><trkpt lat="41.6676493" lon="-0.8516061"><ele>197.00000000000003</ele><time>2026-05-04T07:45:28.62Z</time></trkpt><trkpt lat="41.6676359" lon="-0.8514845"><ele>197.0</ele><time>2026-05-04T07:45:30.619Z</time></trkpt><trkpt lat="41.6675855" lon="-0.851339"><ele>197.0</ele><time>2026-05-04T07:45:33.613Z</time></trkpt><trkpt lat="41.6675645" lon="-0.8512462"><ele>197.0</ele><time>2026-05-04T07:45:35.614Z</time></trkpt><trkpt lat="41.6675545" lon="-0.8511377"><ele>197.00000000000003</ele><time>2026-05-04T07:45:39.615Z</time></trkpt><trkpt lat="41.6674923" lon="-0.8511569"><ele>197.0</ele><time>2026-05-04T08:01:20.625Z</time></trkpt><trkpt lat="41.6675725" lon="-0.8511076"><ele>197.00000000000003</ele><time>2026-05-04T08:04:57.622Z</time></trkpt><trkpt lat="41.6676482" lon="-0.8511056"><ele>197.0</ele><time>2026-05-04T08:04:59.625Z</time></trkpt><trkpt lat="41.6677293" lon="-0.8510741"><ele>197.0</ele><time>2026-05-04T08:05:01.612Z</time></trkpt><trkpt lat="41.6678128" lon="-0.8510463"><ele>197.0</ele><time>2026-05-04T08:05:03.611Z</time></trkpt><trkpt lat="41.6678791" lon="-0.8510179"><ele>197.00000000000003</ele><time>2026-05-04T08:05:05.604Z</time></trkpt><trkpt lat="41.6679435" lon="-0.850987"><ele>197.0</ele><time>2026-05-04T08:05:07.606Z</time></trkpt><trkpt lat="41.6680072" lon="-0.8509184"><ele>197.16666666666669</ele><time>2026-05-04T08:05:09.595Z</time></trkpt><trkpt lat="41.6680676" lon="-0.8508004"><ele>197.33333333333334</ele><time>2026-05-04T08:05:11.604Z</time></trkpt><trkpt lat="41.6681274" lon="-0.8506661"><ele>197.5</ele><time>2026-05-04T08:05:13.607Z</time></trkpt><trkpt lat="41.6681586" lon="-0.8505906"><ele>197.66666666666669</ele><time>2026-05-04T08:05:14.605Z</time></trkpt><trkpt lat="41.6681909" lon="-0.8505102"><ele>197.83333333333334</ele><time>2026-05-04T08:05:15.615Z</time></trkpt><trkpt lat="41.6682277" lon="-0.8504258"><ele>198.0</ele><time>2026-05-04T08:05:16.607Z</time></trkpt><trkpt lat="41.6682605" lon="-0.850334"><ele>198.0</ele><time>2026-05-04T08:05:17.609Z</time></trkpt><trkpt lat="41.6682977" lon="-0.8502445"><ele>198.0</ele><time>2026-05-04T08:05:18.606Z</time></trkpt><trkpt lat="41.6683321" lon="-0.8501492"><ele>198.0</ele><time>2026-05-04T08:05:19.608Z</time></trkpt><trkpt lat="41.6683753" lon="-0.8500595"><ele>198.0</ele><time>2026-05-04T08:05:20.61Z</time></trkpt><trkpt lat="41.6684175" lon="-0.8499683"><ele>198.0</ele><time>2026-05-04T08:05:21.615Z</time></trkpt><trkpt lat="41.6684566" lon="-0.8498759"><ele>198.0</ele><time>2026-05-04T08:05:22.616Z</time></trkpt><trkpt lat="41.6684904" lon="-0.8497847"><ele>197.83333333333334</ele><time>2026-05-04T08:05:23.615Z</time></trkpt><trkpt lat="41.6685256" lon="-0.8496973"><ele>197.66666666666669</ele><time>2026-05-04T08:05:24.617Z</time></trkpt><trkpt lat="41.6685631" lon="-0.8496056"><ele>197.5</ele><time>2026-05-04T08:05:25.614Z</time></trkpt><trkpt lat="41.6686032" lon="-0.8495105"><ele>197.33333333333334</ele><time>2026-05-04T08:05:26.612Z</time></trkpt><trkpt lat="41.6686441" lon="-0.8494117"><ele>197.16666666666669</ele><time>2026-05-04T08:05:27.608Z</time></trkpt><trkpt lat="41.6686834" lon="-0.8493107"><ele>197.0</ele><time>2026-05-04T08:05:28.608Z</time></trkpt><trkpt lat="41.6687282" lon="-0.849206"><ele>197.39999999999998</ele><time>2026-05-04T08:05:29.61Z</time></trkpt><trkpt lat="41.6687721" lon="-0.8490991"><ele>197.79999999999998</ele><time>2026-05-04T08:05:30.612Z</time></trkpt><trkpt lat="41.6688162" lon="-0.8489912"><ele>198.2</ele><time>2026-05-04T08:05:31.613Z</time></trkpt><trkpt lat="41.6688621" lon="-0.8488858"><ele>198.6</ele><time>2026-05-04T08:05:32.614Z</time></trkpt><trkpt lat="41.6689066" lon="-0.8487825"><ele>199.0</ele><time>2026-05-04T08:05:33.613Z</time></trkpt><trkpt lat="41.6689496" lon="-0.8486771"><ele>199.0</ele><time>2026-05-04T08:05:34.611Z</time></trkpt><trkpt lat="41.6689992" lon="-0.8485715"><ele>199.0</ele><time>2026-05-04T08:05:35.609Z</time></trkpt><trkpt lat="41.6690453" lon="-0.8484663"><ele>199.0</ele><time>2026-05-04T08:05:36.614Z</time></trkpt><trkpt lat="41.6690913" lon="-0.848354"><ele>199.0</ele><time>2026-05-04T08:05:37.611Z</time></trkpt><trkpt lat="41.6691364" lon="-0.8482435"><ele>199.0</ele><time>2026-05-04T08:05:38.614Z</time></trkpt><trkpt lat="41.6691812" lon="-0.8481299"><ele>199.2</ele><time>2026-05-04T08:05:39.616Z</time></trkpt><trkpt lat="41.66923" lon="-0.8480189"><ele>199.39999999999998</ele><time>2026-05-04T08:05:40.617Z</time></trkpt><trkpt lat="41.6692776" lon="-0.8479044"><ele>199.6</ele><time>2026-05-04T08:05:41.617Z</time></trkpt><trkpt lat="41.6693268" lon="-0.8477883"><ele>199.8</ele><time>2026-05-04T08:05:42.618Z</time></trkpt><trkpt lat="41.669377" lon="-0.8476707"><ele>200.0</ele><time>2026-05-04T08:05:43.625Z</time></trkpt><trkpt lat="41.6694234" lon="-0.847551"><ele>200.2</ele><time>2026-05-04T08:05:44.611Z</time></trkpt><trkpt lat="41.6694699" lon="-0.8474306"><ele>200.4</ele><time>2026-05-04T08:05:45.61Z</time></trkpt><trkpt lat="41.6695265" lon="-0.847311"><ele>200.60000000000002</ele><time>2026-05-04T08:05:46.63Z</time></trkpt><trkpt lat="41.6695772" lon="-0.8471982"><ele>200.8</ele><time>2026-05-04T08:05:47.614Z</time></trkpt><trkpt lat="41.6696275" lon="-0.8470869"><ele>201.0</ele><time>2026-05-04T08:05:48.611Z</time></trkpt><trkpt lat="41.6696746" lon="-0.8469815"><ele>201.0</ele><time>2026-05-04T08:05:49.61Z</time></trkpt><trkpt lat="41.6697243" lon="-0.8468792"><ele>201.0</ele><time>2026-05-04T08:05:50.609Z</time></trkpt><trkpt lat="41.6697688" lon="-0.8467839"><ele>201.0</ele><time>2026-05-04T08:05:51.608Z</time></trkpt><trkpt lat="41.669807" lon="-0.8466898"><ele>201.0</ele><time>2026-05-04T08:05:52.608Z</time></trkpt><trkpt lat="41.6698414" lon="-0.8466084"><ele>201.0</ele><time>2026-05-04T08:05:53.605Z</time></trkpt><trkpt lat="41.6698732" lon="-0.8465343"><ele>201.0</ele><time>2026-05-04T08:05:54.61Z</time></trkpt><trkpt lat="41.6699232" lon="-0.8464189"><ele>201.20000000000002</ele><time>2026-05-04T08:05:56.614Z</time></trkpt><trkpt lat="41.6699596" lon="-0.8463392"><ele>201.4</ele><time>2026-05-04T08:05:58.605Z</time></trkpt><trkpt lat="41.6699963" lon="-0.846258"><ele>201.6</ele><time>2026-05-04T08:06:02.61Z</time></trkpt><trkpt lat="41.6700518" lon="-0.8461392"><ele>201.8</ele><time>2026-05-04T08:06:26.61Z</time></trkpt><trkpt lat="41.6701012" lon="-0.8460176"><ele>202.0</ele><time>2026-05-04T08:06:28.612Z</time></trkpt><trkpt lat="41.6701462" lon="-0.8458836"><ele>202.0</ele><time>2026-05-04T08:06:30.611Z</time></trkpt><trkpt lat="41.6702051" lon="-0.8457251"><ele>202.0</ele><time>2026-05-04T08:06:32.606Z</time></trkpt><trkpt lat="41.6702442" lon="-0.8456301"><ele>202.0</ele><time>2026-05-04T08:06:33.605Z</time></trkpt><trkpt lat="41.6702833" lon="-0.8455325"><ele>202.0</ele><time>2026-05-04T08:06:34.608Z</time></trkpt><trkpt lat="41.6703266" lon="-0.8454305"><ele>202.0</ele><time>2026-05-04T08:06:35.609Z</time></trkpt><trkpt lat="41.6703711" lon="-0.845322"><ele>202.2</ele><time>2026-05-04T08:06:36.614Z</time></trkpt><trkpt lat="41.6704192" lon="-0.8452063"><ele>202.39999999999998</ele><time>2026-05-04T08:06:37.611Z</time></trkpt><trkpt lat="41.670471" lon="-0.8450933"><ele>202.60000000000002</ele><time>2026-05-04T08:06:38.614Z</time></trkpt><trkpt lat="41.6705229" lon="-0.8449778"><ele>202.8</ele><time>2026-05-04T08:06:39.608Z</time></trkpt><trkpt lat="41.6705731" lon="-0.8448614"><ele>203.0</ele><time>2026-05-04T08:06:40.607Z</time></trkpt><trkpt lat="41.6706184" lon="-0.8447368"><ele>203.0</ele><time>2026-05-04T08:06:41.605Z</time></trkpt><trkpt lat="41.6706675" lon="-0.8446111"><ele>203.0</ele><time>2026-05-04T08:06:42.608Z</time></trkpt><trkpt lat="41.6707166" lon="-0.8444922"><ele>203.0</ele><time>2026-05-04T08:06:43.602Z</time></trkpt><trkpt lat="41.6707717" lon="-0.8443698"><ele>203.0</ele><time>2026-05-04T08:06:44.608Z</time></trkpt><trkpt lat="41.6708188" lon="-0.8442473"><ele>203.0</ele><time>2026-05-04T08:06:45.606Z</time></trkpt><trkpt lat="41.6708648" lon="-0.8441236"><ele>203.0</ele><time>2026-05-04T08:06:46.606Z</time></trkpt><trkpt lat="41.6709066" lon="-0.8440012"><ele>203.0</ele><time>2026-05-04T08:06:47.606Z</time></trkpt><trkpt lat="41.6709441" lon="-0.8438771"><ele>203.0</ele><time>2026-05-04T08:06:48.623Z</time></trkpt><trkpt lat="41.6709765" lon="-0.8437446"><ele>203.0</ele><time>2026-05-04T08:06:49.605Z</time></trkpt><trkpt lat="41.6710027" lon="-0.8436085"><ele>203.0</ele><time>2026-05-04T08:06:50.609Z</time></trkpt><trkpt lat="41.6710189" lon="-0.8434692"><ele>203.0</ele><time>2026-05-04T08:06:51.606Z</time></trkpt><trkpt lat="41.6710305" lon="-0.8433301"><ele>203.0</ele><time>2026-05-04T08:06:52.606Z</time></trkpt><trkpt lat="41.6710331" lon="-0.8431854"><ele>203.0</ele><time>2026-05-04T08:06:53.607Z</time></trkpt><trkpt lat="41.6710282" lon="-0.843041"><ele>203.0</ele><time>2026-05-04T08:06:54.611Z</time></trkpt><trkpt lat="41.6710148" lon="-0.8428946"><ele>203.0</ele><time>2026-05-04T08:06:55.61Z</time></trkpt><trkpt lat="41.670999" lon="-0.8427499"><ele>202.4</ele><time>2026-05-04T08:06:56.613Z</time></trkpt><trkpt lat="41.6709822" lon="-0.8426105"><ele>201.8</ele><time>2026-05-04T08:06:57.609Z</time></trkpt><trkpt lat="41.6709649" lon="-0.8424693"><ele>201.2</ele><time>2026-05-04T08:06:58.616Z</time></trkpt><trkpt lat="41.6709432" lon="-0.8423235"><ele>200.6</ele><time>2026-05-04T08:06:59.602Z</time></trkpt><trkpt lat="41.6709199" lon="-0.8421768"><ele>200.0</ele><time>2026-05-04T08:07:00.61Z</time></trkpt><trkpt lat="41.6709029" lon="-0.8420185"><ele>200.0</ele><time>2026-05-04T08:07:01.605Z</time></trkpt><trkpt lat="41.6708841" lon="-0.8418649"><ele>200.0</ele><time>2026-05-04T08:07:02.606Z</time></trkpt><trkpt lat="41.670864" lon="-0.8417072"><ele>200.0</ele><time>2026-05-04T08:07:03.603Z</time></trkpt><trkpt lat="41.6708472" lon="-0.8415574"><ele>200.0</ele><time>2026-05-04T08:07:04.602Z</time></trkpt><trkpt lat="41.6708343" lon="-0.8414098"><ele>199.8</ele><time>2026-05-04T08:07:05.606Z</time></trkpt><trkpt lat="41.6708223" lon="-0.841259"><ele>199.6</ele><time>2026-05-04T08:07:06.612Z</time></trkpt><trkpt lat="41.6708098" lon="-0.8411088"><ele>199.39999999999998</ele><time>2026-05-04T08:07:07.604Z</time></trkpt><trkpt lat="41.6707998" lon="-0.8409648"><ele>199.2</ele><time>2026-05-04T08:07:08.61Z</time></trkpt><trkpt lat="41.6707849" lon="-0.8408293"><ele>199.0</ele><time>2026-05-04T08:07:09.607Z</time></trkpt><trkpt lat="41.6707618" lon="-0.840701"><ele>199.0</ele><time>2026-05-04T08:07:10.607Z</time></trkpt><trkpt lat="41.6707328" lon="-0.8405723"><ele>199.0</ele><time>2026-05-04T08:07:11.608Z</time></trkpt><trkpt lat="41.6706929" lon="-0.8404496"><ele>199.0</ele><time>2026-05-04T08:07:12.608Z</time></trkpt><trkpt lat="41.6706436" lon="-0.8403281"><ele>199.0</ele><time>2026-05-04T08:07:13.606Z</time></trkpt><trkpt lat="41.6705797" lon="-0.8402126"><ele>199.0</ele><time>2026-05-04T08:07:14.603Z</time></trkpt><trkpt lat="41.6705159" lon="-0.8401003"><ele>199.6</ele><time>2026-05-04T08:07:15.608Z</time></trkpt><trkpt lat="41.6704432" lon="-0.8400031"><ele>200.2</ele><time>2026-05-04T08:07:16.605Z</time></trkpt><trkpt lat="41.6703661" lon="-0.8399138"><ele>200.79999999999998</ele><time>2026-05-04T08:07:17.605Z</time></trkpt><trkpt lat="41.6703004" lon="-0.8398256"><ele>201.39999999999998</ele><time>2026-05-04T08:07:18.605Z</time></trkpt><trkpt lat="41.670238" lon="-0.8397419"><ele>202.0</ele><time>2026-05-04T08:07:19.62Z</time></trkpt><trkpt lat="41.6701769" lon="-0.8396617"><ele>202.66666666666666</ele><time>2026-05-04T08:07:20.602Z</time></trkpt><trkpt lat="41.6701192" lon="-0.839583"><ele>203.33333333333331</ele><time>2026-05-04T08:07:21.602Z</time></trkpt><trkpt lat="41.6700642" lon="-0.8395077"><ele>204.0</ele><time>2026-05-04T08:07:22.605Z</time></trkpt><trkpt lat="41.6700102" lon="-0.8394263"><ele>204.66666666666669</ele><time>2026-05-04T08:07:23.606Z</time></trkpt><trkpt lat="41.6699606" lon="-0.8393503"><ele>205.33333333333334</ele><time>2026-05-04T08:07:24.607Z</time></trkpt><trkpt lat="41.669906" lon="-0.8392655"><ele>206.0</ele><time>2026-05-04T08:07:25.606Z</time></trkpt><trkpt lat="41.6698508" lon="-0.8391851"><ele>206.00000000000003</ele><time>2026-05-04T08:07:26.606Z</time></trkpt><trkpt lat="41.669791" lon="-0.8391123"><ele>206.0</ele><time>2026-05-04T08:07:27.6Z</time></trkpt><trkpt lat="41.6697315" lon="-0.8390446"><ele>206.0</ele><time>2026-05-04T08:07:28.598Z</time></trkpt><trkpt lat="41.6696768" lon="-0.8389762"><ele>206.0</ele><time>2026-05-04T08:07:29.593Z</time></trkpt><trkpt lat="41.6696253" lon="-0.8389066"><ele>206.00000000000003</ele><time>2026-05-04T08:07:30.595Z</time></trkpt><trkpt lat="41.6695716" lon="-0.8388305"><ele>206.0</ele><time>2026-05-04T08:07:31.587Z</time></trkpt><trkpt lat="41.6695273" lon="-0.838751"><ele>206.00000000000003</ele><time>2026-05-04T08:07:32.588Z</time></trkpt><trkpt lat="41.6694757" lon="-0.8386666"><ele>206.0</ele><time>2026-05-04T08:07:33.59Z</time></trkpt><trkpt lat="41.6694204" lon="-0.8385903"><ele>206.0</ele><time>2026-05-04T08:07:34.592Z</time></trkpt><trkpt lat="41.669361" lon="-0.838511"><ele>206.0</ele><time>2026-05-04T08:07:35.589Z</time></trkpt><trkpt lat="41.6693062" lon="-0.8384375"><ele>206.00000000000003</ele><time>2026-05-04T08:07:36.59Z</time></trkpt><trkpt lat="41.6692518" lon="-0.8383712"><ele>206.0</ele><time>2026-05-04T08:07:37.591Z</time></trkpt><trkpt lat="41.6692022" lon="-0.8382974"><ele>206.00000000000003</ele><time>2026-05-04T08:07:38.591Z</time></trkpt><trkpt lat="41.6691524" lon="-0.8382251"><ele>206.0</ele><time>2026-05-04T08:07:39.602Z</time></trkpt><trkpt lat="41.6691059" lon="-0.8381501"><ele>206.0</ele><time>2026-05-04T08:07:40.598Z</time></trkpt><trkpt lat="41.6690148" lon="-0.8380284"><ele>206.0</ele><time>2026-05-04T08:07:42.594Z</time></trkpt><trkpt lat="41.6689663" lon="-0.8379619"><ele>206.00000000000003</ele><time>2026-05-04T08:07:43.601Z</time></trkpt><trkpt lat="41.6689184" lon="-0.8379004"><ele>206.0</ele><time>2026-05-04T08:07:44.6Z</time></trkpt><trkpt lat="41.6688719" lon="-0.8378369"><ele>206.00000000000003</ele><time>2026-05-04T08:07:45.605Z</time></trkpt><trkpt lat="41.6688221" lon="-0.837773"><ele>206.0</ele><time>2026-05-04T08:07:46.603Z</time></trkpt><trkpt lat="41.6687738" lon="-0.8377036"><ele>206.0</ele><time>2026-05-04T08:07:47.606Z</time></trkpt><trkpt lat="41.6687298" lon="-0.837632"><ele>206.0</ele><time>2026-05-04T08:07:48.604Z</time></trkpt><trkpt lat="41.6686821" lon="-0.8375633"><ele>206.00000000000003</ele><time>2026-05-04T08:07:49.606Z</time></trkpt><trkpt lat="41.668637" lon="-0.8374975"><ele>206.0</ele><time>2026-05-04T08:07:50.633Z</time></trkpt><trkpt lat="41.6685497" lon="-0.8373766"><ele>206.0</ele><time>2026-05-04T08:07:52.602Z</time></trkpt><trkpt lat="41.6684645" lon="-0.8372655"><ele>206.0</ele><time>2026-05-04T08:07:54.606Z</time></trkpt><trkpt lat="41.6683869" lon="-0.8371797"><ele>206.0</ele><time>2026-05-04T08:07:56.611Z</time></trkpt><trkpt lat="41.668288" lon="-0.8371369"><ele>206.0</ele><time>2026-05-04T08:07:58.604Z</time></trkpt><trkpt lat="41.6681541" lon="-0.8371226"><ele>205.99999999999997</ele><time>2026-05-04T08:08:00.603Z</time></trkpt><trkpt lat="41.6680835" lon="-0.8370889"><ele>206.0</ele><time>2026-05-04T08:08:01.602Z</time></trkpt><trkpt lat="41.6680251" lon="-0.8370249"><ele>206.0</ele><time>2026-05-04T08:08:02.587Z</time></trkpt><trkpt lat="41.6679778" lon="-0.836945"><ele>206.0</ele><time>2026-05-04T08:08:03.591Z</time></trkpt><trkpt lat="41.6679505" lon="-0.8368622"><ele>206.0</ele><time>2026-05-04T08:08:04.602Z</time></trkpt><trkpt lat="41.6679333" lon="-0.8367795"><ele>205.99999999999997</ele><time>2026-05-04T08:08:05.601Z</time></trkpt><trkpt lat="41.667937" lon="-0.8366776"><ele>206.0</ele><time>2026-05-04T08:08:06.601Z</time></trkpt><trkpt lat="41.6679433" lon="-0.8365715"><ele>206.50000000000003</ele><time>2026-05-04T08:08:07.596Z</time></trkpt><trkpt lat="41.6679232" lon="-0.8364754"><ele>207.0</ele><time>2026-05-04T08:08:08.603Z</time></trkpt><trkpt lat="41.6678904" lon="-0.8363828"><ele>207.5</ele><time>2026-05-04T08:08:09.604Z</time></trkpt><trkpt lat="41.667848" lon="-0.8362919"><ele>208.0</ele><time>2026-05-04T08:08:10.608Z</time></trkpt><trkpt lat="41.6678042" lon="-0.836204"><ele>208.50000000000003</ele><time>2026-05-04T08:08:11.607Z</time></trkpt><trkpt lat="41.6677539" lon="-0.8361137"><ele>209.0</ele><time>2026-05-04T08:08:12.605Z</time></trkpt><trkpt lat="41.6677048" lon="-0.8360211"><ele>209.50000000000003</ele><time>2026-05-04T08:08:13.602Z</time></trkpt><trkpt lat="41.6676614" lon="-0.8359234"><ele>210.0</ele><time>2026-05-04T08:08:14.605Z</time></trkpt><trkpt lat="41.667621" lon="-0.8358226"><ele>210.5</ele><time>2026-05-04T08:08:15.6Z</time></trkpt><trkpt lat="41.6675852" lon="-0.8357268"><ele>211.0</ele><time>2026-05-04T08:08:16.609Z</time></trkpt><trkpt lat="41.6675624" lon="-0.8356198"><ele>211.50000000000003</ele><time>2026-05-04T08:08:17.61Z</time></trkpt><trkpt lat="41.6675434" lon="-0.8355129"><ele>212.0</ele><time>2026-05-04T08:08:18.607Z</time></trkpt><trkpt lat="41.6675262" lon="-0.8354142"><ele>212.0</ele><time>2026-05-04T08:08:19.606Z</time></trkpt><trkpt lat="41.6675081" lon="-0.8353142"><ele>212.0</ele><time>2026-05-04T08:08:20.626Z</time></trkpt><trkpt lat="41.6674912" lon="-0.8352168"><ele>212.0</ele><time>2026-05-04T08:08:21.608Z</time></trkpt><trkpt lat="41.6674734" lon="-0.835123"><ele>212.0</ele><time>2026-05-04T08:08:22.611Z</time></trkpt><trkpt lat="41.6674572" lon="-0.8350361"><ele>212.0</ele><time>2026-05-04T08:08:23.608Z</time></trkpt><trkpt lat="41.6674459" lon="-0.8349441"><ele>212.0</ele><time>2026-05-04T08:08:24.61Z</time></trkpt><trkpt lat="41.6674331" lon="-0.8348613"><ele>212.0</ele><time>2026-05-04T08:08:25.602Z</time></trkpt><trkpt lat="41.6674184" lon="-0.8347276"><ele>212.16666666666669</ele><time>2026-05-04T08:08:27.601Z</time></trkpt><trkpt lat="41.6674174" lon="-0.8346382"><ele>212.33333333333334</ele><time>2026-05-04T08:08:29.603Z</time></trkpt><trkpt lat="41.6673947" lon="-0.8345538"><ele>212.5</ele><time>2026-05-04T08:08:54.611Z</time></trkpt><trkpt lat="41.6673901" lon="-0.8344609"><ele>212.66666666666669</ele><time>2026-05-04T08:08:57.609Z</time></trkpt><trkpt lat="41.6673781" lon="-0.8343649"><ele>212.83333333333334</ele><time>2026-05-04T08:08:59.61Z</time></trkpt><trkpt lat="41.6673614" lon="-0.8342512"><ele>213.0</ele><time>2026-05-04T08:09:01.616Z</time></trkpt><trkpt lat="41.6673341" lon="-0.8341364"><ele>213.33333333333334</ele><time>2026-05-04T08:09:03.616Z</time></trkpt><trkpt lat="41.6673188" lon="-0.8340253"><ele>213.66666666666669</ele><time>2026-05-04T08:09:05.603Z</time></trkpt><trkpt lat="41.667315" lon="-0.8339218"><ele>214.0</ele><time>2026-05-04T08:09:07.603Z</time></trkpt><trkpt lat="41.6672964" lon="-0.8338161"><ele>214.33333333333334</ele><time>2026-05-04T08:09:09.609Z</time></trkpt><trkpt lat="41.667277" lon="-0.8337119"><ele>214.66666666666669</ele><time>2026-05-04T08:09:12.607Z</time></trkpt><trkpt lat="41.6672901" lon="-0.8335535"><ele>215.0</ele><time>2026-05-04T08:09:34.6Z</time></trkpt><trkpt lat="41.6672798" lon="-0.8334426"><ele>215.4</ele><time>2026-05-04T08:09:36.604Z</time></trkpt><trkpt lat="41.667274" lon="-0.8333274"><ele>215.8</ele><time>2026-05-04T08:09:38.6Z</time></trkpt><trkpt lat="41.6672562" lon="-0.8331969"><ele>216.2</ele><time>2026-05-04T08:09:40.6Z</time></trkpt><trkpt lat="41.6672283" lon="-0.8330516"><ele>216.6</ele><time>2026-05-04T08:09:42.6Z</time></trkpt><trkpt lat="41.667205" lon="-0.8329256"><ele>217.0</ele><time>2026-05-04T08:09:44.597Z</time></trkpt><trkpt lat="41.6671795" lon="-0.8328044"><ele>216.99999999999997</ele><time>2026-05-04T08:09:46.6Z</time></trkpt><trkpt lat="41.6671568" lon="-0.8326715"><ele>217.0</ele><time>2026-05-04T08:09:48.594Z</time></trkpt><trkpt lat="41.6671344" lon="-0.8325154"><ele>217.0</ele><time>2026-05-04T08:09:50.604Z</time></trkpt><trkpt lat="41.6671228" lon="-0.8324272"><ele>217.0</ele><time>2026-05-04T08:09:51.606Z</time></trkpt><trkpt lat="41.6671108" lon="-0.8323373"><ele>216.99999999999997</ele><time>2026-05-04T08:09:52.605Z</time></trkpt><trkpt lat="41.6670991" lon="-0.8322475"><ele>217.0</ele><time>2026-05-04T08:09:53.617Z</time></trkpt><trkpt lat="41.6670873" lon="-0.8321585"><ele>216.66666666666666</ele><time>2026-05-04T08:09:54.605Z</time></trkpt><trkpt lat="41.6670709" lon="-0.8320601"><ele>216.33333333333331</ele><time>2026-05-04T08:09:55.607Z</time></trkpt><trkpt lat="41.6670542" lon="-0.8319578"><ele>216.0</ele><time>2026-05-04T08:09:56.608Z</time></trkpt><trkpt lat="41.6670339" lon="-0.8318601"><ele>215.66666666666669</ele><time>2026-05-04T08:09:57.604Z</time></trkpt><trkpt lat="41.6670127" lon="-0.8317569"><ele>215.33333333333334</ele><time>2026-05-04T08:09:58.609Z</time></trkpt><trkpt lat="41.6669947" lon="-0.8316547"><ele>215.0</ele><time>2026-05-04T08:09:59.609Z</time></trkpt><trkpt lat="41.6669789" lon="-0.8315561"><ele>215.00000000000003</ele><time>2026-05-04T08:10:00.615Z</time></trkpt><trkpt lat="41.6669621" lon="-0.8314532"><ele>215.0</ele><time>2026-05-04T08:10:01.604Z</time></trkpt><trkpt lat="41.6669474" lon="-0.8313472"><ele>215.0</ele><time>2026-05-04T08:10:02.611Z</time></trkpt><trkpt lat="41.6669333" lon="-0.8312377"><ele>215.0</ele><time>2026-05-04T08:10:03.604Z</time></trkpt><trkpt lat="41.6669177" lon="-0.8311309"><ele>215.00000000000003</ele><time>2026-05-04T08:10:04.609Z</time></trkpt><trkpt lat="41.6668992" lon="-0.8310243"><ele>215.0</ele><time>2026-05-04T08:10:05.604Z</time></trkpt><trkpt lat="41.6668795" lon="-0.8309229"><ele>214.66666666666669</ele><time>2026-05-04T08:10:06.61Z</time></trkpt><trkpt lat="41.6668629" lon="-0.8308287"><ele>214.33333333333334</ele><time>2026-05-04T08:10:07.604Z</time></trkpt><trkpt lat="41.6668389" lon="-0.8307295"><ele>214.0</ele><time>2026-05-04T08:10:08.599Z</time></trkpt><trkpt lat="41.666824" lon="-0.830626"><ele>213.66666666666669</ele><time>2026-05-04T08:10:09.605Z</time></trkpt><trkpt lat="41.666808" lon="-0.8305182"><ele>213.33333333333334</ele><time>2026-05-04T08:10:10.603Z</time></trkpt><trkpt lat="41.6667943" lon="-0.8304027"><ele>213.0</ele><time>2026-05-04T08:10:11.604Z</time></trkpt><trkpt lat="41.6667782" lon="-0.8302863"><ele>213.0</ele><time>2026-05-04T08:10:12.609Z</time></trkpt><trkpt lat="41.6667786" lon="-0.830163"><ele>213.0</ele><time>2026-05-04T08:10:13.605Z</time></trkpt><trkpt lat="41.6667834" lon="-0.8300289"><ele>213.0</ele><time>2026-05-04T08:10:14.605Z</time></trkpt><trkpt lat="41.6667938" lon="-0.8298904"><ele>213.0</ele><time>2026-05-04T08:10:15.608Z</time></trkpt><trkpt lat="41.6668058" lon="-0.8297517"><ele>213.0</ele><time>2026-05-04T08:10:16.612Z</time></trkpt><trkpt lat="41.6668251" lon="-0.8296203"><ele>213.0</ele><time>2026-05-04T08:10:17.606Z</time></trkpt><trkpt lat="41.6668399" lon="-0.8294812"><ele>213.0</ele><time>2026-05-04T08:10:18.615Z</time></trkpt><trkpt lat="41.6668476" lon="-0.8293372"><ele>213.0</ele><time>2026-05-04T08:10:19.608Z</time></trkpt><trkpt lat="41.6668563" lon="-0.8291976"><ele>213.0</ele><time>2026-05-04T08:10:20.611Z</time></trkpt><trkpt lat="41.6668656" lon="-0.8290581"><ele>213.0</ele><time>2026-05-04T08:10:21.604Z</time></trkpt><trkpt lat="41.6668837" lon="-0.8289222"><ele>213.2</ele><time>2026-05-04T08:10:22.609Z</time></trkpt><trkpt lat="41.6668958" lon="-0.8287881"><ele>213.4</ele><time>2026-05-04T08:10:23.605Z</time></trkpt><trkpt lat="41.6669069" lon="-0.828656"><ele>213.59999999999997</ele><time>2026-05-04T08:10:24.624Z</time></trkpt><trkpt lat="41.6669185" lon="-0.8285197"><ele>213.79999999999998</ele><time>2026-05-04T08:10:25.609Z</time></trkpt><trkpt lat="41.6669275" lon="-0.828392"><ele>214.0</ele><time>2026-05-04T08:10:26.611Z</time></trkpt><trkpt lat="41.6669358" lon="-0.8282574"><ele>214.0</ele><time>2026-05-04T08:10:27.608Z</time></trkpt><trkpt lat="41.6669378" lon="-0.8281283"><ele>213.99999999999997</ele><time>2026-05-04T08:10:28.607Z</time></trkpt><trkpt lat="41.6669322" lon="-0.8279988"><ele>213.99999999999997</ele><time>2026-05-04T08:10:29.611Z</time></trkpt><trkpt lat="41.6669207" lon="-0.8278719"><ele>214.0</ele><time>2026-05-04T08:10:30.614Z</time></trkpt><trkpt lat="41.6669017" lon="-0.8277466"><ele>214.0</ele><time>2026-05-04T08:10:31.61Z</time></trkpt><trkpt lat="41.6668787" lon="-0.827616"><ele>214.0</ele><time>2026-05-04T08:10:32.613Z</time></trkpt><trkpt lat="41.6668562" lon="-0.8274847"><ele>213.99999999999997</ele><time>2026-05-04T08:10:33.606Z</time></trkpt><trkpt lat="41.666838" lon="-0.8273562"><ele>213.99999999999997</ele><time>2026-05-04T08:10:34.608Z</time></trkpt><trkpt lat="41.6668192" lon="-0.8272303"><ele>214.0</ele><time>2026-05-04T08:10:35.611Z</time></trkpt><trkpt lat="41.666801" lon="-0.8271074"><ele>214.0</ele><time>2026-05-04T08:10:36.613Z</time></trkpt><trkpt lat="41.6667781" lon="-0.8269823"><ele>214.0</ele><time>2026-05-04T08:10:37.61Z</time></trkpt><trkpt lat="41.6667611" lon="-0.8268561"><ele>213.99999999999997</ele><time>2026-05-04T08:10:38.611Z</time></trkpt><trkpt lat="41.6667417" lon="-0.8267331"><ele>213.99999999999997</ele><time>2026-05-04T08:10:39.61Z</time></trkpt><trkpt lat="41.666723" lon="-0.8266137"><ele>214.0</ele><time>2026-05-04T08:10:40.615Z</time></trkpt><trkpt lat="41.6667022" lon="-0.8264867"><ele>214.0</ele><time>2026-05-04T08:10:41.615Z</time></trkpt><trkpt lat="41.6666928" lon="-0.8263641"><ele>213.99999999999997</ele><time>2026-05-04T08:10:42.611Z</time></trkpt><trkpt lat="41.6666795" lon="-0.8262469"><ele>214.0</ele><time>2026-05-04T08:10:43.606Z</time></trkpt><trkpt lat="41.6666638" lon="-0.8261323"><ele>214.0</ele><time>2026-05-04T08:10:44.61Z</time></trkpt><trkpt lat="41.666645" lon="-0.8260243"><ele>214.0</ele><time>2026-05-04T08:10:45.606Z</time></trkpt><trkpt lat="41.6666287" lon="-0.825914"><ele>213.99999999999997</ele><time>2026-05-04T08:10:46.614Z</time></trkpt><trkpt lat="41.6666179" lon="-0.8258013"><ele>214.0</ele><time>2026-05-04T08:10:47.615Z</time></trkpt><trkpt lat="41.6666049" lon="-0.8256852"><ele>214.00000000000003</ele><time>2026-05-04T08:10:48.612Z</time></trkpt><trkpt lat="41.6665812" lon="-0.8255808"><ele>214.0</ele><time>2026-05-04T08:10:49.615Z</time></trkpt><trkpt lat="41.6665481" lon="-0.8254854"><ele>214.0</ele><time>2026-05-04T08:10:50.61Z</time></trkpt><trkpt lat="41.6665097" lon="-0.825404"><ele>214.0</ele><time>2026-05-04T08:10:51.605Z</time></trkpt><trkpt lat="41.6664722" lon="-0.8253235"><ele>214.0</ele><time>2026-05-04T08:10:52.604Z</time></trkpt><trkpt lat="41.6664311" lon="-0.825247"><ele>214.00000000000003</ele><time>2026-05-04T08:10:53.605Z</time></trkpt><trkpt lat="41.6663923" lon="-0.8251669"><ele>214.0</ele><time>2026-05-04T08:10:54.605Z</time></trkpt><trkpt lat="41.6663535" lon="-0.8250877"><ele>214.0</ele><time>2026-05-04T08:10:55.626Z</time></trkpt><trkpt lat="41.6663094" lon="-0.8250116"><ele>213.99999999999997</ele><time>2026-05-04T08:10:56.608Z</time></trkpt><trkpt lat="41.6662582" lon="-0.8249429"><ele>213.99999999999997</ele><time>2026-05-04T08:10:57.609Z</time></trkpt><trkpt lat="41.6661278" lon="-0.8248374"><ele>214.0</ele><time>2026-05-04T08:10:59.611Z</time></trkpt><trkpt lat="41.6660547" lon="-0.8247797"><ele>214.0</ele><time>2026-05-04T08:11:00.619Z</time></trkpt><trkpt lat="41.6659811" lon="-0.8247285"><ele>213.6</ele><time>2026-05-04T08:11:01.613Z</time></trkpt><trkpt lat="41.6659083" lon="-0.8246652"><ele>213.2</ele><time>2026-05-04T08:11:02.617Z</time></trkpt><trkpt lat="41.6658295" lon="-0.824598"><ele>212.79999999999998</ele><time>2026-05-04T08:11:03.611Z</time></trkpt><trkpt lat="41.6657505" lon="-0.8245162"><ele>212.39999999999998</ele><time>2026-05-04T08:11:04.614Z</time></trkpt><trkpt lat="41.6656727" lon="-0.8244319"><ele>212.0</ele><time>2026-05-04T08:11:05.61Z</time></trkpt><trkpt lat="41.6655946" lon="-0.8243488"><ele>212.2</ele><time>2026-05-04T08:11:06.62Z</time></trkpt><trkpt lat="41.6655128" lon="-0.824262"><ele>212.39999999999998</ele><time>2026-05-04T08:11:07.614Z</time></trkpt><trkpt lat="41.6654344" lon="-0.8241701"><ele>212.60000000000002</ele><time>2026-05-04T08:11:08.617Z</time></trkpt><trkpt lat="41.6653537" lon="-0.8240791"><ele>212.8</ele><time>2026-05-04T08:11:09.613Z</time></trkpt><trkpt lat="41.6652708" lon="-0.8239756"><ele>213.0</ele><time>2026-05-04T08:11:10.616Z</time></trkpt><trkpt lat="41.6651868" lon="-0.8238738"><ele>213.0</ele><time>2026-05-04T08:11:11.616Z</time></trkpt><trkpt lat="41.6651015" lon="-0.82377"><ele>213.0</ele><time>2026-05-04T08:11:12.612Z</time></trkpt><trkpt lat="41.6650152" lon="-0.8236629"><ele>213.0</ele><time>2026-05-04T08:11:13.618Z</time></trkpt><trkpt lat="41.6648279" lon="-0.8234395"><ele>213.0</ele><time>2026-05-04T08:11:15.613Z</time></trkpt><trkpt lat="41.6647361" lon="-0.8233196"><ele>213.0</ele><time>2026-05-04T08:11:16.615Z</time></trkpt><trkpt lat="41.6646457" lon="-0.823198"><ele>213.0</ele><time>2026-05-04T08:11:17.615Z</time></trkpt><trkpt lat="41.6645496" lon="-0.8230779"><ele>213.0</ele><time>2026-05-04T08:11:18.619Z</time></trkpt><trkpt lat="41.6644525" lon="-0.8229625"><ele>211.75</ele><time>2026-05-04T08:11:19.615Z</time></trkpt><trkpt lat="41.6643576" lon="-0.8228494"><ele>210.5</ele><time>2026-05-04T08:11:20.622Z</time></trkpt><trkpt lat="41.6642634" lon="-0.8227372"><ele>209.25</ele><time>2026-05-04T08:11:21.626Z</time></trkpt><trkpt lat="41.6641744" lon="-0.8226256"><ele>208.0</ele><time>2026-05-04T08:11:22.621Z</time></trkpt><trkpt lat="41.6640909" lon="-0.8225154"><ele>208.0</ele><time>2026-05-04T08:11:23.616Z</time></trkpt><trkpt lat="41.6640098" lon="-0.8224009"><ele>208.0</ele><time>2026-05-04T08:11:24.619Z</time></trkpt><trkpt lat="41.6639351" lon="-0.8222877"><ele>208.0</ele><time>2026-05-04T08:11:25.622Z</time></trkpt><trkpt lat="41.6638662" lon="-0.8221735"><ele>208.0</ele><time>2026-05-04T08:11:26.644Z</time></trkpt><trkpt lat="41.6638052" lon="-0.8220565"><ele>208.0</ele><time>2026-05-04T08:11:27.62Z</time></trkpt><trkpt lat="41.6637442" lon="-0.8219407"><ele>208.0</ele><time>2026-05-04T08:11:28.621Z</time></trkpt><trkpt lat="41.663682" lon="-0.8218268"><ele>208.0</ele><time>2026-05-04T08:11:29.622Z</time></trkpt><trkpt lat="41.6636219" lon="-0.8217199"><ele>208.0</ele><time>2026-05-04T08:11:30.628Z</time></trkpt><trkpt lat="41.6635595" lon="-0.8216177"><ele>208.0</ele><time>2026-05-04T08:11:31.615Z</time></trkpt><trkpt lat="41.6634966" lon="-0.8215365"><ele>208.0</ele><time>2026-05-04T08:11:32.615Z</time></trkpt><trkpt lat="41.6634257" lon="-0.8214774"><ele>207.16666666666666</ele><time>2026-05-04T08:11:33.62Z</time></trkpt><trkpt lat="41.6633497" lon="-0.8214523"><ele>206.33333333333331</ele><time>2026-05-04T08:11:34.624Z</time></trkpt><trkpt lat="41.6632704" lon="-0.8214588"><ele>205.5</ele><time>2026-05-04T08:11:35.612Z</time></trkpt><trkpt lat="41.6631938" lon="-0.8214766"><ele>204.66666666666669</ele><time>2026-05-04T08:11:36.618Z</time></trkpt><trkpt lat="41.6631196" lon="-0.8214912"><ele>203.83333333333334</ele><time>2026-05-04T08:11:37.61Z</time></trkpt><trkpt lat="41.663047" lon="-0.8214807"><ele>203.0</ele><time>2026-05-04T08:11:38.62Z</time></trkpt><trkpt lat="41.662993" lon="-0.8214278"><ele>203.00000000000003</ele><time>2026-05-04T08:11:39.611Z</time></trkpt><trkpt lat="41.6629529" lon="-0.8213548"><ele>203.0</ele><time>2026-05-04T08:11:40.61Z</time></trkpt><trkpt lat="41.6629324" lon="-0.8212621"><ele>203.0</ele><time>2026-05-04T08:11:41.605Z</time></trkpt><trkpt lat="41.6629346" lon="-0.8211543"><ele>203.0</ele><time>2026-05-04T08:11:42.614Z</time></trkpt><trkpt lat="41.6629698" lon="-0.8210348"><ele>203.00000000000003</ele><time>2026-05-04T08:11:43.609Z</time></trkpt><trkpt lat="41.6630117" lon="-0.8209071"><ele>203.0</ele><time>2026-05-04T08:11:44.62Z</time></trkpt><trkpt lat="41.6630367" lon="-0.8207737"><ele>203.4</ele><time>2026-05-04T08:11:45.622Z</time></trkpt><trkpt lat="41.663027" lon="-0.8206401"><ele>203.8</ele><time>2026-05-04T08:11:46.621Z</time></trkpt><trkpt lat="41.6629924" lon="-0.8205042"><ele>204.2</ele><time>2026-05-04T08:11:47.613Z</time></trkpt><trkpt lat="41.6629436" lon="-0.8203722"><ele>204.6</ele><time>2026-05-04T08:11:48.617Z</time></trkpt><trkpt lat="41.6628875" lon="-0.8202418"><ele>205.0</ele><time>2026-05-04T08:11:49.62Z</time></trkpt><trkpt lat="41.6628284" lon="-0.8201186"><ele>204.0</ele><time>2026-05-04T08:11:50.617Z</time></trkpt><trkpt lat="41.6627608" lon="-0.8199999"><ele>203.0</ele><time>2026-05-04T08:11:51.62Z</time></trkpt><trkpt lat="41.6626887" lon="-0.8198831"><ele>202.0</ele><time>2026-05-04T08:11:52.62Z</time></trkpt><trkpt lat="41.6626117" lon="-0.8197676"><ele>201.0</ele><time>2026-05-04T08:11:53.619Z</time></trkpt><trkpt lat="41.6625345" lon="-0.8196467"><ele>201.0</ele><time>2026-05-04T08:11:54.621Z</time></trkpt><trkpt lat="41.6624594" lon="-0.8195249"><ele>201.0</ele><time>2026-05-04T08:11:55.621Z</time></trkpt><trkpt lat="41.6623805" lon="-0.8194006"><ele>201.0</ele><time>2026-05-04T08:11:56.625Z</time></trkpt><trkpt lat="41.662302" lon="-0.8192764"><ele>201.0</ele><time>2026-05-04T08:11:57.632Z</time></trkpt><trkpt lat="41.6622194" lon="-0.8191468"><ele>201.75</ele><time>2026-05-04T08:11:58.618Z</time></trkpt><trkpt lat="41.6621351" lon="-0.8190075"><ele>202.5</ele><time>2026-05-04T08:11:59.619Z</time></trkpt><trkpt lat="41.662054" lon="-0.8188627"><ele>203.25</ele><time>2026-05-04T08:12:00.626Z</time></trkpt><trkpt lat="41.6619775" lon="-0.8187158"><ele>204.0</ele><time>2026-05-04T08:12:01.616Z</time></trkpt><trkpt lat="41.6619078" lon="-0.8185738"><ele>203.25</ele><time>2026-05-04T08:12:02.621Z</time></trkpt><trkpt lat="41.6618465" lon="-0.8184307"><ele>202.5</ele><time>2026-05-04T08:12:03.618Z</time></trkpt><trkpt lat="41.6617895" lon="-0.8182863"><ele>201.75</ele><time>2026-05-04T08:12:04.619Z</time></trkpt><trkpt lat="41.6617386" lon="-0.8181417"><ele>201.0</ele><time>2026-05-04T08:12:05.619Z</time></trkpt><trkpt lat="41.6616904" lon="-0.817993"><ele>201.0</ele><time>2026-05-04T08:12:06.625Z</time></trkpt><trkpt lat="41.6616444" lon="-0.8178384"><ele>201.0</ele><time>2026-05-04T08:12:07.622Z</time></trkpt><trkpt lat="41.6615978" lon="-0.817685"><ele>201.0</ele><time>2026-05-04T08:12:08.625Z</time></trkpt><trkpt lat="41.6615454" lon="-0.8175251"><ele>201.0</ele><time>2026-05-04T08:12:09.627Z</time></trkpt><trkpt lat="41.6614974" lon="-0.8173713"><ele>201.25</ele><time>2026-05-04T08:12:10.628Z</time></trkpt><trkpt lat="41.6614506" lon="-0.8172184"><ele>201.5</ele><time>2026-05-04T08:12:11.619Z</time></trkpt><trkpt lat="41.6614004" lon="-0.8170646"><ele>201.75</ele><time>2026-05-04T08:12:12.628Z</time></trkpt><trkpt lat="41.6613547" lon="-0.8169145"><ele>202.0</ele><time>2026-05-04T08:12:13.624Z</time></trkpt><trkpt lat="41.6613067" lon="-0.8167681"><ele>202.5</ele><time>2026-05-04T08:12:14.625Z</time></trkpt><trkpt lat="41.6612586" lon="-0.8166256"><ele>203.0</ele><time>2026-05-04T08:12:15.628Z</time></trkpt><trkpt lat="41.661215" lon="-0.8164852"><ele>203.5</ele><time>2026-05-04T08:12:16.627Z</time></trkpt><trkpt lat="41.6611691" lon="-0.8163482"><ele>204.0</ele><time>2026-05-04T08:12:17.624Z</time></trkpt><trkpt lat="41.6611245" lon="-0.8162143"><ele>203.25</ele><time>2026-05-04T08:12:18.625Z</time></trkpt><trkpt lat="41.6610781" lon="-0.8160783"><ele>202.5</ele><time>2026-05-04T08:12:19.627Z</time></trkpt><trkpt lat="41.6610308" lon="-0.8159417"><ele>201.75</ele><time>2026-05-04T08:12:20.627Z</time></trkpt><trkpt lat="41.6609822" lon="-0.8158048"><ele>201.0</ele><time>2026-05-04T08:12:21.63Z</time></trkpt><trkpt lat="41.6609354" lon="-0.8156669"><ele>201.0</ele><time>2026-05-04T08:12:22.63Z</time></trkpt><trkpt lat="41.6608908" lon="-0.815528"><ele>201.0</ele><time>2026-05-04T08:12:23.624Z</time></trkpt><trkpt lat="41.6608451" lon="-0.815386"><ele>201.0</ele><time>2026-05-04T08:12:24.624Z</time></trkpt><trkpt lat="41.6608008" lon="-0.8152407"><ele>201.0</ele><time>2026-05-04T08:12:25.625Z</time></trkpt><trkpt lat="41.6607559" lon="-0.8150965"><ele>202.25</ele><time>2026-05-04T08:12:26.628Z</time></trkpt><trkpt lat="41.6607058" lon="-0.814943"><ele>203.5</ele><time>2026-05-04T08:12:27.622Z</time></trkpt><trkpt lat="41.6606571" lon="-0.8147882"><ele>204.75</ele><time>2026-05-04T08:12:28.655Z</time></trkpt><trkpt lat="41.6606057" lon="-0.8146361"><ele>206.0</ele><time>2026-05-04T08:12:29.625Z</time></trkpt><trkpt lat="41.6605583" lon="-0.8144834"><ele>206.0</ele><time>2026-05-04T08:12:30.629Z</time></trkpt><trkpt lat="41.6605072" lon="-0.8143305"><ele>206.0</ele><time>2026-05-04T08:12:31.623Z</time></trkpt><trkpt lat="41.6604555" lon="-0.8141823"><ele>206.0</ele><time>2026-05-04T08:12:32.62Z</time></trkpt><trkpt lat="41.6604074" lon="-0.8140239"><ele>206.0</ele><time>2026-05-04T08:12:33.625Z</time></trkpt><trkpt lat="41.6603566" lon="-0.8138675"><ele>206.75</ele><time>2026-05-04T08:12:34.621Z</time></trkpt><trkpt lat="41.6603081" lon="-0.8137105"><ele>207.5</ele><time>2026-05-04T08:12:35.622Z</time></trkpt><trkpt lat="41.660261" lon="-0.8135471"><ele>208.25</ele><time>2026-05-04T08:12:36.624Z</time></trkpt><trkpt lat="41.6602156" lon="-0.8133849"><ele>209.0</ele><time>2026-05-04T08:12:37.622Z</time></trkpt><trkpt lat="41.6601695" lon="-0.813221"><ele>207.0</ele><time>2026-05-04T08:12:38.624Z</time></trkpt><trkpt lat="41.6601267" lon="-0.8130598"><ele>205.0</ele><time>2026-05-04T08:12:39.624Z</time></trkpt><trkpt lat="41.6600931" lon="-0.8128937"><ele>203.0</ele><time>2026-05-04T08:12:40.622Z</time></trkpt><trkpt lat="41.6600692" lon="-0.812729"><ele>201.0</ele><time>2026-05-04T08:12:41.617Z</time></trkpt><trkpt lat="41.6600626" lon="-0.8125714"><ele>201.0</ele><time>2026-05-04T08:12:42.622Z</time></trkpt><trkpt lat="41.6600716" lon="-0.8124163"><ele>201.0</ele><time>2026-05-04T08:12:43.619Z</time></trkpt><trkpt lat="41.660092" lon="-0.8122615"><ele>201.0</ele><time>2026-05-04T08:12:44.619Z</time></trkpt><trkpt lat="41.6601192" lon="-0.8121135"><ele>201.0</ele><time>2026-05-04T08:12:45.619Z</time></trkpt><trkpt lat="41.6601494" lon="-0.8119735"><ele>201.0</ele><time>2026-05-04T08:12:46.623Z</time></trkpt><trkpt lat="41.6601826" lon="-0.8118585"><ele>201.0</ele><time>2026-05-04T08:12:47.619Z</time></trkpt><trkpt lat="41.6602058" lon="-0.8117675"><ele>201.0</ele><time>2026-05-04T08:12:48.615Z</time></trkpt><trkpt lat="41.660208" lon="-0.8116325"><ele>201.0</ele><time>2026-05-04T08:12:50.618Z</time></trkpt><trkpt lat="41.6601672" lon="-0.8115207"><ele>201.0</ele><time>2026-05-04T08:12:52.618Z</time></trkpt><trkpt lat="41.6600765" lon="-0.811441"><ele>201.83333333333334</ele><time>2026-05-04T08:12:54.615Z</time></trkpt><trkpt lat="41.6600092" lon="-0.8114097"><ele>202.66666666666669</ele><time>2026-05-04T08:12:55.613Z</time></trkpt><trkpt lat="41.659937" lon="-0.8113891"><ele>203.5</ele><time>2026-05-04T08:12:56.623Z</time></trkpt><trkpt lat="41.659849" lon="-0.8114048"><ele>204.33333333333334</ele><time>2026-05-04T08:12:57.62Z</time></trkpt><trkpt lat="41.6597459" lon="-0.8114368"><ele>205.16666666666669</ele><time>2026-05-04T08:12:58.627Z</time></trkpt><trkpt lat="41.6596406" lon="-0.8114682"><ele>206.0</ele><time>2026-05-04T08:12:59.616Z</time></trkpt><trkpt lat="41.6595358" lon="-0.8114916"><ele>204.00000000000003</ele><time>2026-05-04T08:13:00.612Z</time></trkpt><trkpt lat="41.6594411" lon="-0.8115143"><ele>202.0</ele><time>2026-05-04T08:13:01.61Z</time></trkpt><trkpt lat="41.6593534" lon="-0.8115492"><ele>200.0</ele><time>2026-05-04T08:13:02.614Z</time></trkpt><trkpt lat="41.6592776" lon="-0.8115833"><ele>198.0</ele><time>2026-05-04T08:13:03.612Z</time></trkpt><trkpt lat="41.659202" lon="-0.8116171"><ele>196.00000000000003</ele><time>2026-05-04T08:13:04.622Z</time></trkpt><trkpt lat="41.6591314" lon="-0.8116782"><ele>194.0</ele><time>2026-05-04T08:13:05.614Z</time></trkpt><trkpt lat="41.6590803" lon="-0.8117531"><ele>194.00000000000003</ele><time>2026-05-04T08:13:06.617Z</time></trkpt><trkpt lat="41.6589746" lon="-0.8118036"><ele>194.0</ele><time>2026-05-04T08:13:08.618Z</time></trkpt><trkpt lat="41.6589156" lon="-0.8117701"><ele>194.0</ele><time>2026-05-04T08:13:09.618Z</time></trkpt><trkpt lat="41.6588511" lon="-0.8116243"><ele>194.0</ele><time>2026-05-04T08:13:11.609Z</time></trkpt><trkpt lat="41.6588558" lon="-0.811537"><ele>194.00000000000003</ele><time>2026-05-04T08:13:12.617Z</time></trkpt><trkpt lat="41.6588943" lon="-0.8114442"><ele>194.0</ele><time>2026-05-04T08:13:13.625Z</time></trkpt><trkpt lat="41.6589718" lon="-0.8113625"><ele>194.0</ele><time>2026-05-04T08:13:14.615Z</time></trkpt><trkpt lat="41.6590536" lon="-0.8112977"><ele>194.0</ele><time>2026-05-04T08:13:15.621Z</time></trkpt><trkpt lat="41.6591262" lon="-0.8112218"><ele>194.0</ele><time>2026-05-04T08:13:16.62Z</time></trkpt><trkpt lat="41.6591849" lon="-0.8111265"><ele>194.0</ele><time>2026-05-04T08:13:17.623Z</time></trkpt><trkpt lat="41.6592238" lon="-0.811001"><ele>194.0</ele><time>2026-05-04T08:13:18.62Z</time></trkpt><trkpt lat="41.6592466" lon="-0.8108517"><ele>194.25</ele><time>2026-05-04T08:13:19.615Z</time></trkpt><trkpt lat="41.6592595" lon="-0.8106946"><ele>194.5</ele><time>2026-05-04T08:13:20.622Z</time></trkpt><trkpt lat="41.6592704" lon="-0.8105329"><ele>194.75</ele><time>2026-05-04T08:13:21.619Z</time></trkpt><trkpt lat="41.6592808" lon="-0.8103635"><ele>195.0</ele><time>2026-05-04T08:13:22.624Z</time></trkpt><trkpt lat="41.6592884" lon="-0.8101898"><ele>194.75</ele><time>2026-05-04T08:13:23.624Z</time></trkpt><trkpt lat="41.6592936" lon="-0.8100151"><ele>194.5</ele><time>2026-05-04T08:13:24.625Z</time></trkpt><trkpt lat="41.6592963" lon="-0.8098452"><ele>194.25</ele><time>2026-05-04T08:13:25.624Z</time></trkpt><trkpt lat="41.6592975" lon="-0.8096839"><ele>194.0</ele><time>2026-05-04T08:13:26.626Z</time></trkpt><trkpt lat="41.6592949" lon="-0.8095193"><ele>194.0</ele><time>2026-05-04T08:13:27.627Z</time></trkpt><trkpt lat="41.6592895" lon="-0.8093645"><ele>194.0</ele><time>2026-05-04T08:13:28.628Z</time></trkpt><trkpt lat="41.6592791" lon="-0.8092092"><ele>194.0</ele><time>2026-05-04T08:13:29.645Z</time></trkpt><trkpt lat="41.6592692" lon="-0.8090502"><ele>194.0</ele><time>2026-05-04T08:13:30.639Z</time></trkpt><trkpt lat="41.6592618" lon="-0.8088879"><ele>194.5</ele><time>2026-05-04T08:13:31.625Z</time></trkpt><trkpt lat="41.6592525" lon="-0.8087198"><ele>195.0</ele><time>2026-05-04T08:13:32.621Z</time></trkpt><trkpt lat="41.6592424" lon="-0.8085471"><ele>195.5</ele><time>2026-05-04T08:13:33.618Z</time></trkpt><trkpt lat="41.659241" lon="-0.8083833"><ele>196.0</ele><time>2026-05-04T08:13:34.623Z</time></trkpt><trkpt lat="41.6592355" lon="-0.8082133"><ele>196.25</ele><time>2026-05-04T08:13:35.624Z</time></trkpt><trkpt lat="41.6592294" lon="-0.8080367"><ele>196.5</ele><time>2026-05-04T08:13:36.627Z</time></trkpt><trkpt lat="41.6592196" lon="-0.8078552"><ele>196.75</ele><time>2026-05-04T08:13:37.623Z</time></trkpt><trkpt lat="41.6592138" lon="-0.8076702"><ele>197.0</ele><time>2026-05-04T08:13:38.625Z</time></trkpt><trkpt lat="41.6592053" lon="-0.8074846"><ele>197.75</ele><time>2026-05-04T08:13:39.629Z</time></trkpt><trkpt lat="41.6591873" lon="-0.8073001"><ele>198.5</ele><time>2026-05-04T08:13:40.626Z</time></trkpt><trkpt lat="41.6591672" lon="-0.8071013"><ele>199.25</ele><time>2026-05-04T08:13:41.625Z</time></trkpt><trkpt lat="41.6591512" lon="-0.8069164"><ele>200.0</ele><time>2026-05-04T08:13:42.622Z</time></trkpt><trkpt lat="41.6591316" lon="-0.8067285"><ele>200.25</ele><time>2026-05-04T08:13:43.634Z</time></trkpt><trkpt lat="41.6591086" lon="-0.8065559"><ele>200.5</ele><time>2026-05-04T08:13:44.624Z</time></trkpt><trkpt lat="41.6590947" lon="-0.806385"><ele>200.75</ele><time>2026-05-04T08:13:45.624Z</time></trkpt><trkpt lat="41.6590785" lon="-0.8062223"><ele>201.0</ele><time>2026-05-04T08:13:46.623Z</time></trkpt><trkpt lat="41.6590592" lon="-0.806059"><ele>201.5</ele><time>2026-05-04T08:13:47.626Z</time></trkpt><trkpt lat="41.6590345" lon="-0.8058944"><ele>202.0</ele><time>2026-05-04T08:13:48.624Z</time></trkpt><trkpt lat="41.6590037" lon="-0.8057325"><ele>202.5</ele><time>2026-05-04T08:13:49.621Z</time></trkpt><trkpt lat="41.6589619" lon="-0.8055729"><ele>203.0</ele><time>2026-05-04T08:13:50.624Z</time></trkpt><trkpt lat="41.6589115" lon="-0.8054115"><ele>203.0</ele><time>2026-05-04T08:13:51.627Z</time></trkpt><trkpt lat="41.6588533" lon="-0.8052521"><ele>203.0</ele><time>2026-05-04T08:13:52.625Z</time></trkpt><trkpt lat="41.6587898" lon="-0.805093"><ele>203.0</ele><time>2026-05-04T08:13:53.625Z</time></trkpt><trkpt lat="41.658725" lon="-0.804931"><ele>203.0</ele><time>2026-05-04T08:13:54.626Z</time></trkpt><trkpt lat="41.6586571" lon="-0.8047733"><ele>202.0</ele><time>2026-05-04T08:13:55.627Z</time></trkpt><trkpt lat="41.6585866" lon="-0.8045998"><ele>201.0</ele><time>2026-05-04T08:13:56.626Z</time></trkpt><trkpt lat="41.6585145" lon="-0.8044307"><ele>200.0</ele><time>2026-05-04T08:13:57.625Z</time></trkpt><trkpt lat="41.6584427" lon="-0.8042594"><ele>199.0</ele><time>2026-05-04T08:13:58.626Z</time></trkpt><trkpt lat="41.6583663" lon="-0.8040825"><ele>199.0</ele><time>2026-05-04T08:13:59.628Z</time></trkpt><trkpt lat="41.6582956" lon="-0.8039042"><ele>199.0</ele><time>2026-05-04T08:14:00.643Z</time></trkpt><trkpt lat="41.6582237" lon="-0.8037326"><ele>199.0</ele><time>2026-05-04T08:14:01.625Z</time></trkpt><trkpt lat="41.6581538" lon="-0.8035604"><ele>199.0</ele><time>2026-05-04T08:14:02.626Z</time></trkpt><trkpt lat="41.6580747" lon="-0.8033949"><ele>200.0</ele><time>2026-05-04T08:14:03.624Z</time></trkpt><trkpt lat="41.6580088" lon="-0.8032272"><ele>201.0</ele><time>2026-05-04T08:14:04.625Z</time></trkpt><trkpt lat="41.6579413" lon="-0.8030778"><ele>202.0</ele><time>2026-05-04T08:14:05.621Z</time></trkpt><trkpt lat="41.6578819" lon="-0.8029288"><ele>203.0</ele><time>2026-05-04T08:14:06.621Z</time></trkpt><trkpt lat="41.6578251" lon="-0.8027906"><ele>201.5</ele><time>2026-05-04T08:14:07.623Z</time></trkpt><trkpt lat="41.6577665" lon="-0.8026474"><ele>200.0</ele><time>2026-05-04T08:14:08.624Z</time></trkpt><trkpt lat="41.6577038" lon="-0.8025045"><ele>198.5</ele><time>2026-05-04T08:14:09.625Z</time></trkpt><trkpt lat="41.6576403" lon="-0.8023492"><ele>197.0</ele><time>2026-05-04T08:14:10.623Z</time></trkpt><trkpt lat="41.6575767" lon="-0.802193"><ele>197.0</ele><time>2026-05-04T08:14:11.625Z</time></trkpt><trkpt lat="41.6575064" lon="-0.8020425"><ele>197.0</ele><time>2026-05-04T08:14:12.622Z</time></trkpt><trkpt lat="41.6574284" lon="-0.8018909"><ele>197.0</ele><time>2026-05-04T08:14:13.626Z</time></trkpt><trkpt lat="41.6573437" lon="-0.8017494"><ele>197.0</ele><time>2026-05-04T08:14:14.622Z</time></trkpt><trkpt lat="41.6572523" lon="-0.8016162"><ele>196.75</ele><time>2026-05-04T08:14:15.623Z</time></trkpt><trkpt lat="41.6571496" lon="-0.8014972"><ele>196.5</ele><time>2026-05-04T08:14:16.627Z</time></trkpt><trkpt lat="41.6570348" lon="-0.8013768"><ele>196.25</ele><time>2026-05-04T08:14:17.625Z</time></trkpt><trkpt lat="41.656927" lon="-0.8012552"><ele>196.0</ele><time>2026-05-04T08:14:18.625Z</time></trkpt><trkpt lat="41.6568145" lon="-0.8011342"><ele>196.0</ele><time>2026-05-04T08:14:19.62Z</time></trkpt><trkpt lat="41.6567065" lon="-0.8010039"><ele>196.0</ele><time>2026-05-04T08:14:20.624Z</time></trkpt><trkpt lat="41.6566003" lon="-0.8008705"><ele>196.0</ele><time>2026-05-04T08:14:21.62Z</time></trkpt><trkpt lat="41.6564911" lon="-0.8007393"><ele>196.0</ele><time>2026-05-04T08:14:22.623Z</time></trkpt><trkpt lat="41.6563813" lon="-0.8006103"><ele>195.5</ele><time>2026-05-04T08:14:23.621Z</time></trkpt><trkpt lat="41.6562702" lon="-0.8004816"><ele>195.0</ele><time>2026-05-04T08:14:24.622Z</time></trkpt><trkpt lat="41.6561642" lon="-0.800359"><ele>194.5</ele><time>2026-05-04T08:14:25.627Z</time></trkpt><trkpt lat="41.6560655" lon="-0.8002312"><ele>194.0</ele><time>2026-05-04T08:14:26.626Z</time></trkpt><trkpt lat="41.6559685" lon="-0.8001051"><ele>195.0</ele><time>2026-05-04T08:14:27.625Z</time></trkpt><trkpt lat="41.655874" lon="-0.7999789"><ele>196.0</ele><time>2026-05-04T08:14:28.626Z</time></trkpt><trkpt lat="41.6557777" lon="-0.7998486"><ele>197.0</ele><time>2026-05-04T08:14:29.629Z</time></trkpt><trkpt lat="41.655671" lon="-0.7997204"><ele>198.0</ele><time>2026-05-04T08:14:30.632Z</time></trkpt><trkpt lat="41.6555651" lon="-0.7995918"><ele>198.0</ele><time>2026-05-04T08:14:31.641Z</time></trkpt><trkpt lat="41.6554534" lon="-0.7994661"><ele>198.0</ele><time>2026-05-04T08:14:32.632Z</time></trkpt><trkpt lat="41.6553452" lon="-0.7993495"><ele>198.0</ele><time>2026-05-04T08:14:33.627Z</time></trkpt><trkpt lat="41.6552327" lon="-0.7992213"><ele>198.0</ele><time>2026-05-04T08:14:34.623Z</time></trkpt><trkpt lat="41.6551255" lon="-0.7990909"><ele>196.75</ele><time>2026-05-04T08:14:35.626Z</time></trkpt><trkpt lat="41.6550225" lon="-0.7989672"><ele>195.5</ele><time>2026-05-04T08:14:36.63Z</time></trkpt><trkpt lat="41.6549229" lon="-0.7988415"><ele>194.25</ele><time>2026-05-04T08:14:37.626Z</time></trkpt><trkpt lat="41.6548246" lon="-0.7987237"><ele>193.0</ele><time>2026-05-04T08:14:38.627Z</time></trkpt><trkpt lat="41.6547273" lon="-0.7986076"><ele>193.5</ele><time>2026-05-04T08:14:39.625Z</time></trkpt><trkpt lat="41.6546295" lon="-0.798489"><ele>194.0</ele><time>2026-05-04T08:14:40.628Z</time></trkpt><trkpt lat="41.6545295" lon="-0.7983804"><ele>194.5</ele><time>2026-05-04T08:14:41.627Z</time></trkpt><trkpt lat="41.6544276" lon="-0.7982628"><ele>195.0</ele><time>2026-05-04T08:14:42.628Z</time></trkpt><trkpt lat="41.6543257" lon="-0.798128"><ele>195.0</ele><time>2026-05-04T08:14:43.628Z</time></trkpt><trkpt lat="41.6542217" lon="-0.798002"><ele>195.0</ele><time>2026-05-04T08:14:44.627Z</time></trkpt><trkpt lat="41.6541196" lon="-0.7978705"><ele>195.0</ele><time>2026-05-04T08:14:45.627Z</time></trkpt><trkpt lat="41.6540186" lon="-0.7977447"><ele>195.0</ele><time>2026-05-04T08:14:46.627Z</time></trkpt><trkpt lat="41.6539193" lon="-0.7976152"><ele>195.0</ele><time>2026-05-04T08:14:47.625Z</time></trkpt><trkpt lat="41.6538145" lon="-0.7974931"><ele>195.0</ele><time>2026-05-04T08:14:48.626Z</time></trkpt><trkpt lat="41.6537044" lon="-0.7973738"><ele>195.0</ele><time>2026-05-04T08:14:49.626Z</time></trkpt><trkpt lat="41.6535953" lon="-0.7972456"><ele>195.0</ele><time>2026-05-04T08:14:50.629Z</time></trkpt><trkpt lat="41.6534895" lon="-0.7971086"><ele>195.0</ele><time>2026-05-04T08:14:51.627Z</time></trkpt><trkpt lat="41.6533856" lon="-0.7969733"><ele>195.0</ele><time>2026-05-04T08:14:52.627Z</time></trkpt><trkpt lat="41.6532894" lon="-0.796842"><ele>195.0</ele><time>2026-05-04T08:14:53.769Z</time></trkpt><trkpt lat="41.6531913" lon="-0.7967026"><ele>195.0</ele><time>2026-05-04T08:14:54.599Z</time></trkpt><trkpt lat="41.6530946" lon="-0.7965678"><ele>194.75</ele><time>2026-05-04T08:14:55.599Z</time></trkpt><trkpt lat="41.6529908" lon="-0.7964252"><ele>194.5</ele><time>2026-05-04T08:14:56.601Z</time></trkpt><trkpt lat="41.652896" lon="-0.7962838"><ele>194.25</ele><time>2026-05-04T08:14:57.6Z</time></trkpt><trkpt lat="41.6528106" lon="-0.796142"><ele>194.0</ele><time>2026-05-04T08:14:58.599Z</time></trkpt><trkpt lat="41.6527161" lon="-0.7960081"><ele>195.0</ele><time>2026-05-04T08:14:59.6Z</time></trkpt><trkpt lat="41.6526203" lon="-0.7958697"><ele>196.0</ele><time>2026-05-04T08:15:00.606Z</time></trkpt><trkpt lat="41.6525258" lon="-0.7957304"><ele>197.0</ele><time>2026-05-04T08:15:01.603Z</time></trkpt><trkpt lat="41.6524335" lon="-0.7955924"><ele>198.0</ele><time>2026-05-04T08:15:02.618Z</time></trkpt><trkpt lat="41.6523447" lon="-0.7954501"><ele>198.0</ele><time>2026-05-04T08:15:03.602Z</time></trkpt><trkpt lat="41.6522515" lon="-0.7953174"><ele>198.0</ele><time>2026-05-04T08:15:04.607Z</time></trkpt><trkpt lat="41.6521549" lon="-0.7951775"><ele>198.0</ele><time>2026-05-04T08:15:05.607Z</time></trkpt><trkpt lat="41.652063" lon="-0.7950426"><ele>198.0</ele><time>2026-05-04T08:15:06.613Z</time></trkpt><trkpt lat="41.6519656" lon="-0.7949086"><ele>197.25</ele><time>2026-05-04T08:15:07.603Z</time></trkpt><trkpt lat="41.6518762" lon="-0.7947788"><ele>196.5</ele><time>2026-05-04T08:15:08.602Z</time></trkpt><trkpt lat="41.6517911" lon="-0.7946459"><ele>195.75</ele><time>2026-05-04T08:15:09.606Z</time></trkpt><trkpt lat="41.6516935" lon="-0.7945156"><ele>195.0</ele><time>2026-05-04T08:15:10.606Z</time></trkpt><trkpt lat="41.6515974" lon="-0.7943751"><ele>196.25</ele><time>2026-05-04T08:15:11.614Z</time></trkpt><trkpt lat="41.6515004" lon="-0.7942307"><ele>197.5</ele><time>2026-05-04T08:15:12.61Z</time></trkpt><trkpt lat="41.6514025" lon="-0.7940847"><ele>198.75</ele><time>2026-05-04T08:15:13.614Z</time></trkpt><trkpt lat="41.6513078" lon="-0.7939369"><ele>200.0</ele><time>2026-05-04T08:15:14.607Z</time></trkpt><trkpt lat="41.6512127" lon="-0.7937919"><ele>199.0</ele><time>2026-05-04T08:15:15.609Z</time></trkpt><trkpt lat="41.6511219" lon="-0.7936425"><ele>198.0</ele><time>2026-05-04T08:15:16.61Z</time></trkpt><trkpt lat="41.6510216" lon="-0.7935021"><ele>197.0</ele><time>2026-05-04T08:15:17.608Z</time></trkpt><trkpt lat="41.6509188" lon="-0.7933565"><ele>196.0</ele><time>2026-05-04T08:15:18.61Z</time></trkpt><trkpt lat="41.6508171" lon="-0.7932149"><ele>196.0</ele><time>2026-05-04T08:15:19.609Z</time></trkpt><trkpt lat="41.6507259" lon="-0.7930832"><ele>196.0</ele><time>2026-05-04T08:15:20.61Z</time></trkpt><trkpt lat="41.6506283" lon="-0.7929364"><ele>196.0</ele><time>2026-05-04T08:15:21.609Z</time></trkpt><trkpt lat="41.6505279" lon="-0.7927972"><ele>196.0</ele><time>2026-05-04T08:15:22.61Z</time></trkpt><trkpt lat="41.6504274" lon="-0.792651"><ele>195.0</ele><time>2026-05-04T08:15:23.606Z</time></trkpt><trkpt lat="41.6503364" lon="-0.7925082"><ele>194.0</ele><time>2026-05-04T08:15:24.605Z</time></trkpt><trkpt lat="41.6502506" lon="-0.7923663"><ele>193.0</ele><time>2026-05-04T08:15:25.61Z</time></trkpt><trkpt lat="41.6501648" lon="-0.7922215"><ele>192.0</ele><time>2026-05-04T08:15:26.611Z</time></trkpt><trkpt lat="41.6500868" lon="-0.7920698"><ele>192.0</ele><time>2026-05-04T08:15:27.606Z</time></trkpt><trkpt lat="41.6500182" lon="-0.791918"><ele>192.0</ele><time>2026-05-04T08:15:28.609Z</time></trkpt><trkpt lat="41.6499514" lon="-0.7917531"><ele>192.0</ele><time>2026-05-04T08:15:29.611Z</time></trkpt><trkpt lat="41.6498863" lon="-0.7915969"><ele>192.0</ele><time>2026-05-04T08:15:30.621Z</time></trkpt><trkpt lat="41.6498218" lon="-0.7914305"><ele>193.0</ele><time>2026-05-04T08:15:31.604Z</time></trkpt><trkpt lat="41.6497573" lon="-0.7912574"><ele>194.0</ele><time>2026-05-04T08:15:32.607Z</time></trkpt><trkpt lat="41.6496991" lon="-0.7910876"><ele>195.0</ele><time>2026-05-04T08:15:33.624Z</time></trkpt><trkpt lat="41.6496421" lon="-0.7909295"><ele>196.0</ele><time>2026-05-04T08:15:34.61Z</time></trkpt><trkpt lat="41.6495887" lon="-0.7907697"><ele>196.0</ele><time>2026-05-04T08:15:35.608Z</time></trkpt><trkpt lat="41.6495329" lon="-0.7906212"><ele>196.0</ele><time>2026-05-04T08:15:36.608Z</time></trkpt><trkpt lat="41.6494844" lon="-0.790488"><ele>196.0</ele><time>2026-05-04T08:15:37.601Z</time></trkpt><trkpt lat="41.6494354" lon="-0.7903599"><ele>196.0</ele><time>2026-05-04T08:15:38.606Z</time></trkpt><trkpt lat="41.6493992" lon="-0.7902416"><ele>196.0</ele><time>2026-05-04T08:15:39.604Z</time></trkpt><trkpt lat="41.6493591" lon="-0.790129"><ele>196.0</ele><time>2026-05-04T08:15:40.603Z</time></trkpt><trkpt lat="41.6493187" lon="-0.7900112"><ele>196.0</ele><time>2026-05-04T08:15:41.604Z</time></trkpt><trkpt lat="41.6492755" lon="-0.7898931"><ele>196.0</ele><time>2026-05-04T08:15:42.61Z</time></trkpt><trkpt lat="41.6492315" lon="-0.7897761"><ele>196.0</ele><time>2026-05-04T08:15:43.611Z</time></trkpt><trkpt lat="41.6491935" lon="-0.7896567"><ele>196.0</ele><time>2026-05-04T08:15:44.611Z</time></trkpt><trkpt lat="41.649158" lon="-0.7895336"><ele>196.0</ele><time>2026-05-04T08:15:45.611Z</time></trkpt><trkpt lat="41.649122" lon="-0.7894029"><ele>196.0</ele><time>2026-05-04T08:15:46.613Z</time></trkpt><trkpt lat="41.6490818" lon="-0.7892711"><ele>196.0</ele><time>2026-05-04T08:15:47.612Z</time></trkpt><trkpt lat="41.6490323" lon="-0.7891438"><ele>196.0</ele><time>2026-05-04T08:15:48.613Z</time></trkpt><trkpt lat="41.6489825" lon="-0.78901"><ele>196.0</ele><time>2026-05-04T08:15:49.61Z</time></trkpt><trkpt lat="41.6489327" lon="-0.788874"><ele>196.5</ele><time>2026-05-04T08:15:50.614Z</time></trkpt><trkpt lat="41.6488825" lon="-0.7887307"><ele>197.0</ele><time>2026-05-04T08:15:51.609Z</time></trkpt><trkpt lat="41.6488285" lon="-0.7885802"><ele>197.5</ele><time>2026-05-04T08:15:52.608Z</time></trkpt><trkpt lat="41.6487688" lon="-0.7884254"><ele>198.0</ele><time>2026-05-04T08:15:53.61Z</time></trkpt><trkpt lat="41.6487072" lon="-0.7882663"><ele>197.75</ele><time>2026-05-04T08:15:54.61Z</time></trkpt><trkpt lat="41.648648" lon="-0.7881056"><ele>197.5</ele><time>2026-05-04T08:15:55.61Z</time></trkpt><trkpt lat="41.6485871" lon="-0.7879355"><ele>197.25</ele><time>2026-05-04T08:15:56.61Z</time></trkpt><trkpt lat="41.6485235" lon="-0.7877629"><ele>197.0</ele><time>2026-05-04T08:15:57.608Z</time></trkpt><trkpt lat="41.6484539" lon="-0.7875921"><ele>197.0</ele><time>2026-05-04T08:15:58.61Z</time></trkpt><trkpt lat="41.6483817" lon="-0.7874303"><ele>197.0</ele><time>2026-05-04T08:15:59.61Z</time></trkpt><trkpt lat="41.648302" lon="-0.7872695"><ele>197.0</ele><time>2026-05-04T08:16:00.611Z</time></trkpt><trkpt lat="41.648209" lon="-0.787115"><ele>197.0</ele><time>2026-05-04T08:16:01.608Z</time></trkpt><trkpt lat="41.6481153" lon="-0.7869731"><ele>197.75</ele><time>2026-05-04T08:16:02.605Z</time></trkpt><trkpt lat="41.6480185" lon="-0.7868254"><ele>198.5</ele><time>2026-05-04T08:16:03.605Z</time></trkpt><trkpt lat="41.6479213" lon="-0.7866769"><ele>199.25</ele><time>2026-05-04T08:16:04.622Z</time></trkpt><trkpt lat="41.647814" lon="-0.7865317"><ele>200.0</ele><time>2026-05-04T08:16:05.606Z</time></trkpt><trkpt lat="41.6477108" lon="-0.7863926"><ele>199.25</ele><time>2026-05-04T08:16:06.609Z</time></trkpt><trkpt lat="41.6476043" lon="-0.7862438"><ele>198.5</ele><time>2026-05-04T08:16:07.608Z</time></trkpt><trkpt lat="41.6475084" lon="-0.7860963"><ele>197.75</ele><time>2026-05-04T08:16:08.613Z</time></trkpt><trkpt lat="41.6474127" lon="-0.7859449"><ele>197.0</ele><time>2026-05-04T08:16:09.607Z</time></trkpt><trkpt lat="41.6473163" lon="-0.7858001"><ele>197.0</ele><time>2026-05-04T08:16:10.612Z</time></trkpt><trkpt lat="41.6472241" lon="-0.7856428"><ele>197.0</ele><time>2026-05-04T08:16:11.608Z</time></trkpt><trkpt lat="41.6471306" lon="-0.7854856"><ele>197.0</ele><time>2026-05-04T08:16:12.611Z</time></trkpt><trkpt lat="41.6470567" lon="-0.7853172"><ele>197.0</ele><time>2026-05-04T08:16:13.608Z</time></trkpt><trkpt lat="41.6469882" lon="-0.7851469"><ele>196.0</ele><time>2026-05-04T08:16:14.611Z</time></trkpt><trkpt lat="41.6469269" lon="-0.7849787"><ele>195.0</ele><time>2026-05-04T08:16:15.608Z</time></trkpt><trkpt lat="41.6468643" lon="-0.7848042"><ele>194.0</ele><time>2026-05-04T08:16:16.611Z</time></trkpt><trkpt lat="41.646804" lon="-0.7846374"><ele>193.0</ele><time>2026-05-04T08:16:17.613Z</time></trkpt><trkpt lat="41.64674" lon="-0.7844657"><ele>193.0</ele><time>2026-05-04T08:16:18.611Z</time></trkpt><trkpt lat="41.6466736" lon="-0.7842956"><ele>193.0</ele><time>2026-05-04T08:16:19.614Z</time></trkpt><trkpt lat="41.6466037" lon="-0.7841328"><ele>193.0</ele><time>2026-05-04T08:16:20.61Z</time></trkpt><trkpt lat="41.6465371" lon="-0.7839718"><ele>193.0</ele><time>2026-05-04T08:16:21.613Z</time></trkpt><trkpt lat="41.6464703" lon="-0.7837953"><ele>193.0</ele><time>2026-05-04T08:16:22.612Z</time></trkpt><trkpt lat="41.6463964" lon="-0.7836396"><ele>193.0</ele><time>2026-05-04T08:16:23.611Z</time></trkpt><trkpt lat="41.6463284" lon="-0.7834726"><ele>193.0</ele><time>2026-05-04T08:16:24.613Z</time></trkpt><trkpt lat="41.6462621" lon="-0.783307"><ele>193.0</ele><time>2026-05-04T08:16:25.613Z</time></trkpt><trkpt lat="41.646195" lon="-0.7831388"><ele>193.25</ele><time>2026-05-04T08:16:26.615Z</time></trkpt><trkpt lat="41.6461256" lon="-0.782974"><ele>193.5</ele><time>2026-05-04T08:16:27.611Z</time></trkpt><trkpt lat="41.6460574" lon="-0.7828122"><ele>193.75</ele><time>2026-05-04T08:16:28.612Z</time></trkpt><trkpt lat="41.6459897" lon="-0.7826414"><ele>194.0</ele><time>2026-05-04T08:16:29.614Z</time></trkpt><trkpt lat="41.6459253" lon="-0.7824779"><ele>194.0</ele><time>2026-05-04T08:16:30.616Z</time></trkpt><trkpt lat="41.6458634" lon="-0.7823181"><ele>194.0</ele><time>2026-05-04T08:16:31.61Z</time></trkpt><trkpt lat="41.6457872" lon="-0.7821517"><ele>194.0</ele><time>2026-05-04T08:16:32.605Z</time></trkpt><trkpt lat="41.6457238" lon="-0.7819939"><ele>194.0</ele><time>2026-05-04T08:16:33.604Z</time></trkpt><trkpt lat="41.6456565" lon="-0.7818254"><ele>195.0</ele><time>2026-05-04T08:16:34.617Z</time></trkpt><trkpt lat="41.6455894" lon="-0.7816654"><ele>196.0</ele><time>2026-05-04T08:16:35.626Z</time></trkpt><trkpt lat="41.645521" lon="-0.7815029"><ele>197.0</ele><time>2026-05-04T08:16:36.617Z</time></trkpt><trkpt lat="41.6454549" lon="-0.7813539"><ele>198.0</ele><time>2026-05-04T08:16:37.607Z</time></trkpt><trkpt lat="41.6453902" lon="-0.7811941"><ele>198.0</ele><time>2026-05-04T08:16:38.612Z</time></trkpt><trkpt lat="41.645324" lon="-0.7810331"><ele>198.0</ele><time>2026-05-04T08:16:39.616Z</time></trkpt><trkpt lat="41.6452564" lon="-0.7808704"><ele>198.0</ele><time>2026-05-04T08:16:40.619Z</time></trkpt><trkpt lat="41.6451857" lon="-0.7807043"><ele>198.0</ele><time>2026-05-04T08:16:41.615Z</time></trkpt><trkpt lat="41.6451164" lon="-0.7805378"><ele>197.75</ele><time>2026-05-04T08:16:42.618Z</time></trkpt><trkpt lat="41.645045" lon="-0.7803694"><ele>197.5</ele><time>2026-05-04T08:16:43.615Z</time></trkpt><trkpt lat="41.6449767" lon="-0.780205"><ele>197.25</ele><time>2026-05-04T08:16:44.617Z</time></trkpt><trkpt lat="41.6449057" lon="-0.7800379"><ele>197.0</ele><time>2026-05-04T08:16:45.613Z</time></trkpt><trkpt lat="41.6448414" lon="-0.7798676"><ele>197.0</ele><time>2026-05-04T08:16:46.615Z</time></trkpt><trkpt lat="41.6447742" lon="-0.7797034"><ele>197.0</ele><time>2026-05-04T08:16:47.61Z</time></trkpt><trkpt lat="41.6447069" lon="-0.7795409"><ele>197.0</ele><time>2026-05-04T08:16:48.611Z</time></trkpt><trkpt lat="41.6446316" lon="-0.7793752"><ele>197.0</ele><time>2026-05-04T08:16:49.608Z</time></trkpt><trkpt lat="41.6445657" lon="-0.7792102"><ele>197.25</ele><time>2026-05-04T08:16:50.613Z</time></trkpt><trkpt lat="41.6444971" lon="-0.7790428"><ele>197.5</ele><time>2026-05-04T08:16:51.615Z</time></trkpt><trkpt lat="41.6444233" lon="-0.778875"><ele>197.75</ele><time>2026-05-04T08:16:52.613Z</time></trkpt><trkpt lat="41.644358" lon="-0.7786995"><ele>198.0</ele><time>2026-05-04T08:16:53.608Z</time></trkpt><trkpt lat="41.6442859" lon="-0.7785223"><ele>196.25</ele><time>2026-05-04T08:16:54.614Z</time></trkpt><trkpt lat="41.6442123" lon="-0.7783527"><ele>194.5</ele><time>2026-05-04T08:16:55.613Z</time></trkpt><trkpt lat="41.6441499" lon="-0.7781865"><ele>192.75</ele><time>2026-05-04T08:16:56.614Z</time></trkpt><trkpt lat="41.6440813" lon="-0.7780277"><ele>191.0</ele><time>2026-05-04T08:16:57.614Z</time></trkpt><trkpt lat="41.6440177" lon="-0.7778637"><ele>191.0</ele><time>2026-05-04T08:16:58.614Z</time></trkpt><trkpt lat="41.6439574" lon="-0.7776922"><ele>191.0</ele><time>2026-05-04T08:16:59.617Z</time></trkpt><trkpt lat="41.6439054" lon="-0.7775192"><ele>191.0</ele><time>2026-05-04T08:17:00.622Z</time></trkpt><trkpt lat="41.6438538" lon="-0.7773418"><ele>191.0</ele><time>2026-05-04T08:17:01.614Z</time></trkpt><trkpt lat="41.6438071" lon="-0.7771738"><ele>190.5</ele><time>2026-05-04T08:17:02.62Z</time></trkpt><trkpt lat="41.6437627" lon="-0.7770031"><ele>190.0</ele><time>2026-05-04T08:17:03.614Z</time></trkpt><trkpt lat="41.6437193" lon="-0.7768214"><ele>189.5</ele><time>2026-05-04T08:17:04.616Z</time></trkpt><trkpt lat="41.6436678" lon="-0.77665"><ele>189.0</ele><time>2026-05-04T08:17:05.613Z</time></trkpt><trkpt lat="41.643613" lon="-0.7764822"><ele>189.0</ele><time>2026-05-04T08:17:06.635Z</time></trkpt><trkpt lat="41.6435642" lon="-0.7763142"><ele>189.0</ele><time>2026-05-04T08:17:07.611Z</time></trkpt><trkpt lat="41.643516" lon="-0.7761391"><ele>189.0</ele><time>2026-05-04T08:17:08.618Z</time></trkpt><trkpt lat="41.643465" lon="-0.7759722"><ele>189.0</ele><time>2026-05-04T08:17:09.616Z</time></trkpt><trkpt lat="41.6434157" lon="-0.7757994"><ele>189.5</ele><time>2026-05-04T08:17:10.619Z</time></trkpt><trkpt lat="41.6433698" lon="-0.7756345"><ele>190.0</ele><time>2026-05-04T08:17:11.615Z</time></trkpt><trkpt lat="41.6433252" lon="-0.7754691"><ele>190.5</ele><time>2026-05-04T08:17:12.615Z</time></trkpt><trkpt lat="41.6432784" lon="-0.7752969"><ele>191.0</ele><time>2026-05-04T08:17:13.612Z</time></trkpt><trkpt lat="41.6432288" lon="-0.7751244"><ele>191.0</ele><time>2026-05-04T08:17:14.617Z</time></trkpt><trkpt lat="41.6431846" lon="-0.7749578"><ele>191.0</ele><time>2026-05-04T08:17:15.614Z</time></trkpt><trkpt lat="41.6431349" lon="-0.7747869"><ele>191.0</ele><time>2026-05-04T08:17:16.615Z</time></trkpt><trkpt lat="41.6430937" lon="-0.7746175"><ele>191.0</ele><time>2026-05-04T08:17:17.61Z</time></trkpt><trkpt lat="41.643049" lon="-0.7744434"><ele>192.25</ele><time>2026-05-04T08:17:18.614Z</time></trkpt><trkpt lat="41.642999" lon="-0.7742678"><ele>193.5</ele><time>2026-05-04T08:17:19.613Z</time></trkpt><trkpt lat="41.6429509" lon="-0.7741009"><ele>194.75</ele><time>2026-05-04T08:17:20.619Z</time></trkpt><trkpt lat="41.6429063" lon="-0.7739234"><ele>196.0</ele><time>2026-05-04T08:17:21.616Z</time></trkpt><trkpt lat="41.6428594" lon="-0.7737472"><ele>196.0</ele><time>2026-05-04T08:17:22.611Z</time></trkpt><trkpt lat="41.6428055" lon="-0.7735727"><ele>196.0</ele><time>2026-05-04T08:17:23.613Z</time></trkpt><trkpt lat="41.6427565" lon="-0.7734022"><ele>196.0</ele><time>2026-05-04T08:17:24.612Z</time></trkpt><trkpt lat="41.6427116" lon="-0.7732223"><ele>196.0</ele><time>2026-05-04T08:17:25.615Z</time></trkpt><trkpt lat="41.6426637" lon="-0.7730454"><ele>195.0</ele><time>2026-05-04T08:17:26.612Z</time></trkpt><trkpt lat="41.6426179" lon="-0.7728703"><ele>194.0</ele><time>2026-05-04T08:17:27.612Z</time></trkpt><trkpt lat="41.6425653" lon="-0.7727037"><ele>193.0</ele><time>2026-05-04T08:17:28.616Z</time></trkpt><trkpt lat="41.6425177" lon="-0.7725366"><ele>192.0</ele><time>2026-05-04T08:17:29.614Z</time></trkpt><trkpt lat="41.6424721" lon="-0.7723697"><ele>191.75</ele><time>2026-05-04T08:17:30.617Z</time></trkpt><trkpt lat="41.6424233" lon="-0.7721915"><ele>191.5</ele><time>2026-05-04T08:17:31.612Z</time></trkpt><trkpt lat="41.642368" lon="-0.7720207"><ele>191.25</ele><time>2026-05-04T08:17:32.611Z</time></trkpt><trkpt lat="41.6423131" lon="-0.7718508"><ele>191.0</ele><time>2026-05-04T08:17:33.607Z</time></trkpt><trkpt lat="41.6422653" lon="-0.7716796"><ele>192.25</ele><time>2026-05-04T08:17:34.61Z</time></trkpt><trkpt lat="41.6422184" lon="-0.7715136"><ele>193.5</ele><time>2026-05-04T08:17:35.601Z</time></trkpt><trkpt lat="41.6421676" lon="-0.7713474"><ele>194.75</ele><time>2026-05-04T08:17:36.619Z</time></trkpt><trkpt lat="41.6421144" lon="-0.7711839"><ele>196.0</ele><time>2026-05-04T08:17:37.621Z</time></trkpt><trkpt lat="41.6420504" lon="-0.7710169"><ele>196.0</ele><time>2026-05-04T08:17:38.607Z</time></trkpt><trkpt lat="41.6419799" lon="-0.7708645"><ele>196.0</ele><time>2026-05-04T08:17:39.608Z</time></trkpt><trkpt lat="41.6419071" lon="-0.7707084"><ele>196.0</ele><time>2026-05-04T08:17:40.609Z</time></trkpt><trkpt lat="41.6418298" lon="-0.7705584"><ele>196.0</ele><time>2026-05-04T08:17:41.609Z</time></trkpt><trkpt lat="41.6417518" lon="-0.7704167"><ele>195.5</ele><time>2026-05-04T08:17:42.608Z</time></trkpt><trkpt lat="41.6416691" lon="-0.7702776"><ele>195.0</ele><time>2026-05-04T08:17:43.607Z</time></trkpt><trkpt lat="41.6415862" lon="-0.7701304"><ele>194.5</ele><time>2026-05-04T08:17:44.607Z</time></trkpt><trkpt lat="41.6415131" lon="-0.7699838"><ele>194.0</ele><time>2026-05-04T08:17:45.613Z</time></trkpt><trkpt lat="41.6414343" lon="-0.7698324"><ele>193.75</ele><time>2026-05-04T08:17:46.617Z</time></trkpt><trkpt lat="41.6413644" lon="-0.7696824"><ele>193.5</ele><time>2026-05-04T08:17:47.608Z</time></trkpt><trkpt lat="41.6412948" lon="-0.7695436"><ele>193.25</ele><time>2026-05-04T08:17:48.612Z</time></trkpt><trkpt lat="41.6412214" lon="-0.7693961"><ele>193.0</ele><time>2026-05-04T08:17:49.615Z</time></trkpt><trkpt lat="41.6411502" lon="-0.7692582"><ele>192.5</ele><time>2026-05-04T08:17:50.609Z</time></trkpt><trkpt lat="41.641073" lon="-0.7691187"><ele>192.0</ele><time>2026-05-04T08:17:51.612Z</time></trkpt><trkpt lat="41.6409986" lon="-0.7689751"><ele>191.5</ele><time>2026-05-04T08:17:52.608Z</time></trkpt><trkpt lat="41.6409264" lon="-0.7688332"><ele>191.0</ele><time>2026-05-04T08:17:53.605Z</time></trkpt><trkpt lat="41.6408523" lon="-0.7686892"><ele>191.0</ele><time>2026-05-04T08:17:54.604Z</time></trkpt><trkpt lat="41.6407749" lon="-0.7685449"><ele>191.0</ele><time>2026-05-04T08:17:55.607Z</time></trkpt><trkpt lat="41.6406962" lon="-0.7683998"><ele>191.0</ele><time>2026-05-04T08:17:56.612Z</time></trkpt><trkpt lat="41.6406167" lon="-0.7682556"><ele>191.0</ele><time>2026-05-04T08:17:57.607Z</time></trkpt><trkpt lat="41.6405349" lon="-0.7681091"><ele>191.5</ele><time>2026-05-04T08:17:58.606Z</time></trkpt><trkpt lat="41.6404574" lon="-0.7679629"><ele>192.0</ele><time>2026-05-04T08:17:59.611Z</time></trkpt><trkpt lat="41.6403805" lon="-0.7678158"><ele>192.5</ele><time>2026-05-04T08:18:00.613Z</time></trkpt><trkpt lat="41.6403054" lon="-0.7676687"><ele>193.0</ele><time>2026-05-04T08:18:01.607Z</time></trkpt><trkpt lat="41.6402288" lon="-0.7675189"><ele>193.5</ele><time>2026-05-04T08:18:02.606Z</time></trkpt><trkpt lat="41.6401521" lon="-0.7673702"><ele>194.0</ele><time>2026-05-04T08:18:03.607Z</time></trkpt><trkpt lat="41.6400761" lon="-0.767219"><ele>194.5</ele><time>2026-05-04T08:18:04.605Z</time></trkpt><trkpt lat="41.6400036" lon="-0.7670662"><ele>195.0</ele><time>2026-05-04T08:18:05.604Z</time></trkpt><trkpt lat="41.6399232" lon="-0.7669061"><ele>194.75</ele><time>2026-05-04T08:18:06.61Z</time></trkpt><trkpt lat="41.6398413" lon="-0.7667499"><ele>194.5</ele><time>2026-05-04T08:18:07.606Z</time></trkpt><trkpt lat="41.6397522" lon="-0.7665995"><ele>194.25</ele><time>2026-05-04T08:18:08.62Z</time></trkpt><trkpt lat="41.6396676" lon="-0.7664431"><ele>194.0</ele><time>2026-05-04T08:18:09.607Z</time></trkpt><trkpt lat="41.6395874" lon="-0.7662878"><ele>194.0</ele><time>2026-05-04T08:18:10.606Z</time></trkpt><trkpt lat="41.6395074" lon="-0.7661372"><ele>194.0</ele><time>2026-05-04T08:18:11.605Z</time></trkpt><trkpt lat="41.63943" lon="-0.7659891"><ele>194.0</ele><time>2026-05-04T08:18:12.607Z</time></trkpt><trkpt lat="41.6393548" lon="-0.7658414"><ele>194.0</ele><time>2026-05-04T08:18:13.608Z</time></trkpt><trkpt lat="41.6392801" lon="-0.7656905"><ele>194.0</ele><time>2026-05-04T08:18:14.606Z</time></trkpt><trkpt lat="41.6392032" lon="-0.7655436"><ele>194.0</ele><time>2026-05-04T08:18:15.611Z</time></trkpt><trkpt lat="41.6391263" lon="-0.765393"><ele>194.0</ele><time>2026-05-04T08:18:16.608Z</time></trkpt><trkpt lat="41.639052" lon="-0.7652595"><ele>194.0</ele><time>2026-05-04T08:18:17.612Z</time></trkpt><trkpt lat="41.6389801" lon="-0.7651235"><ele>194.0</ele><time>2026-05-04T08:18:18.61Z</time></trkpt><trkpt lat="41.6389083" lon="-0.7649949"><ele>194.0</ele><time>2026-05-04T08:18:19.61Z</time></trkpt><trkpt lat="41.6388337" lon="-0.7648636"><ele>194.0</ele><time>2026-05-04T08:18:20.607Z</time></trkpt><trkpt lat="41.6387655" lon="-0.7647364"><ele>194.0</ele><time>2026-05-04T08:18:21.612Z</time></trkpt><trkpt lat="41.6387044" lon="-0.7646186"><ele>194.0</ele><time>2026-05-04T08:18:22.606Z</time></trkpt><trkpt lat="41.6386437" lon="-0.7645174"><ele>194.0</ele><time>2026-05-04T08:18:23.607Z</time></trkpt><trkpt lat="41.6385825" lon="-0.7644243"><ele>194.0</ele><time>2026-05-04T08:18:24.603Z</time></trkpt><trkpt lat="41.6385245" lon="-0.7643261"><ele>194.0</ele><time>2026-05-04T08:18:25.603Z</time></trkpt><trkpt lat="41.6384711" lon="-0.7642284"><ele>194.0</ele><time>2026-05-04T08:18:26.608Z</time></trkpt><trkpt lat="41.638419" lon="-0.7641441"><ele>193.57142857142856</ele><time>2026-05-04T08:18:27.608Z</time></trkpt><trkpt lat="41.6383658" lon="-0.7640669"><ele>193.14285714285717</ele><time>2026-05-04T08:18:28.606Z</time></trkpt><trkpt lat="41.6383105" lon="-0.7640004"><ele>192.71428571428572</ele><time>2026-05-04T08:18:29.601Z</time></trkpt><trkpt lat="41.6382476" lon="-0.7639411"><ele>192.28571428571428</ele><time>2026-05-04T08:18:30.616Z</time></trkpt><trkpt lat="41.6381761" lon="-0.7639198"><ele>191.85714285714283</ele><time>2026-05-04T08:18:31.601Z</time></trkpt><trkpt lat="41.638106" lon="-0.7639101"><ele>191.42857142857144</ele><time>2026-05-04T08:18:32.608Z</time></trkpt><trkpt lat="41.6380326" lon="-0.7638952"><ele>191.0</ele><time>2026-05-04T08:18:33.605Z</time></trkpt><trkpt lat="41.6379693" lon="-0.7638584"><ele>191.0</ele><time>2026-05-04T08:18:34.61Z</time></trkpt><trkpt lat="41.6379173" lon="-0.7637822"><ele>191.0</ele><time>2026-05-04T08:18:35.61Z</time></trkpt><trkpt lat="41.6378869" lon="-0.7636788"><ele>191.0</ele><time>2026-05-04T08:18:36.603Z</time></trkpt><trkpt lat="41.6378761" lon="-0.7635723"><ele>191.0</ele><time>2026-05-04T08:18:37.599Z</time></trkpt><trkpt lat="41.6378734" lon="-0.7634477"><ele>191.0</ele><time>2026-05-04T08:18:38.602Z</time></trkpt><trkpt lat="41.6378501" lon="-0.7633334"><ele>191.0</ele><time>2026-05-04T08:18:39.615Z</time></trkpt><trkpt lat="41.6378106" lon="-0.7632218"><ele>190.60000000000002</ele><time>2026-05-04T08:18:40.604Z</time></trkpt><trkpt lat="41.6377552" lon="-0.763117"><ele>190.2</ele><time>2026-05-04T08:18:41.603Z</time></trkpt><trkpt lat="41.6376936" lon="-0.7630204"><ele>189.8</ele><time>2026-05-04T08:18:42.606Z</time></trkpt><trkpt lat="41.6376266" lon="-0.7629337"><ele>189.39999999999998</ele><time>2026-05-04T08:18:43.609Z</time></trkpt><trkpt lat="41.6375557" lon="-0.7628409"><ele>189.0</ele><time>2026-05-04T08:18:44.606Z</time></trkpt><trkpt lat="41.6374868" lon="-0.7627395"><ele>190.39999999999998</ele><time>2026-05-04T08:18:45.604Z</time></trkpt><trkpt lat="41.6374122" lon="-0.7626382"><ele>191.8</ele><time>2026-05-04T08:18:46.608Z</time></trkpt><trkpt lat="41.6373372" lon="-0.7625327"><ele>193.2</ele><time>2026-05-04T08:18:47.606Z</time></trkpt><trkpt lat="41.6372594" lon="-0.7624193"><ele>194.60000000000002</ele><time>2026-05-04T08:18:48.606Z</time></trkpt><trkpt lat="41.6371767" lon="-0.7623084"><ele>196.0</ele><time>2026-05-04T08:18:49.599Z</time></trkpt><trkpt lat="41.6370968" lon="-0.7621949"><ele>196.0</ele><time>2026-05-04T08:18:50.608Z</time></trkpt><trkpt lat="41.6370153" lon="-0.762081"><ele>196.0</ele><time>2026-05-04T08:18:51.603Z</time></trkpt><trkpt lat="41.636934" lon="-0.7619705"><ele>196.0</ele><time>2026-05-04T08:18:52.606Z</time></trkpt><trkpt lat="41.6368568" lon="-0.7618549"><ele>196.0</ele><time>2026-05-04T08:18:53.602Z</time></trkpt><trkpt lat="41.6367777" lon="-0.761738"><ele>195.25</ele><time>2026-05-04T08:18:54.606Z</time></trkpt><trkpt lat="41.6366963" lon="-0.7616199"><ele>194.5</ele><time>2026-05-04T08:18:55.602Z</time></trkpt><trkpt lat="41.6366199" lon="-0.7615049"><ele>193.75</ele><time>2026-05-04T08:18:56.605Z</time></trkpt><trkpt lat="41.6365472" lon="-0.7613937"><ele>193.0</ele><time>2026-05-04T08:18:57.606Z</time></trkpt><trkpt lat="41.6364745" lon="-0.7612865"><ele>193.0</ele><time>2026-05-04T08:18:58.602Z</time></trkpt><trkpt lat="41.6364011" lon="-0.7611722"><ele>193.0</ele><time>2026-05-04T08:18:59.606Z</time></trkpt><trkpt lat="41.6363282" lon="-0.7610698"><ele>193.0</ele><time>2026-05-04T08:19:00.607Z</time></trkpt><trkpt lat="41.6362588" lon="-0.7609647"><ele>193.0</ele><time>2026-05-04T08:19:01.607Z</time></trkpt><trkpt lat="41.6361859" lon="-0.7608621"><ele>193.0</ele><time>2026-05-04T08:19:02.603Z</time></trkpt><trkpt lat="41.6361177" lon="-0.7607577"><ele>191.8</ele><time>2026-05-04T08:19:03.605Z</time></trkpt><trkpt lat="41.6360461" lon="-0.760652"><ele>190.60000000000002</ele><time>2026-05-04T08:19:04.611Z</time></trkpt><trkpt lat="41.6359715" lon="-0.7605465"><ele>189.39999999999998</ele><time>2026-05-04T08:19:05.608Z</time></trkpt><trkpt lat="41.6358978" lon="-0.7604367"><ele>188.2</ele><time>2026-05-04T08:19:06.606Z</time></trkpt><trkpt lat="41.6358262" lon="-0.7603209"><ele>187.0</ele><time>2026-05-04T08:19:07.608Z</time></trkpt><trkpt lat="41.6357542" lon="-0.7602004"><ele>188.5</ele><time>2026-05-04T08:19:08.609Z</time></trkpt><trkpt lat="41.6356849" lon="-0.7600766"><ele>190.0</ele><time>2026-05-04T08:19:09.612Z</time></trkpt><trkpt lat="41.6356167" lon="-0.7599465"><ele>191.5</ele><time>2026-05-04T08:19:10.627Z</time></trkpt><trkpt lat="41.6355509" lon="-0.7598207"><ele>193.0</ele><time>2026-05-04T08:19:11.608Z</time></trkpt><trkpt lat="41.6354861" lon="-0.7596914"><ele>193.0</ele><time>2026-05-04T08:19:12.608Z</time></trkpt><trkpt lat="41.6354187" lon="-0.7595619"><ele>193.0</ele><time>2026-05-04T08:19:13.604Z</time></trkpt><trkpt lat="41.6353533" lon="-0.7594349"><ele>193.0</ele><time>2026-05-04T08:19:14.606Z</time></trkpt><trkpt lat="41.6352876" lon="-0.7593102"><ele>193.0</ele><time>2026-05-04T08:19:15.606Z</time></trkpt><trkpt lat="41.6352212" lon="-0.7591825"><ele>192.75</ele><time>2026-05-04T08:19:16.606Z</time></trkpt><trkpt lat="41.6351545" lon="-0.7590563"><ele>192.5</ele><time>2026-05-04T08:19:17.605Z</time></trkpt><trkpt lat="41.6350851" lon="-0.7589315"><ele>192.25</ele><time>2026-05-04T08:19:18.605Z</time></trkpt><trkpt lat="41.6350151" lon="-0.7588092"><ele>192.0</ele><time>2026-05-04T08:19:19.605Z</time></trkpt><trkpt lat="41.6349444" lon="-0.7586859"><ele>192.0</ele><time>2026-05-04T08:19:20.606Z</time></trkpt><trkpt lat="41.634875" lon="-0.758562"><ele>192.0</ele><time>2026-05-04T08:19:21.613Z</time></trkpt><trkpt lat="41.6348083" lon="-0.7584382"><ele>192.0</ele><time>2026-05-04T08:19:22.611Z</time></trkpt><trkpt lat="41.6347458" lon="-0.7583233"><ele>192.0</ele><time>2026-05-04T08:19:23.609Z</time></trkpt><trkpt lat="41.6346859" lon="-0.7582102"><ele>192.0</ele><time>2026-05-04T08:19:24.614Z</time></trkpt><trkpt lat="41.6346291" lon="-0.7580962"><ele>191.8</ele><time>2026-05-04T08:19:25.606Z</time></trkpt><trkpt lat="41.6345711" lon="-0.7579841"><ele>191.6</ele><time>2026-05-04T08:19:26.608Z</time></trkpt><trkpt lat="41.6345129" lon="-0.7578779"><ele>191.4</ele><time>2026-05-04T08:19:27.605Z</time></trkpt><trkpt lat="41.634454" lon="-0.7577785"><ele>191.20000000000002</ele><time>2026-05-04T08:19:28.602Z</time></trkpt><trkpt lat="41.6343955" lon="-0.7576908"><ele>191.0</ele><time>2026-05-04T08:19:29.599Z</time></trkpt><trkpt lat="41.6343371" lon="-0.7576099"><ele>191.0</ele><time>2026-05-04T08:19:30.61Z</time></trkpt><trkpt lat="41.6342662" lon="-0.7575706"><ele>191.0</ele><time>2026-05-04T08:19:31.603Z</time></trkpt><trkpt lat="41.6341936" lon="-0.757564"><ele>191.0</ele><time>2026-05-04T08:19:32.602Z</time></trkpt><trkpt lat="41.6341196" lon="-0.7575545"><ele>191.0</ele><time>2026-05-04T08:19:33.598Z</time></trkpt><trkpt lat="41.6340575" lon="-0.7575195"><ele>191.0</ele><time>2026-05-04T08:19:34.602Z</time></trkpt><trkpt lat="41.6340038" lon="-0.757448"><ele>191.0</ele><time>2026-05-04T08:19:35.6Z</time></trkpt><trkpt lat="41.6339726" lon="-0.7573535"><ele>191.0</ele><time>2026-05-04T08:19:36.598Z</time></trkpt><trkpt lat="41.6339751" lon="-0.7572399"><ele>191.0</ele><time>2026-05-04T08:19:37.586Z</time></trkpt><trkpt lat="41.633993" lon="-0.7571348"><ele>191.0</ele><time>2026-05-04T08:19:38.598Z</time></trkpt><trkpt lat="41.634015" lon="-0.7570102"><ele>191.0</ele><time>2026-05-04T08:19:39.598Z</time></trkpt><trkpt lat="41.6340031" lon="-0.756885"><ele>191.0</ele><time>2026-05-04T08:19:40.603Z</time></trkpt><trkpt lat="41.6339623" lon="-0.7567724"><ele>191.0</ele><time>2026-05-04T08:19:41.611Z</time></trkpt><trkpt lat="41.6339094" lon="-0.7566627"><ele>191.20000000000002</ele><time>2026-05-04T08:19:42.598Z</time></trkpt><trkpt lat="41.6338448" lon="-0.7565527"><ele>191.4</ele><time>2026-05-04T08:19:43.601Z</time></trkpt><trkpt lat="41.6337816" lon="-0.7564342"><ele>191.6</ele><time>2026-05-04T08:19:44.6Z</time></trkpt><trkpt lat="41.6337166" lon="-0.7563099"><ele>191.8</ele><time>2026-05-04T08:19:45.601Z</time></trkpt><trkpt lat="41.633648" lon="-0.7561769"><ele>192.0</ele><time>2026-05-04T08:19:46.604Z</time></trkpt><trkpt lat="41.6335852" lon="-0.7560447"><ele>192.6</ele><time>2026-05-04T08:19:47.6Z</time></trkpt><trkpt lat="41.6335219" lon="-0.7559166"><ele>193.2</ele><time>2026-05-04T08:19:48.597Z</time></trkpt><trkpt lat="41.6334644" lon="-0.755786"><ele>193.8</ele><time>2026-05-04T08:19:49.598Z</time></trkpt><trkpt lat="41.6334112" lon="-0.7556602"><ele>194.4</ele><time>2026-05-04T08:19:50.598Z</time></trkpt><trkpt lat="41.6333619" lon="-0.7555405"><ele>195.0</ele><time>2026-05-04T08:19:51.602Z</time></trkpt><trkpt lat="41.6333139" lon="-0.7554249"><ele>195.0</ele><time>2026-05-04T08:19:52.604Z</time></trkpt><trkpt lat="41.633267" lon="-0.7553084"><ele>195.0</ele><time>2026-05-04T08:19:53.602Z</time></trkpt><trkpt lat="41.6332176" lon="-0.7551921"><ele>195.0</ele><time>2026-05-04T08:19:54.602Z</time></trkpt><trkpt lat="41.6331662" lon="-0.7550736"><ele>195.0</ele><time>2026-05-04T08:19:55.601Z</time></trkpt><trkpt lat="41.633114" lon="-0.7549594"><ele>195.0</ele><time>2026-05-04T08:19:56.603Z</time></trkpt><trkpt lat="41.6330655" lon="-0.7548377"><ele>195.0</ele><time>2026-05-04T08:19:57.605Z</time></trkpt><trkpt lat="41.6330192" lon="-0.7547127"><ele>195.0</ele><time>2026-05-04T08:19:58.603Z</time></trkpt><trkpt lat="41.6329631" lon="-0.7545919"><ele>195.0</ele><time>2026-05-04T08:19:59.608Z</time></trkpt><trkpt lat="41.6329138" lon="-0.7544684"><ele>195.0</ele><time>2026-05-04T08:20:00.61Z</time></trkpt><trkpt lat="41.6328607" lon="-0.7543444"><ele>195.0</ele><time>2026-05-04T08:20:01.6Z</time></trkpt><trkpt lat="41.6328079" lon="-0.7542181"><ele>195.2</ele><time>2026-05-04T08:20:02.602Z</time></trkpt><trkpt lat="41.6327568" lon="-0.7540998"><ele>195.4</ele><time>2026-05-04T08:20:03.602Z</time></trkpt><trkpt lat="41.6327115" lon="-0.75398"><ele>195.60000000000002</ele><time>2026-05-04T08:20:04.604Z</time></trkpt><trkpt lat="41.6326669" lon="-0.7538665"><ele>195.8</ele><time>2026-05-04T08:20:05.597Z</time></trkpt><trkpt lat="41.6326236" lon="-0.7537487"><ele>196.0</ele><time>2026-05-04T08:20:06.603Z</time></trkpt><trkpt lat="41.632575" lon="-0.7536321"><ele>196.4</ele><time>2026-05-04T08:20:07.599Z</time></trkpt><trkpt lat="41.6325272" lon="-0.7535155"><ele>196.8</ele><time>2026-05-04T08:20:08.602Z</time></trkpt><trkpt lat="41.6324797" lon="-0.7534002"><ele>197.20000000000002</ele><time>2026-05-04T08:20:09.598Z</time></trkpt><trkpt lat="41.6324284" lon="-0.7532837"><ele>197.60000000000002</ele><time>2026-05-04T08:20:10.602Z</time></trkpt><trkpt lat="41.6323776" lon="-0.7531633"><ele>198.0</ele><time>2026-05-04T08:20:11.593Z</time></trkpt><trkpt lat="41.6323299" lon="-0.7530395"><ele>198.0</ele><time>2026-05-04T08:20:12.614Z</time></trkpt><trkpt lat="41.632283" lon="-0.7529258"><ele>198.0</ele><time>2026-05-04T08:20:13.599Z</time></trkpt><trkpt lat="41.6322389" lon="-0.7528228"><ele>198.0</ele><time>2026-05-04T08:20:14.594Z</time></trkpt><trkpt lat="41.632196" lon="-0.752727"><ele>198.0</ele><time>2026-05-04T08:20:15.592Z</time></trkpt><trkpt lat="41.6321546" lon="-0.752633"><ele>198.0</ele><time>2026-05-04T08:20:16.602Z</time></trkpt><trkpt lat="41.6321197" lon="-0.7525405"><ele>198.0</ele><time>2026-05-04T08:20:17.593Z</time></trkpt><trkpt lat="41.6320857" lon="-0.7524556"><ele>198.0</ele><time>2026-05-04T08:20:18.593Z</time></trkpt><trkpt lat="41.6320523" lon="-0.7523681"><ele>198.0</ele><time>2026-05-04T08:20:19.59Z</time></trkpt><trkpt lat="41.632017" lon="-0.7522815"><ele>198.0</ele><time>2026-05-04T08:20:20.591Z</time></trkpt><trkpt lat="41.6319828" lon="-0.7521897"><ele>198.0</ele><time>2026-05-04T08:20:21.59Z</time></trkpt><trkpt lat="41.6319447" lon="-0.7520963"><ele>198.0</ele><time>2026-05-04T08:20:22.587Z</time></trkpt><trkpt lat="41.6319055" lon="-0.7520036"><ele>198.0</ele><time>2026-05-04T08:20:23.59Z</time></trkpt><trkpt lat="41.6318617" lon="-0.7519062"><ele>198.5</ele><time>2026-05-04T08:20:24.595Z</time></trkpt><trkpt lat="41.6318178" lon="-0.7518095"><ele>199.0</ele><time>2026-05-04T08:20:25.591Z</time></trkpt><trkpt lat="41.631773" lon="-0.7517117"><ele>199.5</ele><time>2026-05-04T08:20:26.591Z</time></trkpt><trkpt lat="41.6317332" lon="-0.7516134"><ele>200.0</ele><time>2026-05-04T08:20:27.586Z</time></trkpt><trkpt lat="41.6316917" lon="-0.7515036"><ele>200.5</ele><time>2026-05-04T08:20:28.592Z</time></trkpt><trkpt lat="41.6316547" lon="-0.7513976"><ele>201.0</ele><time>2026-05-04T08:20:29.594Z</time></trkpt><trkpt lat="41.6316105" lon="-0.7512929"><ele>201.0</ele><time>2026-05-04T08:20:30.601Z</time></trkpt><trkpt lat="41.6315686" lon="-0.7511876"><ele>201.0</ele><time>2026-05-04T08:20:31.589Z</time></trkpt><trkpt lat="41.6315283" lon="-0.7510831"><ele>201.0</ele><time>2026-05-04T08:20:32.59Z</time></trkpt><trkpt lat="41.6314884" lon="-0.7509796"><ele>201.0</ele><time>2026-05-04T08:20:33.591Z</time></trkpt><trkpt lat="41.6314509" lon="-0.7508792"><ele>201.0</ele><time>2026-05-04T08:20:34.589Z</time></trkpt><trkpt lat="41.631412" lon="-0.7507779"><ele>201.0</ele><time>2026-05-04T08:20:35.59Z</time></trkpt><trkpt lat="41.6313697" lon="-0.7506776"><ele>201.16666666666666</ele><time>2026-05-04T08:20:36.597Z</time></trkpt><trkpt lat="41.6313258" lon="-0.7505798"><ele>201.33333333333331</ele><time>2026-05-04T08:20:37.594Z</time></trkpt><trkpt lat="41.6312869" lon="-0.750475"><ele>201.5</ele><time>2026-05-04T08:20:38.595Z</time></trkpt><trkpt lat="41.6312486" lon="-0.7503699"><ele>201.66666666666666</ele><time>2026-05-04T08:20:39.594Z</time></trkpt><trkpt lat="41.6312087" lon="-0.7502593"><ele>201.83333333333331</ele><time>2026-05-04T08:20:40.6Z</time></trkpt><trkpt lat="41.6311705" lon="-0.7501487"><ele>202.0</ele><time>2026-05-04T08:20:41.595Z</time></trkpt><trkpt lat="41.6311315" lon="-0.7500311"><ele>202.0</ele><time>2026-05-04T08:20:42.596Z</time></trkpt><trkpt lat="41.6310953" lon="-0.7499225"><ele>202.0</ele><time>2026-05-04T08:20:43.611Z</time></trkpt><trkpt lat="41.6310559" lon="-0.74981"><ele>202.0</ele><time>2026-05-04T08:20:44.595Z</time></trkpt><trkpt lat="41.6310175" lon="-0.7496964"><ele>202.0</ele><time>2026-05-04T08:20:45.597Z</time></trkpt><trkpt lat="41.6309841" lon="-0.7495737"><ele>202.0</ele><time>2026-05-04T08:20:46.596Z</time></trkpt><trkpt lat="41.6309545" lon="-0.7494428"><ele>202.0</ele><time>2026-05-04T08:20:47.596Z</time></trkpt><trkpt lat="41.6309304" lon="-0.7493098"><ele>202.0</ele><time>2026-05-04T08:20:48.599Z</time></trkpt><trkpt lat="41.6309083" lon="-0.7491765"><ele>202.0</ele><time>2026-05-04T08:20:49.596Z</time></trkpt><trkpt lat="41.6308835" lon="-0.7490437"><ele>202.0</ele><time>2026-05-04T08:20:50.596Z</time></trkpt><trkpt lat="41.6308579" lon="-0.7489055"><ele>202.0</ele><time>2026-05-04T08:20:51.6Z</time></trkpt><trkpt lat="41.6308313" lon="-0.7487668"><ele>202.0</ele><time>2026-05-04T08:20:52.592Z</time></trkpt><trkpt lat="41.6308035" lon="-0.7486282"><ele>202.0</ele><time>2026-05-04T08:20:53.593Z</time></trkpt><trkpt lat="41.6307707" lon="-0.748485"><ele>202.0</ele><time>2026-05-04T08:20:54.596Z</time></trkpt><trkpt lat="41.6307249" lon="-0.7483489"><ele>202.0</ele><time>2026-05-04T08:20:55.596Z</time></trkpt><trkpt lat="41.6306812" lon="-0.7482093"><ele>202.0</ele><time>2026-05-04T08:20:56.601Z</time></trkpt><trkpt lat="41.6306249" lon="-0.7480766"><ele>201.75</ele><time>2026-05-04T08:20:57.596Z</time></trkpt><trkpt lat="41.6305732" lon="-0.7479315"><ele>201.5</ele><time>2026-05-04T08:20:58.596Z</time></trkpt><trkpt lat="41.6305198" lon="-0.7477824"><ele>201.25</ele><time>2026-05-04T08:20:59.598Z</time></trkpt><trkpt lat="41.6304683" lon="-0.7476285"><ele>201.0</ele><time>2026-05-04T08:21:00.6Z</time></trkpt><trkpt lat="41.6304125" lon="-0.747478"><ele>200.5</ele><time>2026-05-04T08:21:01.597Z</time></trkpt><trkpt lat="41.6303562" lon="-0.7473223"><ele>200.0</ele><time>2026-05-04T08:21:02.597Z</time></trkpt><trkpt lat="41.6303042" lon="-0.7471579"><ele>199.5</ele><time>2026-05-04T08:21:03.593Z</time></trkpt><trkpt lat="41.6302503" lon="-0.7469943"><ele>199.0</ele><time>2026-05-04T08:21:04.597Z</time></trkpt><trkpt lat="41.630193" lon="-0.746833"><ele>198.75</ele><time>2026-05-04T08:21:05.594Z</time></trkpt><trkpt lat="41.6301322" lon="-0.7466694"><ele>198.5</ele><time>2026-05-04T08:21:06.601Z</time></trkpt><trkpt lat="41.630075" lon="-0.746512"><ele>198.25</ele><time>2026-05-04T08:21:07.594Z</time></trkpt><trkpt lat="41.6300206" lon="-0.7463481"><ele>198.0</ele><time>2026-05-04T08:21:08.595Z</time></trkpt><trkpt lat="41.6299668" lon="-0.7461798"><ele>197.75</ele><time>2026-05-04T08:21:09.594Z</time></trkpt><trkpt lat="41.6299173" lon="-0.74601"><ele>197.5</ele><time>2026-05-04T08:21:10.6Z</time></trkpt><trkpt lat="41.6298745" lon="-0.7458354"><ele>197.25</ele><time>2026-05-04T08:21:11.601Z</time></trkpt><trkpt lat="41.6298354" lon="-0.7456592"><ele>197.0</ele><time>2026-05-04T08:21:12.602Z</time></trkpt><trkpt lat="41.6297993" lon="-0.7454692"><ele>197.0</ele><time>2026-05-04T08:21:13.604Z</time></trkpt><trkpt lat="41.629762" lon="-0.745282"><ele>197.0</ele><time>2026-05-04T08:21:14.62Z</time></trkpt><trkpt lat="41.6297292" lon="-0.7451031"><ele>197.0</ele><time>2026-05-04T08:21:15.601Z</time></trkpt><trkpt lat="41.6296907" lon="-0.7449247"><ele>197.0</ele><time>2026-05-04T08:21:16.609Z</time></trkpt><trkpt lat="41.6296526" lon="-0.7447345"><ele>196.75</ele><time>2026-05-04T08:21:17.603Z</time></trkpt><trkpt lat="41.6296103" lon="-0.7445461"><ele>196.5</ele><time>2026-05-04T08:21:18.606Z</time></trkpt><trkpt lat="41.6295717" lon="-0.7443689"><ele>196.25</ele><time>2026-05-04T08:21:19.608Z</time></trkpt><trkpt lat="41.6295346" lon="-0.7441806"><ele>196.0</ele><time>2026-05-04T08:21:20.607Z</time></trkpt><trkpt lat="41.6294946" lon="-0.7439969"><ele>195.25</ele><time>2026-05-04T08:21:21.611Z</time></trkpt><trkpt lat="41.6294532" lon="-0.7438046"><ele>194.5</ele><time>2026-05-04T08:21:22.607Z</time></trkpt><trkpt lat="41.6294118" lon="-0.7436146"><ele>193.75</ele><time>2026-05-04T08:21:23.605Z</time></trkpt><trkpt lat="41.6293792" lon="-0.7434258"><ele>193.0</ele><time>2026-05-04T08:21:24.605Z</time></trkpt><trkpt lat="41.6293372" lon="-0.7432319"><ele>193.0</ele><time>2026-05-04T08:21:25.605Z</time></trkpt><trkpt lat="41.6292935" lon="-0.7430326"><ele>193.0</ele><time>2026-05-04T08:21:26.604Z</time></trkpt><trkpt lat="41.6292509" lon="-0.7428495"><ele>193.0</ele><time>2026-05-04T08:21:27.605Z</time></trkpt><trkpt lat="41.6292085" lon="-0.7426648"><ele>193.0</ele><time>2026-05-04T08:21:28.604Z</time></trkpt><trkpt lat="41.629173" lon="-0.742467"><ele>193.0</ele><time>2026-05-04T08:21:29.61Z</time></trkpt><trkpt lat="41.6291359" lon="-0.7422798"><ele>193.0</ele><time>2026-05-04T08:21:30.613Z</time></trkpt><trkpt lat="41.6291004" lon="-0.7420873"><ele>193.0</ele><time>2026-05-04T08:21:31.604Z</time></trkpt><trkpt lat="41.6290607" lon="-0.7419007"><ele>193.0</ele><time>2026-05-04T08:21:32.605Z</time></trkpt><trkpt lat="41.6290209" lon="-0.7417094"><ele>193.0</ele><time>2026-05-04T08:21:33.603Z</time></trkpt><trkpt lat="41.6289816" lon="-0.7415195"><ele>193.0</ele><time>2026-05-04T08:21:34.606Z</time></trkpt><trkpt lat="41.6289425" lon="-0.7413457"><ele>193.0</ele><time>2026-05-04T08:21:35.607Z</time></trkpt><trkpt lat="41.6289063" lon="-0.7411738"><ele>193.0</ele><time>2026-05-04T08:21:36.604Z</time></trkpt><trkpt lat="41.628873" lon="-0.7409956"><ele>193.0</ele><time>2026-05-04T08:21:37.604Z</time></trkpt><trkpt lat="41.6288384" lon="-0.7408285"><ele>193.0</ele><time>2026-05-04T08:21:38.603Z</time></trkpt><trkpt lat="41.6288038" lon="-0.7406522"><ele>193.0</ele><time>2026-05-04T08:21:39.605Z</time></trkpt><trkpt lat="41.6287687" lon="-0.740472"><ele>193.0</ele><time>2026-05-04T08:21:40.608Z</time></trkpt><trkpt lat="41.6287335" lon="-0.7402937"><ele>192.5</ele><time>2026-05-04T08:21:41.602Z</time></trkpt><trkpt lat="41.6286935" lon="-0.740123"><ele>192.0</ele><time>2026-05-04T08:21:42.606Z</time></trkpt><trkpt lat="41.6286645" lon="-0.7399437"><ele>191.5</ele><time>2026-05-04T08:21:43.603Z</time></trkpt><trkpt lat="41.6286278" lon="-0.7397709"><ele>191.0</ele><time>2026-05-04T08:21:44.607Z</time></trkpt><trkpt lat="41.6285899" lon="-0.7395867"><ele>190.25</ele><time>2026-05-04T08:21:45.632Z</time></trkpt><trkpt lat="41.6285464" lon="-0.7394044"><ele>189.5</ele><time>2026-05-04T08:21:46.605Z</time></trkpt><trkpt lat="41.6285123" lon="-0.7392272"><ele>188.75</ele><time>2026-05-04T08:21:47.607Z</time></trkpt><trkpt lat="41.6284791" lon="-0.7390455"><ele>188.0</ele><time>2026-05-04T08:21:48.609Z</time></trkpt><trkpt lat="41.6284418" lon="-0.7388617"><ele>188.0</ele><time>2026-05-04T08:21:49.608Z</time></trkpt><trkpt lat="41.6284046" lon="-0.7386802"><ele>188.0</ele><time>2026-05-04T08:21:50.613Z</time></trkpt><trkpt lat="41.6283589" lon="-0.7384954"><ele>188.0</ele><time>2026-05-04T08:21:51.61Z</time></trkpt><trkpt lat="41.6283201" lon="-0.7383136"><ele>188.0</ele><time>2026-05-04T08:21:52.608Z</time></trkpt><trkpt lat="41.6282813" lon="-0.7381248"><ele>188.75</ele><time>2026-05-04T08:21:53.606Z</time></trkpt><trkpt lat="41.6282433" lon="-0.7379393"><ele>189.5</ele><time>2026-05-04T08:21:54.61Z</time></trkpt><trkpt lat="41.6282108" lon="-0.7377583"><ele>190.25</ele><time>2026-05-04T08:21:55.609Z</time></trkpt><trkpt lat="41.6281735" lon="-0.7375781"><ele>191.0</ele><time>2026-05-04T08:21:56.611Z</time></trkpt><trkpt lat="41.628133" lon="-0.7373964"><ele>191.25</ele><time>2026-05-04T08:21:57.61Z</time></trkpt><trkpt lat="41.6280916" lon="-0.7372227"><ele>191.5</ele><time>2026-05-04T08:21:58.611Z</time></trkpt><trkpt lat="41.6280456" lon="-0.7370492"><ele>191.75</ele><time>2026-05-04T08:21:59.606Z</time></trkpt><trkpt lat="41.6280026" lon="-0.7368791"><ele>192.0</ele><time>2026-05-04T08:22:00.615Z</time></trkpt><trkpt lat="41.6279527" lon="-0.7367041"><ele>192.75</ele><time>2026-05-04T08:22:01.607Z</time></trkpt><trkpt lat="41.6279022" lon="-0.73654"><ele>193.5</ele><time>2026-05-04T08:22:02.616Z</time></trkpt><trkpt lat="41.6278312" lon="-0.7363794"><ele>194.25</ele><time>2026-05-04T08:22:03.608Z</time></trkpt><trkpt lat="41.6277514" lon="-0.7362254"><ele>195.0</ele><time>2026-05-04T08:22:04.607Z</time></trkpt><trkpt lat="41.6276691" lon="-0.7360756"><ele>194.25</ele><time>2026-05-04T08:22:05.605Z</time></trkpt><trkpt lat="41.6275704" lon="-0.7359293"><ele>193.5</ele><time>2026-05-04T08:22:06.607Z</time></trkpt><trkpt lat="41.627474" lon="-0.7358115"><ele>192.75</ele><time>2026-05-04T08:22:07.605Z</time></trkpt><trkpt lat="41.6273735" lon="-0.7357077"><ele>192.0</ele><time>2026-05-04T08:22:08.606Z</time></trkpt><trkpt lat="41.6272703" lon="-0.7356021"><ele>192.0</ele><time>2026-05-04T08:22:09.607Z</time></trkpt><trkpt lat="41.627162" lon="-0.7354978"><ele>192.0</ele><time>2026-05-04T08:22:10.608Z</time></trkpt><trkpt lat="41.6270517" lon="-0.7354104"><ele>192.0</ele><time>2026-05-04T08:22:11.607Z</time></trkpt><trkpt lat="41.6269453" lon="-0.7353186"><ele>192.0</ele><time>2026-05-04T08:22:12.607Z</time></trkpt><trkpt lat="41.6268374" lon="-0.7352242"><ele>192.0</ele><time>2026-05-04T08:22:13.608Z</time></trkpt><trkpt lat="41.6267266" lon="-0.7351357"><ele>192.0</ele><time>2026-05-04T08:22:14.608Z</time></trkpt><trkpt lat="41.6266157" lon="-0.735049"><ele>192.0</ele><time>2026-05-04T08:22:15.622Z</time></trkpt><trkpt lat="41.6265017" lon="-0.7349587"><ele>192.0</ele><time>2026-05-04T08:22:16.605Z</time></trkpt><trkpt lat="41.6263874" lon="-0.7348695"><ele>192.0</ele><time>2026-05-04T08:22:17.607Z</time></trkpt><trkpt lat="41.626275" lon="-0.7347801"><ele>192.0</ele><time>2026-05-04T08:22:18.611Z</time></trkpt><trkpt lat="41.6261631" lon="-0.7346931"><ele>192.0</ele><time>2026-05-04T08:22:19.606Z</time></trkpt><trkpt lat="41.6260531" lon="-0.7346022"><ele>192.0</ele><time>2026-05-04T08:22:20.602Z</time></trkpt><trkpt lat="41.6259419" lon="-0.7345167"><ele>191.75</ele><time>2026-05-04T08:22:21.612Z</time></trkpt><trkpt lat="41.625828" lon="-0.7344313"><ele>191.5</ele><time>2026-05-04T08:22:22.611Z</time></trkpt><trkpt lat="41.6257172" lon="-0.734343"><ele>191.25</ele><time>2026-05-04T08:22:23.608Z</time></trkpt><trkpt lat="41.6256063" lon="-0.7342516"><ele>191.0</ele><time>2026-05-04T08:22:24.606Z</time></trkpt><trkpt lat="41.6254921" lon="-0.7341613"><ele>191.0</ele><time>2026-05-04T08:22:25.604Z</time></trkpt><trkpt lat="41.6253806" lon="-0.7340702"><ele>191.0</ele><time>2026-05-04T08:22:26.606Z</time></trkpt><trkpt lat="41.62527" lon="-0.7339767"><ele>191.0</ele><time>2026-05-04T08:22:27.609Z</time></trkpt><trkpt lat="41.6251545" lon="-0.7338827"><ele>191.0</ele><time>2026-05-04T08:22:28.606Z</time></trkpt><trkpt lat="41.6250416" lon="-0.733789"><ele>191.0</ele><time>2026-05-04T08:22:29.607Z</time></trkpt><trkpt lat="41.6249313" lon="-0.7336856"><ele>191.0</ele><time>2026-05-04T08:22:30.61Z</time></trkpt><trkpt lat="41.6248249" lon="-0.7335727"><ele>191.0</ele><time>2026-05-04T08:22:31.606Z</time></trkpt><trkpt lat="41.6247241" lon="-0.7334484"><ele>191.0</ele><time>2026-05-04T08:22:32.605Z</time></trkpt><trkpt lat="41.6246293" lon="-0.7333153"><ele>191.0</ele><time>2026-05-04T08:22:33.601Z</time></trkpt><trkpt lat="41.6245423" lon="-0.7331681"><ele>191.0</ele><time>2026-05-04T08:22:34.608Z</time></trkpt><trkpt lat="41.6244601" lon="-0.7330068"><ele>191.0</ele><time>2026-05-04T08:22:35.607Z</time></trkpt><trkpt lat="41.6243776" lon="-0.7328452"><ele>191.0</ele><time>2026-05-04T08:22:36.611Z</time></trkpt><trkpt lat="41.6243092" lon="-0.7326877"><ele>191.0</ele><time>2026-05-04T08:22:37.608Z</time></trkpt><trkpt lat="41.6242415" lon="-0.7325214"><ele>191.0</ele><time>2026-05-04T08:22:38.606Z</time></trkpt><trkpt lat="41.6241806" lon="-0.7323531"><ele>191.0</ele><time>2026-05-04T08:22:39.603Z</time></trkpt><trkpt lat="41.6241186" lon="-0.7321877"><ele>191.0</ele><time>2026-05-04T08:22:40.602Z</time></trkpt><trkpt lat="41.6240554" lon="-0.7320269"><ele>190.5</ele><time>2026-05-04T08:22:41.604Z</time></trkpt><trkpt lat="41.6239932" lon="-0.7318705"><ele>190.0</ele><time>2026-05-04T08:22:42.606Z</time></trkpt><trkpt lat="41.623929" lon="-0.7317123"><ele>189.5</ele><time>2026-05-04T08:22:43.602Z</time></trkpt><trkpt lat="41.6238709" lon="-0.7315563"><ele>189.0</ele><time>2026-05-04T08:22:44.607Z</time></trkpt><trkpt lat="41.6238184" lon="-0.7314032"><ele>189.0</ele><time>2026-05-04T08:22:45.605Z</time></trkpt><trkpt lat="41.6237541" lon="-0.7312467"><ele>189.0</ele><time>2026-05-04T08:22:46.619Z</time></trkpt><trkpt lat="41.6236883" lon="-0.7310775"><ele>189.0</ele><time>2026-05-04T08:22:47.6Z</time></trkpt><trkpt lat="41.6236235" lon="-0.7309119"><ele>189.0</ele><time>2026-05-04T08:22:48.602Z</time></trkpt><trkpt lat="41.6235556" lon="-0.7307461"><ele>189.75</ele><time>2026-05-04T08:22:49.6Z</time></trkpt><trkpt lat="41.6234873" lon="-0.7305854"><ele>190.5</ele><time>2026-05-04T08:22:50.6Z</time></trkpt><trkpt lat="41.6234215" lon="-0.7304232"><ele>191.25</ele><time>2026-05-04T08:22:51.599Z</time></trkpt><trkpt lat="41.6233521" lon="-0.7302542"><ele>192.0</ele><time>2026-05-04T08:22:52.602Z</time></trkpt><trkpt lat="41.6232893" lon="-0.7300873"><ele>192.5</ele><time>2026-05-04T08:22:53.603Z</time></trkpt><trkpt lat="41.6232239" lon="-0.7299221"><ele>193.0</ele><time>2026-05-04T08:22:54.607Z</time></trkpt><trkpt lat="41.623158" lon="-0.729759"><ele>193.5</ele><time>2026-05-04T08:22:55.606Z</time></trkpt><trkpt lat="41.6230963" lon="-0.7295825"><ele>194.0</ele><time>2026-05-04T08:22:56.607Z</time></trkpt><trkpt lat="41.6230289" lon="-0.7294128"><ele>194.25</ele><time>2026-05-04T08:22:57.605Z</time></trkpt><trkpt lat="41.6229679" lon="-0.7292368"><ele>194.5</ele><time>2026-05-04T08:22:58.609Z</time></trkpt><trkpt lat="41.6229093" lon="-0.7290668"><ele>194.75</ele><time>2026-05-04T08:22:59.607Z</time></trkpt><trkpt lat="41.6228553" lon="-0.7288959"><ele>195.0</ele><time>2026-05-04T08:23:00.61Z</time></trkpt><trkpt lat="41.6228005" lon="-0.7287212"><ele>194.0</ele><time>2026-05-04T08:23:01.603Z</time></trkpt><trkpt lat="41.6227535" lon="-0.7285408"><ele>193.0</ele><time>2026-05-04T08:23:02.606Z</time></trkpt><trkpt lat="41.6227117" lon="-0.7283674"><ele>192.0</ele><time>2026-05-04T08:23:03.604Z</time></trkpt><trkpt lat="41.6226754" lon="-0.7281897"><ele>191.0</ele><time>2026-05-04T08:23:04.606Z</time></trkpt><trkpt lat="41.6226414" lon="-0.7280038"><ele>191.0</ele><time>2026-05-04T08:23:05.608Z</time></trkpt><trkpt lat="41.6226093" lon="-0.7278223"><ele>191.0</ele><time>2026-05-04T08:23:06.614Z</time></trkpt><trkpt lat="41.6225861" lon="-0.7276481"><ele>191.0</ele><time>2026-05-04T08:23:07.61Z</time></trkpt><trkpt lat="41.622561" lon="-0.7274738"><ele>191.0</ele><time>2026-05-04T08:23:08.611Z</time></trkpt><trkpt lat="41.6225401" lon="-0.727294"><ele>191.5</ele><time>2026-05-04T08:23:09.608Z</time></trkpt><trkpt lat="41.6225249" lon="-0.7271069"><ele>192.0</ele><time>2026-05-04T08:23:10.611Z</time></trkpt><trkpt lat="41.622506" lon="-0.7269304"><ele>192.5</ele><time>2026-05-04T08:23:11.595Z</time></trkpt><trkpt lat="41.6224843" lon="-0.7267471"><ele>193.0</ele><time>2026-05-04T08:23:12.612Z</time></trkpt><trkpt lat="41.622467" lon="-0.7265619"><ele>193.0</ele><time>2026-05-04T08:23:13.605Z</time></trkpt><trkpt lat="41.6224449" lon="-0.7263892"><ele>193.0</ele><time>2026-05-04T08:23:14.604Z</time></trkpt><trkpt lat="41.6224222" lon="-0.7262193"><ele>193.0</ele><time>2026-05-04T08:23:15.603Z</time></trkpt><trkpt lat="41.6224023" lon="-0.7260445"><ele>193.0</ele><time>2026-05-04T08:23:16.608Z</time></trkpt><trkpt lat="41.6223872" lon="-0.7258716"><ele>192.25</ele><time>2026-05-04T08:23:17.62Z</time></trkpt><trkpt lat="41.6223667" lon="-0.7257017"><ele>191.5</ele><time>2026-05-04T08:23:18.602Z</time></trkpt><trkpt lat="41.6223472" lon="-0.7255289"><ele>190.75</ele><time>2026-05-04T08:23:19.603Z</time></trkpt><trkpt lat="41.6223254" lon="-0.7253594"><ele>190.0</ele><time>2026-05-04T08:23:20.599Z</time></trkpt><trkpt lat="41.6223069" lon="-0.7251937"><ele>189.75</ele><time>2026-05-04T08:23:21.606Z</time></trkpt><trkpt lat="41.6222845" lon="-0.7250301"><ele>189.5</ele><time>2026-05-04T08:23:22.603Z</time></trkpt><trkpt lat="41.6222608" lon="-0.724868"><ele>189.25</ele><time>2026-05-04T08:23:23.608Z</time></trkpt><trkpt lat="41.6222421" lon="-0.7247037"><ele>189.0</ele><time>2026-05-04T08:23:24.605Z</time></trkpt><trkpt lat="41.6222182" lon="-0.7245419"><ele>190.0</ele><time>2026-05-04T08:23:25.606Z</time></trkpt><trkpt lat="41.6221968" lon="-0.7243739"><ele>191.0</ele><time>2026-05-04T08:23:26.61Z</time></trkpt><trkpt lat="41.6221764" lon="-0.7242005"><ele>192.0</ele><time>2026-05-04T08:23:27.608Z</time></trkpt><trkpt lat="41.6221543" lon="-0.7240292"><ele>193.0</ele><time>2026-05-04T08:23:28.61Z</time></trkpt><trkpt lat="41.6221306" lon="-0.7238587"><ele>193.0</ele><time>2026-05-04T08:23:29.61Z</time></trkpt><trkpt lat="41.6221084" lon="-0.7236835"><ele>193.0</ele><time>2026-05-04T08:23:30.61Z</time></trkpt><trkpt lat="41.6220878" lon="-0.723511"><ele>193.0</ele><time>2026-05-04T08:23:31.605Z</time></trkpt><trkpt lat="41.6220711" lon="-0.7233383"><ele>193.0</ele><time>2026-05-04T08:23:32.602Z</time></trkpt><trkpt lat="41.622053" lon="-0.7231641"><ele>193.25</ele><time>2026-05-04T08:23:33.604Z</time></trkpt><trkpt lat="41.6220361" lon="-0.7229924"><ele>193.5</ele><time>2026-05-04T08:23:34.606Z</time></trkpt><trkpt lat="41.6220161" lon="-0.7228179"><ele>193.75</ele><time>2026-05-04T08:23:35.608Z</time></trkpt><trkpt lat="41.6219944" lon="-0.7226462"><ele>194.0</ele><time>2026-05-04T08:23:36.611Z</time></trkpt><trkpt lat="41.6219734" lon="-0.7224729"><ele>192.25</ele><time>2026-05-04T08:23:37.602Z</time></trkpt><trkpt lat="41.6219507" lon="-0.7223076"><ele>190.5</ele><time>2026-05-04T08:23:38.605Z</time></trkpt><trkpt lat="41.6219322" lon="-0.7221399"><ele>188.75</ele><time>2026-05-04T08:23:39.614Z</time></trkpt><trkpt lat="41.6219141" lon="-0.7219715"><ele>187.0</ele><time>2026-05-04T08:23:40.606Z</time></trkpt><trkpt lat="41.6218891" lon="-0.721803"><ele>187.0</ele><time>2026-05-04T08:23:41.606Z</time></trkpt><trkpt lat="41.621859" lon="-0.7216354"><ele>187.0</ele><time>2026-05-04T08:23:42.607Z</time></trkpt><trkpt lat="41.6218217" lon="-0.721471"><ele>187.0</ele><time>2026-05-04T08:23:43.604Z</time></trkpt><trkpt lat="41.6217799" lon="-0.721305"><ele>187.0</ele><time>2026-05-04T08:23:44.598Z</time></trkpt><trkpt lat="41.6217314" lon="-0.7211449"><ele>187.5</ele><time>2026-05-04T08:23:45.603Z</time></trkpt><trkpt lat="41.6216752" lon="-0.7209817"><ele>188.0</ele><time>2026-05-04T08:23:46.606Z</time></trkpt><trkpt lat="41.6216122" lon="-0.7208296"><ele>188.5</ele><time>2026-05-04T08:23:47.611Z</time></trkpt><trkpt lat="41.6215448" lon="-0.7206692"><ele>189.0</ele><time>2026-05-04T08:23:48.621Z</time></trkpt><trkpt lat="41.6214735" lon="-0.7205106"><ele>189.0</ele><time>2026-05-04T08:23:49.608Z</time></trkpt><trkpt lat="41.6214046" lon="-0.7203505"><ele>189.0</ele><time>2026-05-04T08:23:50.607Z</time></trkpt><trkpt lat="41.6213269" lon="-0.7201965"><ele>189.0</ele><time>2026-05-04T08:23:51.611Z</time></trkpt><trkpt lat="41.6212507" lon="-0.7200384"><ele>189.0</ele><time>2026-05-04T08:23:52.61Z</time></trkpt><trkpt lat="41.621181" lon="-0.7198848"><ele>188.25</ele><time>2026-05-04T08:23:53.611Z</time></trkpt><trkpt lat="41.6211121" lon="-0.7197327"><ele>187.5</ele><time>2026-05-04T08:23:54.614Z</time></trkpt><trkpt lat="41.6210458" lon="-0.7195682"><ele>186.75</ele><time>2026-05-04T08:23:55.612Z</time></trkpt><trkpt lat="41.6209772" lon="-0.719408"><ele>186.0</ele><time>2026-05-04T08:23:56.616Z</time></trkpt><trkpt lat="41.6209086" lon="-0.7192429"><ele>186.0</ele><time>2026-05-04T08:23:57.615Z</time></trkpt><trkpt lat="41.6208379" lon="-0.7190825"><ele>186.0</ele><time>2026-05-04T08:23:58.614Z</time></trkpt><trkpt lat="41.6207706" lon="-0.7189129"><ele>186.0</ele><time>2026-05-04T08:23:59.613Z</time></trkpt><trkpt lat="41.6206973" lon="-0.7187422"><ele>186.0</ele><time>2026-05-04T08:24:00.615Z</time></trkpt><trkpt lat="41.6206281" lon="-0.7185662"><ele>186.25</ele><time>2026-05-04T08:24:01.606Z</time></trkpt><trkpt lat="41.620555" lon="-0.7183933"><ele>186.5</ele><time>2026-05-04T08:24:02.607Z</time></trkpt><trkpt lat="41.6204844" lon="-0.7182229"><ele>186.75</ele><time>2026-05-04T08:24:03.607Z</time></trkpt><trkpt lat="41.6204187" lon="-0.7180525"><ele>187.0</ele><time>2026-05-04T08:24:04.609Z</time></trkpt><trkpt lat="41.6203484" lon="-0.7178868"><ele>186.5</ele><time>2026-05-04T08:24:05.607Z</time></trkpt><trkpt lat="41.6202787" lon="-0.7177225"><ele>186.0</ele><time>2026-05-04T08:24:06.612Z</time></trkpt><trkpt lat="41.6202079" lon="-0.7175551"><ele>185.5</ele><time>2026-05-04T08:24:07.609Z</time></trkpt><trkpt lat="41.6201388" lon="-0.7173944"><ele>185.0</ele><time>2026-05-04T08:24:08.61Z</time></trkpt><trkpt lat="41.6200655" lon="-0.7172337"><ele>185.0</ele><time>2026-05-04T08:24:09.609Z</time></trkpt><trkpt lat="41.6199992" lon="-0.7170753"><ele>185.0</ele><time>2026-05-04T08:24:10.611Z</time></trkpt><trkpt lat="41.6199321" lon="-0.7169165"><ele>185.0</ele><time>2026-05-04T08:24:11.606Z</time></trkpt><trkpt lat="41.6198681" lon="-0.7167588"><ele>185.0</ele><time>2026-05-04T08:24:12.608Z</time></trkpt><trkpt lat="41.619801" lon="-0.7165949"><ele>185.5</ele><time>2026-05-04T08:24:13.605Z</time></trkpt><trkpt lat="41.619736" lon="-0.7164351"><ele>186.0</ele><time>2026-05-04T08:24:14.606Z</time></trkpt><trkpt lat="41.6196648" lon="-0.7162694"><ele>186.5</ele><time>2026-05-04T08:24:15.603Z</time></trkpt><trkpt lat="41.6195966" lon="-0.7161059"><ele>187.0</ele><time>2026-05-04T08:24:16.602Z</time></trkpt><trkpt lat="41.6195318" lon="-0.7159425"><ele>188.0</ele><time>2026-05-04T08:24:17.6Z</time></trkpt><trkpt lat="41.6194647" lon="-0.715782"><ele>189.0</ele><time>2026-05-04T08:24:18.61Z</time></trkpt><trkpt lat="41.6193986" lon="-0.7156252"><ele>190.0</ele><time>2026-05-04T08:24:19.617Z</time></trkpt><trkpt lat="41.6193361" lon="-0.7154689"><ele>191.0</ele><time>2026-05-04T08:24:20.606Z</time></trkpt><trkpt lat="41.6192714" lon="-0.7153071"><ele>190.5</ele><time>2026-05-04T08:24:21.611Z</time></trkpt><trkpt lat="41.619206" lon="-0.7151513"><ele>190.0</ele><time>2026-05-04T08:24:22.607Z</time></trkpt><trkpt lat="41.6191417" lon="-0.7149985"><ele>189.5</ele><time>2026-05-04T08:24:23.607Z</time></trkpt><trkpt lat="41.6190774" lon="-0.7148521"><ele>189.0</ele><time>2026-05-04T08:24:24.61Z</time></trkpt><trkpt lat="41.6190182" lon="-0.7147007"><ele>189.0</ele><time>2026-05-04T08:24:25.606Z</time></trkpt><trkpt lat="41.6189576" lon="-0.7145616"><ele>189.0</ele><time>2026-05-04T08:24:26.604Z</time></trkpt><trkpt lat="41.6188988" lon="-0.7144196"><ele>189.0</ele><time>2026-05-04T08:24:27.605Z</time></trkpt><trkpt lat="41.6188399" lon="-0.7142712"><ele>189.0</ele><time>2026-05-04T08:24:28.608Z</time></trkpt><trkpt lat="41.6187707" lon="-0.714128"><ele>189.0</ele><time>2026-05-04T08:24:29.608Z</time></trkpt><trkpt lat="41.6187005" lon="-0.7139746"><ele>189.0</ele><time>2026-05-04T08:24:30.61Z</time></trkpt><trkpt lat="41.6186385" lon="-0.7138311"><ele>189.0</ele><time>2026-05-04T08:24:31.603Z</time></trkpt><trkpt lat="41.6185728" lon="-0.7136773"><ele>189.0</ele><time>2026-05-04T08:24:32.607Z</time></trkpt><trkpt lat="41.6185101" lon="-0.7135213"><ele>188.25</ele><time>2026-05-04T08:24:33.604Z</time></trkpt><trkpt lat="41.6184477" lon="-0.7133701"><ele>187.5</ele><time>2026-05-04T08:24:34.606Z</time></trkpt><trkpt lat="41.6183826" lon="-0.7132132"><ele>186.75</ele><time>2026-05-04T08:24:35.605Z</time></trkpt><trkpt lat="41.6183201" lon="-0.7130516"><ele>186.0</ele><time>2026-05-04T08:24:36.609Z</time></trkpt><trkpt lat="41.6182551" lon="-0.7128958"><ele>186.0</ele><time>2026-05-04T08:24:37.605Z</time></trkpt><trkpt lat="41.6181914" lon="-0.7127364"><ele>186.0</ele><time>2026-05-04T08:24:38.606Z</time></trkpt><trkpt lat="41.6181281" lon="-0.7125802"><ele>186.0</ele><time>2026-05-04T08:24:39.606Z</time></trkpt><trkpt lat="41.6180631" lon="-0.7124227"><ele>186.0</ele><time>2026-05-04T08:24:40.605Z</time></trkpt><trkpt lat="41.6179986" lon="-0.7122665"><ele>186.0</ele><time>2026-05-04T08:24:41.604Z</time></trkpt><trkpt lat="41.6179364" lon="-0.7121102"><ele>186.0</ele><time>2026-05-04T08:24:42.606Z</time></trkpt><trkpt lat="41.617879" lon="-0.7119543"><ele>186.0</ele><time>2026-05-04T08:24:43.609Z</time></trkpt><trkpt lat="41.6178173" lon="-0.7118016"><ele>186.0</ele><time>2026-05-04T08:24:44.608Z</time></trkpt><trkpt lat="41.6177547" lon="-0.711651"><ele>185.75</ele><time>2026-05-04T08:24:45.608Z</time></trkpt><trkpt lat="41.6176946" lon="-0.7115026"><ele>185.5</ele><time>2026-05-04T08:24:46.613Z</time></trkpt><trkpt lat="41.6176304" lon="-0.7113531"><ele>185.25</ele><time>2026-05-04T08:24:47.609Z</time></trkpt><trkpt lat="41.6175666" lon="-0.7112054"><ele>185.0</ele><time>2026-05-04T08:24:48.609Z</time></trkpt><trkpt lat="41.6175083" lon="-0.711063"><ele>185.75</ele><time>2026-05-04T08:24:49.609Z</time></trkpt><trkpt lat="41.6174473" lon="-0.7109213"><ele>186.5</ele><time>2026-05-04T08:24:50.623Z</time></trkpt><trkpt lat="41.6173847" lon="-0.7107802"><ele>187.25</ele><time>2026-05-04T08:24:51.612Z</time></trkpt><trkpt lat="41.6173254" lon="-0.7106381"><ele>188.0</ele><time>2026-05-04T08:24:52.609Z</time></trkpt><trkpt lat="41.6172681" lon="-0.7104971"><ele>188.0</ele><time>2026-05-04T08:24:53.608Z</time></trkpt><trkpt lat="41.6172127" lon="-0.7103603"><ele>188.0</ele><time>2026-05-04T08:24:54.61Z</time></trkpt><trkpt lat="41.6171563" lon="-0.7102247"><ele>188.0</ele><time>2026-05-04T08:24:55.605Z</time></trkpt><trkpt lat="41.6171041" lon="-0.7100903"><ele>188.0</ele><time>2026-05-04T08:24:56.607Z</time></trkpt><trkpt lat="41.6170511" lon="-0.7099573"><ele>188.0</ele><time>2026-05-04T08:24:57.608Z</time></trkpt><trkpt lat="41.6170018" lon="-0.7098332"><ele>188.0</ele><time>2026-05-04T08:24:58.609Z</time></trkpt><trkpt lat="41.6169563" lon="-0.709716"><ele>188.0</ele><time>2026-05-04T08:24:59.609Z</time></trkpt><trkpt lat="41.616913" lon="-0.7095972"><ele>188.0</ele><time>2026-05-04T08:25:00.614Z</time></trkpt><trkpt lat="41.6168629" lon="-0.7094766"><ele>188.0</ele><time>2026-05-04T08:25:01.604Z</time></trkpt><trkpt lat="41.6168125" lon="-0.7093519"><ele>187.8</ele><time>2026-05-04T08:25:02.604Z</time></trkpt><trkpt lat="41.6167642" lon="-0.7092261"><ele>187.60000000000002</ele><time>2026-05-04T08:25:03.603Z</time></trkpt><trkpt lat="41.6167087" lon="-0.7090985"><ele>187.39999999999998</ele><time>2026-05-04T08:25:04.602Z</time></trkpt><trkpt lat="41.6166512" lon="-0.7089673"><ele>187.2</ele><time>2026-05-04T08:25:05.603Z</time></trkpt><trkpt lat="41.6165963" lon="-0.7088364"><ele>187.0</ele><time>2026-05-04T08:25:06.605Z</time></trkpt><trkpt lat="41.6165405" lon="-0.7087025"><ele>187.5</ele><time>2026-05-04T08:25:07.604Z</time></trkpt><trkpt lat="41.6164873" lon="-0.7085664"><ele>188.0</ele><time>2026-05-04T08:25:08.606Z</time></trkpt><trkpt lat="41.6164298" lon="-0.7084362"><ele>188.5</ele><time>2026-05-04T08:25:09.589Z</time></trkpt><trkpt lat="41.6163733" lon="-0.7083023"><ele>189.0</ele><time>2026-05-04T08:25:10.605Z</time></trkpt><trkpt lat="41.6163192" lon="-0.7081653"><ele>189.0</ele><time>2026-05-04T08:25:11.606Z</time></trkpt><trkpt lat="41.6162638" lon="-0.7080295"><ele>189.0</ele><time>2026-05-04T08:25:12.605Z</time></trkpt><trkpt lat="41.6162073" lon="-0.707891"><ele>189.0</ele><time>2026-05-04T08:25:13.604Z</time></trkpt><trkpt lat="41.6161475" lon="-0.7077542"><ele>189.0</ele><time>2026-05-04T08:25:14.605Z</time></trkpt><trkpt lat="41.6160926" lon="-0.7076101"><ele>189.0</ele><time>2026-05-04T08:25:15.602Z</time></trkpt><trkpt lat="41.6160353" lon="-0.7074719"><ele>189.0</ele><time>2026-05-04T08:25:16.602Z</time></trkpt><trkpt lat="41.615978" lon="-0.7073281"><ele>189.0</ele><time>2026-05-04T08:25:17.6Z</time></trkpt><trkpt lat="41.6159206" lon="-0.707188"><ele>189.0</ele><time>2026-05-04T08:25:18.603Z</time></trkpt><trkpt lat="41.615864" lon="-0.7070483"><ele>189.0</ele><time>2026-05-04T08:25:19.603Z</time></trkpt><trkpt lat="41.6158079" lon="-0.7069124"><ele>189.0</ele><time>2026-05-04T08:25:20.603Z</time></trkpt><trkpt lat="41.6157488" lon="-0.7067762"><ele>189.0</ele><time>2026-05-04T08:25:21.614Z</time></trkpt><trkpt lat="41.6156861" lon="-0.7066372"><ele>189.0</ele><time>2026-05-04T08:25:22.603Z</time></trkpt><trkpt lat="41.6156239" lon="-0.7065027"><ele>189.5</ele><time>2026-05-04T08:25:23.6Z</time></trkpt><trkpt lat="41.6155673" lon="-0.7063594"><ele>190.0</ele><time>2026-05-04T08:25:24.603Z</time></trkpt><trkpt lat="41.6155077" lon="-0.706218"><ele>190.5</ele><time>2026-05-04T08:25:25.602Z</time></trkpt><trkpt lat="41.6154473" lon="-0.7060753"><ele>191.0</ele><time>2026-05-04T08:25:26.603Z</time></trkpt><trkpt lat="41.6153883" lon="-0.705934"><ele>191.0</ele><time>2026-05-04T08:25:27.601Z</time></trkpt><trkpt lat="41.6153274" lon="-0.7057954"><ele>191.0</ele><time>2026-05-04T08:25:28.603Z</time></trkpt><trkpt lat="41.6152688" lon="-0.7056581"><ele>191.0</ele><time>2026-05-04T08:25:29.602Z</time></trkpt><trkpt lat="41.6152102" lon="-0.7055198"><ele>191.0</ele><time>2026-05-04T08:25:30.606Z</time></trkpt><trkpt lat="41.6151554" lon="-0.7053797"><ele>191.25</ele><time>2026-05-04T08:25:31.599Z</time></trkpt><trkpt lat="41.6151007" lon="-0.7052426"><ele>191.5</ele><time>2026-05-04T08:25:32.599Z</time></trkpt><trkpt lat="41.6150505" lon="-0.7051032"><ele>191.75</ele><time>2026-05-04T08:25:33.601Z</time></trkpt><trkpt lat="41.6149989" lon="-0.7049675"><ele>192.0</ele><time>2026-05-04T08:25:34.603Z</time></trkpt><trkpt lat="41.6149446" lon="-0.7048331"><ele>192.0</ele><time>2026-05-04T08:25:35.597Z</time></trkpt><trkpt lat="41.6148948" lon="-0.7047012"><ele>192.0</ele><time>2026-05-04T08:25:36.605Z</time></trkpt><trkpt lat="41.6148384" lon="-0.7045755"><ele>192.0</ele><time>2026-05-04T08:25:37.593Z</time></trkpt><trkpt lat="41.6147851" lon="-0.7044424"><ele>192.0</ele><time>2026-05-04T08:25:38.598Z</time></trkpt><trkpt lat="41.614729" lon="-0.7043121"><ele>192.0</ele><time>2026-05-04T08:25:39.6Z</time></trkpt><trkpt lat="41.6146783" lon="-0.704178"><ele>192.25</ele><time>2026-05-04T08:25:40.598Z</time></trkpt><trkpt lat="41.6146262" lon="-0.7040446"><ele>192.5</ele><time>2026-05-04T08:25:41.598Z</time></trkpt><trkpt lat="41.6145695" lon="-0.7039142"><ele>192.75</ele><time>2026-05-04T08:25:42.6Z</time></trkpt><trkpt lat="41.6145104" lon="-0.7037902"><ele>193.0</ele><time>2026-05-04T08:25:43.596Z</time></trkpt><trkpt lat="41.6144427" lon="-0.7036649"><ele>192.5</ele><time>2026-05-04T08:25:44.593Z</time></trkpt><trkpt lat="41.6143683" lon="-0.7035406"><ele>192.0</ele><time>2026-05-04T08:25:45.589Z</time></trkpt><trkpt lat="41.6142875" lon="-0.7034194"><ele>191.5</ele><time>2026-05-04T08:25:46.594Z</time></trkpt><trkpt lat="41.6142017" lon="-0.7032986"><ele>191.0</ele><time>2026-05-04T08:25:47.593Z</time></trkpt><trkpt lat="41.6141162" lon="-0.7031765"><ele>191.0</ele><time>2026-05-04T08:25:48.594Z</time></trkpt><trkpt lat="41.6140386" lon="-0.7030494"><ele>191.0</ele><time>2026-05-04T08:25:49.594Z</time></trkpt><trkpt lat="41.6139669" lon="-0.7029209"><ele>191.0</ele><time>2026-05-04T08:25:50.591Z</time></trkpt><trkpt lat="41.6138953" lon="-0.7027946"><ele>191.0</ele><time>2026-05-04T08:25:51.597Z</time></trkpt><trkpt lat="41.6138197" lon="-0.7026613"><ele>190.75</ele><time>2026-05-04T08:25:52.609Z</time></trkpt><trkpt lat="41.6137426" lon="-0.702527"><ele>190.5</ele><time>2026-05-04T08:25:53.592Z</time></trkpt><trkpt lat="41.6136614" lon="-0.7023962"><ele>190.25</ele><time>2026-05-04T08:25:54.594Z</time></trkpt><trkpt lat="41.6135811" lon="-0.7022678"><ele>190.0</ele><time>2026-05-04T08:25:55.595Z</time></trkpt><trkpt lat="41.6134963" lon="-0.7021413"><ele>190.0</ele><time>2026-05-04T08:25:56.595Z</time></trkpt><trkpt lat="41.6134129" lon="-0.702015"><ele>190.0</ele><time>2026-05-04T08:25:57.597Z</time></trkpt><trkpt lat="41.6133326" lon="-0.7018814"><ele>190.0</ele><time>2026-05-04T08:25:58.597Z</time></trkpt><trkpt lat="41.613252" lon="-0.701751"><ele>190.0</ele><time>2026-05-04T08:25:59.595Z</time></trkpt><trkpt lat="41.6131686" lon="-0.7016214"><ele>190.25</ele><time>2026-05-04T08:26:00.598Z</time></trkpt><trkpt lat="41.6130829" lon="-0.7014893"><ele>190.5</ele><time>2026-05-04T08:26:01.594Z</time></trkpt><trkpt lat="41.6129944" lon="-0.7013519"><ele>190.75</ele><time>2026-05-04T08:26:02.599Z</time></trkpt><trkpt lat="41.6129042" lon="-0.7012148"><ele>191.0</ele><time>2026-05-04T08:26:03.6Z</time></trkpt><trkpt lat="41.6128136" lon="-0.7010762"><ele>191.0</ele><time>2026-05-04T08:26:04.598Z</time></trkpt><trkpt lat="41.6127228" lon="-0.7009422"><ele>191.0</ele><time>2026-05-04T08:26:05.595Z</time></trkpt><trkpt lat="41.6126376" lon="-0.7008034"><ele>191.0</ele><time>2026-05-04T08:26:06.6Z</time></trkpt><trkpt lat="41.6125527" lon="-0.7006697"><ele>191.0</ele><time>2026-05-04T08:26:07.597Z</time></trkpt><trkpt lat="41.612465" lon="-0.7005362"><ele>191.0</ele><time>2026-05-04T08:26:08.601Z</time></trkpt><trkpt lat="41.6123753" lon="-0.7004019"><ele>191.0</ele><time>2026-05-04T08:26:09.596Z</time></trkpt><trkpt lat="41.612284" lon="-0.7002726"><ele>191.0</ele><time>2026-05-04T08:26:10.598Z</time></trkpt><trkpt lat="41.6121947" lon="-0.7001429"><ele>191.0</ele><time>2026-05-04T08:26:11.6Z</time></trkpt><trkpt lat="41.6121014" lon="-0.7000131"><ele>191.25</ele><time>2026-05-04T08:26:12.599Z</time></trkpt><trkpt lat="41.6120104" lon="-0.6998862"><ele>191.5</ele><time>2026-05-04T08:26:13.599Z</time></trkpt><trkpt lat="41.6119133" lon="-0.6997651"><ele>191.75</ele><time>2026-05-04T08:26:14.595Z</time></trkpt><trkpt lat="41.6118192" lon="-0.6996417"><ele>192.0</ele><time>2026-05-04T08:26:15.597Z</time></trkpt><trkpt lat="41.6117225" lon="-0.6995244"><ele>192.0</ele><time>2026-05-04T08:26:16.595Z</time></trkpt><trkpt lat="41.6116216" lon="-0.6994111"><ele>192.0</ele><time>2026-05-04T08:26:17.595Z</time></trkpt><trkpt lat="41.611513" lon="-0.6993029"><ele>192.0</ele><time>2026-05-04T08:26:18.596Z</time></trkpt><trkpt lat="41.6113948" lon="-0.6992054"><ele>192.0</ele><time>2026-05-04T08:26:19.595Z</time></trkpt><trkpt lat="41.6112719" lon="-0.6991248"><ele>191.0</ele><time>2026-05-04T08:26:20.593Z</time></trkpt><trkpt lat="41.6111413" lon="-0.6990641"><ele>190.0</ele><time>2026-05-04T08:26:21.603Z</time></trkpt><trkpt lat="41.6109914" lon="-0.6990282"><ele>189.0</ele><time>2026-05-04T08:26:22.604Z</time></trkpt><trkpt lat="41.6108335" lon="-0.6989871"><ele>189.0</ele><time>2026-05-04T08:26:23.635Z</time></trkpt><trkpt lat="41.6106882" lon="-0.6989504"><ele>189.0</ele><time>2026-05-04T08:26:24.609Z</time></trkpt><trkpt lat="41.6105449" lon="-0.6989292"><ele>189.0</ele><time>2026-05-04T08:26:25.608Z</time></trkpt><trkpt lat="41.6104032" lon="-0.6988985"><ele>189.0</ele><time>2026-05-04T08:26:26.611Z</time></trkpt><trkpt lat="41.6102679" lon="-0.6988662"><ele>188.75</ele><time>2026-05-04T08:26:27.613Z</time></trkpt><trkpt lat="41.6101327" lon="-0.6988259"><ele>188.5</ele><time>2026-05-04T08:26:28.609Z</time></trkpt><trkpt lat="41.6100005" lon="-0.6987765"><ele>188.25</ele><time>2026-05-04T08:26:29.606Z</time></trkpt><trkpt lat="41.609869" lon="-0.6987109"><ele>188.0</ele><time>2026-05-04T08:26:30.607Z</time></trkpt><trkpt lat="41.6097347" lon="-0.6986452"><ele>188.0</ele><time>2026-05-04T08:26:31.602Z</time></trkpt><trkpt lat="41.6096135" lon="-0.6985704"><ele>188.0</ele><time>2026-05-04T08:26:32.604Z</time></trkpt><trkpt lat="41.6094866" lon="-0.6984829"><ele>188.0</ele><time>2026-05-04T08:26:33.607Z</time></trkpt><trkpt lat="41.6093624" lon="-0.6983975"><ele>188.0</ele><time>2026-05-04T08:26:34.603Z</time></trkpt><trkpt lat="41.6092363" lon="-0.6982832"><ele>188.0</ele><time>2026-05-04T08:26:35.6Z</time></trkpt><trkpt lat="41.6091195" lon="-0.6981809"><ele>188.0</ele><time>2026-05-04T08:26:36.605Z</time></trkpt><trkpt lat="41.6090036" lon="-0.6980649"><ele>188.0</ele><time>2026-05-04T08:26:37.603Z</time></trkpt><trkpt lat="41.608896" lon="-0.69794"><ele>188.0</ele><time>2026-05-04T08:26:38.602Z</time></trkpt><trkpt lat="41.608793" lon="-0.6977966"><ele>187.33333333333331</ele><time>2026-05-04T08:26:39.603Z</time></trkpt><trkpt lat="41.6086955" lon="-0.6976451"><ele>186.66666666666666</ele><time>2026-05-04T08:26:40.606Z</time></trkpt><trkpt lat="41.6085929" lon="-0.6974847"><ele>186.0</ele><time>2026-05-04T08:26:41.604Z</time></trkpt><trkpt lat="41.6084955" lon="-0.6973266"><ele>186.0</ele><time>2026-05-04T08:26:42.605Z</time></trkpt><trkpt lat="41.6084109" lon="-0.6971667"><ele>186.0</ele><time>2026-05-04T08:26:43.603Z</time></trkpt><trkpt lat="41.6083375" lon="-0.697003"><ele>186.0</ele><time>2026-05-04T08:26:44.602Z</time></trkpt><trkpt lat="41.6082605" lon="-0.6968321"><ele>186.0</ele><time>2026-05-04T08:26:45.605Z</time></trkpt><trkpt lat="41.6081907" lon="-0.6966613"><ele>186.5</ele><time>2026-05-04T08:26:46.606Z</time></trkpt><trkpt lat="41.6081278" lon="-0.696498"><ele>187.0</ele><time>2026-05-04T08:26:47.601Z</time></trkpt><trkpt lat="41.6080677" lon="-0.6963327"><ele>187.5</ele><time>2026-05-04T08:26:48.604Z</time></trkpt><trkpt lat="41.6080137" lon="-0.6961594"><ele>188.0</ele><time>2026-05-04T08:26:49.606Z</time></trkpt><trkpt lat="41.6079721" lon="-0.6959913"><ele>187.0</ele><time>2026-05-04T08:26:50.605Z</time></trkpt><trkpt lat="41.6079353" lon="-0.6958062"><ele>186.0</ele><time>2026-05-04T08:26:51.606Z</time></trkpt><trkpt lat="41.6079082" lon="-0.6956378"><ele>185.0</ele><time>2026-05-04T08:26:52.602Z</time></trkpt><trkpt lat="41.6078784" lon="-0.6954558"><ele>184.0</ele><time>2026-05-04T08:26:53.618Z</time></trkpt><trkpt lat="41.6078452" lon="-0.6952891"><ele>184.0</ele><time>2026-05-04T08:26:54.606Z</time></trkpt><trkpt lat="41.6078225" lon="-0.6951147"><ele>184.0</ele><time>2026-05-04T08:26:55.606Z</time></trkpt><trkpt lat="41.6077964" lon="-0.6949424"><ele>184.0</ele><time>2026-05-04T08:26:56.609Z</time></trkpt><trkpt lat="41.6077811" lon="-0.6947656"><ele>184.0</ele><time>2026-05-04T08:26:57.607Z</time></trkpt><trkpt lat="41.6077658" lon="-0.694594"><ele>184.0</ele><time>2026-05-04T08:26:58.61Z</time></trkpt><trkpt lat="41.607748" lon="-0.6944285"><ele>184.0</ele><time>2026-05-04T08:26:59.61Z</time></trkpt><trkpt lat="41.6077292" lon="-0.6942633"><ele>184.0</ele><time>2026-05-04T08:27:00.609Z</time></trkpt><trkpt lat="41.607707" lon="-0.6941003"><ele>184.0</ele><time>2026-05-04T08:27:01.6Z</time></trkpt><trkpt lat="41.6076812" lon="-0.6939334"><ele>184.5</ele><time>2026-05-04T08:27:02.601Z</time></trkpt><trkpt lat="41.6076522" lon="-0.6937692"><ele>185.0</ele><time>2026-05-04T08:27:03.603Z</time></trkpt><trkpt lat="41.6076156" lon="-0.6936026"><ele>185.5</ele><time>2026-05-04T08:27:04.604Z</time></trkpt><trkpt lat="41.6075783" lon="-0.6934385"><ele>186.0</ele><time>2026-05-04T08:27:05.601Z</time></trkpt><trkpt lat="41.6075312" lon="-0.6932818"><ele>186.0</ele><time>2026-05-04T08:27:06.599Z</time></trkpt><trkpt lat="41.6074778" lon="-0.6931362"><ele>186.0</ele><time>2026-05-04T08:27:07.598Z</time></trkpt><trkpt lat="41.6074201" lon="-0.6930009"><ele>186.0</ele><time>2026-05-04T08:27:08.603Z</time></trkpt><trkpt lat="41.6073624" lon="-0.6928673"><ele>186.0</ele><time>2026-05-04T08:27:09.603Z</time></trkpt><trkpt lat="41.6073046" lon="-0.6927369"><ele>186.0</ele><time>2026-05-04T08:27:10.606Z</time></trkpt><trkpt lat="41.6072428" lon="-0.6926141"><ele>186.0</ele><time>2026-05-04T08:27:11.603Z</time></trkpt><trkpt lat="41.6071752" lon="-0.6924865"><ele>186.0</ele><time>2026-05-04T08:27:12.601Z</time></trkpt><trkpt lat="41.6071002" lon="-0.69236"><ele>186.0</ele><time>2026-05-04T08:27:13.6Z</time></trkpt><trkpt lat="41.6070216" lon="-0.6922293"><ele>185.75</ele><time>2026-05-04T08:27:14.599Z</time></trkpt><trkpt lat="41.6069403" lon="-0.6920999"><ele>185.5</ele><time>2026-05-04T08:27:15.598Z</time></trkpt><trkpt lat="41.6068564" lon="-0.6919691"><ele>185.25</ele><time>2026-05-04T08:27:16.601Z</time></trkpt><trkpt lat="41.6067714" lon="-0.6918411"><ele>185.0</ele><time>2026-05-04T08:27:17.599Z</time></trkpt><trkpt lat="41.6066854" lon="-0.6917146"><ele>185.5</ele><time>2026-05-04T08:27:18.6Z</time></trkpt><trkpt lat="41.6065991" lon="-0.6915877"><ele>186.0</ele><time>2026-05-04T08:27:19.601Z</time></trkpt><trkpt lat="41.6065126" lon="-0.6914653"><ele>186.5</ele><time>2026-05-04T08:27:20.598Z</time></trkpt><trkpt lat="41.6064292" lon="-0.6913482"><ele>187.0</ele><time>2026-05-04T08:27:21.599Z</time></trkpt><trkpt lat="41.606348" lon="-0.6912344"><ele>187.0</ele><time>2026-05-04T08:27:22.602Z</time></trkpt><trkpt lat="41.6062759" lon="-0.6911207"><ele>187.0</ele><time>2026-05-04T08:27:23.598Z</time></trkpt><trkpt lat="41.606201" lon="-0.6910119"><ele>187.0</ele><time>2026-05-04T08:27:24.616Z</time></trkpt><trkpt lat="41.6061309" lon="-0.6909044"><ele>187.0</ele><time>2026-05-04T08:27:25.602Z</time></trkpt><trkpt lat="41.606059" lon="-0.6907956"><ele>187.0</ele><time>2026-05-04T08:27:26.612Z</time></trkpt><trkpt lat="41.60599" lon="-0.690688"><ele>186.8</ele><time>2026-05-04T08:27:27.609Z</time></trkpt><trkpt lat="41.6059188" lon="-0.6905736"><ele>186.6</ele><time>2026-05-04T08:27:28.608Z</time></trkpt><trkpt lat="41.6058468" lon="-0.6904561"><ele>186.4</ele><time>2026-05-04T08:27:29.608Z</time></trkpt><trkpt lat="41.6057715" lon="-0.6903446"><ele>186.20000000000002</ele><time>2026-05-04T08:27:30.613Z</time></trkpt><trkpt lat="41.6056986" lon="-0.6902332"><ele>186.0</ele><time>2026-05-04T08:27:31.606Z</time></trkpt><trkpt lat="41.6056301" lon="-0.6901222"><ele>186.0</ele><time>2026-05-04T08:27:32.606Z</time></trkpt><trkpt lat="41.6055568" lon="-0.6900138"><ele>186.0</ele><time>2026-05-04T08:27:33.602Z</time></trkpt><trkpt lat="41.6054835" lon="-0.6899048"><ele>186.0</ele><time>2026-05-04T08:27:34.61Z</time></trkpt><trkpt lat="41.6054156" lon="-0.689787"><ele>186.0</ele><time>2026-05-04T08:27:35.602Z</time></trkpt><trkpt lat="41.6053455" lon="-0.6896765"><ele>186.0</ele><time>2026-05-04T08:27:36.612Z</time></trkpt><trkpt lat="41.6052739" lon="-0.6895686"><ele>185.60000000000002</ele><time>2026-05-04T08:27:37.603Z</time></trkpt><trkpt lat="41.6052011" lon="-0.6894628"><ele>185.2</ele><time>2026-05-04T08:27:38.606Z</time></trkpt><trkpt lat="41.6051332" lon="-0.68936"><ele>184.8</ele><time>2026-05-04T08:27:39.602Z</time></trkpt><trkpt lat="41.6050671" lon="-0.6892586"><ele>184.39999999999998</ele><time>2026-05-04T08:27:40.601Z</time></trkpt><trkpt lat="41.605004" lon="-0.6891594"><ele>184.0</ele><time>2026-05-04T08:27:41.6Z</time></trkpt><trkpt lat="41.6049391" lon="-0.6890674"><ele>184.0</ele><time>2026-05-04T08:27:42.602Z</time></trkpt><trkpt lat="41.6048709" lon="-0.6889817"><ele>184.0</ele><time>2026-05-04T08:27:43.597Z</time></trkpt><trkpt lat="41.6048005" lon="-0.688903"><ele>184.0</ele><time>2026-05-04T08:27:44.601Z</time></trkpt><trkpt lat="41.6047205" lon="-0.6888328"><ele>184.0</ele><time>2026-05-04T08:27:45.598Z</time></trkpt><trkpt lat="41.6046396" lon="-0.6887819"><ele>184.0</ele><time>2026-05-04T08:27:46.602Z</time></trkpt><trkpt lat="41.6045541" lon="-0.6887381"><ele>183.83333333333334</ele><time>2026-05-04T08:27:47.599Z</time></trkpt><trkpt lat="41.6044754" lon="-0.6886807"><ele>183.66666666666669</ele><time>2026-05-04T08:27:48.59Z</time></trkpt><trkpt lat="41.6044125" lon="-0.6886113"><ele>183.5</ele><time>2026-05-04T08:27:49.596Z</time></trkpt><trkpt lat="41.6043582" lon="-0.6885224"><ele>183.33333333333334</ele><time>2026-05-04T08:27:50.597Z</time></trkpt><trkpt lat="41.6043211" lon="-0.6884218"><ele>183.16666666666666</ele><time>2026-05-04T08:27:51.595Z</time></trkpt><trkpt lat="41.6042916" lon="-0.6883087"><ele>183.0</ele><time>2026-05-04T08:27:52.602Z</time></trkpt><trkpt lat="41.6042627" lon="-0.6881736"><ele>182.8</ele><time>2026-05-04T08:27:53.598Z</time></trkpt><trkpt lat="41.6042209" lon="-0.6880391"><ele>182.60000000000002</ele><time>2026-05-04T08:27:54.6Z</time></trkpt><trkpt lat="41.6041649" lon="-0.6879126"><ele>182.39999999999998</ele><time>2026-05-04T08:27:55.612Z</time></trkpt><trkpt lat="41.6040979" lon="-0.6877889"><ele>182.2</ele><time>2026-05-04T08:27:56.605Z</time></trkpt><trkpt lat="41.6040263" lon="-0.6876744"><ele>182.0</ele><time>2026-05-04T08:27:57.604Z</time></trkpt><trkpt lat="41.6039526" lon="-0.6875523"><ele>182.0</ele><time>2026-05-04T08:27:58.606Z</time></trkpt><trkpt lat="41.6038739" lon="-0.6874383"><ele>182.0</ele><time>2026-05-04T08:27:59.605Z</time></trkpt><trkpt lat="41.6037916" lon="-0.6873195"><ele>182.0</ele><time>2026-05-04T08:28:00.609Z</time></trkpt><trkpt lat="41.6037112" lon="-0.6871928"><ele>182.0</ele><time>2026-05-04T08:28:01.608Z</time></trkpt><trkpt lat="41.6036312" lon="-0.6870653"><ele>181.75</ele><time>2026-05-04T08:28:02.605Z</time></trkpt><trkpt lat="41.6035504" lon="-0.6869366"><ele>181.5</ele><time>2026-05-04T08:28:03.605Z</time></trkpt><trkpt lat="41.6034649" lon="-0.6868055"><ele>181.25</ele><time>2026-05-04T08:28:04.612Z</time></trkpt><trkpt lat="41.603381" lon="-0.6866763"><ele>181.0</ele><time>2026-05-04T08:28:05.604Z</time></trkpt><trkpt lat="41.6032937" lon="-0.6865413"><ele>181.0</ele><time>2026-05-04T08:28:06.607Z</time></trkpt><trkpt lat="41.6032034" lon="-0.6864047"><ele>181.0</ele><time>2026-05-04T08:28:07.606Z</time></trkpt><trkpt lat="41.6031152" lon="-0.686266"><ele>181.0</ele><time>2026-05-04T08:28:08.606Z</time></trkpt><trkpt lat="41.6030256" lon="-0.68613"><ele>181.0</ele><time>2026-05-04T08:28:09.604Z</time></trkpt><trkpt lat="41.6029385" lon="-0.6859891"><ele>181.25</ele><time>2026-05-04T08:28:10.608Z</time></trkpt><trkpt lat="41.60285" lon="-0.6858482"><ele>181.5</ele><time>2026-05-04T08:28:11.603Z</time></trkpt><trkpt lat="41.6027586" lon="-0.6857027"><ele>181.75</ele><time>2026-05-04T08:28:12.606Z</time></trkpt><trkpt lat="41.6026718" lon="-0.6855539"><ele>182.0</ele><time>2026-05-04T08:28:13.596Z</time></trkpt><trkpt lat="41.6025743" lon="-0.6854331"><ele>182.0</ele><time>2026-05-04T08:28:14.61Z</time></trkpt><trkpt lat="41.6024791" lon="-0.6853012"><ele>182.0</ele><time>2026-05-04T08:28:15.604Z</time></trkpt><trkpt lat="41.6023919" lon="-0.6851451"><ele>182.0</ele><time>2026-05-04T08:28:16.607Z</time></trkpt><trkpt lat="41.6023011" lon="-0.6850123"><ele>182.0</ele><time>2026-05-04T08:28:17.605Z</time></trkpt><trkpt lat="41.6022079" lon="-0.6848737"><ele>182.0</ele><time>2026-05-04T08:28:18.606Z</time></trkpt><trkpt lat="41.6021196" lon="-0.6847278"><ele>182.0</ele><time>2026-05-04T08:28:19.61Z</time></trkpt><trkpt lat="41.6020281" lon="-0.6845864"><ele>182.0</ele><time>2026-05-04T08:28:20.605Z</time></trkpt><trkpt lat="41.6019364" lon="-0.684444"><ele>182.0</ele><time>2026-05-04T08:28:21.609Z</time></trkpt><trkpt lat="41.6018444" lon="-0.6842975"><ele>182.0</ele><time>2026-05-04T08:28:22.6Z</time></trkpt><trkpt lat="41.6017505" lon="-0.6841575"><ele>182.0</ele><time>2026-05-04T08:28:23.598Z</time></trkpt><trkpt lat="41.6016678" lon="-0.6840114"><ele>182.0</ele><time>2026-05-04T08:28:24.592Z</time></trkpt><trkpt lat="41.601568" lon="-0.6838669"><ele>182.0</ele><time>2026-05-04T08:28:25.604Z</time></trkpt><trkpt lat="41.6014738" lon="-0.6837216"><ele>181.75</ele><time>2026-05-04T08:28:26.621Z</time></trkpt><trkpt lat="41.6013865" lon="-0.6835801"><ele>181.5</ele><time>2026-05-04T08:28:27.609Z</time></trkpt><trkpt lat="41.6013" lon="-0.6834464"><ele>181.25</ele><time>2026-05-04T08:28:28.607Z</time></trkpt><trkpt lat="41.6012125" lon="-0.683321"><ele>181.0</ele><time>2026-05-04T08:28:29.605Z</time></trkpt><trkpt lat="41.6011301" lon="-0.6831917"><ele>181.25</ele><time>2026-05-04T08:28:30.609Z</time></trkpt><trkpt lat="41.6010458" lon="-0.6830584"><ele>181.5</ele><time>2026-05-04T08:28:31.606Z</time></trkpt><trkpt lat="41.6009598" lon="-0.6829243"><ele>181.75</ele><time>2026-05-04T08:28:32.605Z</time></trkpt><trkpt lat="41.6008745" lon="-0.6827927"><ele>182.0</ele><time>2026-05-04T08:28:33.605Z</time></trkpt><trkpt lat="41.6007884" lon="-0.6826587"><ele>182.0</ele><time>2026-05-04T08:28:34.605Z</time></trkpt><trkpt lat="41.6006999" lon="-0.6825252"><ele>182.0</ele><time>2026-05-04T08:28:35.607Z</time></trkpt><trkpt lat="41.6006122" lon="-0.682391"><ele>182.0</ele><time>2026-05-04T08:28:36.609Z</time></trkpt><trkpt lat="41.6005239" lon="-0.6822547"><ele>182.0</ele><time>2026-05-04T08:28:37.604Z</time></trkpt><trkpt lat="41.6004344" lon="-0.6821196"><ele>182.0</ele><time>2026-05-04T08:28:38.6Z</time></trkpt><trkpt lat="41.6003507" lon="-0.6819822"><ele>182.0</ele><time>2026-05-04T08:28:39.601Z</time></trkpt><trkpt lat="41.6002681" lon="-0.6818478"><ele>182.0</ele><time>2026-05-04T08:28:40.602Z</time></trkpt><trkpt lat="41.6001843" lon="-0.681713"><ele>182.0</ele><time>2026-05-04T08:28:41.603Z</time></trkpt><trkpt lat="41.6000964" lon="-0.681583"><ele>182.25</ele><time>2026-05-04T08:28:42.604Z</time></trkpt><trkpt lat="41.6000079" lon="-0.6814535"><ele>182.5</ele><time>2026-05-04T08:28:43.605Z</time></trkpt><trkpt lat="41.5999203" lon="-0.6813226"><ele>182.75</ele><time>2026-05-04T08:28:44.606Z</time></trkpt><trkpt lat="41.5998354" lon="-0.6811938"><ele>183.0</ele><time>2026-05-04T08:28:45.606Z</time></trkpt><trkpt lat="41.5997465" lon="-0.6810662"><ele>184.0</ele><time>2026-05-04T08:28:46.606Z</time></trkpt><trkpt lat="41.5996608" lon="-0.6809345"><ele>185.0</ele><time>2026-05-04T08:28:47.604Z</time></trkpt><trkpt lat="41.5995763" lon="-0.6808051"><ele>186.0</ele><time>2026-05-04T08:28:48.605Z</time></trkpt><trkpt lat="41.5994915" lon="-0.6806795"><ele>187.0</ele><time>2026-05-04T08:28:49.605Z</time></trkpt><trkpt lat="41.5994119" lon="-0.6805572"><ele>187.0</ele><time>2026-05-04T08:28:50.606Z</time></trkpt><trkpt lat="41.5993356" lon="-0.6804268"><ele>187.0</ele><time>2026-05-04T08:28:51.607Z</time></trkpt><trkpt lat="41.5992537" lon="-0.6803048"><ele>187.0</ele><time>2026-05-04T08:28:52.609Z</time></trkpt><trkpt lat="41.5991715" lon="-0.6801774"><ele>187.0</ele><time>2026-05-04T08:28:53.606Z</time></trkpt><trkpt lat="41.5990895" lon="-0.6800508"><ele>187.25</ele><time>2026-05-04T08:28:54.592Z</time></trkpt><trkpt lat="41.5990033" lon="-0.6799205"><ele>187.5</ele><time>2026-05-04T08:28:55.602Z</time></trkpt><trkpt lat="41.5989176" lon="-0.6797878"><ele>187.75</ele><time>2026-05-04T08:28:56.605Z</time></trkpt><trkpt lat="41.5988311" lon="-0.6796577"><ele>188.0</ele><time>2026-05-04T08:28:57.625Z</time></trkpt><trkpt lat="41.5987441" lon="-0.6795283"><ele>188.0</ele><time>2026-05-04T08:28:58.606Z</time></trkpt><trkpt lat="41.5986585" lon="-0.6793995"><ele>188.0</ele><time>2026-05-04T08:28:59.606Z</time></trkpt><trkpt lat="41.5985719" lon="-0.67927"><ele>188.0</ele><time>2026-05-04T08:29:00.611Z</time></trkpt><trkpt lat="41.5984855" lon="-0.6791393"><ele>188.0</ele><time>2026-05-04T08:29:01.602Z</time></trkpt><trkpt lat="41.5984014" lon="-0.6790118"><ele>188.0</ele><time>2026-05-04T08:29:02.607Z</time></trkpt><trkpt lat="41.5983229" lon="-0.678885"><ele>188.0</ele><time>2026-05-04T08:29:03.607Z</time></trkpt><trkpt lat="41.5982449" lon="-0.678763"><ele>188.0</ele><time>2026-05-04T08:29:04.605Z</time></trkpt><trkpt lat="41.5981679" lon="-0.6786511"><ele>188.0</ele><time>2026-05-04T08:29:05.606Z</time></trkpt><trkpt lat="41.5980923" lon="-0.6785554"><ele>188.0</ele><time>2026-05-04T08:29:06.601Z</time></trkpt><trkpt lat="41.5980245" lon="-0.6784884"><ele>188.0</ele><time>2026-05-04T08:29:07.601Z</time></trkpt><trkpt lat="41.5979665" lon="-0.6784409"><ele>188.0</ele><time>2026-05-04T08:29:08.599Z</time></trkpt><trkpt lat="41.5978596" lon="-0.6783945"><ele>188.0</ele><time>2026-05-04T08:29:10.607Z</time></trkpt><trkpt lat="41.59775" lon="-0.6783884"><ele>188.0</ele><time>2026-05-04T08:29:12.607Z</time></trkpt><trkpt lat="41.5976609" lon="-0.6783217"><ele>188.0</ele><time>2026-05-04T08:29:14.601Z</time></trkpt><trkpt lat="41.5976248" lon="-0.6781777"><ele>188.0</ele><time>2026-05-04T08:29:16.601Z</time></trkpt><trkpt lat="41.5976255" lon="-0.6780844"><ele>188.0</ele><time>2026-05-04T08:29:17.605Z</time></trkpt><trkpt lat="41.5976207" lon="-0.6779848"><ele>188.0</ele><time>2026-05-04T08:29:18.61Z</time></trkpt><trkpt lat="41.5976075" lon="-0.6778771"><ele>188.0</ele><time>2026-05-04T08:29:19.606Z</time></trkpt><trkpt lat="41.5975842" lon="-0.6777718"><ele>188.0</ele><time>2026-05-04T08:29:20.598Z</time></trkpt><trkpt lat="41.597536" lon="-0.6776746"><ele>188.60000000000002</ele><time>2026-05-04T08:29:21.599Z</time></trkpt><trkpt lat="41.5974771" lon="-0.6775791"><ele>189.20000000000002</ele><time>2026-05-04T08:29:22.604Z</time></trkpt><trkpt lat="41.5974062" lon="-0.6774724"><ele>189.8</ele><time>2026-05-04T08:29:23.608Z</time></trkpt><trkpt lat="41.5973317" lon="-0.6773615"><ele>190.4</ele><time>2026-05-04T08:29:24.607Z</time></trkpt><trkpt lat="41.5972535" lon="-0.677246"><ele>191.0</ele><time>2026-05-04T08:29:25.607Z</time></trkpt><trkpt lat="41.597171" lon="-0.6771219"><ele>191.0</ele><time>2026-05-04T08:29:26.61Z</time></trkpt><trkpt lat="41.5970845" lon="-0.6769969"><ele>191.0</ele><time>2026-05-04T08:29:27.611Z</time></trkpt><trkpt lat="41.5969989" lon="-0.6768716"><ele>191.0</ele><time>2026-05-04T08:29:28.626Z</time></trkpt><trkpt lat="41.5969112" lon="-0.6767462"><ele>191.0</ele><time>2026-05-04T08:29:29.615Z</time></trkpt><trkpt lat="41.5968232" lon="-0.6766193"><ele>191.0</ele><time>2026-05-04T08:29:30.613Z</time></trkpt><trkpt lat="41.5967367" lon="-0.6764878"><ele>191.0</ele><time>2026-05-04T08:29:31.613Z</time></trkpt><trkpt lat="41.5966485" lon="-0.6763559"><ele>191.0</ele><time>2026-05-04T08:29:32.61Z</time></trkpt><trkpt lat="41.5965572" lon="-0.6762237"><ele>191.0</ele><time>2026-05-04T08:29:33.612Z</time></trkpt><trkpt lat="41.5964654" lon="-0.6760898"><ele>191.0</ele><time>2026-05-04T08:29:34.611Z</time></trkpt><trkpt lat="41.596374" lon="-0.6759545"><ele>191.0</ele><time>2026-05-04T08:29:35.606Z</time></trkpt><trkpt lat="41.5962804" lon="-0.6758199"><ele>191.0</ele><time>2026-05-04T08:29:36.613Z</time></trkpt><trkpt lat="41.5961838" lon="-0.6756834"><ele>191.0</ele><time>2026-05-04T08:29:37.602Z</time></trkpt><trkpt lat="41.596087" lon="-0.6755455"><ele>191.0</ele><time>2026-05-04T08:29:38.607Z</time></trkpt><trkpt lat="41.5959905" lon="-0.6754074"><ele>191.0</ele><time>2026-05-04T08:29:39.61Z</time></trkpt><trkpt lat="41.5959028" lon="-0.6752731"><ele>191.0</ele><time>2026-05-04T08:29:40.609Z</time></trkpt><trkpt lat="41.5958142" lon="-0.6751368"><ele>191.0</ele><time>2026-05-04T08:29:41.606Z</time></trkpt><trkpt lat="41.5957223" lon="-0.6750042"><ele>191.0</ele><time>2026-05-04T08:29:42.607Z</time></trkpt><trkpt lat="41.595638" lon="-0.6748754"><ele>191.0</ele><time>2026-05-04T08:29:43.609Z</time></trkpt><trkpt lat="41.5955448" lon="-0.6747421"><ele>191.0</ele><time>2026-05-04T08:29:44.606Z</time></trkpt><trkpt lat="41.5954597" lon="-0.6746086"><ele>191.0</ele><time>2026-05-04T08:29:45.606Z</time></trkpt><trkpt lat="41.5953716" lon="-0.6744752"><ele>190.75</ele><time>2026-05-04T08:29:46.606Z</time></trkpt><trkpt lat="41.595283" lon="-0.6743427"><ele>190.5</ele><time>2026-05-04T08:29:47.604Z</time></trkpt><trkpt lat="41.5951926" lon="-0.6742097"><ele>190.25</ele><time>2026-05-04T08:29:48.605Z</time></trkpt><trkpt lat="41.5951042" lon="-0.6740733"><ele>190.0</ele><time>2026-05-04T08:29:49.605Z</time></trkpt><trkpt lat="41.5950166" lon="-0.6739388"><ele>190.0</ele><time>2026-05-04T08:29:50.604Z</time></trkpt><trkpt lat="41.5949271" lon="-0.6738026"><ele>190.0</ele><time>2026-05-04T08:29:51.603Z</time></trkpt><trkpt lat="41.5948361" lon="-0.6736695"><ele>190.0</ele><time>2026-05-04T08:29:52.604Z</time></trkpt><trkpt lat="41.5947467" lon="-0.6735386"><ele>190.0</ele><time>2026-05-04T08:29:53.605Z</time></trkpt><trkpt lat="41.5946624" lon="-0.6734109"><ele>189.75</ele><time>2026-05-04T08:29:54.607Z</time></trkpt><trkpt lat="41.5945783" lon="-0.6732808"><ele>189.5</ele><time>2026-05-04T08:29:55.609Z</time></trkpt><trkpt lat="41.594494" lon="-0.6731512"><ele>189.25</ele><time>2026-05-04T08:29:56.61Z</time></trkpt><trkpt lat="41.5944059" lon="-0.6730205"><ele>189.0</ele><time>2026-05-04T08:29:57.609Z</time></trkpt><trkpt lat="41.5943199" lon="-0.6728956"><ele>189.0</ele><time>2026-05-04T08:29:58.608Z</time></trkpt><trkpt lat="41.5942401" lon="-0.6727742"><ele>189.0</ele><time>2026-05-04T08:29:59.626Z</time></trkpt><trkpt lat="41.5941571" lon="-0.6726532"><ele>189.0</ele><time>2026-05-04T08:30:00.609Z</time></trkpt><trkpt lat="41.594077" lon="-0.6725389"><ele>189.0</ele><time>2026-05-04T08:30:01.609Z</time></trkpt><trkpt lat="41.5939976" lon="-0.6724176"><ele>190.25</ele><time>2026-05-04T08:30:02.605Z</time></trkpt><trkpt lat="41.5939216" lon="-0.672299"><ele>191.5</ele><time>2026-05-04T08:30:03.607Z</time></trkpt><trkpt lat="41.5938427" lon="-0.6721765"><ele>192.75</ele><time>2026-05-04T08:30:04.601Z</time></trkpt><trkpt lat="41.5937608" lon="-0.672051"><ele>194.0</ele><time>2026-05-04T08:30:05.609Z</time></trkpt><trkpt lat="41.5936731" lon="-0.6719196"><ele>193.75</ele><time>2026-05-04T08:30:06.61Z</time></trkpt><trkpt lat="41.5935821" lon="-0.6717884"><ele>193.5</ele><time>2026-05-04T08:30:07.609Z</time></trkpt><trkpt lat="41.5934863" lon="-0.6716593"><ele>193.25</ele><time>2026-05-04T08:30:08.611Z</time></trkpt><trkpt lat="41.5933913" lon="-0.6715238"><ele>193.0</ele><time>2026-05-04T08:30:09.606Z</time></trkpt><trkpt lat="41.5932968" lon="-0.6713886"><ele>193.0</ele><time>2026-05-04T08:30:10.611Z</time></trkpt><trkpt lat="41.5932002" lon="-0.6712416"><ele>193.0</ele><time>2026-05-04T08:30:11.604Z</time></trkpt><trkpt lat="41.5931021" lon="-0.6710954"><ele>193.0</ele><time>2026-05-04T08:30:12.605Z</time></trkpt><trkpt lat="41.5930021" lon="-0.6709465"><ele>193.0</ele><time>2026-05-04T08:30:13.608Z</time></trkpt><trkpt lat="41.5928994" lon="-0.6707882"><ele>192.33333333333331</ele><time>2026-05-04T08:30:14.611Z</time></trkpt><trkpt lat="41.5927975" lon="-0.6706297"><ele>191.66666666666666</ele><time>2026-05-04T08:30:15.609Z</time></trkpt><trkpt lat="41.5926936" lon="-0.6704813"><ele>191.0</ele><time>2026-05-04T08:30:16.601Z</time></trkpt><trkpt lat="41.5925838" lon="-0.6703225"><ele>191.0</ele><time>2026-05-04T08:30:17.61Z</time></trkpt><trkpt lat="41.5924775" lon="-0.6701643"><ele>191.0</ele><time>2026-05-04T08:30:18.602Z</time></trkpt><trkpt lat="41.592366" lon="-0.6699998"><ele>191.0</ele><time>2026-05-04T08:30:19.601Z</time></trkpt><trkpt lat="41.592258" lon="-0.6698339"><ele>191.0</ele><time>2026-05-04T08:30:20.609Z</time></trkpt><trkpt lat="41.5921509" lon="-0.6696664"><ele>191.0</ele><time>2026-05-04T08:30:21.605Z</time></trkpt><trkpt lat="41.5920449" lon="-0.6695107"><ele>191.0</ele><time>2026-05-04T08:30:22.608Z</time></trkpt><trkpt lat="41.5919351" lon="-0.6693588"><ele>190.33333333333331</ele><time>2026-05-04T08:30:23.604Z</time></trkpt><trkpt lat="41.5918291" lon="-0.6692022"><ele>189.66666666666666</ele><time>2026-05-04T08:30:24.607Z</time></trkpt><trkpt lat="41.5917153" lon="-0.6690496"><ele>189.0</ele><time>2026-05-04T08:30:25.607Z</time></trkpt><trkpt lat="41.5915999" lon="-0.6688944"><ele>189.0</ele><time>2026-05-04T08:30:26.603Z</time></trkpt><trkpt lat="41.5914874" lon="-0.6687292"><ele>189.0</ele><time>2026-05-04T08:30:27.605Z</time></trkpt><trkpt lat="41.5913732" lon="-0.6685561"><ele>189.0</ele><time>2026-05-04T08:30:28.606Z</time></trkpt><trkpt lat="41.5912624" lon="-0.6683945"><ele>188.0</ele><time>2026-05-04T08:30:29.603Z</time></trkpt><trkpt lat="41.5911491" lon="-0.6682273"><ele>187.0</ele><time>2026-05-04T08:30:30.625Z</time></trkpt><trkpt lat="41.5910302" lon="-0.6680589"><ele>186.0</ele><time>2026-05-04T08:30:31.601Z</time></trkpt><trkpt lat="41.590917" lon="-0.667892"><ele>185.66666666666666</ele><time>2026-05-04T08:30:32.606Z</time></trkpt><trkpt lat="41.5908045" lon="-0.6677249"><ele>185.33333333333331</ele><time>2026-05-04T08:30:33.604Z</time></trkpt><trkpt lat="41.590692" lon="-0.6675554"><ele>185.0</ele><time>2026-05-04T08:30:34.601Z</time></trkpt><trkpt lat="41.5905818" lon="-0.6673933"><ele>185.0</ele><time>2026-05-04T08:30:35.596Z</time></trkpt><trkpt lat="41.5904694" lon="-0.6672243"><ele>185.0</ele><time>2026-05-04T08:30:36.605Z</time></trkpt><trkpt lat="41.5903594" lon="-0.6670602"><ele>185.0</ele><time>2026-05-04T08:30:37.602Z</time></trkpt><trkpt lat="41.5902501" lon="-0.6669045"><ele>185.0</ele><time>2026-05-04T08:30:38.606Z</time></trkpt><trkpt lat="41.5901376" lon="-0.6667294"><ele>185.0</ele><time>2026-05-04T08:30:39.598Z</time></trkpt><trkpt lat="41.5900311" lon="-0.6665608"><ele>185.0</ele><time>2026-05-04T08:30:40.6Z</time></trkpt><trkpt lat="41.5899236" lon="-0.6664052"><ele>185.0</ele><time>2026-05-04T08:30:41.606Z</time></trkpt><trkpt lat="41.5898147" lon="-0.6662487"><ele>185.0</ele><time>2026-05-04T08:30:42.602Z</time></trkpt><trkpt lat="41.5897008" lon="-0.6660918"><ele>185.0</ele><time>2026-05-04T08:30:43.605Z</time></trkpt><trkpt lat="41.5895926" lon="-0.6659371"><ele>184.0</ele><time>2026-05-04T08:30:44.603Z</time></trkpt><trkpt lat="41.5894834" lon="-0.665787"><ele>183.0</ele><time>2026-05-04T08:30:45.601Z</time></trkpt><trkpt lat="41.5893769" lon="-0.6656276"><ele>182.0</ele><time>2026-05-04T08:30:46.608Z</time></trkpt><trkpt lat="41.5892692" lon="-0.6654718"><ele>182.0</ele><time>2026-05-04T08:30:47.601Z</time></trkpt><trkpt lat="41.5891668" lon="-0.6653118"><ele>182.0</ele><time>2026-05-04T08:30:48.604Z</time></trkpt><trkpt lat="41.5890625" lon="-0.6651476"><ele>182.0</ele><time>2026-05-04T08:30:49.602Z</time></trkpt><trkpt lat="41.588952" lon="-0.6649916"><ele>182.33333333333331</ele><time>2026-05-04T08:30:50.603Z</time></trkpt><trkpt lat="41.5888424" lon="-0.6648326"><ele>182.66666666666666</ele><time>2026-05-04T08:30:51.608Z</time></trkpt><trkpt lat="41.5887404" lon="-0.6646714"><ele>183.0</ele><time>2026-05-04T08:30:52.602Z</time></trkpt><trkpt lat="41.58863" lon="-0.6645127"><ele>184.0</ele><time>2026-05-04T08:30:53.602Z</time></trkpt><trkpt lat="41.58852" lon="-0.6643609"><ele>185.0</ele><time>2026-05-04T08:30:54.603Z</time></trkpt><trkpt lat="41.5884136" lon="-0.6642124"><ele>186.0</ele><time>2026-05-04T08:30:55.604Z</time></trkpt><trkpt lat="41.5883077" lon="-0.6640601"><ele>186.0</ele><time>2026-05-04T08:30:56.603Z</time></trkpt><trkpt lat="41.5882075" lon="-0.6639055"><ele>186.0</ele><time>2026-05-04T08:30:57.605Z</time></trkpt><trkpt lat="41.5881049" lon="-0.6637481"><ele>186.0</ele><time>2026-05-04T08:30:58.605Z</time></trkpt><trkpt lat="41.5880025" lon="-0.6635942"><ele>186.0</ele><time>2026-05-04T08:30:59.602Z</time></trkpt><trkpt lat="41.5878964" lon="-0.663436"><ele>186.0</ele><time>2026-05-04T08:31:00.605Z</time></trkpt><trkpt lat="41.5877965" lon="-0.6632769"><ele>186.0</ele><time>2026-05-04T08:31:01.63Z</time></trkpt><trkpt lat="41.5876997" lon="-0.6631248"><ele>186.0</ele><time>2026-05-04T08:31:02.598Z</time></trkpt><trkpt lat="41.5875945" lon="-0.6629591"><ele>186.0</ele><time>2026-05-04T08:31:03.602Z</time></trkpt><trkpt lat="41.5874903" lon="-0.6628041"><ele>186.0</ele><time>2026-05-04T08:31:04.603Z</time></trkpt><trkpt lat="41.5873846" lon="-0.6626467"><ele>186.33333333333334</ele><time>2026-05-04T08:31:05.601Z</time></trkpt><trkpt lat="41.5872757" lon="-0.6624831"><ele>186.66666666666669</ele><time>2026-05-04T08:31:06.608Z</time></trkpt><trkpt lat="41.5871687" lon="-0.6623225"><ele>187.0</ele><time>2026-05-04T08:31:07.6Z</time></trkpt><trkpt lat="41.5870571" lon="-0.6621634"><ele>186.33333333333334</ele><time>2026-05-04T08:31:08.601Z</time></trkpt><trkpt lat="41.5869486" lon="-0.6620092"><ele>185.66666666666666</ele><time>2026-05-04T08:31:09.6Z</time></trkpt><trkpt lat="41.5868312" lon="-0.6618541"><ele>185.0</ele><time>2026-05-04T08:31:10.604Z</time></trkpt><trkpt lat="41.5867301" lon="-0.6616894"><ele>185.0</ele><time>2026-05-04T08:31:11.605Z</time></trkpt><trkpt lat="41.5866245" lon="-0.6615295"><ele>185.0</ele><time>2026-05-04T08:31:12.609Z</time></trkpt><trkpt lat="41.5865173" lon="-0.6613644"><ele>185.0</ele><time>2026-05-04T08:31:13.606Z</time></trkpt><trkpt lat="41.5864058" lon="-0.6612047"><ele>185.33333333333331</ele><time>2026-05-04T08:31:14.604Z</time></trkpt><trkpt lat="41.586301" lon="-0.6610467"><ele>185.66666666666666</ele><time>2026-05-04T08:31:15.607Z</time></trkpt><trkpt lat="41.586198" lon="-0.660888"><ele>186.0</ele><time>2026-05-04T08:31:16.604Z</time></trkpt><trkpt lat="41.586089" lon="-0.6607174"><ele>184.33333333333334</ele><time>2026-05-04T08:31:17.604Z</time></trkpt><trkpt lat="41.5859779" lon="-0.6605534"><ele>182.66666666666669</ele><time>2026-05-04T08:31:18.605Z</time></trkpt><trkpt lat="41.5858731" lon="-0.6603916"><ele>181.0</ele><time>2026-05-04T08:31:19.608Z</time></trkpt><trkpt lat="41.5857663" lon="-0.6602299"><ele>180.75</ele><time>2026-05-04T08:31:20.604Z</time></trkpt><trkpt lat="41.5856617" lon="-0.6600819"><ele>180.5</ele><time>2026-05-04T08:31:21.606Z</time></trkpt><trkpt lat="41.5855638" lon="-0.6599356"><ele>180.25</ele><time>2026-05-04T08:31:22.61Z</time></trkpt><trkpt lat="41.5854691" lon="-0.6597886"><ele>180.0</ele><time>2026-05-04T08:31:23.605Z</time></trkpt><trkpt lat="41.5853732" lon="-0.6596446"><ele>180.0</ele><time>2026-05-04T08:31:24.602Z</time></trkpt><trkpt lat="41.5852795" lon="-0.6595054"><ele>180.0</ele><time>2026-05-04T08:31:25.608Z</time></trkpt><trkpt lat="41.5851849" lon="-0.6593607"><ele>180.0</ele><time>2026-05-04T08:31:26.61Z</time></trkpt><trkpt lat="41.5850866" lon="-0.6592163"><ele>180.0</ele><time>2026-05-04T08:31:27.604Z</time></trkpt><trkpt lat="41.5849869" lon="-0.6590753"><ele>180.0</ele><time>2026-05-04T08:31:28.607Z</time></trkpt><trkpt lat="41.584882" lon="-0.6589254"><ele>180.0</ele><time>2026-05-04T08:31:29.606Z</time></trkpt><trkpt lat="41.5847831" lon="-0.6587739"><ele>180.0</ele><time>2026-05-04T08:31:30.615Z</time></trkpt><trkpt lat="41.5846915" lon="-0.6586421"><ele>180.0</ele><time>2026-05-04T08:31:31.619Z</time></trkpt><trkpt lat="41.5845975" lon="-0.6585002"><ele>179.75</ele><time>2026-05-04T08:31:32.603Z</time></trkpt><trkpt lat="41.5844994" lon="-0.658355"><ele>179.5</ele><time>2026-05-04T08:31:33.606Z</time></trkpt><trkpt lat="41.584403" lon="-0.6582088"><ele>179.25</ele><time>2026-05-04T08:31:34.604Z</time></trkpt><trkpt lat="41.5843049" lon="-0.6580664"><ele>179.0</ele><time>2026-05-04T08:31:35.604Z</time></trkpt><trkpt lat="41.5842124" lon="-0.6579245"><ele>179.0</ele><time>2026-05-04T08:31:36.611Z</time></trkpt><trkpt lat="41.5841211" lon="-0.6577874"><ele>179.0</ele><time>2026-05-04T08:31:37.606Z</time></trkpt><trkpt lat="41.5840295" lon="-0.6576443"><ele>179.0</ele><time>2026-05-04T08:31:38.609Z</time></trkpt><trkpt lat="41.5839382" lon="-0.6574941"><ele>179.0</ele><time>2026-05-04T08:31:39.603Z</time></trkpt><trkpt lat="41.5838486" lon="-0.6573444"><ele>178.75</ele><time>2026-05-04T08:31:40.607Z</time></trkpt><trkpt lat="41.5837593" lon="-0.6571997"><ele>178.5</ele><time>2026-05-04T08:31:41.6Z</time></trkpt><trkpt lat="41.583662" lon="-0.6570587"><ele>178.25</ele><time>2026-05-04T08:31:42.604Z</time></trkpt><trkpt lat="41.5835618" lon="-0.6569148"><ele>178.0</ele><time>2026-05-04T08:31:43.613Z</time></trkpt><trkpt lat="41.5834656" lon="-0.656771"><ele>179.33333333333334</ele><time>2026-05-04T08:31:44.604Z</time></trkpt><trkpt lat="41.583369" lon="-0.6566251"><ele>180.66666666666666</ele><time>2026-05-04T08:31:45.604Z</time></trkpt><trkpt lat="41.5832652" lon="-0.6564715"><ele>182.0</ele><time>2026-05-04T08:31:46.609Z</time></trkpt><trkpt lat="41.5831667" lon="-0.6563203"><ele>182.0</ele><time>2026-05-04T08:31:47.601Z</time></trkpt><trkpt lat="41.5830684" lon="-0.6561718"><ele>182.0</ele><time>2026-05-04T08:31:48.598Z</time></trkpt><trkpt lat="41.5829591" lon="-0.656021"><ele>182.0</ele><time>2026-05-04T08:31:49.596Z</time></trkpt><trkpt lat="41.5828615" lon="-0.6558716"><ele>181.0</ele><time>2026-05-04T08:31:50.604Z</time></trkpt><trkpt lat="41.5827677" lon="-0.6557343"><ele>180.0</ele><time>2026-05-04T08:31:51.597Z</time></trkpt><trkpt lat="41.5826803" lon="-0.6556004"><ele>179.0</ele><time>2026-05-04T08:31:52.601Z</time></trkpt><trkpt lat="41.5825797" lon="-0.6554496"><ele>178.0</ele><time>2026-05-04T08:31:53.598Z</time></trkpt><trkpt lat="41.5824902" lon="-0.6553144"><ele>179.25</ele><time>2026-05-04T08:31:54.587Z</time></trkpt><trkpt lat="41.5823932" lon="-0.6551694"><ele>180.5</ele><time>2026-05-04T08:31:55.603Z</time></trkpt><trkpt lat="41.5822987" lon="-0.6550205"><ele>181.75</ele><time>2026-05-04T08:31:56.605Z</time></trkpt><trkpt lat="41.5822004" lon="-0.6548723"><ele>183.0</ele><time>2026-05-04T08:31:57.607Z</time></trkpt><trkpt lat="41.5821058" lon="-0.6547341"><ele>183.0</ele><time>2026-05-04T08:31:58.603Z</time></trkpt><trkpt lat="41.5820165" lon="-0.6545943"><ele>183.0</ele><time>2026-05-04T08:31:59.608Z</time></trkpt><trkpt lat="41.5819274" lon="-0.6544541"><ele>183.0</ele><time>2026-05-04T08:32:00.608Z</time></trkpt><trkpt lat="41.5818425" lon="-0.6543138"><ele>183.0</ele><time>2026-05-04T08:32:01.61Z</time></trkpt><trkpt lat="41.5817458" lon="-0.654176"><ele>181.75</ele><time>2026-05-04T08:32:02.619Z</time></trkpt><trkpt lat="41.5816552" lon="-0.6540385"><ele>180.5</ele><time>2026-05-04T08:32:03.605Z</time></trkpt><trkpt lat="41.5815641" lon="-0.6539082"><ele>179.25</ele><time>2026-05-04T08:32:04.608Z</time></trkpt><trkpt lat="41.5814732" lon="-0.6537703"><ele>178.0</ele><time>2026-05-04T08:32:05.606Z</time></trkpt><trkpt lat="41.5813744" lon="-0.6536343"><ele>178.5</ele><time>2026-05-04T08:32:06.611Z</time></trkpt><trkpt lat="41.5812802" lon="-0.6535023"><ele>179.0</ele><time>2026-05-04T08:32:07.605Z</time></trkpt><trkpt lat="41.5811945" lon="-0.6533652"><ele>179.5</ele><time>2026-05-04T08:32:08.608Z</time></trkpt><trkpt lat="41.5811019" lon="-0.6532274"><ele>180.0</ele><time>2026-05-04T08:32:09.607Z</time></trkpt><trkpt lat="41.5810195" lon="-0.6530824"><ele>180.0</ele><time>2026-05-04T08:32:10.59Z</time></trkpt><trkpt lat="41.5809263" lon="-0.65295"><ele>180.0</ele><time>2026-05-04T08:32:11.604Z</time></trkpt><trkpt lat="41.5808315" lon="-0.6528169"><ele>180.0</ele><time>2026-05-04T08:32:12.605Z</time></trkpt><trkpt lat="41.5807305" lon="-0.6526826"><ele>180.0</ele><time>2026-05-04T08:32:13.611Z</time></trkpt><trkpt lat="41.5806449" lon="-0.6525387"><ele>180.0</ele><time>2026-05-04T08:32:14.606Z</time></trkpt><trkpt lat="41.5805533" lon="-0.6523972"><ele>180.0</ele><time>2026-05-04T08:32:15.605Z</time></trkpt><trkpt lat="41.5804565" lon="-0.6522535"><ele>180.0</ele><time>2026-05-04T08:32:16.607Z</time></trkpt><trkpt lat="41.5803588" lon="-0.6521079"><ele>180.0</ele><time>2026-05-04T08:32:17.609Z</time></trkpt><trkpt lat="41.5802577" lon="-0.6519528"><ele>180.0</ele><time>2026-05-04T08:32:18.606Z</time></trkpt><trkpt lat="41.5801642" lon="-0.6518163"><ele>180.0</ele><time>2026-05-04T08:32:19.605Z</time></trkpt><trkpt lat="41.580076" lon="-0.6516798"><ele>180.0</ele><time>2026-05-04T08:32:20.608Z</time></trkpt><trkpt lat="41.5799805" lon="-0.6515495"><ele>180.0</ele><time>2026-05-04T08:32:21.608Z</time></trkpt><trkpt lat="41.5798814" lon="-0.6514104"><ele>180.0</ele><time>2026-05-04T08:32:22.607Z</time></trkpt><trkpt lat="41.5797907" lon="-0.6512712"><ele>180.0</ele><time>2026-05-04T08:32:23.606Z</time></trkpt><trkpt lat="41.5797004" lon="-0.6511293"><ele>180.0</ele><time>2026-05-04T08:32:24.613Z</time></trkpt><trkpt lat="41.5796127" lon="-0.6509946"><ele>180.0</ele><time>2026-05-04T08:32:25.608Z</time></trkpt><trkpt lat="41.5795274" lon="-0.6508663"><ele>180.75</ele><time>2026-05-04T08:32:26.61Z</time></trkpt><trkpt lat="41.5794414" lon="-0.650735"><ele>181.5</ele><time>2026-05-04T08:32:27.607Z</time></trkpt><trkpt lat="41.5793564" lon="-0.6506035"><ele>182.25</ele><time>2026-05-04T08:32:28.611Z</time></trkpt><trkpt lat="41.5792782" lon="-0.6504796"><ele>183.0</ele><time>2026-05-04T08:32:29.606Z</time></trkpt><trkpt lat="41.5791928" lon="-0.6503538"><ele>183.25</ele><time>2026-05-04T08:32:30.608Z</time></trkpt><trkpt lat="41.5791117" lon="-0.6502335"><ele>183.5</ele><time>2026-05-04T08:32:31.605Z</time></trkpt><trkpt lat="41.5790242" lon="-0.6501076"><ele>183.75</ele><time>2026-05-04T08:32:32.606Z</time></trkpt><trkpt lat="41.5789396" lon="-0.6499741"><ele>184.0</ele><time>2026-05-04T08:32:33.624Z</time></trkpt><trkpt lat="41.5788597" lon="-0.6498472"><ele>184.0</ele><time>2026-05-04T08:32:34.605Z</time></trkpt><trkpt lat="41.5787793" lon="-0.6497172"><ele>184.0</ele><time>2026-05-04T08:32:35.613Z</time></trkpt><trkpt lat="41.5787011" lon="-0.6495928"><ele>184.0</ele><time>2026-05-04T08:32:36.616Z</time></trkpt><trkpt lat="41.5786253" lon="-0.6494741"><ele>184.0</ele><time>2026-05-04T08:32:37.61Z</time></trkpt><trkpt lat="41.5785494" lon="-0.6493587"><ele>184.25</ele><time>2026-05-04T08:32:38.613Z</time></trkpt><trkpt lat="41.578473" lon="-0.6492458"><ele>184.5</ele><time>2026-05-04T08:32:39.61Z</time></trkpt><trkpt lat="41.5783936" lon="-0.6491321"><ele>184.75</ele><time>2026-05-04T08:32:40.619Z</time></trkpt><trkpt lat="41.5783153" lon="-0.6490159"><ele>185.0</ele><time>2026-05-04T08:32:41.611Z</time></trkpt><trkpt lat="41.5782372" lon="-0.6488979"><ele>185.0</ele><time>2026-05-04T08:32:42.617Z</time></trkpt><trkpt lat="41.5781544" lon="-0.6487797"><ele>185.0</ele><time>2026-05-04T08:32:43.613Z</time></trkpt><trkpt lat="41.5780738" lon="-0.648663"><ele>185.0</ele><time>2026-05-04T08:32:44.613Z</time></trkpt><trkpt lat="41.5779955" lon="-0.6485434"><ele>185.0</ele><time>2026-05-04T08:32:45.612Z</time></trkpt><trkpt lat="41.5779207" lon="-0.6484199"><ele>185.0</ele><time>2026-05-04T08:32:46.613Z</time></trkpt><trkpt lat="41.5778392" lon="-0.6482964"><ele>185.0</ele><time>2026-05-04T08:32:47.614Z</time></trkpt><trkpt lat="41.5777578" lon="-0.6481738"><ele>185.0</ele><time>2026-05-04T08:32:48.61Z</time></trkpt><trkpt lat="41.5776753" lon="-0.6480479"><ele>185.0</ele><time>2026-05-04T08:32:49.609Z</time></trkpt><trkpt lat="41.5775939" lon="-0.6479221"><ele>185.0</ele><time>2026-05-04T08:32:50.612Z</time></trkpt><trkpt lat="41.5775149" lon="-0.6477986"><ele>185.0</ele><time>2026-05-04T08:32:51.61Z</time></trkpt><trkpt lat="41.5774376" lon="-0.6476778"><ele>185.0</ele><time>2026-05-04T08:32:52.61Z</time></trkpt><trkpt lat="41.5773567" lon="-0.6475614"><ele>185.0</ele><time>2026-05-04T08:32:53.61Z</time></trkpt><trkpt lat="41.5772772" lon="-0.6474425"><ele>185.5</ele><time>2026-05-04T08:32:54.607Z</time></trkpt><trkpt lat="41.5771973" lon="-0.6473209"><ele>186.0</ele><time>2026-05-04T08:32:55.608Z</time></trkpt><trkpt lat="41.5771136" lon="-0.6472018"><ele>186.5</ele><time>2026-05-04T08:32:56.619Z</time></trkpt><trkpt lat="41.5770309" lon="-0.6470877"><ele>187.0</ele><time>2026-05-04T08:32:57.61Z</time></trkpt><trkpt lat="41.5769466" lon="-0.6469707"><ele>186.5</ele><time>2026-05-04T08:32:58.615Z</time></trkpt><trkpt lat="41.5768623" lon="-0.6468557"><ele>186.0</ele><time>2026-05-04T08:32:59.61Z</time></trkpt><trkpt lat="41.5767823" lon="-0.6467363"><ele>185.5</ele><time>2026-05-04T08:33:00.612Z</time></trkpt><trkpt lat="41.576701" lon="-0.6466176"><ele>185.0</ele><time>2026-05-04T08:33:01.61Z</time></trkpt><trkpt lat="41.5766196" lon="-0.6464955"><ele>185.0</ele><time>2026-05-04T08:33:02.605Z</time></trkpt><trkpt lat="41.576533" lon="-0.6463703"><ele>185.0</ele><time>2026-05-04T08:33:03.608Z</time></trkpt><trkpt lat="41.5764485" lon="-0.6462424"><ele>185.0</ele><time>2026-05-04T08:33:04.624Z</time></trkpt><trkpt lat="41.5763624" lon="-0.6461127"><ele>185.0</ele><time>2026-05-04T08:33:05.604Z</time></trkpt><trkpt lat="41.5762773" lon="-0.6459828"><ele>185.25</ele><time>2026-05-04T08:33:06.61Z</time></trkpt><trkpt lat="41.5761935" lon="-0.6458527"><ele>185.5</ele><time>2026-05-04T08:33:07.608Z</time></trkpt><trkpt lat="41.5761029" lon="-0.6457202"><ele>185.75</ele><time>2026-05-04T08:33:08.605Z</time></trkpt><trkpt lat="41.5760122" lon="-0.6455891"><ele>186.0</ele><time>2026-05-04T08:33:09.598Z</time></trkpt><trkpt lat="41.5759251" lon="-0.6454604"><ele>186.0</ele><time>2026-05-04T08:33:10.606Z</time></trkpt><trkpt lat="41.5758328" lon="-0.6453247"><ele>186.0</ele><time>2026-05-04T08:33:11.606Z</time></trkpt><trkpt lat="41.5757421" lon="-0.645187"><ele>186.0</ele><time>2026-05-04T08:33:12.609Z</time></trkpt><trkpt lat="41.5756498" lon="-0.645049"><ele>186.0</ele><time>2026-05-04T08:33:13.61Z</time></trkpt><trkpt lat="41.5755578" lon="-0.6449098"><ele>186.0</ele><time>2026-05-04T08:33:14.612Z</time></trkpt><trkpt lat="41.5754627" lon="-0.6447625"><ele>186.0</ele><time>2026-05-04T08:33:15.612Z</time></trkpt><trkpt lat="41.5753681" lon="-0.6446242"><ele>186.0</ele><time>2026-05-04T08:33:16.611Z</time></trkpt><trkpt lat="41.5752698" lon="-0.644478"><ele>186.0</ele><time>2026-05-04T08:33:17.609Z</time></trkpt><trkpt lat="41.5751733" lon="-0.644327"><ele>185.0</ele><time>2026-05-04T08:33:18.609Z</time></trkpt><trkpt lat="41.5750796" lon="-0.644182"><ele>184.0</ele><time>2026-05-04T08:33:19.616Z</time></trkpt><trkpt lat="41.5749846" lon="-0.6440385"><ele>183.0</ele><time>2026-05-04T08:33:20.608Z</time></trkpt><trkpt lat="41.5748942" lon="-0.6438981"><ele>182.0</ele><time>2026-05-04T08:33:21.611Z</time></trkpt><trkpt lat="41.5748047" lon="-0.6437518"><ele>182.0</ele><time>2026-05-04T08:33:22.61Z</time></trkpt><trkpt lat="41.5746999" lon="-0.6436145"><ele>182.0</ele><time>2026-05-04T08:33:23.604Z</time></trkpt><trkpt lat="41.574615" lon="-0.6434653"><ele>182.0</ele><time>2026-05-04T08:33:24.604Z</time></trkpt><trkpt lat="41.5745209" lon="-0.6433224"><ele>182.0</ele><time>2026-05-04T08:33:25.606Z</time></trkpt><trkpt lat="41.5744294" lon="-0.6431942"><ele>182.0</ele><time>2026-05-04T08:33:26.609Z</time></trkpt><trkpt lat="41.574335" lon="-0.6430488"><ele>182.0</ele><time>2026-05-04T08:33:27.606Z</time></trkpt><trkpt lat="41.5742475" lon="-0.6429132"><ele>182.0</ele><time>2026-05-04T08:33:28.606Z</time></trkpt><trkpt lat="41.5741599" lon="-0.6427831"><ele>182.0</ele><time>2026-05-04T08:33:29.611Z</time></trkpt><trkpt lat="41.5740718" lon="-0.6426494"><ele>181.25</ele><time>2026-05-04T08:33:30.609Z</time></trkpt><trkpt lat="41.573978" lon="-0.6425084"><ele>180.5</ele><time>2026-05-04T08:33:31.605Z</time></trkpt><trkpt lat="41.5738874" lon="-0.6423625"><ele>179.75</ele><time>2026-05-04T08:33:32.61Z</time></trkpt><trkpt lat="41.5738031" lon="-0.6422245"><ele>179.0</ele><time>2026-05-04T08:33:33.603Z</time></trkpt><trkpt lat="41.5737087" lon="-0.6420854"><ele>178.5</ele><time>2026-05-04T08:33:34.604Z</time></trkpt><trkpt lat="41.5736151" lon="-0.6419478"><ele>178.0</ele><time>2026-05-04T08:33:35.622Z</time></trkpt><trkpt lat="41.5735307" lon="-0.6418081"><ele>177.5</ele><time>2026-05-04T08:33:36.611Z</time></trkpt><trkpt lat="41.5734382" lon="-0.6416673"><ele>177.0</ele><time>2026-05-04T08:33:37.604Z</time></trkpt><trkpt lat="41.5733401" lon="-0.6415214"><ele>177.0</ele><time>2026-05-04T08:33:38.601Z</time></trkpt><trkpt lat="41.5732431" lon="-0.6413677"><ele>177.0</ele><time>2026-05-04T08:33:39.601Z</time></trkpt><trkpt lat="41.5731462" lon="-0.6412204"><ele>177.0</ele><time>2026-05-04T08:33:40.608Z</time></trkpt><trkpt lat="41.5730466" lon="-0.6410746"><ele>177.0</ele><time>2026-05-04T08:33:41.607Z</time></trkpt><trkpt lat="41.5729487" lon="-0.6409297"><ele>175.5</ele><time>2026-05-04T08:33:42.604Z</time></trkpt><trkpt lat="41.572846" lon="-0.6407859"><ele>174.0</ele><time>2026-05-04T08:33:43.607Z</time></trkpt><trkpt lat="41.5727484" lon="-0.640633"><ele>172.5</ele><time>2026-05-04T08:33:44.609Z</time></trkpt><trkpt lat="41.5726521" lon="-0.6404816"><ele>171.0</ele><time>2026-05-04T08:33:45.606Z</time></trkpt><trkpt lat="41.5725545" lon="-0.6403333"><ele>171.5</ele><time>2026-05-04T08:33:46.606Z</time></trkpt><trkpt lat="41.5724669" lon="-0.6401802"><ele>172.0</ele><time>2026-05-04T08:33:47.607Z</time></trkpt><trkpt lat="41.5723756" lon="-0.6400296"><ele>172.5</ele><time>2026-05-04T08:33:48.609Z</time></trkpt><trkpt lat="41.5722822" lon="-0.6398807"><ele>173.0</ele><time>2026-05-04T08:33:49.608Z</time></trkpt><trkpt lat="41.5721824" lon="-0.6397338"><ele>173.0</ele><time>2026-05-04T08:33:50.613Z</time></trkpt><trkpt lat="41.5720868" lon="-0.6395886"><ele>173.0</ele><time>2026-05-04T08:33:51.612Z</time></trkpt><trkpt lat="41.5719983" lon="-0.6394378"><ele>173.0</ele><time>2026-05-04T08:33:52.605Z</time></trkpt><trkpt lat="41.5719099" lon="-0.6392959"><ele>173.0</ele><time>2026-05-04T08:33:53.606Z</time></trkpt><trkpt lat="41.5718249" lon="-0.6391699"><ele>173.25</ele><time>2026-05-04T08:33:54.604Z</time></trkpt><trkpt lat="41.5717383" lon="-0.6390429"><ele>173.5</ele><time>2026-05-04T08:33:55.604Z</time></trkpt><trkpt lat="41.5716593" lon="-0.6389162"><ele>173.75</ele><time>2026-05-04T08:33:56.606Z</time></trkpt><trkpt lat="41.5715736" lon="-0.6387723"><ele>174.0</ele><time>2026-05-04T08:33:57.606Z</time></trkpt><trkpt lat="41.571486" lon="-0.6386436"><ele>173.5</ele><time>2026-05-04T08:33:58.606Z</time></trkpt><trkpt lat="41.5714019" lon="-0.6385067"><ele>173.0</ele><time>2026-05-04T08:33:59.606Z</time></trkpt><trkpt lat="41.5713129" lon="-0.6383619"><ele>172.5</ele><time>2026-05-04T08:34:00.607Z</time></trkpt><trkpt lat="41.5712239" lon="-0.6382194"><ele>172.0</ele><time>2026-05-04T08:34:01.609Z</time></trkpt><trkpt lat="41.5711334" lon="-0.6380835"><ele>172.0</ele><time>2026-05-04T08:34:02.608Z</time></trkpt><trkpt lat="41.5710344" lon="-0.6379422"><ele>172.0</ele><time>2026-05-04T08:34:03.607Z</time></trkpt><trkpt lat="41.5709341" lon="-0.6377968"><ele>172.0</ele><time>2026-05-04T08:34:04.608Z</time></trkpt><trkpt lat="41.5708395" lon="-0.6376432"><ele>172.0</ele><time>2026-05-04T08:34:05.604Z</time></trkpt><trkpt lat="41.5707461" lon="-0.6375029"><ele>172.25</ele><time>2026-05-04T08:34:06.626Z</time></trkpt><trkpt lat="41.5706495" lon="-0.6373586"><ele>172.5</ele><time>2026-05-04T08:34:07.604Z</time></trkpt><trkpt lat="41.5705637" lon="-0.6372128"><ele>172.75</ele><time>2026-05-04T08:34:08.616Z</time></trkpt><trkpt lat="41.5704731" lon="-0.6370762"><ele>173.0</ele><time>2026-05-04T08:34:09.604Z</time></trkpt><trkpt lat="41.5703814" lon="-0.6369311"><ele>173.25</ele><time>2026-05-04T08:34:10.605Z</time></trkpt><trkpt lat="41.5702947" lon="-0.6367875"><ele>173.5</ele><time>2026-05-04T08:34:11.602Z</time></trkpt><trkpt lat="41.5701936" lon="-0.6366473"><ele>173.75</ele><time>2026-05-04T08:34:12.603Z</time></trkpt><trkpt lat="41.5700995" lon="-0.636501"><ele>174.0</ele><time>2026-05-04T08:34:13.602Z</time></trkpt><trkpt lat="41.5699939" lon="-0.6363493"><ele>174.0</ele><time>2026-05-04T08:34:14.597Z</time></trkpt><trkpt lat="41.569896" lon="-0.63619"><ele>174.0</ele><time>2026-05-04T08:34:15.591Z</time></trkpt><trkpt lat="41.5698059" lon="-0.6360239"><ele>174.0</ele><time>2026-05-04T08:34:16.59Z</time></trkpt><trkpt lat="41.5697183" lon="-0.6358768"><ele>174.0</ele><time>2026-05-04T08:34:17.587Z</time></trkpt><trkpt lat="41.5696168" lon="-0.6357205"><ele>173.5</ele><time>2026-05-04T08:34:18.587Z</time></trkpt><trkpt lat="41.5695008" lon="-0.6355874"><ele>173.0</ele><time>2026-05-04T08:34:19.592Z</time></trkpt><trkpt lat="41.5694079" lon="-0.6354354"><ele>172.5</ele><time>2026-05-04T08:34:20.592Z</time></trkpt><trkpt lat="41.5693194" lon="-0.6352928"><ele>172.0</ele><time>2026-05-04T08:34:21.594Z</time></trkpt><trkpt lat="41.5692155" lon="-0.6351249"><ele>172.0</ele><time>2026-05-04T08:34:22.594Z</time></trkpt><trkpt lat="41.569117" lon="-0.6349728"><ele>172.0</ele><time>2026-05-04T08:34:23.587Z</time></trkpt><trkpt lat="41.5690252" lon="-0.6348305"><ele>172.0</ele><time>2026-05-04T08:34:24.59Z</time></trkpt><trkpt lat="41.5689503" lon="-0.6346892"><ele>172.0</ele><time>2026-05-04T08:34:25.605Z</time></trkpt><trkpt lat="41.5688696" lon="-0.6345556"><ele>171.75</ele><time>2026-05-04T08:34:26.604Z</time></trkpt><trkpt lat="41.5687766" lon="-0.6344102"><ele>171.5</ele><time>2026-05-04T08:34:27.603Z</time></trkpt><trkpt lat="41.5686867" lon="-0.6342793"><ele>171.25</ele><time>2026-05-04T08:34:28.61Z</time></trkpt><trkpt lat="41.5686024" lon="-0.6341485"><ele>171.0</ele><time>2026-05-04T08:34:29.607Z</time></trkpt><trkpt lat="41.5685174" lon="-0.6340167"><ele>171.0</ele><time>2026-05-04T08:34:30.605Z</time></trkpt><trkpt lat="41.5684322" lon="-0.6338947"><ele>171.0</ele><time>2026-05-04T08:34:31.602Z</time></trkpt><trkpt lat="41.5683492" lon="-0.6337741"><ele>171.0</ele><time>2026-05-04T08:34:32.603Z</time></trkpt><trkpt lat="41.5682704" lon="-0.63366"><ele>171.0</ele><time>2026-05-04T08:34:33.6Z</time></trkpt><trkpt lat="41.5681852" lon="-0.6335399"><ele>171.0</ele><time>2026-05-04T08:34:34.603Z</time></trkpt><trkpt lat="41.5681058" lon="-0.6334166"><ele>171.0</ele><time>2026-05-04T08:34:35.602Z</time></trkpt><trkpt lat="41.5680256" lon="-0.6332891"><ele>171.0</ele><time>2026-05-04T08:34:36.605Z</time></trkpt><trkpt lat="41.5679423" lon="-0.6331597"><ele>171.0</ele><time>2026-05-04T08:34:37.619Z</time></trkpt><trkpt lat="41.5678588" lon="-0.6330275"><ele>170.75</ele><time>2026-05-04T08:34:38.612Z</time></trkpt><trkpt lat="41.5677746" lon="-0.6328906"><ele>170.5</ele><time>2026-05-04T08:34:39.602Z</time></trkpt><trkpt lat="41.5676897" lon="-0.6327542"><ele>170.25</ele><time>2026-05-04T08:34:40.604Z</time></trkpt><trkpt lat="41.5676012" lon="-0.6326175"><ele>170.0</ele><time>2026-05-04T08:34:41.604Z</time></trkpt><trkpt lat="41.567513" lon="-0.6324822"><ele>169.75</ele><time>2026-05-04T08:34:42.607Z</time></trkpt><trkpt lat="41.5674233" lon="-0.6323459"><ele>169.5</ele><time>2026-05-04T08:34:43.607Z</time></trkpt><trkpt lat="41.5673307" lon="-0.6322049"><ele>169.25</ele><time>2026-05-04T08:34:44.601Z</time></trkpt><trkpt lat="41.5672414" lon="-0.632063"><ele>169.0</ele><time>2026-05-04T08:34:45.599Z</time></trkpt><trkpt lat="41.5671525" lon="-0.6319224"><ele>169.75</ele><time>2026-05-04T08:34:46.604Z</time></trkpt><trkpt lat="41.567066" lon="-0.6317779"><ele>170.5</ele><time>2026-05-04T08:34:47.6Z</time></trkpt><trkpt lat="41.5669825" lon="-0.6316403"><ele>171.25</ele><time>2026-05-04T08:34:48.607Z</time></trkpt><trkpt lat="41.5668913" lon="-0.6315059"><ele>172.0</ele><time>2026-05-04T08:34:49.605Z</time></trkpt><trkpt lat="41.566804" lon="-0.6313641"><ele>172.0</ele><time>2026-05-04T08:34:50.605Z</time></trkpt><trkpt lat="41.5667091" lon="-0.6312232"><ele>172.0</ele><time>2026-05-04T08:34:51.608Z</time></trkpt><trkpt lat="41.5666199" lon="-0.6310832"><ele>172.0</ele><time>2026-05-04T08:34:52.607Z</time></trkpt><trkpt lat="41.5665277" lon="-0.6309433"><ele>172.0</ele><time>2026-05-04T08:34:53.605Z</time></trkpt><trkpt lat="41.5664375" lon="-0.630802"><ele>172.0</ele><time>2026-05-04T08:34:54.607Z</time></trkpt><trkpt lat="41.5663516" lon="-0.6306612"><ele>172.0</ele><time>2026-05-04T08:34:55.608Z</time></trkpt><trkpt lat="41.5662691" lon="-0.6305223"><ele>172.0</ele><time>2026-05-04T08:34:56.607Z</time></trkpt><trkpt lat="41.566186" lon="-0.630389"><ele>172.0</ele><time>2026-05-04T08:34:57.608Z</time></trkpt><trkpt lat="41.5660979" lon="-0.6302576"><ele>172.0</ele><time>2026-05-04T08:34:58.605Z</time></trkpt><trkpt lat="41.5660108" lon="-0.6301257"><ele>172.0</ele><time>2026-05-04T08:34:59.606Z</time></trkpt><trkpt lat="41.5659182" lon="-0.6299918"><ele>172.0</ele><time>2026-05-04T08:35:00.609Z</time></trkpt><trkpt lat="41.5658355" lon="-0.6298558"><ele>172.0</ele><time>2026-05-04T08:35:01.605Z</time></trkpt><trkpt lat="41.5657494" lon="-0.6297198"><ele>172.0</ele><time>2026-05-04T08:35:02.604Z</time></trkpt><trkpt lat="41.565667" lon="-0.6295819"><ele>172.0</ele><time>2026-05-04T08:35:03.605Z</time></trkpt><trkpt lat="41.5655858" lon="-0.6294523"><ele>172.0</ele><time>2026-05-04T08:35:04.603Z</time></trkpt><trkpt lat="41.5655116" lon="-0.6293255"><ele>172.0</ele><time>2026-05-04T08:35:05.603Z</time></trkpt><trkpt lat="41.5654385" lon="-0.6292018"><ele>171.75</ele><time>2026-05-04T08:35:06.604Z</time></trkpt><trkpt lat="41.5653687" lon="-0.6290831"><ele>171.5</ele><time>2026-05-04T08:35:07.605Z</time></trkpt><trkpt lat="41.5652994" lon="-0.6289653"><ele>171.25</ele><time>2026-05-04T08:35:08.619Z</time></trkpt><trkpt lat="41.5652277" lon="-0.6288435"><ele>171.0</ele><time>2026-05-04T08:35:09.599Z</time></trkpt><trkpt lat="41.5651553" lon="-0.6287222"><ele>171.0</ele><time>2026-05-04T08:35:10.604Z</time></trkpt><trkpt lat="41.5650848" lon="-0.6285912"><ele>171.0</ele><time>2026-05-04T08:35:11.603Z</time></trkpt><trkpt lat="41.5650107" lon="-0.6284567"><ele>171.0</ele><time>2026-05-04T08:35:12.606Z</time></trkpt><trkpt lat="41.56493" lon="-0.6283135"><ele>171.0</ele><time>2026-05-04T08:35:13.607Z</time></trkpt><trkpt lat="41.5648508" lon="-0.6281658"><ele>171.0</ele><time>2026-05-04T08:35:14.607Z</time></trkpt><trkpt lat="41.5647724" lon="-0.6280194"><ele>171.0</ele><time>2026-05-04T08:35:15.602Z</time></trkpt><trkpt lat="41.5646916" lon="-0.6278691"><ele>171.0</ele><time>2026-05-04T08:35:16.601Z</time></trkpt><trkpt lat="41.5646106" lon="-0.6277226"><ele>171.0</ele><time>2026-05-04T08:35:17.601Z</time></trkpt><trkpt lat="41.5645274" lon="-0.6275685"><ele>171.0</ele><time>2026-05-04T08:35:18.602Z</time></trkpt><trkpt lat="41.5644518" lon="-0.6274192"><ele>171.0</ele><time>2026-05-04T08:35:19.602Z</time></trkpt><trkpt lat="41.564365" lon="-0.6272736"><ele>171.0</ele><time>2026-05-04T08:35:20.603Z</time></trkpt><trkpt lat="41.5642828" lon="-0.6271325"><ele>171.0</ele><time>2026-05-04T08:35:21.604Z</time></trkpt><trkpt lat="41.5642026" lon="-0.6269894"><ele>170.75</ele><time>2026-05-04T08:35:22.607Z</time></trkpt><trkpt lat="41.5641227" lon="-0.6268441"><ele>170.5</ele><time>2026-05-04T08:35:23.605Z</time></trkpt><trkpt lat="41.5640535" lon="-0.6267157"><ele>170.25</ele><time>2026-05-04T08:35:24.607Z</time></trkpt><trkpt lat="41.563978" lon="-0.6265753"><ele>170.0</ele><time>2026-05-04T08:35:25.606Z</time></trkpt><trkpt lat="41.5638969" lon="-0.6264383"><ele>170.0</ele><time>2026-05-04T08:35:26.604Z</time></trkpt><trkpt lat="41.5638232" lon="-0.6263017"><ele>170.0</ele><time>2026-05-04T08:35:27.604Z</time></trkpt><trkpt lat="41.5637459" lon="-0.6261589"><ele>170.0</ele><time>2026-05-04T08:35:28.601Z</time></trkpt><trkpt lat="41.5636605" lon="-0.6260176"><ele>170.0</ele><time>2026-05-04T08:35:29.603Z</time></trkpt><trkpt lat="41.5635809" lon="-0.6258766"><ele>170.25</ele><time>2026-05-04T08:35:30.607Z</time></trkpt><trkpt lat="41.563501" lon="-0.6257369"><ele>170.5</ele><time>2026-05-04T08:35:31.602Z</time></trkpt><trkpt lat="41.5634235" lon="-0.6255941"><ele>170.75</ele><time>2026-05-04T08:35:32.602Z</time></trkpt><trkpt lat="41.563344" lon="-0.6254533"><ele>171.0</ele><time>2026-05-04T08:35:33.602Z</time></trkpt><trkpt lat="41.5632634" lon="-0.6253113"><ele>171.0</ele><time>2026-05-04T08:35:34.587Z</time></trkpt><trkpt lat="41.563182" lon="-0.6251687"><ele>171.0</ele><time>2026-05-04T08:35:35.603Z</time></trkpt><trkpt lat="41.5630978" lon="-0.6250218"><ele>171.0</ele><time>2026-05-04T08:35:36.608Z</time></trkpt><trkpt lat="41.56301" lon="-0.6248673"><ele>171.0</ele><time>2026-05-04T08:35:37.602Z</time></trkpt><trkpt lat="41.5629267" lon="-0.6247103"><ele>171.0</ele><time>2026-05-04T08:35:38.602Z</time></trkpt><trkpt lat="41.5628415" lon="-0.6245539"><ele>171.0</ele><time>2026-05-04T08:35:39.633Z</time></trkpt><trkpt lat="41.5627591" lon="-0.6244068"><ele>171.0</ele><time>2026-05-04T08:35:40.604Z</time></trkpt><trkpt lat="41.5626727" lon="-0.6242603"><ele>171.0</ele><time>2026-05-04T08:35:41.6Z</time></trkpt><trkpt lat="41.562584" lon="-0.624114"><ele>171.25</ele><time>2026-05-04T08:35:42.602Z</time></trkpt><trkpt lat="41.5624981" lon="-0.6239632"><ele>171.5</ele><time>2026-05-04T08:35:43.604Z</time></trkpt><trkpt lat="41.5624259" lon="-0.6238119"><ele>171.75</ele><time>2026-05-04T08:35:44.602Z</time></trkpt><trkpt lat="41.5623534" lon="-0.6236597"><ele>172.0</ele><time>2026-05-04T08:35:45.601Z</time></trkpt><trkpt lat="41.5622759" lon="-0.6235087"><ele>172.0</ele><time>2026-05-04T08:35:46.602Z</time></trkpt><trkpt lat="41.5621964" lon="-0.6233566"><ele>172.0</ele><time>2026-05-04T08:35:47.603Z</time></trkpt><trkpt lat="41.5621207" lon="-0.6232081"><ele>172.0</ele><time>2026-05-04T08:35:48.606Z</time></trkpt><trkpt lat="41.5620362" lon="-0.6230631"><ele>172.0</ele><time>2026-05-04T08:35:49.604Z</time></trkpt><trkpt lat="41.5619605" lon="-0.6229167"><ele>171.5</ele><time>2026-05-04T08:35:50.606Z</time></trkpt><trkpt lat="41.5618859" lon="-0.6227715"><ele>171.0</ele><time>2026-05-04T08:35:51.608Z</time></trkpt><trkpt lat="41.5618081" lon="-0.6226237"><ele>170.5</ele><time>2026-05-04T08:35:52.607Z</time></trkpt><trkpt lat="41.5617313" lon="-0.6224772"><ele>170.0</ele><time>2026-05-04T08:35:53.604Z</time></trkpt><trkpt lat="41.5615736" lon="-0.6221874"><ele>170.0</ele><time>2026-05-04T08:35:55.606Z</time></trkpt><trkpt lat="41.5614942" lon="-0.6220451"><ele>170.0</ele><time>2026-05-04T08:35:56.605Z</time></trkpt><trkpt lat="41.5614175" lon="-0.6219015"><ele>170.0</ele><time>2026-05-04T08:35:57.608Z</time></trkpt><trkpt lat="41.5613293" lon="-0.6217683"><ele>170.0</ele><time>2026-05-04T08:35:58.605Z</time></trkpt><trkpt lat="41.5612441" lon="-0.6216269"><ele>170.0</ele><time>2026-05-04T08:35:59.607Z</time></trkpt><trkpt lat="41.5611643" lon="-0.6214842"><ele>170.0</ele><time>2026-05-04T08:36:00.607Z</time></trkpt><trkpt lat="41.56109" lon="-0.6213256"><ele>170.0</ele><time>2026-05-04T08:36:01.603Z</time></trkpt><trkpt lat="41.5610153" lon="-0.6211712"><ele>170.0</ele><time>2026-05-04T08:36:02.605Z</time></trkpt><trkpt lat="41.5609438" lon="-0.6210191"><ele>170.5</ele><time>2026-05-04T08:36:03.604Z</time></trkpt><trkpt lat="41.5608771" lon="-0.6208658"><ele>171.0</ele><time>2026-05-04T08:36:04.603Z</time></trkpt><trkpt lat="41.5608127" lon="-0.6207146"><ele>171.5</ele><time>2026-05-04T08:36:05.602Z</time></trkpt><trkpt lat="41.5607448" lon="-0.6205547"><ele>172.0</ele><time>2026-05-04T08:36:06.606Z</time></trkpt><trkpt lat="41.5606796" lon="-0.6203843"><ele>172.0</ele><time>2026-05-04T08:36:07.605Z</time></trkpt><trkpt lat="41.5606185" lon="-0.620223"><ele>172.0</ele><time>2026-05-04T08:36:08.602Z</time></trkpt><trkpt lat="41.5605432" lon="-0.6200643"><ele>172.0</ele><time>2026-05-04T08:36:09.615Z</time></trkpt><trkpt lat="41.5604834" lon="-0.6198998"><ele>172.0</ele><time>2026-05-04T08:36:10.602Z</time></trkpt><trkpt lat="41.5604176" lon="-0.6197365"><ele>171.75</ele><time>2026-05-04T08:36:11.606Z</time></trkpt><trkpt lat="41.5603529" lon="-0.619572"><ele>171.5</ele><time>2026-05-04T08:36:12.601Z</time></trkpt><trkpt lat="41.5602909" lon="-0.6194119"><ele>171.25</ele><time>2026-05-04T08:36:13.602Z</time></trkpt><trkpt lat="41.5602329" lon="-0.6192622"><ele>171.0</ele><time>2026-05-04T08:36:14.602Z</time></trkpt><trkpt lat="41.5601747" lon="-0.6191082"><ele>171.0</ele><time>2026-05-04T08:36:15.601Z</time></trkpt><trkpt lat="41.560112" lon="-0.6189544"><ele>171.0</ele><time>2026-05-04T08:36:16.602Z</time></trkpt><trkpt lat="41.560055" lon="-0.6188016"><ele>171.0</ele><time>2026-05-04T08:36:17.601Z</time></trkpt><trkpt lat="41.5599953" lon="-0.6186434"><ele>171.0</ele><time>2026-05-04T08:36:18.604Z</time></trkpt><trkpt lat="41.5599342" lon="-0.6184894"><ele>171.75</ele><time>2026-05-04T08:36:19.602Z</time></trkpt><trkpt lat="41.5598749" lon="-0.6183367"><ele>172.5</ele><time>2026-05-04T08:36:20.598Z</time></trkpt><trkpt lat="41.5598076" lon="-0.6181836"><ele>173.25</ele><time>2026-05-04T08:36:21.6Z</time></trkpt><trkpt lat="41.5597455" lon="-0.6180295"><ele>174.0</ele><time>2026-05-04T08:36:22.601Z</time></trkpt><trkpt lat="41.5596837" lon="-0.6178786"><ele>174.5</ele><time>2026-05-04T08:36:23.6Z</time></trkpt><trkpt lat="41.5596261" lon="-0.6177277"><ele>175.0</ele><time>2026-05-04T08:36:24.602Z</time></trkpt><trkpt lat="41.5595719" lon="-0.6175775"><ele>175.5</ele><time>2026-05-04T08:36:25.602Z</time></trkpt><trkpt lat="41.5595161" lon="-0.6174208"><ele>176.0</ele><time>2026-05-04T08:36:26.601Z</time></trkpt><trkpt lat="41.5594573" lon="-0.6172648"><ele>175.75</ele><time>2026-05-04T08:36:27.601Z</time></trkpt><trkpt lat="41.5593988" lon="-0.6171083"><ele>175.5</ele><time>2026-05-04T08:36:28.603Z</time></trkpt><trkpt lat="41.5593378" lon="-0.6169474"><ele>175.25</ele><time>2026-05-04T08:36:29.603Z</time></trkpt><trkpt lat="41.5592736" lon="-0.6167854"><ele>175.0</ele><time>2026-05-04T08:36:30.603Z</time></trkpt><trkpt lat="41.5592123" lon="-0.6166207"><ele>175.0</ele><time>2026-05-04T08:36:31.602Z</time></trkpt><trkpt lat="41.5591442" lon="-0.6164554"><ele>175.0</ele><time>2026-05-04T08:36:32.6Z</time></trkpt><trkpt lat="41.5590725" lon="-0.6162814"><ele>175.0</ele><time>2026-05-04T08:36:33.599Z</time></trkpt><trkpt lat="41.5590032" lon="-0.6161122"><ele>175.0</ele><time>2026-05-04T08:36:34.603Z</time></trkpt><trkpt lat="41.5589338" lon="-0.615948"><ele>175.0</ele><time>2026-05-04T08:36:35.602Z</time></trkpt><trkpt lat="41.5588617" lon="-0.6157821"><ele>175.0</ele><time>2026-05-04T08:36:36.603Z</time></trkpt><trkpt lat="41.5587828" lon="-0.6156188"><ele>175.0</ele><time>2026-05-04T08:36:37.604Z</time></trkpt><trkpt lat="41.5587011" lon="-0.6154543"><ele>175.0</ele><time>2026-05-04T08:36:38.602Z</time></trkpt><trkpt lat="41.5586113" lon="-0.6152885"><ele>173.75</ele><time>2026-05-04T08:36:39.602Z</time></trkpt><trkpt lat="41.5585217" lon="-0.6151299"><ele>172.5</ele><time>2026-05-04T08:36:40.618Z</time></trkpt><trkpt lat="41.5584304" lon="-0.6149774"><ele>171.25</ele><time>2026-05-04T08:36:41.602Z</time></trkpt><trkpt lat="41.558339" lon="-0.6148345"><ele>170.0</ele><time>2026-05-04T08:36:42.605Z</time></trkpt><trkpt lat="41.5582446" lon="-0.6146987"><ele>170.0</ele><time>2026-05-04T08:36:43.61Z</time></trkpt><trkpt lat="41.5581497" lon="-0.6145625"><ele>170.0</ele><time>2026-05-04T08:36:44.6Z</time></trkpt><trkpt lat="41.5580545" lon="-0.6144277"><ele>170.0</ele><time>2026-05-04T08:36:45.608Z</time></trkpt><trkpt lat="41.5579592" lon="-0.6143012"><ele>170.0</ele><time>2026-05-04T08:36:46.603Z</time></trkpt><trkpt lat="41.5578611" lon="-0.6141711"><ele>170.25</ele><time>2026-05-04T08:36:47.603Z</time></trkpt><trkpt lat="41.5577628" lon="-0.6140515"><ele>170.5</ele><time>2026-05-04T08:36:48.604Z</time></trkpt><trkpt lat="41.5576742" lon="-0.6139337"><ele>170.75</ele><time>2026-05-04T08:36:49.606Z</time></trkpt><trkpt lat="41.5575858" lon="-0.6138033"><ele>171.0</ele><time>2026-05-04T08:36:50.605Z</time></trkpt><trkpt lat="41.5574921" lon="-0.6136803"><ele>171.5</ele><time>2026-05-04T08:36:51.612Z</time></trkpt><trkpt lat="41.5573978" lon="-0.6135563"><ele>172.0</ele><time>2026-05-04T08:36:52.608Z</time></trkpt><trkpt lat="41.5572975" lon="-0.6134376"><ele>172.5</ele><time>2026-05-04T08:36:53.607Z</time></trkpt><trkpt lat="41.5571989" lon="-0.6133122"><ele>173.0</ele><time>2026-05-04T08:36:54.609Z</time></trkpt><trkpt lat="41.5571019" lon="-0.613191"><ele>173.0</ele><time>2026-05-04T08:36:55.608Z</time></trkpt><trkpt lat="41.5570004" lon="-0.6130577"><ele>173.0</ele><time>2026-05-04T08:36:56.607Z</time></trkpt><trkpt lat="41.5569037" lon="-0.6129265"><ele>173.0</ele><time>2026-05-04T08:36:57.607Z</time></trkpt><trkpt lat="41.5568044" lon="-0.6127969"><ele>173.0</ele><time>2026-05-04T08:36:58.614Z</time></trkpt><trkpt lat="41.5567084" lon="-0.612665"><ele>173.0</ele><time>2026-05-04T08:36:59.606Z</time></trkpt><trkpt lat="41.5566106" lon="-0.6125364"><ele>173.0</ele><time>2026-05-04T08:37:00.607Z</time></trkpt><trkpt lat="41.5565207" lon="-0.6124102"><ele>173.0</ele><time>2026-05-04T08:37:01.604Z</time></trkpt><trkpt lat="41.5564323" lon="-0.6122817"><ele>173.0</ele><time>2026-05-04T08:37:02.605Z</time></trkpt><trkpt lat="41.5563352" lon="-0.6121546"><ele>173.0</ele><time>2026-05-04T08:37:03.605Z</time></trkpt><trkpt lat="41.5562383" lon="-0.6120391"><ele>173.0</ele><time>2026-05-04T08:37:04.604Z</time></trkpt><trkpt lat="41.5561405" lon="-0.6119092"><ele>173.0</ele><time>2026-05-04T08:37:05.605Z</time></trkpt><trkpt lat="41.5560389" lon="-0.6117799"><ele>173.0</ele><time>2026-05-04T08:37:06.607Z</time></trkpt><trkpt lat="41.5559467" lon="-0.611652"><ele>172.75</ele><time>2026-05-04T08:37:07.606Z</time></trkpt><trkpt lat="41.5558543" lon="-0.6115298"><ele>172.5</ele><time>2026-05-04T08:37:08.605Z</time></trkpt><trkpt lat="41.5557596" lon="-0.6114096"><ele>172.25</ele><time>2026-05-04T08:37:09.605Z</time></trkpt><trkpt lat="41.5556652" lon="-0.6112935"><ele>172.0</ele><time>2026-05-04T08:37:10.604Z</time></trkpt><trkpt lat="41.5555749" lon="-0.6111722"><ele>171.75</ele><time>2026-05-04T08:37:11.619Z</time></trkpt><trkpt lat="41.555482" lon="-0.6110459"><ele>171.5</ele><time>2026-05-04T08:37:12.602Z</time></trkpt><trkpt lat="41.5553856" lon="-0.6109205"><ele>171.25</ele><time>2026-05-04T08:37:13.585Z</time></trkpt><trkpt lat="41.5552903" lon="-0.6107989"><ele>171.0</ele><time>2026-05-04T08:37:14.607Z</time></trkpt><trkpt lat="41.5551954" lon="-0.6106745"><ele>171.0</ele><time>2026-05-04T08:37:15.608Z</time></trkpt><trkpt lat="41.555105" lon="-0.6105579"><ele>171.0</ele><time>2026-05-04T08:37:16.608Z</time></trkpt><trkpt lat="41.5550115" lon="-0.6104447"><ele>171.0</ele><time>2026-05-04T08:37:17.606Z</time></trkpt><trkpt lat="41.5549198" lon="-0.6103227"><ele>171.0</ele><time>2026-05-04T08:37:18.609Z</time></trkpt><trkpt lat="41.554829" lon="-0.6102013"><ele>171.25</ele><time>2026-05-04T08:37:19.608Z</time></trkpt><trkpt lat="41.5547386" lon="-0.6100841"><ele>171.5</ele><time>2026-05-04T08:37:20.606Z</time></trkpt><trkpt lat="41.5546467" lon="-0.6099669"><ele>171.75</ele><time>2026-05-04T08:37:21.609Z</time></trkpt><trkpt lat="41.5545548" lon="-0.6098417"><ele>172.0</ele><time>2026-05-04T08:37:22.61Z</time></trkpt><trkpt lat="41.5544615" lon="-0.6097167"><ele>172.0</ele><time>2026-05-04T08:37:23.606Z</time></trkpt><trkpt lat="41.5543667" lon="-0.6095943"><ele>172.0</ele><time>2026-05-04T08:37:24.608Z</time></trkpt><trkpt lat="41.5542716" lon="-0.6094694"><ele>172.0</ele><time>2026-05-04T08:37:25.607Z</time></trkpt><trkpt lat="41.5541754" lon="-0.6093471"><ele>172.0</ele><time>2026-05-04T08:37:26.609Z</time></trkpt><trkpt lat="41.554082" lon="-0.6092259"><ele>171.5</ele><time>2026-05-04T08:37:27.607Z</time></trkpt><trkpt lat="41.5539858" lon="-0.6091013"><ele>171.0</ele><time>2026-05-04T08:37:28.606Z</time></trkpt><trkpt lat="41.553888" lon="-0.6089742"><ele>170.5</ele><time>2026-05-04T08:37:29.608Z</time></trkpt><trkpt lat="41.5537921" lon="-0.6088456"><ele>170.0</ele><time>2026-05-04T08:37:30.592Z</time></trkpt><trkpt lat="41.5536981" lon="-0.6087194"><ele>170.75</ele><time>2026-05-04T08:37:31.607Z</time></trkpt><trkpt lat="41.5536072" lon="-0.608587"><ele>171.5</ele><time>2026-05-04T08:37:32.605Z</time></trkpt><trkpt lat="41.5535148" lon="-0.6084516"><ele>172.25</ele><time>2026-05-04T08:37:33.606Z</time></trkpt><trkpt lat="41.5534177" lon="-0.6083081"><ele>173.0</ele><time>2026-05-04T08:37:34.607Z</time></trkpt><trkpt lat="41.553328" lon="-0.608171"><ele>173.0</ele><time>2026-05-04T08:37:35.604Z</time></trkpt><trkpt lat="41.5532419" lon="-0.608032"><ele>173.0</ele><time>2026-05-04T08:37:36.605Z</time></trkpt><trkpt lat="41.5531547" lon="-0.6078836"><ele>173.0</ele><time>2026-05-04T08:37:37.603Z</time></trkpt><trkpt lat="41.5530686" lon="-0.6077349"><ele>173.0</ele><time>2026-05-04T08:37:38.603Z</time></trkpt><trkpt lat="41.5529794" lon="-0.6075856"><ele>173.0</ele><time>2026-05-04T08:37:39.601Z</time></trkpt><trkpt lat="41.5528955" lon="-0.6074333"><ele>173.0</ele><time>2026-05-04T08:37:40.606Z</time></trkpt><trkpt lat="41.5528115" lon="-0.6072833"><ele>173.0</ele><time>2026-05-04T08:37:41.603Z</time></trkpt><trkpt lat="41.5527292" lon="-0.6071289"><ele>173.0</ele><time>2026-05-04T08:37:42.619Z</time></trkpt><trkpt lat="41.5526542" lon="-0.6069772"><ele>174.0</ele><time>2026-05-04T08:37:43.608Z</time></trkpt><trkpt lat="41.5525758" lon="-0.6068238"><ele>175.0</ele><time>2026-05-04T08:37:44.607Z</time></trkpt><trkpt lat="41.5524995" lon="-0.6066621"><ele>176.0</ele><time>2026-05-04T08:37:45.604Z</time></trkpt><trkpt lat="41.5524317" lon="-0.606501"><ele>177.0</ele><time>2026-05-04T08:37:46.607Z</time></trkpt><trkpt lat="41.5523659" lon="-0.6063483"><ele>177.0</ele><time>2026-05-04T08:37:47.606Z</time></trkpt><trkpt lat="41.5522963" lon="-0.6061785"><ele>177.0</ele><time>2026-05-04T08:37:48.607Z</time></trkpt><trkpt lat="41.5522277" lon="-0.606018"><ele>177.0</ele><time>2026-05-04T08:37:49.605Z</time></trkpt><trkpt lat="41.5521628" lon="-0.6058613"><ele>177.0</ele><time>2026-05-04T08:37:50.607Z</time></trkpt><trkpt lat="41.5521049" lon="-0.6057013"><ele>176.5</ele><time>2026-05-04T08:37:51.608Z</time></trkpt><trkpt lat="41.5520407" lon="-0.605537"><ele>176.0</ele><time>2026-05-04T08:37:52.607Z</time></trkpt><trkpt lat="41.5519781" lon="-0.605376"><ele>175.5</ele><time>2026-05-04T08:37:53.611Z</time></trkpt><trkpt lat="41.551922" lon="-0.605222"><ele>175.0</ele><time>2026-05-04T08:37:54.613Z</time></trkpt><trkpt lat="41.5518547" lon="-0.6050601"><ele>176.25</ele><time>2026-05-04T08:37:55.609Z</time></trkpt><trkpt lat="41.5517942" lon="-0.6049018"><ele>177.5</ele><time>2026-05-04T08:37:56.614Z</time></trkpt><trkpt lat="41.5517387" lon="-0.6047499"><ele>178.75</ele><time>2026-05-04T08:37:57.611Z</time></trkpt><trkpt lat="41.5516785" lon="-0.6046003"><ele>180.0</ele><time>2026-05-04T08:37:58.612Z</time></trkpt><trkpt lat="41.5516156" lon="-0.6044385"><ele>180.0</ele><time>2026-05-04T08:37:59.61Z</time></trkpt><trkpt lat="41.5515571" lon="-0.6042788"><ele>180.0</ele><time>2026-05-04T08:38:00.61Z</time></trkpt><trkpt lat="41.5514973" lon="-0.6041208"><ele>180.0</ele><time>2026-05-04T08:38:01.605Z</time></trkpt><trkpt lat="41.551431" lon="-0.6039618"><ele>180.0</ele><time>2026-05-04T08:38:02.606Z</time></trkpt><trkpt lat="41.5513668" lon="-0.603799"><ele>180.5</ele><time>2026-05-04T08:38:03.607Z</time></trkpt><trkpt lat="41.5513108" lon="-0.6036295"><ele>181.0</ele><time>2026-05-04T08:38:04.61Z</time></trkpt><trkpt lat="41.551256" lon="-0.603463"><ele>181.5</ele><time>2026-05-04T08:38:05.607Z</time></trkpt><trkpt lat="41.5512061" lon="-0.6033008"><ele>182.0</ele><time>2026-05-04T08:38:06.609Z</time></trkpt><trkpt lat="41.5511498" lon="-0.6031282"><ele>181.5</ele><time>2026-05-04T08:38:07.606Z</time></trkpt><trkpt lat="41.5510941" lon="-0.6029581"><ele>181.0</ele><time>2026-05-04T08:38:08.608Z</time></trkpt><trkpt lat="41.5510361" lon="-0.6027905"><ele>180.5</ele><time>2026-05-04T08:38:09.609Z</time></trkpt><trkpt lat="41.550988" lon="-0.6026258"><ele>180.0</ele><time>2026-05-04T08:38:10.608Z</time></trkpt><trkpt lat="41.5509319" lon="-0.6024565"><ele>180.0</ele><time>2026-05-04T08:38:11.606Z</time></trkpt><trkpt lat="41.5508808" lon="-0.6022826"><ele>180.0</ele><time>2026-05-04T08:38:12.607Z</time></trkpt><trkpt lat="41.5508365" lon="-0.602121"><ele>180.0</ele><time>2026-05-04T08:38:13.625Z</time></trkpt><trkpt lat="41.5507964" lon="-0.6019517"><ele>180.0</ele><time>2026-05-04T08:38:14.607Z</time></trkpt><trkpt lat="41.5507446" lon="-0.6017831"><ele>179.75</ele><time>2026-05-04T08:38:15.608Z</time></trkpt><trkpt lat="41.5506943" lon="-0.6016093"><ele>179.5</ele><time>2026-05-04T08:38:16.607Z</time></trkpt><trkpt lat="41.5506516" lon="-0.6014408"><ele>179.25</ele><time>2026-05-04T08:38:17.606Z</time></trkpt><trkpt lat="41.5506121" lon="-0.6012759"><ele>179.0</ele><time>2026-05-04T08:38:18.607Z</time></trkpt><trkpt lat="41.5505717" lon="-0.6011044"><ele>178.75</ele><time>2026-05-04T08:38:19.609Z</time></trkpt><trkpt lat="41.5505308" lon="-0.6009344"><ele>178.5</ele><time>2026-05-04T08:38:20.607Z</time></trkpt><trkpt lat="41.550497" lon="-0.6007614"><ele>178.25</ele><time>2026-05-04T08:38:21.611Z</time></trkpt><trkpt lat="41.5504554" lon="-0.6005835"><ele>178.0</ele><time>2026-05-04T08:38:22.607Z</time></trkpt><trkpt lat="41.5504165" lon="-0.6004092"><ele>177.75</ele><time>2026-05-04T08:38:23.594Z</time></trkpt><trkpt lat="41.5503756" lon="-0.6002265"><ele>177.5</ele><time>2026-05-04T08:38:24.609Z</time></trkpt><trkpt lat="41.5503334" lon="-0.6000453"><ele>177.25</ele><time>2026-05-04T08:38:25.603Z</time></trkpt><trkpt lat="41.5502831" lon="-0.5998713"><ele>177.0</ele><time>2026-05-04T08:38:26.606Z</time></trkpt><trkpt lat="41.5502393" lon="-0.5996901"><ele>177.0</ele><time>2026-05-04T08:38:27.605Z</time></trkpt><trkpt lat="41.5501984" lon="-0.5995132"><ele>177.0</ele><time>2026-05-04T08:38:28.609Z</time></trkpt><trkpt lat="41.5501567" lon="-0.5993269"><ele>177.0</ele><time>2026-05-04T08:38:29.604Z</time></trkpt><trkpt lat="41.5501198" lon="-0.5991538"><ele>177.0</ele><time>2026-05-04T08:38:30.602Z</time></trkpt><trkpt lat="41.5500811" lon="-0.5989711"><ele>176.75</ele><time>2026-05-04T08:38:31.604Z</time></trkpt><trkpt lat="41.5500344" lon="-0.5987876"><ele>176.5</ele><time>2026-05-04T08:38:32.604Z</time></trkpt><trkpt lat="41.54999" lon="-0.5986118"><ele>176.25</ele><time>2026-05-04T08:38:33.603Z</time></trkpt><trkpt lat="41.5499409" lon="-0.5984391"><ele>176.0</ele><time>2026-05-04T08:38:34.605Z</time></trkpt><trkpt lat="41.5498917" lon="-0.5982668"><ele>176.5</ele><time>2026-05-04T08:38:35.603Z</time></trkpt><trkpt lat="41.5498373" lon="-0.5981015"><ele>177.0</ele><time>2026-05-04T08:38:36.604Z</time></trkpt><trkpt lat="41.5497833" lon="-0.5979356"><ele>177.5</ele><time>2026-05-04T08:38:37.606Z</time></trkpt><trkpt lat="41.5497228" lon="-0.5977665"><ele>178.0</ele><time>2026-05-04T08:38:38.618Z</time></trkpt><trkpt lat="41.5496601" lon="-0.5976036"><ele>178.25</ele><time>2026-05-04T08:38:39.599Z</time></trkpt><trkpt lat="41.5495931" lon="-0.5974437"><ele>178.5</ele><time>2026-05-04T08:38:40.604Z</time></trkpt><trkpt lat="41.549524" lon="-0.5972781"><ele>178.75</ele><time>2026-05-04T08:38:41.603Z</time></trkpt><trkpt lat="41.5494577" lon="-0.5971247"><ele>179.0</ele><time>2026-05-04T08:38:42.603Z</time></trkpt><trkpt lat="41.5493837" lon="-0.5969717"><ele>178.25</ele><time>2026-05-04T08:38:43.606Z</time></trkpt><trkpt lat="41.5493127" lon="-0.5968178"><ele>177.5</ele><time>2026-05-04T08:38:44.622Z</time></trkpt><trkpt lat="41.5492369" lon="-0.5966558"><ele>176.75</ele><time>2026-05-04T08:38:45.607Z</time></trkpt><trkpt lat="41.5491648" lon="-0.596495"><ele>176.0</ele><time>2026-05-04T08:38:46.607Z</time></trkpt><trkpt lat="41.5490961" lon="-0.5963414"><ele>176.0</ele><time>2026-05-04T08:38:47.601Z</time></trkpt><trkpt lat="41.5490275" lon="-0.5961794"><ele>176.0</ele><time>2026-05-04T08:38:48.603Z</time></trkpt><trkpt lat="41.5489564" lon="-0.5960273"><ele>176.0</ele><time>2026-05-04T08:38:49.602Z</time></trkpt><trkpt lat="41.5488838" lon="-0.5958672"><ele>176.0</ele><time>2026-05-04T08:38:50.603Z</time></trkpt><trkpt lat="41.5488065" lon="-0.5957027"><ele>175.5</ele><time>2026-05-04T08:38:51.602Z</time></trkpt><trkpt lat="41.5487281" lon="-0.595538"><ele>175.0</ele><time>2026-05-04T08:38:52.602Z</time></trkpt><trkpt lat="41.5486532" lon="-0.5953796"><ele>174.5</ele><time>2026-05-04T08:38:53.605Z</time></trkpt><trkpt lat="41.5485819" lon="-0.5952251"><ele>174.0</ele><time>2026-05-04T08:38:54.603Z</time></trkpt><trkpt lat="41.5485007" lon="-0.595057"><ele>174.0</ele><time>2026-05-04T08:38:55.6Z</time></trkpt><trkpt lat="41.5484248" lon="-0.5948969"><ele>174.0</ele><time>2026-05-04T08:38:56.608Z</time></trkpt><trkpt lat="41.5483438" lon="-0.5947403"><ele>174.0</ele><time>2026-05-04T08:38:57.605Z</time></trkpt><trkpt lat="41.5482593" lon="-0.5945857"><ele>174.0</ele><time>2026-05-04T08:38:58.608Z</time></trkpt><trkpt lat="41.54818" lon="-0.5944228"><ele>173.75</ele><time>2026-05-04T08:38:59.606Z</time></trkpt><trkpt lat="41.5480954" lon="-0.594271"><ele>173.5</ele><time>2026-05-04T08:39:00.61Z</time></trkpt><trkpt lat="41.5480149" lon="-0.5941181"><ele>173.25</ele><time>2026-05-04T08:39:01.605Z</time></trkpt><trkpt lat="41.5479291" lon="-0.5939648"><ele>173.0</ele><time>2026-05-04T08:39:02.607Z</time></trkpt><trkpt lat="41.5478419" lon="-0.5938126"><ele>173.0</ele><time>2026-05-04T08:39:03.602Z</time></trkpt><trkpt lat="41.5477604" lon="-0.5936551"><ele>173.0</ele><time>2026-05-04T08:39:04.601Z</time></trkpt><trkpt lat="41.5476781" lon="-0.5934977"><ele>173.0</ele><time>2026-05-04T08:39:05.6Z</time></trkpt><trkpt lat="41.5475926" lon="-0.5933462"><ele>173.0</ele><time>2026-05-04T08:39:06.606Z</time></trkpt><trkpt lat="41.5475085" lon="-0.5931997"><ele>173.0</ele><time>2026-05-04T08:39:07.602Z</time></trkpt><trkpt lat="41.5474308" lon="-0.5930463"><ele>173.0</ele><time>2026-05-04T08:39:08.601Z</time></trkpt><trkpt lat="41.5473439" lon="-0.5929027"><ele>173.0</ele><time>2026-05-04T08:39:09.6Z</time></trkpt><trkpt lat="41.5472596" lon="-0.5927545"><ele>173.0</ele><time>2026-05-04T08:39:10.601Z</time></trkpt><trkpt lat="41.5471867" lon="-0.5926082"><ele>173.0</ele><time>2026-05-04T08:39:11.601Z</time></trkpt><trkpt lat="41.5471084" lon="-0.5924618"><ele>173.0</ele><time>2026-05-04T08:39:12.603Z</time></trkpt><trkpt lat="41.5470328" lon="-0.5923097"><ele>173.0</ele><time>2026-05-04T08:39:13.604Z</time></trkpt><trkpt lat="41.5469502" lon="-0.5921696"><ele>173.0</ele><time>2026-05-04T08:39:14.598Z</time></trkpt><trkpt lat="41.5468698" lon="-0.5920343"><ele>172.75</ele><time>2026-05-04T08:39:15.616Z</time></trkpt><trkpt lat="41.5467893" lon="-0.5918959"><ele>172.5</ele><time>2026-05-04T08:39:16.597Z</time></trkpt><trkpt lat="41.5467107" lon="-0.5917505"><ele>172.25</ele><time>2026-05-04T08:39:17.596Z</time></trkpt><trkpt lat="41.5466292" lon="-0.5916048"><ele>172.0</ele><time>2026-05-04T08:39:18.597Z</time></trkpt><trkpt lat="41.546547" lon="-0.5914577"><ele>172.0</ele><time>2026-05-04T08:39:19.598Z</time></trkpt><trkpt lat="41.5464671" lon="-0.5913062"><ele>172.0</ele><time>2026-05-04T08:39:20.597Z</time></trkpt><trkpt lat="41.5463844" lon="-0.591156"><ele>172.0</ele><time>2026-05-04T08:39:21.599Z</time></trkpt><trkpt lat="41.5463011" lon="-0.5910045"><ele>172.0</ele><time>2026-05-04T08:39:22.602Z</time></trkpt><trkpt lat="41.546217" lon="-0.590856"><ele>172.0</ele><time>2026-05-04T08:39:23.6Z</time></trkpt><trkpt lat="41.5461396" lon="-0.5907079"><ele>172.0</ele><time>2026-05-04T08:39:24.604Z</time></trkpt><trkpt lat="41.5460578" lon="-0.5905545"><ele>172.0</ele><time>2026-05-04T08:39:25.607Z</time></trkpt><trkpt lat="41.5459692" lon="-0.5904082"><ele>172.0</ele><time>2026-05-04T08:39:26.606Z</time></trkpt><trkpt lat="41.5458783" lon="-0.590263"><ele>172.0</ele><time>2026-05-04T08:39:27.604Z</time></trkpt><trkpt lat="41.5457864" lon="-0.590109"><ele>172.0</ele><time>2026-05-04T08:39:28.607Z</time></trkpt><trkpt lat="41.5456906" lon="-0.5899621"><ele>172.0</ele><time>2026-05-04T08:39:29.605Z</time></trkpt><trkpt lat="41.5455977" lon="-0.5898142"><ele>172.0</ele><time>2026-05-04T08:39:30.607Z</time></trkpt><trkpt lat="41.5455062" lon="-0.5896654"><ele>172.0</ele><time>2026-05-04T08:39:31.602Z</time></trkpt><trkpt lat="41.5454099" lon="-0.5895199"><ele>172.0</ele><time>2026-05-04T08:39:32.604Z</time></trkpt><trkpt lat="41.5453188" lon="-0.5893803"><ele>172.0</ele><time>2026-05-04T08:39:33.6Z</time></trkpt><trkpt lat="41.5452235" lon="-0.5892416"><ele>172.0</ele><time>2026-05-04T08:39:34.601Z</time></trkpt><trkpt lat="41.5451313" lon="-0.5890972"><ele>171.75</ele><time>2026-05-04T08:39:35.598Z</time></trkpt><trkpt lat="41.5450362" lon="-0.5889548"><ele>171.5</ele><time>2026-05-04T08:39:36.606Z</time></trkpt><trkpt lat="41.5449413" lon="-0.5888255"><ele>171.25</ele><time>2026-05-04T08:39:37.6Z</time></trkpt><trkpt lat="41.5448492" lon="-0.5886995"><ele>171.0</ele><time>2026-05-04T08:39:38.6Z</time></trkpt><trkpt lat="41.5447543" lon="-0.5885632"><ele>171.0</ele><time>2026-05-04T08:39:39.599Z</time></trkpt><trkpt lat="41.5446605" lon="-0.588436"><ele>171.0</ele><time>2026-05-04T08:39:40.601Z</time></trkpt><trkpt lat="41.5445632" lon="-0.5883131"><ele>171.0</ele><time>2026-05-04T08:39:41.6Z</time></trkpt><trkpt lat="41.5444682" lon="-0.5881831"><ele>171.0</ele><time>2026-05-04T08:39:42.6Z</time></trkpt><trkpt lat="41.5443721" lon="-0.588051"><ele>171.0</ele><time>2026-05-04T08:39:43.601Z</time></trkpt><trkpt lat="41.5442734" lon="-0.5879209"><ele>171.0</ele><time>2026-05-04T08:39:44.6Z</time></trkpt><trkpt lat="41.5441694" lon="-0.5877926"><ele>171.0</ele><time>2026-05-04T08:39:45.599Z</time></trkpt><trkpt lat="41.5440631" lon="-0.5876641"><ele>171.0</ele><time>2026-05-04T08:39:46.616Z</time></trkpt><trkpt lat="41.54396" lon="-0.5875391"><ele>171.25</ele><time>2026-05-04T08:39:47.598Z</time></trkpt><trkpt lat="41.5438584" lon="-0.5874133"><ele>171.5</ele><time>2026-05-04T08:39:48.603Z</time></trkpt><trkpt lat="41.5437612" lon="-0.5872944"><ele>171.75</ele><time>2026-05-04T08:39:49.601Z</time></trkpt><trkpt lat="41.5436551" lon="-0.5871683"><ele>172.0</ele><time>2026-05-04T08:39:50.6Z</time></trkpt><trkpt lat="41.543547" lon="-0.5870428"><ele>171.75</ele><time>2026-05-04T08:39:51.601Z</time></trkpt><trkpt lat="41.5434465" lon="-0.5869216"><ele>171.5</ele><time>2026-05-04T08:39:52.602Z</time></trkpt><trkpt lat="41.543346" lon="-0.5868037"><ele>171.25</ele><time>2026-05-04T08:39:53.598Z</time></trkpt><trkpt lat="41.5432364" lon="-0.5866887"><ele>171.0</ele><time>2026-05-04T08:39:54.604Z</time></trkpt><trkpt lat="41.5431335" lon="-0.586571"><ele>171.0</ele><time>2026-05-04T08:39:55.601Z</time></trkpt><trkpt lat="41.5430314" lon="-0.5864476"><ele>171.0</ele><time>2026-05-04T08:39:56.602Z</time></trkpt><trkpt lat="41.542925" lon="-0.5863357"><ele>171.0</ele><time>2026-05-04T08:39:57.6Z</time></trkpt><trkpt lat="41.5428206" lon="-0.5862211"><ele>171.0</ele><time>2026-05-04T08:39:58.605Z</time></trkpt><trkpt lat="41.5427131" lon="-0.5861111"><ele>171.5</ele><time>2026-05-04T08:39:59.599Z</time></trkpt><trkpt lat="41.5426039" lon="-0.5859868"><ele>172.0</ele><time>2026-05-04T08:40:00.602Z</time></trkpt><trkpt lat="41.5424935" lon="-0.5858679"><ele>172.5</ele><time>2026-05-04T08:40:01.601Z</time></trkpt><trkpt lat="41.5423811" lon="-0.5857511"><ele>173.0</ele><time>2026-05-04T08:40:02.603Z</time></trkpt><trkpt lat="41.5422812" lon="-0.585646"><ele>173.0</ele><time>2026-05-04T08:40:03.599Z</time></trkpt><trkpt lat="41.5421777" lon="-0.5855272"><ele>173.0</ele><time>2026-05-04T08:40:04.601Z</time></trkpt><trkpt lat="41.5420692" lon="-0.5854083"><ele>173.0</ele><time>2026-05-04T08:40:05.6Z</time></trkpt><trkpt lat="41.5419629" lon="-0.5852937"><ele>173.0</ele><time>2026-05-04T08:40:06.603Z</time></trkpt><trkpt lat="41.5418642" lon="-0.5851759"><ele>173.0</ele><time>2026-05-04T08:40:07.6Z</time></trkpt><trkpt lat="41.5417624" lon="-0.5850596"><ele>173.0</ele><time>2026-05-04T08:40:08.604Z</time></trkpt><trkpt lat="41.5416605" lon="-0.5849504"><ele>173.0</ele><time>2026-05-04T08:40:09.599Z</time></trkpt><trkpt lat="41.5415588" lon="-0.5848313"><ele>173.0</ele><time>2026-05-04T08:40:10.602Z</time></trkpt><trkpt lat="41.5414579" lon="-0.5847168"><ele>173.0</ele><time>2026-05-04T08:40:11.6Z</time></trkpt><trkpt lat="41.5413519" lon="-0.5845986"><ele>173.0</ele><time>2026-05-04T08:40:12.601Z</time></trkpt><trkpt lat="41.541245" lon="-0.5844825"><ele>173.0</ele><time>2026-05-04T08:40:13.603Z</time></trkpt><trkpt lat="41.5411355" lon="-0.5843693"><ele>173.0</ele><time>2026-05-04T08:40:14.602Z</time></trkpt><trkpt lat="41.5410313" lon="-0.5842515"><ele>172.5</ele><time>2026-05-04T08:40:15.6Z</time></trkpt><trkpt lat="41.5409255" lon="-0.5841428"><ele>172.0</ele><time>2026-05-04T08:40:16.601Z</time></trkpt><trkpt lat="41.5408211" lon="-0.5840264"><ele>171.5</ele><time>2026-05-04T08:40:17.615Z</time></trkpt><trkpt lat="41.5407133" lon="-0.5839178"><ele>171.0</ele><time>2026-05-04T08:40:18.602Z</time></trkpt><trkpt lat="41.5406009" lon="-0.5838043"><ele>171.0</ele><time>2026-05-04T08:40:19.601Z</time></trkpt><trkpt lat="41.5404917" lon="-0.5836887"><ele>171.0</ele><time>2026-05-04T08:40:20.601Z</time></trkpt><trkpt lat="41.5403909" lon="-0.5835761"><ele>171.0</ele><time>2026-05-04T08:40:21.6Z</time></trkpt><trkpt lat="41.5402908" lon="-0.583453"><ele>171.0</ele><time>2026-05-04T08:40:22.604Z</time></trkpt><trkpt lat="41.540188" lon="-0.5833317"><ele>171.25</ele><time>2026-05-04T08:40:23.6Z</time></trkpt><trkpt lat="41.5400831" lon="-0.5832126"><ele>171.5</ele><time>2026-05-04T08:40:24.603Z</time></trkpt><trkpt lat="41.5399837" lon="-0.5830973"><ele>171.75</ele><time>2026-05-04T08:40:25.6Z</time></trkpt><trkpt lat="41.5398798" lon="-0.5829998"><ele>172.0</ele><time>2026-05-04T08:40:26.603Z</time></trkpt><trkpt lat="41.5397728" lon="-0.5828867"><ele>172.5</ele><time>2026-05-04T08:40:27.604Z</time></trkpt><trkpt lat="41.5396657" lon="-0.5827783"><ele>173.0</ele><time>2026-05-04T08:40:28.603Z</time></trkpt><trkpt lat="41.5395561" lon="-0.5826653"><ele>173.5</ele><time>2026-05-04T08:40:29.602Z</time></trkpt><trkpt lat="41.5394489" lon="-0.5825518"><ele>174.0</ele><time>2026-05-04T08:40:30.605Z</time></trkpt><trkpt lat="41.5393406" lon="-0.5824314"><ele>174.0</ele><time>2026-05-04T08:40:31.596Z</time></trkpt><trkpt lat="41.5392375" lon="-0.582307"><ele>174.0</ele><time>2026-05-04T08:40:32.596Z</time></trkpt><trkpt lat="41.5391339" lon="-0.5821908"><ele>174.0</ele><time>2026-05-04T08:40:33.598Z</time></trkpt><trkpt lat="41.5390243" lon="-0.5820694"><ele>174.0</ele><time>2026-05-04T08:40:34.596Z</time></trkpt><trkpt lat="41.5389166" lon="-0.5819406"><ele>174.0</ele><time>2026-05-04T08:40:35.597Z</time></trkpt><trkpt lat="41.5388065" lon="-0.5818251"><ele>174.0</ele><time>2026-05-04T08:40:36.601Z</time></trkpt><trkpt lat="41.5386998" lon="-0.5817113"><ele>174.0</ele><time>2026-05-04T08:40:37.597Z</time></trkpt><trkpt lat="41.538594" lon="-0.5815937"><ele>174.0</ele><time>2026-05-04T08:40:38.598Z</time></trkpt><trkpt lat="41.5384874" lon="-0.5814795"><ele>173.75</ele><time>2026-05-04T08:40:39.598Z</time></trkpt><trkpt lat="41.5383799" lon="-0.5813603"><ele>173.5</ele><time>2026-05-04T08:40:40.598Z</time></trkpt><trkpt lat="41.5382777" lon="-0.5812357"><ele>173.25</ele><time>2026-05-04T08:40:41.597Z</time></trkpt><trkpt lat="41.5381731" lon="-0.5811187"><ele>173.0</ele><time>2026-05-04T08:40:42.594Z</time></trkpt><trkpt lat="41.5380657" lon="-0.5810036"><ele>172.75</ele><time>2026-05-04T08:40:43.6Z</time></trkpt><trkpt lat="41.5379636" lon="-0.5808882"><ele>172.5</ele><time>2026-05-04T08:40:44.6Z</time></trkpt><trkpt lat="41.5378612" lon="-0.5807734"><ele>172.25</ele><time>2026-05-04T08:40:45.596Z</time></trkpt><trkpt lat="41.5377565" lon="-0.5806644"><ele>172.0</ele><time>2026-05-04T08:40:46.601Z</time></trkpt><trkpt lat="41.5376584" lon="-0.5805583"><ele>172.0</ele><time>2026-05-04T08:40:47.597Z</time></trkpt><trkpt lat="41.5375581" lon="-0.5804518"><ele>172.0</ele><time>2026-05-04T08:40:48.599Z</time></trkpt><trkpt lat="41.5374543" lon="-0.5803453"><ele>172.0</ele><time>2026-05-04T08:40:49.598Z</time></trkpt><trkpt lat="41.5373517" lon="-0.5802389"><ele>172.0</ele><time>2026-05-04T08:40:50.598Z</time></trkpt><trkpt lat="41.5372407" lon="-0.5801395"><ele>172.25</ele><time>2026-05-04T08:40:51.598Z</time></trkpt><trkpt lat="41.5371389" lon="-0.5800248"><ele>172.5</ele><time>2026-05-04T08:40:52.602Z</time></trkpt><trkpt lat="41.5370374" lon="-0.5799171"><ele>172.75</ele><time>2026-05-04T08:40:53.599Z</time></trkpt><trkpt lat="41.5369353" lon="-0.5798023"><ele>173.0</ele><time>2026-05-04T08:40:54.598Z</time></trkpt><trkpt lat="41.5368341" lon="-0.5796932"><ele>173.0</ele><time>2026-05-04T08:40:55.599Z</time></trkpt><trkpt lat="41.5367313" lon="-0.5795827"><ele>173.0</ele><time>2026-05-04T08:40:56.601Z</time></trkpt><trkpt lat="41.5366302" lon="-0.5794757"><ele>173.0</ele><time>2026-05-04T08:40:57.597Z</time></trkpt><trkpt lat="41.5365304" lon="-0.5793729"><ele>173.0</ele><time>2026-05-04T08:40:58.592Z</time></trkpt><trkpt lat="41.53643" lon="-0.579264"><ele>173.0</ele><time>2026-05-04T08:40:59.6Z</time></trkpt><trkpt lat="41.5363341" lon="-0.579155"><ele>173.0</ele><time>2026-05-04T08:41:00.588Z</time></trkpt><trkpt lat="41.5362386" lon="-0.5790415"><ele>173.0</ele><time>2026-05-04T08:41:01.594Z</time></trkpt><trkpt lat="41.5361484" lon="-0.5789219"><ele>173.0</ele><time>2026-05-04T08:41:02.596Z</time></trkpt><trkpt lat="41.5360575" lon="-0.5787932"><ele>173.25</ele><time>2026-05-04T08:41:03.597Z</time></trkpt><trkpt lat="41.5359689" lon="-0.5786634"><ele>173.5</ele><time>2026-05-04T08:41:04.591Z</time></trkpt><trkpt lat="41.5358827" lon="-0.5785339"><ele>173.75</ele><time>2026-05-04T08:41:05.594Z</time></trkpt><trkpt lat="41.5358062" lon="-0.5783984"><ele>174.0</ele><time>2026-05-04T08:41:06.597Z</time></trkpt><trkpt lat="41.535735" lon="-0.5782526"><ele>174.0</ele><time>2026-05-04T08:41:07.597Z</time></trkpt><trkpt lat="41.5356651" lon="-0.5781032"><ele>174.0</ele><time>2026-05-04T08:41:08.595Z</time></trkpt><trkpt lat="41.5355968" lon="-0.5779509"><ele>174.0</ele><time>2026-05-04T08:41:09.597Z</time></trkpt><trkpt lat="41.5355309" lon="-0.5777921"><ele>174.0</ele><time>2026-05-04T08:41:10.592Z</time></trkpt><trkpt lat="41.5354736" lon="-0.5776313"><ele>174.0</ele><time>2026-05-04T08:41:11.599Z</time></trkpt><trkpt lat="41.535419" lon="-0.5774644"><ele>174.0</ele><time>2026-05-04T08:41:12.592Z</time></trkpt><trkpt lat="41.535364" lon="-0.5773013"><ele>174.0</ele><time>2026-05-04T08:41:13.6Z</time></trkpt><trkpt lat="41.5353083" lon="-0.5771248"><ele>174.0</ele><time>2026-05-04T08:41:14.597Z</time></trkpt><trkpt lat="41.5352493" lon="-0.5769414"><ele>174.0</ele><time>2026-05-04T08:41:15.593Z</time></trkpt><trkpt lat="41.5351962" lon="-0.5767754"><ele>174.0</ele><time>2026-05-04T08:41:16.591Z</time></trkpt><trkpt lat="41.5351384" lon="-0.5766007"><ele>174.0</ele><time>2026-05-04T08:41:17.591Z</time></trkpt><trkpt lat="41.5350909" lon="-0.5764257"><ele>174.0</ele><time>2026-05-04T08:41:18.59Z</time></trkpt><trkpt lat="41.5350352" lon="-0.5762517"><ele>174.25</ele><time>2026-05-04T08:41:19.606Z</time></trkpt><trkpt lat="41.5349834" lon="-0.5760807"><ele>174.5</ele><time>2026-05-04T08:41:20.589Z</time></trkpt><trkpt lat="41.5349313" lon="-0.5759095"><ele>174.75</ele><time>2026-05-04T08:41:21.591Z</time></trkpt><trkpt lat="41.5348714" lon="-0.5757362"><ele>175.0</ele><time>2026-05-04T08:41:22.59Z</time></trkpt><trkpt lat="41.53481" lon="-0.5755633"><ele>175.0</ele><time>2026-05-04T08:41:23.591Z</time></trkpt><trkpt lat="41.534747" lon="-0.575395"><ele>175.0</ele><time>2026-05-04T08:41:24.6Z</time></trkpt><trkpt lat="41.5346891" lon="-0.5752287"><ele>175.0</ele><time>2026-05-04T08:41:25.593Z</time></trkpt><trkpt lat="41.5346257" lon="-0.5750707"><ele>175.0</ele><time>2026-05-04T08:41:26.593Z</time></trkpt><trkpt lat="41.5345749" lon="-0.5749055"><ele>175.0</ele><time>2026-05-04T08:41:27.592Z</time></trkpt><trkpt lat="41.5345212" lon="-0.5747403"><ele>175.0</ele><time>2026-05-04T08:41:28.594Z</time></trkpt><trkpt lat="41.5344622" lon="-0.5745703"><ele>175.0</ele><time>2026-05-04T08:41:29.594Z</time></trkpt><trkpt lat="41.5344039" lon="-0.5744072"><ele>175.0</ele><time>2026-05-04T08:41:30.594Z</time></trkpt><trkpt lat="41.5343461" lon="-0.5742361"><ele>175.25</ele><time>2026-05-04T08:41:31.588Z</time></trkpt><trkpt lat="41.5342841" lon="-0.5740726"><ele>175.5</ele><time>2026-05-04T08:41:32.584Z</time></trkpt><trkpt lat="41.5342271" lon="-0.5739179"><ele>175.75</ele><time>2026-05-04T08:41:33.586Z</time></trkpt><trkpt lat="41.5341646" lon="-0.5737549"><ele>176.0</ele><time>2026-05-04T08:41:34.585Z</time></trkpt><trkpt lat="41.5341101" lon="-0.573599"><ele>176.25</ele><time>2026-05-04T08:41:35.58Z</time></trkpt><trkpt lat="41.5340527" lon="-0.5734407"><ele>176.5</ele><time>2026-05-04T08:41:36.59Z</time></trkpt><trkpt lat="41.5339968" lon="-0.5732774"><ele>176.75</ele><time>2026-05-04T08:41:37.593Z</time></trkpt><trkpt lat="41.5339365" lon="-0.5731224"><ele>177.0</ele><time>2026-05-04T08:41:38.589Z</time></trkpt><trkpt lat="41.5338849" lon="-0.5729628"><ele>176.75</ele><time>2026-05-04T08:41:39.588Z</time></trkpt><trkpt lat="41.5338287" lon="-0.5728026"><ele>176.5</ele><time>2026-05-04T08:41:40.587Z</time></trkpt><trkpt lat="41.5337714" lon="-0.5726446"><ele>176.25</ele><time>2026-05-04T08:41:41.592Z</time></trkpt><trkpt lat="41.5337183" lon="-0.5724878"><ele>176.0</ele><time>2026-05-04T08:41:42.594Z</time></trkpt><trkpt lat="41.5336655" lon="-0.5723243"><ele>176.0</ele><time>2026-05-04T08:41:43.587Z</time></trkpt><trkpt lat="41.533609" lon="-0.5721649"><ele>176.0</ele><time>2026-05-04T08:41:44.591Z</time></trkpt><trkpt lat="41.5335564" lon="-0.5720063"><ele>176.0</ele><time>2026-05-04T08:41:45.591Z</time></trkpt><trkpt lat="41.5335065" lon="-0.5718521"><ele>176.0</ele><time>2026-05-04T08:41:46.597Z</time></trkpt><trkpt lat="41.5334518" lon="-0.5716965"><ele>176.25</ele><time>2026-05-04T08:41:47.591Z</time></trkpt><trkpt lat="41.5333945" lon="-0.5715315"><ele>176.5</ele><time>2026-05-04T08:41:48.596Z</time></trkpt><trkpt lat="41.5333392" lon="-0.571369"><ele>176.75</ele><time>2026-05-04T08:41:49.592Z</time></trkpt><trkpt lat="41.5332828" lon="-0.5712099"><ele>177.0</ele><time>2026-05-04T08:41:50.609Z</time></trkpt><trkpt lat="41.5332262" lon="-0.57105"><ele>177.0</ele><time>2026-05-04T08:41:51.59Z</time></trkpt><trkpt lat="41.5331703" lon="-0.5708897"><ele>177.0</ele><time>2026-05-04T08:41:52.591Z</time></trkpt><trkpt lat="41.5331117" lon="-0.5707292"><ele>177.0</ele><time>2026-05-04T08:41:53.592Z</time></trkpt><trkpt lat="41.5330529" lon="-0.5705685"><ele>177.0</ele><time>2026-05-04T08:41:54.593Z</time></trkpt><trkpt lat="41.5329965" lon="-0.5704057"><ele>177.0</ele><time>2026-05-04T08:41:55.588Z</time></trkpt><trkpt lat="41.5329379" lon="-0.5702491"><ele>177.0</ele><time>2026-05-04T08:41:56.596Z</time></trkpt><trkpt lat="41.5328703" lon="-0.5700801"><ele>177.0</ele><time>2026-05-04T08:41:57.592Z</time></trkpt><trkpt lat="41.5328113" lon="-0.5699137"><ele>177.0</ele><time>2026-05-04T08:41:58.592Z</time></trkpt><trkpt lat="41.5327586" lon="-0.5697428"><ele>177.0</ele><time>2026-05-04T08:41:59.59Z</time></trkpt><trkpt lat="41.5327025" lon="-0.5695703"><ele>177.0</ele><time>2026-05-04T08:42:00.595Z</time></trkpt><trkpt lat="41.5326435" lon="-0.5693964"><ele>177.0</ele><time>2026-05-04T08:42:01.587Z</time></trkpt><trkpt lat="41.5325884" lon="-0.5692313"><ele>177.0</ele><time>2026-05-04T08:42:02.587Z</time></trkpt><trkpt lat="41.5325283" lon="-0.5690623"><ele>177.0</ele><time>2026-05-04T08:42:03.58Z</time></trkpt><trkpt lat="41.5324679" lon="-0.5688973"><ele>177.0</ele><time>2026-05-04T08:42:04.586Z</time></trkpt><trkpt lat="41.5324053" lon="-0.5687313"><ele>177.0</ele><time>2026-05-04T08:42:05.587Z</time></trkpt><trkpt lat="41.5323504" lon="-0.5685689"><ele>177.0</ele><time>2026-05-04T08:42:06.594Z</time></trkpt><trkpt lat="41.5322901" lon="-0.5684031"><ele>177.0</ele><time>2026-05-04T08:42:07.594Z</time></trkpt><trkpt lat="41.5322425" lon="-0.5682384"><ele>177.0</ele><time>2026-05-04T08:42:08.593Z</time></trkpt><trkpt lat="41.5321849" lon="-0.5680656"><ele>177.0</ele><time>2026-05-04T08:42:09.589Z</time></trkpt><trkpt lat="41.5321239" lon="-0.5679039"><ele>177.0</ele><time>2026-05-04T08:42:10.59Z</time></trkpt><trkpt lat="41.5320657" lon="-0.5677406"><ele>177.0</ele><time>2026-05-04T08:42:11.591Z</time></trkpt><trkpt lat="41.531958" lon="-0.5674144"><ele>177.0</ele><time>2026-05-04T08:42:13.599Z</time></trkpt><trkpt lat="41.5319077" lon="-0.567251"><ele>177.0</ele><time>2026-05-04T08:42:14.591Z</time></trkpt><trkpt lat="41.531846" lon="-0.5670904"><ele>177.5</ele><time>2026-05-04T08:42:15.589Z</time></trkpt><trkpt lat="41.5317886" lon="-0.5669266"><ele>178.0</ele><time>2026-05-04T08:42:16.592Z</time></trkpt><trkpt lat="41.5317315" lon="-0.5667693"><ele>178.5</ele><time>2026-05-04T08:42:17.589Z</time></trkpt><trkpt lat="41.5316711" lon="-0.5666"><ele>179.0</ele><time>2026-05-04T08:42:18.59Z</time></trkpt><trkpt lat="41.5316188" lon="-0.566439"><ele>179.0</ele><time>2026-05-04T08:42:19.591Z</time></trkpt><trkpt lat="41.5315667" lon="-0.5662761"><ele>179.0</ele><time>2026-05-04T08:42:20.591Z</time></trkpt><trkpt lat="41.5315041" lon="-0.5661069"><ele>179.0</ele><time>2026-05-04T08:42:21.604Z</time></trkpt><trkpt lat="41.5314487" lon="-0.5659398"><ele>179.0</ele><time>2026-05-04T08:42:22.595Z</time></trkpt><trkpt lat="41.5314034" lon="-0.5657769"><ele>179.0</ele><time>2026-05-04T08:42:23.589Z</time></trkpt><trkpt lat="41.5313493" lon="-0.5656085"><ele>179.0</ele><time>2026-05-04T08:42:24.593Z</time></trkpt><trkpt lat="41.5312946" lon="-0.5654387"><ele>179.0</ele><time>2026-05-04T08:42:25.591Z</time></trkpt><trkpt lat="41.5312359" lon="-0.5652684"><ele>179.0</ele><time>2026-05-04T08:42:26.592Z</time></trkpt><trkpt lat="41.5311878" lon="-0.5650982"><ele>178.75</ele><time>2026-05-04T08:42:27.59Z</time></trkpt><trkpt lat="41.5311375" lon="-0.5649187"><ele>178.5</ele><time>2026-05-04T08:42:28.594Z</time></trkpt><trkpt lat="41.53109" lon="-0.5647441"><ele>178.25</ele><time>2026-05-04T08:42:29.594Z</time></trkpt><trkpt lat="41.5310333" lon="-0.5645741"><ele>178.0</ele><time>2026-05-04T08:42:30.583Z</time></trkpt><trkpt lat="41.5309722" lon="-0.5643868"><ele>178.0</ele><time>2026-05-04T08:42:31.59Z</time></trkpt><trkpt lat="41.53093" lon="-0.5641978"><ele>178.0</ele><time>2026-05-04T08:42:32.591Z</time></trkpt><trkpt lat="41.5308827" lon="-0.5640132"><ele>178.0</ele><time>2026-05-04T08:42:33.591Z</time></trkpt><trkpt lat="41.5308323" lon="-0.5638361"><ele>178.0</ele><time>2026-05-04T08:42:34.594Z</time></trkpt><trkpt lat="41.5307814" lon="-0.5636715"><ele>177.75</ele><time>2026-05-04T08:42:35.588Z</time></trkpt><trkpt lat="41.5307405" lon="-0.5635063"><ele>177.5</ele><time>2026-05-04T08:42:36.595Z</time></trkpt><trkpt lat="41.5306952" lon="-0.5633335"><ele>177.25</ele><time>2026-05-04T08:42:37.591Z</time></trkpt><trkpt lat="41.5306589" lon="-0.5631696"><ele>177.0</ele><time>2026-05-04T08:42:38.588Z</time></trkpt><trkpt lat="41.530609" lon="-0.5629894"><ele>177.0</ele><time>2026-05-04T08:42:39.595Z</time></trkpt><trkpt lat="41.5305588" lon="-0.5628223"><ele>177.0</ele><time>2026-05-04T08:42:40.588Z</time></trkpt><trkpt lat="41.5305109" lon="-0.5626447"><ele>177.0</ele><time>2026-05-04T08:42:41.588Z</time></trkpt><trkpt lat="41.5304565" lon="-0.5624634"><ele>177.0</ele><time>2026-05-04T08:42:42.59Z</time></trkpt><trkpt lat="41.5304108" lon="-0.5622805"><ele>177.0</ele><time>2026-05-04T08:42:43.592Z</time></trkpt><trkpt lat="41.5303572" lon="-0.5621097"><ele>177.0</ele><time>2026-05-04T08:42:44.59Z</time></trkpt><trkpt lat="41.5303115" lon="-0.561935"><ele>177.0</ele><time>2026-05-04T08:42:45.583Z</time></trkpt><trkpt lat="41.5302644" lon="-0.5617537"><ele>177.0</ele><time>2026-05-04T08:42:46.597Z</time></trkpt><trkpt lat="41.5302156" lon="-0.5615769"><ele>177.0</ele><time>2026-05-04T08:42:47.589Z</time></trkpt><trkpt lat="41.5301698" lon="-0.5614046"><ele>177.0</ele><time>2026-05-04T08:42:48.601Z</time></trkpt><trkpt lat="41.5301188" lon="-0.561233"><ele>177.0</ele><time>2026-05-04T08:42:49.583Z</time></trkpt><trkpt lat="41.5300661" lon="-0.5610564"><ele>177.0</ele><time>2026-05-04T08:42:50.605Z</time></trkpt><trkpt lat="41.5300153" lon="-0.5608834"><ele>177.0</ele><time>2026-05-04T08:42:51.593Z</time></trkpt><trkpt lat="41.5299692" lon="-0.5607118"><ele>177.0</ele><time>2026-05-04T08:42:52.608Z</time></trkpt><trkpt lat="41.5299208" lon="-0.5605352"><ele>177.0</ele><time>2026-05-04T08:42:53.588Z</time></trkpt><trkpt lat="41.5298699" lon="-0.5603579"><ele>177.0</ele><time>2026-05-04T08:42:54.592Z</time></trkpt><trkpt lat="41.5298167" lon="-0.5601776"><ele>177.0</ele><time>2026-05-04T08:42:55.59Z</time></trkpt><trkpt lat="41.5297694" lon="-0.560016"><ele>177.0</ele><time>2026-05-04T08:42:56.594Z</time></trkpt><trkpt lat="41.5297254" lon="-0.5598356"><ele>177.0</ele><time>2026-05-04T08:42:57.59Z</time></trkpt><trkpt lat="41.5296788" lon="-0.5596565"><ele>177.0</ele><time>2026-05-04T08:42:58.591Z</time></trkpt><trkpt lat="41.529625" lon="-0.5594792"><ele>176.33333333333334</ele><time>2026-05-04T08:42:59.59Z</time></trkpt><trkpt lat="41.5295355" lon="-0.5591191"><ele>175.66666666666669</ele><time>2026-05-04T08:43:01.592Z</time></trkpt><trkpt lat="41.5294908" lon="-0.5589375"><ele>175.0</ele><time>2026-05-04T08:43:02.591Z</time></trkpt><trkpt lat="41.5294477" lon="-0.5587537"><ele>175.0</ele><time>2026-05-04T08:43:03.59Z</time></trkpt><trkpt lat="41.529401" lon="-0.5585607"><ele>175.0</ele><time>2026-05-04T08:43:04.59Z</time></trkpt><trkpt lat="41.5293519" lon="-0.5583593"><ele>175.0</ele><time>2026-05-04T08:43:05.588Z</time></trkpt><trkpt lat="41.5293003" lon="-0.558163"><ele>175.0</ele><time>2026-05-04T08:43:06.593Z</time></trkpt><trkpt lat="41.5292551" lon="-0.5579648"><ele>175.0</ele><time>2026-05-04T08:43:07.591Z</time></trkpt><trkpt lat="41.5292059" lon="-0.5577663"><ele>175.0</ele><time>2026-05-04T08:43:08.589Z</time></trkpt><trkpt lat="41.5291583" lon="-0.5575665"><ele>175.0</ele><time>2026-05-04T08:43:09.591Z</time></trkpt><trkpt lat="41.5291071" lon="-0.5573761"><ele>175.0</ele><time>2026-05-04T08:43:10.591Z</time></trkpt><trkpt lat="41.5290632" lon="-0.5571963"><ele>175.0</ele><time>2026-05-04T08:43:11.59Z</time></trkpt><trkpt lat="41.5290198" lon="-0.5570201"><ele>175.0</ele><time>2026-05-04T08:43:12.589Z</time></trkpt><trkpt lat="41.5289759" lon="-0.5568392"><ele>175.0</ele><time>2026-05-04T08:43:13.593Z</time></trkpt><trkpt lat="41.5289336" lon="-0.5566514"><ele>175.0</ele><time>2026-05-04T08:43:14.587Z</time></trkpt><trkpt lat="41.5288936" lon="-0.5564706"><ele>175.0</ele><time>2026-05-04T08:43:15.584Z</time></trkpt><trkpt lat="41.5288485" lon="-0.5562844"><ele>175.0</ele><time>2026-05-04T08:43:16.584Z</time></trkpt><trkpt lat="41.5288048" lon="-0.5561064"><ele>175.25</ele><time>2026-05-04T08:43:17.585Z</time></trkpt><trkpt lat="41.5287569" lon="-0.5559265"><ele>175.5</ele><time>2026-05-04T08:43:18.586Z</time></trkpt><trkpt lat="41.5287089" lon="-0.555743"><ele>175.75</ele><time>2026-05-04T08:43:19.584Z</time></trkpt><trkpt lat="41.5286632" lon="-0.5555429"><ele>176.0</ele><time>2026-05-04T08:43:20.585Z</time></trkpt><trkpt lat="41.5286146" lon="-0.5553566"><ele>175.5</ele><time>2026-05-04T08:43:21.59Z</time></trkpt><trkpt lat="41.5285746" lon="-0.5551759"><ele>175.0</ele><time>2026-05-04T08:43:22.591Z</time></trkpt><trkpt lat="41.5285371" lon="-0.5549936"><ele>174.5</ele><time>2026-05-04T08:43:23.606Z</time></trkpt><trkpt lat="41.5284901" lon="-0.5548033"><ele>174.0</ele><time>2026-05-04T08:43:24.59Z</time></trkpt><trkpt lat="41.5284429" lon="-0.5546142"><ele>173.75</ele><time>2026-05-04T08:43:25.591Z</time></trkpt><trkpt lat="41.528398" lon="-0.5544224"><ele>173.5</ele><time>2026-05-04T08:43:26.594Z</time></trkpt><trkpt lat="41.5283519" lon="-0.5542399"><ele>173.25</ele><time>2026-05-04T08:43:27.591Z</time></trkpt><trkpt lat="41.5282986" lon="-0.554054"><ele>173.0</ele><time>2026-05-04T08:43:28.596Z</time></trkpt><trkpt lat="41.5282507" lon="-0.5538645"><ele>173.0</ele><time>2026-05-04T08:43:29.59Z</time></trkpt><trkpt lat="41.5282057" lon="-0.553669"><ele>173.0</ele><time>2026-05-04T08:43:30.595Z</time></trkpt><trkpt lat="41.5281583" lon="-0.5534774"><ele>173.0</ele><time>2026-05-04T08:43:31.592Z</time></trkpt><trkpt lat="41.5281145" lon="-0.5532833"><ele>173.0</ele><time>2026-05-04T08:43:32.592Z</time></trkpt><trkpt lat="41.5280653" lon="-0.5530816"><ele>173.0</ele><time>2026-05-04T08:43:33.589Z</time></trkpt><trkpt lat="41.5280186" lon="-0.5528838"><ele>173.0</ele><time>2026-05-04T08:43:34.599Z</time></trkpt><trkpt lat="41.5279701" lon="-0.552684"><ele>173.33333333333331</ele><time>2026-05-04T08:43:35.591Z</time></trkpt><trkpt lat="41.5279223" lon="-0.5524912"><ele>173.66666666666666</ele><time>2026-05-04T08:43:36.595Z</time></trkpt><trkpt lat="41.5278746" lon="-0.5522933"><ele>174.0</ele><time>2026-05-04T08:43:37.591Z</time></trkpt><trkpt lat="41.5278302" lon="-0.5520991"><ele>173.66666666666666</ele><time>2026-05-04T08:43:38.593Z</time></trkpt><trkpt lat="41.5277803" lon="-0.5518994"><ele>173.33333333333331</ele><time>2026-05-04T08:43:39.593Z</time></trkpt><trkpt lat="41.5277393" lon="-0.5517115"><ele>173.0</ele><time>2026-05-04T08:43:40.593Z</time></trkpt><trkpt lat="41.5276935" lon="-0.551518"><ele>173.0</ele><time>2026-05-04T08:43:41.592Z</time></trkpt><trkpt lat="41.5276426" lon="-0.5513233"><ele>173.0</ele><time>2026-05-04T08:43:42.59Z</time></trkpt><trkpt lat="41.5275896" lon="-0.5511245"><ele>173.0</ele><time>2026-05-04T08:43:43.592Z</time></trkpt><trkpt lat="41.5275427" lon="-0.550932"><ele>173.0</ele><time>2026-05-04T08:43:44.591Z</time></trkpt><trkpt lat="41.5274985" lon="-0.5507355"><ele>173.0</ele><time>2026-05-04T08:43:45.59Z</time></trkpt><trkpt lat="41.5274545" lon="-0.5505326"><ele>173.0</ele><time>2026-05-04T08:43:46.592Z</time></trkpt><trkpt lat="41.5274044" lon="-0.5503489"><ele>173.0</ele><time>2026-05-04T08:43:47.589Z</time></trkpt><trkpt lat="41.5273574" lon="-0.55015"><ele>173.0</ele><time>2026-05-04T08:43:48.593Z</time></trkpt><trkpt lat="41.5273119" lon="-0.5499644"><ele>173.0</ele><time>2026-05-04T08:43:49.585Z</time></trkpt><trkpt lat="41.5272758" lon="-0.5497799"><ele>173.0</ele><time>2026-05-04T08:43:50.589Z</time></trkpt><trkpt lat="41.5272344" lon="-0.5495843"><ele>173.0</ele><time>2026-05-04T08:43:51.589Z</time></trkpt><trkpt lat="41.5271811" lon="-0.5493814"><ele>173.0</ele><time>2026-05-04T08:43:52.592Z</time></trkpt><trkpt lat="41.5271318" lon="-0.5491844"><ele>173.0</ele><time>2026-05-04T08:43:53.592Z</time></trkpt><trkpt lat="41.5270876" lon="-0.5489938"><ele>172.0</ele><time>2026-05-04T08:43:54.609Z</time></trkpt><trkpt lat="41.5270439" lon="-0.5488083"><ele>171.0</ele><time>2026-05-04T08:43:55.593Z</time></trkpt><trkpt lat="41.5269979" lon="-0.5486171"><ele>170.0</ele><time>2026-05-04T08:43:56.597Z</time></trkpt><trkpt lat="41.5269489" lon="-0.5484348"><ele>169.0</ele><time>2026-05-04T08:43:57.59Z</time></trkpt><trkpt lat="41.5269013" lon="-0.548246"><ele>169.0</ele><time>2026-05-04T08:43:58.593Z</time></trkpt><trkpt lat="41.5268423" lon="-0.5480465"><ele>169.0</ele><time>2026-05-04T08:43:59.594Z</time></trkpt><trkpt lat="41.5267903" lon="-0.547844"><ele>169.0</ele><time>2026-05-04T08:44:00.593Z</time></trkpt><trkpt lat="41.5267435" lon="-0.5476599"><ele>169.5</ele><time>2026-05-04T08:44:01.591Z</time></trkpt><trkpt lat="41.5266973" lon="-0.5474774"><ele>170.0</ele><time>2026-05-04T08:44:02.591Z</time></trkpt><trkpt lat="41.5266509" lon="-0.5472979"><ele>170.5</ele><time>2026-05-04T08:44:03.59Z</time></trkpt><trkpt lat="41.5266057" lon="-0.5471059"><ele>171.0</ele><time>2026-05-04T08:44:04.588Z</time></trkpt><trkpt lat="41.526564" lon="-0.5469163"><ele>171.25</ele><time>2026-05-04T08:44:05.586Z</time></trkpt><trkpt lat="41.5265267" lon="-0.5467425"><ele>171.5</ele><time>2026-05-04T08:44:06.592Z</time></trkpt><trkpt lat="41.5264813" lon="-0.5465635"><ele>171.75</ele><time>2026-05-04T08:44:07.591Z</time></trkpt><trkpt lat="41.5264361" lon="-0.5463816"><ele>172.0</ele><time>2026-05-04T08:44:08.589Z</time></trkpt><trkpt lat="41.5263935" lon="-0.5461942"><ele>172.25</ele><time>2026-05-04T08:44:09.592Z</time></trkpt><trkpt lat="41.5263536" lon="-0.5460073"><ele>172.5</ele><time>2026-05-04T08:44:10.587Z</time></trkpt><trkpt lat="41.5263064" lon="-0.545816"><ele>172.75</ele><time>2026-05-04T08:44:11.591Z</time></trkpt><trkpt lat="41.5262621" lon="-0.545631"><ele>173.0</ele><time>2026-05-04T08:44:12.59Z</time></trkpt><trkpt lat="41.5262209" lon="-0.5454427"><ele>173.0</ele><time>2026-05-04T08:44:13.589Z</time></trkpt><trkpt lat="41.5261777" lon="-0.5452603"><ele>173.0</ele><time>2026-05-04T08:44:14.59Z</time></trkpt><trkpt lat="41.5261335" lon="-0.5450849"><ele>173.0</ele><time>2026-05-04T08:44:15.594Z</time></trkpt><trkpt lat="41.5260895" lon="-0.5449004"><ele>173.0</ele><time>2026-05-04T08:44:16.591Z</time></trkpt><trkpt lat="41.5260434" lon="-0.5447095"><ele>173.66666666666666</ele><time>2026-05-04T08:44:17.588Z</time></trkpt><trkpt lat="41.5259994" lon="-0.5445093"><ele>174.33333333333334</ele><time>2026-05-04T08:44:18.589Z</time></trkpt><trkpt lat="41.5259521" lon="-0.5443136"><ele>175.0</ele><time>2026-05-04T08:44:19.59Z</time></trkpt><trkpt lat="41.5259018" lon="-0.5441267"><ele>175.0</ele><time>2026-05-04T08:44:20.589Z</time></trkpt><trkpt lat="41.5258565" lon="-0.5439386"><ele>175.0</ele><time>2026-05-04T08:44:21.593Z</time></trkpt><trkpt lat="41.525809" lon="-0.5437504"><ele>175.0</ele><time>2026-05-04T08:44:22.589Z</time></trkpt><trkpt lat="41.5257655" lon="-0.543574"><ele>175.0</ele><time>2026-05-04T08:44:23.589Z</time></trkpt><trkpt lat="41.5257227" lon="-0.5433745"><ele>174.75</ele><time>2026-05-04T08:44:24.594Z</time></trkpt><trkpt lat="41.5256791" lon="-0.5431785"><ele>174.5</ele><time>2026-05-04T08:44:25.608Z</time></trkpt><trkpt lat="41.5256277" lon="-0.5429918"><ele>174.25</ele><time>2026-05-04T08:44:26.594Z</time></trkpt><trkpt lat="41.5255857" lon="-0.5428039"><ele>174.0</ele><time>2026-05-04T08:44:27.593Z</time></trkpt><trkpt lat="41.5255379" lon="-0.5426225"><ele>174.0</ele><time>2026-05-04T08:44:28.595Z</time></trkpt><trkpt lat="41.5254914" lon="-0.5424352"><ele>174.0</ele><time>2026-05-04T08:44:29.595Z</time></trkpt><trkpt lat="41.5254433" lon="-0.5422518"><ele>174.0</ele><time>2026-05-04T08:44:30.598Z</time></trkpt><trkpt lat="41.5253988" lon="-0.5420645"><ele>174.0</ele><time>2026-05-04T08:44:31.594Z</time></trkpt><trkpt lat="41.5253581" lon="-0.5418737"><ele>173.5</ele><time>2026-05-04T08:44:32.591Z</time></trkpt><trkpt lat="41.5253074" lon="-0.5416816"><ele>173.0</ele><time>2026-05-04T08:44:33.592Z</time></trkpt><trkpt lat="41.5252629" lon="-0.5414993"><ele>172.5</ele><time>2026-05-04T08:44:34.591Z</time></trkpt><trkpt lat="41.5252217" lon="-0.5413184"><ele>172.0</ele><time>2026-05-04T08:44:35.592Z</time></trkpt><trkpt lat="41.525176" lon="-0.5411345"><ele>171.75</ele><time>2026-05-04T08:44:36.591Z</time></trkpt><trkpt lat="41.525129" lon="-0.540956"><ele>171.5</ele><time>2026-05-04T08:44:37.588Z</time></trkpt><trkpt lat="41.5250825" lon="-0.5407776"><ele>171.25</ele><time>2026-05-04T08:44:38.592Z</time></trkpt><trkpt lat="41.5250379" lon="-0.5405954"><ele>171.0</ele><time>2026-05-04T08:44:39.587Z</time></trkpt><trkpt lat="41.5249849" lon="-0.5404105"><ele>171.0</ele><time>2026-05-04T08:44:40.589Z</time></trkpt><trkpt lat="41.5249352" lon="-0.5402239"><ele>171.0</ele><time>2026-05-04T08:44:41.591Z</time></trkpt><trkpt lat="41.5248942" lon="-0.5400359"><ele>171.0</ele><time>2026-05-04T08:44:42.591Z</time></trkpt><trkpt lat="41.5248526" lon="-0.5398476"><ele>171.0</ele><time>2026-05-04T08:44:43.595Z</time></trkpt><trkpt lat="41.524801" lon="-0.5396574"><ele>171.25</ele><time>2026-05-04T08:44:44.592Z</time></trkpt><trkpt lat="41.5247545" lon="-0.5394741"><ele>171.5</ele><time>2026-05-04T08:44:45.591Z</time></trkpt><trkpt lat="41.5247088" lon="-0.5392966"><ele>171.75</ele><time>2026-05-04T08:44:46.597Z</time></trkpt><trkpt lat="41.5246634" lon="-0.5391126"><ele>172.0</ele><time>2026-05-04T08:44:47.591Z</time></trkpt><trkpt lat="41.5246204" lon="-0.5389308"><ele>172.0</ele><time>2026-05-04T08:44:48.591Z</time></trkpt><trkpt lat="41.5245715" lon="-0.5387363"><ele>172.0</ele><time>2026-05-04T08:44:49.59Z</time></trkpt><trkpt lat="41.5245313" lon="-0.5385538"><ele>172.0</ele><time>2026-05-04T08:44:50.59Z</time></trkpt><trkpt lat="41.5244872" lon="-0.5383745"><ele>172.0</ele><time>2026-05-04T08:44:51.593Z</time></trkpt><trkpt lat="41.5244459" lon="-0.5381944"><ele>171.75</ele><time>2026-05-04T08:44:52.593Z</time></trkpt><trkpt lat="41.5244002" lon="-0.5380079"><ele>171.5</ele><time>2026-05-04T08:44:53.593Z</time></trkpt><trkpt lat="41.5243589" lon="-0.5378242"><ele>171.25</ele><time>2026-05-04T08:44:54.594Z</time></trkpt><trkpt lat="41.5243177" lon="-0.5376373"><ele>171.0</ele><time>2026-05-04T08:44:55.59Z</time></trkpt><trkpt lat="41.5242752" lon="-0.5374583"><ele>171.0</ele><time>2026-05-04T08:44:56.625Z</time></trkpt><trkpt lat="41.5242368" lon="-0.5372819"><ele>171.0</ele><time>2026-05-04T08:44:57.595Z</time></trkpt><trkpt lat="41.5241951" lon="-0.5371032"><ele>171.0</ele><time>2026-05-04T08:44:58.593Z</time></trkpt><trkpt lat="41.5241495" lon="-0.5369178"><ele>171.0</ele><time>2026-05-04T08:44:59.591Z</time></trkpt><trkpt lat="41.5241058" lon="-0.5367361"><ele>171.0</ele><time>2026-05-04T08:45:00.595Z</time></trkpt><trkpt lat="41.5240616" lon="-0.5365514"><ele>171.0</ele><time>2026-05-04T08:45:01.593Z</time></trkpt><trkpt lat="41.524013" lon="-0.5363645"><ele>171.0</ele><time>2026-05-04T08:45:02.591Z</time></trkpt><trkpt lat="41.5239642" lon="-0.5361807"><ele>171.0</ele><time>2026-05-04T08:45:03.59Z</time></trkpt><trkpt lat="41.523919" lon="-0.5359877"><ele>171.0</ele><time>2026-05-04T08:45:04.59Z</time></trkpt><trkpt lat="41.5238734" lon="-0.5358057"><ele>171.0</ele><time>2026-05-04T08:45:05.589Z</time></trkpt><trkpt lat="41.5238183" lon="-0.5356242"><ele>171.0</ele><time>2026-05-04T08:45:06.591Z</time></trkpt><trkpt lat="41.52377" lon="-0.5354491"><ele>171.0</ele><time>2026-05-04T08:45:07.592Z</time></trkpt><trkpt lat="41.5237183" lon="-0.5352685"><ele>171.25</ele><time>2026-05-04T08:45:08.592Z</time></trkpt><trkpt lat="41.5236619" lon="-0.5350925"><ele>171.5</ele><time>2026-05-04T08:45:09.594Z</time></trkpt><trkpt lat="41.5235967" lon="-0.5349152"><ele>171.75</ele><time>2026-05-04T08:45:10.585Z</time></trkpt><trkpt lat="41.5235319" lon="-0.5347341"><ele>172.0</ele><time>2026-05-04T08:45:11.596Z</time></trkpt><trkpt lat="41.5234648" lon="-0.5345631"><ele>172.0</ele><time>2026-05-04T08:45:12.591Z</time></trkpt><trkpt lat="41.5233875" lon="-0.5343816"><ele>172.0</ele><time>2026-05-04T08:45:13.594Z</time></trkpt><trkpt lat="41.5233139" lon="-0.5342122"><ele>172.0</ele><time>2026-05-04T08:45:14.594Z</time></trkpt><trkpt lat="41.5232432" lon="-0.5340404"><ele>172.0</ele><time>2026-05-04T08:45:15.589Z</time></trkpt><trkpt lat="41.5231771" lon="-0.533871"><ele>172.0</ele><time>2026-05-04T08:45:16.594Z</time></trkpt><trkpt lat="41.5231047" lon="-0.5336978"><ele>172.0</ele><time>2026-05-04T08:45:17.588Z</time></trkpt><trkpt lat="41.5230322" lon="-0.53353"><ele>172.0</ele><time>2026-05-04T08:45:18.589Z</time></trkpt><trkpt lat="41.5229582" lon="-0.5333529"><ele>172.0</ele><time>2026-05-04T08:45:19.587Z</time></trkpt><trkpt lat="41.5228961" lon="-0.5331731"><ele>172.0</ele><time>2026-05-04T08:45:20.59Z</time></trkpt><trkpt lat="41.5228239" lon="-0.5330012"><ele>172.0</ele><time>2026-05-04T08:45:21.592Z</time></trkpt><trkpt lat="41.5227511" lon="-0.5328329"><ele>172.0</ele><time>2026-05-04T08:45:22.593Z</time></trkpt><trkpt lat="41.5226845" lon="-0.5326749"><ele>172.0</ele><time>2026-05-04T08:45:23.587Z</time></trkpt><trkpt lat="41.5226217" lon="-0.5324999"><ele>172.0</ele><time>2026-05-04T08:45:24.597Z</time></trkpt><trkpt lat="41.5225573" lon="-0.5323454"><ele>172.0</ele><time>2026-05-04T08:45:25.584Z</time></trkpt><trkpt lat="41.5224956" lon="-0.5321876"><ele>172.0</ele><time>2026-05-04T08:45:26.599Z</time></trkpt><trkpt lat="41.5224259" lon="-0.5320267"><ele>172.25</ele><time>2026-05-04T08:45:27.595Z</time></trkpt><trkpt lat="41.5223592" lon="-0.5318504"><ele>172.5</ele><time>2026-05-04T08:45:28.596Z</time></trkpt><trkpt lat="41.5222885" lon="-0.5316983"><ele>172.75</ele><time>2026-05-04T08:45:29.592Z</time></trkpt><trkpt lat="41.5222295" lon="-0.5315458"><ele>173.0</ele><time>2026-05-04T08:45:30.578Z</time></trkpt><trkpt lat="41.5221642" lon="-0.5313962"><ele>173.0</ele><time>2026-05-04T08:45:31.592Z</time></trkpt><trkpt lat="41.5220989" lon="-0.5312427"><ele>173.0</ele><time>2026-05-04T08:45:32.594Z</time></trkpt><trkpt lat="41.5220353" lon="-0.531084"><ele>173.0</ele><time>2026-05-04T08:45:33.593Z</time></trkpt><trkpt lat="41.5219708" lon="-0.5309234"><ele>173.0</ele><time>2026-05-04T08:45:34.596Z</time></trkpt><trkpt lat="41.52191" lon="-0.5307599"><ele>172.75</ele><time>2026-05-04T08:45:35.599Z</time></trkpt><trkpt lat="41.5218403" lon="-0.5305983"><ele>172.5</ele><time>2026-05-04T08:45:36.599Z</time></trkpt><trkpt lat="41.5217716" lon="-0.5304296"><ele>172.25</ele><time>2026-05-04T08:45:37.597Z</time></trkpt><trkpt lat="41.5217012" lon="-0.5302645"><ele>172.0</ele><time>2026-05-04T08:45:38.599Z</time></trkpt><trkpt lat="41.5216358" lon="-0.5301011"><ele>172.0</ele><time>2026-05-04T08:45:39.599Z</time></trkpt><trkpt lat="41.521572" lon="-0.5299401"><ele>172.0</ele><time>2026-05-04T08:45:40.602Z</time></trkpt><trkpt lat="41.5215078" lon="-0.5297732"><ele>172.0</ele><time>2026-05-04T08:45:41.598Z</time></trkpt><trkpt lat="41.5214336" lon="-0.5296092"><ele>172.0</ele><time>2026-05-04T08:45:42.601Z</time></trkpt><trkpt lat="41.5213631" lon="-0.5294371"><ele>172.0</ele><time>2026-05-04T08:45:43.608Z</time></trkpt><trkpt lat="41.5212945" lon="-0.5292665"><ele>172.0</ele><time>2026-05-04T08:45:44.599Z</time></trkpt><trkpt lat="41.5212287" lon="-0.5291013"><ele>172.0</ele><time>2026-05-04T08:45:45.602Z</time></trkpt><trkpt lat="41.5211561" lon="-0.5289388"><ele>172.0</ele><time>2026-05-04T08:45:46.598Z</time></trkpt><trkpt lat="41.5210839" lon="-0.5287759"><ele>172.0</ele><time>2026-05-04T08:45:47.596Z</time></trkpt><trkpt lat="41.5210145" lon="-0.5286057"><ele>172.0</ele><time>2026-05-04T08:45:48.597Z</time></trkpt><trkpt lat="41.520943" lon="-0.5284299"><ele>172.0</ele><time>2026-05-04T08:45:49.595Z</time></trkpt><trkpt lat="41.5208754" lon="-0.5282598"><ele>172.0</ele><time>2026-05-04T08:45:50.598Z</time></trkpt><trkpt lat="41.5207989" lon="-0.5280908"><ele>172.0</ele><time>2026-05-04T08:45:51.597Z</time></trkpt><trkpt lat="41.5207254" lon="-0.5279239"><ele>172.0</ele><time>2026-05-04T08:45:52.598Z</time></trkpt><trkpt lat="41.520653" lon="-0.5277692"><ele>172.0</ele><time>2026-05-04T08:45:53.594Z</time></trkpt><trkpt lat="41.5205816" lon="-0.5276036"><ele>172.0</ele><time>2026-05-04T08:45:54.595Z</time></trkpt><trkpt lat="41.5205133" lon="-0.5274396"><ele>172.25</ele><time>2026-05-04T08:45:55.594Z</time></trkpt><trkpt lat="41.520438" lon="-0.5272764"><ele>172.5</ele><time>2026-05-04T08:45:56.594Z</time></trkpt><trkpt lat="41.5203687" lon="-0.5271104"><ele>172.75</ele><time>2026-05-04T08:45:57.608Z</time></trkpt><trkpt lat="41.5202967" lon="-0.5269446"><ele>173.0</ele><time>2026-05-04T08:45:58.593Z</time></trkpt><trkpt lat="41.5202216" lon="-0.5267774"><ele>173.0</ele><time>2026-05-04T08:45:59.592Z</time></trkpt><trkpt lat="41.5201595" lon="-0.5266099"><ele>173.0</ele><time>2026-05-04T08:46:00.59Z</time></trkpt><trkpt lat="41.5200923" lon="-0.5264394"><ele>173.0</ele><time>2026-05-04T08:46:01.594Z</time></trkpt><trkpt lat="41.5200229" lon="-0.5262683"><ele>173.0</ele><time>2026-05-04T08:46:02.593Z</time></trkpt><trkpt lat="41.5199503" lon="-0.5260947"><ele>173.5</ele><time>2026-05-04T08:46:03.593Z</time></trkpt><trkpt lat="41.5198777" lon="-0.5259223"><ele>174.0</ele><time>2026-05-04T08:46:04.598Z</time></trkpt><trkpt lat="41.5198023" lon="-0.5257537"><ele>174.5</ele><time>2026-05-04T08:46:05.59Z</time></trkpt><trkpt lat="41.5197267" lon="-0.5255852"><ele>175.0</ele><time>2026-05-04T08:46:06.594Z</time></trkpt><trkpt lat="41.519655" lon="-0.5254059"><ele>175.75</ele><time>2026-05-04T08:46:07.591Z</time></trkpt><trkpt lat="41.5195837" lon="-0.5252294"><ele>176.5</ele><time>2026-05-04T08:46:08.59Z</time></trkpt><trkpt lat="41.5195079" lon="-0.5250561"><ele>177.25</ele><time>2026-05-04T08:46:09.588Z</time></trkpt><trkpt lat="41.519435" lon="-0.5248825"><ele>178.0</ele><time>2026-05-04T08:46:10.588Z</time></trkpt><trkpt lat="41.5193568" lon="-0.5247064"><ele>177.25</ele><time>2026-05-04T08:46:11.588Z</time></trkpt><trkpt lat="41.5192798" lon="-0.5245388"><ele>176.5</ele><time>2026-05-04T08:46:12.589Z</time></trkpt><trkpt lat="41.519206" lon="-0.5243711"><ele>175.75</ele><time>2026-05-04T08:46:13.591Z</time></trkpt><trkpt lat="41.5191355" lon="-0.5241989"><ele>175.0</ele><time>2026-05-04T08:46:14.591Z</time></trkpt><trkpt lat="41.5190619" lon="-0.5240218"><ele>175.0</ele><time>2026-05-04T08:46:15.59Z</time></trkpt><trkpt lat="41.5189883" lon="-0.5238588"><ele>175.0</ele><time>2026-05-04T08:46:16.594Z</time></trkpt><trkpt lat="41.5189142" lon="-0.5236879"><ele>175.0</ele><time>2026-05-04T08:46:17.592Z</time></trkpt><trkpt lat="41.5188393" lon="-0.5235248"><ele>175.0</ele><time>2026-05-04T08:46:18.594Z</time></trkpt><trkpt lat="41.5187665" lon="-0.5233504"><ele>174.75</ele><time>2026-05-04T08:46:19.594Z</time></trkpt><trkpt lat="41.5186973" lon="-0.5231785"><ele>174.5</ele><time>2026-05-04T08:46:20.593Z</time></trkpt><trkpt lat="41.5186235" lon="-0.5230082"><ele>174.25</ele><time>2026-05-04T08:46:21.597Z</time></trkpt><trkpt lat="41.5185545" lon="-0.5228358"><ele>174.0</ele><time>2026-05-04T08:46:22.595Z</time></trkpt><trkpt lat="41.5184799" lon="-0.5226628"><ele>174.0</ele><time>2026-05-04T08:46:23.594Z</time></trkpt><trkpt lat="41.5183975" lon="-0.52249"><ele>174.0</ele><time>2026-05-04T08:46:24.596Z</time></trkpt><trkpt lat="41.5183248" lon="-0.5223296"><ele>174.0</ele><time>2026-05-04T08:46:25.597Z</time></trkpt><trkpt lat="41.5182522" lon="-0.5221567"><ele>174.0</ele><time>2026-05-04T08:46:26.6Z</time></trkpt><trkpt lat="41.5181835" lon="-0.521992"><ele>174.25</ele><time>2026-05-04T08:46:27.594Z</time></trkpt><trkpt lat="41.518121" lon="-0.5218255"><ele>174.5</ele><time>2026-05-04T08:46:28.618Z</time></trkpt><trkpt lat="41.5180575" lon="-0.5216687"><ele>174.75</ele><time>2026-05-04T08:46:29.597Z</time></trkpt><trkpt lat="41.5179838" lon="-0.5215061"><ele>175.0</ele><time>2026-05-04T08:46:30.6Z</time></trkpt><trkpt lat="41.5179153" lon="-0.5213391"><ele>175.0</ele><time>2026-05-04T08:46:31.595Z</time></trkpt><trkpt lat="41.5178483" lon="-0.5211661"><ele>175.0</ele><time>2026-05-04T08:46:32.595Z</time></trkpt><trkpt lat="41.5177757" lon="-0.5210037"><ele>175.0</ele><time>2026-05-04T08:46:33.595Z</time></trkpt><trkpt lat="41.5177003" lon="-0.5208388"><ele>175.0</ele><time>2026-05-04T08:46:34.601Z</time></trkpt><trkpt lat="41.517624" lon="-0.5206742"><ele>175.0</ele><time>2026-05-04T08:46:35.596Z</time></trkpt><trkpt lat="41.5175612" lon="-0.5205065"><ele>175.0</ele><time>2026-05-04T08:46:36.597Z</time></trkpt><trkpt lat="41.5174829" lon="-0.5203366"><ele>175.0</ele><time>2026-05-04T08:46:37.593Z</time></trkpt><trkpt lat="41.5174075" lon="-0.5201668"><ele>175.0</ele><time>2026-05-04T08:46:38.598Z</time></trkpt><trkpt lat="41.5173304" lon="-0.5199908"><ele>174.75</ele><time>2026-05-04T08:46:39.595Z</time></trkpt><trkpt lat="41.5172571" lon="-0.5198288"><ele>174.5</ele><time>2026-05-04T08:46:40.589Z</time></trkpt><trkpt lat="41.5171785" lon="-0.519652"><ele>174.25</ele><time>2026-05-04T08:46:41.597Z</time></trkpt><trkpt lat="41.5170989" lon="-0.5194846"><ele>174.0</ele><time>2026-05-04T08:46:42.598Z</time></trkpt><trkpt lat="41.5170197" lon="-0.51932"><ele>173.25</ele><time>2026-05-04T08:46:43.596Z</time></trkpt><trkpt lat="41.5169459" lon="-0.5191449"><ele>172.5</ele><time>2026-05-04T08:46:44.6Z</time></trkpt><trkpt lat="41.5168715" lon="-0.5189721"><ele>171.75</ele><time>2026-05-04T08:46:45.594Z</time></trkpt><trkpt lat="41.5168023" lon="-0.518795"><ele>171.0</ele><time>2026-05-04T08:46:46.602Z</time></trkpt><trkpt lat="41.5167258" lon="-0.5186286"><ele>172.5</ele><time>2026-05-04T08:46:47.597Z</time></trkpt><trkpt lat="41.5166533" lon="-0.5184607"><ele>174.0</ele><time>2026-05-04T08:46:48.597Z</time></trkpt><trkpt lat="41.5165783" lon="-0.5182873"><ele>175.5</ele><time>2026-05-04T08:46:49.598Z</time></trkpt><trkpt lat="41.5165038" lon="-0.5181144"><ele>177.0</ele><time>2026-05-04T08:46:50.6Z</time></trkpt><trkpt lat="41.5164267" lon="-0.5179446"><ele>176.75</ele><time>2026-05-04T08:46:51.599Z</time></trkpt><trkpt lat="41.516359" lon="-0.5177737"><ele>176.5</ele><time>2026-05-04T08:46:52.597Z</time></trkpt><trkpt lat="41.5162832" lon="-0.5175942"><ele>176.25</ele><time>2026-05-04T08:46:53.596Z</time></trkpt><trkpt lat="41.5162206" lon="-0.5174129"><ele>176.0</ele><time>2026-05-04T08:46:54.581Z</time></trkpt><trkpt lat="41.5161574" lon="-0.517233"><ele>175.33333333333331</ele><time>2026-05-04T08:46:55.599Z</time></trkpt><trkpt lat="41.5160831" lon="-0.5170534"><ele>174.66666666666666</ele><time>2026-05-04T08:46:56.6Z</time></trkpt><trkpt lat="41.516017" lon="-0.5168613"><ele>174.0</ele><time>2026-05-04T08:46:57.6Z</time></trkpt><trkpt lat="41.5159569" lon="-0.5166756"><ele>174.0</ele><time>2026-05-04T08:46:58.598Z</time></trkpt><trkpt lat="41.515887" lon="-0.5164951"><ele>174.0</ele><time>2026-05-04T08:46:59.614Z</time></trkpt><trkpt lat="41.5158203" lon="-0.5163169"><ele>174.0</ele><time>2026-05-04T08:47:00.598Z</time></trkpt><trkpt lat="41.5157567" lon="-0.516136"><ele>174.25</ele><time>2026-05-04T08:47:01.594Z</time></trkpt><trkpt lat="41.5156885" lon="-0.5159621"><ele>174.5</ele><time>2026-05-04T08:47:02.594Z</time></trkpt><trkpt lat="41.5156275" lon="-0.5157813"><ele>174.75</ele><time>2026-05-04T08:47:03.594Z</time></trkpt><trkpt lat="41.5155725" lon="-0.5156058"><ele>175.0</ele><time>2026-05-04T08:47:04.59Z</time></trkpt><trkpt lat="41.5155144" lon="-0.5154274"><ele>174.25</ele><time>2026-05-04T08:47:05.589Z</time></trkpt><trkpt lat="41.5154566" lon="-0.5152409"><ele>173.5</ele><time>2026-05-04T08:47:06.594Z</time></trkpt><trkpt lat="41.5153968" lon="-0.5150613"><ele>172.75</ele><time>2026-05-04T08:47:07.592Z</time></trkpt><trkpt lat="41.5153377" lon="-0.5148867"><ele>172.0</ele><time>2026-05-04T08:47:08.589Z</time></trkpt><trkpt lat="41.5152772" lon="-0.5147082"><ele>172.75</ele><time>2026-05-04T08:47:09.586Z</time></trkpt><trkpt lat="41.5152211" lon="-0.5145236"><ele>173.5</ele><time>2026-05-04T08:47:10.592Z</time></trkpt><trkpt lat="41.5151624" lon="-0.5143372"><ele>174.25</ele><time>2026-05-04T08:47:11.592Z</time></trkpt><trkpt lat="41.5150989" lon="-0.5141707"><ele>175.0</ele><time>2026-05-04T08:47:12.603Z</time></trkpt><trkpt lat="41.5150438" lon="-0.5140146"><ele>175.0</ele><time>2026-05-04T08:47:13.592Z</time></trkpt><trkpt lat="41.5149806" lon="-0.5138669"><ele>175.0</ele><time>2026-05-04T08:47:14.585Z</time></trkpt><trkpt lat="41.5149236" lon="-0.5137213"><ele>175.0</ele><time>2026-05-04T08:47:15.599Z</time></trkpt><trkpt lat="41.5148724" lon="-0.5135824"><ele>175.0</ele><time>2026-05-04T08:47:16.594Z</time></trkpt><trkpt lat="41.5148244" lon="-0.5134357"><ele>175.2</ele><time>2026-05-04T08:47:17.59Z</time></trkpt><trkpt lat="41.5147793" lon="-0.5132996"><ele>175.4</ele><time>2026-05-04T08:47:18.589Z</time></trkpt><trkpt lat="41.5147357" lon="-0.5131585"><ele>175.60000000000002</ele><time>2026-05-04T08:47:19.59Z</time></trkpt><trkpt lat="41.5146964" lon="-0.5130197"><ele>175.8</ele><time>2026-05-04T08:47:20.593Z</time></trkpt><trkpt lat="41.5146534" lon="-0.5128824"><ele>176.0</ele><time>2026-05-04T08:47:21.588Z</time></trkpt><trkpt lat="41.514604" lon="-0.5127493"><ele>176.0</ele><time>2026-05-04T08:47:22.591Z</time></trkpt><trkpt lat="41.5145567" lon="-0.5126128"><ele>176.0</ele><time>2026-05-04T08:47:23.589Z</time></trkpt><trkpt lat="41.5145069" lon="-0.5124798"><ele>176.0</ele><time>2026-05-04T08:47:24.594Z</time></trkpt><trkpt lat="41.5144592" lon="-0.5123459"><ele>176.0</ele><time>2026-05-04T08:47:25.593Z</time></trkpt><trkpt lat="41.5144135" lon="-0.5122105"><ele>176.0</ele><time>2026-05-04T08:47:26.596Z</time></trkpt><trkpt lat="41.5143674" lon="-0.5120712"><ele>176.0</ele><time>2026-05-04T08:47:27.593Z</time></trkpt><trkpt lat="41.5143207" lon="-0.5119282"><ele>176.0</ele><time>2026-05-04T08:47:28.595Z</time></trkpt><trkpt lat="41.5142755" lon="-0.511784"><ele>176.0</ele><time>2026-05-04T08:47:29.598Z</time></trkpt><trkpt lat="41.5142282" lon="-0.511639"><ele>176.0</ele><time>2026-05-04T08:47:30.614Z</time></trkpt><trkpt lat="41.5141802" lon="-0.5114885"><ele>176.0</ele><time>2026-05-04T08:47:31.591Z</time></trkpt><trkpt lat="41.5141318" lon="-0.5113374"><ele>176.0</ele><time>2026-05-04T08:47:32.591Z</time></trkpt><trkpt lat="41.5140796" lon="-0.5111887"><ele>176.0</ele><time>2026-05-04T08:47:33.592Z</time></trkpt><trkpt lat="41.5140295" lon="-0.5110399"><ele>176.0</ele><time>2026-05-04T08:47:34.594Z</time></trkpt><trkpt lat="41.5139761" lon="-0.510891"><ele>175.75</ele><time>2026-05-04T08:47:35.591Z</time></trkpt><trkpt lat="41.5139222" lon="-0.5107428"><ele>175.5</ele><time>2026-05-04T08:47:36.599Z</time></trkpt><trkpt lat="41.5138696" lon="-0.5105878"><ele>175.25</ele><time>2026-05-04T08:47:37.593Z</time></trkpt><trkpt lat="41.5138175" lon="-0.5104354"><ele>175.0</ele><time>2026-05-04T08:47:38.595Z</time></trkpt><trkpt lat="41.5137641" lon="-0.5102857"><ele>174.25</ele><time>2026-05-04T08:47:39.59Z</time></trkpt><trkpt lat="41.5137099" lon="-0.5101359"><ele>173.5</ele><time>2026-05-04T08:47:40.594Z</time></trkpt><trkpt lat="41.5136589" lon="-0.5099853"><ele>172.75</ele><time>2026-05-04T08:47:41.59Z</time></trkpt><trkpt lat="41.5136105" lon="-0.5098347"><ele>172.0</ele><time>2026-05-04T08:47:42.6Z</time></trkpt><trkpt lat="41.513564" lon="-0.5096845"><ele>172.25</ele><time>2026-05-04T08:47:43.596Z</time></trkpt><trkpt lat="41.5135186" lon="-0.509528"><ele>172.5</ele><time>2026-05-04T08:47:44.597Z</time></trkpt><trkpt lat="41.5134681" lon="-0.5093718"><ele>172.75</ele><time>2026-05-04T08:47:45.593Z</time></trkpt><trkpt lat="41.5134174" lon="-0.5092186"><ele>173.0</ele><time>2026-05-04T08:47:46.594Z</time></trkpt><trkpt lat="41.5133691" lon="-0.5090643"><ele>173.0</ele><time>2026-05-04T08:47:47.599Z</time></trkpt><trkpt lat="41.5133153" lon="-0.5089079"><ele>173.0</ele><time>2026-05-04T08:47:48.601Z</time></trkpt><trkpt lat="41.5132623" lon="-0.5087504"><ele>173.0</ele><time>2026-05-04T08:47:49.598Z</time></trkpt><trkpt lat="41.5132058" lon="-0.5085927"><ele>173.0</ele><time>2026-05-04T08:47:50.596Z</time></trkpt><trkpt lat="41.5131524" lon="-0.5084391"><ele>173.75</ele><time>2026-05-04T08:47:51.599Z</time></trkpt><trkpt lat="41.5130969" lon="-0.5082819"><ele>174.5</ele><time>2026-05-04T08:47:52.595Z</time></trkpt><trkpt lat="41.5130437" lon="-0.5081189"><ele>175.25</ele><time>2026-05-04T08:47:53.595Z</time></trkpt><trkpt lat="41.5129861" lon="-0.5079539"><ele>176.0</ele><time>2026-05-04T08:47:54.595Z</time></trkpt><trkpt lat="41.5129305" lon="-0.5077924"><ele>176.0</ele><time>2026-05-04T08:47:55.597Z</time></trkpt><trkpt lat="41.5128741" lon="-0.5076294"><ele>176.0</ele><time>2026-05-04T08:47:56.605Z</time></trkpt><trkpt lat="41.5128196" lon="-0.5074662"><ele>176.0</ele><time>2026-05-04T08:47:57.6Z</time></trkpt><trkpt lat="41.5127605" lon="-0.5072961"><ele>176.0</ele><time>2026-05-04T08:47:58.601Z</time></trkpt><trkpt lat="41.5126986" lon="-0.5071247"><ele>176.25</ele><time>2026-05-04T08:47:59.595Z</time></trkpt><trkpt lat="41.5126377" lon="-0.506954"><ele>176.5</ele><time>2026-05-04T08:48:00.596Z</time></trkpt><trkpt lat="41.5125824" lon="-0.5067881"><ele>176.75</ele><time>2026-05-04T08:48:01.608Z</time></trkpt><trkpt lat="41.5125191" lon="-0.5066173"><ele>177.0</ele><time>2026-05-04T08:48:02.591Z</time></trkpt><trkpt lat="41.512462" lon="-0.5064463"><ele>177.0</ele><time>2026-05-04T08:48:03.594Z</time></trkpt><trkpt lat="41.5124018" lon="-0.5062643"><ele>177.0</ele><time>2026-05-04T08:48:04.599Z</time></trkpt><trkpt lat="41.512343" lon="-0.5060942"><ele>177.0</ele><time>2026-05-04T08:48:05.595Z</time></trkpt><trkpt lat="41.5122808" lon="-0.5059159"><ele>177.0</ele><time>2026-05-04T08:48:06.602Z</time></trkpt><trkpt lat="41.5122171" lon="-0.5057421"><ele>177.75</ele><time>2026-05-04T08:48:07.598Z</time></trkpt><trkpt lat="41.5121579" lon="-0.5055693"><ele>178.5</ele><time>2026-05-04T08:48:08.598Z</time></trkpt><trkpt lat="41.5120967" lon="-0.5054031"><ele>179.25</ele><time>2026-05-04T08:48:09.598Z</time></trkpt><trkpt lat="41.5120419" lon="-0.505232"><ele>180.0</ele><time>2026-05-04T08:48:10.594Z</time></trkpt><trkpt lat="41.5119847" lon="-0.505055"><ele>180.0</ele><time>2026-05-04T08:48:11.599Z</time></trkpt><trkpt lat="41.5119272" lon="-0.5048831"><ele>180.0</ele><time>2026-05-04T08:48:12.597Z</time></trkpt><trkpt lat="41.5118666" lon="-0.5047072"><ele>180.0</ele><time>2026-05-04T08:48:13.603Z</time></trkpt><trkpt lat="41.5118064" lon="-0.5045311"><ele>180.0</ele><time>2026-05-04T08:48:14.598Z</time></trkpt><trkpt lat="41.5117482" lon="-0.5043608"><ele>180.5</ele><time>2026-05-04T08:48:15.599Z</time></trkpt><trkpt lat="41.511688" lon="-0.5041884"><ele>181.0</ele><time>2026-05-04T08:48:16.6Z</time></trkpt><trkpt lat="41.5116314" lon="-0.5040231"><ele>181.5</ele><time>2026-05-04T08:48:17.6Z</time></trkpt><trkpt lat="41.5115836" lon="-0.5038481"><ele>182.0</ele><time>2026-05-04T08:48:18.6Z</time></trkpt><trkpt lat="41.5115362" lon="-0.5036746"><ele>182.25</ele><time>2026-05-04T08:48:19.599Z</time></trkpt><trkpt lat="41.5114925" lon="-0.5035027"><ele>182.5</ele><time>2026-05-04T08:48:20.601Z</time></trkpt><trkpt lat="41.5114426" lon="-0.5033147"><ele>182.75</ele><time>2026-05-04T08:48:21.602Z</time></trkpt><trkpt lat="41.5113937" lon="-0.5031348"><ele>183.0</ele><time>2026-05-04T08:48:22.603Z</time></trkpt><trkpt lat="41.5113409" lon="-0.5029594"><ele>183.25</ele><time>2026-05-04T08:48:23.6Z</time></trkpt><trkpt lat="41.5112873" lon="-0.5027778"><ele>183.5</ele><time>2026-05-04T08:48:24.605Z</time></trkpt><trkpt lat="41.5112367" lon="-0.5025903"><ele>183.75</ele><time>2026-05-04T08:48:25.599Z</time></trkpt><trkpt lat="41.5111788" lon="-0.502403"><ele>184.0</ele><time>2026-05-04T08:48:26.601Z</time></trkpt><trkpt lat="41.5111257" lon="-0.5022229"><ele>184.0</ele><time>2026-05-04T08:48:27.597Z</time></trkpt><trkpt lat="41.511074" lon="-0.5020337"><ele>184.0</ele><time>2026-05-04T08:48:28.602Z</time></trkpt><trkpt lat="41.5110204" lon="-0.5018478"><ele>184.0</ele><time>2026-05-04T08:48:29.604Z</time></trkpt><trkpt lat="41.5109694" lon="-0.5016688"><ele>184.0</ele><time>2026-05-04T08:48:30.603Z</time></trkpt><trkpt lat="41.5109233" lon="-0.5014919"><ele>184.0</ele><time>2026-05-04T08:48:31.597Z</time></trkpt><trkpt lat="41.5108749" lon="-0.5013169"><ele>184.0</ele><time>2026-05-04T08:48:32.619Z</time></trkpt><trkpt lat="41.5108248" lon="-0.5011375"><ele>184.0</ele><time>2026-05-04T08:48:33.595Z</time></trkpt><trkpt lat="41.5107791" lon="-0.5009558"><ele>184.0</ele><time>2026-05-04T08:48:34.599Z</time></trkpt><trkpt lat="41.5107244" lon="-0.5007646"><ele>185.25</ele><time>2026-05-04T08:48:35.595Z</time></trkpt><trkpt lat="41.5106751" lon="-0.500591"><ele>186.5</ele><time>2026-05-04T08:48:36.599Z</time></trkpt><trkpt lat="41.5106255" lon="-0.5004155"><ele>187.75</ele><time>2026-05-04T08:48:37.595Z</time></trkpt><trkpt lat="41.5105766" lon="-0.5002329"><ele>189.0</ele><time>2026-05-04T08:48:38.597Z</time></trkpt><trkpt lat="41.5105287" lon="-0.5000484"><ele>190.25</ele><time>2026-05-04T08:48:39.595Z</time></trkpt><trkpt lat="41.5104838" lon="-0.4998676"><ele>191.5</ele><time>2026-05-04T08:48:40.599Z</time></trkpt><trkpt lat="41.5104369" lon="-0.4997011"><ele>192.75</ele><time>2026-05-04T08:48:41.598Z</time></trkpt><trkpt lat="41.5103925" lon="-0.4995213"><ele>194.0</ele><time>2026-05-04T08:48:42.597Z</time></trkpt><trkpt lat="41.5103605" lon="-0.499342"><ele>194.0</ele><time>2026-05-04T08:48:43.598Z</time></trkpt><trkpt lat="41.510319" lon="-0.4991599"><ele>194.0</ele><time>2026-05-04T08:48:44.599Z</time></trkpt><trkpt lat="41.5102857" lon="-0.498977"><ele>194.0</ele><time>2026-05-04T08:48:45.6Z</time></trkpt><trkpt lat="41.5102615" lon="-0.4987947"><ele>194.0</ele><time>2026-05-04T08:48:46.601Z</time></trkpt><trkpt lat="41.5102399" lon="-0.4986104"><ele>194.25</ele><time>2026-05-04T08:48:47.601Z</time></trkpt><trkpt lat="41.5102286" lon="-0.4984311"><ele>194.5</ele><time>2026-05-04T08:48:48.601Z</time></trkpt><trkpt lat="41.5102241" lon="-0.498266"><ele>194.75</ele><time>2026-05-04T08:48:49.601Z</time></trkpt><trkpt lat="41.5102186" lon="-0.4981118"><ele>195.0</ele><time>2026-05-04T08:48:50.602Z</time></trkpt><trkpt lat="41.5102146" lon="-0.4979687"><ele>195.0</ele><time>2026-05-04T08:48:51.602Z</time></trkpt><trkpt lat="41.5102117" lon="-0.4978369"><ele>195.0</ele><time>2026-05-04T08:48:52.6Z</time></trkpt><trkpt lat="41.5102061" lon="-0.4977091"><ele>195.0</ele><time>2026-05-04T08:48:53.599Z</time></trkpt><trkpt lat="41.5102048" lon="-0.4975909"><ele>195.0</ele><time>2026-05-04T08:48:54.595Z</time></trkpt><trkpt lat="41.510205" lon="-0.4974961"><ele>195.0</ele><time>2026-05-04T08:48:55.598Z</time></trkpt><trkpt lat="41.5102067" lon="-0.4973633"><ele>195.0</ele><time>2026-05-04T08:48:57.595Z</time></trkpt><trkpt lat="41.5102243" lon="-0.4972678"><ele>195.0</ele><time>2026-05-04T09:20:08.603Z</time></trkpt><trkpt lat="41.5102225" lon="-0.4973522"><ele>195.0</ele><time>2026-05-04T09:21:05.598Z</time></trkpt><trkpt lat="41.5102501" lon="-0.497259"><ele>195.0</ele><time>2026-05-04T09:21:28.597Z</time></trkpt><trkpt lat="41.510248" lon="-0.4971548"><ele>195.0</ele><time>2026-05-04T09:21:51.593Z</time></trkpt><trkpt lat="41.5102455" lon="-0.4970649"><ele>195.0</ele><time>2026-05-04T09:21:54.612Z</time></trkpt><trkpt lat="41.5102474" lon="-0.4969221"><ele>196.0</ele><time>2026-05-04T09:21:56.604Z</time></trkpt><trkpt lat="41.5102545" lon="-0.4968324"><ele>197.0</ele><time>2026-05-04T09:21:57.605Z</time></trkpt><trkpt lat="41.5102565" lon="-0.4967373"><ele>198.0</ele><time>2026-05-04T09:21:58.616Z</time></trkpt><trkpt lat="41.5102613" lon="-0.4966396"><ele>199.0</ele><time>2026-05-04T09:21:59.612Z</time></trkpt><trkpt lat="41.5102673" lon="-0.4965381"><ele>200.0</ele><time>2026-05-04T09:22:00.616Z</time></trkpt><trkpt lat="41.5102707" lon="-0.4964383"><ele>201.0</ele><time>2026-05-04T09:22:01.638Z</time></trkpt><trkpt lat="41.5102581" lon="-0.4963124"><ele>201.66666666666666</ele><time>2026-05-04T09:22:02.602Z</time></trkpt><trkpt lat="41.5102482" lon="-0.4961906"><ele>202.33333333333331</ele><time>2026-05-04T09:22:03.608Z</time></trkpt><trkpt lat="41.5102452" lon="-0.496076"><ele>203.0</ele><time>2026-05-04T09:22:04.6Z</time></trkpt><trkpt lat="41.5102519" lon="-0.4959684"><ele>203.66666666666666</ele><time>2026-05-04T09:22:05.602Z</time></trkpt><trkpt lat="41.5102518" lon="-0.4958448"><ele>204.33333333333331</ele><time>2026-05-04T09:22:06.602Z</time></trkpt><trkpt lat="41.5102464" lon="-0.495717"><ele>205.0</ele><time>2026-05-04T09:22:07.603Z</time></trkpt><trkpt lat="41.5102427" lon="-0.4955946"><ele>205.0</ele><time>2026-05-04T09:22:08.6Z</time></trkpt><trkpt lat="41.5102344" lon="-0.4954798"><ele>205.0</ele><time>2026-05-04T09:22:09.602Z</time></trkpt><trkpt lat="41.5102194" lon="-0.4953584"><ele>205.0</ele><time>2026-05-04T09:22:10.594Z</time></trkpt><trkpt lat="41.5102116" lon="-0.4952296"><ele>205.0</ele><time>2026-05-04T09:22:11.599Z</time></trkpt><trkpt lat="41.5101974" lon="-0.4951001"><ele>205.0</ele><time>2026-05-04T09:22:12.599Z</time></trkpt><trkpt lat="41.5101961" lon="-0.4949574"><ele>205.0</ele><time>2026-05-04T09:22:13.594Z</time></trkpt><trkpt lat="41.5101981" lon="-0.4948084"><ele>205.0</ele><time>2026-05-04T09:22:14.6Z</time></trkpt><trkpt lat="41.5101873" lon="-0.4946726"><ele>205.0</ele><time>2026-05-04T09:22:15.593Z</time></trkpt><trkpt lat="41.510187" lon="-0.4945299"><ele>205.0</ele><time>2026-05-04T09:22:16.596Z</time></trkpt><trkpt lat="41.5101945" lon="-0.4943913"><ele>205.0</ele><time>2026-05-04T09:22:17.611Z</time></trkpt><trkpt lat="41.5102051" lon="-0.494213"><ele>205.0</ele><time>2026-05-04T09:22:18.606Z</time></trkpt><trkpt lat="41.5101982" lon="-0.4940429"><ele>205.0</ele><time>2026-05-04T09:22:19.594Z</time></trkpt><trkpt lat="41.5102022" lon="-0.4938995"><ele>205.0</ele><time>2026-05-04T09:22:20.597Z</time></trkpt><trkpt lat="41.5102137" lon="-0.4937806"><ele>205.0</ele><time>2026-05-04T09:22:21.608Z</time></trkpt><trkpt lat="41.5102362" lon="-0.4936624"><ele>205.0</ele><time>2026-05-04T09:22:22.595Z</time></trkpt><trkpt lat="41.5102399" lon="-0.4935243"><ele>205.33333333333331</ele><time>2026-05-04T09:22:23.598Z</time></trkpt><trkpt lat="41.5102428" lon="-0.4933918"><ele>205.66666666666669</ele><time>2026-05-04T09:22:24.605Z</time></trkpt><trkpt lat="41.5102462" lon="-0.4932356"><ele>206.0</ele><time>2026-05-04T09:22:25.606Z</time></trkpt><trkpt lat="41.5102503" lon="-0.4929231"><ele>206.0</ele><time>2026-05-04T09:22:27.599Z</time></trkpt><trkpt lat="41.5102397" lon="-0.492775"><ele>206.0</ele><time>2026-05-04T09:22:28.605Z</time></trkpt><trkpt lat="41.5102237" lon="-0.4926224"><ele>206.0</ele><time>2026-05-04T09:22:29.596Z</time></trkpt><trkpt lat="41.5102132" lon="-0.4924568"><ele>206.0</ele><time>2026-05-04T09:22:30.596Z</time></trkpt><trkpt lat="41.5102103" lon="-0.4922974"><ele>206.0</ele><time>2026-05-04T09:22:31.613Z</time></trkpt><trkpt lat="41.5101993" lon="-0.4921493"><ele>206.0</ele><time>2026-05-04T09:22:32.606Z</time></trkpt><trkpt lat="41.5101983" lon="-0.4920132"><ele>206.0</ele><time>2026-05-04T09:22:33.6Z</time></trkpt><trkpt lat="41.510199" lon="-0.4918874"><ele>206.0</ele><time>2026-05-04T09:22:34.608Z</time></trkpt><trkpt lat="41.5102061" lon="-0.4917567"><ele>206.0</ele><time>2026-05-04T09:22:35.6Z</time></trkpt><trkpt lat="41.5102092" lon="-0.4916379"><ele>205.66666666666669</ele><time>2026-05-04T09:22:36.611Z</time></trkpt><trkpt lat="41.5102102" lon="-0.491515"><ele>205.33333333333334</ele><time>2026-05-04T09:22:37.601Z</time></trkpt><trkpt lat="41.5102191" lon="-0.4913958"><ele>205.0</ele><time>2026-05-04T09:22:38.599Z</time></trkpt><trkpt lat="41.5102348" lon="-0.4912813"><ele>204.66666666666669</ele><time>2026-05-04T09:22:39.595Z</time></trkpt><trkpt lat="41.5102474" lon="-0.4911571"><ele>204.33333333333334</ele><time>2026-05-04T09:22:40.598Z</time></trkpt><trkpt lat="41.5102543" lon="-0.4910581"><ele>204.0</ele><time>2026-05-04T09:22:41.592Z</time></trkpt><trkpt lat="41.5102627" lon="-0.4909549"><ele>203.66666666666666</ele><time>2026-05-04T09:22:42.594Z</time></trkpt><trkpt lat="41.5102771" lon="-0.4908392"><ele>203.33333333333331</ele><time>2026-05-04T09:22:43.598Z</time></trkpt><trkpt lat="41.510294" lon="-0.4907128"><ele>203.0</ele><time>2026-05-04T09:22:44.612Z</time></trkpt><trkpt lat="41.510306" lon="-0.4906102"><ele>202.66666666666666</ele><time>2026-05-04T09:22:45.605Z</time></trkpt><trkpt lat="41.5103281" lon="-0.4905176"><ele>202.33333333333331</ele><time>2026-05-04T09:22:46.61Z</time></trkpt><trkpt lat="41.5103488" lon="-0.4904005"><ele>202.0</ele><time>2026-05-04T09:22:47.607Z</time></trkpt><trkpt lat="41.510374" lon="-0.4902943"><ele>201.8</ele><time>2026-05-04T09:22:48.595Z</time></trkpt><trkpt lat="41.5103901" lon="-0.4901528"><ele>201.6</ele><time>2026-05-04T09:22:49.598Z</time></trkpt><trkpt lat="41.5104099" lon="-0.4900073"><ele>201.4</ele><time>2026-05-04T09:22:50.606Z</time></trkpt><trkpt lat="41.5104182" lon="-0.4898721"><ele>201.20000000000002</ele><time>2026-05-04T09:22:51.607Z</time></trkpt><trkpt lat="41.5104251" lon="-0.489725"><ele>201.0</ele><time>2026-05-04T09:22:52.592Z</time></trkpt><trkpt lat="41.5104251" lon="-0.4895695"><ele>200.25</ele><time>2026-05-04T09:22:53.606Z</time></trkpt><trkpt lat="41.5104353" lon="-0.4894083"><ele>199.5</ele><time>2026-05-04T09:22:54.607Z</time></trkpt><trkpt lat="41.5104538" lon="-0.4892357"><ele>198.75</ele><time>2026-05-04T09:22:55.606Z</time></trkpt><trkpt lat="41.5104615" lon="-0.4890676"><ele>198.0</ele><time>2026-05-04T09:22:56.607Z</time></trkpt><trkpt lat="41.5104853" lon="-0.4888735"><ele>198.0</ele><time>2026-05-04T09:22:57.596Z</time></trkpt><trkpt lat="41.5104974" lon="-0.4887099"><ele>198.0</ele><time>2026-05-04T09:22:58.61Z</time></trkpt><trkpt lat="41.5105041" lon="-0.4885349"><ele>198.0</ele><time>2026-05-04T09:22:59.597Z</time></trkpt><trkpt lat="41.5105242" lon="-0.4883722"><ele>198.0</ele><time>2026-05-04T09:23:00.607Z</time></trkpt><trkpt lat="41.5105517" lon="-0.4882254"><ele>198.0</ele><time>2026-05-04T09:23:01.602Z</time></trkpt><trkpt lat="41.5105894" lon="-0.4880658"><ele>198.0</ele><time>2026-05-04T09:23:02.619Z</time></trkpt><trkpt lat="41.510612" lon="-0.4878709"><ele>198.0</ele><time>2026-05-04T09:23:03.592Z</time></trkpt><trkpt lat="41.5106333" lon="-0.4876602"><ele>198.0</ele><time>2026-05-04T09:23:04.599Z</time></trkpt><trkpt lat="41.5106517" lon="-0.4874414"><ele>198.33333333333331</ele><time>2026-05-04T09:23:05.599Z</time></trkpt><trkpt lat="41.5106598" lon="-0.4872197"><ele>198.66666666666666</ele><time>2026-05-04T09:23:06.605Z</time></trkpt><trkpt lat="41.5106884" lon="-0.4870062"><ele>199.0</ele><time>2026-05-04T09:23:07.602Z</time></trkpt><trkpt lat="41.5107203" lon="-0.4868006"><ele>199.0</ele><time>2026-05-04T09:23:08.601Z</time></trkpt><trkpt lat="41.5107594" lon="-0.4865964"><ele>199.0</ele><time>2026-05-04T09:23:09.606Z</time></trkpt><trkpt lat="41.5107918" lon="-0.4863778"><ele>199.0</ele><time>2026-05-04T09:23:10.605Z</time></trkpt><trkpt lat="41.5108209" lon="-0.486158"><ele>198.66666666666666</ele><time>2026-05-04T09:23:11.595Z</time></trkpt><trkpt lat="41.5108349" lon="-0.485952"><ele>198.33333333333331</ele><time>2026-05-04T09:23:12.606Z</time></trkpt><trkpt lat="41.5108514" lon="-0.4857274"><ele>198.0</ele><time>2026-05-04T09:23:13.6Z</time></trkpt><trkpt lat="41.5108778" lon="-0.4855"><ele>197.33333333333331</ele><time>2026-05-04T09:23:14.61Z</time></trkpt><trkpt lat="41.5109113" lon="-0.4853005"><ele>196.66666666666666</ele><time>2026-05-04T09:23:15.587Z</time></trkpt><trkpt lat="41.5109288" lon="-0.4850903"><ele>196.0</ele><time>2026-05-04T09:23:16.614Z</time></trkpt><trkpt lat="41.5109375" lon="-0.4848973"><ele>196.66666666666666</ele><time>2026-05-04T09:23:17.603Z</time></trkpt><trkpt lat="41.5110004" lon="-0.4845448"><ele>197.33333333333331</ele><time>2026-05-04T09:23:19.601Z</time></trkpt><trkpt lat="41.5110352" lon="-0.4843779"><ele>198.0</ele><time>2026-05-04T09:23:20.604Z</time></trkpt><trkpt lat="41.5110485" lon="-0.4841794"><ele>198.0</ele><time>2026-05-04T09:23:21.609Z</time></trkpt><trkpt lat="41.5110605" lon="-0.4839894"><ele>198.0</ele><time>2026-05-04T09:23:22.601Z</time></trkpt><trkpt lat="41.5110902" lon="-0.4838231"><ele>198.0</ele><time>2026-05-04T09:23:23.608Z</time></trkpt><trkpt lat="41.5111163" lon="-0.4837037"><ele>198.0</ele><time>2026-05-04T09:23:24.606Z</time></trkpt><trkpt lat="41.5111533" lon="-0.4835316"><ele>198.0</ele><time>2026-05-04T09:23:25.605Z</time></trkpt><trkpt lat="41.5111721" lon="-0.4833167"><ele>198.0</ele><time>2026-05-04T09:23:26.609Z</time></trkpt><trkpt lat="41.511187" lon="-0.4831052"><ele>198.0</ele><time>2026-05-04T09:23:27.596Z</time></trkpt><trkpt lat="41.5112174" lon="-0.4829369"><ele>197.75</ele><time>2026-05-04T09:23:28.611Z</time></trkpt><trkpt lat="41.5112225" lon="-0.4827481"><ele>197.5</ele><time>2026-05-04T09:23:29.61Z</time></trkpt><trkpt lat="41.5112396" lon="-0.4825626"><ele>197.25</ele><time>2026-05-04T09:23:30.605Z</time></trkpt><trkpt lat="41.5112519" lon="-0.4823558"><ele>197.0</ele><time>2026-05-04T09:23:31.607Z</time></trkpt><trkpt lat="41.5112899" lon="-0.4821607"><ele>197.5</ele><time>2026-05-04T09:23:32.606Z</time></trkpt><trkpt lat="41.5113072" lon="-0.4819733"><ele>198.0</ele><time>2026-05-04T09:23:33.619Z</time></trkpt><trkpt lat="41.5113214" lon="-0.481783"><ele>198.5</ele><time>2026-05-04T09:23:34.604Z</time></trkpt><trkpt lat="41.5113473" lon="-0.481595"><ele>199.0</ele><time>2026-05-04T09:23:35.603Z</time></trkpt><trkpt lat="41.5113717" lon="-0.4814112"><ele>199.0</ele><time>2026-05-04T09:23:36.606Z</time></trkpt><trkpt lat="41.5113966" lon="-0.4812146"><ele>199.0</ele><time>2026-05-04T09:23:37.599Z</time></trkpt><trkpt lat="41.5114245" lon="-0.4810309"><ele>199.0</ele><time>2026-05-04T09:23:38.603Z</time></trkpt><trkpt lat="41.5114484" lon="-0.4808474"><ele>199.0</ele><time>2026-05-04T09:23:39.604Z</time></trkpt><trkpt lat="41.5114677" lon="-0.4806635"><ele>199.0</ele><time>2026-05-04T09:23:40.602Z</time></trkpt><trkpt lat="41.5114831" lon="-0.4804942"><ele>199.0</ele><time>2026-05-04T09:23:41.606Z</time></trkpt><trkpt lat="41.5114985" lon="-0.4803117"><ele>199.0</ele><time>2026-05-04T09:23:42.601Z</time></trkpt><trkpt lat="41.5115114" lon="-0.4801334"><ele>199.0</ele><time>2026-05-04T09:23:43.606Z</time></trkpt><trkpt lat="41.5115344" lon="-0.4799568"><ele>199.5</ele><time>2026-05-04T09:23:44.6Z</time></trkpt><trkpt lat="41.511558" lon="-0.4797701"><ele>200.0</ele><time>2026-05-04T09:23:45.595Z</time></trkpt><trkpt lat="41.5115773" lon="-0.4795923"><ele>200.5</ele><time>2026-05-04T09:23:46.601Z</time></trkpt><trkpt lat="41.5116014" lon="-0.4794159"><ele>201.0</ele><time>2026-05-04T09:23:47.609Z</time></trkpt><trkpt lat="41.5116318" lon="-0.4792417"><ele>201.0</ele><time>2026-05-04T09:23:48.604Z</time></trkpt><trkpt lat="41.5116527" lon="-0.4790729"><ele>201.0</ele><time>2026-05-04T09:23:49.607Z</time></trkpt><trkpt lat="41.5116703" lon="-0.4789313"><ele>201.0</ele><time>2026-05-04T09:23:50.589Z</time></trkpt><trkpt lat="41.5116909" lon="-0.4787665"><ele>201.0</ele><time>2026-05-04T09:23:51.607Z</time></trkpt><trkpt lat="41.5117227" lon="-0.4785852"><ele>201.0</ele><time>2026-05-04T09:23:52.596Z</time></trkpt><trkpt lat="41.5117433" lon="-0.4784156"><ele>201.0</ele><time>2026-05-04T09:23:53.605Z</time></trkpt><trkpt lat="41.5117681" lon="-0.4782497"><ele>201.0</ele><time>2026-05-04T09:23:54.603Z</time></trkpt><trkpt lat="41.5117875" lon="-0.4780679"><ele>201.0</ele><time>2026-05-04T09:23:55.605Z</time></trkpt><trkpt lat="41.5117987" lon="-0.4778628"><ele>201.0</ele><time>2026-05-04T09:23:56.591Z</time></trkpt><trkpt lat="41.511833" lon="-0.4776733"><ele>201.0</ele><time>2026-05-04T09:23:57.603Z</time></trkpt><trkpt lat="41.5118431" lon="-0.4775401"><ele>201.0</ele><time>2026-05-04T09:23:58.602Z</time></trkpt><trkpt lat="41.5118898" lon="-0.4773673"><ele>201.0</ele><time>2026-05-04T09:23:59.596Z</time></trkpt><trkpt lat="41.511898" lon="-0.4771896"><ele>201.25</ele><time>2026-05-04T09:24:00.609Z</time></trkpt><trkpt lat="41.5118837" lon="-0.4769949"><ele>201.5</ele><time>2026-05-04T09:24:01.598Z</time></trkpt><trkpt lat="41.5118866" lon="-0.4768487"><ele>201.75</ele><time>2026-05-04T09:24:02.594Z</time></trkpt><trkpt lat="41.5119156" lon="-0.4766948"><ele>202.0</ele><time>2026-05-04T09:24:03.596Z</time></trkpt><trkpt lat="41.5119513" lon="-0.4765207"><ele>202.0</ele><time>2026-05-04T09:24:04.613Z</time></trkpt><trkpt lat="41.5119774" lon="-0.4763345"><ele>202.0</ele><time>2026-05-04T09:24:05.594Z</time></trkpt><trkpt lat="41.5120031" lon="-0.4761523"><ele>202.0</ele><time>2026-05-04T09:24:06.607Z</time></trkpt><trkpt lat="41.5120155" lon="-0.475983"><ele>202.0</ele><time>2026-05-04T09:24:07.593Z</time></trkpt><trkpt lat="41.5120573" lon="-0.475811"><ele>202.66666666666666</ele><time>2026-05-04T09:24:08.598Z</time></trkpt><trkpt lat="41.5120829" lon="-0.4756067"><ele>203.33333333333331</ele><time>2026-05-04T09:24:09.602Z</time></trkpt><trkpt lat="41.5121155" lon="-0.4753788"><ele>204.0</ele><time>2026-05-04T09:24:10.59Z</time></trkpt><trkpt lat="41.5121301" lon="-0.4751983"><ele>204.0</ele><time>2026-05-04T09:24:11.602Z</time></trkpt><trkpt lat="41.512154" lon="-0.4750066"><ele>204.0</ele><time>2026-05-04T09:24:12.6Z</time></trkpt><trkpt lat="41.51218" lon="-0.4748271"><ele>204.0</ele><time>2026-05-04T09:24:13.608Z</time></trkpt><trkpt lat="41.51221" lon="-0.4746361"><ele>204.0</ele><time>2026-05-04T09:24:14.605Z</time></trkpt><trkpt lat="41.5122321" lon="-0.4744362"><ele>204.25</ele><time>2026-05-04T09:24:15.599Z</time></trkpt><trkpt lat="41.5122448" lon="-0.4742491"><ele>204.5</ele><time>2026-05-04T09:24:16.603Z</time></trkpt><trkpt lat="41.5122659" lon="-0.4740444"><ele>204.75</ele><time>2026-05-04T09:24:17.6Z</time></trkpt><trkpt lat="41.5122932" lon="-0.4738658"><ele>205.0</ele><time>2026-05-04T09:24:18.601Z</time></trkpt><trkpt lat="41.512329" lon="-0.4737068"><ele>205.0</ele><time>2026-05-04T09:24:19.594Z</time></trkpt><trkpt lat="41.5123539" lon="-0.4735234"><ele>205.0</ele><time>2026-05-04T09:24:20.597Z</time></trkpt><trkpt lat="41.5123951" lon="-0.4733279"><ele>205.0</ele><time>2026-05-04T09:24:21.598Z</time></trkpt><trkpt lat="41.5123994" lon="-0.4731265"><ele>205.0</ele><time>2026-05-04T09:24:22.591Z</time></trkpt><trkpt lat="41.5124188" lon="-0.4729154"><ele>205.5</ele><time>2026-05-04T09:24:23.594Z</time></trkpt><trkpt lat="41.5124272" lon="-0.4727421"><ele>206.0</ele><time>2026-05-04T09:24:24.594Z</time></trkpt><trkpt lat="41.5124426" lon="-0.4725641"><ele>206.5</ele><time>2026-05-04T09:24:25.597Z</time></trkpt><trkpt lat="41.5124748" lon="-0.4723846"><ele>207.0</ele><time>2026-05-04T09:24:26.6Z</time></trkpt><trkpt lat="41.512502" lon="-0.4722144"><ele>206.75</ele><time>2026-05-04T09:24:27.594Z</time></trkpt><trkpt lat="41.5125191" lon="-0.472063"><ele>206.5</ele><time>2026-05-04T09:24:28.597Z</time></trkpt><trkpt lat="41.5125391" lon="-0.4718843"><ele>206.25</ele><time>2026-05-04T09:24:29.599Z</time></trkpt><trkpt lat="41.5125483" lon="-0.4717161"><ele>206.0</ele><time>2026-05-04T09:24:30.607Z</time></trkpt><trkpt lat="41.5125701" lon="-0.4715341"><ele>206.0</ele><time>2026-05-04T09:24:31.598Z</time></trkpt><trkpt lat="41.5125937" lon="-0.4713548"><ele>206.0</ele><time>2026-05-04T09:24:32.601Z</time></trkpt><trkpt lat="41.5126024" lon="-0.4711865"><ele>206.0</ele><time>2026-05-04T09:24:33.605Z</time></trkpt><trkpt lat="41.5126212" lon="-0.4710258"><ele>206.0</ele><time>2026-05-04T09:24:34.608Z</time></trkpt><trkpt lat="41.5126446" lon="-0.4708478"><ele>206.0</ele><time>2026-05-04T09:24:35.612Z</time></trkpt><trkpt lat="41.5126709" lon="-0.4706715"><ele>206.0</ele><time>2026-05-04T09:24:36.611Z</time></trkpt><trkpt lat="41.512698" lon="-0.4704917"><ele>206.0</ele><time>2026-05-04T09:24:37.606Z</time></trkpt><trkpt lat="41.5127201" lon="-0.4703106"><ele>206.0</ele><time>2026-05-04T09:24:38.604Z</time></trkpt><trkpt lat="41.5127384" lon="-0.470133"><ele>205.75</ele><time>2026-05-04T09:24:39.604Z</time></trkpt><trkpt lat="41.5127607" lon="-0.4699455"><ele>205.5</ele><time>2026-05-04T09:24:40.605Z</time></trkpt><trkpt lat="41.5127809" lon="-0.4697489"><ele>205.25</ele><time>2026-05-04T09:24:41.607Z</time></trkpt><trkpt lat="41.5128031" lon="-0.4695725"><ele>205.0</ele><time>2026-05-04T09:24:42.594Z</time></trkpt><trkpt lat="41.5128353" lon="-0.4693699"><ele>205.5</ele><time>2026-05-04T09:24:43.597Z</time></trkpt><trkpt lat="41.5128535" lon="-0.4691911"><ele>206.0</ele><time>2026-05-04T09:24:44.603Z</time></trkpt><trkpt lat="41.5128914" lon="-0.469027"><ele>206.5</ele><time>2026-05-04T09:24:45.589Z</time></trkpt><trkpt lat="41.5129127" lon="-0.4688511"><ele>207.0</ele><time>2026-05-04T09:24:46.604Z</time></trkpt><trkpt lat="41.512934" lon="-0.4686749"><ele>208.0</ele><time>2026-05-04T09:24:47.598Z</time></trkpt><trkpt lat="41.5129501" lon="-0.4685004"><ele>209.0</ele><time>2026-05-04T09:24:48.6Z</time></trkpt><trkpt lat="41.5129633" lon="-0.4683163"><ele>210.0</ele><time>2026-05-04T09:24:49.592Z</time></trkpt><trkpt lat="41.51298" lon="-0.4681528"><ele>211.0</ele><time>2026-05-04T09:24:50.604Z</time></trkpt><trkpt lat="41.513" lon="-0.4679641"><ele>211.0</ele><time>2026-05-04T09:24:51.602Z</time></trkpt><trkpt lat="41.5130214" lon="-0.4677881"><ele>211.0</ele><time>2026-05-04T09:24:52.599Z</time></trkpt><trkpt lat="41.5130389" lon="-0.4676117"><ele>211.0</ele><time>2026-05-04T09:24:53.603Z</time></trkpt><trkpt lat="41.5130529" lon="-0.4674359"><ele>211.0</ele><time>2026-05-04T09:24:54.602Z</time></trkpt><trkpt lat="41.5130713" lon="-0.4672557"><ele>211.0</ele><time>2026-05-04T09:24:55.603Z</time></trkpt><trkpt lat="41.5130937" lon="-0.4670699"><ele>211.0</ele><time>2026-05-04T09:24:56.61Z</time></trkpt><trkpt lat="41.5131221" lon="-0.4668836"><ele>211.0</ele><time>2026-05-04T09:24:57.609Z</time></trkpt><trkpt lat="41.513155" lon="-0.4666842"><ele>211.0</ele><time>2026-05-04T09:24:58.603Z</time></trkpt><trkpt lat="41.513176" lon="-0.4665"><ele>211.0</ele><time>2026-05-04T09:24:59.608Z</time></trkpt><trkpt lat="41.5132073" lon="-0.4663338"><ele>211.0</ele><time>2026-05-04T09:25:00.608Z</time></trkpt><trkpt lat="41.5132267" lon="-0.4661419"><ele>211.0</ele><time>2026-05-04T09:25:01.599Z</time></trkpt><trkpt lat="41.5132399" lon="-0.4659772"><ele>211.0</ele><time>2026-05-04T09:25:02.601Z</time></trkpt><trkpt lat="41.5132665" lon="-0.4657737"><ele>211.25</ele><time>2026-05-04T09:25:03.598Z</time></trkpt><trkpt lat="41.5132894" lon="-0.4655967"><ele>211.5</ele><time>2026-05-04T09:25:04.605Z</time></trkpt><trkpt lat="41.5133091" lon="-0.4654142"><ele>211.75</ele><time>2026-05-04T09:25:05.6Z</time></trkpt><trkpt lat="41.5133319" lon="-0.4652531"><ele>212.0</ele><time>2026-05-04T09:25:06.622Z</time></trkpt><trkpt lat="41.5133532" lon="-0.4650852"><ele>212.0</ele><time>2026-05-04T09:25:07.609Z</time></trkpt><trkpt lat="41.5133735" lon="-0.4648911"><ele>212.0</ele><time>2026-05-04T09:25:08.612Z</time></trkpt><trkpt lat="41.5133968" lon="-0.4647384"><ele>212.0</ele><time>2026-05-04T09:25:09.61Z</time></trkpt><trkpt lat="41.5134384" lon="-0.4645729"><ele>212.0</ele><time>2026-05-04T09:25:10.603Z</time></trkpt><trkpt lat="41.5134737" lon="-0.4643971"><ele>212.0</ele><time>2026-05-04T09:25:11.595Z</time></trkpt><trkpt lat="41.5135113" lon="-0.4641973"><ele>212.0</ele><time>2026-05-04T09:25:12.596Z</time></trkpt><trkpt lat="41.5135499" lon="-0.4640171"><ele>212.0</ele><time>2026-05-04T09:25:13.599Z</time></trkpt><trkpt lat="41.5135864" lon="-0.4638511"><ele>212.0</ele><time>2026-05-04T09:25:14.605Z</time></trkpt><trkpt lat="41.5136284" lon="-0.4636541"><ele>212.0</ele><time>2026-05-04T09:25:15.6Z</time></trkpt><trkpt lat="41.5136668" lon="-0.4634547"><ele>212.0</ele><time>2026-05-04T09:25:16.6Z</time></trkpt><trkpt lat="41.5137153" lon="-0.4632434"><ele>212.0</ele><time>2026-05-04T09:25:17.599Z</time></trkpt><trkpt lat="41.5137475" lon="-0.4630814"><ele>212.0</ele><time>2026-05-04T09:25:18.607Z</time></trkpt><trkpt lat="41.513791" lon="-0.4628862"><ele>212.5</ele><time>2026-05-04T09:25:19.608Z</time></trkpt><trkpt lat="41.5138312" lon="-0.4627167"><ele>213.0</ele><time>2026-05-04T09:25:20.599Z</time></trkpt><trkpt lat="41.5138575" lon="-0.4625342"><ele>213.5</ele><time>2026-05-04T09:25:21.603Z</time></trkpt><trkpt lat="41.5138909" lon="-0.4623473"><ele>214.0</ele><time>2026-05-04T09:25:22.609Z</time></trkpt><trkpt lat="41.5139405" lon="-0.4621615"><ele>213.75</ele><time>2026-05-04T09:25:23.605Z</time></trkpt><trkpt lat="41.5139741" lon="-0.4619929"><ele>213.5</ele><time>2026-05-04T09:25:24.612Z</time></trkpt><trkpt lat="41.5140224" lon="-0.4618301"><ele>213.25</ele><time>2026-05-04T09:25:25.603Z</time></trkpt><trkpt lat="41.514056" lon="-0.4616562"><ele>213.0</ele><time>2026-05-04T09:25:26.606Z</time></trkpt><trkpt lat="41.5140876" lon="-0.4614714"><ele>213.25</ele><time>2026-05-04T09:25:27.604Z</time></trkpt><trkpt lat="41.5141197" lon="-0.4612804"><ele>213.5</ele><time>2026-05-04T09:25:28.607Z</time></trkpt><trkpt lat="41.5141556" lon="-0.4610922"><ele>213.75</ele><time>2026-05-04T09:25:29.604Z</time></trkpt><trkpt lat="41.5141695" lon="-0.4609128"><ele>214.0</ele><time>2026-05-04T09:25:30.609Z</time></trkpt><trkpt lat="41.5141826" lon="-0.4607467"><ele>214.0</ele><time>2026-05-04T09:25:31.598Z</time></trkpt><trkpt lat="41.5141848" lon="-0.4605765"><ele>214.0</ele><time>2026-05-04T09:25:32.6Z</time></trkpt><trkpt lat="41.5141943" lon="-0.460394"><ele>214.0</ele><time>2026-05-04T09:25:33.605Z</time></trkpt><trkpt lat="41.5142043" lon="-0.4602063"><ele>214.0</ele><time>2026-05-04T09:25:34.598Z</time></trkpt><trkpt lat="41.5141856" lon="-0.4600271"><ele>214.0</ele><time>2026-05-04T09:25:35.595Z</time></trkpt><trkpt lat="41.5141766" lon="-0.4598536"><ele>214.0</ele><time>2026-05-04T09:25:36.602Z</time></trkpt><trkpt lat="41.5141626" lon="-0.459677"><ele>214.0</ele><time>2026-05-04T09:25:37.615Z</time></trkpt><trkpt lat="41.514155" lon="-0.4594879"><ele>214.0</ele><time>2026-05-04T09:25:38.605Z</time></trkpt><trkpt lat="41.5141526" lon="-0.4592921"><ele>214.0</ele><time>2026-05-04T09:25:39.608Z</time></trkpt><trkpt lat="41.5141465" lon="-0.4591038"><ele>214.0</ele><time>2026-05-04T09:25:40.604Z</time></trkpt><trkpt lat="41.5141402" lon="-0.458911"><ele>214.0</ele><time>2026-05-04T09:25:41.603Z</time></trkpt><trkpt lat="41.514145" lon="-0.4587145"><ele>214.0</ele><time>2026-05-04T09:25:42.6Z</time></trkpt><trkpt lat="41.514149" lon="-0.4585174"><ele>214.5</ele><time>2026-05-04T09:25:43.607Z</time></trkpt><trkpt lat="41.5141424" lon="-0.4583269"><ele>215.0</ele><time>2026-05-04T09:25:44.604Z</time></trkpt><trkpt lat="41.5141522" lon="-0.4581351"><ele>215.5</ele><time>2026-05-04T09:25:45.6Z</time></trkpt><trkpt lat="41.514151" lon="-0.4579778"><ele>216.0</ele><time>2026-05-04T09:25:46.599Z</time></trkpt><trkpt lat="41.5141441" lon="-0.4577934"><ele>216.5</ele><time>2026-05-04T09:25:47.597Z</time></trkpt><trkpt lat="41.5141355" lon="-0.4576226"><ele>217.0</ele><time>2026-05-04T09:25:48.598Z</time></trkpt><trkpt lat="41.5141349" lon="-0.4574601"><ele>217.5</ele><time>2026-05-04T09:25:49.585Z</time></trkpt><trkpt lat="41.5141349" lon="-0.4572662"><ele>218.0</ele><time>2026-05-04T09:25:50.608Z</time></trkpt><trkpt lat="41.5141371" lon="-0.4570895"><ele>218.25</ele><time>2026-05-04T09:25:51.596Z</time></trkpt><trkpt lat="41.5141446" lon="-0.4569367"><ele>218.5</ele><time>2026-05-04T09:25:52.602Z</time></trkpt><trkpt lat="41.5141379" lon="-0.4567717"><ele>218.75</ele><time>2026-05-04T09:25:53.606Z</time></trkpt><trkpt lat="41.5141333" lon="-0.4565991"><ele>219.0</ele><time>2026-05-04T09:25:54.599Z</time></trkpt><trkpt lat="41.5141259" lon="-0.456428"><ele>219.0</ele><time>2026-05-04T09:25:55.602Z</time></trkpt><trkpt lat="41.5141185" lon="-0.4562587"><ele>219.0</ele><time>2026-05-04T09:25:56.606Z</time></trkpt><trkpt lat="41.5141145" lon="-0.4560933"><ele>219.0</ele><time>2026-05-04T09:25:57.599Z</time></trkpt><trkpt lat="41.5141073" lon="-0.4559301"><ele>219.0</ele><time>2026-05-04T09:25:58.603Z</time></trkpt><trkpt lat="41.5141031" lon="-0.4557607"><ele>219.0</ele><time>2026-05-04T09:25:59.605Z</time></trkpt><trkpt lat="41.5141021" lon="-0.4555863"><ele>219.0</ele><time>2026-05-04T09:26:00.6Z</time></trkpt><trkpt lat="41.5141046" lon="-0.4554192"><ele>219.0</ele><time>2026-05-04T09:26:01.598Z</time></trkpt><trkpt lat="41.5141065" lon="-0.4552526"><ele>219.0</ele><time>2026-05-04T09:26:02.598Z</time></trkpt><trkpt lat="41.5141045" lon="-0.4550923"><ele>219.75</ele><time>2026-05-04T09:26:03.595Z</time></trkpt><trkpt lat="41.5141032" lon="-0.4549268"><ele>220.5</ele><time>2026-05-04T09:26:04.603Z</time></trkpt><trkpt lat="41.5141051" lon="-0.4547648"><ele>221.25</ele><time>2026-05-04T09:26:05.594Z</time></trkpt><trkpt lat="41.5141094" lon="-0.4545875"><ele>222.0</ele><time>2026-05-04T09:26:06.605Z</time></trkpt><trkpt lat="41.5141075" lon="-0.4544027"><ele>222.75</ele><time>2026-05-04T09:26:07.6Z</time></trkpt><trkpt lat="41.5141033" lon="-0.4542311"><ele>223.5</ele><time>2026-05-04T09:26:08.617Z</time></trkpt><trkpt lat="41.514106" lon="-0.4540755"><ele>224.25</ele><time>2026-05-04T09:26:09.599Z</time></trkpt><trkpt lat="41.5141137" lon="-0.453903"><ele>225.0</ele><time>2026-05-04T09:26:10.607Z</time></trkpt><trkpt lat="41.5141335" lon="-0.453745"><ele>225.4</ele><time>2026-05-04T09:26:11.603Z</time></trkpt><trkpt lat="41.5141629" lon="-0.4535872"><ele>225.8</ele><time>2026-05-04T09:26:12.602Z</time></trkpt><trkpt lat="41.5141769" lon="-0.4534314"><ele>226.2</ele><time>2026-05-04T09:26:13.603Z</time></trkpt><trkpt lat="41.514178" lon="-0.4533005"><ele>226.6</ele><time>2026-05-04T09:26:14.605Z</time></trkpt><trkpt lat="41.5141558" lon="-0.4531745"><ele>227.0</ele><time>2026-05-04T09:26:15.605Z</time></trkpt><trkpt lat="41.5141345" lon="-0.4530536"><ele>227.39999999999998</ele><time>2026-05-04T09:26:16.601Z</time></trkpt><trkpt lat="41.5141445" lon="-0.4529324"><ele>227.79999999999998</ele><time>2026-05-04T09:26:17.61Z</time></trkpt><trkpt lat="41.5141504" lon="-0.4527928"><ele>228.2</ele><time>2026-05-04T09:26:18.606Z</time></trkpt><trkpt lat="41.5141372" lon="-0.4526475"><ele>228.6</ele><time>2026-05-04T09:26:19.598Z</time></trkpt><trkpt lat="41.5141209" lon="-0.4524993"><ele>229.0</ele><time>2026-05-04T09:26:20.598Z</time></trkpt><trkpt lat="41.5141013" lon="-0.4523538"><ele>229.0</ele><time>2026-05-04T09:26:21.604Z</time></trkpt><trkpt lat="41.5140897" lon="-0.452208"><ele>228.99999999999997</ele><time>2026-05-04T09:26:22.599Z</time></trkpt><trkpt lat="41.5140725" lon="-0.4520644"><ele>228.99999999999997</ele><time>2026-05-04T09:26:23.602Z</time></trkpt><trkpt lat="41.5140529" lon="-0.4519201"><ele>229.0</ele><time>2026-05-04T09:26:24.616Z</time></trkpt><trkpt lat="41.5140248" lon="-0.4517713"><ele>229.0</ele><time>2026-05-04T09:26:25.599Z</time></trkpt><trkpt lat="41.5140082" lon="-0.451611"><ele>229.5</ele><time>2026-05-04T09:26:26.609Z</time></trkpt><trkpt lat="41.5139946" lon="-0.4514488"><ele>230.0</ele><time>2026-05-04T09:26:27.613Z</time></trkpt><trkpt lat="41.513973" lon="-0.4512856"><ele>230.5</ele><time>2026-05-04T09:26:28.609Z</time></trkpt><trkpt lat="41.513945" lon="-0.4511122"><ele>231.0</ele><time>2026-05-04T09:26:29.611Z</time></trkpt><trkpt lat="41.5139242" lon="-0.4509411"><ele>231.25</ele><time>2026-05-04T09:26:30.601Z</time></trkpt><trkpt lat="41.5139085" lon="-0.4507669"><ele>231.5</ele><time>2026-05-04T09:26:31.602Z</time></trkpt><trkpt lat="41.5138897" lon="-0.4505964"><ele>231.75</ele><time>2026-05-04T09:26:32.609Z</time></trkpt><trkpt lat="41.513872" lon="-0.4504208"><ele>232.0</ele><time>2026-05-04T09:26:33.604Z</time></trkpt><trkpt lat="41.513851" lon="-0.450241"><ele>232.25</ele><time>2026-05-04T09:26:34.605Z</time></trkpt><trkpt lat="41.5138278" lon="-0.450065"><ele>232.5</ele><time>2026-05-04T09:26:35.613Z</time></trkpt><trkpt lat="41.5138107" lon="-0.4498915"><ele>232.75</ele><time>2026-05-04T09:26:36.608Z</time></trkpt><trkpt lat="41.5137903" lon="-0.4497182"><ele>233.0</ele><time>2026-05-04T09:26:37.596Z</time></trkpt><trkpt lat="41.5137743" lon="-0.449544"><ele>234.0</ele><time>2026-05-04T09:26:38.6Z</time></trkpt><trkpt lat="41.513751" lon="-0.4493737"><ele>235.0</ele><time>2026-05-04T09:26:39.625Z</time></trkpt><trkpt lat="41.5137267" lon="-0.4492094"><ele>236.0</ele><time>2026-05-04T09:26:40.606Z</time></trkpt><trkpt lat="41.5137066" lon="-0.4490408"><ele>237.0</ele><time>2026-05-04T09:26:41.601Z</time></trkpt><trkpt lat="41.5136849" lon="-0.4488646"><ele>237.25</ele><time>2026-05-04T09:26:42.603Z</time></trkpt><trkpt lat="41.5136661" lon="-0.4486913"><ele>237.5</ele><time>2026-05-04T09:26:43.6Z</time></trkpt><trkpt lat="41.513641" lon="-0.448509"><ele>237.75</ele><time>2026-05-04T09:26:44.606Z</time></trkpt><trkpt lat="41.5136176" lon="-0.4483441"><ele>238.0</ele><time>2026-05-04T09:26:45.599Z</time></trkpt><trkpt lat="41.5135946" lon="-0.4481785"><ele>238.0</ele><time>2026-05-04T09:26:46.605Z</time></trkpt><trkpt lat="41.5135759" lon="-0.4480033"><ele>238.0</ele><time>2026-05-04T09:26:47.608Z</time></trkpt><trkpt lat="41.5135551" lon="-0.4478082"><ele>238.0</ele><time>2026-05-04T09:26:48.608Z</time></trkpt><trkpt lat="41.5135343" lon="-0.4476143"><ele>238.0</ele><time>2026-05-04T09:26:49.602Z</time></trkpt><trkpt lat="41.5135131" lon="-0.4474449"><ele>238.75</ele><time>2026-05-04T09:26:50.595Z</time></trkpt><trkpt lat="41.5134967" lon="-0.4472809"><ele>239.5</ele><time>2026-05-04T09:26:51.595Z</time></trkpt><trkpt lat="41.5134827" lon="-0.4471148"><ele>240.25</ele><time>2026-05-04T09:26:52.595Z</time></trkpt><trkpt lat="41.5134662" lon="-0.4469498"><ele>241.0</ele><time>2026-05-04T09:26:53.607Z</time></trkpt><trkpt lat="41.5134539" lon="-0.446787"><ele>241.5</ele><time>2026-05-04T09:26:54.605Z</time></trkpt><trkpt lat="41.5134459" lon="-0.4466302"><ele>242.0</ele><time>2026-05-04T09:26:55.597Z</time></trkpt><trkpt lat="41.5134326" lon="-0.4464556"><ele>242.5</ele><time>2026-05-04T09:26:56.602Z</time></trkpt><trkpt lat="41.5134135" lon="-0.4462758"><ele>243.0</ele><time>2026-05-04T09:26:57.602Z</time></trkpt><trkpt lat="41.5133931" lon="-0.4460964"><ele>243.5</ele><time>2026-05-04T09:26:58.603Z</time></trkpt><trkpt lat="41.513371" lon="-0.445916"><ele>244.0</ele><time>2026-05-04T09:26:59.602Z</time></trkpt><trkpt lat="41.5133535" lon="-0.4457406"><ele>244.5</ele><time>2026-05-04T09:27:00.607Z</time></trkpt><trkpt lat="41.5133307" lon="-0.4455657"><ele>245.0</ele><time>2026-05-04T09:27:01.603Z</time></trkpt><trkpt lat="41.5133061" lon="-0.4453895"><ele>245.5</ele><time>2026-05-04T09:27:02.608Z</time></trkpt><trkpt lat="41.513279" lon="-0.4452087"><ele>246.0</ele><time>2026-05-04T09:27:03.61Z</time></trkpt><trkpt lat="41.5132418" lon="-0.4450325"><ele>246.5</ele><time>2026-05-04T09:27:04.603Z</time></trkpt><trkpt lat="41.5132138" lon="-0.4448584"><ele>247.0</ele><time>2026-05-04T09:27:05.603Z</time></trkpt><trkpt lat="41.5131856" lon="-0.4446869"><ele>248.0</ele><time>2026-05-04T09:27:06.609Z</time></trkpt><trkpt lat="41.5131617" lon="-0.4445183"><ele>249.0</ele><time>2026-05-04T09:27:07.603Z</time></trkpt><trkpt lat="41.5131318" lon="-0.444347"><ele>250.0</ele><time>2026-05-04T09:27:08.605Z</time></trkpt><trkpt lat="41.5131035" lon="-0.4441675"><ele>251.0</ele><time>2026-05-04T09:27:09.615Z</time></trkpt><trkpt lat="41.5130751" lon="-0.4440038"><ele>251.0</ele><time>2026-05-04T09:27:10.607Z</time></trkpt><trkpt lat="41.5130426" lon="-0.4438275"><ele>251.0</ele><time>2026-05-04T09:27:11.601Z</time></trkpt><trkpt lat="41.5130067" lon="-0.4436613"><ele>251.0</ele><time>2026-05-04T09:27:12.607Z</time></trkpt><trkpt lat="41.5129717" lon="-0.4434888"><ele>251.0</ele><time>2026-05-04T09:27:13.601Z</time></trkpt><trkpt lat="41.5129426" lon="-0.4433197"><ele>251.5</ele><time>2026-05-04T09:27:14.604Z</time></trkpt><trkpt lat="41.5129132" lon="-0.4431566"><ele>252.0</ele><time>2026-05-04T09:27:15.606Z</time></trkpt><trkpt lat="41.5128876" lon="-0.4429953"><ele>252.5</ele><time>2026-05-04T09:27:16.602Z</time></trkpt><trkpt lat="41.5128586" lon="-0.4428256"><ele>253.0</ele><time>2026-05-04T09:27:17.606Z</time></trkpt><trkpt lat="41.5128308" lon="-0.4426491"><ele>253.5</ele><time>2026-05-04T09:27:18.599Z</time></trkpt><trkpt lat="41.5128043" lon="-0.4424804"><ele>254.0</ele><time>2026-05-04T09:27:19.598Z</time></trkpt><trkpt lat="41.5127786" lon="-0.4423104"><ele>254.5</ele><time>2026-05-04T09:27:20.601Z</time></trkpt><trkpt lat="41.5127513" lon="-0.4421489"><ele>255.0</ele><time>2026-05-04T09:27:21.597Z</time></trkpt><trkpt lat="41.5127273" lon="-0.4419843"><ele>255.75</ele><time>2026-05-04T09:27:22.604Z</time></trkpt><trkpt lat="41.5126951" lon="-0.4418124"><ele>256.5</ele><time>2026-05-04T09:27:23.594Z</time></trkpt><trkpt lat="41.5126689" lon="-0.4416438"><ele>257.25</ele><time>2026-05-04T09:27:24.596Z</time></trkpt><trkpt lat="41.5126358" lon="-0.4414792"><ele>258.0</ele><time>2026-05-04T09:27:25.603Z</time></trkpt><trkpt lat="41.5126078" lon="-0.4413138"><ele>258.5</ele><time>2026-05-04T09:27:26.599Z</time></trkpt><trkpt lat="41.5125804" lon="-0.4411442"><ele>259.0</ele><time>2026-05-04T09:27:27.596Z</time></trkpt><trkpt lat="41.512558" lon="-0.4409768"><ele>259.5</ele><time>2026-05-04T09:27:28.61Z</time></trkpt><trkpt lat="41.5125394" lon="-0.4408116"><ele>260.0</ele><time>2026-05-04T09:27:29.599Z</time></trkpt><trkpt lat="41.5125269" lon="-0.4406471"><ele>260.0</ele><time>2026-05-04T09:27:30.594Z</time></trkpt><trkpt lat="41.5125173" lon="-0.4404723"><ele>260.0</ele><time>2026-05-04T09:27:31.601Z</time></trkpt><trkpt lat="41.5125115" lon="-0.4402845"><ele>260.0</ele><time>2026-05-04T09:27:32.603Z</time></trkpt><trkpt lat="41.512504" lon="-0.4401072"><ele>260.0</ele><time>2026-05-04T09:27:33.602Z</time></trkpt><trkpt lat="41.5124946" lon="-0.4399124"><ele>259.75</ele><time>2026-05-04T09:27:34.604Z</time></trkpt><trkpt lat="41.5124871" lon="-0.4397284"><ele>259.5</ele><time>2026-05-04T09:27:35.605Z</time></trkpt><trkpt lat="41.5124893" lon="-0.4395483"><ele>259.25</ele><time>2026-05-04T09:27:36.604Z</time></trkpt><trkpt lat="41.512491" lon="-0.4393647"><ele>259.0</ele><time>2026-05-04T09:27:37.6Z</time></trkpt><trkpt lat="41.5124829" lon="-0.4391711"><ele>259.0</ele><time>2026-05-04T09:27:38.606Z</time></trkpt><trkpt lat="41.5124712" lon="-0.4389862"><ele>259.0</ele><time>2026-05-04T09:27:39.606Z</time></trkpt><trkpt lat="41.5124659" lon="-0.4387986"><ele>259.0</ele><time>2026-05-04T09:27:40.623Z</time></trkpt><trkpt lat="41.5124643" lon="-0.4386016"><ele>259.0</ele><time>2026-05-04T09:27:41.61Z</time></trkpt><trkpt lat="41.512453" lon="-0.4383996"><ele>258.75</ele><time>2026-05-04T09:27:42.604Z</time></trkpt><trkpt lat="41.5124402" lon="-0.4382081"><ele>258.5</ele><time>2026-05-04T09:27:43.606Z</time></trkpt><trkpt lat="41.5124287" lon="-0.4380229"><ele>258.25</ele><time>2026-05-04T09:27:44.604Z</time></trkpt><trkpt lat="41.5124222" lon="-0.4378459"><ele>258.0</ele><time>2026-05-04T09:27:45.606Z</time></trkpt><trkpt lat="41.5124134" lon="-0.4376656"><ele>258.0</ele><time>2026-05-04T09:27:46.604Z</time></trkpt><trkpt lat="41.5124108" lon="-0.4374935"><ele>258.0</ele><time>2026-05-04T09:27:47.606Z</time></trkpt><trkpt lat="41.5124037" lon="-0.4373164"><ele>258.0</ele><time>2026-05-04T09:27:48.604Z</time></trkpt><trkpt lat="41.5123975" lon="-0.4371434"><ele>258.0</ele><time>2026-05-04T09:27:49.607Z</time></trkpt><trkpt lat="41.5123934" lon="-0.4369792"><ele>258.0</ele><time>2026-05-04T09:27:50.611Z</time></trkpt><trkpt lat="41.5123848" lon="-0.4368071"><ele>258.0</ele><time>2026-05-04T09:27:51.606Z</time></trkpt><trkpt lat="41.5123774" lon="-0.4366463"><ele>258.0</ele><time>2026-05-04T09:27:52.606Z</time></trkpt><trkpt lat="41.5123788" lon="-0.4364687"><ele>258.0</ele><time>2026-05-04T09:27:53.601Z</time></trkpt><trkpt lat="41.5123642" lon="-0.4363008"><ele>258.0</ele><time>2026-05-04T09:27:54.605Z</time></trkpt><trkpt lat="41.5123633" lon="-0.4361295"><ele>258.0</ele><time>2026-05-04T09:27:55.604Z</time></trkpt><trkpt lat="41.5123561" lon="-0.4359821"><ele>258.0</ele><time>2026-05-04T09:27:56.609Z</time></trkpt><trkpt lat="41.5123525" lon="-0.4358086"><ele>258.0</ele><time>2026-05-04T09:27:57.607Z</time></trkpt><trkpt lat="41.5123452" lon="-0.4356394"><ele>258.0</ele><time>2026-05-04T09:27:58.616Z</time></trkpt><trkpt lat="41.5123437" lon="-0.4354718"><ele>258.0</ele><time>2026-05-04T09:27:59.609Z</time></trkpt><trkpt lat="41.5123405" lon="-0.4352932"><ele>258.0</ele><time>2026-05-04T09:28:00.609Z</time></trkpt><trkpt lat="41.5123347" lon="-0.435112"><ele>258.0</ele><time>2026-05-04T09:28:01.607Z</time></trkpt><trkpt lat="41.5123269" lon="-0.4349237"><ele>257.75</ele><time>2026-05-04T09:28:02.602Z</time></trkpt><trkpt lat="41.5123213" lon="-0.434736"><ele>257.5</ele><time>2026-05-04T09:28:03.605Z</time></trkpt><trkpt lat="41.5123166" lon="-0.43455"><ele>257.25</ele><time>2026-05-04T09:28:04.604Z</time></trkpt><trkpt lat="41.5122966" lon="-0.4343807"><ele>257.0</ele><time>2026-05-04T09:28:05.601Z</time></trkpt><trkpt lat="41.5122889" lon="-0.4342041"><ele>256.75</ele><time>2026-05-04T09:28:06.606Z</time></trkpt><trkpt lat="41.5122824" lon="-0.4340219"><ele>256.5</ele><time>2026-05-04T09:28:07.6Z</time></trkpt><trkpt lat="41.512283" lon="-0.4338458"><ele>256.25</ele><time>2026-05-04T09:28:08.605Z</time></trkpt><trkpt lat="41.5122794" lon="-0.4336702"><ele>256.0</ele><time>2026-05-04T09:28:09.599Z</time></trkpt><trkpt lat="41.5122726" lon="-0.43349"><ele>255.75</ele><time>2026-05-04T09:28:10.604Z</time></trkpt><trkpt lat="41.5122591" lon="-0.4333134"><ele>255.5</ele><time>2026-05-04T09:28:11.616Z</time></trkpt><trkpt lat="41.512251" lon="-0.4331368"><ele>255.25</ele><time>2026-05-04T09:28:12.601Z</time></trkpt><trkpt lat="41.5122473" lon="-0.4329513"><ele>255.0</ele><time>2026-05-04T09:28:13.604Z</time></trkpt><trkpt lat="41.5122382" lon="-0.432778"><ele>255.0</ele><time>2026-05-04T09:28:14.599Z</time></trkpt><trkpt lat="41.5122275" lon="-0.4325924"><ele>255.0</ele><time>2026-05-04T09:28:15.603Z</time></trkpt><trkpt lat="41.5122222" lon="-0.4324154"><ele>255.0</ele><time>2026-05-04T09:28:16.6Z</time></trkpt><trkpt lat="41.512219" lon="-0.432234"><ele>255.0</ele><time>2026-05-04T09:28:17.615Z</time></trkpt><trkpt lat="41.5122055" lon="-0.4320622"><ele>255.0</ele><time>2026-05-04T09:28:18.608Z</time></trkpt><trkpt lat="41.5121857" lon="-0.4318883"><ele>255.0</ele><time>2026-05-04T09:28:19.6Z</time></trkpt><trkpt lat="41.5121868" lon="-0.4316967"><ele>255.0</ele><time>2026-05-04T09:28:20.604Z</time></trkpt><trkpt lat="41.5121811" lon="-0.4315055"><ele>255.0</ele><time>2026-05-04T09:28:21.604Z</time></trkpt><trkpt lat="41.5121698" lon="-0.4313124"><ele>254.75</ele><time>2026-05-04T09:28:22.602Z</time></trkpt><trkpt lat="41.5121476" lon="-0.4311101"><ele>254.5</ele><time>2026-05-04T09:28:23.604Z</time></trkpt><trkpt lat="41.5121215" lon="-0.4309193"><ele>254.25</ele><time>2026-05-04T09:28:24.603Z</time></trkpt><trkpt lat="41.5121026" lon="-0.4307397"><ele>254.0</ele><time>2026-05-04T09:28:25.602Z</time></trkpt><trkpt lat="41.5120803" lon="-0.43056"><ele>255.0</ele><time>2026-05-04T09:28:26.607Z</time></trkpt><trkpt lat="41.5120626" lon="-0.4303788"><ele>256.0</ele><time>2026-05-04T09:28:27.607Z</time></trkpt><trkpt lat="41.5120328" lon="-0.4301748"><ele>257.0</ele><time>2026-05-04T09:28:28.598Z</time></trkpt><trkpt lat="41.51201" lon="-0.4299913"><ele>258.0</ele><time>2026-05-04T09:28:29.604Z</time></trkpt><trkpt lat="41.5119907" lon="-0.4298051"><ele>257.5</ele><time>2026-05-04T09:28:30.604Z</time></trkpt><trkpt lat="41.51197" lon="-0.4296178"><ele>257.0</ele><time>2026-05-04T09:28:31.599Z</time></trkpt><trkpt lat="41.5119495" lon="-0.429413"><ele>256.5</ele><time>2026-05-04T09:28:32.603Z</time></trkpt><trkpt lat="41.511922" lon="-0.429228"><ele>256.0</ele><time>2026-05-04T09:28:33.604Z</time></trkpt><trkpt lat="41.5118971" lon="-0.4290273"><ele>256.0</ele><time>2026-05-04T09:28:34.607Z</time></trkpt><trkpt lat="41.5118673" lon="-0.4288422"><ele>256.0</ele><time>2026-05-04T09:28:35.606Z</time></trkpt><trkpt lat="41.5118404" lon="-0.4286609"><ele>256.0</ele><time>2026-05-04T09:28:36.611Z</time></trkpt><trkpt lat="41.5118131" lon="-0.4284678"><ele>256.0</ele><time>2026-05-04T09:28:37.605Z</time></trkpt><trkpt lat="41.511787" lon="-0.4282818"><ele>256.0</ele><time>2026-05-04T09:28:38.604Z</time></trkpt><trkpt lat="41.5117645" lon="-0.4280913"><ele>256.0</ele><time>2026-05-04T09:28:39.605Z</time></trkpt><trkpt lat="41.5117372" lon="-0.4278992"><ele>256.0</ele><time>2026-05-04T09:28:40.611Z</time></trkpt><trkpt lat="41.5117105" lon="-0.427707"><ele>256.0</ele><time>2026-05-04T09:28:41.606Z</time></trkpt><trkpt lat="41.5116898" lon="-0.4275165"><ele>255.75</ele><time>2026-05-04T09:28:42.619Z</time></trkpt><trkpt lat="41.5116703" lon="-0.4273214"><ele>255.5</ele><time>2026-05-04T09:28:43.607Z</time></trkpt><trkpt lat="41.5116499" lon="-0.4271333"><ele>255.25</ele><time>2026-05-04T09:28:44.615Z</time></trkpt><trkpt lat="41.5116353" lon="-0.4269428"><ele>255.0</ele><time>2026-05-04T09:28:45.606Z</time></trkpt><trkpt lat="41.5116118" lon="-0.426764"><ele>255.0</ele><time>2026-05-04T09:28:46.611Z</time></trkpt><trkpt lat="41.5115912" lon="-0.4265795"><ele>255.0</ele><time>2026-05-04T09:28:47.606Z</time></trkpt><trkpt lat="41.5115745" lon="-0.4263922"><ele>255.0</ele><time>2026-05-04T09:28:48.608Z</time></trkpt><trkpt lat="41.5115547" lon="-0.4262045"><ele>255.0</ele><time>2026-05-04T09:28:49.602Z</time></trkpt><trkpt lat="41.5115312" lon="-0.4260283"><ele>255.5</ele><time>2026-05-04T09:28:50.603Z</time></trkpt><trkpt lat="41.5115048" lon="-0.4258593"><ele>256.0</ele><time>2026-05-04T09:28:51.608Z</time></trkpt><trkpt lat="41.5114818" lon="-0.4256851"><ele>256.5</ele><time>2026-05-04T09:28:52.603Z</time></trkpt><trkpt lat="41.5114633" lon="-0.4255082"><ele>257.0</ele><time>2026-05-04T09:28:53.604Z</time></trkpt><trkpt lat="41.5114465" lon="-0.4253294"><ele>257.0</ele><time>2026-05-04T09:28:54.602Z</time></trkpt><trkpt lat="41.5114245" lon="-0.4251459"><ele>257.0</ele><time>2026-05-04T09:28:55.603Z</time></trkpt><trkpt lat="41.511405" lon="-0.4249697"><ele>257.0</ele><time>2026-05-04T09:28:56.601Z</time></trkpt><trkpt lat="41.5113776" lon="-0.4247986"><ele>257.0</ele><time>2026-05-04T09:28:57.6Z</time></trkpt><trkpt lat="41.511357" lon="-0.4246238"><ele>257.0</ele><time>2026-05-04T09:28:58.606Z</time></trkpt><trkpt lat="41.5113402" lon="-0.4244529"><ele>257.0</ele><time>2026-05-04T09:28:59.603Z</time></trkpt><trkpt lat="41.5113214" lon="-0.424269"><ele>257.0</ele><time>2026-05-04T09:29:00.601Z</time></trkpt><trkpt lat="41.5112939" lon="-0.4240931"><ele>257.0</ele><time>2026-05-04T09:29:01.602Z</time></trkpt><trkpt lat="41.5112593" lon="-0.4239196"><ele>257.5</ele><time>2026-05-04T09:29:02.605Z</time></trkpt><trkpt lat="41.5112293" lon="-0.423747"><ele>258.0</ele><time>2026-05-04T09:29:03.599Z</time></trkpt><trkpt lat="41.5112009" lon="-0.4235772"><ele>258.5</ele><time>2026-05-04T09:29:04.608Z</time></trkpt><trkpt lat="41.5111752" lon="-0.4233985"><ele>259.0</ele><time>2026-05-04T09:29:05.601Z</time></trkpt><trkpt lat="41.511151" lon="-0.4232211"><ele>259.0</ele><time>2026-05-04T09:29:06.611Z</time></trkpt><trkpt lat="41.5111249" lon="-0.4230439"><ele>259.0</ele><time>2026-05-04T09:29:07.603Z</time></trkpt><trkpt lat="41.5111042" lon="-0.422867"><ele>259.0</ele><time>2026-05-04T09:29:08.606Z</time></trkpt><trkpt lat="41.5110851" lon="-0.4226849"><ele>259.0</ele><time>2026-05-04T09:29:09.604Z</time></trkpt><trkpt lat="41.5110641" lon="-0.4225075"><ele>259.25</ele><time>2026-05-04T09:29:10.609Z</time></trkpt><trkpt lat="41.5110435" lon="-0.4223368"><ele>259.5</ele><time>2026-05-04T09:29:11.605Z</time></trkpt><trkpt lat="41.5110199" lon="-0.4221575"><ele>259.75</ele><time>2026-05-04T09:29:12.607Z</time></trkpt><trkpt lat="41.510993" lon="-0.4219761"><ele>260.0</ele><time>2026-05-04T09:29:13.618Z</time></trkpt><trkpt lat="41.5109642" lon="-0.4217864"><ele>260.25</ele><time>2026-05-04T09:29:14.609Z</time></trkpt><trkpt lat="41.51094" lon="-0.4215967"><ele>260.5</ele><time>2026-05-04T09:29:15.602Z</time></trkpt><trkpt lat="41.5109234" lon="-0.4214239"><ele>260.75</ele><time>2026-05-04T09:29:16.606Z</time></trkpt><trkpt lat="41.5109123" lon="-0.421252"><ele>261.0</ele><time>2026-05-04T09:29:17.606Z</time></trkpt><trkpt lat="41.5108914" lon="-0.4210682"><ele>261.75</ele><time>2026-05-04T09:29:18.603Z</time></trkpt><trkpt lat="41.5108645" lon="-0.4208741"><ele>262.5</ele><time>2026-05-04T09:29:19.601Z</time></trkpt><trkpt lat="41.5108388" lon="-0.4206953"><ele>263.25</ele><time>2026-05-04T09:29:20.6Z</time></trkpt><trkpt lat="41.5108189" lon="-0.4205197"><ele>264.0</ele><time>2026-05-04T09:29:21.604Z</time></trkpt><trkpt lat="41.5107933" lon="-0.4203425"><ele>264.0</ele><time>2026-05-04T09:29:22.599Z</time></trkpt><trkpt lat="41.5107683" lon="-0.4201575"><ele>264.0</ele><time>2026-05-04T09:29:23.6Z</time></trkpt><trkpt lat="41.5107467" lon="-0.419979"><ele>264.0</ele><time>2026-05-04T09:29:24.602Z</time></trkpt><trkpt lat="41.5107222" lon="-0.4198054"><ele>264.0</ele><time>2026-05-04T09:29:25.596Z</time></trkpt><trkpt lat="41.5106998" lon="-0.4196298"><ele>264.0</ele><time>2026-05-04T09:29:26.602Z</time></trkpt><trkpt lat="41.5106774" lon="-0.4194557"><ele>264.0</ele><time>2026-05-04T09:29:27.593Z</time></trkpt><trkpt lat="41.5106587" lon="-0.4192822"><ele>264.0</ele><time>2026-05-04T09:29:28.602Z</time></trkpt><trkpt lat="41.5106436" lon="-0.4191161"><ele>264.0</ele><time>2026-05-04T09:29:29.605Z</time></trkpt><trkpt lat="41.5106239" lon="-0.4189526"><ele>263.75</ele><time>2026-05-04T09:29:30.598Z</time></trkpt><trkpt lat="41.5106026" lon="-0.4187722"><ele>263.5</ele><time>2026-05-04T09:29:31.602Z</time></trkpt><trkpt lat="41.5105824" lon="-0.4185924"><ele>263.25</ele><time>2026-05-04T09:29:32.598Z</time></trkpt><trkpt lat="41.5105604" lon="-0.4184099"><ele>263.0</ele><time>2026-05-04T09:29:33.596Z</time></trkpt><trkpt lat="41.5105317" lon="-0.4182304"><ele>263.0</ele><time>2026-05-04T09:29:34.596Z</time></trkpt><trkpt lat="41.5105146" lon="-0.4180743"><ele>263.0</ele><time>2026-05-04T09:29:35.592Z</time></trkpt><trkpt lat="41.5104959" lon="-0.4179022"><ele>263.0</ele><time>2026-05-04T09:29:36.602Z</time></trkpt><trkpt lat="41.5104768" lon="-0.4177329"><ele>263.0</ele><time>2026-05-04T09:29:37.597Z</time></trkpt><trkpt lat="41.5104527" lon="-0.4175546"><ele>262.75</ele><time>2026-05-04T09:29:38.595Z</time></trkpt><trkpt lat="41.5104287" lon="-0.4173782"><ele>262.5</ele><time>2026-05-04T09:29:39.601Z</time></trkpt><trkpt lat="41.5104173" lon="-0.4171892"><ele>262.25</ele><time>2026-05-04T09:29:40.598Z</time></trkpt><trkpt lat="41.5103985" lon="-0.4170181"><ele>262.0</ele><time>2026-05-04T09:29:41.602Z</time></trkpt><trkpt lat="41.5103836" lon="-0.4168438"><ele>262.75</ele><time>2026-05-04T09:29:42.596Z</time></trkpt><trkpt lat="41.5103718" lon="-0.416669"><ele>263.5</ele><time>2026-05-04T09:29:43.601Z</time></trkpt><trkpt lat="41.5103615" lon="-0.4164964"><ele>264.25</ele><time>2026-05-04T09:29:44.612Z</time></trkpt><trkpt lat="41.5103492" lon="-0.4163136"><ele>265.0</ele><time>2026-05-04T09:29:45.599Z</time></trkpt><trkpt lat="41.5103372" lon="-0.416135"><ele>265.5</ele><time>2026-05-04T09:29:46.604Z</time></trkpt><trkpt lat="41.5103362" lon="-0.4159677"><ele>266.0</ele><time>2026-05-04T09:29:47.603Z</time></trkpt><trkpt lat="41.5103359" lon="-0.4157954"><ele>266.5</ele><time>2026-05-04T09:29:48.601Z</time></trkpt><trkpt lat="41.5103368" lon="-0.4156173"><ele>267.0</ele><time>2026-05-04T09:29:49.596Z</time></trkpt><trkpt lat="41.5103344" lon="-0.4154356"><ele>267.0</ele><time>2026-05-04T09:29:50.596Z</time></trkpt><trkpt lat="41.5103388" lon="-0.415252"><ele>267.0</ele><time>2026-05-04T09:29:51.6Z</time></trkpt><trkpt lat="41.5103423" lon="-0.4150771"><ele>267.0</ele><time>2026-05-04T09:29:52.6Z</time></trkpt><trkpt lat="41.5103475" lon="-0.4148949"><ele>267.0</ele><time>2026-05-04T09:29:53.599Z</time></trkpt><trkpt lat="41.5103605" lon="-0.4147125"><ele>267.25</ele><time>2026-05-04T09:29:54.603Z</time></trkpt><trkpt lat="41.5103752" lon="-0.4145282"><ele>267.5</ele><time>2026-05-04T09:29:55.603Z</time></trkpt><trkpt lat="41.510383" lon="-0.414346"><ele>267.75</ele><time>2026-05-04T09:29:56.606Z</time></trkpt><trkpt lat="41.5103933" lon="-0.4141651"><ele>268.0</ele><time>2026-05-04T09:29:57.606Z</time></trkpt><trkpt lat="41.5104059" lon="-0.413989"><ele>267.75</ele><time>2026-05-04T09:29:58.604Z</time></trkpt><trkpt lat="41.5104213" lon="-0.4138085"><ele>267.5</ele><time>2026-05-04T09:29:59.615Z</time></trkpt><trkpt lat="41.5104446" lon="-0.4136278"><ele>267.25</ele><time>2026-05-04T09:30:00.607Z</time></trkpt><trkpt lat="41.5104618" lon="-0.4134496"><ele>267.0</ele><time>2026-05-04T09:30:01.605Z</time></trkpt><trkpt lat="41.5104828" lon="-0.4132724"><ele>267.0</ele><time>2026-05-04T09:30:02.605Z</time></trkpt><trkpt lat="41.5105038" lon="-0.4130935"><ele>267.0</ele><time>2026-05-04T09:30:03.602Z</time></trkpt><trkpt lat="41.5105281" lon="-0.4129121"><ele>267.0</ele><time>2026-05-04T09:30:04.602Z</time></trkpt><trkpt lat="41.510558" lon="-0.4127333"><ele>267.0</ele><time>2026-05-04T09:30:05.606Z</time></trkpt><trkpt lat="41.5105867" lon="-0.4125646"><ele>267.5</ele><time>2026-05-04T09:30:06.609Z</time></trkpt><trkpt lat="41.5106253" lon="-0.4123918"><ele>268.0</ele><time>2026-05-04T09:30:07.612Z</time></trkpt><trkpt lat="41.5106604" lon="-0.4122111"><ele>268.5</ele><time>2026-05-04T09:30:08.626Z</time></trkpt><trkpt lat="41.5106902" lon="-0.4120525"><ele>269.0</ele><time>2026-05-04T09:30:09.603Z</time></trkpt><trkpt lat="41.5107182" lon="-0.411876"><ele>269.25</ele><time>2026-05-04T09:30:10.607Z</time></trkpt><trkpt lat="41.5107547" lon="-0.4116993"><ele>269.5</ele><time>2026-05-04T09:30:11.602Z</time></trkpt><trkpt lat="41.5108026" lon="-0.4115243"><ele>269.75</ele><time>2026-05-04T09:30:12.608Z</time></trkpt><trkpt lat="41.5108408" lon="-0.4113499"><ele>270.0</ele><time>2026-05-04T09:30:13.606Z</time></trkpt><trkpt lat="41.5108777" lon="-0.4111736"><ele>270.0</ele><time>2026-05-04T09:30:14.604Z</time></trkpt><trkpt lat="41.510918" lon="-0.410997"><ele>270.0</ele><time>2026-05-04T09:30:15.616Z</time></trkpt><trkpt lat="41.5109668" lon="-0.4108341"><ele>270.0</ele><time>2026-05-04T09:30:16.601Z</time></trkpt><trkpt lat="41.5110135" lon="-0.4106487"><ele>270.0</ele><time>2026-05-04T09:30:17.61Z</time></trkpt><trkpt lat="41.5110588" lon="-0.4104713"><ele>271.25</ele><time>2026-05-04T09:30:18.606Z</time></trkpt><trkpt lat="41.5110964" lon="-0.4102883"><ele>272.5</ele><time>2026-05-04T09:30:19.605Z</time></trkpt><trkpt lat="41.5111295" lon="-0.4101108"><ele>273.75</ele><time>2026-05-04T09:30:20.606Z</time></trkpt><trkpt lat="41.5111675" lon="-0.4099307"><ele>275.0</ele><time>2026-05-04T09:30:21.61Z</time></trkpt><trkpt lat="41.5111997" lon="-0.4097574"><ele>274.25</ele><time>2026-05-04T09:30:22.604Z</time></trkpt><trkpt lat="41.5112417" lon="-0.4095757"><ele>273.5</ele><time>2026-05-04T09:30:23.6Z</time></trkpt><trkpt lat="41.5112841" lon="-0.4094093"><ele>272.75</ele><time>2026-05-04T09:30:24.606Z</time></trkpt><trkpt lat="41.5113289" lon="-0.4092298"><ele>272.0</ele><time>2026-05-04T09:30:25.602Z</time></trkpt><trkpt lat="41.5113785" lon="-0.4090592"><ele>272.0</ele><time>2026-05-04T09:30:26.607Z</time></trkpt><trkpt lat="41.5114177" lon="-0.4088848"><ele>272.0</ele><time>2026-05-04T09:30:27.605Z</time></trkpt><trkpt lat="41.5114557" lon="-0.4087132"><ele>272.0</ele><time>2026-05-04T09:30:28.607Z</time></trkpt><trkpt lat="41.5114957" lon="-0.4085346"><ele>272.0</ele><time>2026-05-04T09:30:29.593Z</time></trkpt><trkpt lat="41.5115335" lon="-0.4083667"><ele>272.25</ele><time>2026-05-04T09:30:30.606Z</time></trkpt><trkpt lat="41.5115694" lon="-0.4082032"><ele>272.5</ele><time>2026-05-04T09:30:31.6Z</time></trkpt><trkpt lat="41.5116082" lon="-0.4080581"><ele>272.75</ele><time>2026-05-04T09:30:32.602Z</time></trkpt><trkpt lat="41.5116353" lon="-0.4079155"><ele>273.0</ele><time>2026-05-04T09:30:33.601Z</time></trkpt><trkpt lat="41.5116701" lon="-0.4077768"><ele>273.5</ele><time>2026-05-04T09:30:34.601Z</time></trkpt><trkpt lat="41.5117136" lon="-0.4076406"><ele>274.0</ele><time>2026-05-04T09:30:35.605Z</time></trkpt><trkpt lat="41.5117538" lon="-0.4074948"><ele>274.5</ele><time>2026-05-04T09:30:36.61Z</time></trkpt><trkpt lat="41.5117831" lon="-0.407348"><ele>275.0</ele><time>2026-05-04T09:30:37.603Z</time></trkpt><trkpt lat="41.5118122" lon="-0.4072009"><ele>276.0</ele><time>2026-05-04T09:30:38.611Z</time></trkpt><trkpt lat="41.5118411" lon="-0.4070478"><ele>277.0</ele><time>2026-05-04T09:30:39.605Z</time></trkpt><trkpt lat="41.5118725" lon="-0.4068951"><ele>278.0</ele><time>2026-05-04T09:30:40.609Z</time></trkpt><trkpt lat="41.5119079" lon="-0.4067393"><ele>279.0</ele><time>2026-05-04T09:30:41.606Z</time></trkpt><trkpt lat="41.5119443" lon="-0.4065804"><ele>279.0</ele><time>2026-05-04T09:30:42.605Z</time></trkpt><trkpt lat="41.5119792" lon="-0.4064187"><ele>279.0</ele><time>2026-05-04T09:30:43.604Z</time></trkpt><trkpt lat="41.5120165" lon="-0.4062543"><ele>279.0</ele><time>2026-05-04T09:30:44.605Z</time></trkpt><trkpt lat="41.5120541" lon="-0.40609"><ele>279.0</ele><time>2026-05-04T09:30:45.599Z</time></trkpt><trkpt lat="41.5120903" lon="-0.4059272"><ele>279.0</ele><time>2026-05-04T09:30:46.614Z</time></trkpt><trkpt lat="41.5121255" lon="-0.4057586"><ele>279.0</ele><time>2026-05-04T09:30:47.603Z</time></trkpt><trkpt lat="41.5121607" lon="-0.4055904"><ele>279.0</ele><time>2026-05-04T09:30:48.605Z</time></trkpt><trkpt lat="41.5121973" lon="-0.4054232"><ele>279.0</ele><time>2026-05-04T09:30:49.6Z</time></trkpt><trkpt lat="41.5122297" lon="-0.4052488"><ele>279.0</ele><time>2026-05-04T09:30:50.599Z</time></trkpt><trkpt lat="41.5122623" lon="-0.4050729"><ele>279.0</ele><time>2026-05-04T09:30:51.602Z</time></trkpt><trkpt lat="41.5122911" lon="-0.4048988"><ele>279.0</ele><time>2026-05-04T09:30:52.599Z</time></trkpt><trkpt lat="41.5123164" lon="-0.4047219"><ele>279.0</ele><time>2026-05-04T09:30:53.604Z</time></trkpt><trkpt lat="41.5123389" lon="-0.4045408"><ele>279.25</ele><time>2026-05-04T09:30:54.599Z</time></trkpt><trkpt lat="41.5123554" lon="-0.4043616"><ele>279.5</ele><time>2026-05-04T09:30:55.603Z</time></trkpt><trkpt lat="41.5123704" lon="-0.4041811"><ele>279.75</ele><time>2026-05-04T09:30:56.608Z</time></trkpt><trkpt lat="41.512382" lon="-0.403998"><ele>280.0</ele><time>2026-05-04T09:30:57.593Z</time></trkpt><trkpt lat="41.5123901" lon="-0.40381"><ele>280.0</ele><time>2026-05-04T09:30:58.6Z</time></trkpt><trkpt lat="41.5123917" lon="-0.4036246"><ele>280.0</ele><time>2026-05-04T09:30:59.601Z</time></trkpt><trkpt lat="41.5123894" lon="-0.403444"><ele>280.0</ele><time>2026-05-04T09:31:00.598Z</time></trkpt><trkpt lat="41.5123883" lon="-0.4032628"><ele>280.0</ele><time>2026-05-04T09:31:01.595Z</time></trkpt><trkpt lat="41.5123822" lon="-0.4030882"><ele>280.25</ele><time>2026-05-04T09:31:02.598Z</time></trkpt><trkpt lat="41.5123759" lon="-0.4028972"><ele>280.5</ele><time>2026-05-04T09:31:03.598Z</time></trkpt><trkpt lat="41.5123568" lon="-0.4027198"><ele>280.75</ele><time>2026-05-04T09:31:04.599Z</time></trkpt><trkpt lat="41.5123373" lon="-0.4025431"><ele>281.0</ele><time>2026-05-04T09:31:05.597Z</time></trkpt><trkpt lat="41.5123099" lon="-0.4023627"><ele>281.0</ele><time>2026-05-04T09:31:06.604Z</time></trkpt><trkpt lat="41.5122889" lon="-0.4021918"><ele>281.0</ele><time>2026-05-04T09:31:07.598Z</time></trkpt><trkpt lat="41.5122637" lon="-0.4020181"><ele>281.0</ele><time>2026-05-04T09:31:08.599Z</time></trkpt><trkpt lat="41.5122274" lon="-0.4018497"><ele>281.0</ele><time>2026-05-04T09:31:09.602Z</time></trkpt><trkpt lat="41.5121927" lon="-0.4016793"><ele>281.75</ele><time>2026-05-04T09:31:10.599Z</time></trkpt><trkpt lat="41.5121477" lon="-0.4015076"><ele>282.5</ele><time>2026-05-04T09:31:11.598Z</time></trkpt><trkpt lat="41.5120976" lon="-0.4013339"><ele>283.25</ele><time>2026-05-04T09:31:12.603Z</time></trkpt><trkpt lat="41.5120428" lon="-0.4011654"><ele>284.0</ele><time>2026-05-04T09:31:13.602Z</time></trkpt><trkpt lat="41.511987" lon="-0.4010019"><ele>284.75</ele><time>2026-05-04T09:31:14.604Z</time></trkpt><trkpt lat="41.5119264" lon="-0.4008397"><ele>285.5</ele><time>2026-05-04T09:31:15.599Z</time></trkpt><trkpt lat="41.5118672" lon="-0.4006772"><ele>286.25</ele><time>2026-05-04T09:31:16.604Z</time></trkpt><trkpt lat="41.5118114" lon="-0.4005125"><ele>287.0</ele><time>2026-05-04T09:31:17.632Z</time></trkpt><trkpt lat="41.5117439" lon="-0.4003544"><ele>287.0</ele><time>2026-05-04T09:31:18.604Z</time></trkpt><trkpt lat="41.5116726" lon="-0.4002041"><ele>287.0</ele><time>2026-05-04T09:31:19.604Z</time></trkpt><trkpt lat="41.5116035" lon="-0.4000442"><ele>287.0</ele><time>2026-05-04T09:31:20.606Z</time></trkpt><trkpt lat="41.5115338" lon="-0.3998953"><ele>287.0</ele><time>2026-05-04T09:31:21.602Z</time></trkpt><trkpt lat="41.5114535" lon="-0.3997558"><ele>287.75</ele><time>2026-05-04T09:31:22.601Z</time></trkpt><trkpt lat="41.5113732" lon="-0.3996093"><ele>288.5</ele><time>2026-05-04T09:31:23.603Z</time></trkpt><trkpt lat="41.511287" lon="-0.3994693"><ele>289.25</ele><time>2026-05-04T09:31:24.601Z</time></trkpt><trkpt lat="41.5112" lon="-0.3993208"><ele>290.0</ele><time>2026-05-04T09:31:25.599Z</time></trkpt><trkpt lat="41.5111056" lon="-0.3991972"><ele>290.0</ele><time>2026-05-04T09:31:26.604Z</time></trkpt><trkpt lat="41.5110219" lon="-0.3990716"><ele>290.0</ele><time>2026-05-04T09:31:27.597Z</time></trkpt><trkpt lat="41.5109356" lon="-0.3989463"><ele>290.0</ele><time>2026-05-04T09:31:28.599Z</time></trkpt><trkpt lat="41.5108444" lon="-0.398822"><ele>290.0</ele><time>2026-05-04T09:31:29.602Z</time></trkpt><trkpt lat="41.5107586" lon="-0.3986932"><ele>290.75</ele><time>2026-05-04T09:31:30.604Z</time></trkpt><trkpt lat="41.5106744" lon="-0.3985637"><ele>291.5</ele><time>2026-05-04T09:31:31.602Z</time></trkpt><trkpt lat="41.5105912" lon="-0.3984438"><ele>292.25</ele><time>2026-05-04T09:31:32.603Z</time></trkpt><trkpt lat="41.5105042" lon="-0.3983183"><ele>293.0</ele><time>2026-05-04T09:31:33.606Z</time></trkpt><trkpt lat="41.5104248" lon="-0.3981926"><ele>293.5</ele><time>2026-05-04T09:31:34.606Z</time></trkpt><trkpt lat="41.5103409" lon="-0.3980618"><ele>294.0</ele><time>2026-05-04T09:31:35.606Z</time></trkpt><trkpt lat="41.5102554" lon="-0.3979384"><ele>294.5</ele><time>2026-05-04T09:31:36.608Z</time></trkpt><trkpt lat="41.5101711" lon="-0.3978116"><ele>295.0</ele><time>2026-05-04T09:31:37.603Z</time></trkpt><trkpt lat="41.5100862" lon="-0.3976858"><ele>295.0</ele><time>2026-05-04T09:31:38.601Z</time></trkpt><trkpt lat="41.5100047" lon="-0.3975578"><ele>295.0</ele><time>2026-05-04T09:31:39.601Z</time></trkpt><trkpt lat="41.5099241" lon="-0.3974334"><ele>295.0</ele><time>2026-05-04T09:31:40.604Z</time></trkpt><trkpt lat="41.5098506" lon="-0.3973141"><ele>295.0</ele><time>2026-05-04T09:31:41.595Z</time></trkpt><trkpt lat="41.5097898" lon="-0.3972122"><ele>295.16666666666663</ele><time>2026-05-04T09:31:42.606Z</time></trkpt><trkpt lat="41.5097397" lon="-0.3971318"><ele>295.3333333333333</ele><time>2026-05-04T09:31:43.605Z</time></trkpt><trkpt lat="41.5096927" lon="-0.3970633"><ele>295.5</ele><time>2026-05-04T09:31:44.601Z</time></trkpt><trkpt lat="41.5096444" lon="-0.3969945"><ele>295.6666666666667</ele><time>2026-05-04T09:31:45.597Z</time></trkpt><trkpt lat="41.5095974" lon="-0.3969305"><ele>295.83333333333337</ele><time>2026-05-04T09:31:46.606Z</time></trkpt><trkpt lat="41.509514" lon="-0.3968107"><ele>296.0</ele><time>2026-05-04T09:31:48.6Z</time></trkpt><trkpt lat="41.509455" lon="-0.3967151"><ele>296.0</ele><time>2026-05-04T09:31:50.612Z</time></trkpt><trkpt lat="41.5094102" lon="-0.3966289"><ele>296.0</ele><time>2026-05-04T09:33:44.599Z</time></trkpt><trkpt lat="41.5093394" lon="-0.3965212"><ele>296.0</ele><time>2026-05-04T09:33:46.595Z</time></trkpt><trkpt lat="41.5092964" lon="-0.3964598"><ele>296.0</ele><time>2026-05-04T09:33:47.597Z</time></trkpt><trkpt lat="41.5092516" lon="-0.3963922"><ele>296.0</ele><time>2026-05-04T09:33:48.593Z</time></trkpt><trkpt lat="41.5092004" lon="-0.3963183"><ele>296.0</ele><time>2026-05-04T09:33:49.596Z</time></trkpt><trkpt lat="41.5091512" lon="-0.3962316"><ele>296.40000000000003</ele><time>2026-05-04T09:33:50.592Z</time></trkpt><trkpt lat="41.5090949" lon="-0.3961397"><ele>296.8</ele><time>2026-05-04T09:33:51.611Z</time></trkpt><trkpt lat="41.5090377" lon="-0.3960477"><ele>297.20000000000005</ele><time>2026-05-04T09:33:52.594Z</time></trkpt><trkpt lat="41.5089792" lon="-0.3959529"><ele>297.6</ele><time>2026-05-04T09:33:53.597Z</time></trkpt><trkpt lat="41.5089221" lon="-0.3958609"><ele>298.0</ele><time>2026-05-04T09:33:54.6Z</time></trkpt><trkpt lat="41.5088533" lon="-0.3957607"><ele>298.0</ele><time>2026-05-04T09:33:55.599Z</time></trkpt><trkpt lat="41.5087862" lon="-0.3956613"><ele>298.0</ele><time>2026-05-04T09:33:56.601Z</time></trkpt><trkpt lat="41.5087256" lon="-0.3955604"><ele>298.0</ele><time>2026-05-04T09:33:57.601Z</time></trkpt><trkpt lat="41.5086612" lon="-0.395449"><ele>298.0</ele><time>2026-05-04T09:33:58.603Z</time></trkpt><trkpt lat="41.5085984" lon="-0.3953347"><ele>298.0</ele><time>2026-05-04T09:33:59.615Z</time></trkpt><trkpt lat="41.5085324" lon="-0.3952219"><ele>297.5</ele><time>2026-05-04T09:34:00.604Z</time></trkpt><trkpt lat="41.5084608" lon="-0.3951093"><ele>297.0</ele><time>2026-05-04T09:34:01.602Z</time></trkpt><trkpt lat="41.5083823" lon="-0.3949971"><ele>296.5</ele><time>2026-05-04T09:34:02.604Z</time></trkpt><trkpt lat="41.5083059" lon="-0.3948741"><ele>296.0</ele><time>2026-05-04T09:34:03.604Z</time></trkpt><trkpt lat="41.5082297" lon="-0.3947507"><ele>297.5</ele><time>2026-05-04T09:34:04.607Z</time></trkpt><trkpt lat="41.5081579" lon="-0.3946254"><ele>299.0</ele><time>2026-05-04T09:34:05.606Z</time></trkpt><trkpt lat="41.5080866" lon="-0.3944963"><ele>300.5</ele><time>2026-05-04T09:34:06.604Z</time></trkpt><trkpt lat="41.5080158" lon="-0.394365"><ele>302.0</ele><time>2026-05-04T09:34:07.602Z</time></trkpt><trkpt lat="41.5079503" lon="-0.3942331"><ele>301.75</ele><time>2026-05-04T09:34:08.602Z</time></trkpt><trkpt lat="41.5078838" lon="-0.3941001"><ele>301.5</ele><time>2026-05-04T09:34:09.599Z</time></trkpt><trkpt lat="41.5078173" lon="-0.3939682"><ele>301.25</ele><time>2026-05-04T09:34:10.596Z</time></trkpt><trkpt lat="41.507747" lon="-0.3938425"><ele>301.0</ele><time>2026-05-04T09:34:11.598Z</time></trkpt><trkpt lat="41.5076787" lon="-0.3937102"><ele>301.0</ele><time>2026-05-04T09:34:12.604Z</time></trkpt><trkpt lat="41.507617" lon="-0.3935797"><ele>301.0</ele><time>2026-05-04T09:34:13.604Z</time></trkpt><trkpt lat="41.5075554" lon="-0.3934469"><ele>301.0</ele><time>2026-05-04T09:34:14.599Z</time></trkpt><trkpt lat="41.50749" lon="-0.3933118"><ele>301.0</ele><time>2026-05-04T09:34:15.599Z</time></trkpt><trkpt lat="41.5074208" lon="-0.393175"><ele>301.0</ele><time>2026-05-04T09:34:16.601Z</time></trkpt><trkpt lat="41.5073501" lon="-0.3930363"><ele>301.0</ele><time>2026-05-04T09:34:17.605Z</time></trkpt><trkpt lat="41.5072779" lon="-0.3928943"><ele>301.0</ele><time>2026-05-04T09:34:18.603Z</time></trkpt><trkpt lat="41.5072094" lon="-0.3927543"><ele>301.0</ele><time>2026-05-04T09:34:19.616Z</time></trkpt><trkpt lat="41.5071386" lon="-0.392614"><ele>301.25</ele><time>2026-05-04T09:34:20.603Z</time></trkpt><trkpt lat="41.5070669" lon="-0.3924735"><ele>301.5</ele><time>2026-05-04T09:34:21.605Z</time></trkpt><trkpt lat="41.5069986" lon="-0.3923336"><ele>301.75</ele><time>2026-05-04T09:34:22.615Z</time></trkpt><trkpt lat="41.5069275" lon="-0.3921892"><ele>302.0</ele><time>2026-05-04T09:34:23.602Z</time></trkpt><trkpt lat="41.5068573" lon="-0.3920439"><ele>302.5</ele><time>2026-05-04T09:34:24.609Z</time></trkpt><trkpt lat="41.5067855" lon="-0.3918968"><ele>303.0</ele><time>2026-05-04T09:34:25.6Z</time></trkpt><trkpt lat="41.5067128" lon="-0.3917528"><ele>303.5</ele><time>2026-05-04T09:34:26.603Z</time></trkpt><trkpt lat="41.5066381" lon="-0.3916068"><ele>304.0</ele><time>2026-05-04T09:34:27.601Z</time></trkpt><trkpt lat="41.5065626" lon="-0.3914623"><ele>303.75</ele><time>2026-05-04T09:34:28.607Z</time></trkpt><trkpt lat="41.506484" lon="-0.3913184"><ele>303.5</ele><time>2026-05-04T09:34:29.605Z</time></trkpt><trkpt lat="41.5064057" lon="-0.3911788"><ele>303.25</ele><time>2026-05-04T09:34:30.612Z</time></trkpt><trkpt lat="41.506323" lon="-0.3910377"><ele>303.0</ele><time>2026-05-04T09:34:31.608Z</time></trkpt><trkpt lat="41.506242" lon="-0.3908963"><ele>303.0</ele><time>2026-05-04T09:34:32.603Z</time></trkpt><trkpt lat="41.5061606" lon="-0.3907467"><ele>303.0</ele><time>2026-05-04T09:34:33.602Z</time></trkpt><trkpt lat="41.5060796" lon="-0.3905962"><ele>303.0</ele><time>2026-05-04T09:34:34.608Z</time></trkpt><trkpt lat="41.5059902" lon="-0.3904546"><ele>303.0</ele><time>2026-05-04T09:34:35.603Z</time></trkpt><trkpt lat="41.5059099" lon="-0.390305"><ele>303.0</ele><time>2026-05-04T09:34:36.608Z</time></trkpt><trkpt lat="41.5058246" lon="-0.3901596"><ele>303.0</ele><time>2026-05-04T09:34:37.604Z</time></trkpt><trkpt lat="41.5057345" lon="-0.3899929"><ele>303.0</ele><time>2026-05-04T09:34:38.609Z</time></trkpt><trkpt lat="41.5056507" lon="-0.3898451"><ele>303.0</ele><time>2026-05-04T09:34:39.606Z</time></trkpt><trkpt lat="41.5055691" lon="-0.3896993"><ele>303.5</ele><time>2026-05-04T09:34:40.61Z</time></trkpt><trkpt lat="41.5054818" lon="-0.3895375"><ele>304.0</ele><time>2026-05-04T09:34:41.607Z</time></trkpt><trkpt lat="41.5053874" lon="-0.3893844"><ele>304.5</ele><time>2026-05-04T09:34:42.608Z</time></trkpt><trkpt lat="41.5052994" lon="-0.3892273"><ele>305.0</ele><time>2026-05-04T09:34:43.609Z</time></trkpt><trkpt lat="41.5052123" lon="-0.3890671"><ele>305.0</ele><time>2026-05-04T09:34:44.607Z</time></trkpt><trkpt lat="41.5051306" lon="-0.3889029"><ele>305.0</ele><time>2026-05-04T09:34:45.607Z</time></trkpt><trkpt lat="41.5050346" lon="-0.388737"><ele>305.0</ele><time>2026-05-04T09:34:46.607Z</time></trkpt><trkpt lat="41.5049404" lon="-0.3885758"><ele>304.0</ele><time>2026-05-04T09:34:47.611Z</time></trkpt><trkpt lat="41.5048429" lon="-0.3884029"><ele>303.0</ele><time>2026-05-04T09:34:48.61Z</time></trkpt><trkpt lat="41.5047489" lon="-0.3882399"><ele>302.0</ele><time>2026-05-04T09:34:49.609Z</time></trkpt><trkpt lat="41.5046556" lon="-0.3880789"><ele>301.0</ele><time>2026-05-04T09:34:50.609Z</time></trkpt><trkpt lat="41.5045608" lon="-0.3879113"><ele>300.0</ele><time>2026-05-04T09:34:51.609Z</time></trkpt><trkpt lat="41.5044635" lon="-0.387735"><ele>299.0</ele><time>2026-05-04T09:34:52.607Z</time></trkpt><trkpt lat="41.504368" lon="-0.387556"><ele>299.0</ele><time>2026-05-04T09:34:53.621Z</time></trkpt><trkpt lat="41.5042693" lon="-0.3873793"><ele>299.0</ele><time>2026-05-04T09:34:54.612Z</time></trkpt><trkpt lat="41.504176" lon="-0.387213"><ele>299.0</ele><time>2026-05-04T09:34:55.601Z</time></trkpt><trkpt lat="41.5040842" lon="-0.3870418"><ele>299.0</ele><time>2026-05-04T09:34:56.608Z</time></trkpt><trkpt lat="41.5039904" lon="-0.3868661"><ele>299.0</ele><time>2026-05-04T09:34:57.608Z</time></trkpt><trkpt lat="41.5039055" lon="-0.3866833"><ele>299.0</ele><time>2026-05-04T09:34:58.608Z</time></trkpt><trkpt lat="41.5038151" lon="-0.386497"><ele>297.6666666666667</ele><time>2026-05-04T09:34:59.606Z</time></trkpt><trkpt lat="41.5037366" lon="-0.3863191"><ele>296.3333333333333</ele><time>2026-05-04T09:35:00.608Z</time></trkpt><trkpt lat="41.5036489" lon="-0.3861213"><ele>295.0</ele><time>2026-05-04T09:35:01.604Z</time></trkpt><trkpt lat="41.5035657" lon="-0.3859369"><ele>295.0</ele><time>2026-05-04T09:35:02.608Z</time></trkpt><trkpt lat="41.5034788" lon="-0.385752"><ele>295.0</ele><time>2026-05-04T09:35:03.606Z</time></trkpt><trkpt lat="41.5034026" lon="-0.3855814"><ele>295.0</ele><time>2026-05-04T09:35:04.607Z</time></trkpt><trkpt lat="41.5033235" lon="-0.385407"><ele>295.3333333333333</ele><time>2026-05-04T09:35:05.604Z</time></trkpt><trkpt lat="41.5032452" lon="-0.3852401"><ele>295.6666666666667</ele><time>2026-05-04T09:35:06.61Z</time></trkpt><trkpt lat="41.5031576" lon="-0.3850719"><ele>296.0</ele><time>2026-05-04T09:35:07.6Z</time></trkpt><trkpt lat="41.5030687" lon="-0.3849018"><ele>296.0</ele><time>2026-05-04T09:35:08.605Z</time></trkpt><trkpt lat="41.502987" lon="-0.3847343"><ele>296.0</ele><time>2026-05-04T09:35:09.604Z</time></trkpt><trkpt lat="41.5029101" lon="-0.3845632"><ele>296.0</ele><time>2026-05-04T09:35:10.606Z</time></trkpt><trkpt lat="41.5028371" lon="-0.3843868"><ele>295.0</ele><time>2026-05-04T09:35:11.606Z</time></trkpt><trkpt lat="41.5027626" lon="-0.3842133"><ele>294.0</ele><time>2026-05-04T09:35:12.602Z</time></trkpt><trkpt lat="41.5026969" lon="-0.3840355"><ele>293.0</ele><time>2026-05-04T09:35:13.609Z</time></trkpt><trkpt lat="41.5026292" lon="-0.3838684"><ele>292.0</ele><time>2026-05-04T09:35:14.597Z</time></trkpt><trkpt lat="41.5025652" lon="-0.3837105"><ele>292.0</ele><time>2026-05-04T09:35:15.608Z</time></trkpt><trkpt lat="41.5025091" lon="-0.3835582"><ele>292.0</ele><time>2026-05-04T09:35:16.601Z</time></trkpt><trkpt lat="41.5024549" lon="-0.3834057"><ele>292.0</ele><time>2026-05-04T09:35:17.606Z</time></trkpt><trkpt lat="41.5023986" lon="-0.383252"><ele>292.0</ele><time>2026-05-04T09:35:18.605Z</time></trkpt><trkpt lat="41.5023415" lon="-0.3831048"><ele>292.25</ele><time>2026-05-04T09:35:19.606Z</time></trkpt><trkpt lat="41.5022913" lon="-0.3829564"><ele>292.5</ele><time>2026-05-04T09:35:20.601Z</time></trkpt><trkpt lat="41.5022394" lon="-0.3828052"><ele>292.75</ele><time>2026-05-04T09:35:21.608Z</time></trkpt><trkpt lat="41.5021855" lon="-0.3826527"><ele>293.0</ele><time>2026-05-04T09:35:22.609Z</time></trkpt><trkpt lat="41.5021328" lon="-0.3824976"><ele>292.0</ele><time>2026-05-04T09:35:23.61Z</time></trkpt><trkpt lat="41.5020755" lon="-0.3823446"><ele>291.0</ele><time>2026-05-04T09:35:24.621Z</time></trkpt><trkpt lat="41.5020201" lon="-0.3821867"><ele>290.0</ele><time>2026-05-04T09:35:25.609Z</time></trkpt><trkpt lat="41.5019616" lon="-0.382025"><ele>289.0</ele><time>2026-05-04T09:35:26.616Z</time></trkpt><trkpt lat="41.5019042" lon="-0.3818592"><ele>288.75</ele><time>2026-05-04T09:35:27.606Z</time></trkpt><trkpt lat="41.501842" lon="-0.3816919"><ele>288.5</ele><time>2026-05-04T09:35:28.611Z</time></trkpt><trkpt lat="41.5017845" lon="-0.3815258"><ele>288.25</ele><time>2026-05-04T09:35:29.606Z</time></trkpt><trkpt lat="41.5017223" lon="-0.3813626"><ele>288.0</ele><time>2026-05-04T09:35:30.609Z</time></trkpt><trkpt lat="41.5016665" lon="-0.3812018"><ele>288.0</ele><time>2026-05-04T09:35:31.608Z</time></trkpt><trkpt lat="41.5016099" lon="-0.3810305"><ele>288.0</ele><time>2026-05-04T09:35:32.606Z</time></trkpt><trkpt lat="41.5015489" lon="-0.38086"><ele>288.0</ele><time>2026-05-04T09:35:33.607Z</time></trkpt><trkpt lat="41.5014936" lon="-0.3806962"><ele>288.0</ele><time>2026-05-04T09:35:34.602Z</time></trkpt><trkpt lat="41.5014385" lon="-0.380544"><ele>288.5</ele><time>2026-05-04T09:35:35.601Z</time></trkpt><trkpt lat="41.501383" lon="-0.3803818"><ele>289.0</ele><time>2026-05-04T09:35:36.604Z</time></trkpt><trkpt lat="41.5013297" lon="-0.3802343"><ele>289.5</ele><time>2026-05-04T09:35:37.606Z</time></trkpt><trkpt lat="41.5012775" lon="-0.3800966"><ele>290.0</ele><time>2026-05-04T09:35:38.606Z</time></trkpt><trkpt lat="41.5012258" lon="-0.3799503"><ele>288.5</ele><time>2026-05-04T09:35:39.607Z</time></trkpt><trkpt lat="41.5011794" lon="-0.3798104"><ele>287.0</ele><time>2026-05-04T09:35:40.609Z</time></trkpt><trkpt lat="41.501129" lon="-0.3796643"><ele>285.5</ele><time>2026-05-04T09:35:41.608Z</time></trkpt><trkpt lat="41.50108" lon="-0.3795144"><ele>284.0</ele><time>2026-05-04T09:35:42.607Z</time></trkpt><trkpt lat="41.5010307" lon="-0.3793633"><ele>283.75</ele><time>2026-05-04T09:35:43.61Z</time></trkpt><trkpt lat="41.5009817" lon="-0.3792136"><ele>283.5</ele><time>2026-05-04T09:35:44.608Z</time></trkpt><trkpt lat="41.5009308" lon="-0.3790638"><ele>283.25</ele><time>2026-05-04T09:35:45.604Z</time></trkpt><trkpt lat="41.5008815" lon="-0.3789113"><ele>283.0</ele><time>2026-05-04T09:35:46.607Z</time></trkpt><trkpt lat="41.5008334" lon="-0.3787577"><ele>282.5</ele><time>2026-05-04T09:35:47.606Z</time></trkpt><trkpt lat="41.5007866" lon="-0.3786062"><ele>282.0</ele><time>2026-05-04T09:35:48.604Z</time></trkpt><trkpt lat="41.50074" lon="-0.37846"><ele>281.5</ele><time>2026-05-04T09:35:49.603Z</time></trkpt><trkpt lat="41.5006928" lon="-0.3783205"><ele>281.0</ele><time>2026-05-04T09:35:50.603Z</time></trkpt><trkpt lat="41.5006484" lon="-0.3781759"><ele>281.0</ele><time>2026-05-04T09:35:51.608Z</time></trkpt><trkpt lat="41.5006023" lon="-0.3780326"><ele>281.0</ele><time>2026-05-04T09:35:52.608Z</time></trkpt><trkpt lat="41.5005522" lon="-0.3778905"><ele>281.0</ele><time>2026-05-04T09:35:53.598Z</time></trkpt><trkpt lat="41.5005038" lon="-0.3777412"><ele>281.0</ele><time>2026-05-04T09:35:54.605Z</time></trkpt><trkpt lat="41.5004523" lon="-0.3775898"><ele>281.0</ele><time>2026-05-04T09:35:55.635Z</time></trkpt><trkpt lat="41.5004007" lon="-0.3774377"><ele>281.0</ele><time>2026-05-04T09:35:56.613Z</time></trkpt><trkpt lat="41.500343" lon="-0.3772877"><ele>281.0</ele><time>2026-05-04T09:35:57.61Z</time></trkpt><trkpt lat="41.5002837" lon="-0.3771399"><ele>281.0</ele><time>2026-05-04T09:35:58.607Z</time></trkpt><trkpt lat="41.5002203" lon="-0.3769981"><ele>281.0</ele><time>2026-05-04T09:35:59.608Z</time></trkpt><trkpt lat="41.5001541" lon="-0.3768535"><ele>281.0</ele><time>2026-05-04T09:36:00.603Z</time></trkpt><trkpt lat="41.5000892" lon="-0.3767152"><ele>281.0</ele><time>2026-05-04T09:36:01.602Z</time></trkpt><trkpt lat="41.5000194" lon="-0.3765808"><ele>281.0</ele><time>2026-05-04T09:36:02.599Z</time></trkpt><trkpt lat="41.4999523" lon="-0.3764505"><ele>281.25</ele><time>2026-05-04T09:36:03.601Z</time></trkpt><trkpt lat="41.4998847" lon="-0.3763241"><ele>281.5</ele><time>2026-05-04T09:36:04.608Z</time></trkpt><trkpt lat="41.4998096" lon="-0.376194"><ele>281.75</ele><time>2026-05-04T09:36:05.6Z</time></trkpt><trkpt lat="41.4997418" lon="-0.3760641"><ele>282.0</ele><time>2026-05-04T09:36:06.598Z</time></trkpt><trkpt lat="41.4996645" lon="-0.3759348"><ele>282.0</ele><time>2026-05-04T09:36:07.599Z</time></trkpt><trkpt lat="41.4995914" lon="-0.3758138"><ele>282.0</ele><time>2026-05-04T09:36:08.602Z</time></trkpt><trkpt lat="41.4995155" lon="-0.3756927"><ele>282.0</ele><time>2026-05-04T09:36:09.604Z</time></trkpt><trkpt lat="41.4994352" lon="-0.3755805"><ele>282.0</ele><time>2026-05-04T09:36:10.607Z</time></trkpt><trkpt lat="41.4993522" lon="-0.3754672"><ele>280.5</ele><time>2026-05-04T09:36:11.604Z</time></trkpt><trkpt lat="41.4992686" lon="-0.3753489"><ele>279.0</ele><time>2026-05-04T09:36:12.606Z</time></trkpt><trkpt lat="41.4991819" lon="-0.375235"><ele>277.5</ele><time>2026-05-04T09:36:13.604Z</time></trkpt><trkpt lat="41.4990989" lon="-0.3751138"><ele>276.0</ele><time>2026-05-04T09:36:14.611Z</time></trkpt><trkpt lat="41.4990082" lon="-0.3749949"><ele>276.0</ele><time>2026-05-04T09:36:15.603Z</time></trkpt><trkpt lat="41.4989154" lon="-0.3748783"><ele>276.0</ele><time>2026-05-04T09:36:16.611Z</time></trkpt><trkpt lat="41.4988269" lon="-0.3747555"><ele>276.0</ele><time>2026-05-04T09:36:17.607Z</time></trkpt><trkpt lat="41.4987333" lon="-0.3746371"><ele>276.0</ele><time>2026-05-04T09:36:18.607Z</time></trkpt><trkpt lat="41.4986405" lon="-0.3745184"><ele>276.5</ele><time>2026-05-04T09:36:19.605Z</time></trkpt><trkpt lat="41.4985461" lon="-0.3743953"><ele>277.0</ele><time>2026-05-04T09:36:20.607Z</time></trkpt><trkpt lat="41.4984547" lon="-0.3742716"><ele>277.5</ele><time>2026-05-04T09:36:21.602Z</time></trkpt><trkpt lat="41.4983636" lon="-0.3741417"><ele>278.0</ele><time>2026-05-04T09:36:22.606Z</time></trkpt><trkpt lat="41.4982736" lon="-0.3740091"><ele>278.0</ele><time>2026-05-04T09:36:23.606Z</time></trkpt><trkpt lat="41.4981837" lon="-0.373879"><ele>278.0</ele><time>2026-05-04T09:36:24.61Z</time></trkpt><trkpt lat="41.4980953" lon="-0.3737469"><ele>278.0</ele><time>2026-05-04T09:36:25.617Z</time></trkpt><trkpt lat="41.4980168" lon="-0.3736129"><ele>278.0</ele><time>2026-05-04T09:36:26.608Z</time></trkpt><trkpt lat="41.4979444" lon="-0.373464"><ele>277.75</ele><time>2026-05-04T09:36:27.606Z</time></trkpt><trkpt lat="41.4978767" lon="-0.3733133"><ele>277.5</ele><time>2026-05-04T09:36:28.606Z</time></trkpt><trkpt lat="41.497814" lon="-0.373159"><ele>277.25</ele><time>2026-05-04T09:36:29.614Z</time></trkpt><trkpt lat="41.4977517" lon="-0.3730006"><ele>277.0</ele><time>2026-05-04T09:36:30.606Z</time></trkpt><trkpt lat="41.4976935" lon="-0.3728477"><ele>277.0</ele><time>2026-05-04T09:36:31.604Z</time></trkpt><trkpt lat="41.4976375" lon="-0.3726899"><ele>277.0</ele><time>2026-05-04T09:36:32.608Z</time></trkpt><trkpt lat="41.4975835" lon="-0.3725355"><ele>277.0</ele><time>2026-05-04T09:36:33.603Z</time></trkpt><trkpt lat="41.4975349" lon="-0.3723826"><ele>277.0</ele><time>2026-05-04T09:36:34.604Z</time></trkpt><trkpt lat="41.4974862" lon="-0.3722332"><ele>276.75</ele><time>2026-05-04T09:36:35.606Z</time></trkpt><trkpt lat="41.4974357" lon="-0.3720758"><ele>276.5</ele><time>2026-05-04T09:36:36.61Z</time></trkpt><trkpt lat="41.4973882" lon="-0.3719179"><ele>276.25</ele><time>2026-05-04T09:36:37.605Z</time></trkpt><trkpt lat="41.4973413" lon="-0.3717629"><ele>276.0</ele><time>2026-05-04T09:36:38.606Z</time></trkpt><trkpt lat="41.4972992" lon="-0.371611"><ele>276.0</ele><time>2026-05-04T09:36:39.602Z</time></trkpt><trkpt lat="41.4972598" lon="-0.3714566"><ele>276.0</ele><time>2026-05-04T09:36:40.604Z</time></trkpt><trkpt lat="41.4972182" lon="-0.371299"><ele>276.0</ele><time>2026-05-04T09:36:41.603Z</time></trkpt><trkpt lat="41.4971816" lon="-0.3711419"><ele>276.0</ele><time>2026-05-04T09:36:42.611Z</time></trkpt><trkpt lat="41.4971473" lon="-0.3709938"><ele>275.75</ele><time>2026-05-04T09:36:43.6Z</time></trkpt><trkpt lat="41.4971131" lon="-0.3708427"><ele>275.5</ele><time>2026-05-04T09:36:44.604Z</time></trkpt><trkpt lat="41.4970802" lon="-0.3706892"><ele>275.25</ele><time>2026-05-04T09:36:45.609Z</time></trkpt><trkpt lat="41.4970528" lon="-0.3705352"><ele>275.0</ele><time>2026-05-04T09:36:46.603Z</time></trkpt><trkpt lat="41.4970301" lon="-0.3703796"><ele>274.75</ele><time>2026-05-04T09:36:47.61Z</time></trkpt><trkpt lat="41.4970094" lon="-0.370226"><ele>274.5</ele><time>2026-05-04T09:36:48.602Z</time></trkpt><trkpt lat="41.4969884" lon="-0.3700715"><ele>274.25</ele><time>2026-05-04T09:36:49.609Z</time></trkpt><trkpt lat="41.4969716" lon="-0.3699175"><ele>274.0</ele><time>2026-05-04T09:36:50.604Z</time></trkpt><trkpt lat="41.4969498" lon="-0.369762"><ele>274.0</ele><time>2026-05-04T09:36:51.604Z</time></trkpt><trkpt lat="41.4969273" lon="-0.3696055"><ele>274.0</ele><time>2026-05-04T09:36:52.602Z</time></trkpt><trkpt lat="41.4969055" lon="-0.36945"><ele>274.0</ele><time>2026-05-04T09:36:53.606Z</time></trkpt><trkpt lat="41.4968819" lon="-0.3692927"><ele>274.0</ele><time>2026-05-04T09:36:54.608Z</time></trkpt><trkpt lat="41.4968561" lon="-0.3691374"><ele>274.0</ele><time>2026-05-04T09:36:55.603Z</time></trkpt><trkpt lat="41.4968333" lon="-0.3689704"><ele>274.0</ele><time>2026-05-04T09:36:56.623Z</time></trkpt><trkpt lat="41.4968124" lon="-0.3688005"><ele>274.0</ele><time>2026-05-04T09:36:57.602Z</time></trkpt><trkpt lat="41.4967908" lon="-0.3686284"><ele>274.0</ele><time>2026-05-04T09:36:58.612Z</time></trkpt><trkpt lat="41.4967676" lon="-0.3684511"><ele>274.25</ele><time>2026-05-04T09:36:59.607Z</time></trkpt><trkpt lat="41.496742" lon="-0.3682802"><ele>274.5</ele><time>2026-05-04T09:37:00.607Z</time></trkpt><trkpt lat="41.4967162" lon="-0.3681017"><ele>274.75</ele><time>2026-05-04T09:37:01.602Z</time></trkpt><trkpt lat="41.4966895" lon="-0.3679281"><ele>275.0</ele><time>2026-05-04T09:37:02.607Z</time></trkpt><trkpt lat="41.4966631" lon="-0.3677531"><ele>275.0</ele><time>2026-05-04T09:37:03.601Z</time></trkpt><trkpt lat="41.4966386" lon="-0.3675829"><ele>275.0</ele><time>2026-05-04T09:37:04.602Z</time></trkpt><trkpt lat="41.4966129" lon="-0.3674166"><ele>275.0</ele><time>2026-05-04T09:37:05.604Z</time></trkpt><trkpt lat="41.4965876" lon="-0.3672391"><ele>275.0</ele><time>2026-05-04T09:37:06.604Z</time></trkpt><trkpt lat="41.4965601" lon="-0.3670571"><ele>275.25</ele><time>2026-05-04T09:37:07.597Z</time></trkpt><trkpt lat="41.4965338" lon="-0.366879"><ele>275.5</ele><time>2026-05-04T09:37:08.6Z</time></trkpt><trkpt lat="41.4965077" lon="-0.3667085"><ele>275.75</ele><time>2026-05-04T09:37:09.603Z</time></trkpt><trkpt lat="41.4964894" lon="-0.3665281"><ele>276.0</ele><time>2026-05-04T09:37:10.605Z</time></trkpt><trkpt lat="41.4964664" lon="-0.3663497"><ele>276.0</ele><time>2026-05-04T09:37:11.605Z</time></trkpt><trkpt lat="41.4964429" lon="-0.3661677"><ele>276.0</ele><time>2026-05-04T09:37:12.601Z</time></trkpt><trkpt lat="41.4964106" lon="-0.3659917"><ele>276.0</ele><time>2026-05-04T09:37:13.608Z</time></trkpt><trkpt lat="41.4963846" lon="-0.3658228"><ele>276.0</ele><time>2026-05-04T09:37:14.602Z</time></trkpt><trkpt lat="41.4963609" lon="-0.3656538"><ele>276.25</ele><time>2026-05-04T09:37:15.612Z</time></trkpt><trkpt lat="41.4963433" lon="-0.365485"><ele>276.5</ele><time>2026-05-04T09:37:16.605Z</time></trkpt><trkpt lat="41.4963219" lon="-0.3653253"><ele>276.75</ele><time>2026-05-04T09:37:17.611Z</time></trkpt><trkpt lat="41.4963041" lon="-0.3651694"><ele>277.0</ele><time>2026-05-04T09:37:18.6Z</time></trkpt><trkpt lat="41.4962815" lon="-0.3650142"><ele>277.0</ele><time>2026-05-04T09:37:19.602Z</time></trkpt><trkpt lat="41.4962612" lon="-0.3648637"><ele>277.0</ele><time>2026-05-04T09:37:20.603Z</time></trkpt><trkpt lat="41.4962432" lon="-0.3647148"><ele>277.0</ele><time>2026-05-04T09:37:21.602Z</time></trkpt><trkpt lat="41.4962277" lon="-0.3645619"><ele>277.0</ele><time>2026-05-04T09:37:22.602Z</time></trkpt><trkpt lat="41.4962153" lon="-0.3644111"><ele>276.8</ele><time>2026-05-04T09:37:23.601Z</time></trkpt><trkpt lat="41.4962117" lon="-0.364266"><ele>276.6</ele><time>2026-05-04T09:37:24.614Z</time></trkpt><trkpt lat="41.4962085" lon="-0.3641225"><ele>276.40000000000003</ele><time>2026-05-04T09:37:25.606Z</time></trkpt><trkpt lat="41.4962114" lon="-0.3639771"><ele>276.2</ele><time>2026-05-04T09:37:26.612Z</time></trkpt><trkpt lat="41.4962202" lon="-0.3638238"><ele>276.0</ele><time>2026-05-04T09:37:27.621Z</time></trkpt><trkpt lat="41.4962312" lon="-0.3636702"><ele>276.0</ele><time>2026-05-04T09:37:28.608Z</time></trkpt><trkpt lat="41.4962487" lon="-0.3635078"><ele>276.0</ele><time>2026-05-04T09:37:29.604Z</time></trkpt><trkpt lat="41.4962597" lon="-0.3633392"><ele>276.0</ele><time>2026-05-04T09:37:30.602Z</time></trkpt><trkpt lat="41.4962675" lon="-0.3631758"><ele>276.0</ele><time>2026-05-04T09:37:31.597Z</time></trkpt><trkpt lat="41.4962746" lon="-0.3630081"><ele>276.0</ele><time>2026-05-04T09:37:32.603Z</time></trkpt><trkpt lat="41.4962818" lon="-0.3628365"><ele>276.0</ele><time>2026-05-04T09:37:33.602Z</time></trkpt><trkpt lat="41.4962863" lon="-0.3626625"><ele>276.0</ele><time>2026-05-04T09:37:34.602Z</time></trkpt><trkpt lat="41.4962937" lon="-0.3624847"><ele>276.0</ele><time>2026-05-04T09:37:35.596Z</time></trkpt><trkpt lat="41.4963015" lon="-0.362312"><ele>275.75</ele><time>2026-05-04T09:37:36.602Z</time></trkpt><trkpt lat="41.4963078" lon="-0.3621391"><ele>275.5</ele><time>2026-05-04T09:37:37.602Z</time></trkpt><trkpt lat="41.4963116" lon="-0.3619611"><ele>275.25</ele><time>2026-05-04T09:37:38.605Z</time></trkpt><trkpt lat="41.4963201" lon="-0.3617785"><ele>275.0</ele><time>2026-05-04T09:37:39.604Z</time></trkpt><trkpt lat="41.4963304" lon="-0.3616073"><ele>275.0</ele><time>2026-05-04T09:37:40.613Z</time></trkpt><trkpt lat="41.4963352" lon="-0.3614275"><ele>275.0</ele><time>2026-05-04T09:37:41.609Z</time></trkpt><trkpt lat="41.4963408" lon="-0.3612498"><ele>275.0</ele><time>2026-05-04T09:37:42.614Z</time></trkpt><trkpt lat="41.4963518" lon="-0.3610782"><ele>275.0</ele><time>2026-05-04T09:37:43.608Z</time></trkpt><trkpt lat="41.4963671" lon="-0.360907"><ele>274.75</ele><time>2026-05-04T09:37:44.61Z</time></trkpt><trkpt lat="41.496373" lon="-0.360733"><ele>274.5</ele><time>2026-05-04T09:37:45.602Z</time></trkpt><trkpt lat="41.4963798" lon="-0.3605362"><ele>274.25</ele><time>2026-05-04T09:37:46.6Z</time></trkpt><trkpt lat="41.4963763" lon="-0.3603592"><ele>274.0</ele><time>2026-05-04T09:37:47.598Z</time></trkpt><trkpt lat="41.4963748" lon="-0.3601876"><ele>273.75</ele><time>2026-05-04T09:37:48.603Z</time></trkpt><trkpt lat="41.496366" lon="-0.3600027"><ele>273.5</ele><time>2026-05-04T09:37:49.604Z</time></trkpt><trkpt lat="41.4963432" lon="-0.3598129"><ele>273.25</ele><time>2026-05-04T09:37:50.606Z</time></trkpt><trkpt lat="41.4963146" lon="-0.3596194"><ele>273.0</ele><time>2026-05-04T09:37:51.607Z</time></trkpt><trkpt lat="41.4962849" lon="-0.3594402"><ele>272.75</ele><time>2026-05-04T09:37:52.609Z</time></trkpt><trkpt lat="41.4962566" lon="-0.359249"><ele>272.5</ele><time>2026-05-04T09:37:53.606Z</time></trkpt><trkpt lat="41.496227" lon="-0.3590687"><ele>272.25</ele><time>2026-05-04T09:37:54.607Z</time></trkpt><trkpt lat="41.4962002" lon="-0.3588882"><ele>272.0</ele><time>2026-05-04T09:37:55.609Z</time></trkpt><trkpt lat="41.4961699" lon="-0.3587082"><ele>272.0</ele><time>2026-05-04T09:37:56.609Z</time></trkpt><trkpt lat="41.496145" lon="-0.3585333"><ele>272.0</ele><time>2026-05-04T09:37:57.606Z</time></trkpt><trkpt lat="41.4961098" lon="-0.3583492"><ele>272.0</ele><time>2026-05-04T09:37:58.62Z</time></trkpt><trkpt lat="41.4960866" lon="-0.3581751"><ele>272.0</ele><time>2026-05-04T09:37:59.605Z</time></trkpt><trkpt lat="41.4960594" lon="-0.3579847"><ele>271.5</ele><time>2026-05-04T09:38:00.609Z</time></trkpt><trkpt lat="41.496031" lon="-0.3577826"><ele>271.0</ele><time>2026-05-04T09:38:01.606Z</time></trkpt><trkpt lat="41.4960078" lon="-0.3576032"><ele>270.5</ele><time>2026-05-04T09:38:02.608Z</time></trkpt><trkpt lat="41.4959789" lon="-0.3574102"><ele>270.0</ele><time>2026-05-04T09:38:03.612Z</time></trkpt><trkpt lat="41.4959429" lon="-0.3572224"><ele>269.5</ele><time>2026-05-04T09:38:04.615Z</time></trkpt><trkpt lat="41.49591" lon="-0.3570319"><ele>269.0</ele><time>2026-05-04T09:38:05.612Z</time></trkpt><trkpt lat="41.4958787" lon="-0.356843"><ele>268.5</ele><time>2026-05-04T09:38:06.624Z</time></trkpt><trkpt lat="41.4958407" lon="-0.3566513"><ele>268.0</ele><time>2026-05-04T09:38:07.616Z</time></trkpt><trkpt lat="41.4958061" lon="-0.3564608"><ele>268.0</ele><time>2026-05-04T09:38:08.615Z</time></trkpt><trkpt lat="41.4957694" lon="-0.3562673"><ele>268.0</ele><time>2026-05-04T09:38:09.611Z</time></trkpt><trkpt lat="41.4957388" lon="-0.3560877"><ele>268.0</ele><time>2026-05-04T09:38:10.605Z</time></trkpt><trkpt lat="41.4957031" lon="-0.3558924"><ele>268.0</ele><time>2026-05-04T09:38:11.613Z</time></trkpt><trkpt lat="41.4956592" lon="-0.3557002"><ele>267.5</ele><time>2026-05-04T09:38:12.612Z</time></trkpt><trkpt lat="41.4956195" lon="-0.3555044"><ele>267.0</ele><time>2026-05-04T09:38:13.61Z</time></trkpt><trkpt lat="41.4955832" lon="-0.3553065"><ele>266.5</ele><time>2026-05-04T09:38:14.61Z</time></trkpt><trkpt lat="41.4955506" lon="-0.3551196"><ele>266.0</ele><time>2026-05-04T09:38:15.611Z</time></trkpt><trkpt lat="41.4955144" lon="-0.3549309"><ele>266.0</ele><time>2026-05-04T09:38:16.614Z</time></trkpt><trkpt lat="41.4954879" lon="-0.3547468"><ele>266.0</ele><time>2026-05-04T09:38:17.614Z</time></trkpt><trkpt lat="41.4954584" lon="-0.354564"><ele>266.0</ele><time>2026-05-04T09:38:18.619Z</time></trkpt><trkpt lat="41.4954265" lon="-0.3543723"><ele>266.0</ele><time>2026-05-04T09:38:19.615Z</time></trkpt><trkpt lat="41.4954006" lon="-0.3541887"><ele>265.5</ele><time>2026-05-04T09:38:20.62Z</time></trkpt><trkpt lat="41.4953731" lon="-0.3540096"><ele>265.0</ele><time>2026-05-04T09:38:21.62Z</time></trkpt><trkpt lat="41.4953494" lon="-0.3538313"><ele>264.5</ele><time>2026-05-04T09:38:22.619Z</time></trkpt><trkpt lat="41.4953254" lon="-0.3536422"><ele>264.0</ele><time>2026-05-04T09:38:23.619Z</time></trkpt><trkpt lat="41.4952977" lon="-0.3534672"><ele>264.0</ele><time>2026-05-04T09:38:24.623Z</time></trkpt><trkpt lat="41.4952787" lon="-0.3533029"><ele>264.0</ele><time>2026-05-04T09:38:25.61Z</time></trkpt><trkpt lat="41.4952607" lon="-0.3531314"><ele>264.0</ele><time>2026-05-04T09:38:26.624Z</time></trkpt><trkpt lat="41.4952537" lon="-0.352966"><ele>264.0</ele><time>2026-05-04T09:38:27.618Z</time></trkpt><trkpt lat="41.4952588" lon="-0.3527982"><ele>263.5</ele><time>2026-05-04T09:38:28.625Z</time></trkpt><trkpt lat="41.4952667" lon="-0.352626"><ele>263.0</ele><time>2026-05-04T09:38:29.634Z</time></trkpt><trkpt lat="41.4952824" lon="-0.3524492"><ele>262.5</ele><time>2026-05-04T09:38:30.626Z</time></trkpt><trkpt lat="41.4953083" lon="-0.3522753"><ele>262.0</ele><time>2026-05-04T09:38:31.62Z</time></trkpt><trkpt lat="41.4953403" lon="-0.3520988"><ele>262.0</ele><time>2026-05-04T09:38:32.62Z</time></trkpt><trkpt lat="41.4953782" lon="-0.3519256"><ele>262.0</ele><time>2026-05-04T09:38:33.607Z</time></trkpt><trkpt lat="41.495417" lon="-0.3517465"><ele>262.0</ele><time>2026-05-04T09:38:34.613Z</time></trkpt><trkpt lat="41.4954625" lon="-0.3515751"><ele>262.0</ele><time>2026-05-04T09:38:35.617Z</time></trkpt><trkpt lat="41.4955072" lon="-0.3514034"><ele>262.5</ele><time>2026-05-04T09:38:36.616Z</time></trkpt><trkpt lat="41.495548" lon="-0.3512226"><ele>263.0</ele><time>2026-05-04T09:38:37.61Z</time></trkpt><trkpt lat="41.4955859" lon="-0.351059"><ele>263.5</ele><time>2026-05-04T09:38:38.619Z</time></trkpt><trkpt lat="41.4956252" lon="-0.3508841"><ele>264.0</ele><time>2026-05-04T09:38:39.611Z</time></trkpt><trkpt lat="41.4956626" lon="-0.3507296"><ele>264.0</ele><time>2026-05-04T09:38:40.609Z</time></trkpt><trkpt lat="41.4956907" lon="-0.3505532"><ele>264.0</ele><time>2026-05-04T09:38:41.615Z</time></trkpt><trkpt lat="41.4957203" lon="-0.3503768"><ele>264.0</ele><time>2026-05-04T09:38:42.618Z</time></trkpt><trkpt lat="41.4957412" lon="-0.3501857"><ele>264.0</ele><time>2026-05-04T09:38:43.618Z</time></trkpt><trkpt lat="41.4957588" lon="-0.3499945"><ele>264.0</ele><time>2026-05-04T09:38:44.617Z</time></trkpt><trkpt lat="41.495784" lon="-0.3498056"><ele>264.0</ele><time>2026-05-04T09:38:45.612Z</time></trkpt><trkpt lat="41.4958059" lon="-0.3496304"><ele>264.0</ele><time>2026-05-04T09:38:46.614Z</time></trkpt><trkpt lat="41.4958312" lon="-0.3494564"><ele>264.0</ele><time>2026-05-04T09:38:47.614Z</time></trkpt><trkpt lat="41.4958468" lon="-0.3492766"><ele>264.0</ele><time>2026-05-04T09:38:48.617Z</time></trkpt><trkpt lat="41.4958783" lon="-0.3490956"><ele>264.0</ele><time>2026-05-04T09:38:49.605Z</time></trkpt><trkpt lat="41.4959065" lon="-0.3489135"><ele>264.0</ele><time>2026-05-04T09:38:50.613Z</time></trkpt><trkpt lat="41.4959254" lon="-0.3487313"><ele>264.0</ele><time>2026-05-04T09:38:51.611Z</time></trkpt><trkpt lat="41.4959444" lon="-0.3485343"><ele>263.75</ele><time>2026-05-04T09:38:52.609Z</time></trkpt><trkpt lat="41.495967" lon="-0.3483374"><ele>263.5</ele><time>2026-05-04T09:38:53.616Z</time></trkpt><trkpt lat="41.4959756" lon="-0.3481566"><ele>263.25</ele><time>2026-05-04T09:38:54.609Z</time></trkpt><trkpt lat="41.4959666" lon="-0.3479628"><ele>263.0</ele><time>2026-05-04T09:38:55.609Z</time></trkpt><trkpt lat="41.4959412" lon="-0.3477698"><ele>263.0</ele><time>2026-05-04T09:38:56.614Z</time></trkpt><trkpt lat="41.4959071" lon="-0.3475837"><ele>263.0</ele><time>2026-05-04T09:38:57.613Z</time></trkpt><trkpt lat="41.4958677" lon="-0.347396"><ele>263.0</ele><time>2026-05-04T09:38:58.62Z</time></trkpt><trkpt lat="41.4958381" lon="-0.3472132"><ele>263.0</ele><time>2026-05-04T09:38:59.612Z</time></trkpt><trkpt lat="41.4958232" lon="-0.3470299"><ele>263.5</ele><time>2026-05-04T09:39:00.627Z</time></trkpt><trkpt lat="41.4958206" lon="-0.3468492"><ele>264.0</ele><time>2026-05-04T09:39:01.607Z</time></trkpt><trkpt lat="41.4958281" lon="-0.3466752"><ele>264.5</ele><time>2026-05-04T09:39:02.608Z</time></trkpt><trkpt lat="41.4958526" lon="-0.3464919"><ele>265.0</ele><time>2026-05-04T09:39:03.61Z</time></trkpt><trkpt lat="41.4958894" lon="-0.3463076"><ele>265.0</ele><time>2026-05-04T09:39:04.615Z</time></trkpt><trkpt lat="41.4959304" lon="-0.3461211"><ele>265.0</ele><time>2026-05-04T09:39:05.613Z</time></trkpt><trkpt lat="41.4959624" lon="-0.3459418"><ele>265.0</ele><time>2026-05-04T09:39:06.62Z</time></trkpt><trkpt lat="41.4959962" lon="-0.3457506"><ele>265.0</ele><time>2026-05-04T09:39:07.613Z</time></trkpt><trkpt lat="41.4960219" lon="-0.3455562"><ele>265.25</ele><time>2026-05-04T09:39:08.613Z</time></trkpt><trkpt lat="41.4960474" lon="-0.3453753"><ele>265.5</ele><time>2026-05-04T09:39:09.611Z</time></trkpt><trkpt lat="41.496076" lon="-0.3451969"><ele>265.75</ele><time>2026-05-04T09:39:10.612Z</time></trkpt><trkpt lat="41.4961088" lon="-0.3450078"><ele>266.0</ele><time>2026-05-04T09:39:11.611Z</time></trkpt><trkpt lat="41.496134" lon="-0.3448281"><ele>266.0</ele><time>2026-05-04T09:39:12.611Z</time></trkpt><trkpt lat="41.4961612" lon="-0.3446475"><ele>266.0</ele><time>2026-05-04T09:39:13.614Z</time></trkpt><trkpt lat="41.4961885" lon="-0.3444656"><ele>266.0</ele><time>2026-05-04T09:39:14.615Z</time></trkpt><trkpt lat="41.4962158" lon="-0.3442806"><ele>266.0</ele><time>2026-05-04T09:39:15.61Z</time></trkpt><trkpt lat="41.4962447" lon="-0.3441041"><ele>266.0</ele><time>2026-05-04T09:39:16.615Z</time></trkpt><trkpt lat="41.496276" lon="-0.3439194"><ele>266.0</ele><time>2026-05-04T09:39:17.619Z</time></trkpt><trkpt lat="41.4963037" lon="-0.3437376"><ele>266.0</ele><time>2026-05-04T09:39:18.61Z</time></trkpt><trkpt lat="41.4963322" lon="-0.3435755"><ele>266.0</ele><time>2026-05-04T09:39:19.609Z</time></trkpt><trkpt lat="41.4963628" lon="-0.3433827"><ele>266.0</ele><time>2026-05-04T09:39:20.607Z</time></trkpt><trkpt lat="41.4963836" lon="-0.3432063"><ele>266.0</ele><time>2026-05-04T09:39:21.611Z</time></trkpt><trkpt lat="41.4963984" lon="-0.3430282"><ele>266.0</ele><time>2026-05-04T09:39:22.614Z</time></trkpt><trkpt lat="41.4964022" lon="-0.342835"><ele>266.0</ele><time>2026-05-04T09:39:23.61Z</time></trkpt><trkpt lat="41.4964005" lon="-0.3426493"><ele>266.25</ele><time>2026-05-04T09:39:24.615Z</time></trkpt><trkpt lat="41.4963881" lon="-0.3424584"><ele>266.5</ele><time>2026-05-04T09:39:25.606Z</time></trkpt><trkpt lat="41.4963565" lon="-0.3422803"><ele>266.75</ele><time>2026-05-04T09:39:26.611Z</time></trkpt><trkpt lat="41.4963124" lon="-0.3421026"><ele>267.0</ele><time>2026-05-04T09:39:27.608Z</time></trkpt><trkpt lat="41.4962685" lon="-0.341934"><ele>268.25</ele><time>2026-05-04T09:39:28.614Z</time></trkpt><trkpt lat="41.4962293" lon="-0.3417801"><ele>269.5</ele><time>2026-05-04T09:39:29.607Z</time></trkpt><trkpt lat="41.4961736" lon="-0.3415976"><ele>270.75</ele><time>2026-05-04T09:39:30.603Z</time></trkpt><trkpt lat="41.496123" lon="-0.3414311"><ele>272.0</ele><time>2026-05-04T09:39:31.615Z</time></trkpt><trkpt lat="41.4960704" lon="-0.3412649"><ele>272.25</ele><time>2026-05-04T09:39:32.61Z</time></trkpt><trkpt lat="41.4960269" lon="-0.3410942"><ele>272.5</ele><time>2026-05-04T09:39:33.604Z</time></trkpt><trkpt lat="41.4959764" lon="-0.3409236"><ele>272.75</ele><time>2026-05-04T09:39:34.607Z</time></trkpt><trkpt lat="41.4959369" lon="-0.3407565"><ele>273.0</ele><time>2026-05-04T09:39:35.606Z</time></trkpt><trkpt lat="41.4958997" lon="-0.3406036"><ele>273.25</ele><time>2026-05-04T09:39:36.608Z</time></trkpt><trkpt lat="41.4958543" lon="-0.3404389"><ele>273.5</ele><time>2026-05-04T09:39:37.615Z</time></trkpt><trkpt lat="41.4958122" lon="-0.3402707"><ele>273.75</ele><time>2026-05-04T09:39:38.607Z</time></trkpt><trkpt lat="41.4957863" lon="-0.3401132"><ele>274.0</ele><time>2026-05-04T09:39:39.604Z</time></trkpt><trkpt lat="41.4957745" lon="-0.3399493"><ele>274.0</ele><time>2026-05-04T09:39:40.606Z</time></trkpt><trkpt lat="41.4957747" lon="-0.3397884"><ele>274.0</ele><time>2026-05-04T09:39:41.613Z</time></trkpt><trkpt lat="41.4957836" lon="-0.3396323"><ele>274.0</ele><time>2026-05-04T09:39:42.613Z</time></trkpt><trkpt lat="41.4958131" lon="-0.3394819"><ele>274.0</ele><time>2026-05-04T09:39:43.606Z</time></trkpt><trkpt lat="41.4958278" lon="-0.3393284"><ele>274.25</ele><time>2026-05-04T09:39:44.611Z</time></trkpt><trkpt lat="41.4958416" lon="-0.3391685"><ele>274.5</ele><time>2026-05-04T09:39:45.612Z</time></trkpt><trkpt lat="41.4958538" lon="-0.3390034"><ele>274.75</ele><time>2026-05-04T09:39:46.613Z</time></trkpt><trkpt lat="41.495863" lon="-0.3388419"><ele>275.0</ele><time>2026-05-04T09:39:47.613Z</time></trkpt><trkpt lat="41.4958712" lon="-0.3386854"><ele>275.25</ele><time>2026-05-04T09:39:48.615Z</time></trkpt><trkpt lat="41.4958776" lon="-0.3385274"><ele>275.5</ele><time>2026-05-04T09:39:49.612Z</time></trkpt><trkpt lat="41.4958874" lon="-0.3383673"><ele>275.75</ele><time>2026-05-04T09:39:50.614Z</time></trkpt><trkpt lat="41.4958949" lon="-0.3382044"><ele>276.0</ele><time>2026-05-04T09:39:51.614Z</time></trkpt><trkpt lat="41.4959045" lon="-0.3380497"><ele>276.25</ele><time>2026-05-04T09:39:52.614Z</time></trkpt><trkpt lat="41.4959131" lon="-0.3378948"><ele>276.5</ele><time>2026-05-04T09:39:53.613Z</time></trkpt><trkpt lat="41.4959211" lon="-0.33774"><ele>276.75</ele><time>2026-05-04T09:39:54.613Z</time></trkpt><trkpt lat="41.4959311" lon="-0.3375827"><ele>277.0</ele><time>2026-05-04T09:39:55.614Z</time></trkpt><trkpt lat="41.4959389" lon="-0.3374162"><ele>277.0</ele><time>2026-05-04T09:39:56.619Z</time></trkpt><trkpt lat="41.4959454" lon="-0.3372607"><ele>277.0</ele><time>2026-05-04T09:39:57.615Z</time></trkpt><trkpt lat="41.4959503" lon="-0.3371046"><ele>277.0</ele><time>2026-05-04T09:39:58.621Z</time></trkpt><trkpt lat="41.4959543" lon="-0.3369457"><ele>277.0</ele><time>2026-05-04T09:39:59.618Z</time></trkpt><trkpt lat="41.4959626" lon="-0.3367874"><ele>277.5</ele><time>2026-05-04T09:40:00.626Z</time></trkpt><trkpt lat="41.4959774" lon="-0.3366261"><ele>278.0</ele><time>2026-05-04T09:40:01.614Z</time></trkpt><trkpt lat="41.4959862" lon="-0.3364628"><ele>278.5</ele><time>2026-05-04T09:40:02.628Z</time></trkpt><trkpt lat="41.4959945" lon="-0.3362958"><ele>279.0</ele><time>2026-05-04T09:40:03.613Z</time></trkpt><trkpt lat="41.4960056" lon="-0.3361311"><ele>279.0</ele><time>2026-05-04T09:40:04.616Z</time></trkpt><trkpt lat="41.4960181" lon="-0.3359788"><ele>279.0</ele><time>2026-05-04T09:40:05.618Z</time></trkpt><trkpt lat="41.4960313" lon="-0.3358185"><ele>279.0</ele><time>2026-05-04T09:40:06.616Z</time></trkpt><trkpt lat="41.496041" lon="-0.3356502"><ele>279.0</ele><time>2026-05-04T09:40:07.611Z</time></trkpt><trkpt lat="41.4960536" lon="-0.3354898"><ele>279.25</ele><time>2026-05-04T09:40:08.613Z</time></trkpt><trkpt lat="41.4960595" lon="-0.3353264"><ele>279.5</ele><time>2026-05-04T09:40:09.608Z</time></trkpt><trkpt lat="41.4960691" lon="-0.3351563"><ele>279.75</ele><time>2026-05-04T09:40:10.612Z</time></trkpt><trkpt lat="41.4960889" lon="-0.3350007"><ele>280.0</ele><time>2026-05-04T09:40:11.607Z</time></trkpt><trkpt lat="41.4960957" lon="-0.334837"><ele>280.25</ele><time>2026-05-04T09:40:12.599Z</time></trkpt><trkpt lat="41.4961074" lon="-0.3346763"><ele>280.5</ele><time>2026-05-04T09:40:13.599Z</time></trkpt><trkpt lat="41.4961196" lon="-0.3345123"><ele>280.75</ele><time>2026-05-04T09:40:14.606Z</time></trkpt><trkpt lat="41.4961327" lon="-0.334359"><ele>281.0</ele><time>2026-05-04T09:40:15.603Z</time></trkpt><trkpt lat="41.4961498" lon="-0.3341957"><ele>281.0</ele><time>2026-05-04T09:40:16.608Z</time></trkpt><trkpt lat="41.4961688" lon="-0.3340268"><ele>281.0</ele><time>2026-05-04T09:40:17.617Z</time></trkpt><trkpt lat="41.4961968" lon="-0.3338606"><ele>281.0</ele><time>2026-05-04T09:40:18.615Z</time></trkpt><trkpt lat="41.496219" lon="-0.3336887"><ele>281.0</ele><time>2026-05-04T09:40:19.612Z</time></trkpt><trkpt lat="41.4962403" lon="-0.333515"><ele>281.25</ele><time>2026-05-04T09:40:20.615Z</time></trkpt><trkpt lat="41.4962603" lon="-0.3333434"><ele>281.5</ele><time>2026-05-04T09:40:21.609Z</time></trkpt><trkpt lat="41.4962832" lon="-0.3331759"><ele>281.75</ele><time>2026-05-04T09:40:22.608Z</time></trkpt><trkpt lat="41.4963092" lon="-0.3329993"><ele>282.0</ele><time>2026-05-04T09:40:23.609Z</time></trkpt><trkpt lat="41.4963403" lon="-0.3328166"><ele>282.0</ele><time>2026-05-04T09:40:24.611Z</time></trkpt><trkpt lat="41.496361" lon="-0.332642"><ele>282.0</ele><time>2026-05-04T09:40:25.609Z</time></trkpt><trkpt lat="41.4963856" lon="-0.332461"><ele>282.0</ele><time>2026-05-04T09:40:26.609Z</time></trkpt><trkpt lat="41.4964115" lon="-0.3322626"><ele>282.0</ele><time>2026-05-04T09:40:27.61Z</time></trkpt><trkpt lat="41.4964335" lon="-0.3320887"><ele>281.75</ele><time>2026-05-04T09:40:28.611Z</time></trkpt><trkpt lat="41.4964546" lon="-0.331903"><ele>281.5</ele><time>2026-05-04T09:40:29.616Z</time></trkpt><trkpt lat="41.4964752" lon="-0.3317213"><ele>281.25</ele><time>2026-05-04T09:40:30.613Z</time></trkpt><trkpt lat="41.4964929" lon="-0.3315402"><ele>281.0</ele><time>2026-05-04T09:40:31.611Z</time></trkpt><trkpt lat="41.4965132" lon="-0.331353"><ele>281.0</ele><time>2026-05-04T09:40:32.612Z</time></trkpt><trkpt lat="41.4965392" lon="-0.3311646"><ele>281.0</ele><time>2026-05-04T09:40:33.623Z</time></trkpt><trkpt lat="41.496561" lon="-0.3309743"><ele>281.0</ele><time>2026-05-04T09:40:34.611Z</time></trkpt><trkpt lat="41.4965794" lon="-0.3307826"><ele>281.0</ele><time>2026-05-04T09:40:35.616Z</time></trkpt><trkpt lat="41.4966058" lon="-0.3305954"><ele>281.0</ele><time>2026-05-04T09:40:36.617Z</time></trkpt><trkpt lat="41.4966327" lon="-0.3303989"><ele>281.0</ele><time>2026-05-04T09:40:37.615Z</time></trkpt><trkpt lat="41.4966504" lon="-0.3302112"><ele>281.0</ele><time>2026-05-04T09:40:38.617Z</time></trkpt><trkpt lat="41.4966731" lon="-0.3300164"><ele>281.0</ele><time>2026-05-04T09:40:39.615Z</time></trkpt><trkpt lat="41.4966998" lon="-0.3298212"><ele>281.0</ele><time>2026-05-04T09:40:40.615Z</time></trkpt><trkpt lat="41.4967349" lon="-0.3296264"><ele>281.0</ele><time>2026-05-04T09:40:41.613Z</time></trkpt><trkpt lat="41.4967646" lon="-0.3294358"><ele>281.0</ele><time>2026-05-04T09:40:42.617Z</time></trkpt><trkpt lat="41.4967931" lon="-0.3292588"><ele>281.0</ele><time>2026-05-04T09:40:43.607Z</time></trkpt><trkpt lat="41.4968131" lon="-0.3290833"><ele>281.0</ele><time>2026-05-04T09:40:44.609Z</time></trkpt><trkpt lat="41.4968371" lon="-0.3289075"><ele>281.0</ele><time>2026-05-04T09:40:45.612Z</time></trkpt><trkpt lat="41.4968703" lon="-0.3287533"><ele>281.0</ele><time>2026-05-04T09:40:46.605Z</time></trkpt><trkpt lat="41.4968844" lon="-0.3286338"><ele>281.0</ele><time>2026-05-04T09:40:47.609Z</time></trkpt><trkpt lat="41.4969074" lon="-0.3284973"><ele>281.0</ele><time>2026-05-04T09:40:48.602Z</time></trkpt><trkpt lat="41.4969199" lon="-0.3283545"><ele>281.0</ele><time>2026-05-04T09:40:49.613Z</time></trkpt><trkpt lat="41.496936" lon="-0.3282074"><ele>281.0</ele><time>2026-05-04T09:40:50.607Z</time></trkpt><trkpt lat="41.49695" lon="-0.3280692"><ele>281.0</ele><time>2026-05-04T09:40:51.612Z</time></trkpt><trkpt lat="41.4969674" lon="-0.3279278"><ele>281.0</ele><time>2026-05-04T09:40:52.613Z</time></trkpt><trkpt lat="41.4969821" lon="-0.3277861"><ele>281.0</ele><time>2026-05-04T09:40:53.613Z</time></trkpt><trkpt lat="41.4969956" lon="-0.3276397"><ele>281.25</ele><time>2026-05-04T09:40:54.614Z</time></trkpt><trkpt lat="41.4970128" lon="-0.3274909"><ele>281.5</ele><time>2026-05-04T09:40:55.613Z</time></trkpt><trkpt lat="41.4970346" lon="-0.3273393"><ele>281.75</ele><time>2026-05-04T09:40:56.614Z</time></trkpt><trkpt lat="41.49705" lon="-0.3271838"><ele>282.0</ele><time>2026-05-04T09:40:57.604Z</time></trkpt><trkpt lat="41.4970663" lon="-0.3270289"><ele>282.0</ele><time>2026-05-04T09:40:58.599Z</time></trkpt><trkpt lat="41.4970798" lon="-0.3268757"><ele>282.0</ele><time>2026-05-04T09:40:59.608Z</time></trkpt><trkpt lat="41.4971006" lon="-0.3267173"><ele>282.0</ele><time>2026-05-04T09:41:00.607Z</time></trkpt><trkpt lat="41.4971284" lon="-0.3265532"><ele>282.0</ele><time>2026-05-04T09:41:01.612Z</time></trkpt><trkpt lat="41.4971524" lon="-0.3264004"><ele>283.0</ele><time>2026-05-04T09:41:02.606Z</time></trkpt><trkpt lat="41.4971728" lon="-0.3262421"><ele>284.0</ele><time>2026-05-04T09:41:03.609Z</time></trkpt><trkpt lat="41.4971927" lon="-0.3260931"><ele>285.0</ele><time>2026-05-04T09:41:04.618Z</time></trkpt><trkpt lat="41.4972129" lon="-0.3259336"><ele>286.0</ele><time>2026-05-04T09:41:05.61Z</time></trkpt><trkpt lat="41.4972306" lon="-0.3257742"><ele>286.0</ele><time>2026-05-04T09:41:06.619Z</time></trkpt><trkpt lat="41.4972499" lon="-0.3256143"><ele>286.0</ele><time>2026-05-04T09:41:07.614Z</time></trkpt><trkpt lat="41.4972695" lon="-0.3254577"><ele>286.0</ele><time>2026-05-04T09:41:08.61Z</time></trkpt><trkpt lat="41.4972853" lon="-0.3253007"><ele>286.0</ele><time>2026-05-04T09:41:09.613Z</time></trkpt><trkpt lat="41.4972894" lon="-0.3251512"><ele>286.0</ele><time>2026-05-04T09:41:10.616Z</time></trkpt><trkpt lat="41.4972911" lon="-0.3249945"><ele>286.0</ele><time>2026-05-04T09:41:11.611Z</time></trkpt><trkpt lat="41.4972878" lon="-0.3248314"><ele>286.0</ele><time>2026-05-04T09:41:12.613Z</time></trkpt><trkpt lat="41.4972766" lon="-0.3246652"><ele>286.0</ele><time>2026-05-04T09:41:13.616Z</time></trkpt><trkpt lat="41.497258" lon="-0.3245029"><ele>286.0</ele><time>2026-05-04T09:41:14.608Z</time></trkpt><trkpt lat="41.4972325" lon="-0.3243454"><ele>286.0</ele><time>2026-05-04T09:41:15.599Z</time></trkpt><trkpt lat="41.4971923" lon="-0.3241872"><ele>286.0</ele><time>2026-05-04T09:41:16.611Z</time></trkpt><trkpt lat="41.4971522" lon="-0.3240259"><ele>286.0</ele><time>2026-05-04T09:41:17.61Z</time></trkpt><trkpt lat="41.4971161" lon="-0.3238579"><ele>286.0</ele><time>2026-05-04T09:41:18.608Z</time></trkpt><trkpt lat="41.4970826" lon="-0.323698"><ele>286.0</ele><time>2026-05-04T09:41:19.609Z</time></trkpt><trkpt lat="41.4970537" lon="-0.3235408"><ele>286.0</ele><time>2026-05-04T09:41:20.607Z</time></trkpt><trkpt lat="41.4970206" lon="-0.3233835"><ele>286.0</ele><time>2026-05-04T09:41:21.602Z</time></trkpt><trkpt lat="41.4969875" lon="-0.3232394"><ele>286.0</ele><time>2026-05-04T09:41:22.6Z</time></trkpt><trkpt lat="41.4969552" lon="-0.3231009"><ele>286.0</ele><time>2026-05-04T09:41:23.604Z</time></trkpt><trkpt lat="41.4969317" lon="-0.3229741"><ele>286.0</ele><time>2026-05-04T09:41:24.61Z</time></trkpt><trkpt lat="41.4969122" lon="-0.3228533"><ele>286.0</ele><time>2026-05-04T09:41:25.6Z</time></trkpt><trkpt lat="41.496889" lon="-0.3227392"><ele>286.0</ele><time>2026-05-04T09:41:26.603Z</time></trkpt><trkpt lat="41.4968667" lon="-0.3226236"><ele>285.8</ele><time>2026-05-04T09:41:27.609Z</time></trkpt><trkpt lat="41.4968394" lon="-0.3225"><ele>285.6</ele><time>2026-05-04T09:41:28.61Z</time></trkpt><trkpt lat="41.4968144" lon="-0.3223686"><ele>285.4</ele><time>2026-05-04T09:41:29.61Z</time></trkpt><trkpt lat="41.4967883" lon="-0.3222386"><ele>285.2</ele><time>2026-05-04T09:41:30.612Z</time></trkpt><trkpt lat="41.4967632" lon="-0.3221048"><ele>285.0</ele><time>2026-05-04T09:41:31.601Z</time></trkpt><trkpt lat="41.4967363" lon="-0.3219618"><ele>285.0</ele><time>2026-05-04T09:41:32.608Z</time></trkpt><trkpt lat="41.4967112" lon="-0.3218262"><ele>285.0</ele><time>2026-05-04T09:41:33.607Z</time></trkpt><trkpt lat="41.4966856" lon="-0.3216762"><ele>285.0</ele><time>2026-05-04T09:41:34.605Z</time></trkpt><trkpt lat="41.4966543" lon="-0.3215233"><ele>285.0</ele><time>2026-05-04T09:41:35.613Z</time></trkpt><trkpt lat="41.4966253" lon="-0.3213755"><ele>285.25</ele><time>2026-05-04T09:41:36.613Z</time></trkpt><trkpt lat="41.4965907" lon="-0.3212231"><ele>285.5</ele><time>2026-05-04T09:41:37.61Z</time></trkpt><trkpt lat="41.4965563" lon="-0.321066"><ele>285.75</ele><time>2026-05-04T09:41:38.611Z</time></trkpt><trkpt lat="41.4965249" lon="-0.3209081"><ele>286.0</ele><time>2026-05-04T09:41:39.612Z</time></trkpt><trkpt lat="41.4964931" lon="-0.3207428"><ele>286.0</ele><time>2026-05-04T09:41:40.614Z</time></trkpt><trkpt lat="41.4964602" lon="-0.3205716"><ele>286.0</ele><time>2026-05-04T09:41:41.615Z</time></trkpt><trkpt lat="41.4964265" lon="-0.3203973"><ele>286.0</ele><time>2026-05-04T09:41:42.61Z</time></trkpt><trkpt lat="41.4963917" lon="-0.3202269"><ele>286.0</ele><time>2026-05-04T09:41:43.61Z</time></trkpt><trkpt lat="41.4963601" lon="-0.3200532"><ele>285.75</ele><time>2026-05-04T09:41:44.604Z</time></trkpt><trkpt lat="41.4963254" lon="-0.3198675"><ele>285.5</ele><time>2026-05-04T09:41:45.607Z</time></trkpt><trkpt lat="41.4962871" lon="-0.3196975"><ele>285.25</ele><time>2026-05-04T09:41:46.601Z</time></trkpt><trkpt lat="41.4962507" lon="-0.3195279"><ele>285.0</ele><time>2026-05-04T09:41:47.602Z</time></trkpt><trkpt lat="41.4962165" lon="-0.3193511"><ele>285.0</ele><time>2026-05-04T09:41:48.61Z</time></trkpt><trkpt lat="41.4961843" lon="-0.3191707"><ele>285.0</ele><time>2026-05-04T09:41:49.609Z</time></trkpt><trkpt lat="41.4961456" lon="-0.3189946"><ele>285.0</ele><time>2026-05-04T09:41:50.613Z</time></trkpt><trkpt lat="41.4961068" lon="-0.3188083"><ele>285.0</ele><time>2026-05-04T09:41:51.613Z</time></trkpt><trkpt lat="41.4960662" lon="-0.3186142"><ele>285.0</ele><time>2026-05-04T09:41:52.609Z</time></trkpt><trkpt lat="41.4960246" lon="-0.318416"><ele>285.0</ele><time>2026-05-04T09:41:53.608Z</time></trkpt><trkpt lat="41.4959878" lon="-0.3182199"><ele>285.0</ele><time>2026-05-04T09:41:54.609Z</time></trkpt><trkpt lat="41.4959484" lon="-0.3180258"><ele>285.3333333333333</ele><time>2026-05-04T09:41:55.599Z</time></trkpt><trkpt lat="41.4959123" lon="-0.3178166"><ele>285.66666666666663</ele><time>2026-05-04T09:41:56.61Z</time></trkpt><trkpt lat="41.4958742" lon="-0.3176206"><ele>286.0</ele><time>2026-05-04T09:41:57.61Z</time></trkpt><trkpt lat="41.4958359" lon="-0.3174018"><ele>286.0</ele><time>2026-05-04T09:41:58.603Z</time></trkpt><trkpt lat="41.4957933" lon="-0.3171748"><ele>286.0</ele><time>2026-05-04T09:41:59.604Z</time></trkpt><trkpt lat="41.4957478" lon="-0.3169744"><ele>286.0</ele><time>2026-05-04T09:42:00.612Z</time></trkpt><trkpt lat="41.495703" lon="-0.3167884"><ele>286.0</ele><time>2026-05-04T09:42:01.6Z</time></trkpt><trkpt lat="41.4956625" lon="-0.316589"><ele>286.0</ele><time>2026-05-04T09:42:02.61Z</time></trkpt><trkpt lat="41.4956297" lon="-0.3164108"><ele>286.0</ele><time>2026-05-04T09:42:03.61Z</time></trkpt><trkpt lat="41.495602" lon="-0.3162352"><ele>286.0</ele><time>2026-05-04T09:42:04.606Z</time></trkpt><trkpt lat="41.4955649" lon="-0.3160541"><ele>286.5</ele><time>2026-05-04T09:42:05.606Z</time></trkpt><trkpt lat="41.4955296" lon="-0.3158624"><ele>287.0</ele><time>2026-05-04T09:42:06.625Z</time></trkpt><trkpt lat="41.4954916" lon="-0.3156765"><ele>287.5</ele><time>2026-05-04T09:42:07.609Z</time></trkpt><trkpt lat="41.4954525" lon="-0.3154896"><ele>288.0</ele><time>2026-05-04T09:42:08.61Z</time></trkpt><trkpt lat="41.4954176" lon="-0.3153033"><ele>287.0</ele><time>2026-05-04T09:42:09.609Z</time></trkpt><trkpt lat="41.4953826" lon="-0.315122"><ele>286.0</ele><time>2026-05-04T09:42:10.607Z</time></trkpt><trkpt lat="41.4953393" lon="-0.314927"><ele>285.0</ele><time>2026-05-04T09:42:11.604Z</time></trkpt><trkpt lat="41.4953079" lon="-0.3147645"><ele>284.0</ele><time>2026-05-04T09:42:12.606Z</time></trkpt><trkpt lat="41.4952777" lon="-0.3145948"><ele>284.0</ele><time>2026-05-04T09:42:13.609Z</time></trkpt><trkpt lat="41.4952392" lon="-0.3144068"><ele>284.0</ele><time>2026-05-04T09:42:14.604Z</time></trkpt><trkpt lat="41.4952133" lon="-0.3142212"><ele>284.0</ele><time>2026-05-04T09:42:15.604Z</time></trkpt><trkpt lat="41.4951921" lon="-0.3140477"><ele>284.0</ele><time>2026-05-04T09:42:16.607Z</time></trkpt><trkpt lat="41.4951783" lon="-0.3138713"><ele>284.25</ele><time>2026-05-04T09:42:17.614Z</time></trkpt><trkpt lat="41.495156" lon="-0.3136916"><ele>284.5</ele><time>2026-05-04T09:42:18.614Z</time></trkpt><trkpt lat="41.4951374" lon="-0.3135361"><ele>284.75</ele><time>2026-05-04T09:42:19.616Z</time></trkpt><trkpt lat="41.4951256" lon="-0.3133912"><ele>285.0</ele><time>2026-05-04T09:42:20.617Z</time></trkpt><trkpt lat="41.4951069" lon="-0.3132341"><ele>285.0</ele><time>2026-05-04T09:42:21.617Z</time></trkpt><trkpt lat="41.495088" lon="-0.3130864"><ele>285.0</ele><time>2026-05-04T09:42:22.62Z</time></trkpt><trkpt lat="41.4950718" lon="-0.3129382"><ele>285.0</ele><time>2026-05-04T09:42:23.613Z</time></trkpt><trkpt lat="41.4950559" lon="-0.3127922"><ele>285.0</ele><time>2026-05-04T09:42:24.613Z</time></trkpt><trkpt lat="41.4950416" lon="-0.3126463"><ele>285.0</ele><time>2026-05-04T09:42:25.616Z</time></trkpt><trkpt lat="41.4950231" lon="-0.3124949"><ele>285.5</ele><time>2026-05-04T09:42:26.617Z</time></trkpt><trkpt lat="41.4949992" lon="-0.3123344"><ele>286.0</ele><time>2026-05-04T09:42:27.605Z</time></trkpt><trkpt lat="41.4949671" lon="-0.3121795"><ele>286.5</ele><time>2026-05-04T09:42:28.612Z</time></trkpt><trkpt lat="41.4949389" lon="-0.3120099"><ele>287.0</ele><time>2026-05-04T09:42:29.607Z</time></trkpt><trkpt lat="41.4949161" lon="-0.3118485"><ele>287.5</ele><time>2026-05-04T09:42:30.607Z</time></trkpt><trkpt lat="41.4948946" lon="-0.3116826"><ele>288.0</ele><time>2026-05-04T09:42:31.605Z</time></trkpt><trkpt lat="41.4948733" lon="-0.3115093"><ele>288.5</ele><time>2026-05-04T09:42:32.61Z</time></trkpt><trkpt lat="41.4948559" lon="-0.3113324"><ele>289.0</ele><time>2026-05-04T09:42:33.6Z</time></trkpt><trkpt lat="41.4948358" lon="-0.3111495"><ele>289.0</ele><time>2026-05-04T09:42:34.613Z</time></trkpt><trkpt lat="41.4948136" lon="-0.3109685"><ele>289.0</ele><time>2026-05-04T09:42:35.605Z</time></trkpt><trkpt lat="41.4947992" lon="-0.3107782"><ele>289.0</ele><time>2026-05-04T09:42:36.612Z</time></trkpt><trkpt lat="41.4947748" lon="-0.3105879"><ele>289.0</ele><time>2026-05-04T09:42:37.628Z</time></trkpt><trkpt lat="41.4947563" lon="-0.310397"><ele>289.0</ele><time>2026-05-04T09:42:38.609Z</time></trkpt><trkpt lat="41.4947324" lon="-0.3102103"><ele>289.0</ele><time>2026-05-04T09:42:39.61Z</time></trkpt><trkpt lat="41.4947029" lon="-0.3100217"><ele>289.0</ele><time>2026-05-04T09:42:40.611Z</time></trkpt><trkpt lat="41.4946819" lon="-0.3098216"><ele>289.0</ele><time>2026-05-04T09:42:41.614Z</time></trkpt><trkpt lat="41.4946609" lon="-0.3096198"><ele>289.0</ele><time>2026-05-04T09:42:42.611Z</time></trkpt><trkpt lat="41.4946347" lon="-0.3094216"><ele>289.0</ele><time>2026-05-04T09:42:43.614Z</time></trkpt><trkpt lat="41.4946133" lon="-0.3092273"><ele>289.0</ele><time>2026-05-04T09:42:44.611Z</time></trkpt><trkpt lat="41.4945906" lon="-0.3090343"><ele>289.0</ele><time>2026-05-04T09:42:45.613Z</time></trkpt><trkpt lat="41.4945684" lon="-0.3088373"><ele>288.5</ele><time>2026-05-04T09:42:46.617Z</time></trkpt><trkpt lat="41.494544" lon="-0.3086435"><ele>288.0</ele><time>2026-05-04T09:42:47.616Z</time></trkpt><trkpt lat="41.4945237" lon="-0.3084525"><ele>287.5</ele><time>2026-05-04T09:42:48.614Z</time></trkpt><trkpt lat="41.4944967" lon="-0.3082646"><ele>287.0</ele><time>2026-05-04T09:42:49.612Z</time></trkpt><trkpt lat="41.4944744" lon="-0.308077"><ele>287.0</ele><time>2026-05-04T09:42:50.611Z</time></trkpt><trkpt lat="41.4944506" lon="-0.3078795"><ele>287.0</ele><time>2026-05-04T09:42:51.606Z</time></trkpt><trkpt lat="41.4944246" lon="-0.3076979"><ele>287.0</ele><time>2026-05-04T09:42:52.608Z</time></trkpt><trkpt lat="41.4944013" lon="-0.3074667"><ele>287.0</ele><time>2026-05-04T09:42:53.606Z</time></trkpt><trkpt lat="41.4943837" lon="-0.307266"><ele>287.0</ele><time>2026-05-04T09:42:54.613Z</time></trkpt><trkpt lat="41.4943614" lon="-0.3070791"><ele>287.0</ele><time>2026-05-04T09:42:55.61Z</time></trkpt><trkpt lat="41.4943405" lon="-0.3068818"><ele>287.0</ele><time>2026-05-04T09:42:56.614Z</time></trkpt><trkpt lat="41.4943189" lon="-0.3066807"><ele>287.5</ele><time>2026-05-04T09:42:57.607Z</time></trkpt><trkpt lat="41.494305" lon="-0.3064969"><ele>288.0</ele><time>2026-05-04T09:42:58.612Z</time></trkpt><trkpt lat="41.4942851" lon="-0.3063162"><ele>288.5</ele><time>2026-05-04T09:42:59.61Z</time></trkpt><trkpt lat="41.4942706" lon="-0.3061348"><ele>289.0</ele><time>2026-05-04T09:43:00.61Z</time></trkpt><trkpt lat="41.4942557" lon="-0.3059442"><ele>290.0</ele><time>2026-05-04T09:43:01.603Z</time></trkpt><trkpt lat="41.4942666" lon="-0.3057503"><ele>291.0</ele><time>2026-05-04T09:43:02.604Z</time></trkpt><trkpt lat="41.4942641" lon="-0.3055521"><ele>292.0</ele><time>2026-05-04T09:43:03.604Z</time></trkpt><trkpt lat="41.4942686" lon="-0.3053662"><ele>293.0</ele><time>2026-05-04T09:43:04.604Z</time></trkpt><trkpt lat="41.4942776" lon="-0.3051791"><ele>293.0</ele><time>2026-05-04T09:43:05.606Z</time></trkpt><trkpt lat="41.4942863" lon="-0.3049868"><ele>293.0</ele><time>2026-05-04T09:43:06.601Z</time></trkpt><trkpt lat="41.4942975" lon="-0.3048079"><ele>293.0</ele><time>2026-05-04T09:43:07.599Z</time></trkpt><trkpt lat="41.4943169" lon="-0.304622"><ele>293.0</ele><time>2026-05-04T09:43:08.598Z</time></trkpt><trkpt lat="41.4943359" lon="-0.304439"><ele>292.75</ele><time>2026-05-04T09:43:09.591Z</time></trkpt><trkpt lat="41.4943504" lon="-0.3042547"><ele>292.5</ele><time>2026-05-04T09:43:10.591Z</time></trkpt><trkpt lat="41.4943748" lon="-0.304058"><ele>292.25</ele><time>2026-05-04T09:43:11.588Z</time></trkpt><trkpt lat="41.494401" lon="-0.3038697"><ele>292.0</ele><time>2026-05-04T09:43:12.591Z</time></trkpt><trkpt lat="41.4944302" lon="-0.3036624"><ele>291.75</ele><time>2026-05-04T09:43:13.583Z</time></trkpt><trkpt lat="41.4944671" lon="-0.3034815"><ele>291.5</ele><time>2026-05-04T09:43:14.587Z</time></trkpt><trkpt lat="41.4945057" lon="-0.3032933"><ele>291.25</ele><time>2026-05-04T09:43:15.585Z</time></trkpt><trkpt lat="41.4945412" lon="-0.3030964"><ele>291.0</ele><time>2026-05-04T09:43:16.586Z</time></trkpt><trkpt lat="41.4945829" lon="-0.3029143"><ele>291.5</ele><time>2026-05-04T09:43:17.593Z</time></trkpt><trkpt lat="41.4946307" lon="-0.3027287"><ele>292.0</ele><time>2026-05-04T09:43:18.594Z</time></trkpt><trkpt lat="41.4946746" lon="-0.3025569"><ele>292.5</ele><time>2026-05-04T09:43:19.593Z</time></trkpt><trkpt lat="41.4947201" lon="-0.3023762"><ele>293.0</ele><time>2026-05-04T09:43:20.592Z</time></trkpt><trkpt lat="41.4947701" lon="-0.3022008"><ele>293.0</ele><time>2026-05-04T09:43:21.594Z</time></trkpt><trkpt lat="41.4948132" lon="-0.3020391"><ele>293.0</ele><time>2026-05-04T09:43:22.597Z</time></trkpt><trkpt lat="41.4948483" lon="-0.301875"><ele>293.0</ele><time>2026-05-04T09:43:23.602Z</time></trkpt><trkpt lat="41.4948935" lon="-0.3017156"><ele>293.0</ele><time>2026-05-04T09:43:24.61Z</time></trkpt><trkpt lat="41.4949378" lon="-0.3015651"><ele>292.5</ele><time>2026-05-04T09:43:25.609Z</time></trkpt><trkpt lat="41.4949773" lon="-0.3014121"><ele>292.0</ele><time>2026-05-04T09:43:26.614Z</time></trkpt><trkpt lat="41.4950175" lon="-0.3012573"><ele>291.5</ele><time>2026-05-04T09:43:27.597Z</time></trkpt><trkpt lat="41.4950602" lon="-0.3010958"><ele>291.0</ele><time>2026-05-04T09:43:28.605Z</time></trkpt><trkpt lat="41.4951068" lon="-0.3009361"><ele>291.0</ele><time>2026-05-04T09:43:29.607Z</time></trkpt><trkpt lat="41.4951507" lon="-0.3007757"><ele>291.0</ele><time>2026-05-04T09:43:30.604Z</time></trkpt><trkpt lat="41.4951913" lon="-0.3006226"><ele>291.0</ele><time>2026-05-04T09:43:31.6Z</time></trkpt><trkpt lat="41.4952305" lon="-0.3004559"><ele>291.0</ele><time>2026-05-04T09:43:32.605Z</time></trkpt><trkpt lat="41.4952759" lon="-0.3002858"><ele>291.0</ele><time>2026-05-04T09:43:33.598Z</time></trkpt><trkpt lat="41.4953192" lon="-0.3001241"><ele>291.0</ele><time>2026-05-04T09:43:34.604Z</time></trkpt><trkpt lat="41.4953594" lon="-0.2999657"><ele>291.0</ele><time>2026-05-04T09:43:35.611Z</time></trkpt><trkpt lat="41.4953993" lon="-0.299805"><ele>291.0</ele><time>2026-05-04T09:43:36.616Z</time></trkpt><trkpt lat="41.4954434" lon="-0.2996337"><ele>292.25</ele><time>2026-05-04T09:43:37.607Z</time></trkpt><trkpt lat="41.4954874" lon="-0.2994722"><ele>293.5</ele><time>2026-05-04T09:43:38.612Z</time></trkpt><trkpt lat="41.4955326" lon="-0.2993089"><ele>294.75</ele><time>2026-05-04T09:43:39.618Z</time></trkpt><trkpt lat="41.4955754" lon="-0.2991548"><ele>296.0</ele><time>2026-05-04T09:43:40.603Z</time></trkpt><trkpt lat="41.4956144" lon="-0.2989982"><ele>295.75</ele><time>2026-05-04T09:43:41.606Z</time></trkpt><trkpt lat="41.4956582" lon="-0.2988402"><ele>295.5</ele><time>2026-05-04T09:43:42.602Z</time></trkpt><trkpt lat="41.4957014" lon="-0.2986922"><ele>295.25</ele><time>2026-05-04T09:43:43.607Z</time></trkpt><trkpt lat="41.4957438" lon="-0.298539"><ele>295.0</ele><time>2026-05-04T09:43:44.609Z</time></trkpt><trkpt lat="41.4957886" lon="-0.2983886"><ele>295.0</ele><time>2026-05-04T09:43:45.607Z</time></trkpt><trkpt lat="41.4958306" lon="-0.2982287"><ele>295.0</ele><time>2026-05-04T09:43:46.612Z</time></trkpt><trkpt lat="41.4958749" lon="-0.2980639"><ele>295.0</ele><time>2026-05-04T09:43:47.606Z</time></trkpt><trkpt lat="41.4959163" lon="-0.2978988"><ele>295.0</ele><time>2026-05-04T09:43:48.605Z</time></trkpt><trkpt lat="41.4959597" lon="-0.297726"><ele>295.25</ele><time>2026-05-04T09:43:49.611Z</time></trkpt><trkpt lat="41.4960106" lon="-0.2975506"><ele>295.5</ele><time>2026-05-04T09:43:50.605Z</time></trkpt><trkpt lat="41.4960457" lon="-0.2973917"><ele>295.75</ele><time>2026-05-04T09:43:51.607Z</time></trkpt><trkpt lat="41.4960962" lon="-0.2972247"><ele>296.0</ele><time>2026-05-04T09:43:52.605Z</time></trkpt><trkpt lat="41.4961473" lon="-0.2970604"><ele>296.25</ele><time>2026-05-04T09:43:53.601Z</time></trkpt><trkpt lat="41.4961941" lon="-0.2968994"><ele>296.5</ele><time>2026-05-04T09:43:54.609Z</time></trkpt><trkpt lat="41.4962429" lon="-0.2967248"><ele>296.75</ele><time>2026-05-04T09:43:55.612Z</time></trkpt><trkpt lat="41.4962809" lon="-0.2965576"><ele>297.0</ele><time>2026-05-04T09:43:56.612Z</time></trkpt><trkpt lat="41.4963313" lon="-0.2963989"><ele>296.5</ele><time>2026-05-04T09:43:57.609Z</time></trkpt><trkpt lat="41.4963888" lon="-0.2962297"><ele>296.0</ele><time>2026-05-04T09:43:58.609Z</time></trkpt><trkpt lat="41.4964342" lon="-0.2960606"><ele>295.5</ele><time>2026-05-04T09:43:59.611Z</time></trkpt><trkpt lat="41.4964812" lon="-0.2959001"><ele>295.0</ele><time>2026-05-04T09:44:00.608Z</time></trkpt><trkpt lat="41.4965317" lon="-0.2957367"><ele>294.75</ele><time>2026-05-04T09:44:01.61Z</time></trkpt><trkpt lat="41.4965833" lon="-0.2955676"><ele>294.5</ele><time>2026-05-04T09:44:02.608Z</time></trkpt><trkpt lat="41.4966356" lon="-0.2954064"><ele>294.25</ele><time>2026-05-04T09:44:03.609Z</time></trkpt><trkpt lat="41.4966868" lon="-0.2952319"><ele>294.0</ele><time>2026-05-04T09:44:04.611Z</time></trkpt><trkpt lat="41.4967387" lon="-0.2950654"><ele>294.0</ele><time>2026-05-04T09:44:05.604Z</time></trkpt><trkpt lat="41.4967922" lon="-0.2949"><ele>294.0</ele><time>2026-05-04T09:44:06.616Z</time></trkpt><trkpt lat="41.4968428" lon="-0.2947393"><ele>294.0</ele><time>2026-05-04T09:44:07.609Z</time></trkpt><trkpt lat="41.4968958" lon="-0.2945636"><ele>294.0</ele><time>2026-05-04T09:44:08.611Z</time></trkpt><trkpt lat="41.4969428" lon="-0.2943907"><ele>294.0</ele><time>2026-05-04T09:44:09.604Z</time></trkpt><trkpt lat="41.4969879" lon="-0.2942322"><ele>294.0</ele><time>2026-05-04T09:44:10.622Z</time></trkpt><trkpt lat="41.4970395" lon="-0.2940645"><ele>294.0</ele><time>2026-05-04T09:44:11.607Z</time></trkpt><trkpt lat="41.4970923" lon="-0.2938856"><ele>294.0</ele><time>2026-05-04T09:44:12.605Z</time></trkpt><trkpt lat="41.4971469" lon="-0.2937091"><ele>294.75</ele><time>2026-05-04T09:44:13.607Z</time></trkpt><trkpt lat="41.4972008" lon="-0.2935352"><ele>295.5</ele><time>2026-05-04T09:44:14.608Z</time></trkpt><trkpt lat="41.4972488" lon="-0.2933723"><ele>296.25</ele><time>2026-05-04T09:44:15.604Z</time></trkpt><trkpt lat="41.4972969" lon="-0.2932049"><ele>297.0</ele><time>2026-05-04T09:44:16.612Z</time></trkpt><trkpt lat="41.4973428" lon="-0.2930348"><ele>297.0</ele><time>2026-05-04T09:44:17.605Z</time></trkpt><trkpt lat="41.4973903" lon="-0.2928747"><ele>297.0</ele><time>2026-05-04T09:44:18.606Z</time></trkpt><trkpt lat="41.4974395" lon="-0.292703"><ele>297.0</ele><time>2026-05-04T09:44:19.607Z</time></trkpt><trkpt lat="41.4974962" lon="-0.2925318"><ele>297.0</ele><time>2026-05-04T09:44:20.611Z</time></trkpt><trkpt lat="41.4975473" lon="-0.2923684"><ele>296.75</ele><time>2026-05-04T09:44:21.603Z</time></trkpt><trkpt lat="41.4975904" lon="-0.2922233"><ele>296.5</ele><time>2026-05-04T09:44:22.607Z</time></trkpt><trkpt lat="41.4976322" lon="-0.2920801"><ele>296.25</ele><time>2026-05-04T09:44:23.612Z</time></trkpt><trkpt lat="41.4976775" lon="-0.2919208"><ele>296.0</ele><time>2026-05-04T09:44:24.614Z</time></trkpt><trkpt lat="41.4977238" lon="-0.2917762"><ele>296.0</ele><time>2026-05-04T09:44:25.611Z</time></trkpt><trkpt lat="41.4977706" lon="-0.2916297"><ele>296.0</ele><time>2026-05-04T09:44:26.614Z</time></trkpt><trkpt lat="41.4978101" lon="-0.2914708"><ele>296.0</ele><time>2026-05-04T09:44:27.603Z</time></trkpt><trkpt lat="41.4978451" lon="-0.2913042"><ele>296.0</ele><time>2026-05-04T09:44:28.608Z</time></trkpt><trkpt lat="41.4978733" lon="-0.2911328"><ele>296.0</ele><time>2026-05-04T09:44:29.607Z</time></trkpt><trkpt lat="41.4978944" lon="-0.2909683"><ele>296.0</ele><time>2026-05-04T09:44:30.614Z</time></trkpt><trkpt lat="41.4979098" lon="-0.2907923"><ele>296.0</ele><time>2026-05-04T09:44:31.606Z</time></trkpt><trkpt lat="41.4979246" lon="-0.2906207"><ele>296.0</ele><time>2026-05-04T09:44:32.602Z</time></trkpt><trkpt lat="41.4979351" lon="-0.2904516"><ele>297.25</ele><time>2026-05-04T09:44:33.603Z</time></trkpt><trkpt lat="41.4979433" lon="-0.2902855"><ele>298.5</ele><time>2026-05-04T09:44:34.606Z</time></trkpt><trkpt lat="41.4979557" lon="-0.2901134"><ele>299.75</ele><time>2026-05-04T09:44:35.606Z</time></trkpt><trkpt lat="41.4979647" lon="-0.2899323"><ele>301.0</ele><time>2026-05-04T09:44:36.607Z</time></trkpt><trkpt lat="41.4979816" lon="-0.2897634"><ele>301.0</ele><time>2026-05-04T09:44:37.604Z</time></trkpt><trkpt lat="41.4980008" lon="-0.2896011"><ele>301.0</ele><time>2026-05-04T09:44:38.61Z</time></trkpt><trkpt lat="41.4980268" lon="-0.289436"><ele>301.0</ele><time>2026-05-04T09:44:39.609Z</time></trkpt><trkpt lat="41.4980607" lon="-0.2892726"><ele>301.0</ele><time>2026-05-04T09:44:40.606Z</time></trkpt><trkpt lat="41.4981023" lon="-0.2891029"><ele>301.0</ele><time>2026-05-04T09:44:41.618Z</time></trkpt><trkpt lat="41.4981398" lon="-0.2889438"><ele>301.0</ele><time>2026-05-04T09:44:42.603Z</time></trkpt><trkpt lat="41.498185" lon="-0.288784"><ele>301.0</ele><time>2026-05-04T09:44:43.6Z</time></trkpt><trkpt lat="41.4982457" lon="-0.2886248"><ele>301.0</ele><time>2026-05-04T09:44:44.605Z</time></trkpt><trkpt lat="41.4983092" lon="-0.2884718"><ele>300.25</ele><time>2026-05-04T09:44:45.603Z</time></trkpt><trkpt lat="41.4983785" lon="-0.2883203"><ele>299.5</ele><time>2026-05-04T09:44:46.61Z</time></trkpt><trkpt lat="41.4984494" lon="-0.2881697"><ele>298.75</ele><time>2026-05-04T09:44:47.608Z</time></trkpt><trkpt lat="41.4985249" lon="-0.288022"><ele>298.0</ele><time>2026-05-04T09:44:48.784Z</time></trkpt><trkpt lat="41.4986849" lon="-0.2877369"><ele>298.25</ele><time>2026-05-04T09:44:50.602Z</time></trkpt><trkpt lat="41.4987697" lon="-0.2875961"><ele>298.5</ele><time>2026-05-04T09:44:51.602Z</time></trkpt><trkpt lat="41.4988504" lon="-0.2874485"><ele>298.75</ele><time>2026-05-04T09:44:52.595Z</time></trkpt><trkpt lat="41.4989334" lon="-0.2872999"><ele>299.0</ele><time>2026-05-04T09:44:53.6Z</time></trkpt><trkpt lat="41.4990066" lon="-0.2871532"><ele>299.0</ele><time>2026-05-04T09:44:54.603Z</time></trkpt><trkpt lat="41.4990781" lon="-0.2870111"><ele>299.0</ele><time>2026-05-04T09:44:55.6Z</time></trkpt><trkpt lat="41.4991578" lon="-0.2868671"><ele>299.0</ele><time>2026-05-04T09:44:56.607Z</time></trkpt><trkpt lat="41.4992378" lon="-0.2867164"><ele>299.0</ele><time>2026-05-04T09:44:57.604Z</time></trkpt><trkpt lat="41.4993134" lon="-0.2865631"><ele>299.0</ele><time>2026-05-04T09:44:58.606Z</time></trkpt><trkpt lat="41.499396" lon="-0.2864167"><ele>299.0</ele><time>2026-05-04T09:44:59.606Z</time></trkpt><trkpt lat="41.4994747" lon="-0.2862637"><ele>299.0</ele><time>2026-05-04T09:45:00.604Z</time></trkpt><trkpt lat="41.4995613" lon="-0.2861216"><ele>299.0</ele><time>2026-05-04T09:45:01.6Z</time></trkpt><trkpt lat="41.4996449" lon="-0.2859709"><ele>299.5</ele><time>2026-05-04T09:45:02.602Z</time></trkpt><trkpt lat="41.4997198" lon="-0.2857971"><ele>300.0</ele><time>2026-05-04T09:45:03.603Z</time></trkpt><trkpt lat="41.4997974" lon="-0.2856397"><ele>300.5</ele><time>2026-05-04T09:45:04.602Z</time></trkpt><trkpt lat="41.4998689" lon="-0.2854756"><ele>301.0</ele><time>2026-05-04T09:45:05.599Z</time></trkpt><trkpt lat="41.4999329" lon="-0.2853049"><ele>301.0</ele><time>2026-05-04T09:45:06.599Z</time></trkpt><trkpt lat="41.4999956" lon="-0.2851474"><ele>301.0</ele><time>2026-05-04T09:45:07.593Z</time></trkpt><trkpt lat="41.5000653" lon="-0.2849877"><ele>301.0</ele><time>2026-05-04T09:45:08.604Z</time></trkpt><trkpt lat="41.5001226" lon="-0.2848201"><ele>301.0</ele><time>2026-05-04T09:45:09.598Z</time></trkpt><trkpt lat="41.50017" lon="-0.2846534"><ele>300.75</ele><time>2026-05-04T09:45:10.601Z</time></trkpt><trkpt lat="41.5002156" lon="-0.284483"><ele>300.5</ele><time>2026-05-04T09:45:11.596Z</time></trkpt><trkpt lat="41.5002622" lon="-0.2843073"><ele>300.25</ele><time>2026-05-04T09:45:12.618Z</time></trkpt><trkpt lat="41.5002969" lon="-0.2841331"><ele>300.0</ele><time>2026-05-04T09:45:13.603Z</time></trkpt><trkpt lat="41.5003281" lon="-0.2839562"><ele>300.25</ele><time>2026-05-04T09:45:14.598Z</time></trkpt><trkpt lat="41.5003499" lon="-0.2837893"><ele>300.5</ele><time>2026-05-04T09:45:15.598Z</time></trkpt><trkpt lat="41.5003758" lon="-0.2836134"><ele>300.75</ele><time>2026-05-04T09:45:16.603Z</time></trkpt><trkpt lat="41.5003914" lon="-0.2834333"><ele>301.0</ele><time>2026-05-04T09:45:17.597Z</time></trkpt><trkpt lat="41.500406" lon="-0.2832595"><ele>302.25</ele><time>2026-05-04T09:45:18.605Z</time></trkpt><trkpt lat="41.5004184" lon="-0.2830906"><ele>303.5</ele><time>2026-05-04T09:45:19.601Z</time></trkpt><trkpt lat="41.5004255" lon="-0.2829183"><ele>304.75</ele><time>2026-05-04T09:45:20.599Z</time></trkpt><trkpt lat="41.5004284" lon="-0.2827452"><ele>306.0</ele><time>2026-05-04T09:45:21.599Z</time></trkpt><trkpt lat="41.5004268" lon="-0.2825729"><ele>306.0</ele><time>2026-05-04T09:45:22.6Z</time></trkpt><trkpt lat="41.5004228" lon="-0.2824"><ele>306.0</ele><time>2026-05-04T09:45:23.596Z</time></trkpt><trkpt lat="41.5004133" lon="-0.2822224"><ele>306.0</ele><time>2026-05-04T09:45:24.613Z</time></trkpt><trkpt lat="41.5003991" lon="-0.2820415"><ele>306.0</ele><time>2026-05-04T09:45:25.601Z</time></trkpt><trkpt lat="41.5003822" lon="-0.2818676"><ele>305.25</ele><time>2026-05-04T09:45:26.611Z</time></trkpt><trkpt lat="41.5003619" lon="-0.2816823"><ele>304.5</ele><time>2026-05-04T09:45:27.606Z</time></trkpt><trkpt lat="41.5003324" lon="-0.2815074"><ele>303.75</ele><time>2026-05-04T09:45:28.615Z</time></trkpt><trkpt lat="41.5002973" lon="-0.2813243"><ele>303.0</ele><time>2026-05-04T09:45:29.61Z</time></trkpt><trkpt lat="41.5002605" lon="-0.2811549"><ele>303.0</ele><time>2026-05-04T09:45:30.599Z</time></trkpt><trkpt lat="41.500221" lon="-0.2810001"><ele>303.0</ele><time>2026-05-04T09:45:31.609Z</time></trkpt><trkpt lat="41.5001745" lon="-0.2808007"><ele>303.0</ele><time>2026-05-04T09:45:32.604Z</time></trkpt><trkpt lat="41.5001352" lon="-0.2806282"><ele>303.0</ele><time>2026-05-04T09:45:33.6Z</time></trkpt><trkpt lat="41.5001024" lon="-0.2804794"><ele>303.25</ele><time>2026-05-04T09:45:34.593Z</time></trkpt><trkpt lat="41.5000669" lon="-0.280329"><ele>303.5</ele><time>2026-05-04T09:45:35.594Z</time></trkpt><trkpt lat="41.5000277" lon="-0.2801711"><ele>303.75</ele><time>2026-05-04T09:45:36.599Z</time></trkpt><trkpt lat="41.4999919" lon="-0.2799989"><ele>304.0</ele><time>2026-05-04T09:45:37.599Z</time></trkpt><trkpt lat="41.4999525" lon="-0.2798379"><ele>304.25</ele><time>2026-05-04T09:45:38.603Z</time></trkpt><trkpt lat="41.4999143" lon="-0.2796801"><ele>304.5</ele><time>2026-05-04T09:45:39.603Z</time></trkpt><trkpt lat="41.499877" lon="-0.2795141"><ele>304.75</ele><time>2026-05-04T09:45:40.603Z</time></trkpt><trkpt lat="41.4998326" lon="-0.2793439"><ele>305.0</ele><time>2026-05-04T09:45:41.601Z</time></trkpt><trkpt lat="41.4997938" lon="-0.2791707"><ele>305.0</ele><time>2026-05-04T09:45:42.611Z</time></trkpt><trkpt lat="41.4997464" lon="-0.279"><ele>305.0</ele><time>2026-05-04T09:45:43.607Z</time></trkpt><trkpt lat="41.4996919" lon="-0.2788263"><ele>305.0</ele><time>2026-05-04T09:45:44.611Z</time></trkpt><trkpt lat="41.4996311" lon="-0.2786537"><ele>305.0</ele><time>2026-05-04T09:45:45.587Z</time></trkpt><trkpt lat="41.4995642" lon="-0.278477"><ele>304.75</ele><time>2026-05-04T09:45:46.607Z</time></trkpt><trkpt lat="41.4995028" lon="-0.2783192"><ele>304.5</ele><time>2026-05-04T09:45:47.61Z</time></trkpt><trkpt lat="41.4994274" lon="-0.2781466"><ele>304.25</ele><time>2026-05-04T09:45:48.595Z</time></trkpt><trkpt lat="41.499352" lon="-0.2779865"><ele>304.0</ele><time>2026-05-04T09:45:49.6Z</time></trkpt><trkpt lat="41.4992695" lon="-0.2778398"><ele>304.5</ele><time>2026-05-04T09:45:50.596Z</time></trkpt><trkpt lat="41.4991918" lon="-0.2776929"><ele>305.0</ele><time>2026-05-04T09:45:51.602Z</time></trkpt><trkpt lat="41.4991026" lon="-0.2775592"><ele>305.5</ele><time>2026-05-04T09:45:52.601Z</time></trkpt><trkpt lat="41.4990196" lon="-0.2774283"><ele>306.0</ele><time>2026-05-04T09:45:53.599Z</time></trkpt><trkpt lat="41.4989221" lon="-0.2772882"><ele>306.75</ele><time>2026-05-04T09:45:54.597Z</time></trkpt><trkpt lat="41.4988352" lon="-0.277151"><ele>307.5</ele><time>2026-05-04T09:45:55.596Z</time></trkpt><trkpt lat="41.4987455" lon="-0.2770064"><ele>308.25</ele><time>2026-05-04T09:45:56.602Z</time></trkpt><trkpt lat="41.4986559" lon="-0.2768762"><ele>309.0</ele><time>2026-05-04T09:45:57.596Z</time></trkpt><trkpt lat="41.498568" lon="-0.2767389"><ele>309.0</ele><time>2026-05-04T09:45:58.606Z</time></trkpt><trkpt lat="41.4984737" lon="-0.2766038"><ele>309.0</ele><time>2026-05-04T09:45:59.597Z</time></trkpt><trkpt lat="41.498391" lon="-0.2764541"><ele>309.0</ele><time>2026-05-04T09:46:00.594Z</time></trkpt><trkpt lat="41.4983043" lon="-0.2763081"><ele>309.0</ele><time>2026-05-04T09:46:01.601Z</time></trkpt><trkpt lat="41.4982079" lon="-0.2761603"><ele>309.5</ele><time>2026-05-04T09:46:02.602Z</time></trkpt><trkpt lat="41.4981239" lon="-0.2760137"><ele>310.0</ele><time>2026-05-04T09:46:03.606Z</time></trkpt><trkpt lat="41.49803" lon="-0.2758811"><ele>310.5</ele><time>2026-05-04T09:46:04.606Z</time></trkpt><trkpt lat="41.4979412" lon="-0.2757406"><ele>311.0</ele><time>2026-05-04T09:46:05.605Z</time></trkpt><trkpt lat="41.4978549" lon="-0.2755963"><ele>311.0</ele><time>2026-05-04T09:46:06.601Z</time></trkpt><trkpt lat="41.4977756" lon="-0.2754488"><ele>311.0</ele><time>2026-05-04T09:46:07.597Z</time></trkpt><trkpt lat="41.4977055" lon="-0.2752847"><ele>311.0</ele><time>2026-05-04T09:46:08.601Z</time></trkpt><trkpt lat="41.4976362" lon="-0.2751364"><ele>311.0</ele><time>2026-05-04T09:46:09.602Z</time></trkpt><trkpt lat="41.497569" lon="-0.2749816"><ele>311.0</ele><time>2026-05-04T09:46:10.602Z</time></trkpt><trkpt lat="41.4974985" lon="-0.2748398"><ele>311.0</ele><time>2026-05-04T09:46:11.61Z</time></trkpt><trkpt lat="41.4974298" lon="-0.2746913"><ele>311.0</ele><time>2026-05-04T09:46:12.607Z</time></trkpt><trkpt lat="41.4973673" lon="-0.2745428"><ele>311.0</ele><time>2026-05-04T09:46:13.621Z</time></trkpt><trkpt lat="41.4973008" lon="-0.2743978"><ele>311.25</ele><time>2026-05-04T09:46:14.606Z</time></trkpt><trkpt lat="41.4972416" lon="-0.2742494"><ele>311.5</ele><time>2026-05-04T09:46:15.607Z</time></trkpt><trkpt lat="41.49718" lon="-0.2741029"><ele>311.75</ele><time>2026-05-04T09:46:16.602Z</time></trkpt><trkpt lat="41.4971142" lon="-0.2739424"><ele>312.0</ele><time>2026-05-04T09:46:17.607Z</time></trkpt><trkpt lat="41.497061" lon="-0.2737957"><ele>312.0</ele><time>2026-05-04T09:46:18.6Z</time></trkpt><trkpt lat="41.4970141" lon="-0.2736391"><ele>312.0</ele><time>2026-05-04T09:46:19.601Z</time></trkpt><trkpt lat="41.4969667" lon="-0.2734896"><ele>312.0</ele><time>2026-05-04T09:46:20.601Z</time></trkpt><trkpt lat="41.4969269" lon="-0.273329"><ele>312.0</ele><time>2026-05-04T09:46:21.598Z</time></trkpt><trkpt lat="41.4968826" lon="-0.2731759"><ele>312.5</ele><time>2026-05-04T09:46:22.594Z</time></trkpt><trkpt lat="41.4968516" lon="-0.2730014"><ele>313.0</ele><time>2026-05-04T09:46:23.603Z</time></trkpt><trkpt lat="41.4968256" lon="-0.2728254"><ele>313.5</ele><time>2026-05-04T09:46:24.603Z</time></trkpt><trkpt lat="41.4967987" lon="-0.2726387"><ele>314.0</ele><time>2026-05-04T09:46:25.598Z</time></trkpt><trkpt lat="41.4967854" lon="-0.2724517"><ele>314.0</ele><time>2026-05-04T09:46:26.6Z</time></trkpt><trkpt lat="41.4967851" lon="-0.2722598"><ele>314.0</ele><time>2026-05-04T09:46:27.601Z</time></trkpt><trkpt lat="41.4967535" lon="-0.2720585"><ele>314.0</ele><time>2026-05-04T09:46:28.597Z</time></trkpt><trkpt lat="41.4967308" lon="-0.2718686"><ele>314.0</ele><time>2026-05-04T09:46:29.601Z</time></trkpt><trkpt lat="41.4967175" lon="-0.271671"><ele>314.0</ele><time>2026-05-04T09:46:30.59Z</time></trkpt><trkpt lat="41.4967021" lon="-0.2714901"><ele>314.0</ele><time>2026-05-04T09:46:31.594Z</time></trkpt><trkpt lat="41.4966874" lon="-0.2713107"><ele>314.0</ele><time>2026-05-04T09:46:32.594Z</time></trkpt><trkpt lat="41.496669" lon="-0.2711373"><ele>314.0</ele><time>2026-05-04T09:46:33.595Z</time></trkpt><trkpt lat="41.4966539" lon="-0.2709743"><ele>313.75</ele><time>2026-05-04T09:46:34.603Z</time></trkpt><trkpt lat="41.4966322" lon="-0.2708007"><ele>313.5</ele><time>2026-05-04T09:46:35.601Z</time></trkpt><trkpt lat="41.4966107" lon="-0.2706236"><ele>313.25</ele><time>2026-05-04T09:46:36.602Z</time></trkpt><trkpt lat="41.4965955" lon="-0.2704413"><ele>313.0</ele><time>2026-05-04T09:46:37.591Z</time></trkpt><trkpt lat="41.496578" lon="-0.2702543"><ele>313.5</ele><time>2026-05-04T09:46:38.601Z</time></trkpt><trkpt lat="41.4965565" lon="-0.270067"><ele>314.0</ele><time>2026-05-04T09:46:39.596Z</time></trkpt><trkpt lat="41.4965422" lon="-0.2698954"><ele>314.5</ele><time>2026-05-04T09:46:40.602Z</time></trkpt><trkpt lat="41.496517" lon="-0.2697162"><ele>315.0</ele><time>2026-05-04T09:46:41.604Z</time></trkpt><trkpt lat="41.49649" lon="-0.2695401"><ele>315.5</ele><time>2026-05-04T09:46:42.603Z</time></trkpt><trkpt lat="41.4964727" lon="-0.2693685"><ele>316.0</ele><time>2026-05-04T09:46:43.604Z</time></trkpt><trkpt lat="41.4964554" lon="-0.2692012"><ele>316.5</ele><time>2026-05-04T09:46:44.615Z</time></trkpt><trkpt lat="41.4964378" lon="-0.269039"><ele>317.0</ele><time>2026-05-04T09:46:45.602Z</time></trkpt><trkpt lat="41.4964188" lon="-0.2688886"><ele>317.4</ele><time>2026-05-04T09:46:46.607Z</time></trkpt><trkpt lat="41.4963993" lon="-0.2687469"><ele>317.79999999999995</ele><time>2026-05-04T09:46:47.606Z</time></trkpt><trkpt lat="41.4963783" lon="-0.2686056"><ele>318.2</ele><time>2026-05-04T09:46:48.604Z</time></trkpt><trkpt lat="41.4963591" lon="-0.2684633"><ele>318.59999999999997</ele><time>2026-05-04T09:46:49.602Z</time></trkpt><trkpt lat="41.49634" lon="-0.2683226"><ele>319.0</ele><time>2026-05-04T09:46:50.604Z</time></trkpt><trkpt lat="41.4963292" lon="-0.2681802"><ele>319.2</ele><time>2026-05-04T09:46:51.596Z</time></trkpt><trkpt lat="41.4963239" lon="-0.2680413"><ele>319.4</ele><time>2026-05-04T09:46:52.595Z</time></trkpt><trkpt lat="41.496317" lon="-0.2678949"><ele>319.6</ele><time>2026-05-04T09:46:53.599Z</time></trkpt><trkpt lat="41.4963151" lon="-0.2677452"><ele>319.8</ele><time>2026-05-04T09:46:54.6Z</time></trkpt><trkpt lat="41.4963111" lon="-0.2675936"><ele>320.0</ele><time>2026-05-04T09:46:55.595Z</time></trkpt><trkpt lat="41.496314" lon="-0.2674361"><ele>320.0</ele><time>2026-05-04T09:46:56.601Z</time></trkpt><trkpt lat="41.4963208" lon="-0.2672818"><ele>320.0</ele><time>2026-05-04T09:46:57.597Z</time></trkpt><trkpt lat="41.4963379" lon="-0.2671232"><ele>320.0</ele><time>2026-05-04T09:46:58.603Z</time></trkpt><trkpt lat="41.496353" lon="-0.2669642"><ele>320.0</ele><time>2026-05-04T09:46:59.602Z</time></trkpt><trkpt lat="41.4963703" lon="-0.2667985"><ele>319.25</ele><time>2026-05-04T09:47:00.607Z</time></trkpt><trkpt lat="41.4963816" lon="-0.2666261"><ele>318.5</ele><time>2026-05-04T09:47:01.595Z</time></trkpt><trkpt lat="41.4963955" lon="-0.2664532"><ele>317.75</ele><time>2026-05-04T09:47:02.598Z</time></trkpt><trkpt lat="41.4964068" lon="-0.2662789"><ele>317.0</ele><time>2026-05-04T09:47:03.597Z</time></trkpt><trkpt lat="41.4964085" lon="-0.266103"><ele>316.75</ele><time>2026-05-04T09:47:04.597Z</time></trkpt><trkpt lat="41.4964045" lon="-0.2659168"><ele>316.5</ele><time>2026-05-04T09:47:05.603Z</time></trkpt><trkpt lat="41.496395" lon="-0.2657317"><ele>316.25</ele><time>2026-05-04T09:47:06.607Z</time></trkpt><trkpt lat="41.4963807" lon="-0.2655409"><ele>316.0</ele><time>2026-05-04T09:47:07.602Z</time></trkpt><trkpt lat="41.496361" lon="-0.2653518"><ele>316.5</ele><time>2026-05-04T09:47:08.598Z</time></trkpt><trkpt lat="41.4963544" lon="-0.2651587"><ele>317.0</ele><time>2026-05-04T09:47:09.596Z</time></trkpt><trkpt lat="41.4963437" lon="-0.2649925"><ele>317.5</ele><time>2026-05-04T09:47:10.6Z</time></trkpt><trkpt lat="41.4963308" lon="-0.2648098"><ele>318.0</ele><time>2026-05-04T09:47:11.604Z</time></trkpt><trkpt lat="41.4963281" lon="-0.2646375"><ele>319.25</ele><time>2026-05-04T09:47:12.602Z</time></trkpt><trkpt lat="41.496317" lon="-0.2644669"><ele>320.5</ele><time>2026-05-04T09:47:13.604Z</time></trkpt><trkpt lat="41.4963047" lon="-0.2642944"><ele>321.75</ele><time>2026-05-04T09:47:14.604Z</time></trkpt><trkpt lat="41.4962888" lon="-0.2641204"><ele>323.0</ele><time>2026-05-04T09:47:15.608Z</time></trkpt><trkpt lat="41.4962767" lon="-0.2639538"><ele>323.5</ele><time>2026-05-04T09:47:16.607Z</time></trkpt><trkpt lat="41.4962624" lon="-0.2637893"><ele>324.0</ele><time>2026-05-04T09:47:17.603Z</time></trkpt><trkpt lat="41.4962547" lon="-0.2636468"><ele>324.5</ele><time>2026-05-04T09:47:18.601Z</time></trkpt><trkpt lat="41.4962416" lon="-0.2634965"><ele>325.0</ele><time>2026-05-04T09:47:19.601Z</time></trkpt><trkpt lat="41.4962309" lon="-0.2633343"><ele>324.25</ele><time>2026-05-04T09:47:20.596Z</time></trkpt><trkpt lat="41.4962257" lon="-0.2631886"><ele>323.5</ele><time>2026-05-04T09:47:21.599Z</time></trkpt><trkpt lat="41.4962146" lon="-0.2630435"><ele>322.75</ele><time>2026-05-04T09:47:22.596Z</time></trkpt><trkpt lat="41.4962088" lon="-0.2628847"><ele>322.0</ele><time>2026-05-04T09:47:23.594Z</time></trkpt><trkpt lat="41.4962044" lon="-0.2627209"><ele>322.0</ele><time>2026-05-04T09:47:24.611Z</time></trkpt><trkpt lat="41.4961908" lon="-0.2625549"><ele>322.0</ele><time>2026-05-04T09:47:25.598Z</time></trkpt><trkpt lat="41.4961768" lon="-0.2623876"><ele>322.0</ele><time>2026-05-04T09:47:26.606Z</time></trkpt><trkpt lat="41.496165" lon="-0.2622199"><ele>322.0</ele><time>2026-05-04T09:47:27.602Z</time></trkpt><trkpt lat="41.4961529" lon="-0.2620517"><ele>322.25</ele><time>2026-05-04T09:47:28.605Z</time></trkpt><trkpt lat="41.4961391" lon="-0.261876"><ele>322.5</ele><time>2026-05-04T09:47:29.601Z</time></trkpt><trkpt lat="41.4961266" lon="-0.2616983"><ele>322.75</ele><time>2026-05-04T09:47:30.602Z</time></trkpt><trkpt lat="41.4961153" lon="-0.2615276"><ele>323.0</ele><time>2026-05-04T09:47:31.606Z</time></trkpt><trkpt lat="41.4961046" lon="-0.2613607"><ele>323.75</ele><time>2026-05-04T09:47:32.603Z</time></trkpt><trkpt lat="41.4960948" lon="-0.2611894"><ele>324.5</ele><time>2026-05-04T09:47:33.6Z</time></trkpt><trkpt lat="41.496086" lon="-0.2610236"><ele>325.25</ele><time>2026-05-04T09:47:34.596Z</time></trkpt><trkpt lat="41.4960822" lon="-0.2608631"><ele>326.0</ele><time>2026-05-04T09:47:35.593Z</time></trkpt><trkpt lat="41.4960741" lon="-0.2607022"><ele>326.0</ele><time>2026-05-04T09:47:36.598Z</time></trkpt><trkpt lat="41.4960681" lon="-0.2605341"><ele>326.0</ele><time>2026-05-04T09:47:37.601Z</time></trkpt><trkpt lat="41.4960667" lon="-0.2603693"><ele>326.0</ele><time>2026-05-04T09:47:38.602Z</time></trkpt><trkpt lat="41.4960627" lon="-0.2602015"><ele>326.0</ele><time>2026-05-04T09:47:39.598Z</time></trkpt><trkpt lat="41.4960586" lon="-0.2600335"><ele>326.0</ele><time>2026-05-04T09:47:40.602Z</time></trkpt><trkpt lat="41.4960524" lon="-0.2598614"><ele>326.0</ele><time>2026-05-04T09:47:41.602Z</time></trkpt><trkpt lat="41.4960492" lon="-0.2596902"><ele>326.0</ele><time>2026-05-04T09:47:42.602Z</time></trkpt><trkpt lat="41.4960448" lon="-0.2595131"><ele>326.0</ele><time>2026-05-04T09:47:43.6Z</time></trkpt><trkpt lat="41.4960428" lon="-0.2593363"><ele>326.0</ele><time>2026-05-04T09:47:44.599Z</time></trkpt><trkpt lat="41.4960421" lon="-0.2591649"><ele>326.0</ele><time>2026-05-04T09:47:45.601Z</time></trkpt><trkpt lat="41.4960406" lon="-0.2589946"><ele>326.0</ele><time>2026-05-04T09:47:46.613Z</time></trkpt><trkpt lat="41.4960356" lon="-0.2588281"><ele>326.0</ele><time>2026-05-04T09:47:47.607Z</time></trkpt><trkpt lat="41.4960349" lon="-0.2586621"><ele>325.5</ele><time>2026-05-04T09:47:48.61Z</time></trkpt><trkpt lat="41.4960372" lon="-0.2584917"><ele>325.0</ele><time>2026-05-04T09:47:49.603Z</time></trkpt><trkpt lat="41.4960408" lon="-0.2583204"><ele>324.5</ele><time>2026-05-04T09:47:50.604Z</time></trkpt><trkpt lat="41.4960409" lon="-0.2581533"><ele>324.0</ele><time>2026-05-04T09:47:51.606Z</time></trkpt><trkpt lat="41.4960359" lon="-0.2579847"><ele>323.75</ele><time>2026-05-04T09:47:52.602Z</time></trkpt><trkpt lat="41.4960307" lon="-0.2578129"><ele>323.5</ele><time>2026-05-04T09:47:53.603Z</time></trkpt><trkpt lat="41.4960263" lon="-0.2576394"><ele>323.25</ele><time>2026-05-04T09:47:54.603Z</time></trkpt><trkpt lat="41.4960245" lon="-0.2574697"><ele>323.0</ele><time>2026-05-04T09:47:55.61Z</time></trkpt><trkpt lat="41.4960217" lon="-0.2572979"><ele>323.25</ele><time>2026-05-04T09:47:56.609Z</time></trkpt><trkpt lat="41.4960138" lon="-0.2571271"><ele>323.5</ele><time>2026-05-04T09:47:57.612Z</time></trkpt><trkpt lat="41.496007" lon="-0.2569508"><ele>323.75</ele><time>2026-05-04T09:47:58.603Z</time></trkpt><trkpt lat="41.4959992" lon="-0.2567749"><ele>324.0</ele><time>2026-05-04T09:47:59.606Z</time></trkpt><trkpt lat="41.4959951" lon="-0.2566006"><ele>324.0</ele><time>2026-05-04T09:48:00.599Z</time></trkpt><trkpt lat="41.4959871" lon="-0.2564182"><ele>324.0</ele><time>2026-05-04T09:48:01.598Z</time></trkpt><trkpt lat="41.4959758" lon="-0.2562394"><ele>324.0</ele><time>2026-05-04T09:48:02.604Z</time></trkpt><trkpt lat="41.4959594" lon="-0.2560634"><ele>324.0</ele><time>2026-05-04T09:48:03.605Z</time></trkpt><trkpt lat="41.4959421" lon="-0.2558881"><ele>324.0</ele><time>2026-05-04T09:48:04.603Z</time></trkpt><trkpt lat="41.4959242" lon="-0.2557146"><ele>324.0</ele><time>2026-05-04T09:48:05.597Z</time></trkpt><trkpt lat="41.4958961" lon="-0.255537"><ele>324.0</ele><time>2026-05-04T09:48:06.598Z</time></trkpt><trkpt lat="41.4958769" lon="-0.2553647"><ele>324.0</ele><time>2026-05-04T09:48:07.598Z</time></trkpt><trkpt lat="41.4958565" lon="-0.2551902"><ele>324.25</ele><time>2026-05-04T09:48:08.604Z</time></trkpt><trkpt lat="41.4958355" lon="-0.2550054"><ele>324.5</ele><time>2026-05-04T09:48:09.603Z</time></trkpt><trkpt lat="41.4958054" lon="-0.2548236"><ele>324.75</ele><time>2026-05-04T09:48:10.602Z</time></trkpt><trkpt lat="41.4957865" lon="-0.2546446"><ele>325.0</ele><time>2026-05-04T09:48:11.599Z</time></trkpt><trkpt lat="41.4957669" lon="-0.2544619"><ele>325.5</ele><time>2026-05-04T09:48:12.606Z</time></trkpt><trkpt lat="41.4957426" lon="-0.2542688"><ele>326.0</ele><time>2026-05-04T09:48:13.596Z</time></trkpt><trkpt lat="41.4957247" lon="-0.254102"><ele>326.5</ele><time>2026-05-04T09:48:14.601Z</time></trkpt><trkpt lat="41.495713" lon="-0.2539352"><ele>327.0</ele><time>2026-05-04T09:48:15.601Z</time></trkpt><trkpt lat="41.4956962" lon="-0.253769"><ele>327.5</ele><time>2026-05-04T09:48:16.609Z</time></trkpt><trkpt lat="41.4956763" lon="-0.2536107"><ele>328.0</ele><time>2026-05-04T09:48:17.618Z</time></trkpt><trkpt lat="41.4956588" lon="-0.2534477"><ele>328.5</ele><time>2026-05-04T09:48:18.604Z</time></trkpt><trkpt lat="41.4956409" lon="-0.2532801"><ele>329.0</ele><time>2026-05-04T09:48:19.603Z</time></trkpt><trkpt lat="41.495618" lon="-0.253108"><ele>329.25</ele><time>2026-05-04T09:48:20.599Z</time></trkpt><trkpt lat="41.4955972" lon="-0.2529407"><ele>329.5</ele><time>2026-05-04T09:48:21.604Z</time></trkpt><trkpt lat="41.4955735" lon="-0.2527636"><ele>329.75</ele><time>2026-05-04T09:48:22.595Z</time></trkpt><trkpt lat="41.4955534" lon="-0.2525818"><ele>330.0</ele><time>2026-05-04T09:48:23.592Z</time></trkpt><trkpt lat="41.4955371" lon="-0.252425"><ele>330.25</ele><time>2026-05-04T09:48:24.599Z</time></trkpt><trkpt lat="41.495516" lon="-0.2522618"><ele>330.5</ele><time>2026-05-04T09:48:25.6Z</time></trkpt><trkpt lat="41.4954955" lon="-0.2520943"><ele>330.75</ele><time>2026-05-04T09:48:26.603Z</time></trkpt><trkpt lat="41.495476" lon="-0.2519271"><ele>331.0</ele><time>2026-05-04T09:48:27.597Z</time></trkpt><trkpt lat="41.4954564" lon="-0.2517675"><ele>331.0</ele><time>2026-05-04T09:48:28.604Z</time></trkpt><trkpt lat="41.4954379" lon="-0.2516131"><ele>331.0</ele><time>2026-05-04T09:48:29.602Z</time></trkpt><trkpt lat="41.4954187" lon="-0.251455"><ele>331.0</ele><time>2026-05-04T09:48:30.599Z</time></trkpt><trkpt lat="41.4953977" lon="-0.2512912"><ele>331.0</ele><time>2026-05-04T09:48:31.602Z</time></trkpt><trkpt lat="41.4953775" lon="-0.25113"><ele>330.5</ele><time>2026-05-04T09:48:32.598Z</time></trkpt><trkpt lat="41.4953555" lon="-0.2509665"><ele>330.0</ele><time>2026-05-04T09:48:33.603Z</time></trkpt><trkpt lat="41.4953322" lon="-0.2507932"><ele>329.5</ele><time>2026-05-04T09:48:34.595Z</time></trkpt><trkpt lat="41.4953113" lon="-0.250624"><ele>329.0</ele><time>2026-05-04T09:48:35.603Z</time></trkpt><trkpt lat="41.4952864" lon="-0.2504502"><ele>329.0</ele><time>2026-05-04T09:48:36.603Z</time></trkpt><trkpt lat="41.4952655" lon="-0.2502761"><ele>329.0</ele><time>2026-05-04T09:48:37.599Z</time></trkpt><trkpt lat="41.4952454" lon="-0.250103"><ele>329.0</ele><time>2026-05-04T09:48:38.601Z</time></trkpt><trkpt lat="41.4952245" lon="-0.249926"><ele>329.0</ele><time>2026-05-04T09:48:39.607Z</time></trkpt><trkpt lat="41.4952035" lon="-0.2497465"><ele>329.25</ele><time>2026-05-04T09:48:40.6Z</time></trkpt><trkpt lat="41.4951858" lon="-0.2495661"><ele>329.5</ele><time>2026-05-04T09:48:41.599Z</time></trkpt><trkpt lat="41.4951616" lon="-0.24939"><ele>329.75</ele><time>2026-05-04T09:48:42.598Z</time></trkpt><trkpt lat="41.495139" lon="-0.2492015"><ele>330.0</ele><time>2026-05-04T09:48:43.602Z</time></trkpt><trkpt lat="41.4951172" lon="-0.2490223"><ele>330.0</ele><time>2026-05-04T09:48:44.604Z</time></trkpt><trkpt lat="41.4950948" lon="-0.2488353"><ele>330.0</ele><time>2026-05-04T09:48:45.602Z</time></trkpt><trkpt lat="41.4950725" lon="-0.2486537"><ele>330.0</ele><time>2026-05-04T09:48:46.604Z</time></trkpt><trkpt lat="41.4950476" lon="-0.2484742"><ele>330.0</ele><time>2026-05-04T09:48:47.604Z</time></trkpt><trkpt lat="41.4950196" lon="-0.2482971"><ele>330.25</ele><time>2026-05-04T09:48:48.615Z</time></trkpt><trkpt lat="41.4949893" lon="-0.2481081"><ele>330.5</ele><time>2026-05-04T09:48:49.603Z</time></trkpt><trkpt lat="41.4949575" lon="-0.2479244"><ele>330.75</ele><time>2026-05-04T09:48:50.604Z</time></trkpt><trkpt lat="41.4949335" lon="-0.2477436"><ele>331.0</ele><time>2026-05-04T09:48:51.605Z</time></trkpt><trkpt lat="41.4948997" lon="-0.247551"><ele>331.0</ele><time>2026-05-04T09:48:52.594Z</time></trkpt><trkpt lat="41.4948731" lon="-0.24736"><ele>331.0</ele><time>2026-05-04T09:48:53.599Z</time></trkpt><trkpt lat="41.4948461" lon="-0.2472108"><ele>331.0</ele><time>2026-05-04T09:48:54.597Z</time></trkpt><trkpt lat="41.4948186" lon="-0.2470478"><ele>331.0</ele><time>2026-05-04T09:48:55.603Z</time></trkpt><trkpt lat="41.4947946" lon="-0.2469205"><ele>331.20000000000005</ele><time>2026-05-04T09:48:56.608Z</time></trkpt><trkpt lat="41.4947709" lon="-0.2467892"><ele>331.40000000000003</ele><time>2026-05-04T09:48:57.598Z</time></trkpt><trkpt lat="41.494753" lon="-0.2466541"><ele>331.6</ele><time>2026-05-04T09:48:58.6Z</time></trkpt><trkpt lat="41.494732" lon="-0.246521"><ele>331.8</ele><time>2026-05-04T09:48:59.598Z</time></trkpt><trkpt lat="41.4947087" lon="-0.2463923"><ele>332.0</ele><time>2026-05-04T09:49:00.602Z</time></trkpt><trkpt lat="41.4946865" lon="-0.2462701"><ele>332.0</ele><time>2026-05-04T09:49:01.6Z</time></trkpt><trkpt lat="41.4946638" lon="-0.2461412"><ele>332.0</ele><time>2026-05-04T09:49:02.602Z</time></trkpt><trkpt lat="41.49464" lon="-0.2459983"><ele>332.0</ele><time>2026-05-04T09:49:03.593Z</time></trkpt><trkpt lat="41.4946154" lon="-0.2458631"><ele>332.0</ele><time>2026-05-04T09:49:04.602Z</time></trkpt><trkpt lat="41.494598" lon="-0.245727"><ele>332.0</ele><time>2026-05-04T09:49:05.601Z</time></trkpt><trkpt lat="41.4945732" lon="-0.2455767"><ele>332.0</ele><time>2026-05-04T09:49:06.597Z</time></trkpt><trkpt lat="41.4945494" lon="-0.2454226"><ele>332.0</ele><time>2026-05-04T09:49:07.598Z</time></trkpt><trkpt lat="41.4945273" lon="-0.2452756"><ele>332.0</ele><time>2026-05-04T09:49:08.603Z</time></trkpt><trkpt lat="41.4945031" lon="-0.2451344"><ele>332.0</ele><time>2026-05-04T09:49:09.597Z</time></trkpt><trkpt lat="41.4944817" lon="-0.2449777"><ele>332.0</ele><time>2026-05-04T09:49:10.602Z</time></trkpt><trkpt lat="41.494459" lon="-0.2448273"><ele>332.0</ele><time>2026-05-04T09:49:11.6Z</time></trkpt><trkpt lat="41.4944363" lon="-0.2446815"><ele>332.0</ele><time>2026-05-04T09:49:12.603Z</time></trkpt><trkpt lat="41.4944082" lon="-0.2445384"><ele>332.0</ele><time>2026-05-04T09:49:13.602Z</time></trkpt><trkpt lat="41.4943832" lon="-0.244388"><ele>332.25</ele><time>2026-05-04T09:49:14.603Z</time></trkpt><trkpt lat="41.4943564" lon="-0.2442405"><ele>332.5</ele><time>2026-05-04T09:49:15.601Z</time></trkpt><trkpt lat="41.4943308" lon="-0.244094"><ele>332.75</ele><time>2026-05-04T09:49:16.601Z</time></trkpt><trkpt lat="41.494301" lon="-0.2439366"><ele>333.0</ele><time>2026-05-04T09:49:17.603Z</time></trkpt><trkpt lat="41.4942747" lon="-0.2437694"><ele>333.25</ele><time>2026-05-04T09:49:18.602Z</time></trkpt><trkpt lat="41.4942508" lon="-0.2436185"><ele>333.5</ele><time>2026-05-04T09:49:19.612Z</time></trkpt><trkpt lat="41.4942287" lon="-0.2434703"><ele>333.75</ele><time>2026-05-04T09:49:20.601Z</time></trkpt><trkpt lat="41.4942097" lon="-0.2433237"><ele>334.0</ele><time>2026-05-04T09:49:21.602Z</time></trkpt><trkpt lat="41.4941887" lon="-0.2431744"><ele>334.6</ele><time>2026-05-04T09:49:22.593Z</time></trkpt><trkpt lat="41.4941691" lon="-0.2430246"><ele>335.2</ele><time>2026-05-04T09:49:23.6Z</time></trkpt><trkpt lat="41.4941585" lon="-0.2428834"><ele>335.8</ele><time>2026-05-04T09:49:24.61Z</time></trkpt><trkpt lat="41.4941497" lon="-0.242742"><ele>336.40000000000003</ele><time>2026-05-04T09:49:25.601Z</time></trkpt><trkpt lat="41.4941425" lon="-0.242601"><ele>337.0</ele><time>2026-05-04T09:49:26.609Z</time></trkpt><trkpt lat="41.4941385" lon="-0.242459"><ele>337.0</ele><time>2026-05-04T09:49:27.609Z</time></trkpt><trkpt lat="41.4941365" lon="-0.2423109"><ele>337.0</ele><time>2026-05-04T09:49:28.609Z</time></trkpt><trkpt lat="41.4941341" lon="-0.2421665"><ele>337.0</ele><time>2026-05-04T09:49:29.606Z</time></trkpt><trkpt lat="41.4941276" lon="-0.2420227"><ele>337.0</ele><time>2026-05-04T09:49:30.602Z</time></trkpt><trkpt lat="41.4941216" lon="-0.2418743"><ele>337.0</ele><time>2026-05-04T09:49:31.602Z</time></trkpt><trkpt lat="41.4941096" lon="-0.241729"><ele>337.20000000000005</ele><time>2026-05-04T09:49:32.605Z</time></trkpt><trkpt lat="41.4940939" lon="-0.2415858"><ele>337.4</ele><time>2026-05-04T09:49:33.603Z</time></trkpt><trkpt lat="41.4940737" lon="-0.2414403"><ele>337.6</ele><time>2026-05-04T09:49:34.603Z</time></trkpt><trkpt lat="41.4940555" lon="-0.2412949"><ele>337.79999999999995</ele><time>2026-05-04T09:49:35.616Z</time></trkpt><trkpt lat="41.4940387" lon="-0.2411581"><ele>338.0</ele><time>2026-05-04T09:49:36.591Z</time></trkpt><trkpt lat="41.494018" lon="-0.2410171"><ele>338.2</ele><time>2026-05-04T09:49:37.595Z</time></trkpt><trkpt lat="41.4939978" lon="-0.2408675"><ele>338.4</ele><time>2026-05-04T09:49:38.605Z</time></trkpt><trkpt lat="41.4939803" lon="-0.240724"><ele>338.59999999999997</ele><time>2026-05-04T09:49:39.602Z</time></trkpt><trkpt lat="41.493961" lon="-0.2405783"><ele>338.79999999999995</ele><time>2026-05-04T09:49:40.601Z</time></trkpt><trkpt lat="41.4939425" lon="-0.2404282"><ele>339.0</ele><time>2026-05-04T09:49:41.595Z</time></trkpt><trkpt lat="41.4939244" lon="-0.2402739"><ele>339.5</ele><time>2026-05-04T09:49:42.598Z</time></trkpt><trkpt lat="41.4939063" lon="-0.240112"><ele>340.0</ele><time>2026-05-04T09:49:43.599Z</time></trkpt><trkpt lat="41.4938902" lon="-0.239941"><ele>340.5</ele><time>2026-05-04T09:49:44.603Z</time></trkpt><trkpt lat="41.4938706" lon="-0.2397753"><ele>341.0</ele><time>2026-05-04T09:49:45.602Z</time></trkpt><trkpt lat="41.4938478" lon="-0.2396038"><ele>341.0</ele><time>2026-05-04T09:49:46.603Z</time></trkpt><trkpt lat="41.4938203" lon="-0.2394263"><ele>341.0</ele><time>2026-05-04T09:49:47.602Z</time></trkpt><trkpt lat="41.4937899" lon="-0.2392416"><ele>341.0</ele><time>2026-05-04T09:49:48.595Z</time></trkpt><trkpt lat="41.4937446" lon="-0.239067"><ele>341.0</ele><time>2026-05-04T09:49:49.598Z</time></trkpt><trkpt lat="41.493678" lon="-0.2388813"><ele>341.0</ele><time>2026-05-04T09:49:50.62Z</time></trkpt><trkpt lat="41.4936137" lon="-0.2386905"><ele>341.0</ele><time>2026-05-04T09:49:51.598Z</time></trkpt><trkpt lat="41.4935574" lon="-0.2385172"><ele>341.0</ele><time>2026-05-04T09:49:52.59Z</time></trkpt><trkpt lat="41.4935004" lon="-0.2383395"><ele>341.0</ele><time>2026-05-04T09:49:53.601Z</time></trkpt><trkpt lat="41.4934618" lon="-0.2381492"><ele>341.33333333333337</ele><time>2026-05-04T09:49:54.601Z</time></trkpt><trkpt lat="41.4934228" lon="-0.2379407"><ele>341.6666666666667</ele><time>2026-05-04T09:49:55.597Z</time></trkpt><trkpt lat="41.4934068" lon="-0.2377563"><ele>342.0</ele><time>2026-05-04T09:49:56.602Z</time></trkpt><trkpt lat="41.4934034" lon="-0.2375527"><ele>342.0</ele><time>2026-05-04T09:49:57.602Z</time></trkpt><trkpt lat="41.493414" lon="-0.2373486"><ele>342.0</ele><time>2026-05-04T09:49:58.602Z</time></trkpt><trkpt lat="41.4934367" lon="-0.2371406"><ele>342.0</ele><time>2026-05-04T09:49:59.606Z</time></trkpt><trkpt lat="41.4934625" lon="-0.2369367"><ele>342.0</ele><time>2026-05-04T09:50:00.607Z</time></trkpt><trkpt lat="41.4934915" lon="-0.2367347"><ele>342.0</ele><time>2026-05-04T09:50:01.606Z</time></trkpt><trkpt lat="41.4935115" lon="-0.2365327"><ele>342.0</ele><time>2026-05-04T09:50:02.603Z</time></trkpt><trkpt lat="41.4935381" lon="-0.2363287"><ele>342.3333333333333</ele><time>2026-05-04T09:50:03.601Z</time></trkpt><trkpt lat="41.4935594" lon="-0.2361233"><ele>342.66666666666663</ele><time>2026-05-04T09:50:04.599Z</time></trkpt><trkpt lat="41.4935788" lon="-0.2359234"><ele>343.0</ele><time>2026-05-04T09:50:05.605Z</time></trkpt><trkpt lat="41.4936063" lon="-0.2357225"><ele>343.0</ele><time>2026-05-04T09:50:06.612Z</time></trkpt><trkpt lat="41.4936272" lon="-0.2355164"><ele>343.0</ele><time>2026-05-04T09:50:07.606Z</time></trkpt><trkpt lat="41.4936527" lon="-0.2353105"><ele>343.0</ele><time>2026-05-04T09:50:08.604Z</time></trkpt><trkpt lat="41.4936783" lon="-0.2351069"><ele>343.0</ele><time>2026-05-04T09:50:09.609Z</time></trkpt><trkpt lat="41.4936951" lon="-0.2348894"><ele>343.0</ele><time>2026-05-04T09:50:10.604Z</time></trkpt><trkpt lat="41.4937177" lon="-0.2346809"><ele>343.0</ele><time>2026-05-04T09:50:11.61Z</time></trkpt><trkpt lat="41.4937288" lon="-0.2344787"><ele>343.0</ele><time>2026-05-04T09:50:12.603Z</time></trkpt><trkpt lat="41.49372" lon="-0.2342676"><ele>343.0</ele><time>2026-05-04T09:50:13.614Z</time></trkpt><trkpt lat="41.4936944" lon="-0.2340552"><ele>343.0</ele><time>2026-05-04T09:50:14.602Z</time></trkpt><trkpt lat="41.4936752" lon="-0.2338564"><ele>343.25</ele><time>2026-05-04T09:50:15.606Z</time></trkpt><trkpt lat="41.4936458" lon="-0.2336525"><ele>343.5</ele><time>2026-05-04T09:50:16.603Z</time></trkpt><trkpt lat="41.4936242" lon="-0.2334584"><ele>343.75</ele><time>2026-05-04T09:50:17.605Z</time></trkpt><trkpt lat="41.4935998" lon="-0.2332691"><ele>344.0</ele><time>2026-05-04T09:50:18.605Z</time></trkpt><trkpt lat="41.493578" lon="-0.2330636"><ele>345.33333333333337</ele><time>2026-05-04T09:50:19.607Z</time></trkpt><trkpt lat="41.4935546" lon="-0.2328641"><ele>346.6666666666667</ele><time>2026-05-04T09:50:20.623Z</time></trkpt><trkpt lat="41.4935314" lon="-0.2326663"><ele>348.0</ele><time>2026-05-04T09:50:21.608Z</time></trkpt><trkpt lat="41.4935139" lon="-0.2324693"><ele>348.25</ele><time>2026-05-04T09:50:22.608Z</time></trkpt><trkpt lat="41.493495" lon="-0.2322745"><ele>348.5</ele><time>2026-05-04T09:50:23.614Z</time></trkpt><trkpt lat="41.4934868" lon="-0.2320754"><ele>348.75</ele><time>2026-05-04T09:50:24.611Z</time></trkpt><trkpt lat="41.4934947" lon="-0.2318747"><ele>349.0</ele><time>2026-05-04T09:50:25.612Z</time></trkpt><trkpt lat="41.4935051" lon="-0.2316736"><ele>349.0</ele><time>2026-05-04T09:50:26.613Z</time></trkpt><trkpt lat="41.4935134" lon="-0.2314738"><ele>349.0</ele><time>2026-05-04T09:50:27.609Z</time></trkpt><trkpt lat="41.493523" lon="-0.2312659"><ele>349.0</ele><time>2026-05-04T09:50:28.612Z</time></trkpt><trkpt lat="41.493529" lon="-0.2310658"><ele>349.75</ele><time>2026-05-04T09:50:29.615Z</time></trkpt><trkpt lat="41.4935337" lon="-0.2308682"><ele>350.5</ele><time>2026-05-04T09:50:30.614Z</time></trkpt><trkpt lat="41.4935399" lon="-0.2306707"><ele>351.25</ele><time>2026-05-04T09:50:31.604Z</time></trkpt><trkpt lat="41.4935497" lon="-0.2304744"><ele>352.0</ele><time>2026-05-04T09:50:32.604Z</time></trkpt><trkpt lat="41.4935807" lon="-0.2302674"><ele>352.0</ele><time>2026-05-04T09:50:33.599Z</time></trkpt><trkpt lat="41.4936199" lon="-0.230083"><ele>352.0</ele><time>2026-05-04T09:50:34.589Z</time></trkpt><trkpt lat="41.493673" lon="-0.2298892"><ele>352.0</ele><time>2026-05-04T09:50:35.597Z</time></trkpt><trkpt lat="41.4937289" lon="-0.2297041"><ele>352.0</ele><time>2026-05-04T09:50:36.607Z</time></trkpt><trkpt lat="41.4937911" lon="-0.2295224"><ele>353.0</ele><time>2026-05-04T09:50:37.604Z</time></trkpt><trkpt lat="41.4938481" lon="-0.2293332"><ele>354.0</ele><time>2026-05-04T09:50:38.607Z</time></trkpt><trkpt lat="41.4939264" lon="-0.2291754"><ele>355.0</ele><time>2026-05-04T09:50:39.6Z</time></trkpt><trkpt lat="41.4939979" lon="-0.2289882"><ele>355.0</ele><time>2026-05-04T09:50:40.603Z</time></trkpt><trkpt lat="41.4940649" lon="-0.2288066"><ele>355.0</ele><time>2026-05-04T09:50:41.601Z</time></trkpt><trkpt lat="41.494126" lon="-0.2286274"><ele>355.0</ele><time>2026-05-04T09:50:42.603Z</time></trkpt><trkpt lat="41.4941883" lon="-0.2284475"><ele>355.0</ele><time>2026-05-04T09:50:43.601Z</time></trkpt><trkpt lat="41.4942435" lon="-0.2282685"><ele>355.0</ele><time>2026-05-04T09:50:44.603Z</time></trkpt><trkpt lat="41.494306" lon="-0.2280988"><ele>355.0</ele><time>2026-05-04T09:50:45.603Z</time></trkpt><trkpt lat="41.4943626" lon="-0.2279307"><ele>355.0</ele><time>2026-05-04T09:50:46.604Z</time></trkpt><trkpt lat="41.4944185" lon="-0.2277616"><ele>355.0</ele><time>2026-05-04T09:50:47.608Z</time></trkpt><trkpt lat="41.4944811" lon="-0.2276097"><ele>355.0</ele><time>2026-05-04T09:50:48.6Z</time></trkpt><trkpt lat="41.4945323" lon="-0.2274695"><ele>355.0</ele><time>2026-05-04T09:50:49.605Z</time></trkpt><trkpt lat="41.494582" lon="-0.2273375"><ele>355.0</ele><time>2026-05-04T09:50:50.604Z</time></trkpt><trkpt lat="41.4946314" lon="-0.2271961"><ele>355.0</ele><time>2026-05-04T09:50:51.618Z</time></trkpt><trkpt lat="41.4946842" lon="-0.2270533"><ele>355.6</ele><time>2026-05-04T09:50:52.607Z</time></trkpt><trkpt lat="41.4947352" lon="-0.226918"><ele>356.2</ele><time>2026-05-04T09:50:53.607Z</time></trkpt><trkpt lat="41.4947857" lon="-0.2267906"><ele>356.79999999999995</ele><time>2026-05-04T09:50:54.608Z</time></trkpt><trkpt lat="41.4948372" lon="-0.2266647"><ele>357.4</ele><time>2026-05-04T09:50:55.604Z</time></trkpt><trkpt lat="41.4948888" lon="-0.2265394"><ele>358.0</ele><time>2026-05-04T09:50:56.605Z</time></trkpt><trkpt lat="41.4949335" lon="-0.2264065"><ele>358.0</ele><time>2026-05-04T09:50:57.603Z</time></trkpt><trkpt lat="41.4949855" lon="-0.2262748"><ele>358.0</ele><time>2026-05-04T09:50:58.601Z</time></trkpt><trkpt lat="41.4950384" lon="-0.2261443"><ele>358.0</ele><time>2026-05-04T09:50:59.607Z</time></trkpt><trkpt lat="41.4950899" lon="-0.2260172"><ele>358.0</ele><time>2026-05-04T09:51:00.607Z</time></trkpt><trkpt lat="41.4951411" lon="-0.2258915"><ele>358.0</ele><time>2026-05-04T09:51:01.603Z</time></trkpt><trkpt lat="41.4951907" lon="-0.2257608"><ele>358.0</ele><time>2026-05-04T09:51:02.602Z</time></trkpt><trkpt lat="41.4952379" lon="-0.2256266"><ele>358.0</ele><time>2026-05-04T09:51:03.602Z</time></trkpt><trkpt lat="41.495277" lon="-0.2254904"><ele>358.0</ele><time>2026-05-04T09:51:04.603Z</time></trkpt><trkpt lat="41.4953155" lon="-0.2253556"><ele>358.0</ele><time>2026-05-04T09:51:05.603Z</time></trkpt><trkpt lat="41.4953503" lon="-0.2252163"><ele>358.0</ele><time>2026-05-04T09:51:06.603Z</time></trkpt><trkpt lat="41.4953793" lon="-0.2250786"><ele>358.0</ele><time>2026-05-04T09:51:07.604Z</time></trkpt><trkpt lat="41.4954041" lon="-0.2249353"><ele>358.0</ele><time>2026-05-04T09:51:08.601Z</time></trkpt><trkpt lat="41.4954254" lon="-0.2247949"><ele>358.0</ele><time>2026-05-04T09:51:09.603Z</time></trkpt><trkpt lat="41.4954364" lon="-0.2246519"><ele>358.0</ele><time>2026-05-04T09:51:10.602Z</time></trkpt><trkpt lat="41.4954394" lon="-0.2245081"><ele>358.0</ele><time>2026-05-04T09:51:11.601Z</time></trkpt><trkpt lat="41.4954375" lon="-0.2243602"><ele>358.4</ele><time>2026-05-04T09:51:12.604Z</time></trkpt><trkpt lat="41.4954341" lon="-0.2242094"><ele>358.79999999999995</ele><time>2026-05-04T09:51:13.595Z</time></trkpt><trkpt lat="41.495433" lon="-0.2240633"><ele>359.2</ele><time>2026-05-04T09:51:14.598Z</time></trkpt><trkpt lat="41.4954266" lon="-0.2239207"><ele>359.6</ele><time>2026-05-04T09:51:15.598Z</time></trkpt><trkpt lat="41.4954195" lon="-0.2237823"><ele>360.0</ele><time>2026-05-04T09:51:16.607Z</time></trkpt><trkpt lat="41.4954151" lon="-0.2236318"><ele>360.25</ele><time>2026-05-04T09:51:17.599Z</time></trkpt><trkpt lat="41.4954088" lon="-0.2234742"><ele>360.5</ele><time>2026-05-04T09:51:18.599Z</time></trkpt><trkpt lat="41.4954007" lon="-0.2233053"><ele>360.75</ele><time>2026-05-04T09:51:19.6Z</time></trkpt><trkpt lat="41.4953935" lon="-0.2231391"><ele>361.0</ele><time>2026-05-04T09:51:20.606Z</time></trkpt><trkpt lat="41.495387" lon="-0.2229657"><ele>361.25</ele><time>2026-05-04T09:51:21.601Z</time></trkpt><trkpt lat="41.495384" lon="-0.2228009"><ele>361.5</ele><time>2026-05-04T09:51:22.614Z</time></trkpt><trkpt lat="41.4953789" lon="-0.2226291"><ele>361.75</ele><time>2026-05-04T09:51:23.598Z</time></trkpt><trkpt lat="41.4953741" lon="-0.2224542"><ele>362.0</ele><time>2026-05-04T09:51:24.602Z</time></trkpt><trkpt lat="41.4953745" lon="-0.2222818"><ele>362.5</ele><time>2026-05-04T09:51:25.602Z</time></trkpt><trkpt lat="41.4953731" lon="-0.2220981"><ele>363.0</ele><time>2026-05-04T09:51:26.602Z</time></trkpt><trkpt lat="41.4953714" lon="-0.2219161"><ele>363.5</ele><time>2026-05-04T09:51:27.604Z</time></trkpt><trkpt lat="41.4953666" lon="-0.2217347"><ele>364.0</ele><time>2026-05-04T09:51:28.607Z</time></trkpt><trkpt lat="41.4953593" lon="-0.2215513"><ele>364.0</ele><time>2026-05-04T09:51:29.608Z</time></trkpt><trkpt lat="41.495349" lon="-0.2213658"><ele>364.0</ele><time>2026-05-04T09:51:30.606Z</time></trkpt><trkpt lat="41.4953435" lon="-0.2211755"><ele>364.0</ele><time>2026-05-04T09:51:31.604Z</time></trkpt><trkpt lat="41.4953436" lon="-0.2209797"><ele>364.0</ele><time>2026-05-04T09:51:32.603Z</time></trkpt><trkpt lat="41.4953434" lon="-0.2207916"><ele>363.75</ele><time>2026-05-04T09:51:33.601Z</time></trkpt><trkpt lat="41.4953441" lon="-0.2206149"><ele>363.5</ele><time>2026-05-04T09:51:34.606Z</time></trkpt><trkpt lat="41.4953535" lon="-0.2204219"><ele>363.25</ele><time>2026-05-04T09:51:35.605Z</time></trkpt><trkpt lat="41.4953719" lon="-0.2202271"><ele>363.0</ele><time>2026-05-04T09:51:36.607Z</time></trkpt><trkpt lat="41.4953921" lon="-0.2200324"><ele>363.0</ele><time>2026-05-04T09:51:37.605Z</time></trkpt><trkpt lat="41.4954203" lon="-0.2198422"><ele>363.0</ele><time>2026-05-04T09:51:38.601Z</time></trkpt><trkpt lat="41.4954622" lon="-0.2196515"><ele>363.0</ele><time>2026-05-04T09:51:39.602Z</time></trkpt><trkpt lat="41.4955206" lon="-0.2194618"><ele>363.0</ele><time>2026-05-04T09:51:40.604Z</time></trkpt><trkpt lat="41.4955806" lon="-0.2192893"><ele>363.0</ele><time>2026-05-04T09:51:41.602Z</time></trkpt><trkpt lat="41.4956453" lon="-0.2191167"><ele>363.0</ele><time>2026-05-04T09:51:42.603Z</time></trkpt><trkpt lat="41.4956972" lon="-0.2189368"><ele>363.0</ele><time>2026-05-04T09:51:43.601Z</time></trkpt><trkpt lat="41.4957579" lon="-0.2187756"><ele>363.0</ele><time>2026-05-04T09:51:44.602Z</time></trkpt><trkpt lat="41.4958108" lon="-0.2185888"><ele>362.75</ele><time>2026-05-04T09:51:45.599Z</time></trkpt><trkpt lat="41.4958493" lon="-0.2184011"><ele>362.5</ele><time>2026-05-04T09:51:46.603Z</time></trkpt><trkpt lat="41.4958833" lon="-0.218211"><ele>362.25</ele><time>2026-05-04T09:51:47.609Z</time></trkpt><trkpt lat="41.4959067" lon="-0.2180187"><ele>362.0</ele><time>2026-05-04T09:51:48.599Z</time></trkpt><trkpt lat="41.4959203" lon="-0.2178259"><ele>361.75</ele><time>2026-05-04T09:51:49.599Z</time></trkpt><trkpt lat="41.49593" lon="-0.2176385"><ele>361.5</ele><time>2026-05-04T09:51:50.603Z</time></trkpt><trkpt lat="41.4959425" lon="-0.2174485"><ele>361.25</ele><time>2026-05-04T09:51:51.607Z</time></trkpt><trkpt lat="41.4959592" lon="-0.2172631"><ele>361.0</ele><time>2026-05-04T09:51:52.6Z</time></trkpt><trkpt lat="41.4959706" lon="-0.2170729"><ele>361.75</ele><time>2026-05-04T09:51:53.611Z</time></trkpt><trkpt lat="41.4959839" lon="-0.216881"><ele>362.5</ele><time>2026-05-04T09:51:54.606Z</time></trkpt><trkpt lat="41.4959922" lon="-0.2167057"><ele>363.25</ele><time>2026-05-04T09:51:55.602Z</time></trkpt><trkpt lat="41.4960007" lon="-0.2165189"><ele>364.0</ele><time>2026-05-04T09:51:56.61Z</time></trkpt><trkpt lat="41.4960112" lon="-0.2163331"><ele>364.0</ele><time>2026-05-04T09:51:57.604Z</time></trkpt><trkpt lat="41.4960218" lon="-0.2161547"><ele>364.0</ele><time>2026-05-04T09:51:58.609Z</time></trkpt><trkpt lat="41.4960265" lon="-0.2159743"><ele>364.0</ele><time>2026-05-04T09:51:59.605Z</time></trkpt><trkpt lat="41.4960374" lon="-0.2157862"><ele>364.0</ele><time>2026-05-04T09:52:00.601Z</time></trkpt><trkpt lat="41.4960485" lon="-0.2156148"><ele>364.25</ele><time>2026-05-04T09:52:01.605Z</time></trkpt><trkpt lat="41.4960528" lon="-0.2154355"><ele>364.5</ele><time>2026-05-04T09:52:02.607Z</time></trkpt><trkpt lat="41.4960615" lon="-0.2152694"><ele>364.75</ele><time>2026-05-04T09:52:03.605Z</time></trkpt><trkpt lat="41.4960757" lon="-0.2151013"><ele>365.0</ele><time>2026-05-04T09:52:04.607Z</time></trkpt><trkpt lat="41.496088" lon="-0.2149223"><ele>365.0</ele><time>2026-05-04T09:52:05.608Z</time></trkpt><trkpt lat="41.4961016" lon="-0.2147475"><ele>365.0</ele><time>2026-05-04T09:52:06.606Z</time></trkpt><trkpt lat="41.4961155" lon="-0.2145725"><ele>365.0</ele><time>2026-05-04T09:52:07.606Z</time></trkpt><trkpt lat="41.4961282" lon="-0.2143956"><ele>365.0</ele><time>2026-05-04T09:52:08.598Z</time></trkpt><trkpt lat="41.4961425" lon="-0.2142239"><ele>365.0</ele><time>2026-05-04T09:52:09.599Z</time></trkpt><trkpt lat="41.4961582" lon="-0.2140435"><ele>365.0</ele><time>2026-05-04T09:52:10.599Z</time></trkpt><trkpt lat="41.4961788" lon="-0.2138676"><ele>365.0</ele><time>2026-05-04T09:52:11.604Z</time></trkpt><trkpt lat="41.4961929" lon="-0.213698"><ele>365.0</ele><time>2026-05-04T09:52:12.606Z</time></trkpt><trkpt lat="41.4961979" lon="-0.2135256"><ele>365.0</ele><time>2026-05-04T09:52:13.607Z</time></trkpt><trkpt lat="41.4962019" lon="-0.2133499"><ele>365.0</ele><time>2026-05-04T09:52:14.611Z</time></trkpt><trkpt lat="41.4962082" lon="-0.2131744"><ele>365.0</ele><time>2026-05-04T09:52:15.606Z</time></trkpt><trkpt lat="41.4962211" lon="-0.2130068"><ele>365.0</ele><time>2026-05-04T09:52:16.606Z</time></trkpt><trkpt lat="41.4962273" lon="-0.2128369"><ele>365.0</ele><time>2026-05-04T09:52:17.616Z</time></trkpt><trkpt lat="41.4962365" lon="-0.2126612"><ele>365.0</ele><time>2026-05-04T09:52:18.611Z</time></trkpt><trkpt lat="41.4962425" lon="-0.212488"><ele>365.0</ele><time>2026-05-04T09:52:19.607Z</time></trkpt><trkpt lat="41.4962527" lon="-0.212308"><ele>365.0</ele><time>2026-05-04T09:52:20.612Z</time></trkpt><trkpt lat="41.4962636" lon="-0.2121229"><ele>364.75</ele><time>2026-05-04T09:52:21.606Z</time></trkpt><trkpt lat="41.4962733" lon="-0.2119507"><ele>364.5</ele><time>2026-05-04T09:52:22.61Z</time></trkpt><trkpt lat="41.4962719" lon="-0.2117641"><ele>364.25</ele><time>2026-05-04T09:52:23.601Z</time></trkpt><trkpt lat="41.4962594" lon="-0.2115806"><ele>364.0</ele><time>2026-05-04T09:52:24.617Z</time></trkpt><trkpt lat="41.4962423" lon="-0.2113977"><ele>363.75</ele><time>2026-05-04T09:52:25.599Z</time></trkpt><trkpt lat="41.4962189" lon="-0.2112005"><ele>363.5</ele><time>2026-05-04T09:52:26.611Z</time></trkpt><trkpt lat="41.4962068" lon="-0.2110038"><ele>363.25</ele><time>2026-05-04T09:52:27.605Z</time></trkpt><trkpt lat="41.496187" lon="-0.2108081"><ele>363.0</ele><time>2026-05-04T09:52:28.613Z</time></trkpt><trkpt lat="41.4961653" lon="-0.2106078"><ele>363.0</ele><time>2026-05-04T09:52:29.611Z</time></trkpt><trkpt lat="41.4961438" lon="-0.2104015"><ele>363.0</ele><time>2026-05-04T09:52:30.611Z</time></trkpt><trkpt lat="41.4961313" lon="-0.2101839"><ele>363.0</ele><time>2026-05-04T09:52:31.613Z</time></trkpt><trkpt lat="41.4961137" lon="-0.2099663"><ele>363.0</ele><time>2026-05-04T09:52:32.613Z</time></trkpt><trkpt lat="41.4960919" lon="-0.2097517"><ele>363.0</ele><time>2026-05-04T09:52:33.612Z</time></trkpt><trkpt lat="41.4960712" lon="-0.2095371"><ele>363.0</ele><time>2026-05-04T09:52:34.612Z</time></trkpt><trkpt lat="41.4960495" lon="-0.2093258"><ele>363.0</ele><time>2026-05-04T09:52:35.611Z</time></trkpt><trkpt lat="41.4960281" lon="-0.2091157"><ele>363.0</ele><time>2026-05-04T09:52:36.612Z</time></trkpt><trkpt lat="41.496013" lon="-0.2089067"><ele>363.0</ele><time>2026-05-04T09:52:37.609Z</time></trkpt><trkpt lat="41.4959997" lon="-0.208687"><ele>363.0</ele><time>2026-05-04T09:52:38.609Z</time></trkpt><trkpt lat="41.4959796" lon="-0.2084692"><ele>363.0</ele><time>2026-05-04T09:52:39.602Z</time></trkpt><trkpt lat="41.4959568" lon="-0.2082513"><ele>363.0</ele><time>2026-05-04T09:52:40.607Z</time></trkpt><trkpt lat="41.4959348" lon="-0.2080353"><ele>362.6666666666667</ele><time>2026-05-04T09:52:41.603Z</time></trkpt><trkpt lat="41.4959163" lon="-0.2078153"><ele>362.33333333333337</ele><time>2026-05-04T09:52:42.606Z</time></trkpt><trkpt lat="41.4958962" lon="-0.2075954"><ele>362.0</ele><time>2026-05-04T09:52:43.605Z</time></trkpt><trkpt lat="41.4958776" lon="-0.2073731"><ele>361.0</ele><time>2026-05-04T09:52:44.605Z</time></trkpt><trkpt lat="41.4958634" lon="-0.2071734"><ele>360.0</ele><time>2026-05-04T09:52:45.602Z</time></trkpt><trkpt lat="41.4958425" lon="-0.2069742"><ele>359.0</ele><time>2026-05-04T09:52:46.603Z</time></trkpt><trkpt lat="41.4958276" lon="-0.2067574"><ele>359.0</ele><time>2026-05-04T09:52:47.608Z</time></trkpt><trkpt lat="41.4958127" lon="-0.2065499"><ele>359.0</ele><time>2026-05-04T09:52:48.606Z</time></trkpt><trkpt lat="41.4957903" lon="-0.2063368"><ele>359.0</ele><time>2026-05-04T09:52:49.603Z</time></trkpt><trkpt lat="41.495767" lon="-0.2061286"><ele>359.33333333333337</ele><time>2026-05-04T09:52:50.604Z</time></trkpt><trkpt lat="41.4957495" lon="-0.2059166"><ele>359.6666666666667</ele><time>2026-05-04T09:52:51.606Z</time></trkpt><trkpt lat="41.4957311" lon="-0.2056991"><ele>360.0</ele><time>2026-05-04T09:52:52.611Z</time></trkpt><trkpt lat="41.4957114" lon="-0.205488"><ele>359.3333333333333</ele><time>2026-05-04T09:52:53.606Z</time></trkpt><trkpt lat="41.4956934" lon="-0.2052831"><ele>358.66666666666663</ele><time>2026-05-04T09:52:54.606Z</time></trkpt><trkpt lat="41.4956731" lon="-0.2050809"><ele>358.0</ele><time>2026-05-04T09:52:55.615Z</time></trkpt><trkpt lat="41.4956501" lon="-0.2048702"><ele>358.3333333333333</ele><time>2026-05-04T09:52:56.608Z</time></trkpt><trkpt lat="41.4956311" lon="-0.2046596"><ele>358.6666666666667</ele><time>2026-05-04T09:52:57.603Z</time></trkpt><trkpt lat="41.4956132" lon="-0.2044518"><ele>359.0</ele><time>2026-05-04T09:52:58.606Z</time></trkpt><trkpt lat="41.4955994" lon="-0.2042405"><ele>359.0</ele><time>2026-05-04T09:52:59.607Z</time></trkpt><trkpt lat="41.4955787" lon="-0.2040404"><ele>359.0</ele><time>2026-05-04T09:53:00.604Z</time></trkpt><trkpt lat="41.4955637" lon="-0.2038489"><ele>359.0</ele><time>2026-05-04T09:53:01.601Z</time></trkpt><trkpt lat="41.4955429" lon="-0.2036573"><ele>359.0</ele><time>2026-05-04T09:53:02.606Z</time></trkpt><trkpt lat="41.4955274" lon="-0.2034483"><ele>359.33333333333337</ele><time>2026-05-04T09:53:03.609Z</time></trkpt><trkpt lat="41.49551" lon="-0.2032464"><ele>359.6666666666667</ele><time>2026-05-04T09:53:04.603Z</time></trkpt><trkpt lat="41.4954902" lon="-0.2030541"><ele>360.0</ele><time>2026-05-04T09:53:05.604Z</time></trkpt><trkpt lat="41.4954699" lon="-0.2028529"><ele>360.0</ele><time>2026-05-04T09:53:06.614Z</time></trkpt><trkpt lat="41.4954524" lon="-0.2026522"><ele>360.0</ele><time>2026-05-04T09:53:07.611Z</time></trkpt><trkpt lat="41.4954412" lon="-0.2024618"><ele>360.0</ele><time>2026-05-04T09:53:08.607Z</time></trkpt><trkpt lat="41.4954299" lon="-0.2022635"><ele>360.0</ele><time>2026-05-04T09:53:09.607Z</time></trkpt><trkpt lat="41.4954023" lon="-0.2020718"><ele>359.75</ele><time>2026-05-04T09:53:10.613Z</time></trkpt><trkpt lat="41.495383" lon="-0.2018842"><ele>359.5</ele><time>2026-05-04T09:53:11.606Z</time></trkpt><trkpt lat="41.495367" lon="-0.2017029"><ele>359.25</ele><time>2026-05-04T09:53:12.599Z</time></trkpt><trkpt lat="41.4953523" lon="-0.2015074"><ele>359.0</ele><time>2026-05-04T09:53:13.606Z</time></trkpt><trkpt lat="41.4953281" lon="-0.2013115"><ele>359.0</ele><time>2026-05-04T09:53:14.605Z</time></trkpt><trkpt lat="41.4952987" lon="-0.2011274"><ele>359.0</ele><time>2026-05-04T09:53:15.599Z</time></trkpt><trkpt lat="41.4952587" lon="-0.2009339"><ele>359.0</ele><time>2026-05-04T09:53:16.604Z</time></trkpt><trkpt lat="41.4952111" lon="-0.2007506"><ele>359.0</ele><time>2026-05-04T09:53:17.608Z</time></trkpt><trkpt lat="41.4951661" lon="-0.2005582"><ele>359.0</ele><time>2026-05-04T09:53:18.603Z</time></trkpt><trkpt lat="41.4951238" lon="-0.2003679"><ele>359.0</ele><time>2026-05-04T09:53:19.597Z</time></trkpt><trkpt lat="41.4950804" lon="-0.2001929"><ele>359.0</ele><time>2026-05-04T09:53:20.598Z</time></trkpt><trkpt lat="41.4950456" lon="-0.2000141"><ele>359.0</ele><time>2026-05-04T09:53:21.597Z</time></trkpt><trkpt lat="41.4949935" lon="-0.1998277"><ele>359.0</ele><time>2026-05-04T09:53:22.595Z</time></trkpt><trkpt lat="41.4949519" lon="-0.1996567"><ele>359.0</ele><time>2026-05-04T09:53:23.601Z</time></trkpt><trkpt lat="41.4949158" lon="-0.1994883"><ele>359.0</ele><time>2026-05-04T09:53:24.594Z</time></trkpt><trkpt lat="41.4948715" lon="-0.1993031"><ele>359.0</ele><time>2026-05-04T09:53:25.6Z</time></trkpt><trkpt lat="41.4948361" lon="-0.1991241"><ele>359.75</ele><time>2026-05-04T09:53:26.614Z</time></trkpt><trkpt lat="41.4948023" lon="-0.1989423"><ele>360.5</ele><time>2026-05-04T09:53:27.598Z</time></trkpt><trkpt lat="41.494756" lon="-0.1987622"><ele>361.25</ele><time>2026-05-04T09:53:28.603Z</time></trkpt><trkpt lat="41.4947167" lon="-0.198581"><ele>362.0</ele><time>2026-05-04T09:53:29.604Z</time></trkpt><trkpt lat="41.4946726" lon="-0.1983904"><ele>362.0</ele><time>2026-05-04T09:53:30.597Z</time></trkpt><trkpt lat="41.4946399" lon="-0.1982083"><ele>362.0</ele><time>2026-05-04T09:53:31.603Z</time></trkpt><trkpt lat="41.4945986" lon="-0.1980365"><ele>362.0</ele><time>2026-05-04T09:53:32.605Z</time></trkpt><trkpt lat="41.4945496" lon="-0.1978611"><ele>362.0</ele><time>2026-05-04T09:53:33.607Z</time></trkpt><trkpt lat="41.4945079" lon="-0.1976836"><ele>361.0</ele><time>2026-05-04T09:53:34.607Z</time></trkpt><trkpt lat="41.4944671" lon="-0.1975062"><ele>360.0</ele><time>2026-05-04T09:53:35.61Z</time></trkpt><trkpt lat="41.4944209" lon="-0.197331"><ele>359.0</ele><time>2026-05-04T09:53:36.61Z</time></trkpt><trkpt lat="41.4943869" lon="-0.1971556"><ele>358.0</ele><time>2026-05-04T09:53:37.598Z</time></trkpt><trkpt lat="41.4943623" lon="-0.1969953"><ele>358.0</ele><time>2026-05-04T09:53:38.609Z</time></trkpt><trkpt lat="41.4943199" lon="-0.1968112"><ele>358.0</ele><time>2026-05-04T09:53:39.602Z</time></trkpt><trkpt lat="41.4942868" lon="-0.1966401"><ele>358.0</ele><time>2026-05-04T09:53:40.608Z</time></trkpt><trkpt lat="41.4942569" lon="-0.1964705"><ele>358.0</ele><time>2026-05-04T09:53:41.603Z</time></trkpt><trkpt lat="41.4942378" lon="-0.1962964"><ele>358.25</ele><time>2026-05-04T09:53:42.607Z</time></trkpt><trkpt lat="41.4942164" lon="-0.1961184"><ele>358.5</ele><time>2026-05-04T09:53:43.605Z</time></trkpt><trkpt lat="41.4942048" lon="-0.1959416"><ele>358.75</ele><time>2026-05-04T09:53:44.606Z</time></trkpt><trkpt lat="41.4941992" lon="-0.1957668"><ele>359.0</ele><time>2026-05-04T09:53:45.602Z</time></trkpt><trkpt lat="41.4941933" lon="-0.1955884"><ele>359.0</ele><time>2026-05-04T09:53:46.602Z</time></trkpt><trkpt lat="41.4941947" lon="-0.195397"><ele>359.0</ele><time>2026-05-04T09:53:47.606Z</time></trkpt><trkpt lat="41.494191" lon="-0.195202"><ele>359.0</ele><time>2026-05-04T09:53:48.607Z</time></trkpt><trkpt lat="41.4941891" lon="-0.1950017"><ele>359.0</ele><time>2026-05-04T09:53:49.61Z</time></trkpt><trkpt lat="41.4941921" lon="-0.1948102"><ele>358.75</ele><time>2026-05-04T09:53:50.603Z</time></trkpt><trkpt lat="41.4941908" lon="-0.1946148"><ele>358.5</ele><time>2026-05-04T09:53:51.605Z</time></trkpt><trkpt lat="41.4941895" lon="-0.1944219"><ele>358.25</ele><time>2026-05-04T09:53:52.607Z</time></trkpt><trkpt lat="41.4941909" lon="-0.1942251"><ele>358.0</ele><time>2026-05-04T09:53:53.607Z</time></trkpt><trkpt lat="41.4941915" lon="-0.1940324"><ele>358.0</ele><time>2026-05-04T09:53:54.605Z</time></trkpt><trkpt lat="41.4941893" lon="-0.1938377"><ele>358.0</ele><time>2026-05-04T09:53:55.604Z</time></trkpt><trkpt lat="41.4941908" lon="-0.1936364"><ele>358.0</ele><time>2026-05-04T09:53:56.61Z</time></trkpt><trkpt lat="41.494193" lon="-0.1934332"><ele>358.0</ele><time>2026-05-04T09:53:57.619Z</time></trkpt><trkpt lat="41.4941911" lon="-0.1932419"><ele>358.0</ele><time>2026-05-04T09:53:58.607Z</time></trkpt><trkpt lat="41.4941923" lon="-0.193041"><ele>358.0</ele><time>2026-05-04T09:53:59.614Z</time></trkpt><trkpt lat="41.4941903" lon="-0.1928499"><ele>358.0</ele><time>2026-05-04T09:54:00.606Z</time></trkpt><trkpt lat="41.4941945" lon="-0.1926556"><ele>358.0</ele><time>2026-05-04T09:54:01.61Z</time></trkpt><trkpt lat="41.4941949" lon="-0.192462"><ele>358.0</ele><time>2026-05-04T09:54:02.609Z</time></trkpt><trkpt lat="41.4941933" lon="-0.1922768"><ele>358.0</ele><time>2026-05-04T09:54:03.608Z</time></trkpt><trkpt lat="41.4941885" lon="-0.192099"><ele>358.0</ele><time>2026-05-04T09:54:04.61Z</time></trkpt><trkpt lat="41.4941952" lon="-0.1919234"><ele>358.0</ele><time>2026-05-04T09:54:05.606Z</time></trkpt><trkpt lat="41.494199" lon="-0.1917587"><ele>358.0</ele><time>2026-05-04T09:54:06.611Z</time></trkpt><trkpt lat="41.494207" lon="-0.1915965"><ele>358.0</ele><time>2026-05-04T09:54:07.611Z</time></trkpt><trkpt lat="41.4942183" lon="-0.1914307"><ele>358.0</ele><time>2026-05-04T09:54:08.605Z</time></trkpt><trkpt lat="41.4942369" lon="-0.1912684"><ele>358.0</ele><time>2026-05-04T09:54:09.603Z</time></trkpt><trkpt lat="41.4942621" lon="-0.1910966"><ele>357.5</ele><time>2026-05-04T09:54:10.604Z</time></trkpt><trkpt lat="41.4942934" lon="-0.1909255"><ele>357.0</ele><time>2026-05-04T09:54:11.603Z</time></trkpt><trkpt lat="41.4943309" lon="-0.1907479"><ele>356.5</ele><time>2026-05-04T09:54:12.602Z</time></trkpt><trkpt lat="41.4943696" lon="-0.1905676"><ele>356.0</ele><time>2026-05-04T09:54:13.604Z</time></trkpt><trkpt lat="41.4944144" lon="-0.1903836"><ele>355.25</ele><time>2026-05-04T09:54:14.607Z</time></trkpt><trkpt lat="41.4944514" lon="-0.190202"><ele>354.5</ele><time>2026-05-04T09:54:15.603Z</time></trkpt><trkpt lat="41.4944959" lon="-0.190016"><ele>353.75</ele><time>2026-05-04T09:54:16.606Z</time></trkpt><trkpt lat="41.4945352" lon="-0.1898281"><ele>353.0</ele><time>2026-05-04T09:54:17.608Z</time></trkpt><trkpt lat="41.4945786" lon="-0.189637"><ele>353.0</ele><time>2026-05-04T09:54:18.606Z</time></trkpt><trkpt lat="41.4946206" lon="-0.1894457"><ele>353.0</ele><time>2026-05-04T09:54:19.609Z</time></trkpt><trkpt lat="41.4946566" lon="-0.1892433"><ele>353.0</ele><time>2026-05-04T09:54:20.609Z</time></trkpt><trkpt lat="41.494695" lon="-0.1890557"><ele>352.75</ele><time>2026-05-04T09:54:21.611Z</time></trkpt><trkpt lat="41.4947315" lon="-0.1888748"><ele>352.5</ele><time>2026-05-04T09:54:22.612Z</time></trkpt><trkpt lat="41.4947702" lon="-0.1887011"><ele>352.25</ele><time>2026-05-04T09:54:23.606Z</time></trkpt><trkpt lat="41.4948061" lon="-0.1885235"><ele>352.0</ele><time>2026-05-04T09:54:24.614Z</time></trkpt><trkpt lat="41.4948361" lon="-0.1883441"><ele>351.5</ele><time>2026-05-04T09:54:25.61Z</time></trkpt><trkpt lat="41.4948734" lon="-0.1881626"><ele>351.0</ele><time>2026-05-04T09:54:26.615Z</time></trkpt><trkpt lat="41.4948942" lon="-0.1879704"><ele>350.5</ele><time>2026-05-04T09:54:27.615Z</time></trkpt><trkpt lat="41.4949103" lon="-0.1877817"><ele>350.0</ele><time>2026-05-04T09:54:28.632Z</time></trkpt><trkpt lat="41.4949233" lon="-0.1875812"><ele>350.0</ele><time>2026-05-04T09:54:29.614Z</time></trkpt><trkpt lat="41.4949397" lon="-0.1873966"><ele>350.0</ele><time>2026-05-04T09:54:30.612Z</time></trkpt><trkpt lat="41.4949532" lon="-0.1872037"><ele>350.0</ele><time>2026-05-04T09:54:31.606Z</time></trkpt><trkpt lat="41.4949666" lon="-0.1870109"><ele>350.0</ele><time>2026-05-04T09:54:32.61Z</time></trkpt><trkpt lat="41.4949841" lon="-0.1868024"><ele>349.5</ele><time>2026-05-04T09:54:33.604Z</time></trkpt><trkpt lat="41.494996" lon="-0.1866077"><ele>349.0</ele><time>2026-05-04T09:54:34.611Z</time></trkpt><trkpt lat="41.4950106" lon="-0.1864096"><ele>348.5</ele><time>2026-05-04T09:54:35.616Z</time></trkpt><trkpt lat="41.4950186" lon="-0.1862118"><ele>348.0</ele><time>2026-05-04T09:54:36.615Z</time></trkpt><trkpt lat="41.4950295" lon="-0.1860133"><ele>347.6666666666667</ele><time>2026-05-04T09:54:37.61Z</time></trkpt><trkpt lat="41.4950453" lon="-0.1858124"><ele>347.33333333333337</ele><time>2026-05-04T09:54:38.612Z</time></trkpt><trkpt lat="41.4950572" lon="-0.18561"><ele>347.0</ele><time>2026-05-04T09:54:39.608Z</time></trkpt><trkpt lat="41.4950819" lon="-0.1854151"><ele>346.5</ele><time>2026-05-04T09:54:40.601Z</time></trkpt><trkpt lat="41.495094" lon="-0.1852324"><ele>346.0</ele><time>2026-05-04T09:54:41.613Z</time></trkpt><trkpt lat="41.4951199" lon="-0.1850356"><ele>345.5</ele><time>2026-05-04T09:54:42.605Z</time></trkpt><trkpt lat="41.4951404" lon="-0.1848463"><ele>345.0</ele><time>2026-05-04T09:54:43.604Z</time></trkpt><trkpt lat="41.4951673" lon="-0.1846552"><ele>344.6666666666667</ele><time>2026-05-04T09:54:44.606Z</time></trkpt><trkpt lat="41.4952101" lon="-0.1844558"><ele>344.33333333333337</ele><time>2026-05-04T09:54:45.608Z</time></trkpt><trkpt lat="41.4952557" lon="-0.1842579"><ele>344.0</ele><time>2026-05-04T09:54:46.61Z</time></trkpt><trkpt lat="41.4952982" lon="-0.1840598"><ele>342.6666666666667</ele><time>2026-05-04T09:54:47.614Z</time></trkpt><trkpt lat="41.4953363" lon="-0.1838544"><ele>341.3333333333333</ele><time>2026-05-04T09:54:48.616Z</time></trkpt><trkpt lat="41.4953736" lon="-0.1836542"><ele>340.0</ele><time>2026-05-04T09:54:49.61Z</time></trkpt><trkpt lat="41.4954162" lon="-0.1834543"><ele>334.0</ele><time>2026-05-04T09:54:50.613Z</time></trkpt><trkpt lat="41.4957678" lon="-0.1816859"><ele>331.0</ele><time>2026-05-04T09:54:59.62Z</time></trkpt><trkpt lat="41.4961248" lon="-0.177999"><ele>328.0</ele><time>2026-05-04T09:55:18.616Z</time></trkpt><trkpt lat="41.49634" lon="-0.1743146"><ele>326.0</ele><time>2026-05-04T09:55:37.616Z</time></trkpt><trkpt lat="41.4965462" lon="-0.1706529"><ele>328.0</ele><time>2026-05-04T09:55:56.62Z</time></trkpt><trkpt lat="41.4967307" lon="-0.1669923"><ele>330.0</ele><time>2026-05-04T09:56:15.619Z</time></trkpt><trkpt lat="41.496989" lon="-0.1632607"><ele>330.0</ele><time>2026-05-04T09:56:34.616Z</time></trkpt><trkpt lat="41.4973117" lon="-0.1595636"><ele>328.0</ele><time>2026-05-04T09:56:53.621Z</time></trkpt><trkpt lat="41.4965829" lon="-0.1560877"><ele>328.0</ele><time>2026-05-04T09:57:16.621Z</time></trkpt><trkpt lat="41.4958343" lon="-0.1534463"><ele>327.0</ele><time>2026-05-04T09:57:35.613Z</time></trkpt><trkpt lat="41.4968829" lon="-0.1500078"><ele>324.0</ele><time>2026-05-04T09:58:00.615Z</time></trkpt><trkpt lat="41.497881" lon="-0.1464876"><ele>325.0</ele><time>2026-05-04T09:58:19.619Z</time></trkpt><trkpt lat="41.4980924" lon="-0.1427066"><ele>324.0</ele><time>2026-05-04T09:58:38.623Z</time></trkpt><trkpt lat="41.4982174" lon="-0.1390674"><ele>323.0</ele><time>2026-05-04T09:58:56.624Z</time></trkpt><trkpt lat="41.4982976" lon="-0.1354328"><ele>325.0</ele><time>2026-05-04T09:59:16.622Z</time></trkpt><trkpt lat="41.4975143" lon="-0.1319074"><ele>325.0</ele><time>2026-05-04T09:59:36.64Z</time></trkpt><trkpt lat="41.4965682" lon="-0.1284315"><ele>325.0</ele><time>2026-05-04T09:59:57.627Z</time></trkpt><trkpt lat="41.4957854" lon="-0.1248442"><ele>325.0</ele><time>2026-05-04T10:00:18.625Z</time></trkpt></trkseg><trkseg><trkpt lat="41.4933269" lon="-0.1080717"><ele>327.0</ele><time>2026-05-04T10:01:54.612Z</time></trkpt><trkpt lat="41.4933265" lon="-0.1078894"><ele>327.0</ele><time>2026-05-04T10:01:55.611Z</time></trkpt><trkpt lat="41.4933166" lon="-0.1077086"><ele>327.0</ele><time>2026-05-04T10:01:56.606Z</time></trkpt><trkpt lat="41.4933011" lon="-0.1075199"><ele>327.0</ele><time>2026-05-04T10:01:57.638Z</time></trkpt><trkpt lat="41.4932816" lon="-0.1073327"><ele>327.0</ele><time>2026-05-04T10:01:58.608Z</time></trkpt><trkpt lat="41.4932613" lon="-0.1071535"><ele>327.0</ele><time>2026-05-04T10:01:59.606Z</time></trkpt><trkpt lat="41.4932467" lon="-0.106973"><ele>327.0</ele><time>2026-05-04T10:02:00.604Z</time></trkpt><trkpt lat="41.4932323" lon="-0.1067984"><ele>327.0</ele><time>2026-05-04T10:02:01.609Z</time></trkpt><trkpt lat="41.4932095" lon="-0.1066151"><ele>327.25</ele><time>2026-05-04T10:02:02.61Z</time></trkpt><trkpt lat="41.4931855" lon="-0.1064367"><ele>327.5</ele><time>2026-05-04T10:02:03.616Z</time></trkpt><trkpt lat="41.4931688" lon="-0.1062608"><ele>327.75</ele><time>2026-05-04T10:02:04.607Z</time></trkpt><trkpt lat="41.4931496" lon="-0.1060836"><ele>328.0</ele><time>2026-05-04T10:02:05.614Z</time></trkpt><trkpt lat="41.4931317" lon="-0.1059057"><ele>327.75</ele><time>2026-05-04T10:02:06.605Z</time></trkpt><trkpt lat="41.4931124" lon="-0.1057292"><ele>327.5</ele><time>2026-05-04T10:02:07.608Z</time></trkpt><trkpt lat="41.4930937" lon="-0.1055516"><ele>327.25</ele><time>2026-05-04T10:02:08.618Z</time></trkpt><trkpt lat="41.4930749" lon="-0.1053657"><ele>327.0</ele><time>2026-05-04T10:02:09.608Z</time></trkpt><trkpt lat="41.4930538" lon="-0.10518"><ele>327.0</ele><time>2026-05-04T10:02:10.609Z</time></trkpt><trkpt lat="41.4930321" lon="-0.1050004"><ele>327.0</ele><time>2026-05-04T10:02:11.609Z</time></trkpt><trkpt lat="41.4930113" lon="-0.104813"><ele>327.0</ele><time>2026-05-04T10:02:12.61Z</time></trkpt><trkpt lat="41.4929908" lon="-0.104627"><ele>327.0</ele><time>2026-05-04T10:02:13.614Z</time></trkpt><trkpt lat="41.4929677" lon="-0.1044421"><ele>327.0</ele><time>2026-05-04T10:02:14.61Z</time></trkpt><trkpt lat="41.4929493" lon="-0.1042577"><ele>327.0</ele><time>2026-05-04T10:02:15.61Z</time></trkpt><trkpt lat="41.4929315" lon="-0.1040676"><ele>327.0</ele><time>2026-05-04T10:02:16.607Z</time></trkpt><trkpt lat="41.4929128" lon="-0.1038841"><ele>327.0</ele><time>2026-05-04T10:02:17.614Z</time></trkpt><trkpt lat="41.4928934" lon="-0.1036981"><ele>327.0</ele><time>2026-05-04T10:02:18.613Z</time></trkpt><trkpt lat="41.4928748" lon="-0.1034982"><ele>327.0</ele><time>2026-05-04T10:02:19.613Z</time></trkpt><trkpt lat="41.492851" lon="-0.1033041"><ele>327.0</ele><time>2026-05-04T10:02:20.607Z</time></trkpt><trkpt lat="41.4928334" lon="-0.1031173"><ele>327.0</ele><time>2026-05-04T10:02:21.61Z</time></trkpt><trkpt lat="41.492815" lon="-0.1029242"><ele>326.6666666666667</ele><time>2026-05-04T10:02:22.62Z</time></trkpt><trkpt lat="41.4927966" lon="-0.1027287"><ele>326.33333333333337</ele><time>2026-05-04T10:02:23.612Z</time></trkpt><trkpt lat="41.4927765" lon="-0.1025262"><ele>326.0</ele><time>2026-05-04T10:02:24.609Z</time></trkpt><trkpt lat="41.4927524" lon="-0.102318"><ele>326.0</ele><time>2026-05-04T10:02:25.611Z</time></trkpt><trkpt lat="41.4927256" lon="-0.1021143"><ele>326.0</ele><time>2026-05-04T10:02:26.609Z</time></trkpt><trkpt lat="41.4927031" lon="-0.101897"><ele>326.0</ele><time>2026-05-04T10:02:27.613Z</time></trkpt><trkpt lat="41.4926803" lon="-0.1016958"><ele>326.0</ele><time>2026-05-04T10:02:28.621Z</time></trkpt><trkpt lat="41.4926622" lon="-0.1014631"><ele>326.0</ele><time>2026-05-04T10:02:29.607Z</time></trkpt><trkpt lat="41.4926316" lon="-0.1012373"><ele>326.0</ele><time>2026-05-04T10:02:30.601Z</time></trkpt><trkpt lat="41.4925998" lon="-0.1010109"><ele>326.0</ele><time>2026-05-04T10:02:31.605Z</time></trkpt><trkpt lat="41.4925665" lon="-0.100793"><ele>326.0</ele><time>2026-05-04T10:02:32.61Z</time></trkpt><trkpt lat="41.4925409" lon="-0.1005768"><ele>326.0</ele><time>2026-05-04T10:02:33.61Z</time></trkpt><trkpt lat="41.4925159" lon="-0.1003603"><ele>326.0</ele><time>2026-05-04T10:02:34.609Z</time></trkpt><trkpt lat="41.4924922" lon="-0.1001409"><ele>326.0</ele><time>2026-05-04T10:02:35.608Z</time></trkpt><trkpt lat="41.4924739" lon="-0.0999304"><ele>326.0</ele><time>2026-05-04T10:02:36.61Z</time></trkpt><trkpt lat="41.4924554" lon="-0.0997225"><ele>325.6666666666667</ele><time>2026-05-04T10:02:37.607Z</time></trkpt><trkpt lat="41.4924354" lon="-0.0995096"><ele>325.3333333333333</ele><time>2026-05-04T10:02:38.611Z</time></trkpt><trkpt lat="41.4924105" lon="-0.0993082"><ele>325.0</ele><time>2026-05-04T10:02:39.606Z</time></trkpt><trkpt lat="41.4923874" lon="-0.0990989"><ele>324.3333333333333</ele><time>2026-05-04T10:02:40.606Z</time></trkpt><trkpt lat="41.4923657" lon="-0.0988913"><ele>323.6666666666667</ele><time>2026-05-04T10:02:41.61Z</time></trkpt><trkpt lat="41.492344" lon="-0.0986888"><ele>323.0</ele><time>2026-05-04T10:02:42.607Z</time></trkpt><trkpt lat="41.4923269" lon="-0.0984785"><ele>323.0</ele><time>2026-05-04T10:02:43.599Z</time></trkpt><trkpt lat="41.4923017" lon="-0.0982822"><ele>323.0</ele><time>2026-05-04T10:02:44.604Z</time></trkpt><trkpt lat="41.4922732" lon="-0.0980927"><ele>323.0</ele><time>2026-05-04T10:02:45.604Z</time></trkpt><trkpt lat="41.492261" lon="-0.097889"><ele>323.0</ele><time>2026-05-04T10:02:46.608Z</time></trkpt><trkpt lat="41.4922459" lon="-0.0976893"><ele>323.33333333333337</ele><time>2026-05-04T10:02:47.605Z</time></trkpt><trkpt lat="41.4922216" lon="-0.0974937"><ele>323.6666666666667</ele><time>2026-05-04T10:02:48.609Z</time></trkpt><trkpt lat="41.4921979" lon="-0.0972942"><ele>324.0</ele><time>2026-05-04T10:02:49.609Z</time></trkpt><trkpt lat="41.492172" lon="-0.0970925"><ele>324.3333333333333</ele><time>2026-05-04T10:02:50.606Z</time></trkpt><trkpt lat="41.4921514" lon="-0.0968927"><ele>324.66666666666663</ele><time>2026-05-04T10:02:51.61Z</time></trkpt><trkpt lat="41.4921312" lon="-0.0966909"><ele>325.0</ele><time>2026-05-04T10:02:52.61Z</time></trkpt><trkpt lat="41.4921088" lon="-0.0964959"><ele>325.3333333333333</ele><time>2026-05-04T10:02:53.607Z</time></trkpt><trkpt lat="41.4920862" lon="-0.096297"><ele>325.6666666666667</ele><time>2026-05-04T10:02:54.613Z</time></trkpt><trkpt lat="41.4920612" lon="-0.0961027"><ele>326.0</ele><time>2026-05-04T10:02:55.601Z</time></trkpt><trkpt lat="41.4920359" lon="-0.0959018"><ele>325.6666666666667</ele><time>2026-05-04T10:02:56.604Z</time></trkpt><trkpt lat="41.4920254" lon="-0.0957085"><ele>325.3333333333333</ele><time>2026-05-04T10:02:57.605Z</time></trkpt><trkpt lat="41.4920051" lon="-0.095496"><ele>325.0</ele><time>2026-05-04T10:02:58.603Z</time></trkpt><trkpt lat="41.4919881" lon="-0.0953017"><ele>325.0</ele><time>2026-05-04T10:02:59.619Z</time></trkpt><trkpt lat="41.491975" lon="-0.0951023"><ele>325.0</ele><time>2026-05-04T10:03:00.598Z</time></trkpt><trkpt lat="41.4919716" lon="-0.0949067"><ele>325.0</ele><time>2026-05-04T10:03:01.6Z</time></trkpt><trkpt lat="41.4919768" lon="-0.0947111"><ele>325.0</ele><time>2026-05-04T10:03:02.603Z</time></trkpt><trkpt lat="41.4919936" lon="-0.0945192"><ele>324.66666666666663</ele><time>2026-05-04T10:03:03.6Z</time></trkpt><trkpt lat="41.4920166" lon="-0.0943259"><ele>324.3333333333333</ele><time>2026-05-04T10:03:04.602Z</time></trkpt><trkpt lat="41.4920464" lon="-0.0941294"><ele>324.0</ele><time>2026-05-04T10:03:05.601Z</time></trkpt><trkpt lat="41.4920828" lon="-0.0939305"><ele>323.5</ele><time>2026-05-04T10:03:06.605Z</time></trkpt><trkpt lat="41.4921211" lon="-0.0937286"><ele>323.0</ele><time>2026-05-04T10:03:07.608Z</time></trkpt><trkpt lat="41.4921563" lon="-0.0935361"><ele>322.5</ele><time>2026-05-04T10:03:08.607Z</time></trkpt><trkpt lat="41.492193" lon="-0.0933492"><ele>322.0</ele><time>2026-05-04T10:03:09.611Z</time></trkpt><trkpt lat="41.4922276" lon="-0.0931571"><ele>321.3333333333333</ele><time>2026-05-04T10:03:10.607Z</time></trkpt><trkpt lat="41.4922593" lon="-0.0929596"><ele>320.6666666666667</ele><time>2026-05-04T10:03:11.608Z</time></trkpt><trkpt lat="41.4923024" lon="-0.0927634"><ele>320.0</ele><time>2026-05-04T10:03:12.607Z</time></trkpt><trkpt lat="41.4923383" lon="-0.0925739"><ele>319.0</ele><time>2026-05-04T10:03:13.607Z</time></trkpt><trkpt lat="41.49237" lon="-0.0923748"><ele>318.0</ele><time>2026-05-04T10:03:14.606Z</time></trkpt><trkpt lat="41.492415" lon="-0.0921894"><ele>317.0</ele><time>2026-05-04T10:03:15.608Z</time></trkpt><trkpt lat="41.4924558" lon="-0.0920021"><ele>316.0</ele><time>2026-05-04T10:03:16.606Z</time></trkpt><trkpt lat="41.4924996" lon="-0.0918137"><ele>316.0</ele><time>2026-05-04T10:03:17.606Z</time></trkpt><trkpt lat="41.4925333" lon="-0.0916265"><ele>316.0</ele><time>2026-05-04T10:03:18.606Z</time></trkpt><trkpt lat="41.4925769" lon="-0.0914408"><ele>316.0</ele><time>2026-05-04T10:03:19.604Z</time></trkpt><trkpt lat="41.4926244" lon="-0.0912685"><ele>316.0</ele><time>2026-05-04T10:03:20.614Z</time></trkpt><trkpt lat="41.4926822" lon="-0.0910811"><ele>315.0</ele><time>2026-05-04T10:03:21.611Z</time></trkpt><trkpt lat="41.4927404" lon="-0.0909047"><ele>314.0</ele><time>2026-05-04T10:03:22.61Z</time></trkpt><trkpt lat="41.4927932" lon="-0.0907399"><ele>313.0</ele><time>2026-05-04T10:03:23.606Z</time></trkpt><trkpt lat="41.4928657" lon="-0.0905672"><ele>312.0</ele><time>2026-05-04T10:03:24.608Z</time></trkpt><trkpt lat="41.4929327" lon="-0.0903954"><ele>310.75</ele><time>2026-05-04T10:03:25.616Z</time></trkpt><trkpt lat="41.4929973" lon="-0.090233"><ele>309.5</ele><time>2026-05-04T10:03:26.611Z</time></trkpt><trkpt lat="41.4930596" lon="-0.0900644"><ele>308.25</ele><time>2026-05-04T10:03:27.626Z</time></trkpt><trkpt lat="41.4931145" lon="-0.0898896"><ele>307.0</ele><time>2026-05-04T10:03:28.605Z</time></trkpt><trkpt lat="41.4931709" lon="-0.0896991"><ele>305.66666666666663</ele><time>2026-05-04T10:03:29.607Z</time></trkpt><trkpt lat="41.4932137" lon="-0.0895074"><ele>304.3333333333333</ele><time>2026-05-04T10:03:30.615Z</time></trkpt><trkpt lat="41.4932424" lon="-0.0893153"><ele>303.0</ele><time>2026-05-04T10:03:31.602Z</time></trkpt><trkpt lat="41.4932562" lon="-0.0891016"><ele>303.0</ele><time>2026-05-04T10:03:32.61Z</time></trkpt><trkpt lat="41.4932865" lon="-0.0889053"><ele>303.0</ele><time>2026-05-04T10:03:33.597Z</time></trkpt><trkpt lat="41.4933102" lon="-0.0887135"><ele>303.0</ele><time>2026-05-04T10:03:34.603Z</time></trkpt><trkpt lat="41.4933307" lon="-0.0885068"><ele>303.0</ele><time>2026-05-04T10:03:35.607Z</time></trkpt><trkpt lat="41.4933565" lon="-0.088309"><ele>303.0</ele><time>2026-05-04T10:03:36.598Z</time></trkpt><trkpt lat="41.4933751" lon="-0.0881179"><ele>303.0</ele><time>2026-05-04T10:03:37.598Z</time></trkpt><trkpt lat="41.4933928" lon="-0.0879227"><ele>303.0</ele><time>2026-05-04T10:03:38.602Z</time></trkpt><trkpt lat="41.4934091" lon="-0.0877393"><ele>303.0</ele><time>2026-05-04T10:03:39.603Z</time></trkpt><trkpt lat="41.4934292" lon="-0.0875499"><ele>303.0</ele><time>2026-05-04T10:03:40.608Z</time></trkpt><trkpt lat="41.493453" lon="-0.0873661"><ele>303.0</ele><time>2026-05-04T10:03:41.608Z</time></trkpt><trkpt lat="41.4934709" lon="-0.0871776"><ele>303.0</ele><time>2026-05-04T10:03:42.608Z</time></trkpt><trkpt lat="41.4934946" lon="-0.0869904"><ele>302.5</ele><time>2026-05-04T10:03:43.608Z</time></trkpt><trkpt lat="41.4935241" lon="-0.0868032"><ele>302.0</ele><time>2026-05-04T10:03:44.61Z</time></trkpt><trkpt lat="41.4935481" lon="-0.0866086"><ele>301.5</ele><time>2026-05-04T10:03:45.605Z</time></trkpt><trkpt lat="41.4935608" lon="-0.0864123"><ele>301.0</ele><time>2026-05-04T10:03:46.609Z</time></trkpt><trkpt lat="41.4935752" lon="-0.0862144"><ele>300.75</ele><time>2026-05-04T10:03:47.612Z</time></trkpt><trkpt lat="41.4935979" lon="-0.0860212"><ele>300.5</ele><time>2026-05-04T10:03:48.605Z</time></trkpt><trkpt lat="41.4936225" lon="-0.0858302"><ele>300.25</ele><time>2026-05-04T10:03:49.615Z</time></trkpt><trkpt lat="41.4936511" lon="-0.0856352"><ele>300.0</ele><time>2026-05-04T10:03:50.606Z</time></trkpt><trkpt lat="41.4936726" lon="-0.085442"><ele>300.75</ele><time>2026-05-04T10:03:51.615Z</time></trkpt><trkpt lat="41.4936988" lon="-0.0852535"><ele>301.5</ele><time>2026-05-04T10:03:52.608Z</time></trkpt><trkpt lat="41.4937214" lon="-0.0850775"><ele>302.25</ele><time>2026-05-04T10:03:53.609Z</time></trkpt><trkpt lat="41.4937472" lon="-0.0848923"><ele>303.0</ele><time>2026-05-04T10:03:54.61Z</time></trkpt><trkpt lat="41.4937737" lon="-0.0847152"><ele>300.75</ele><time>2026-05-04T10:03:55.603Z</time></trkpt><trkpt lat="41.4937936" lon="-0.0845409"><ele>298.5</ele><time>2026-05-04T10:03:56.601Z</time></trkpt><trkpt lat="41.4938095" lon="-0.084366"><ele>296.25</ele><time>2026-05-04T10:03:57.61Z</time></trkpt><trkpt lat="41.4938336" lon="-0.0841821"><ele>294.0</ele><time>2026-05-04T10:03:58.604Z</time></trkpt><trkpt lat="41.493852" lon="-0.0839978"><ele>294.0</ele><time>2026-05-04T10:03:59.605Z</time></trkpt><trkpt lat="41.4938656" lon="-0.0838222"><ele>294.0</ele><time>2026-05-04T10:04:00.606Z</time></trkpt><trkpt lat="41.493883" lon="-0.0836301"><ele>294.0</ele><time>2026-05-04T10:04:01.623Z</time></trkpt><trkpt lat="41.4939044" lon="-0.0834419"><ele>294.0</ele><time>2026-05-04T10:04:02.604Z</time></trkpt><trkpt lat="41.4939266" lon="-0.0832531"><ele>294.0</ele><time>2026-05-04T10:04:03.607Z</time></trkpt><trkpt lat="41.493947" lon="-0.0830634"><ele>294.0</ele><time>2026-05-04T10:04:04.601Z</time></trkpt><trkpt lat="41.49397" lon="-0.0828842"><ele>294.0</ele><time>2026-05-04T10:04:05.607Z</time></trkpt><trkpt lat="41.4939909" lon="-0.0827022"><ele>294.0</ele><time>2026-05-04T10:04:06.606Z</time></trkpt><trkpt lat="41.4940078" lon="-0.0825234"><ele>293.75</ele><time>2026-05-04T10:04:07.607Z</time></trkpt><trkpt lat="41.4940291" lon="-0.0823408"><ele>293.5</ele><time>2026-05-04T10:04:08.609Z</time></trkpt><trkpt lat="41.4940473" lon="-0.0821589"><ele>293.25</ele><time>2026-05-04T10:04:09.606Z</time></trkpt><trkpt lat="41.4940645" lon="-0.0819777"><ele>293.0</ele><time>2026-05-04T10:04:10.606Z</time></trkpt><trkpt lat="41.4940925" lon="-0.0817983"><ele>293.0</ele><time>2026-05-04T10:04:11.603Z</time></trkpt><trkpt lat="41.4941156" lon="-0.081608"><ele>293.0</ele><time>2026-05-04T10:04:12.604Z</time></trkpt><trkpt lat="41.4941312" lon="-0.081425"><ele>293.0</ele><time>2026-05-04T10:04:13.604Z</time></trkpt><trkpt lat="41.4941466" lon="-0.0812402"><ele>293.0</ele><time>2026-05-04T10:04:14.605Z</time></trkpt><trkpt lat="41.4941638" lon="-0.0810687"><ele>292.5</ele><time>2026-05-04T10:04:15.605Z</time></trkpt><trkpt lat="41.4941832" lon="-0.0808884"><ele>292.0</ele><time>2026-05-04T10:04:16.61Z</time></trkpt><trkpt lat="41.4942046" lon="-0.080695"><ele>291.5</ele><time>2026-05-04T10:04:17.607Z</time></trkpt><trkpt lat="41.4942343" lon="-0.0805062"><ele>291.0</ele><time>2026-05-04T10:04:18.609Z</time></trkpt><trkpt lat="41.4942558" lon="-0.0803197"><ele>291.0</ele><time>2026-05-04T10:04:19.608Z</time></trkpt><trkpt lat="41.4942776" lon="-0.0801189"><ele>291.0</ele><time>2026-05-04T10:04:20.602Z</time></trkpt><trkpt lat="41.4942991" lon="-0.0799191"><ele>291.0</ele><time>2026-05-04T10:04:21.598Z</time></trkpt><trkpt lat="41.4943139" lon="-0.0797471"><ele>291.0</ele><time>2026-05-04T10:04:22.608Z</time></trkpt><trkpt lat="41.4943334" lon="-0.0795487"><ele>290.75</ele><time>2026-05-04T10:04:23.595Z</time></trkpt><trkpt lat="41.494352" lon="-0.0793648"><ele>290.5</ele><time>2026-05-04T10:04:24.602Z</time></trkpt><trkpt lat="41.494378" lon="-0.0791614"><ele>290.25</ele><time>2026-05-04T10:04:25.609Z</time></trkpt><trkpt lat="41.4944035" lon="-0.0789627"><ele>290.0</ele><time>2026-05-04T10:04:26.608Z</time></trkpt><trkpt lat="41.49443" lon="-0.0787659"><ele>290.0</ele><time>2026-05-04T10:04:27.615Z</time></trkpt><trkpt lat="41.4944573" lon="-0.0785665"><ele>290.0</ele><time>2026-05-04T10:04:28.606Z</time></trkpt><trkpt lat="41.4944921" lon="-0.0783757"><ele>290.0</ele><time>2026-05-04T10:04:29.604Z</time></trkpt><trkpt lat="41.4945254" lon="-0.0781717"><ele>289.6666666666667</ele><time>2026-05-04T10:04:30.604Z</time></trkpt><trkpt lat="41.4945618" lon="-0.0779735"><ele>289.3333333333333</ele><time>2026-05-04T10:04:31.607Z</time></trkpt><trkpt lat="41.4946027" lon="-0.077783"><ele>289.0</ele><time>2026-05-04T10:04:32.625Z</time></trkpt><trkpt lat="41.4946429" lon="-0.0775891"><ele>289.3333333333333</ele><time>2026-05-04T10:04:33.606Z</time></trkpt><trkpt lat="41.4946788" lon="-0.0773919"><ele>289.6666666666667</ele><time>2026-05-04T10:04:34.605Z</time></trkpt><trkpt lat="41.4947171" lon="-0.077194"><ele>290.0</ele><time>2026-05-04T10:04:35.608Z</time></trkpt><trkpt lat="41.4947561" lon="-0.0770046"><ele>290.0</ele><time>2026-05-04T10:04:36.608Z</time></trkpt><trkpt lat="41.494793" lon="-0.0768244"><ele>290.0</ele><time>2026-05-04T10:04:37.608Z</time></trkpt><trkpt lat="41.4948311" lon="-0.0766292"><ele>290.0</ele><time>2026-05-04T10:04:38.608Z</time></trkpt><trkpt lat="41.4948668" lon="-0.0764442"><ele>290.0</ele><time>2026-05-04T10:04:39.607Z</time></trkpt><trkpt lat="41.4949072" lon="-0.0762499"><ele>290.0</ele><time>2026-05-04T10:04:40.61Z</time></trkpt><trkpt lat="41.4949484" lon="-0.076057"><ele>290.0</ele><time>2026-05-04T10:04:41.608Z</time></trkpt><trkpt lat="41.4949778" lon="-0.0758662"><ele>290.0</ele><time>2026-05-04T10:04:42.596Z</time></trkpt><trkpt lat="41.4950076" lon="-0.0756662"><ele>290.0</ele><time>2026-05-04T10:04:43.596Z</time></trkpt><trkpt lat="41.4950234" lon="-0.0754738"><ele>290.0</ele><time>2026-05-04T10:04:44.594Z</time></trkpt><trkpt lat="41.4950243" lon="-0.0752869"><ele>290.0</ele><time>2026-05-04T10:04:45.6Z</time></trkpt><trkpt lat="41.4950353" lon="-0.0750855"><ele>290.0</ele><time>2026-05-04T10:04:46.6Z</time></trkpt><trkpt lat="41.4950483" lon="-0.0748785"><ele>290.0</ele><time>2026-05-04T10:04:47.604Z</time></trkpt><trkpt lat="41.4950438" lon="-0.0746809"><ele>289.5</ele><time>2026-05-04T10:04:48.606Z</time></trkpt><trkpt lat="41.4950312" lon="-0.0744842"><ele>289.0</ele><time>2026-05-04T10:04:49.607Z</time></trkpt><trkpt lat="41.4950101" lon="-0.0742824"><ele>288.5</ele><time>2026-05-04T10:04:50.607Z</time></trkpt><trkpt lat="41.4949896" lon="-0.0740892"><ele>288.0</ele><time>2026-05-04T10:04:51.604Z</time></trkpt><trkpt lat="41.4949624" lon="-0.0739006"><ele>287.25</ele><time>2026-05-04T10:04:52.614Z</time></trkpt><trkpt lat="41.4949306" lon="-0.0737114"><ele>286.5</ele><time>2026-05-04T10:04:53.592Z</time></trkpt><trkpt lat="41.4948912" lon="-0.0735201"><ele>285.75</ele><time>2026-05-04T10:04:54.591Z</time></trkpt><trkpt lat="41.4948554" lon="-0.073333"><ele>285.0</ele><time>2026-05-04T10:04:55.59Z</time></trkpt><trkpt lat="41.4948094" lon="-0.0731596"><ele>284.5</ele><time>2026-05-04T10:04:56.605Z</time></trkpt><trkpt lat="41.4947608" lon="-0.0729959"><ele>284.0</ele><time>2026-05-04T10:04:57.614Z</time></trkpt><trkpt lat="41.4947118" lon="-0.0728297"><ele>283.5</ele><time>2026-05-04T10:04:58.607Z</time></trkpt><trkpt lat="41.494661" lon="-0.0726774"><ele>283.0</ele><time>2026-05-04T10:04:59.598Z</time></trkpt><trkpt lat="41.4946195" lon="-0.0725266"><ele>283.25</ele><time>2026-05-04T10:05:00.598Z</time></trkpt><trkpt lat="41.4945751" lon="-0.0723693"><ele>283.5</ele><time>2026-05-04T10:05:01.603Z</time></trkpt><trkpt lat="41.4945274" lon="-0.0722162"><ele>283.75</ele><time>2026-05-04T10:05:02.6Z</time></trkpt><trkpt lat="41.4944799" lon="-0.0720583"><ele>284.0</ele><time>2026-05-04T10:05:03.617Z</time></trkpt><trkpt lat="41.494432" lon="-0.0719009"><ele>284.0</ele><time>2026-05-04T10:05:04.61Z</time></trkpt><trkpt lat="41.4943874" lon="-0.0717481"><ele>284.0</ele><time>2026-05-04T10:05:05.597Z</time></trkpt><trkpt lat="41.4943445" lon="-0.0715967"><ele>284.0</ele><time>2026-05-04T10:05:06.605Z</time></trkpt><trkpt lat="41.4942998" lon="-0.0714425"><ele>284.0</ele><time>2026-05-04T10:05:07.589Z</time></trkpt><trkpt lat="41.4942581" lon="-0.0712844"><ele>284.5</ele><time>2026-05-04T10:05:08.59Z</time></trkpt><trkpt lat="41.4942176" lon="-0.0711217"><ele>285.0</ele><time>2026-05-04T10:05:09.581Z</time></trkpt><trkpt lat="41.4941825" lon="-0.0709596"><ele>285.5</ele><time>2026-05-04T10:05:10.591Z</time></trkpt><trkpt lat="41.4941511" lon="-0.0707853"><ele>286.0</ele><time>2026-05-04T10:05:11.588Z</time></trkpt><trkpt lat="41.4941278" lon="-0.0706126"><ele>286.25</ele><time>2026-05-04T10:05:12.586Z</time></trkpt><trkpt lat="41.4941128" lon="-0.0704511"><ele>286.5</ele><time>2026-05-04T10:05:13.582Z</time></trkpt><trkpt lat="41.4940961" lon="-0.0702968"><ele>286.75</ele><time>2026-05-04T10:05:14.585Z</time></trkpt><trkpt lat="41.4940819" lon="-0.0701299"><ele>287.0</ele><time>2026-05-04T10:05:15.588Z</time></trkpt><trkpt lat="41.4940739" lon="-0.069967"><ele>286.5</ele><time>2026-05-04T10:05:16.587Z</time></trkpt><trkpt lat="41.4940721" lon="-0.0697953"><ele>286.0</ele><time>2026-05-04T10:05:17.592Z</time></trkpt><trkpt lat="41.4940758" lon="-0.0696181"><ele>285.5</ele><time>2026-05-04T10:05:18.595Z</time></trkpt><trkpt lat="41.4940799" lon="-0.0694329"><ele>285.0</ele><time>2026-05-04T10:05:19.594Z</time></trkpt><trkpt lat="41.4940938" lon="-0.0692451"><ele>285.0</ele><time>2026-05-04T10:05:20.588Z</time></trkpt><trkpt lat="41.4941206" lon="-0.0690663"><ele>285.0</ele><time>2026-05-04T10:05:21.586Z</time></trkpt><trkpt lat="41.4941497" lon="-0.0688795"><ele>285.0</ele><time>2026-05-04T10:05:22.581Z</time></trkpt><trkpt lat="41.4941915" lon="-0.0687045"><ele>285.0</ele><time>2026-05-04T10:05:23.585Z</time></trkpt><trkpt lat="41.4942203" lon="-0.0685351"><ele>285.0</ele><time>2026-05-04T10:05:24.582Z</time></trkpt><trkpt lat="41.4942538" lon="-0.0683415"><ele>285.0</ele><time>2026-05-04T10:05:25.592Z</time></trkpt><trkpt lat="41.494288" lon="-0.0681631"><ele>285.0</ele><time>2026-05-04T10:05:26.592Z</time></trkpt><trkpt lat="41.4943175" lon="-0.0679847"><ele>285.0</ele><time>2026-05-04T10:05:27.603Z</time></trkpt><trkpt lat="41.4943573" lon="-0.0678129"><ele>284.0</ele><time>2026-05-04T10:05:28.594Z</time></trkpt><trkpt lat="41.494402" lon="-0.0676349"><ele>283.0</ele><time>2026-05-04T10:05:29.599Z</time></trkpt><trkpt lat="41.4944425" lon="-0.0674578"><ele>282.0</ele><time>2026-05-04T10:05:30.6Z</time></trkpt><trkpt lat="41.4944708" lon="-0.0672906"><ele>281.0</ele><time>2026-05-04T10:05:31.591Z</time></trkpt><trkpt lat="41.4944974" lon="-0.0671095"><ele>280.75</ele><time>2026-05-04T10:05:32.588Z</time></trkpt><trkpt lat="41.4945389" lon="-0.0669267"><ele>280.5</ele><time>2026-05-04T10:05:33.594Z</time></trkpt><trkpt lat="41.4945771" lon="-0.0667442"><ele>280.25</ele><time>2026-05-04T10:05:34.614Z</time></trkpt><trkpt lat="41.4946167" lon="-0.0665745"><ele>280.0</ele><time>2026-05-04T10:05:35.595Z</time></trkpt><trkpt lat="41.4946515" lon="-0.0664117"><ele>280.75</ele><time>2026-05-04T10:05:36.595Z</time></trkpt><trkpt lat="41.494685" lon="-0.0662471"><ele>281.5</ele><time>2026-05-04T10:05:37.595Z</time></trkpt><trkpt lat="41.4947221" lon="-0.0660809"><ele>282.25</ele><time>2026-05-04T10:05:38.595Z</time></trkpt><trkpt lat="41.4947529" lon="-0.0659184"><ele>283.0</ele><time>2026-05-04T10:05:39.594Z</time></trkpt><trkpt lat="41.4947893" lon="-0.0657506"><ele>283.0</ele><time>2026-05-04T10:05:40.594Z</time></trkpt><trkpt lat="41.4948244" lon="-0.0655854"><ele>283.0</ele><time>2026-05-04T10:05:41.594Z</time></trkpt><trkpt lat="41.4948601" lon="-0.0654183"><ele>283.0</ele><time>2026-05-04T10:05:42.595Z</time></trkpt><trkpt lat="41.4948946" lon="-0.0652506"><ele>283.0</ele><time>2026-05-04T10:05:43.594Z</time></trkpt><trkpt lat="41.4949293" lon="-0.0650774"><ele>282.25</ele><time>2026-05-04T10:05:44.596Z</time></trkpt><trkpt lat="41.4949668" lon="-0.0649041"><ele>281.5</ele><time>2026-05-04T10:05:45.594Z</time></trkpt><trkpt lat="41.4950059" lon="-0.064725"><ele>280.75</ele><time>2026-05-04T10:05:46.596Z</time></trkpt><trkpt lat="41.4950409" lon="-0.0645454"><ele>280.0</ele><time>2026-05-04T10:05:47.601Z</time></trkpt><trkpt lat="41.495076" lon="-0.0643595"><ele>280.0</ele><time>2026-05-04T10:05:48.591Z</time></trkpt><trkpt lat="41.4951161" lon="-0.0641757"><ele>280.0</ele><time>2026-05-04T10:05:49.598Z</time></trkpt><trkpt lat="41.4951576" lon="-0.0639977"><ele>280.0</ele><time>2026-05-04T10:05:50.6Z</time></trkpt><trkpt lat="41.495196" lon="-0.0638174"><ele>280.0</ele><time>2026-05-04T10:05:51.599Z</time></trkpt><trkpt lat="41.4952357" lon="-0.0636276"><ele>279.5</ele><time>2026-05-04T10:05:52.607Z</time></trkpt><trkpt lat="41.4952744" lon="-0.0634489"><ele>279.0</ele><time>2026-05-04T10:05:53.594Z</time></trkpt><trkpt lat="41.4953076" lon="-0.0632714"><ele>278.5</ele><time>2026-05-04T10:05:54.597Z</time></trkpt><trkpt lat="41.495346" lon="-0.0630895"><ele>278.0</ele><time>2026-05-04T10:05:55.594Z</time></trkpt><trkpt lat="41.4953889" lon="-0.0629063"><ele>277.75</ele><time>2026-05-04T10:05:56.591Z</time></trkpt><trkpt lat="41.4954225" lon="-0.0627299"><ele>277.5</ele><time>2026-05-04T10:05:57.6Z</time></trkpt><trkpt lat="41.4954564" lon="-0.062552"><ele>277.25</ele><time>2026-05-04T10:05:58.594Z</time></trkpt><trkpt lat="41.4954905" lon="-0.0623846"><ele>277.0</ele><time>2026-05-04T10:05:59.598Z</time></trkpt><trkpt lat="41.495532" lon="-0.0622083"><ele>277.0</ele><time>2026-05-04T10:06:00.593Z</time></trkpt><trkpt lat="41.4955714" lon="-0.0620336"><ele>277.0</ele><time>2026-05-04T10:06:01.598Z</time></trkpt><trkpt lat="41.4956135" lon="-0.0618496"><ele>277.0</ele><time>2026-05-04T10:06:02.595Z</time></trkpt><trkpt lat="41.4956513" lon="-0.0616707"><ele>277.0</ele><time>2026-05-04T10:06:03.596Z</time></trkpt><trkpt lat="41.4956865" lon="-0.0614969"><ele>277.75</ele><time>2026-05-04T10:06:04.591Z</time></trkpt><trkpt lat="41.4957176" lon="-0.0613241"><ele>278.5</ele><time>2026-05-04T10:06:05.63Z</time></trkpt><trkpt lat="41.4957551" lon="-0.0611473"><ele>279.25</ele><time>2026-05-04T10:06:06.599Z</time></trkpt><trkpt lat="41.4957928" lon="-0.0609741"><ele>280.0</ele><time>2026-05-04T10:06:07.597Z</time></trkpt><trkpt lat="41.4958313" lon="-0.0608085"><ele>279.75</ele><time>2026-05-04T10:06:08.594Z</time></trkpt><trkpt lat="41.4958645" lon="-0.0606333"><ele>279.5</ele><time>2026-05-04T10:06:09.597Z</time></trkpt><trkpt lat="41.4959" lon="-0.0604547"><ele>279.25</ele><time>2026-05-04T10:06:10.595Z</time></trkpt><trkpt lat="41.4959319" lon="-0.0602709"><ele>279.0</ele><time>2026-05-04T10:06:11.596Z</time></trkpt><trkpt lat="41.4959657" lon="-0.0600881"><ele>279.25</ele><time>2026-05-04T10:06:12.595Z</time></trkpt><trkpt lat="41.4960009" lon="-0.0598962"><ele>279.5</ele><time>2026-05-04T10:06:13.594Z</time></trkpt><trkpt lat="41.4960366" lon="-0.0597023"><ele>279.75</ele><time>2026-05-04T10:06:14.594Z</time></trkpt><trkpt lat="41.4960677" lon="-0.0595098"><ele>280.0</ele><time>2026-05-04T10:06:15.594Z</time></trkpt><trkpt lat="41.4960987" lon="-0.0593232"><ele>280.0</ele><time>2026-05-04T10:06:16.59Z</time></trkpt><trkpt lat="41.4961318" lon="-0.0591261"><ele>280.0</ele><time>2026-05-04T10:06:17.595Z</time></trkpt><trkpt lat="41.4961464" lon="-0.0589256"><ele>280.0</ele><time>2026-05-04T10:06:18.6Z</time></trkpt><trkpt lat="41.4961561" lon="-0.0587322"><ele>280.0</ele><time>2026-05-04T10:06:19.588Z</time></trkpt><trkpt lat="41.4961588" lon="-0.0585336"><ele>280.0</ele><time>2026-05-04T10:06:20.59Z</time></trkpt><trkpt lat="41.4961622" lon="-0.0583333"><ele>280.0</ele><time>2026-05-04T10:06:21.593Z</time></trkpt><trkpt lat="41.4961639" lon="-0.0581312"><ele>280.0</ele><time>2026-05-04T10:06:22.597Z</time></trkpt><trkpt lat="41.4961624" lon="-0.0579291"><ele>280.0</ele><time>2026-05-04T10:06:23.592Z</time></trkpt><trkpt lat="41.4961624" lon="-0.0577323"><ele>280.0</ele><time>2026-05-04T10:06:24.596Z</time></trkpt><trkpt lat="41.4961594" lon="-0.0575294"><ele>280.0</ele><time>2026-05-04T10:06:25.604Z</time></trkpt><trkpt lat="41.4961544" lon="-0.0573282"><ele>280.0</ele><time>2026-05-04T10:06:26.598Z</time></trkpt><trkpt lat="41.4961535" lon="-0.0571337"><ele>280.0</ele><time>2026-05-04T10:06:27.602Z</time></trkpt><trkpt lat="41.4961544" lon="-0.0569471"><ele>280.0</ele><time>2026-05-04T10:06:28.594Z</time></trkpt><trkpt lat="41.496157" lon="-0.0567538"><ele>280.0</ele><time>2026-05-04T10:06:29.599Z</time></trkpt><trkpt lat="41.4961595" lon="-0.0565621"><ele>279.25</ele><time>2026-05-04T10:06:30.594Z</time></trkpt><trkpt lat="41.4961514" lon="-0.0563789"><ele>278.5</ele><time>2026-05-04T10:06:31.599Z</time></trkpt><trkpt lat="41.4961529" lon="-0.0561832"><ele>277.75</ele><time>2026-05-04T10:06:32.591Z</time></trkpt><trkpt lat="41.4961543" lon="-0.0559818"><ele>277.0</ele><time>2026-05-04T10:06:33.597Z</time></trkpt><trkpt lat="41.4961461" lon="-0.05579"><ele>276.5</ele><time>2026-05-04T10:06:34.583Z</time></trkpt><trkpt lat="41.4961425" lon="-0.0556037"><ele>276.0</ele><time>2026-05-04T10:06:35.606Z</time></trkpt><trkpt lat="41.4961486" lon="-0.0554198"><ele>275.5</ele><time>2026-05-04T10:06:36.585Z</time></trkpt><trkpt lat="41.4961462" lon="-0.0552241"><ele>275.0</ele><time>2026-05-04T10:06:37.591Z</time></trkpt><trkpt lat="41.4961532" lon="-0.0550207"><ele>274.5</ele><time>2026-05-04T10:06:38.59Z</time></trkpt><trkpt lat="41.4961514" lon="-0.0548339"><ele>274.0</ele><time>2026-05-04T10:06:39.594Z</time></trkpt><trkpt lat="41.4961597" lon="-0.0546427"><ele>273.5</ele><time>2026-05-04T10:06:40.593Z</time></trkpt><trkpt lat="41.496175" lon="-0.0544567"><ele>273.0</ele><time>2026-05-04T10:06:41.597Z</time></trkpt><trkpt lat="41.4961987" lon="-0.0542713"><ele>272.25</ele><time>2026-05-04T10:06:42.596Z</time></trkpt><trkpt lat="41.4962201" lon="-0.0541017"><ele>271.5</ele><time>2026-05-04T10:06:43.595Z</time></trkpt><trkpt lat="41.4962525" lon="-0.0539219"><ele>270.75</ele><time>2026-05-04T10:06:44.597Z</time></trkpt><trkpt lat="41.496292" lon="-0.053744"><ele>270.0</ele><time>2026-05-04T10:06:45.595Z</time></trkpt><trkpt lat="41.4963301" lon="-0.0535624"><ele>270.0</ele><time>2026-05-04T10:06:46.596Z</time></trkpt><trkpt lat="41.4963812" lon="-0.0533803"><ele>270.0</ele><time>2026-05-04T10:06:47.596Z</time></trkpt><trkpt lat="41.4964372" lon="-0.0531975"><ele>270.0</ele><time>2026-05-04T10:06:48.589Z</time></trkpt><trkpt lat="41.4964939" lon="-0.0530255"><ele>270.0</ele><time>2026-05-04T10:06:49.597Z</time></trkpt><trkpt lat="41.4965524" lon="-0.0528419"><ele>270.0</ele><time>2026-05-04T10:06:50.598Z</time></trkpt><trkpt lat="41.496623" lon="-0.0526653"><ele>270.0</ele><time>2026-05-04T10:06:51.606Z</time></trkpt><trkpt lat="41.4966993" lon="-0.0524886"><ele>270.0</ele><time>2026-05-04T10:06:52.601Z</time></trkpt><trkpt lat="41.4967862" lon="-0.0523241"><ele>270.0</ele><time>2026-05-04T10:06:53.599Z</time></trkpt><trkpt lat="41.4968658" lon="-0.0521605"><ele>270.0</ele><time>2026-05-04T10:06:54.599Z</time></trkpt><trkpt lat="41.4969527" lon="-0.0519979"><ele>270.0</ele><time>2026-05-04T10:06:55.604Z</time></trkpt><trkpt lat="41.4970359" lon="-0.0518431"><ele>270.0</ele><time>2026-05-04T10:06:56.601Z</time></trkpt><trkpt lat="41.4971177" lon="-0.0516897"><ele>270.0</ele><time>2026-05-04T10:06:57.605Z</time></trkpt><trkpt lat="41.4971923" lon="-0.051529"><ele>270.0</ele><time>2026-05-04T10:06:58.602Z</time></trkpt><trkpt lat="41.4972847" lon="-0.0513676"><ele>270.0</ele><time>2026-05-04T10:06:59.591Z</time></trkpt><trkpt lat="41.4973563" lon="-0.0512146"><ele>270.0</ele><time>2026-05-04T10:07:00.6Z</time></trkpt><trkpt lat="41.4974391" lon="-0.0510528"><ele>270.0</ele><time>2026-05-04T10:07:01.601Z</time></trkpt><trkpt lat="41.4975262" lon="-0.0508918"><ele>270.0</ele><time>2026-05-04T10:07:02.599Z</time></trkpt><trkpt lat="41.4976085" lon="-0.0507359"><ele>270.0</ele><time>2026-05-04T10:07:03.601Z</time></trkpt><trkpt lat="41.4976847" lon="-0.0505784"><ele>270.0</ele><time>2026-05-04T10:07:04.599Z</time></trkpt><trkpt lat="41.4977711" lon="-0.0504136"><ele>269.5</ele><time>2026-05-04T10:07:05.597Z</time></trkpt><trkpt lat="41.4978511" lon="-0.050244"><ele>269.0</ele><time>2026-05-04T10:07:06.61Z</time></trkpt><trkpt lat="41.4979336" lon="-0.0500861"><ele>268.5</ele><time>2026-05-04T10:07:07.597Z</time></trkpt><trkpt lat="41.4980136" lon="-0.0499279"><ele>268.0</ele><time>2026-05-04T10:07:08.594Z</time></trkpt><trkpt lat="41.4980994" lon="-0.0497627"><ele>268.0</ele><time>2026-05-04T10:07:09.587Z</time></trkpt><trkpt lat="41.4981814" lon="-0.0495939"><ele>268.0</ele><time>2026-05-04T10:07:10.585Z</time></trkpt><trkpt lat="41.4982626" lon="-0.0494313"><ele>268.0</ele><time>2026-05-04T10:07:11.596Z</time></trkpt><trkpt lat="41.4983411" lon="-0.049268"><ele>268.0</ele><time>2026-05-04T10:07:12.583Z</time></trkpt><trkpt lat="41.4984179" lon="-0.0490976"><ele>267.25</ele><time>2026-05-04T10:07:13.599Z</time></trkpt><trkpt lat="41.4984834" lon="-0.0489213"><ele>266.5</ele><time>2026-05-04T10:07:14.59Z</time></trkpt><trkpt lat="41.4985354" lon="-0.0487435"><ele>265.75</ele><time>2026-05-04T10:07:15.593Z</time></trkpt><trkpt lat="41.4985941" lon="-0.0485642"><ele>265.0</ele><time>2026-05-04T10:07:16.594Z</time></trkpt><trkpt lat="41.4986471" lon="-0.048389"><ele>264.5</ele><time>2026-05-04T10:07:17.59Z</time></trkpt><trkpt lat="41.4986956" lon="-0.0482103"><ele>264.0</ele><time>2026-05-04T10:07:18.598Z</time></trkpt><trkpt lat="41.4987462" lon="-0.0480346"><ele>263.5</ele><time>2026-05-04T10:07:19.591Z</time></trkpt><trkpt lat="41.4987943" lon="-0.0478624"><ele>263.0</ele><time>2026-05-04T10:07:20.594Z</time></trkpt><trkpt lat="41.4988402" lon="-0.0476914"><ele>263.75</ele><time>2026-05-04T10:07:21.593Z</time></trkpt><trkpt lat="41.4988863" lon="-0.0475198"><ele>264.5</ele><time>2026-05-04T10:07:22.595Z</time></trkpt><trkpt lat="41.4989297" lon="-0.0473454"><ele>265.25</ele><time>2026-05-04T10:07:23.589Z</time></trkpt><trkpt lat="41.4989618" lon="-0.0471715"><ele>266.0</ele><time>2026-05-04T10:07:24.587Z</time></trkpt><trkpt lat="41.4990182" lon="-0.0470051"><ele>266.0</ele><time>2026-05-04T10:07:25.602Z</time></trkpt><trkpt lat="41.4990645" lon="-0.0468492"><ele>266.0</ele><time>2026-05-04T10:07:26.591Z</time></trkpt><trkpt lat="41.499107" lon="-0.0466946"><ele>266.0</ele><time>2026-05-04T10:07:27.598Z</time></trkpt><trkpt lat="41.4991475" lon="-0.0465425"><ele>266.0</ele><time>2026-05-04T10:07:28.589Z</time></trkpt><trkpt lat="41.4991979" lon="-0.0463806"><ele>265.25</ele><time>2026-05-04T10:07:29.591Z</time></trkpt><trkpt lat="41.4992451" lon="-0.0462139"><ele>264.5</ele><time>2026-05-04T10:07:30.587Z</time></trkpt><trkpt lat="41.499288" lon="-0.0460474"><ele>263.75</ele><time>2026-05-04T10:07:31.584Z</time></trkpt><trkpt lat="41.4993327" lon="-0.0458827"><ele>263.0</ele><time>2026-05-04T10:07:32.584Z</time></trkpt><trkpt lat="41.4993775" lon="-0.0457146"><ele>263.0</ele><time>2026-05-04T10:07:33.593Z</time></trkpt><trkpt lat="41.4994198" lon="-0.0455387"><ele>263.0</ele><time>2026-05-04T10:07:34.593Z</time></trkpt><trkpt lat="41.4994585" lon="-0.0453591"><ele>263.0</ele><time>2026-05-04T10:07:35.593Z</time></trkpt><trkpt lat="41.4994891" lon="-0.0451743"><ele>263.0</ele><time>2026-05-04T10:07:36.596Z</time></trkpt><trkpt lat="41.4995137" lon="-0.0449939"><ele>262.75</ele><time>2026-05-04T10:07:37.614Z</time></trkpt><trkpt lat="41.4995357" lon="-0.0448074"><ele>262.5</ele><time>2026-05-04T10:07:38.595Z</time></trkpt><trkpt lat="41.4995473" lon="-0.0446066"><ele>262.25</ele><time>2026-05-04T10:07:39.592Z</time></trkpt><trkpt lat="41.4995534" lon="-0.0444041"><ele>262.0</ele><time>2026-05-04T10:07:40.593Z</time></trkpt><trkpt lat="41.4995313" lon="-0.0440113"><ele>262.0</ele><time>2026-05-04T10:07:42.59Z</time></trkpt><trkpt lat="41.4995127" lon="-0.0438211"><ele>262.0</ele><time>2026-05-04T10:07:43.593Z</time></trkpt><trkpt lat="41.4994901" lon="-0.0436275"><ele>262.0</ele><time>2026-05-04T10:07:44.595Z</time></trkpt><trkpt lat="41.4994667" lon="-0.043438"><ele>262.0</ele><time>2026-05-04T10:07:45.595Z</time></trkpt><trkpt lat="41.4994436" lon="-0.0432438"><ele>262.25</ele><time>2026-05-04T10:07:46.591Z</time></trkpt><trkpt lat="41.4994213" lon="-0.0430567"><ele>262.5</ele><time>2026-05-04T10:07:47.596Z</time></trkpt><trkpt lat="41.4993976" lon="-0.0428775"><ele>262.75</ele><time>2026-05-04T10:07:48.593Z</time></trkpt><trkpt lat="41.4993769" lon="-0.042683"><ele>263.0</ele><time>2026-05-04T10:07:49.593Z</time></trkpt><trkpt lat="41.4993506" lon="-0.0424935"><ele>261.75</ele><time>2026-05-04T10:07:50.6Z</time></trkpt><trkpt lat="41.4993262" lon="-0.0423047"><ele>260.5</ele><time>2026-05-04T10:07:51.601Z</time></trkpt><trkpt lat="41.499302" lon="-0.0421079"><ele>259.25</ele><time>2026-05-04T10:07:52.604Z</time></trkpt><trkpt lat="41.4992754" lon="-0.0419062"><ele>258.0</ele><time>2026-05-04T10:07:53.6Z</time></trkpt><trkpt lat="41.499257" lon="-0.0417013"><ele>257.5</ele><time>2026-05-04T10:07:54.6Z</time></trkpt><trkpt lat="41.4992317" lon="-0.0415152"><ele>257.0</ele><time>2026-05-04T10:07:55.608Z</time></trkpt><trkpt lat="41.4992008" lon="-0.0413177"><ele>256.5</ele><time>2026-05-04T10:07:56.6Z</time></trkpt><trkpt lat="41.4991761" lon="-0.0411324"><ele>256.0</ele><time>2026-05-04T10:07:57.613Z</time></trkpt><trkpt lat="41.4991467" lon="-0.0409334"><ele>255.75</ele><time>2026-05-04T10:07:58.6Z</time></trkpt><trkpt lat="41.4991248" lon="-0.0407342"><ele>255.5</ele><time>2026-05-04T10:07:59.604Z</time></trkpt><trkpt lat="41.4991014" lon="-0.0405334"><ele>255.25</ele><time>2026-05-04T10:08:00.6Z</time></trkpt><trkpt lat="41.4990763" lon="-0.0403428"><ele>255.0</ele><time>2026-05-04T10:08:01.599Z</time></trkpt><trkpt lat="41.4990522" lon="-0.04015"><ele>253.75</ele><time>2026-05-04T10:08:02.596Z</time></trkpt><trkpt lat="41.4990281" lon="-0.0399514"><ele>252.5</ele><time>2026-05-04T10:08:03.597Z</time></trkpt><trkpt lat="41.4989983" lon="-0.0397655"><ele>251.25</ele><time>2026-05-04T10:08:04.582Z</time></trkpt><trkpt lat="41.4989852" lon="-0.0395649"><ele>250.0</ele><time>2026-05-04T10:08:05.587Z</time></trkpt><trkpt lat="41.4989609" lon="-0.0393621"><ele>250.0</ele><time>2026-05-04T10:08:06.593Z</time></trkpt><trkpt lat="41.4989341" lon="-0.0391683"><ele>250.0</ele><time>2026-05-04T10:08:07.595Z</time></trkpt><trkpt lat="41.4989095" lon="-0.0389705"><ele>250.0</ele><time>2026-05-04T10:08:08.61Z</time></trkpt><trkpt lat="41.4988866" lon="-0.0387768"><ele>250.0</ele><time>2026-05-04T10:08:09.596Z</time></trkpt><trkpt lat="41.4988688" lon="-0.0385884"><ele>250.25</ele><time>2026-05-04T10:08:10.601Z</time></trkpt><trkpt lat="41.4988566" lon="-0.0384022"><ele>250.5</ele><time>2026-05-04T10:08:11.596Z</time></trkpt><trkpt lat="41.4988424" lon="-0.0382025"><ele>250.75</ele><time>2026-05-04T10:08:12.595Z</time></trkpt><trkpt lat="41.4988486" lon="-0.0380091"><ele>251.0</ele><time>2026-05-04T10:08:13.594Z</time></trkpt><trkpt lat="41.498855" lon="-0.0378184"><ele>250.5</ele><time>2026-05-04T10:08:14.593Z</time></trkpt><trkpt lat="41.4988699" lon="-0.0376267"><ele>250.0</ele><time>2026-05-04T10:08:15.592Z</time></trkpt><trkpt lat="41.4988915" lon="-0.0374269"><ele>249.5</ele><time>2026-05-04T10:08:16.595Z</time></trkpt><trkpt lat="41.4989246" lon="-0.0372369"><ele>249.0</ele><time>2026-05-04T10:08:17.598Z</time></trkpt><trkpt lat="41.4989666" lon="-0.037048"><ele>248.5</ele><time>2026-05-04T10:08:18.597Z</time></trkpt><trkpt lat="41.499002" lon="-0.0368665"><ele>248.0</ele><time>2026-05-04T10:08:19.597Z</time></trkpt><trkpt lat="41.499038" lon="-0.0366878"><ele>247.5</ele><time>2026-05-04T10:08:20.595Z</time></trkpt><trkpt lat="41.4990746" lon="-0.0365019"><ele>247.0</ele><time>2026-05-04T10:08:21.6Z</time></trkpt><trkpt lat="41.4991098" lon="-0.0363255"><ele>247.0</ele><time>2026-05-04T10:08:22.595Z</time></trkpt><trkpt lat="41.4991496" lon="-0.036144"><ele>247.0</ele><time>2026-05-04T10:08:23.608Z</time></trkpt><trkpt lat="41.4991848" lon="-0.0359534"><ele>247.0</ele><time>2026-05-04T10:08:24.59Z</time></trkpt><trkpt lat="41.4992151" lon="-0.0357876"><ele>247.0</ele><time>2026-05-04T10:08:25.603Z</time></trkpt><trkpt lat="41.4992506" lon="-0.0356209"><ele>247.25</ele><time>2026-05-04T10:08:26.599Z</time></trkpt><trkpt lat="41.4992871" lon="-0.0354405"><ele>247.5</ele><time>2026-05-04T10:08:27.603Z</time></trkpt><trkpt lat="41.4993199" lon="-0.035265"><ele>247.75</ele><time>2026-05-04T10:08:28.599Z</time></trkpt><trkpt lat="41.4993608" lon="-0.0350896"><ele>248.0</ele><time>2026-05-04T10:08:29.601Z</time></trkpt><trkpt lat="41.4994003" lon="-0.0349125"><ele>248.5</ele><time>2026-05-04T10:08:30.593Z</time></trkpt><trkpt lat="41.4994376" lon="-0.0347329"><ele>249.0</ele><time>2026-05-04T10:08:31.598Z</time></trkpt><trkpt lat="41.4994817" lon="-0.034557"><ele>249.5</ele><time>2026-05-04T10:08:32.597Z</time></trkpt><trkpt lat="41.4995202" lon="-0.0343774"><ele>250.0</ele><time>2026-05-04T10:08:33.59Z</time></trkpt><trkpt lat="41.4995695" lon="-0.0342002"><ele>251.0</ele><time>2026-05-04T10:08:34.588Z</time></trkpt><trkpt lat="41.4996127" lon="-0.0340229"><ele>252.0</ele><time>2026-05-04T10:08:35.596Z</time></trkpt><trkpt lat="41.49965" lon="-0.0338316"><ele>253.0</ele><time>2026-05-04T10:08:36.596Z</time></trkpt><trkpt lat="41.4996891" lon="-0.0336467"><ele>254.0</ele><time>2026-05-04T10:08:37.595Z</time></trkpt><trkpt lat="41.4997267" lon="-0.0334681"><ele>254.0</ele><time>2026-05-04T10:08:38.598Z</time></trkpt><trkpt lat="41.4997645" lon="-0.0332869"><ele>254.0</ele><time>2026-05-04T10:08:39.614Z</time></trkpt><trkpt lat="41.4998034" lon="-0.0331013"><ele>254.0</ele><time>2026-05-04T10:08:40.597Z</time></trkpt><trkpt lat="41.4998425" lon="-0.0329112"><ele>254.0</ele><time>2026-05-04T10:08:41.601Z</time></trkpt><trkpt lat="41.4998843" lon="-0.0327234"><ele>254.0</ele><time>2026-05-04T10:08:42.594Z</time></trkpt><trkpt lat="41.4999189" lon="-0.0325351"><ele>254.0</ele><time>2026-05-04T10:08:43.596Z</time></trkpt><trkpt lat="41.4999649" lon="-0.0323388"><ele>254.0</ele><time>2026-05-04T10:08:44.596Z</time></trkpt><trkpt lat="41.5000079" lon="-0.0321511"><ele>254.0</ele><time>2026-05-04T10:08:45.598Z</time></trkpt><trkpt lat="41.5000529" lon="-0.0319466"><ele>254.75</ele><time>2026-05-04T10:08:46.588Z</time></trkpt><trkpt lat="41.5000901" lon="-0.0317529"><ele>255.5</ele><time>2026-05-04T10:08:47.592Z</time></trkpt><trkpt lat="41.5001303" lon="-0.0315644"><ele>256.25</ele><time>2026-05-04T10:08:48.593Z</time></trkpt><trkpt lat="41.5001663" lon="-0.0313764"><ele>257.0</ele><time>2026-05-04T10:08:49.592Z</time></trkpt><trkpt lat="41.5002043" lon="-0.0311951"><ele>258.0</ele><time>2026-05-04T10:08:50.593Z</time></trkpt><trkpt lat="41.5002431" lon="-0.0310157"><ele>259.0</ele><time>2026-05-04T10:08:51.595Z</time></trkpt><trkpt lat="41.5002734" lon="-0.0308576"><ele>260.0</ele><time>2026-05-04T10:08:52.596Z</time></trkpt><trkpt lat="41.5003024" lon="-0.0306974"><ele>261.0</ele><time>2026-05-04T10:08:53.598Z</time></trkpt><trkpt lat="41.5003236" lon="-0.0305384"><ele>261.0</ele><time>2026-05-04T10:08:54.594Z</time></trkpt><trkpt lat="41.5003491" lon="-0.0304058"><ele>261.0</ele><time>2026-05-04T10:08:55.593Z</time></trkpt><trkpt lat="41.5003713" lon="-0.0302939"><ele>261.0</ele><time>2026-05-04T10:08:56.599Z</time></trkpt><trkpt lat="41.5003937" lon="-0.0302135"><ele>261.0</ele><time>2026-05-04T10:08:57.597Z</time></trkpt><trkpt lat="41.5004206" lon="-0.0301033"><ele>261.0</ele><time>2026-05-04T10:08:59.593Z</time></trkpt><trkpt lat="41.5004682" lon="-0.0300319"><ele>261.0</ele><time>2026-05-04T10:09:05.597Z</time></trkpt><trkpt lat="41.5005029" lon="-0.029917"><ele>261.6</ele><time>2026-05-04T10:09:07.595Z</time></trkpt><trkpt lat="41.500538" lon="-0.0297761"><ele>262.20000000000005</ele><time>2026-05-04T10:09:09.59Z</time></trkpt><trkpt lat="41.5005758" lon="-0.0296298"><ele>262.79999999999995</ele><time>2026-05-04T10:09:11.589Z</time></trkpt><trkpt lat="41.5006115" lon="-0.0295018"><ele>263.4</ele><time>2026-05-04T10:09:13.593Z</time></trkpt><trkpt lat="41.500636" lon="-0.0293666"><ele>264.0</ele><time>2026-05-04T10:09:15.598Z</time></trkpt><trkpt lat="41.5006411" lon="-0.029248"><ele>264.0</ele><time>2026-05-04T10:09:17.596Z</time></trkpt><trkpt lat="41.5006381" lon="-0.0291476"><ele>264.0</ele><time>2026-05-04T10:09:19.597Z</time></trkpt><trkpt lat="41.5006273" lon="-0.0290593"><ele>264.0</ele><time>2026-05-04T10:09:21.59Z</time></trkpt><trkpt lat="41.5005706" lon="-0.028962"><ele>264.0</ele><time>2026-05-04T10:09:24.588Z</time></trkpt><trkpt lat="41.5005332" lon="-0.0288538"><ele>264.0</ele><time>2026-05-04T10:09:27.588Z</time></trkpt><trkpt lat="41.5005272" lon="-0.0287557"><ele>264.0</ele><time>2026-05-04T10:09:30.595Z</time></trkpt><trkpt lat="41.5005495" lon="-0.0286725"><ele>263.85714285714283</ele><time>2026-05-04T10:09:33.59Z</time></trkpt><trkpt lat="41.5005593" lon="-0.028585"><ele>263.7142857142857</ele><time>2026-05-04T10:09:50.595Z</time></trkpt><trkpt lat="41.5005753" lon="-0.0284711"><ele>263.57142857142856</ele><time>2026-05-04T10:09:52.596Z</time></trkpt><trkpt lat="41.500582" lon="-0.0283843"><ele>263.42857142857144</ele><time>2026-05-04T10:09:53.596Z</time></trkpt><trkpt lat="41.5005822" lon="-0.0282987"><ele>263.2857142857143</ele><time>2026-05-04T10:09:54.594Z</time></trkpt><trkpt lat="41.5005829" lon="-0.0282023"><ele>263.1428571428571</ele><time>2026-05-04T10:09:55.601Z</time></trkpt><trkpt lat="41.5005798" lon="-0.0280928"><ele>263.0</ele><time>2026-05-04T10:09:56.595Z</time></trkpt><trkpt lat="41.5005753" lon="-0.0279844"><ele>263.5</ele><time>2026-05-04T10:09:57.603Z</time></trkpt><trkpt lat="41.5005765" lon="-0.0278821"><ele>264.0</ele><time>2026-05-04T10:09:58.599Z</time></trkpt><trkpt lat="41.5005837" lon="-0.0277849"><ele>264.5</ele><time>2026-05-04T10:09:59.596Z</time></trkpt><trkpt lat="41.5005976" lon="-0.0276954"><ele>265.0</ele><time>2026-05-04T10:10:00.608Z</time></trkpt><trkpt lat="41.5006072" lon="-0.0276084"><ele>265.5</ele><time>2026-05-04T10:10:01.594Z</time></trkpt><trkpt lat="41.5006141" lon="-0.0274616"><ele>266.0</ele><time>2026-05-04T10:10:03.592Z</time></trkpt><trkpt lat="41.500588" lon="-0.0273351"><ele>265.6666666666667</ele><time>2026-05-04T10:10:05.592Z</time></trkpt><trkpt lat="41.500561" lon="-0.0272201"><ele>265.33333333333337</ele><time>2026-05-04T10:10:07.596Z</time></trkpt><trkpt lat="41.5006311" lon="-0.0271995"><ele>265.0</ele><time>2026-05-04T10:10:44.581Z</time></trkpt><trkpt lat="41.5005331" lon="-0.0271684"><ele>264.6666666666667</ele><time>2026-05-04T10:19:51.569Z</time></trkpt><trkpt lat="41.5004588" lon="-0.0270911"><ele>264.3333333333333</ele><time>2026-05-04T10:19:53.572Z</time></trkpt><trkpt lat="41.5004031" lon="-0.0270029"><ele>264.0</ele><time>2026-05-04T10:19:55.577Z</time></trkpt><trkpt lat="41.5003612" lon="-0.0268593"><ele>264.0</ele><time>2026-05-04T10:19:57.574Z</time></trkpt><trkpt lat="41.5003467" lon="-0.0267587"><ele>264.0</ele><time>2026-05-04T10:19:58.582Z</time></trkpt><trkpt lat="41.5003425" lon="-0.0266454"><ele>264.0</ele><time>2026-05-04T10:19:59.609Z</time></trkpt><trkpt lat="41.5003421" lon="-0.0265139"><ele>264.0</ele><time>2026-05-04T10:20:00.574Z</time></trkpt><trkpt lat="41.500344" lon="-0.026367"><ele>264.0</ele><time>2026-05-04T10:20:01.573Z</time></trkpt><trkpt lat="41.5003435" lon="-0.0262256"><ele>264.25</ele><time>2026-05-04T10:20:02.573Z</time></trkpt><trkpt lat="41.5003452" lon="-0.0260887"><ele>264.5</ele><time>2026-05-04T10:20:03.574Z</time></trkpt><trkpt lat="41.5003482" lon="-0.025927"><ele>264.75</ele><time>2026-05-04T10:20:04.566Z</time></trkpt><trkpt lat="41.5003558" lon="-0.0257654"><ele>265.0</ele><time>2026-05-04T10:20:05.566Z</time></trkpt><trkpt lat="41.5003678" lon="-0.0256132"><ele>265.0</ele><time>2026-05-04T10:20:06.566Z</time></trkpt><trkpt lat="41.5003813" lon="-0.0254517"><ele>265.0</ele><time>2026-05-04T10:20:07.57Z</time></trkpt><trkpt lat="41.5004003" lon="-0.0252892"><ele>265.0</ele><time>2026-05-04T10:20:08.569Z</time></trkpt><trkpt lat="41.5004252" lon="-0.0251183"><ele>265.0</ele><time>2026-05-04T10:20:09.571Z</time></trkpt><trkpt lat="41.5004566" lon="-0.0249365"><ele>265.5</ele><time>2026-05-04T10:20:10.573Z</time></trkpt><trkpt lat="41.5004907" lon="-0.0247541"><ele>266.0</ele><time>2026-05-04T10:20:11.574Z</time></trkpt><trkpt lat="41.500528" lon="-0.0245675"><ele>266.5</ele><time>2026-05-04T10:20:12.573Z</time></trkpt><trkpt lat="41.5005635" lon="-0.0243915"><ele>267.0</ele><time>2026-05-04T10:20:13.574Z</time></trkpt><trkpt lat="41.5005927" lon="-0.0242041"><ele>268.0</ele><time>2026-05-04T10:20:14.575Z</time></trkpt><trkpt lat="41.5006225" lon="-0.0240096"><ele>269.0</ele><time>2026-05-04T10:20:15.574Z</time></trkpt><trkpt lat="41.5006548" lon="-0.0238244"><ele>270.0</ele><time>2026-05-04T10:20:16.577Z</time></trkpt><trkpt lat="41.5006919" lon="-0.0236383"><ele>271.0</ele><time>2026-05-04T10:20:17.578Z</time></trkpt><trkpt lat="41.5007326" lon="-0.023455"><ele>273.0</ele><time>2026-05-04T10:20:18.57Z</time></trkpt><trkpt lat="41.5007712" lon="-0.0232645"><ele>275.0</ele><time>2026-05-04T10:20:19.564Z</time></trkpt><trkpt lat="41.500793" lon="-0.0230698"><ele>277.0</ele><time>2026-05-04T10:20:20.571Z</time></trkpt><trkpt lat="41.5008304" lon="-0.0228693"><ele>277.0</ele><time>2026-05-04T10:20:21.568Z</time></trkpt><trkpt lat="41.5008644" lon="-0.0226747"><ele>277.0</ele><time>2026-05-04T10:20:22.571Z</time></trkpt><trkpt lat="41.5008997" lon="-0.0224752"><ele>277.0</ele><time>2026-05-04T10:20:23.565Z</time></trkpt><trkpt lat="41.5009358" lon="-0.0222809"><ele>277.75</ele><time>2026-05-04T10:20:24.563Z</time></trkpt><trkpt lat="41.5009674" lon="-0.0220874"><ele>278.5</ele><time>2026-05-04T10:20:25.565Z</time></trkpt><trkpt lat="41.5009985" lon="-0.021896"><ele>279.25</ele><time>2026-05-04T10:20:26.567Z</time></trkpt><trkpt lat="41.5010287" lon="-0.0217025"><ele>280.0</ele><time>2026-05-04T10:20:27.574Z</time></trkpt><trkpt lat="41.5010702" lon="-0.0215217"><ele>281.0</ele><time>2026-05-04T10:20:28.571Z</time></trkpt><trkpt lat="41.5010956" lon="-0.0213441"><ele>282.0</ele><time>2026-05-04T10:20:29.595Z</time></trkpt><trkpt lat="41.5011276" lon="-0.0211684"><ele>283.0</ele><time>2026-05-04T10:20:30.576Z</time></trkpt><trkpt lat="41.5011649" lon="-0.0209987"><ele>284.0</ele><time>2026-05-04T10:20:31.585Z</time></trkpt><trkpt lat="41.5011971" lon="-0.0208404"><ele>285.0</ele><time>2026-05-04T10:20:32.573Z</time></trkpt><trkpt lat="41.5012261" lon="-0.0206694"><ele>286.0</ele><time>2026-05-04T10:20:33.575Z</time></trkpt><trkpt lat="41.5012566" lon="-0.0205078"><ele>287.0</ele><time>2026-05-04T10:20:34.585Z</time></trkpt><trkpt lat="41.5012865" lon="-0.0203542"><ele>288.0</ele><time>2026-05-04T10:20:35.569Z</time></trkpt><trkpt lat="41.5013111" lon="-0.0201956"><ele>287.5</ele><time>2026-05-04T10:20:36.581Z</time></trkpt><trkpt lat="41.5013355" lon="-0.0200391"><ele>287.0</ele><time>2026-05-04T10:20:37.576Z</time></trkpt><trkpt lat="41.5013637" lon="-0.0198884"><ele>286.5</ele><time>2026-05-04T10:20:38.577Z</time></trkpt><trkpt lat="41.501394" lon="-0.0197407"><ele>286.0</ele><time>2026-05-04T10:20:39.575Z</time></trkpt><trkpt lat="41.5014264" lon="-0.0195887"><ele>286.0</ele><time>2026-05-04T10:20:40.58Z</time></trkpt><trkpt lat="41.5014554" lon="-0.0194398"><ele>286.0</ele><time>2026-05-04T10:20:41.572Z</time></trkpt><trkpt lat="41.5014895" lon="-0.0192871"><ele>286.0</ele><time>2026-05-04T10:20:42.579Z</time></trkpt><trkpt lat="41.5015267" lon="-0.0191363"><ele>286.0</ele><time>2026-05-04T10:20:43.579Z</time></trkpt><trkpt lat="41.5015651" lon="-0.0189889"><ele>287.25</ele><time>2026-05-04T10:20:44.577Z</time></trkpt><trkpt lat="41.5016048" lon="-0.0188399"><ele>288.5</ele><time>2026-05-04T10:20:45.582Z</time></trkpt><trkpt lat="41.5016511" lon="-0.0186928"><ele>289.75</ele><time>2026-05-04T10:20:46.578Z</time></trkpt><trkpt lat="41.5017025" lon="-0.0185501"><ele>291.0</ele><time>2026-05-04T10:20:47.588Z</time></trkpt><trkpt lat="41.5017633" lon="-0.0184052"><ele>292.0</ele><time>2026-05-04T10:20:48.581Z</time></trkpt><trkpt lat="41.5018221" lon="-0.0182638"><ele>293.0</ele><time>2026-05-04T10:20:49.585Z</time></trkpt><trkpt lat="41.5018864" lon="-0.0181198"><ele>294.0</ele><time>2026-05-04T10:20:50.582Z</time></trkpt><trkpt lat="41.5019523" lon="-0.017975"><ele>295.0</ele><time>2026-05-04T10:20:51.58Z</time></trkpt><trkpt lat="41.5020165" lon="-0.0178249"><ele>295.0</ele><time>2026-05-04T10:20:52.583Z</time></trkpt><trkpt lat="41.502083" lon="-0.0176775"><ele>295.0</ele><time>2026-05-04T10:20:53.584Z</time></trkpt><trkpt lat="41.5021503" lon="-0.0175346"><ele>295.0</ele><time>2026-05-04T10:20:54.586Z</time></trkpt><trkpt lat="41.5022184" lon="-0.0173927"><ele>295.0</ele><time>2026-05-04T10:20:55.591Z</time></trkpt><trkpt lat="41.5022849" lon="-0.0172496"><ele>295.25</ele><time>2026-05-04T10:20:56.58Z</time></trkpt><trkpt lat="41.5023554" lon="-0.0171052"><ele>295.5</ele><time>2026-05-04T10:20:57.585Z</time></trkpt><trkpt lat="41.5024265" lon="-0.0169565"><ele>295.75</ele><time>2026-05-04T10:20:58.577Z</time></trkpt><trkpt lat="41.5024974" lon="-0.0168085"><ele>296.0</ele><time>2026-05-04T10:20:59.581Z</time></trkpt><trkpt lat="41.5025699" lon="-0.016662"><ele>296.25</ele><time>2026-05-04T10:21:00.595Z</time></trkpt><trkpt lat="41.5026384" lon="-0.016508"><ele>296.5</ele><time>2026-05-04T10:21:01.58Z</time></trkpt><trkpt lat="41.5027074" lon="-0.0163558"><ele>296.75</ele><time>2026-05-04T10:21:02.586Z</time></trkpt><trkpt lat="41.5027785" lon="-0.0162058"><ele>297.0</ele><time>2026-05-04T10:21:03.575Z</time></trkpt><trkpt lat="41.5028527" lon="-0.0160573"><ele>296.75</ele><time>2026-05-04T10:21:04.578Z</time></trkpt><trkpt lat="41.5029295" lon="-0.0159072"><ele>296.5</ele><time>2026-05-04T10:21:05.578Z</time></trkpt><trkpt lat="41.5030117" lon="-0.0157538"><ele>296.25</ele><time>2026-05-04T10:21:06.581Z</time></trkpt><trkpt lat="41.5030847" lon="-0.0155962"><ele>296.0</ele><time>2026-05-04T10:21:07.576Z</time></trkpt><trkpt lat="41.5031628" lon="-0.0154288"><ele>295.25</ele><time>2026-05-04T10:21:08.578Z</time></trkpt><trkpt lat="41.5032443" lon="-0.0152621"><ele>294.5</ele><time>2026-05-04T10:21:09.578Z</time></trkpt><trkpt lat="41.5033221" lon="-0.0150944"><ele>293.75</ele><time>2026-05-04T10:21:10.579Z</time></trkpt><trkpt lat="41.5033952" lon="-0.0149267"><ele>293.0</ele><time>2026-05-04T10:21:11.579Z</time></trkpt><trkpt lat="41.5034684" lon="-0.0147529"><ele>292.0</ele><time>2026-05-04T10:21:12.579Z</time></trkpt><trkpt lat="41.503532" lon="-0.0145675"><ele>291.0</ele><time>2026-05-04T10:21:13.58Z</time></trkpt><trkpt lat="41.503595" lon="-0.0143729"><ele>290.0</ele><time>2026-05-04T10:21:14.58Z</time></trkpt><trkpt lat="41.5036574" lon="-0.0141756"><ele>290.0</ele><time>2026-05-04T10:21:15.578Z</time></trkpt><trkpt lat="41.5037125" lon="-0.0139777"><ele>290.0</ele><time>2026-05-04T10:21:16.578Z</time></trkpt><trkpt lat="41.5037624" lon="-0.013769"><ele>290.0</ele><time>2026-05-04T10:21:17.583Z</time></trkpt><trkpt lat="41.5038125" lon="-0.0135643"><ele>287.0</ele><time>2026-05-04T10:21:18.579Z</time></trkpt><trkpt lat="41.5038554" lon="-0.0133693"><ele>284.0</ele><time>2026-05-04T10:21:19.586Z</time></trkpt><trkpt lat="41.5038842" lon="-0.0131819"><ele>281.0</ele><time>2026-05-04T10:21:20.576Z</time></trkpt><trkpt lat="41.5039089" lon="-0.0129704"><ele>280.33333333333337</ele><time>2026-05-04T10:21:21.578Z</time></trkpt><trkpt lat="41.5039227" lon="-0.0127527"><ele>279.6666666666667</ele><time>2026-05-04T10:21:22.584Z</time></trkpt><trkpt lat="41.5039341" lon="-0.0125268"><ele>279.0</ele><time>2026-05-04T10:21:23.577Z</time></trkpt><trkpt lat="41.5039434" lon="-0.0123031"><ele>278.6666666666667</ele><time>2026-05-04T10:21:24.58Z</time></trkpt><trkpt lat="41.5039357" lon="-0.0120833"><ele>278.33333333333337</ele><time>2026-05-04T10:21:25.578Z</time></trkpt><trkpt lat="41.503921" lon="-0.0118653"><ele>278.0</ele><time>2026-05-04T10:21:26.581Z</time></trkpt><trkpt lat="41.5039026" lon="-0.0116411"><ele>276.33333333333337</ele><time>2026-05-04T10:21:27.587Z</time></trkpt><trkpt lat="41.5038727" lon="-0.0114192"><ele>274.6666666666667</ele><time>2026-05-04T10:21:28.585Z</time></trkpt><trkpt lat="41.5038405" lon="-0.0111972"><ele>273.0</ele><time>2026-05-04T10:21:29.583Z</time></trkpt><trkpt lat="41.5038011" lon="-0.0109694"><ele>271.3333333333333</ele><time>2026-05-04T10:21:30.582Z</time></trkpt><trkpt lat="41.5037604" lon="-0.010743"><ele>269.66666666666663</ele><time>2026-05-04T10:21:31.599Z</time></trkpt><trkpt lat="41.5037219" lon="-0.0105187"><ele>268.0</ele><time>2026-05-04T10:21:32.582Z</time></trkpt><trkpt lat="41.5036821" lon="-0.0103017"><ele>267.66666666666663</ele><time>2026-05-04T10:21:33.584Z</time></trkpt><trkpt lat="41.5036383" lon="-0.0100706"><ele>267.3333333333333</ele><time>2026-05-04T10:21:34.584Z</time></trkpt><trkpt lat="41.5036014" lon="-0.009846"><ele>267.0</ele><time>2026-05-04T10:21:35.581Z</time></trkpt><trkpt lat="41.5035583" lon="-0.0096171"><ele>266.3333333333333</ele><time>2026-05-04T10:21:36.583Z</time></trkpt><trkpt lat="41.5035168" lon="-0.0093906"><ele>265.66666666666663</ele><time>2026-05-04T10:21:37.588Z</time></trkpt><trkpt lat="41.50348" lon="-0.0091634"><ele>265.0</ele><time>2026-05-04T10:21:38.583Z</time></trkpt><trkpt lat="41.5034362" lon="-0.0089351"><ele>266.66666666666663</ele><time>2026-05-04T10:21:39.587Z</time></trkpt><trkpt lat="41.5034031" lon="-0.0087063"><ele>268.3333333333333</ele><time>2026-05-04T10:21:40.582Z</time></trkpt><trkpt lat="41.5033618" lon="-0.0084858"><ele>270.0</ele><time>2026-05-04T10:21:41.586Z</time></trkpt><trkpt lat="41.5033227" lon="-0.0082677"><ele>272.3333333333333</ele><time>2026-05-04T10:21:42.584Z</time></trkpt><trkpt lat="41.5032803" lon="-0.0080493"><ele>274.66666666666663</ele><time>2026-05-04T10:21:43.586Z</time></trkpt><trkpt lat="41.5032422" lon="-0.0078316"><ele>277.0</ele><time>2026-05-04T10:21:44.582Z</time></trkpt><trkpt lat="41.5032018" lon="-0.007613"><ele>277.3333333333333</ele><time>2026-05-04T10:21:45.582Z</time></trkpt><trkpt lat="41.5031678" lon="-0.0073995"><ele>277.6666666666667</ele><time>2026-05-04T10:21:46.582Z</time></trkpt><trkpt lat="41.5031332" lon="-0.0071923"><ele>278.0</ele><time>2026-05-04T10:21:47.579Z</time></trkpt><trkpt lat="41.5030966" lon="-0.0069851"><ele>278.0</ele><time>2026-05-04T10:21:48.584Z</time></trkpt><trkpt lat="41.5030615" lon="-0.0067588"><ele>278.0</ele><time>2026-05-04T10:21:49.591Z</time></trkpt><trkpt lat="41.5030233" lon="-0.0065387"><ele>278.0</ele><time>2026-05-04T10:21:50.592Z</time></trkpt><trkpt lat="41.5029808" lon="-0.0063144"><ele>277.0</ele><time>2026-05-04T10:21:51.593Z</time></trkpt><trkpt lat="41.5029383" lon="-0.0060902"><ele>276.0</ele><time>2026-05-04T10:21:52.593Z</time></trkpt><trkpt lat="41.502895" lon="-0.0058782"><ele>275.0</ele><time>2026-05-04T10:21:53.59Z</time></trkpt><trkpt lat="41.502857" lon="-0.0056634"><ele>273.6666666666667</ele><time>2026-05-04T10:21:54.591Z</time></trkpt><trkpt lat="41.5028219" lon="-0.0054681"><ele>272.3333333333333</ele><time>2026-05-04T10:21:55.593Z</time></trkpt><trkpt lat="41.5027871" lon="-0.0052667"><ele>271.0</ele><time>2026-05-04T10:21:56.593Z</time></trkpt><trkpt lat="41.5027547" lon="-0.0050603"><ele>271.66666666666663</ele><time>2026-05-04T10:21:57.598Z</time></trkpt><trkpt lat="41.5027224" lon="-0.0048693"><ele>272.3333333333333</ele><time>2026-05-04T10:21:58.59Z</time></trkpt><trkpt lat="41.5026995" lon="-0.0046706"><ele>273.0</ele><time>2026-05-04T10:21:59.588Z</time></trkpt><trkpt lat="41.5026718" lon="-0.0044651"><ele>273.0</ele><time>2026-05-04T10:22:00.579Z</time></trkpt><trkpt lat="41.5026448" lon="-0.0042498"><ele>273.0</ele><time>2026-05-04T10:22:01.582Z</time></trkpt><trkpt lat="41.5026215" lon="-0.0040445"><ele>273.0</ele><time>2026-05-04T10:22:02.596Z</time></trkpt><trkpt lat="41.5025969" lon="-0.0038342"><ele>274.3333333333333</ele><time>2026-05-04T10:22:03.574Z</time></trkpt><trkpt lat="41.5025833" lon="-0.0036297"><ele>275.66666666666663</ele><time>2026-05-04T10:22:04.578Z</time></trkpt><trkpt lat="41.5025708" lon="-0.0034194"><ele>277.0</ele><time>2026-05-04T10:22:05.573Z</time></trkpt><trkpt lat="41.5025588" lon="-0.0032251"><ele>278.3333333333333</ele><time>2026-05-04T10:22:06.576Z</time></trkpt><trkpt lat="41.5025337" lon="-0.0028452"><ele>279.6666666666667</ele><time>2026-05-04T10:22:08.578Z</time></trkpt><trkpt lat="41.5025334" lon="-0.0026689"><ele>281.0</ele><time>2026-05-04T10:22:09.577Z</time></trkpt><trkpt lat="41.5025333" lon="-0.002491"><ele>281.25</ele><time>2026-05-04T10:22:10.582Z</time></trkpt><trkpt lat="41.5025329" lon="-0.0023191"><ele>281.5</ele><time>2026-05-04T10:22:11.574Z</time></trkpt><trkpt lat="41.5025393" lon="-0.0021468"><ele>281.75</ele><time>2026-05-04T10:22:12.582Z</time></trkpt><trkpt lat="41.5025466" lon="-0.0019769"><ele>282.0</ele><time>2026-05-04T10:22:13.578Z</time></trkpt><trkpt lat="41.5025542" lon="-0.0018186"><ele>282.75</ele><time>2026-05-04T10:22:14.575Z</time></trkpt><trkpt lat="41.5025616" lon="-0.0016456"><ele>283.5</ele><time>2026-05-04T10:22:15.578Z</time></trkpt><trkpt lat="41.5025724" lon="-0.001473"><ele>284.25</ele><time>2026-05-04T10:22:16.581Z</time></trkpt><trkpt lat="41.5025881" lon="-0.0013006"><ele>285.0</ele><time>2026-05-04T10:22:17.581Z</time></trkpt><trkpt lat="41.502609" lon="-0.0011225"><ele>285.0</ele><time>2026-05-04T10:22:18.586Z</time></trkpt><trkpt lat="41.5026322" lon="-9.575E-4"><ele>285.0</ele><time>2026-05-04T10:22:19.579Z</time></trkpt><trkpt lat="41.5026589" lon="-8.069E-4"><ele>285.0</ele><time>2026-05-04T10:22:20.584Z</time></trkpt><trkpt lat="41.5026914" lon="-6.609E-4"><ele>285.0</ele><time>2026-05-04T10:22:21.586Z</time></trkpt><trkpt lat="41.5027275" lon="-5.201E-4"><ele>285.5</ele><time>2026-05-04T10:22:22.584Z</time></trkpt><trkpt lat="41.5027661" lon="-3.822E-4"><ele>286.0</ele><time>2026-05-04T10:22:23.583Z</time></trkpt><trkpt lat="41.5028094" lon="-2.349E-4"><ele>286.5</ele><time>2026-05-04T10:22:24.585Z</time></trkpt><trkpt lat="41.5028555" lon="-9.04E-5"><ele>287.0</ele><time>2026-05-04T10:22:25.581Z</time></trkpt><trkpt lat="41.502905" lon="5.22E-5"><ele>290.25</ele><time>2026-05-04T10:22:26.582Z</time></trkpt><trkpt lat="41.5029609" lon="1.934E-4"><ele>293.5</ele><time>2026-05-04T10:22:27.59Z</time></trkpt><trkpt lat="41.5030216" lon="3.327E-4"><ele>296.75</ele><time>2026-05-04T10:22:28.588Z</time></trkpt><trkpt lat="41.5030806" lon="4.713E-4"><ele>300.0</ele><time>2026-05-04T10:22:29.582Z</time></trkpt><trkpt lat="41.5031449" lon="6.058E-4"><ele>300.0</ele><time>2026-05-04T10:22:30.576Z</time></trkpt><trkpt lat="41.5032091" lon="7.332E-4"><ele>300.0</ele><time>2026-05-04T10:22:31.571Z</time></trkpt><trkpt lat="41.5032784" lon="8.577E-4"><ele>300.0</ele><time>2026-05-04T10:22:32.577Z</time></trkpt><trkpt lat="41.5033502" lon="9.748E-4"><ele>300.0</ele><time>2026-05-04T10:22:33.594Z</time></trkpt><trkpt lat="41.5034259" lon="0.0010886"><ele>298.5</ele><time>2026-05-04T10:22:34.576Z</time></trkpt><trkpt lat="41.5035045" lon="0.0012027"><ele>297.0</ele><time>2026-05-04T10:22:35.581Z</time></trkpt><trkpt lat="41.5035833" lon="0.0013224"><ele>295.5</ele><time>2026-05-04T10:22:36.574Z</time></trkpt><trkpt lat="41.5036669" lon="0.0014406"><ele>294.0</ele><time>2026-05-04T10:22:37.576Z</time></trkpt><trkpt lat="41.5037443" lon="0.0015584"><ele>295.5</ele><time>2026-05-04T10:22:38.574Z</time></trkpt><trkpt lat="41.5038232" lon="0.0016778"><ele>297.0</ele><time>2026-05-04T10:22:39.576Z</time></trkpt><trkpt lat="41.5039001" lon="0.0017978"><ele>298.5</ele><time>2026-05-04T10:22:40.58Z</time></trkpt><trkpt lat="41.5039814" lon="0.0019163"><ele>300.0</ele><time>2026-05-04T10:22:41.581Z</time></trkpt><trkpt lat="41.5040552" lon="0.0020313"><ele>300.0</ele><time>2026-05-04T10:22:42.582Z</time></trkpt><trkpt lat="41.5041287" lon="0.002144"><ele>300.0</ele><time>2026-05-04T10:22:43.588Z</time></trkpt><trkpt lat="41.5042014" lon="0.0022594"><ele>300.0</ele><time>2026-05-04T10:22:44.578Z</time></trkpt><trkpt lat="41.504275" lon="0.0023812"><ele>300.0</ele><time>2026-05-04T10:22:45.575Z</time></trkpt><trkpt lat="41.504344" lon="0.002501"><ele>299.75</ele><time>2026-05-04T10:22:46.574Z</time></trkpt><trkpt lat="41.5044093" lon="0.0026266"><ele>299.5</ele><time>2026-05-04T10:22:47.582Z</time></trkpt><trkpt lat="41.5044705" lon="0.002758"><ele>299.25</ele><time>2026-05-04T10:22:48.583Z</time></trkpt><trkpt lat="41.5045296" lon="0.0028926"><ele>299.0</ele><time>2026-05-04T10:22:49.583Z</time></trkpt><trkpt lat="41.5045849" lon="0.0030301"><ele>300.0</ele><time>2026-05-04T10:22:50.586Z</time></trkpt><trkpt lat="41.5046356" lon="0.0031717"><ele>301.0</ele><time>2026-05-04T10:22:51.586Z</time></trkpt><trkpt lat="41.5046847" lon="0.0033109"><ele>302.0</ele><time>2026-05-04T10:22:52.583Z</time></trkpt><trkpt lat="41.5047301" lon="0.0034548"><ele>303.0</ele><time>2026-05-04T10:22:53.584Z</time></trkpt><trkpt lat="41.5047665" lon="0.0036005"><ele>303.0</ele><time>2026-05-04T10:22:54.589Z</time></trkpt><trkpt lat="41.5048014" lon="0.0037387"><ele>303.0</ele><time>2026-05-04T10:22:55.584Z</time></trkpt><trkpt lat="41.5048322" lon="0.0038776"><ele>303.0</ele><time>2026-05-04T10:22:56.58Z</time></trkpt><trkpt lat="41.5048582" lon="0.0040125"><ele>303.0</ele><time>2026-05-04T10:22:57.584Z</time></trkpt><trkpt lat="41.5048811" lon="0.0041514"><ele>303.0</ele><time>2026-05-04T10:22:58.582Z</time></trkpt><trkpt lat="41.5049013" lon="0.0042921"><ele>303.0</ele><time>2026-05-04T10:22:59.578Z</time></trkpt><trkpt lat="41.5049189" lon="0.0044397"><ele>303.0</ele><time>2026-05-04T10:23:00.58Z</time></trkpt><trkpt lat="41.504935" lon="0.00458"><ele>303.0</ele><time>2026-05-04T10:23:01.582Z</time></trkpt><trkpt lat="41.5049485" lon="0.0047234"><ele>303.0</ele><time>2026-05-04T10:23:02.586Z</time></trkpt><trkpt lat="41.5049584" lon="0.0048726"><ele>303.0</ele><time>2026-05-04T10:23:03.586Z</time></trkpt><trkpt lat="41.5049614" lon="0.0050178"><ele>303.75</ele><time>2026-05-04T10:23:04.604Z</time></trkpt><trkpt lat="41.5049608" lon="0.0051661"><ele>304.5</ele><time>2026-05-04T10:23:05.583Z</time></trkpt><trkpt lat="41.5049581" lon="0.0053116"><ele>305.25</ele><time>2026-05-04T10:23:06.578Z</time></trkpt><trkpt lat="41.504941" lon="0.0056073"><ele>306.0</ele><time>2026-05-04T10:23:08.583Z</time></trkpt><trkpt lat="41.504926" lon="0.0057618"><ele>306.75</ele><time>2026-05-04T10:23:09.586Z</time></trkpt><trkpt lat="41.5049102" lon="0.0059139"><ele>307.5</ele><time>2026-05-04T10:23:10.582Z</time></trkpt><trkpt lat="41.504895" lon="0.0060688"><ele>308.25</ele><time>2026-05-04T10:23:11.588Z</time></trkpt><trkpt lat="41.5048771" lon="0.0062203"><ele>309.0</ele><time>2026-05-04T10:23:12.59Z</time></trkpt><trkpt lat="41.5048595" lon="0.0063796"><ele>309.0</ele><time>2026-05-04T10:23:13.587Z</time></trkpt><trkpt lat="41.5048359" lon="0.0065387"><ele>309.0</ele><time>2026-05-04T10:23:14.586Z</time></trkpt><trkpt lat="41.5048184" lon="0.0067046"><ele>309.0</ele><time>2026-05-04T10:23:15.583Z</time></trkpt><trkpt lat="41.5047975" lon="0.0068657"><ele>309.0</ele><time>2026-05-04T10:23:16.589Z</time></trkpt><trkpt lat="41.504783" lon="0.0070338"><ele>309.5</ele><time>2026-05-04T10:23:17.591Z</time></trkpt><trkpt lat="41.5047671" lon="0.0071917"><ele>310.0</ele><time>2026-05-04T10:23:18.583Z</time></trkpt><trkpt lat="41.5047473" lon="0.0073549"><ele>310.5</ele><time>2026-05-04T10:23:19.586Z</time></trkpt><trkpt lat="41.5047289" lon="0.0075158"><ele>311.0</ele><time>2026-05-04T10:23:20.586Z</time></trkpt><trkpt lat="41.5047134" lon="0.007682"><ele>311.25</ele><time>2026-05-04T10:23:21.589Z</time></trkpt><trkpt lat="41.5046994" lon="0.0078444"><ele>311.5</ele><time>2026-05-04T10:23:22.587Z</time></trkpt><trkpt lat="41.5046811" lon="0.008004"><ele>311.75</ele><time>2026-05-04T10:23:23.592Z</time></trkpt><trkpt lat="41.5046659" lon="0.008169"><ele>312.0</ele><time>2026-05-04T10:23:24.59Z</time></trkpt><trkpt lat="41.5046524" lon="0.0083375"><ele>312.25</ele><time>2026-05-04T10:23:25.593Z</time></trkpt><trkpt lat="41.504636" lon="0.0085088"><ele>312.5</ele><time>2026-05-04T10:23:26.59Z</time></trkpt><trkpt lat="41.5046156" lon="0.0086839"><ele>312.75</ele><time>2026-05-04T10:23:27.595Z</time></trkpt><trkpt lat="41.5045961" lon="0.008861"><ele>313.0</ele><time>2026-05-04T10:23:28.589Z</time></trkpt><trkpt lat="41.5045804" lon="0.0090398"><ele>312.5</ele><time>2026-05-04T10:23:29.589Z</time></trkpt><trkpt lat="41.5045597" lon="0.0092179"><ele>312.0</ele><time>2026-05-04T10:23:30.592Z</time></trkpt><trkpt lat="41.504537" lon="0.0093971"><ele>311.5</ele><time>2026-05-04T10:23:31.586Z</time></trkpt><trkpt lat="41.504516" lon="0.0095734"><ele>311.0</ele><time>2026-05-04T10:23:32.588Z</time></trkpt><trkpt lat="41.5044987" lon="0.0097473"><ele>311.0</ele><time>2026-05-04T10:23:33.588Z</time></trkpt><trkpt lat="41.504479" lon="0.0099195"><ele>311.0</ele><time>2026-05-04T10:23:34.592Z</time></trkpt><trkpt lat="41.5044608" lon="0.0100932"><ele>311.0</ele><time>2026-05-04T10:23:35.607Z</time></trkpt><trkpt lat="41.5044415" lon="0.0102634"><ele>311.0</ele><time>2026-05-04T10:23:36.589Z</time></trkpt><trkpt lat="41.504423" lon="0.0104329"><ele>310.75</ele><time>2026-05-04T10:23:37.594Z</time></trkpt><trkpt lat="41.5044067" lon="0.0105966"><ele>310.5</ele><time>2026-05-04T10:23:38.589Z</time></trkpt><trkpt lat="41.5043902" lon="0.0107669"><ele>310.25</ele><time>2026-05-04T10:23:39.59Z</time></trkpt><trkpt lat="41.5043759" lon="0.0109439"><ele>310.0</ele><time>2026-05-04T10:23:40.587Z</time></trkpt><trkpt lat="41.5043619" lon="0.0111182"><ele>310.0</ele><time>2026-05-04T10:23:41.588Z</time></trkpt><trkpt lat="41.5043428" lon="0.0112951"><ele>310.0</ele><time>2026-05-04T10:23:42.583Z</time></trkpt><trkpt lat="41.5043238" lon="0.0114723"><ele>310.0</ele><time>2026-05-04T10:23:43.589Z</time></trkpt><trkpt lat="41.5043032" lon="0.0116506"><ele>310.0</ele><time>2026-05-04T10:23:44.586Z</time></trkpt><trkpt lat="41.5042918" lon="0.011825"><ele>310.0</ele><time>2026-05-04T10:23:45.587Z</time></trkpt><trkpt lat="41.5042733" lon="0.0120083"><ele>310.0</ele><time>2026-05-04T10:23:46.584Z</time></trkpt><trkpt lat="41.504251" lon="0.0121946"><ele>310.0</ele><time>2026-05-04T10:23:47.591Z</time></trkpt><trkpt lat="41.5042405" lon="0.0123753"><ele>310.0</ele><time>2026-05-04T10:23:48.588Z</time></trkpt><trkpt lat="41.5042261" lon="0.0125679"><ele>310.0</ele><time>2026-05-04T10:23:49.591Z</time></trkpt><trkpt lat="41.5042047" lon="0.0127585"><ele>310.0</ele><time>2026-05-04T10:23:50.59Z</time></trkpt><trkpt lat="41.5041776" lon="0.0129483"><ele>310.0</ele><time>2026-05-04T10:23:51.592Z</time></trkpt><trkpt lat="41.5041569" lon="0.013145"><ele>310.0</ele><time>2026-05-04T10:23:52.588Z</time></trkpt><trkpt lat="41.5041296" lon="0.0133234"><ele>310.0</ele><time>2026-05-04T10:23:53.586Z</time></trkpt><trkpt lat="41.5041038" lon="0.0135298"><ele>310.0</ele><time>2026-05-04T10:23:54.59Z</time></trkpt><trkpt lat="41.504084" lon="0.0137308"><ele>310.0</ele><time>2026-05-04T10:23:55.593Z</time></trkpt><trkpt lat="41.5040667" lon="0.013917"><ele>310.0</ele><time>2026-05-04T10:23:56.587Z</time></trkpt><trkpt lat="41.5040495" lon="0.0141012"><ele>309.75</ele><time>2026-05-04T10:23:57.592Z</time></trkpt><trkpt lat="41.5040358" lon="0.0142822"><ele>309.5</ele><time>2026-05-04T10:23:58.587Z</time></trkpt><trkpt lat="41.5040191" lon="0.0144614"><ele>309.25</ele><time>2026-05-04T10:23:59.588Z</time></trkpt><trkpt lat="41.5040016" lon="0.0146547"><ele>309.0</ele><time>2026-05-04T10:24:00.588Z</time></trkpt><trkpt lat="41.5039795" lon="0.0148437"><ele>308.25</ele><time>2026-05-04T10:24:01.583Z</time></trkpt><trkpt lat="41.5039614" lon="0.0150407"><ele>307.5</ele><time>2026-05-04T10:24:02.586Z</time></trkpt><trkpt lat="41.5039386" lon="0.0152259"><ele>306.75</ele><time>2026-05-04T10:24:03.588Z</time></trkpt><trkpt lat="41.5039116" lon="0.0154218"><ele>306.0</ele><time>2026-05-04T10:24:04.589Z</time></trkpt><trkpt lat="41.5038886" lon="0.0156124"><ele>306.0</ele><time>2026-05-04T10:24:05.588Z</time></trkpt><trkpt lat="41.5038638" lon="0.0158075"><ele>306.0</ele><time>2026-05-04T10:24:06.607Z</time></trkpt><trkpt lat="41.5038336" lon="0.0160124"><ele>306.0</ele><time>2026-05-04T10:24:07.589Z</time></trkpt><trkpt lat="41.5038062" lon="0.0162184"><ele>306.3333333333333</ele><time>2026-05-04T10:24:08.597Z</time></trkpt><trkpt lat="41.503781" lon="0.0164312"><ele>306.66666666666663</ele><time>2026-05-04T10:24:09.586Z</time></trkpt><trkpt lat="41.5037522" lon="0.0166472"><ele>307.0</ele><time>2026-05-04T10:24:10.594Z</time></trkpt><trkpt lat="41.5037221" lon="0.0168562"><ele>307.0</ele><time>2026-05-04T10:24:11.587Z</time></trkpt><trkpt lat="41.5036966" lon="0.0170803"><ele>307.0</ele><time>2026-05-04T10:24:12.59Z</time></trkpt><trkpt lat="41.5036713" lon="0.0173029"><ele>307.0</ele><time>2026-05-04T10:24:13.59Z</time></trkpt><trkpt lat="41.5036416" lon="0.0175316"><ele>304.66666666666663</ele><time>2026-05-04T10:24:14.59Z</time></trkpt><trkpt lat="41.5036142" lon="0.0177656"><ele>302.3333333333333</ele><time>2026-05-04T10:24:15.591Z</time></trkpt><trkpt lat="41.5035788" lon="0.0179876"><ele>300.0</ele><time>2026-05-04T10:24:16.588Z</time></trkpt><trkpt lat="41.5035462" lon="0.0182078"><ele>297.6666666666667</ele><time>2026-05-04T10:24:17.591Z</time></trkpt><trkpt lat="41.5035181" lon="0.0184273"><ele>295.33333333333337</ele><time>2026-05-04T10:24:18.593Z</time></trkpt><trkpt lat="41.5034933" lon="0.0186489"><ele>293.0</ele><time>2026-05-04T10:24:19.593Z</time></trkpt><trkpt lat="41.5034634" lon="0.0188792"><ele>293.0</ele><time>2026-05-04T10:24:20.592Z</time></trkpt><trkpt lat="41.503435" lon="0.0191017"><ele>293.0</ele><time>2026-05-04T10:24:21.591Z</time></trkpt><trkpt lat="41.5033986" lon="0.0193284"><ele>293.0</ele><time>2026-05-04T10:24:22.595Z</time></trkpt><trkpt lat="41.5033653" lon="0.0195619"><ele>292.0</ele><time>2026-05-04T10:24:23.596Z</time></trkpt><trkpt lat="41.5033339" lon="0.0197873"><ele>291.0</ele><time>2026-05-04T10:24:24.603Z</time></trkpt><trkpt lat="41.5033041" lon="0.0200154"><ele>290.0</ele><time>2026-05-04T10:24:25.598Z</time></trkpt><trkpt lat="41.5032742" lon="0.0202433"><ele>289.0</ele><time>2026-05-04T10:24:26.594Z</time></trkpt><trkpt lat="41.5032474" lon="0.0204564"><ele>288.0</ele><time>2026-05-04T10:24:27.601Z</time></trkpt><trkpt lat="41.5032158" lon="0.0206737"><ele>287.0</ele><time>2026-05-04T10:24:28.595Z</time></trkpt><trkpt lat="41.503183" lon="0.0208888"><ele>286.6666666666667</ele><time>2026-05-04T10:24:29.599Z</time></trkpt><trkpt lat="41.5031546" lon="0.0211049"><ele>286.3333333333333</ele><time>2026-05-04T10:24:30.597Z</time></trkpt><trkpt lat="41.5031212" lon="0.0213114"><ele>286.0</ele><time>2026-05-04T10:24:31.594Z</time></trkpt><trkpt lat="41.5030918" lon="0.0215214"><ele>285.3333333333333</ele><time>2026-05-04T10:24:32.592Z</time></trkpt><trkpt lat="41.5030646" lon="0.021724"><ele>284.6666666666667</ele><time>2026-05-04T10:24:33.592Z</time></trkpt><trkpt lat="41.5030294" lon="0.0219417"><ele>284.0</ele><time>2026-05-04T10:24:34.589Z</time></trkpt><trkpt lat="41.5030045" lon="0.0221485"><ele>284.0</ele><time>2026-05-04T10:24:35.59Z</time></trkpt><trkpt lat="41.5029773" lon="0.0223579"><ele>284.0</ele><time>2026-05-04T10:24:36.591Z</time></trkpt><trkpt lat="41.5029537" lon="0.0225599"><ele>284.0</ele><time>2026-05-04T10:24:37.628Z</time></trkpt><trkpt lat="41.5029277" lon="0.0227674"><ele>283.6666666666667</ele><time>2026-05-04T10:24:38.59Z</time></trkpt><trkpt lat="41.5029005" lon="0.0229833"><ele>283.3333333333333</ele><time>2026-05-04T10:24:39.597Z</time></trkpt><trkpt lat="41.502873" lon="0.0231775"><ele>283.0</ele><time>2026-05-04T10:24:40.586Z</time></trkpt><trkpt lat="41.5028415" lon="0.0233755"><ele>283.0</ele><time>2026-05-04T10:24:41.594Z</time></trkpt><trkpt lat="41.5028165" lon="0.0235694"><ele>283.0</ele><time>2026-05-04T10:24:42.591Z</time></trkpt><trkpt lat="41.5027878" lon="0.0237744"><ele>283.0</ele><time>2026-05-04T10:24:43.594Z</time></trkpt><trkpt lat="41.5027624" lon="0.0239714"><ele>282.5</ele><time>2026-05-04T10:24:44.59Z</time></trkpt><trkpt lat="41.5027375" lon="0.0241639"><ele>282.0</ele><time>2026-05-04T10:24:45.59Z</time></trkpt><trkpt lat="41.502707" lon="0.0243605"><ele>281.5</ele><time>2026-05-04T10:24:46.59Z</time></trkpt><trkpt lat="41.5026828" lon="0.0245561"><ele>281.0</ele><time>2026-05-04T10:24:47.588Z</time></trkpt><trkpt lat="41.50266" lon="0.0247484"><ele>281.0</ele><time>2026-05-04T10:24:48.59Z</time></trkpt><trkpt lat="41.5026327" lon="0.0249414"><ele>281.0</ele><time>2026-05-04T10:24:49.592Z</time></trkpt><trkpt lat="41.5025986" lon="0.0251413"><ele>281.0</ele><time>2026-05-04T10:24:50.592Z</time></trkpt><trkpt lat="41.5025734" lon="0.0253288"><ele>281.0</ele><time>2026-05-04T10:24:51.589Z</time></trkpt><trkpt lat="41.5025474" lon="0.0255223"><ele>281.0</ele><time>2026-05-04T10:24:52.591Z</time></trkpt><trkpt lat="41.5025256" lon="0.0257169"><ele>281.0</ele><time>2026-05-04T10:24:53.592Z</time></trkpt><trkpt lat="41.5024956" lon="0.0259151"><ele>281.0</ele><time>2026-05-04T10:24:54.597Z</time></trkpt><trkpt lat="41.5024667" lon="0.0261026"><ele>281.0</ele><time>2026-05-04T10:24:55.594Z</time></trkpt><trkpt lat="41.5024445" lon="0.0262827"><ele>281.0</ele><time>2026-05-04T10:24:56.594Z</time></trkpt><trkpt lat="41.5024249" lon="0.0264767"><ele>281.0</ele><time>2026-05-04T10:24:57.602Z</time></trkpt><trkpt lat="41.5023968" lon="0.0266747"><ele>281.0</ele><time>2026-05-04T10:24:58.6Z</time></trkpt><trkpt lat="41.5023706" lon="0.0268845"><ele>281.25</ele><time>2026-05-04T10:24:59.602Z</time></trkpt><trkpt lat="41.5023405" lon="0.0270821"><ele>281.5</ele><time>2026-05-04T10:25:00.596Z</time></trkpt><trkpt lat="41.502311" lon="0.0272767"><ele>281.75</ele><time>2026-05-04T10:25:01.593Z</time></trkpt><trkpt lat="41.5022814" lon="0.0274665"><ele>282.0</ele><time>2026-05-04T10:25:02.593Z</time></trkpt><trkpt lat="41.5022564" lon="0.0276541"><ele>282.75</ele><time>2026-05-04T10:25:03.593Z</time></trkpt><trkpt lat="41.5022264" lon="0.0278414"><ele>283.5</ele><time>2026-05-04T10:25:04.595Z</time></trkpt><trkpt lat="41.5022045" lon="0.0280282"><ele>284.25</ele><time>2026-05-04T10:25:05.595Z</time></trkpt><trkpt lat="41.5021819" lon="0.0282109"><ele>285.0</ele><time>2026-05-04T10:25:06.594Z</time></trkpt><trkpt lat="41.5021563" lon="0.0283858"><ele>285.25</ele><time>2026-05-04T10:25:07.611Z</time></trkpt><trkpt lat="41.502131" lon="0.028565"><ele>285.5</ele><time>2026-05-04T10:25:08.59Z</time></trkpt><trkpt lat="41.5021073" lon="0.0287331"><ele>285.75</ele><time>2026-05-04T10:25:09.589Z</time></trkpt><trkpt lat="41.5020868" lon="0.0289127"><ele>286.0</ele><time>2026-05-04T10:25:10.589Z</time></trkpt><trkpt lat="41.5020598" lon="0.0290896"><ele>286.75</ele><time>2026-05-04T10:25:11.593Z</time></trkpt><trkpt lat="41.5020352" lon="0.0292676"><ele>287.5</ele><time>2026-05-04T10:25:12.599Z</time></trkpt><trkpt lat="41.5020207" lon="0.029434"><ele>288.25</ele><time>2026-05-04T10:25:13.593Z</time></trkpt><trkpt lat="41.5019993" lon="0.0296071"><ele>289.0</ele><time>2026-05-04T10:25:14.593Z</time></trkpt><trkpt lat="41.5019738" lon="0.0297728"><ele>289.0</ele><time>2026-05-04T10:25:15.593Z</time></trkpt><trkpt lat="41.501954" lon="0.0299453"><ele>289.0</ele><time>2026-05-04T10:25:16.595Z</time></trkpt><trkpt lat="41.5019334" lon="0.030119"><ele>289.0</ele><time>2026-05-04T10:25:17.593Z</time></trkpt><trkpt lat="41.5019093" lon="0.0302902"><ele>289.0</ele><time>2026-05-04T10:25:18.593Z</time></trkpt><trkpt lat="41.5018888" lon="0.0304662"><ele>289.0</ele><time>2026-05-04T10:25:19.595Z</time></trkpt><trkpt lat="41.5018666" lon="0.0306467"><ele>289.0</ele><time>2026-05-04T10:25:20.593Z</time></trkpt><trkpt lat="41.5018425" lon="0.0308213"><ele>289.0</ele><time>2026-05-04T10:25:21.593Z</time></trkpt><trkpt lat="41.501819" lon="0.0309959"><ele>289.0</ele><time>2026-05-04T10:25:22.59Z</time></trkpt><trkpt lat="41.5017913" lon="0.0311736"><ele>289.0</ele><time>2026-05-04T10:25:23.594Z</time></trkpt><trkpt lat="41.5017684" lon="0.0313509"><ele>289.0</ele><time>2026-05-04T10:25:24.593Z</time></trkpt><trkpt lat="41.5017268" lon="0.0316929"><ele>289.0</ele><time>2026-05-04T10:25:26.6Z</time></trkpt><trkpt lat="41.5017033" lon="0.0318795"><ele>289.25</ele><time>2026-05-04T10:25:27.592Z</time></trkpt><trkpt lat="41.5016813" lon="0.0320495"><ele>289.5</ele><time>2026-05-04T10:25:28.601Z</time></trkpt><trkpt lat="41.50166" lon="0.0322242"><ele>289.75</ele><time>2026-05-04T10:25:29.593Z</time></trkpt><trkpt lat="41.5016375" lon="0.032399"><ele>290.0</ele><time>2026-05-04T10:25:30.595Z</time></trkpt><trkpt lat="41.5016118" lon="0.032563"><ele>290.0</ele><time>2026-05-04T10:25:31.593Z</time></trkpt><trkpt lat="41.5015883" lon="0.0327385"><ele>290.0</ele><time>2026-05-04T10:25:32.594Z</time></trkpt><trkpt lat="41.5015626" lon="0.0329175"><ele>290.0</ele><time>2026-05-04T10:25:33.594Z</time></trkpt><trkpt lat="41.5015401" lon="0.0330877"><ele>290.0</ele><time>2026-05-04T10:25:34.593Z</time></trkpt><trkpt lat="41.5015134" lon="0.0332535"><ele>290.5</ele><time>2026-05-04T10:25:35.589Z</time></trkpt><trkpt lat="41.501489" lon="0.0334331"><ele>291.0</ele><time>2026-05-04T10:25:36.594Z</time></trkpt><trkpt lat="41.5014687" lon="0.0336105"><ele>291.5</ele><time>2026-05-04T10:25:37.593Z</time></trkpt><trkpt lat="41.5014459" lon="0.0337915"><ele>292.0</ele><time>2026-05-04T10:25:38.61Z</time></trkpt><trkpt lat="41.5014281" lon="0.0339701"><ele>292.25</ele><time>2026-05-04T10:25:39.59Z</time></trkpt><trkpt lat="41.5014144" lon="0.0341403"><ele>292.5</ele><time>2026-05-04T10:25:40.597Z</time></trkpt><trkpt lat="41.5014003" lon="0.034315"><ele>292.75</ele><time>2026-05-04T10:25:41.586Z</time></trkpt><trkpt lat="41.5013881" lon="0.0344918"><ele>293.0</ele><time>2026-05-04T10:25:42.593Z</time></trkpt><trkpt lat="41.5013709" lon="0.0346595"><ele>293.0</ele><time>2026-05-04T10:25:43.595Z</time></trkpt><trkpt lat="41.5013626" lon="0.0348267"><ele>293.0</ele><time>2026-05-04T10:25:44.592Z</time></trkpt><trkpt lat="41.5013583" lon="0.0349954"><ele>293.0</ele><time>2026-05-04T10:25:45.591Z</time></trkpt><trkpt lat="41.5013559" lon="0.0351643"><ele>293.0</ele><time>2026-05-04T10:25:46.595Z</time></trkpt><trkpt lat="41.5013562" lon="0.0353329"><ele>293.0</ele><time>2026-05-04T10:25:47.594Z</time></trkpt><trkpt lat="41.5013573" lon="0.0355102"><ele>293.0</ele><time>2026-05-04T10:25:48.593Z</time></trkpt><trkpt lat="41.5013583" lon="0.0356865"><ele>293.0</ele><time>2026-05-04T10:25:49.591Z</time></trkpt><trkpt lat="41.5013627" lon="0.0358595"><ele>293.0</ele><time>2026-05-04T10:25:50.591Z</time></trkpt><trkpt lat="41.501368" lon="0.0360441"><ele>292.75</ele><time>2026-05-04T10:25:51.595Z</time></trkpt><trkpt lat="41.5013763" lon="0.0362308"><ele>292.5</ele><time>2026-05-04T10:25:52.593Z</time></trkpt><trkpt lat="41.5013831" lon="0.036425"><ele>292.25</ele><time>2026-05-04T10:25:53.599Z</time></trkpt><trkpt lat="41.501389" lon="0.0366143"><ele>292.0</ele><time>2026-05-04T10:25:54.593Z</time></trkpt><trkpt lat="41.5013958" lon="0.0368044"><ele>291.5</ele><time>2026-05-04T10:25:55.597Z</time></trkpt><trkpt lat="41.501406" lon="0.0370045"><ele>291.0</ele><time>2026-05-04T10:25:56.593Z</time></trkpt><trkpt lat="41.501417" lon="0.0372008"><ele>290.5</ele><time>2026-05-04T10:25:57.601Z</time></trkpt><trkpt lat="41.5014261" lon="0.0373944"><ele>290.0</ele><time>2026-05-04T10:25:58.598Z</time></trkpt><trkpt lat="41.5014295" lon="0.0375803"><ele>290.0</ele><time>2026-05-04T10:25:59.589Z</time></trkpt><trkpt lat="41.5014352" lon="0.0377829"><ele>290.0</ele><time>2026-05-04T10:26:00.591Z</time></trkpt><trkpt lat="41.5014358" lon="0.0379881"><ele>290.0</ele><time>2026-05-04T10:26:01.595Z</time></trkpt><trkpt lat="41.5014409" lon="0.0381774"><ele>290.0</ele><time>2026-05-04T10:26:02.591Z</time></trkpt><trkpt lat="41.501446" lon="0.0383732"><ele>289.6666666666667</ele><time>2026-05-04T10:26:03.595Z</time></trkpt><trkpt lat="41.5014511" lon="0.0385764"><ele>289.3333333333333</ele><time>2026-05-04T10:26:04.591Z</time></trkpt><trkpt lat="41.501456" lon="0.0387764"><ele>289.0</ele><time>2026-05-04T10:26:05.593Z</time></trkpt><trkpt lat="41.5014641" lon="0.0389771"><ele>288.3333333333333</ele><time>2026-05-04T10:26:06.592Z</time></trkpt><trkpt lat="41.5014669" lon="0.0391848"><ele>287.6666666666667</ele><time>2026-05-04T10:26:07.591Z</time></trkpt><trkpt lat="41.5014781" lon="0.0393867"><ele>287.0</ele><time>2026-05-04T10:26:08.59Z</time></trkpt><trkpt lat="41.5014879" lon="0.0395876"><ele>287.0</ele><time>2026-05-04T10:26:09.608Z</time></trkpt><trkpt lat="41.5014957" lon="0.0397842"><ele>287.0</ele><time>2026-05-04T10:26:10.591Z</time></trkpt><trkpt lat="41.5014953" lon="0.0399817"><ele>287.0</ele><time>2026-05-04T10:26:11.597Z</time></trkpt><trkpt lat="41.5015012" lon="0.0401747"><ele>287.0</ele><time>2026-05-04T10:26:12.589Z</time></trkpt><trkpt lat="41.501505" lon="0.0403681"><ele>286.75</ele><time>2026-05-04T10:26:13.595Z</time></trkpt><trkpt lat="41.5015061" lon="0.0405619"><ele>286.5</ele><time>2026-05-04T10:26:14.591Z</time></trkpt><trkpt lat="41.5015119" lon="0.0407467"><ele>286.25</ele><time>2026-05-04T10:26:15.595Z</time></trkpt><trkpt lat="41.5015156" lon="0.0409348"><ele>286.0</ele><time>2026-05-04T10:26:16.595Z</time></trkpt><trkpt lat="41.5015221" lon="0.0411246"><ele>286.0</ele><time>2026-05-04T10:26:17.594Z</time></trkpt><trkpt lat="41.5015241" lon="0.0413188"><ele>286.0</ele><time>2026-05-04T10:26:18.591Z</time></trkpt><trkpt lat="41.5015326" lon="0.0415099"><ele>286.0</ele><time>2026-05-04T10:26:19.592Z</time></trkpt><trkpt lat="41.5015377" lon="0.0416916"><ele>286.0</ele><time>2026-05-04T10:26:20.606Z</time></trkpt><trkpt lat="41.5015448" lon="0.0418544"><ele>286.25</ele><time>2026-05-04T10:26:21.586Z</time></trkpt><trkpt lat="41.5015506" lon="0.04202"><ele>286.5</ele><time>2026-05-04T10:26:22.597Z</time></trkpt><trkpt lat="41.5015458" lon="0.0421657"><ele>286.75</ele><time>2026-05-04T10:26:23.594Z</time></trkpt><trkpt lat="41.5015491" lon="0.0423203"><ele>287.0</ele><time>2026-05-04T10:26:24.596Z</time></trkpt><trkpt lat="41.5015573" lon="0.0424797"><ele>287.25</ele><time>2026-05-04T10:26:25.604Z</time></trkpt><trkpt lat="41.5015636" lon="0.0426359"><ele>287.5</ele><time>2026-05-04T10:26:26.597Z</time></trkpt><trkpt lat="41.5015674" lon="0.0427968"><ele>287.75</ele><time>2026-05-04T10:26:27.605Z</time></trkpt><trkpt lat="41.5015703" lon="0.0429617"><ele>288.0</ele><time>2026-05-04T10:26:28.599Z</time></trkpt><trkpt lat="41.5015747" lon="0.0431277"><ele>288.0</ele><time>2026-05-04T10:26:29.595Z</time></trkpt><trkpt lat="41.5015785" lon="0.0432939"><ele>288.0</ele><time>2026-05-04T10:26:30.601Z</time></trkpt><trkpt lat="41.5015853" lon="0.0434634"><ele>288.0</ele><time>2026-05-04T10:26:31.6Z</time></trkpt><trkpt lat="41.5015909" lon="0.0436336"><ele>288.0</ele><time>2026-05-04T10:26:32.598Z</time></trkpt><trkpt lat="41.501595" lon="0.0438075"><ele>288.0</ele><time>2026-05-04T10:26:33.598Z</time></trkpt><trkpt lat="41.5016003" lon="0.0439857"><ele>288.0</ele><time>2026-05-04T10:26:34.594Z</time></trkpt><trkpt lat="41.5016073" lon="0.0441616"><ele>288.0</ele><time>2026-05-04T10:26:35.59Z</time></trkpt><trkpt lat="41.5016234" lon="0.0443407"><ele>288.0</ele><time>2026-05-04T10:26:36.596Z</time></trkpt><trkpt lat="41.5016397" lon="0.0445227"><ele>288.0</ele><time>2026-05-04T10:26:37.601Z</time></trkpt><trkpt lat="41.5016564" lon="0.0446966"><ele>288.0</ele><time>2026-05-04T10:26:38.599Z</time></trkpt><trkpt lat="41.5016753" lon="0.0448694"><ele>288.0</ele><time>2026-05-04T10:26:39.594Z</time></trkpt><trkpt lat="41.5016933" lon="0.0450443"><ele>288.0</ele><time>2026-05-04T10:26:40.615Z</time></trkpt><trkpt lat="41.5017203" lon="0.0452206"><ele>288.0</ele><time>2026-05-04T10:26:41.595Z</time></trkpt><trkpt lat="41.5017453" lon="0.0453984"><ele>288.0</ele><time>2026-05-04T10:26:42.598Z</time></trkpt><trkpt lat="41.5017729" lon="0.0455734"><ele>288.0</ele><time>2026-05-04T10:26:43.598Z</time></trkpt><trkpt lat="41.5017987" lon="0.0457458"><ele>288.0</ele><time>2026-05-04T10:26:44.599Z</time></trkpt><trkpt lat="41.5018273" lon="0.0459164"><ele>288.0</ele><time>2026-05-04T10:26:45.597Z</time></trkpt><trkpt lat="41.5018589" lon="0.0460861"><ele>288.0</ele><time>2026-05-04T10:26:46.594Z</time></trkpt><trkpt lat="41.5018938" lon="0.0462582"><ele>288.0</ele><time>2026-05-04T10:26:47.597Z</time></trkpt><trkpt lat="41.5019283" lon="0.0464242"><ele>288.0</ele><time>2026-05-04T10:26:48.597Z</time></trkpt><trkpt lat="41.5019654" lon="0.0465915"><ele>288.0</ele><time>2026-05-04T10:26:49.599Z</time></trkpt><trkpt lat="41.5020048" lon="0.0467624"><ele>288.0</ele><time>2026-05-04T10:26:50.59Z</time></trkpt><trkpt lat="41.5020447" lon="0.0469319"><ele>288.0</ele><time>2026-05-04T10:26:51.601Z</time></trkpt><trkpt lat="41.5020865" lon="0.0471009"><ele>288.0</ele><time>2026-05-04T10:26:52.604Z</time></trkpt><trkpt lat="41.5021314" lon="0.047275"><ele>288.0</ele><time>2026-05-04T10:26:53.6Z</time></trkpt><trkpt lat="41.502181" lon="0.0474467"><ele>288.0</ele><time>2026-05-04T10:26:54.598Z</time></trkpt><trkpt lat="41.5022392" lon="0.0476201"><ele>288.0</ele><time>2026-05-04T10:26:55.599Z</time></trkpt><trkpt lat="41.5023012" lon="0.0477984"><ele>288.0</ele><time>2026-05-04T10:26:56.597Z</time></trkpt><trkpt lat="41.5023602" lon="0.0479637"><ele>288.0</ele><time>2026-05-04T10:26:57.606Z</time></trkpt><trkpt lat="41.5024166" lon="0.0481334"><ele>288.0</ele><time>2026-05-04T10:26:58.598Z</time></trkpt><trkpt lat="41.5024753" lon="0.0482975"><ele>288.0</ele><time>2026-05-04T10:26:59.598Z</time></trkpt><trkpt lat="41.5025372" lon="0.0484669"><ele>288.0</ele><time>2026-05-04T10:27:00.594Z</time></trkpt><trkpt lat="41.5025958" lon="0.048627"><ele>288.0</ele><time>2026-05-04T10:27:01.594Z</time></trkpt><trkpt lat="41.5026569" lon="0.0487897"><ele>288.0</ele><time>2026-05-04T10:27:02.598Z</time></trkpt><trkpt lat="41.5027177" lon="0.048952"><ele>288.0</ele><time>2026-05-04T10:27:03.597Z</time></trkpt><trkpt lat="41.502785" lon="0.0491045"><ele>288.0</ele><time>2026-05-04T10:27:04.595Z</time></trkpt><trkpt lat="41.5028457" lon="0.0492451"><ele>288.25</ele><time>2026-05-04T10:27:05.6Z</time></trkpt><trkpt lat="41.5029048" lon="0.0493813"><ele>288.5</ele><time>2026-05-04T10:27:06.606Z</time></trkpt><trkpt lat="41.5029673" lon="0.0495108"><ele>288.75</ele><time>2026-05-04T10:27:07.597Z</time></trkpt><trkpt lat="41.5030358" lon="0.0496533"><ele>289.0</ele><time>2026-05-04T10:27:08.596Z</time></trkpt><trkpt lat="41.5031024" lon="0.0497883"><ele>288.75</ele><time>2026-05-04T10:27:09.598Z</time></trkpt><trkpt lat="41.5031721" lon="0.0499248"><ele>288.5</ele><time>2026-05-04T10:27:10.596Z</time></trkpt><trkpt lat="41.5032391" lon="0.0500662"><ele>288.25</ele><time>2026-05-04T10:27:11.619Z</time></trkpt><trkpt lat="41.5033072" lon="0.0502152"><ele>288.0</ele><time>2026-05-04T10:27:12.597Z</time></trkpt><trkpt lat="41.5033822" lon="0.0503666"><ele>288.0</ele><time>2026-05-04T10:27:13.591Z</time></trkpt><trkpt lat="41.5034595" lon="0.0505231"><ele>288.0</ele><time>2026-05-04T10:27:14.596Z</time></trkpt><trkpt lat="41.5035361" lon="0.0506762"><ele>288.0</ele><time>2026-05-04T10:27:15.596Z</time></trkpt><trkpt lat="41.5036108" lon="0.050832"><ele>288.0</ele><time>2026-05-04T10:27:16.598Z</time></trkpt><trkpt lat="41.5036865" lon="0.0509903"><ele>287.5</ele><time>2026-05-04T10:27:17.599Z</time></trkpt><trkpt lat="41.5037704" lon="0.0511474"><ele>287.0</ele><time>2026-05-04T10:27:18.598Z</time></trkpt><trkpt lat="41.5038456" lon="0.0513025"><ele>286.5</ele><time>2026-05-04T10:27:19.598Z</time></trkpt><trkpt lat="41.5039209" lon="0.051464"><ele>286.0</ele><time>2026-05-04T10:27:20.598Z</time></trkpt><trkpt lat="41.5039957" lon="0.0516174"><ele>285.75</ele><time>2026-05-04T10:27:21.6Z</time></trkpt><trkpt lat="41.504075" lon="0.0517714"><ele>285.5</ele><time>2026-05-04T10:27:22.601Z</time></trkpt><trkpt lat="41.5041509" lon="0.0519304"><ele>285.25</ele><time>2026-05-04T10:27:23.602Z</time></trkpt><trkpt lat="41.5042257" lon="0.0520783"><ele>285.0</ele><time>2026-05-04T10:27:24.599Z</time></trkpt><trkpt lat="41.5043056" lon="0.0522399"><ele>285.0</ele><time>2026-05-04T10:27:25.602Z</time></trkpt><trkpt lat="41.5043876" lon="0.0523988"><ele>285.0</ele><time>2026-05-04T10:27:26.599Z</time></trkpt><trkpt lat="41.5044632" lon="0.0525521"><ele>285.0</ele><time>2026-05-04T10:27:27.606Z</time></trkpt><trkpt lat="41.5045384" lon="0.0527154"><ele>285.0</ele><time>2026-05-04T10:27:28.603Z</time></trkpt><trkpt lat="41.5046237" lon="0.0528752"><ele>285.75</ele><time>2026-05-04T10:27:29.603Z</time></trkpt><trkpt lat="41.5046964" lon="0.0530191"><ele>286.5</ele><time>2026-05-04T10:27:30.599Z</time></trkpt><trkpt lat="41.5047691" lon="0.0531756"><ele>287.25</ele><time>2026-05-04T10:27:31.595Z</time></trkpt><trkpt lat="41.5048385" lon="0.0533279"><ele>288.0</ele><time>2026-05-04T10:27:32.597Z</time></trkpt><trkpt lat="41.5049184" lon="0.0534767"><ele>288.0</ele><time>2026-05-04T10:27:33.599Z</time></trkpt><trkpt lat="41.5049945" lon="0.0536371"><ele>288.0</ele><time>2026-05-04T10:27:34.599Z</time></trkpt><trkpt lat="41.5050692" lon="0.0537911"><ele>288.0</ele><time>2026-05-04T10:27:35.599Z</time></trkpt><trkpt lat="41.5051445" lon="0.0539489"><ele>288.0</ele><time>2026-05-04T10:27:36.599Z</time></trkpt><trkpt lat="41.5052211" lon="0.0541031"><ele>288.0</ele><time>2026-05-04T10:27:37.6Z</time></trkpt><trkpt lat="41.5053003" lon="0.0542507"><ele>288.0</ele><time>2026-05-04T10:27:38.6Z</time></trkpt><trkpt lat="41.505379" lon="0.0544046"><ele>288.0</ele><time>2026-05-04T10:27:39.601Z</time></trkpt><trkpt lat="41.5054564" lon="0.0545589"><ele>288.0</ele><time>2026-05-04T10:27:40.601Z</time></trkpt><trkpt lat="41.5055313" lon="0.0547191"><ele>288.0</ele><time>2026-05-04T10:27:41.599Z</time></trkpt><trkpt lat="41.5056074" lon="0.0548765"><ele>288.0</ele><time>2026-05-04T10:27:42.619Z</time></trkpt><trkpt lat="41.5056823" lon="0.0550322"><ele>288.0</ele><time>2026-05-04T10:27:43.603Z</time></trkpt><trkpt lat="41.5057607" lon="0.0551919"><ele>288.0</ele><time>2026-05-04T10:27:44.6Z</time></trkpt><trkpt lat="41.5058367" lon="0.0553521"><ele>288.25</ele><time>2026-05-04T10:27:45.599Z</time></trkpt><trkpt lat="41.5059115" lon="0.0555047"><ele>288.5</ele><time>2026-05-04T10:27:46.601Z</time></trkpt><trkpt lat="41.5059897" lon="0.0556641"><ele>288.75</ele><time>2026-05-04T10:27:47.6Z</time></trkpt><trkpt lat="41.5060669" lon="0.0558243"><ele>289.0</ele><time>2026-05-04T10:27:48.598Z</time></trkpt><trkpt lat="41.5061542" lon="0.0559829"><ele>289.0</ele><time>2026-05-04T10:27:49.598Z</time></trkpt><trkpt lat="41.5062364" lon="0.0561493"><ele>289.0</ele><time>2026-05-04T10:27:50.594Z</time></trkpt><trkpt lat="41.5063198" lon="0.0563174"><ele>289.0</ele><time>2026-05-04T10:27:51.598Z</time></trkpt><trkpt lat="41.5064007" lon="0.0564873"><ele>288.25</ele><time>2026-05-04T10:27:52.597Z</time></trkpt><trkpt lat="41.5064909" lon="0.0566598"><ele>287.5</ele><time>2026-05-04T10:27:53.607Z</time></trkpt><trkpt lat="41.5065783" lon="0.0568232"><ele>286.75</ele><time>2026-05-04T10:27:54.599Z</time></trkpt><trkpt lat="41.5066576" lon="0.0569789"><ele>286.0</ele><time>2026-05-04T10:27:55.601Z</time></trkpt><trkpt lat="41.5067401" lon="0.0571337"><ele>286.0</ele><time>2026-05-04T10:27:56.598Z</time></trkpt><trkpt lat="41.5068221" lon="0.057297"><ele>286.0</ele><time>2026-05-04T10:27:57.606Z</time></trkpt><trkpt lat="41.506905" lon="0.0574665"><ele>286.0</ele><time>2026-05-04T10:27:58.604Z</time></trkpt><trkpt lat="41.5069854" lon="0.0576319"><ele>286.0</ele><time>2026-05-04T10:27:59.599Z</time></trkpt><trkpt lat="41.5070699" lon="0.0578061"><ele>285.3333333333333</ele><time>2026-05-04T10:28:00.602Z</time></trkpt><trkpt lat="41.5071514" lon="0.0579776"><ele>284.6666666666667</ele><time>2026-05-04T10:28:01.608Z</time></trkpt><trkpt lat="41.5072329" lon="0.0581469"><ele>284.0</ele><time>2026-05-04T10:28:02.598Z</time></trkpt><trkpt lat="41.5073173" lon="0.0583227"><ele>284.0</ele><time>2026-05-04T10:28:03.598Z</time></trkpt><trkpt lat="41.507405" lon="0.0585021"><ele>284.0</ele><time>2026-05-04T10:28:04.598Z</time></trkpt><trkpt lat="41.5074911" lon="0.0586648"><ele>284.0</ele><time>2026-05-04T10:28:05.595Z</time></trkpt><trkpt lat="41.5075733" lon="0.0588307"><ele>284.0</ele><time>2026-05-04T10:28:06.595Z</time></trkpt><trkpt lat="41.5076544" lon="0.0589929"><ele>284.0</ele><time>2026-05-04T10:28:07.596Z</time></trkpt><trkpt lat="41.5077394" lon="0.0591593"><ele>284.0</ele><time>2026-05-04T10:28:08.597Z</time></trkpt><trkpt lat="41.5078169" lon="0.0593285"><ele>284.0</ele><time>2026-05-04T10:28:09.597Z</time></trkpt><trkpt lat="41.5078937" lon="0.0594987"><ele>284.25</ele><time>2026-05-04T10:28:10.598Z</time></trkpt><trkpt lat="41.507975" lon="0.0596727"><ele>284.5</ele><time>2026-05-04T10:28:11.599Z</time></trkpt><trkpt lat="41.5080515" lon="0.059844"><ele>284.75</ele><time>2026-05-04T10:28:12.6Z</time></trkpt><trkpt lat="41.5081238" lon="0.0600112"><ele>285.0</ele><time>2026-05-04T10:28:13.618Z</time></trkpt><trkpt lat="41.5081878" lon="0.0601719"><ele>285.0</ele><time>2026-05-04T10:28:14.597Z</time></trkpt><trkpt lat="41.5082588" lon="0.0603342"><ele>285.0</ele><time>2026-05-04T10:28:15.602Z</time></trkpt><trkpt lat="41.5083306" lon="0.0604986"><ele>285.0</ele><time>2026-05-04T10:28:16.593Z</time></trkpt><trkpt lat="41.5083977" lon="0.0606658"><ele>285.0</ele><time>2026-05-04T10:28:17.604Z</time></trkpt><trkpt lat="41.5084603" lon="0.0608341"><ele>284.5</ele><time>2026-05-04T10:28:18.597Z</time></trkpt><trkpt lat="41.5085194" lon="0.0609975"><ele>284.0</ele><time>2026-05-04T10:28:19.598Z</time></trkpt><trkpt lat="41.508569" lon="0.0611674"><ele>283.5</ele><time>2026-05-04T10:28:20.594Z</time></trkpt><trkpt lat="41.5086269" lon="0.0613485"><ele>283.0</ele><time>2026-05-04T10:28:21.602Z</time></trkpt><trkpt lat="41.5086801" lon="0.0615246"><ele>282.75</ele><time>2026-05-04T10:28:22.595Z</time></trkpt><trkpt lat="41.5087305" lon="0.0617017"><ele>282.5</ele><time>2026-05-04T10:28:23.603Z</time></trkpt><trkpt lat="41.5087815" lon="0.0618776"><ele>282.25</ele><time>2026-05-04T10:28:24.608Z</time></trkpt><trkpt lat="41.5088245" lon="0.0620556"><ele>282.0</ele><time>2026-05-04T10:28:25.611Z</time></trkpt><trkpt lat="41.508868" lon="0.0622325"><ele>282.25</ele><time>2026-05-04T10:28:26.6Z</time></trkpt><trkpt lat="41.5089179" lon="0.0624158"><ele>282.5</ele><time>2026-05-04T10:28:27.61Z</time></trkpt><trkpt lat="41.5089609" lon="0.0625997"><ele>282.75</ele><time>2026-05-04T10:28:28.603Z</time></trkpt><trkpt lat="41.5089987" lon="0.0627793"><ele>283.0</ele><time>2026-05-04T10:28:29.601Z</time></trkpt><trkpt lat="41.5090393" lon="0.0629573"><ele>283.0</ele><time>2026-05-04T10:28:30.602Z</time></trkpt><trkpt lat="41.5090773" lon="0.0631402"><ele>283.0</ele><time>2026-05-04T10:28:31.601Z</time></trkpt><trkpt lat="41.5091056" lon="0.0633293"><ele>283.0</ele><time>2026-05-04T10:28:32.602Z</time></trkpt><trkpt lat="41.5091374" lon="0.0635275"><ele>283.0</ele><time>2026-05-04T10:28:33.597Z</time></trkpt><trkpt lat="41.5091632" lon="0.063713"><ele>283.5</ele><time>2026-05-04T10:28:34.599Z</time></trkpt><trkpt lat="41.5091879" lon="0.0639056"><ele>284.0</ele><time>2026-05-04T10:28:35.598Z</time></trkpt><trkpt lat="41.5092187" lon="0.0640954"><ele>284.5</ele><time>2026-05-04T10:28:36.597Z</time></trkpt><trkpt lat="41.5092408" lon="0.0642886"><ele>285.0</ele><time>2026-05-04T10:28:37.595Z</time></trkpt><trkpt lat="41.5092599" lon="0.0644844"><ele>286.0</ele><time>2026-05-04T10:28:38.602Z</time></trkpt><trkpt lat="41.5092697" lon="0.0646727"><ele>287.0</ele><time>2026-05-04T10:28:39.597Z</time></trkpt><trkpt lat="41.5092864" lon="0.0648639"><ele>288.0</ele><time>2026-05-04T10:28:40.6Z</time></trkpt><trkpt lat="41.5093025" lon="0.0650561"><ele>289.0</ele><time>2026-05-04T10:28:41.599Z</time></trkpt><trkpt lat="41.509309" lon="0.0652457"><ele>289.0</ele><time>2026-05-04T10:28:42.606Z</time></trkpt><trkpt lat="41.5093088" lon="0.065434"><ele>289.0</ele><time>2026-05-04T10:28:43.602Z</time></trkpt><trkpt lat="41.5093095" lon="0.0656251"><ele>289.0</ele><time>2026-05-04T10:28:44.622Z</time></trkpt><trkpt lat="41.5093181" lon="0.065823"><ele>289.0</ele><time>2026-05-04T10:28:45.599Z</time></trkpt><trkpt lat="41.509316" lon="0.0660164"><ele>288.25</ele><time>2026-05-04T10:28:46.6Z</time></trkpt><trkpt lat="41.5093118" lon="0.0662083"><ele>287.5</ele><time>2026-05-04T10:28:47.599Z</time></trkpt><trkpt lat="41.5093066" lon="0.0664054"><ele>286.75</ele><time>2026-05-04T10:28:48.597Z</time></trkpt><trkpt lat="41.5093074" lon="0.0666028"><ele>286.0</ele><time>2026-05-04T10:28:49.599Z</time></trkpt><trkpt lat="41.5092998" lon="0.0667974"><ele>284.75</ele><time>2026-05-04T10:28:50.603Z</time></trkpt><trkpt lat="41.509292" lon="0.0669908"><ele>283.5</ele><time>2026-05-04T10:28:51.597Z</time></trkpt><trkpt lat="41.5092772" lon="0.0671948"><ele>282.25</ele><time>2026-05-04T10:28:52.599Z</time></trkpt><trkpt lat="41.5092632" lon="0.0673948"><ele>281.0</ele><time>2026-05-04T10:28:53.601Z</time></trkpt><trkpt lat="41.5092407" lon="0.0675956"><ele>280.6666666666667</ele><time>2026-05-04T10:28:54.608Z</time></trkpt><trkpt lat="41.5092149" lon="0.0677912"><ele>280.3333333333333</ele><time>2026-05-04T10:28:55.606Z</time></trkpt><trkpt lat="41.5091864" lon="0.067993"><ele>280.0</ele><time>2026-05-04T10:28:56.6Z</time></trkpt><trkpt lat="41.5091489" lon="0.0681878"><ele>279.25</ele><time>2026-05-04T10:28:57.608Z</time></trkpt><trkpt lat="41.5091154" lon="0.0683889"><ele>278.5</ele><time>2026-05-04T10:28:58.605Z</time></trkpt><trkpt lat="41.5090842" lon="0.0685851"><ele>277.75</ele><time>2026-05-04T10:28:59.615Z</time></trkpt><trkpt lat="41.5090533" lon="0.0687714"><ele>277.0</ele><time>2026-05-04T10:29:00.604Z</time></trkpt><trkpt lat="41.5090161" lon="0.0689534"><ele>276.5</ele><time>2026-05-04T10:29:01.612Z</time></trkpt><trkpt lat="41.5089814" lon="0.0691461"><ele>276.0</ele><time>2026-05-04T10:29:02.605Z</time></trkpt><trkpt lat="41.5089458" lon="0.0693269"><ele>275.5</ele><time>2026-05-04T10:29:03.605Z</time></trkpt><trkpt lat="41.5089112" lon="0.0695188"><ele>275.0</ele><time>2026-05-04T10:29:04.605Z</time></trkpt><trkpt lat="41.5088821" lon="0.0697074"><ele>275.0</ele><time>2026-05-04T10:29:05.604Z</time></trkpt><trkpt lat="41.5088592" lon="0.0698987"><ele>275.0</ele><time>2026-05-04T10:29:06.604Z</time></trkpt><trkpt lat="41.5088215" lon="0.0700891"><ele>275.0</ele><time>2026-05-04T10:29:07.605Z</time></trkpt><trkpt lat="41.50878" lon="0.0702876"><ele>275.0</ele><time>2026-05-04T10:29:08.604Z</time></trkpt><trkpt lat="41.5087492" lon="0.0704812"><ele>275.25</ele><time>2026-05-04T10:29:09.601Z</time></trkpt><trkpt lat="41.5087157" lon="0.0706817"><ele>275.5</ele><time>2026-05-04T10:29:10.598Z</time></trkpt><trkpt lat="41.5086867" lon="0.0708782"><ele>275.75</ele><time>2026-05-04T10:29:11.597Z</time></trkpt><trkpt lat="41.5086517" lon="0.0710661"><ele>276.0</ele><time>2026-05-04T10:29:12.6Z</time></trkpt><trkpt lat="41.5086193" lon="0.0712662"><ele>276.0</ele><time>2026-05-04T10:29:13.603Z</time></trkpt><trkpt lat="41.5085965" lon="0.0714582"><ele>276.0</ele><time>2026-05-04T10:29:14.602Z</time></trkpt><trkpt lat="41.5085752" lon="0.0716557"><ele>276.0</ele><time>2026-05-04T10:29:15.64Z</time></trkpt><trkpt lat="41.508554" lon="0.0718424"><ele>276.0</ele><time>2026-05-04T10:29:16.595Z</time></trkpt><trkpt lat="41.5085333" lon="0.0720355"><ele>276.0</ele><time>2026-05-04T10:29:17.606Z</time></trkpt><trkpt lat="41.50851" lon="0.0722295"><ele>276.0</ele><time>2026-05-04T10:29:18.6Z</time></trkpt><trkpt lat="41.5085001" lon="0.0724144"><ele>276.0</ele><time>2026-05-04T10:29:19.607Z</time></trkpt><trkpt lat="41.5084896" lon="0.0726006"><ele>276.0</ele><time>2026-05-04T10:29:20.601Z</time></trkpt><trkpt lat="41.5084803" lon="0.0727909"><ele>276.0</ele><time>2026-05-04T10:29:21.603Z</time></trkpt><trkpt lat="41.5084726" lon="0.0729941"><ele>276.0</ele><time>2026-05-04T10:29:22.603Z</time></trkpt><trkpt lat="41.5084671" lon="0.0731829"><ele>276.0</ele><time>2026-05-04T10:29:23.608Z</time></trkpt><trkpt lat="41.5084577" lon="0.0733746"><ele>276.0</ele><time>2026-05-04T10:29:24.607Z</time></trkpt><trkpt lat="41.5084617" lon="0.0735702"><ele>276.0</ele><time>2026-05-04T10:29:25.613Z</time></trkpt><trkpt lat="41.5084603" lon="0.0737525"><ele>276.0</ele><time>2026-05-04T10:29:26.603Z</time></trkpt><trkpt lat="41.5084645" lon="0.073948"><ele>276.0</ele><time>2026-05-04T10:29:27.614Z</time></trkpt><trkpt lat="41.5084656" lon="0.0741349"><ele>276.0</ele><time>2026-05-04T10:29:28.605Z</time></trkpt><trkpt lat="41.5084699" lon="0.0743278"><ele>276.75</ele><time>2026-05-04T10:29:29.606Z</time></trkpt><trkpt lat="41.5084805" lon="0.0745261"><ele>277.5</ele><time>2026-05-04T10:29:30.602Z</time></trkpt><trkpt lat="41.5084944" lon="0.0747165"><ele>278.25</ele><time>2026-05-04T10:29:31.605Z</time></trkpt><trkpt lat="41.5085098" lon="0.074913"><ele>279.0</ele><time>2026-05-04T10:29:32.602Z</time></trkpt><trkpt lat="41.5085229" lon="0.0750976"><ele>279.0</ele><time>2026-05-04T10:29:33.606Z</time></trkpt><trkpt lat="41.5085402" lon="0.075278"><ele>279.0</ele><time>2026-05-04T10:29:34.604Z</time></trkpt><trkpt lat="41.5085576" lon="0.0754663"><ele>279.0</ele><time>2026-05-04T10:29:35.604Z</time></trkpt><trkpt lat="41.5085789" lon="0.0756511"><ele>279.0</ele><time>2026-05-04T10:29:36.602Z</time></trkpt><trkpt lat="41.5086027" lon="0.0758267"><ele>279.0</ele><time>2026-05-04T10:29:37.605Z</time></trkpt><trkpt lat="41.5086274" lon="0.0759905"><ele>279.0</ele><time>2026-05-04T10:29:38.603Z</time></trkpt><trkpt lat="41.508648" lon="0.076156"><ele>279.0</ele><time>2026-05-04T10:29:39.606Z</time></trkpt><trkpt lat="41.5086716" lon="0.0763098"><ele>279.0</ele><time>2026-05-04T10:29:40.6Z</time></trkpt><trkpt lat="41.5086989" lon="0.0764705"><ele>278.75</ele><time>2026-05-04T10:29:41.595Z</time></trkpt><trkpt lat="41.5087331" lon="0.07665"><ele>278.5</ele><time>2026-05-04T10:29:42.595Z</time></trkpt><trkpt lat="41.5087744" lon="0.0768371"><ele>278.25</ele><time>2026-05-04T10:29:43.595Z</time></trkpt><trkpt lat="41.5088066" lon="0.0770164"><ele>278.0</ele><time>2026-05-04T10:29:44.595Z</time></trkpt><trkpt lat="41.5088394" lon="0.0771944"><ele>278.25</ele><time>2026-05-04T10:29:45.613Z</time></trkpt><trkpt lat="41.508875" lon="0.0773788"><ele>278.5</ele><time>2026-05-04T10:29:46.6Z</time></trkpt><trkpt lat="41.5089153" lon="0.0775575"><ele>278.75</ele><time>2026-05-04T10:29:47.599Z</time></trkpt><trkpt lat="41.5089535" lon="0.0777364"><ele>279.0</ele><time>2026-05-04T10:29:48.597Z</time></trkpt><trkpt lat="41.5089922" lon="0.0779127"><ele>279.0</ele><time>2026-05-04T10:29:49.597Z</time></trkpt><trkpt lat="41.5090378" lon="0.0780971"><ele>279.0</ele><time>2026-05-04T10:29:50.598Z</time></trkpt><trkpt lat="41.5090898" lon="0.0782748"><ele>279.0</ele><time>2026-05-04T10:29:51.598Z</time></trkpt><trkpt lat="41.5091432" lon="0.0784589"><ele>279.0</ele><time>2026-05-04T10:29:52.598Z</time></trkpt><trkpt lat="41.5091918" lon="0.0786409"><ele>279.0</ele><time>2026-05-04T10:29:53.597Z</time></trkpt><trkpt lat="41.5092439" lon="0.0788111"><ele>279.0</ele><time>2026-05-04T10:29:54.602Z</time></trkpt><trkpt lat="41.5093021" lon="0.0789762"><ele>279.0</ele><time>2026-05-04T10:29:55.602Z</time></trkpt><trkpt lat="41.5093596" lon="0.0791424"><ele>279.0</ele><time>2026-05-04T10:29:56.598Z</time></trkpt><trkpt lat="41.5094157" lon="0.0793044"><ele>279.0</ele><time>2026-05-04T10:29:57.618Z</time></trkpt><trkpt lat="41.5094748" lon="0.0794669"><ele>279.0</ele><time>2026-05-04T10:29:58.601Z</time></trkpt><trkpt lat="41.5095307" lon="0.079611"><ele>279.0</ele><time>2026-05-04T10:29:59.611Z</time></trkpt><trkpt lat="41.5095845" lon="0.079769"><ele>279.0</ele><time>2026-05-04T10:30:00.601Z</time></trkpt><trkpt lat="41.5096399" lon="0.0799293"><ele>279.25</ele><time>2026-05-04T10:30:01.602Z</time></trkpt><trkpt lat="41.5096951" lon="0.0800868"><ele>279.5</ele><time>2026-05-04T10:30:02.601Z</time></trkpt><trkpt lat="41.5097498" lon="0.0802374"><ele>279.75</ele><time>2026-05-04T10:30:03.597Z</time></trkpt><trkpt lat="41.5098038" lon="0.0803948"><ele>280.0</ele><time>2026-05-04T10:30:04.604Z</time></trkpt><trkpt lat="41.5098592" lon="0.0805538"><ele>280.0</ele><time>2026-05-04T10:30:05.597Z</time></trkpt><trkpt lat="41.5099253" lon="0.0807259"><ele>280.0</ele><time>2026-05-04T10:30:06.603Z</time></trkpt><trkpt lat="41.5099876" lon="0.0808947"><ele>280.0</ele><time>2026-05-04T10:30:07.602Z</time></trkpt><trkpt lat="41.5100484" lon="0.0810673"><ele>280.0</ele><time>2026-05-04T10:30:08.624Z</time></trkpt><trkpt lat="41.5101113" lon="0.0812395"><ele>279.25</ele><time>2026-05-04T10:30:09.599Z</time></trkpt><trkpt lat="41.5101703" lon="0.0814135"><ele>278.5</ele><time>2026-05-04T10:30:10.602Z</time></trkpt><trkpt lat="41.5102307" lon="0.0815904"><ele>277.75</ele><time>2026-05-04T10:30:11.592Z</time></trkpt><trkpt lat="41.5102852" lon="0.0817557"><ele>277.0</ele><time>2026-05-04T10:30:12.593Z</time></trkpt><trkpt lat="41.5103496" lon="0.0819274"><ele>276.5</ele><time>2026-05-04T10:30:13.597Z</time></trkpt><trkpt lat="41.5104134" lon="0.0821"><ele>276.0</ele><time>2026-05-04T10:30:14.598Z</time></trkpt><trkpt lat="41.5104828" lon="0.082276"><ele>275.5</ele><time>2026-05-04T10:30:15.599Z</time></trkpt><trkpt lat="41.5105459" lon="0.0824467"><ele>275.0</ele><time>2026-05-04T10:30:16.615Z</time></trkpt><trkpt lat="41.5106114" lon="0.0826197"><ele>275.0</ele><time>2026-05-04T10:30:17.604Z</time></trkpt><trkpt lat="41.5106631" lon="0.0827813"><ele>275.0</ele><time>2026-05-04T10:30:18.593Z</time></trkpt><trkpt lat="41.5107194" lon="0.08295"><ele>275.0</ele><time>2026-05-04T10:30:19.603Z</time></trkpt><trkpt lat="41.5107796" lon="0.0831177"><ele>275.0</ele><time>2026-05-04T10:30:20.597Z</time></trkpt><trkpt lat="41.5108494" lon="0.0832813"><ele>275.5</ele><time>2026-05-04T10:30:21.605Z</time></trkpt><trkpt lat="41.510915" lon="0.0834471"><ele>276.0</ele><time>2026-05-04T10:30:22.6Z</time></trkpt><trkpt lat="41.5109831" lon="0.0836196"><ele>276.5</ele><time>2026-05-04T10:30:23.602Z</time></trkpt><trkpt lat="41.5110423" lon="0.0837863"><ele>277.0</ele><time>2026-05-04T10:30:24.593Z</time></trkpt><trkpt lat="41.5110976" lon="0.0839482"><ele>277.0</ele><time>2026-05-04T10:30:25.603Z</time></trkpt><trkpt lat="41.5111537" lon="0.0841082"><ele>277.0</ele><time>2026-05-04T10:30:26.594Z</time></trkpt><trkpt lat="41.5112118" lon="0.0842637"><ele>277.0</ele><time>2026-05-04T10:30:27.603Z</time></trkpt><trkpt lat="41.5112621" lon="0.0844214"><ele>277.0</ele><time>2026-05-04T10:30:28.604Z</time></trkpt><trkpt lat="41.5113202" lon="0.0845829"><ele>277.0</ele><time>2026-05-04T10:30:29.596Z</time></trkpt><trkpt lat="41.511377" lon="0.0847449"><ele>277.0</ele><time>2026-05-04T10:30:30.598Z</time></trkpt><trkpt lat="41.5114397" lon="0.0849045"><ele>277.0</ele><time>2026-05-04T10:30:31.604Z</time></trkpt><trkpt lat="41.511501" lon="0.0850645"><ele>277.0</ele><time>2026-05-04T10:30:32.597Z</time></trkpt><trkpt lat="41.511564" lon="0.0852227"><ele>277.25</ele><time>2026-05-04T10:30:33.598Z</time></trkpt><trkpt lat="41.5116287" lon="0.0853966"><ele>277.5</ele><time>2026-05-04T10:30:34.595Z</time></trkpt><trkpt lat="41.5116812" lon="0.0855687"><ele>277.75</ele><time>2026-05-04T10:30:35.592Z</time></trkpt><trkpt lat="41.5117457" lon="0.0857446"><ele>278.0</ele><time>2026-05-04T10:30:36.593Z</time></trkpt><trkpt lat="41.5118136" lon="0.0859089"><ele>279.0</ele><time>2026-05-04T10:30:37.599Z</time></trkpt><trkpt lat="41.5118673" lon="0.0860742"><ele>280.0</ele><time>2026-05-04T10:30:38.593Z</time></trkpt><trkpt lat="41.5119282" lon="0.0862482"><ele>281.0</ele><time>2026-05-04T10:30:39.596Z</time></trkpt><trkpt lat="41.5119885" lon="0.086426"><ele>282.0</ele><time>2026-05-04T10:30:40.605Z</time></trkpt><trkpt lat="41.512047" lon="0.086595"><ele>281.5</ele><time>2026-05-04T10:30:41.588Z</time></trkpt><trkpt lat="41.5121059" lon="0.0867687"><ele>281.0</ele><time>2026-05-04T10:30:42.599Z</time></trkpt><trkpt lat="41.5121698" lon="0.0869458"><ele>280.5</ele><time>2026-05-04T10:30:43.598Z</time></trkpt><trkpt lat="41.5122273" lon="0.0871135"><ele>280.0</ele><time>2026-05-04T10:30:44.598Z</time></trkpt><trkpt lat="41.5122858" lon="0.0872695"><ele>280.0</ele><time>2026-05-04T10:30:45.593Z</time></trkpt><trkpt lat="41.5123389" lon="0.0874067"><ele>280.0</ele><time>2026-05-04T10:30:46.596Z</time></trkpt><trkpt lat="41.5123943" lon="0.0875553"><ele>280.0</ele><time>2026-05-04T10:30:47.614Z</time></trkpt><trkpt lat="41.5124466" lon="0.0877013"><ele>280.0</ele><time>2026-05-04T10:30:48.59Z</time></trkpt><trkpt lat="41.5124997" lon="0.0878474"><ele>280.2</ele><time>2026-05-04T10:30:49.596Z</time></trkpt><trkpt lat="41.5125436" lon="0.0879888"><ele>280.4</ele><time>2026-05-04T10:30:50.595Z</time></trkpt><trkpt lat="41.5125884" lon="0.0881131"><ele>280.6</ele><time>2026-05-04T10:30:51.595Z</time></trkpt><trkpt lat="41.5126259" lon="0.0882348"><ele>280.8</ele><time>2026-05-04T10:30:52.593Z</time></trkpt><trkpt lat="41.5126566" lon="0.0883452"><ele>281.0</ele><time>2026-05-04T10:30:53.594Z</time></trkpt><trkpt lat="41.5126804" lon="0.0884436"><ele>281.5</ele><time>2026-05-04T10:30:54.591Z</time></trkpt><trkpt lat="41.5126979" lon="0.0885333"><ele>282.0</ele><time>2026-05-04T10:30:55.6Z</time></trkpt><trkpt lat="41.5127054" lon="0.0886535"><ele>282.5</ele><time>2026-05-04T10:30:57.603Z</time></trkpt><trkpt lat="41.5127367" lon="0.0887504"><ele>283.0</ele><time>2026-05-04T10:31:00.597Z</time></trkpt><trkpt lat="41.5127967" lon="0.0888145"><ele>283.5</ele><time>2026-05-04T10:31:03.594Z</time></trkpt><trkpt lat="41.5128435" lon="0.0889142"><ele>284.0</ele><time>2026-05-04T10:31:35.593Z</time></trkpt><trkpt lat="41.5128714" lon="0.0890175"><ele>284.1428571428571</ele><time>2026-05-04T10:31:38.594Z</time></trkpt><trkpt lat="41.5129033" lon="0.0891022"><ele>284.2857142857143</ele><time>2026-05-04T10:31:41.596Z</time></trkpt><trkpt lat="41.512918" lon="0.0891842"><ele>284.42857142857144</ele><time>2026-05-04T10:31:46.601Z</time></trkpt><trkpt lat="41.5129498" lon="0.0892623"><ele>284.57142857142856</ele><time>2026-05-04T10:31:56.598Z</time></trkpt><trkpt lat="41.5129647" lon="0.0893515"><ele>284.7142857142857</ele><time>2026-05-04T10:32:00.597Z</time></trkpt><trkpt lat="41.5129364" lon="0.0892671"><ele>284.85714285714283</ele><time>2026-05-04T10:36:01.593Z</time></trkpt><trkpt lat="41.5129072" lon="0.0891889"><ele>285.0</ele><time>2026-05-04T10:36:02.582Z</time></trkpt><trkpt lat="41.5128584" lon="0.0892629"><ele>285.5</ele><time>2026-05-04T10:36:55.601Z</time></trkpt><trkpt lat="41.5129175" lon="0.0893095"><ele>286.0</ele><time>2026-05-04T10:37:30.604Z</time></trkpt><trkpt lat="41.512982" lon="0.0894311"><ele>286.5</ele><time>2026-05-04T10:38:29.584Z</time></trkpt><trkpt lat="41.5130377" lon="0.089574"><ele>287.0</ele><time>2026-05-04T10:38:31.597Z</time></trkpt><trkpt lat="41.5130742" lon="0.0896458"><ele>287.5</ele><time>2026-05-04T10:38:32.584Z</time></trkpt><trkpt lat="41.5131108" lon="0.0897174"><ele>288.0</ele><time>2026-05-04T10:38:33.584Z</time></trkpt><trkpt lat="41.513157" lon="0.0897926"><ele>288.0</ele><time>2026-05-04T10:38:34.577Z</time></trkpt><trkpt lat="41.5132018" lon="0.0898753"><ele>288.0</ele><time>2026-05-04T10:38:35.583Z</time></trkpt><trkpt lat="41.5132436" lon="0.0899677"><ele>288.0</ele><time>2026-05-04T10:38:36.586Z</time></trkpt><trkpt lat="41.5132882" lon="0.0900715"><ele>288.0</ele><time>2026-05-04T10:38:37.582Z</time></trkpt><trkpt lat="41.5133378" lon="0.0901888"><ele>288.0</ele><time>2026-05-04T10:38:38.581Z</time></trkpt><trkpt lat="41.5133772" lon="0.0903084"><ele>288.0</ele><time>2026-05-04T10:38:39.579Z</time></trkpt><trkpt lat="41.5134162" lon="0.0904331"><ele>287.8</ele><time>2026-05-04T10:38:40.582Z</time></trkpt><trkpt lat="41.5134538" lon="0.0905626"><ele>287.6</ele><time>2026-05-04T10:38:41.583Z</time></trkpt><trkpt lat="41.5134819" lon="0.0906931"><ele>287.4</ele><time>2026-05-04T10:38:42.583Z</time></trkpt><trkpt lat="41.5135084" lon="0.0908263"><ele>287.2</ele><time>2026-05-04T10:38:43.58Z</time></trkpt><trkpt lat="41.5135318" lon="0.0909588"><ele>287.0</ele><time>2026-05-04T10:38:44.586Z</time></trkpt><trkpt lat="41.5135405" lon="0.0910871"><ele>287.5</ele><time>2026-05-04T10:38:45.586Z</time></trkpt><trkpt lat="41.5135291" lon="0.0912111"><ele>288.0</ele><time>2026-05-04T10:38:46.573Z</time></trkpt><trkpt lat="41.5135482" lon="0.091377"><ele>288.5</ele><time>2026-05-04T10:38:47.568Z</time></trkpt><trkpt lat="41.5135669" lon="0.0915377"><ele>289.0</ele><time>2026-05-04T10:38:48.573Z</time></trkpt><trkpt lat="41.51357" lon="0.0916994"><ele>289.66666666666663</ele><time>2026-05-04T10:38:49.575Z</time></trkpt><trkpt lat="41.5135758" lon="0.0918587"><ele>290.3333333333333</ele><time>2026-05-04T10:38:50.575Z</time></trkpt><trkpt lat="41.5135775" lon="0.0921905"><ele>291.0</ele><time>2026-05-04T10:38:52.566Z</time></trkpt><trkpt lat="41.5135706" lon="0.0923725"><ele>291.75</ele><time>2026-05-04T10:38:53.561Z</time></trkpt><trkpt lat="41.5135569" lon="0.0925542"><ele>292.5</ele><time>2026-05-04T10:38:54.573Z</time></trkpt><trkpt lat="41.5135452" lon="0.0927302"><ele>293.25</ele><time>2026-05-04T10:38:55.577Z</time></trkpt><trkpt lat="41.5135287" lon="0.0929121"><ele>294.0</ele><time>2026-05-04T10:38:56.577Z</time></trkpt><trkpt lat="41.5135053" lon="0.0930968"><ele>294.75</ele><time>2026-05-04T10:38:57.584Z</time></trkpt><trkpt lat="41.5134859" lon="0.0932822"><ele>295.5</ele><time>2026-05-04T10:38:58.575Z</time></trkpt><trkpt lat="41.5134547" lon="0.0934698"><ele>296.25</ele><time>2026-05-04T10:38:59.574Z</time></trkpt><trkpt lat="41.5134351" lon="0.0936586"><ele>297.0</ele><time>2026-05-04T10:39:00.579Z</time></trkpt><trkpt lat="41.5134075" lon="0.093839"><ele>297.0</ele><time>2026-05-04T10:39:01.578Z</time></trkpt><trkpt lat="41.5133874" lon="0.0939736"><ele>297.0</ele><time>2026-05-04T10:39:02.599Z</time></trkpt><trkpt lat="41.5133812" lon="0.0941121"><ele>297.0</ele><time>2026-05-04T10:39:04.574Z</time></trkpt><trkpt lat="41.5133566" lon="0.0942591"><ele>297.0</ele><time>2026-05-04T10:39:05.579Z</time></trkpt><trkpt lat="41.5133196" lon="0.0944827"><ele>299.0</ele><time>2026-05-04T10:39:06.567Z</time></trkpt><trkpt lat="41.5132944" lon="0.0946815"><ele>301.0</ele><time>2026-05-04T10:39:07.576Z</time></trkpt><trkpt lat="41.5132629" lon="0.0948759"><ele>303.0</ele><time>2026-05-04T10:39:08.567Z</time></trkpt><trkpt lat="41.5132414" lon="0.0950804"><ele>305.0</ele><time>2026-05-04T10:39:09.569Z</time></trkpt><trkpt lat="41.513215" lon="0.0952894"><ele>307.0</ele><time>2026-05-04T10:39:10.572Z</time></trkpt><trkpt lat="41.5131928" lon="0.0955016"><ele>309.0</ele><time>2026-05-04T10:39:11.575Z</time></trkpt><trkpt lat="41.5131775" lon="0.0957028"><ele>309.5</ele><time>2026-05-04T10:39:12.579Z</time></trkpt><trkpt lat="41.5131621" lon="0.0958923"><ele>310.0</ele><time>2026-05-04T10:39:13.58Z</time></trkpt><trkpt lat="41.5131425" lon="0.096085"><ele>310.5</ele><time>2026-05-04T10:39:14.588Z</time></trkpt><trkpt lat="41.5131192" lon="0.0962702"><ele>311.0</ele><time>2026-05-04T10:39:15.576Z</time></trkpt><trkpt lat="41.5131002" lon="0.0964584"><ele>312.0</ele><time>2026-05-04T10:39:16.576Z</time></trkpt><trkpt lat="41.513052" lon="0.0966968"><ele>313.0</ele><time>2026-05-04T10:39:17.575Z</time></trkpt><trkpt lat="41.512996" lon="0.0969295"><ele>314.0</ele><time>2026-05-04T10:39:18.558Z</time></trkpt><trkpt lat="41.5129817" lon="0.0971502"><ele>314.0</ele><time>2026-05-04T10:39:19.576Z</time></trkpt><trkpt lat="41.5129706" lon="0.0973346"><ele>314.0</ele><time>2026-05-04T10:39:20.567Z</time></trkpt><trkpt lat="41.512934" lon="0.097647"><ele>314.0</ele><time>2026-05-04T10:39:22.581Z</time></trkpt><trkpt lat="41.5129143" lon="0.0978004"><ele>314.25</ele><time>2026-05-04T10:39:23.578Z</time></trkpt><trkpt lat="41.5129015" lon="0.0979579"><ele>314.5</ele><time>2026-05-04T10:39:24.58Z</time></trkpt><trkpt lat="41.5128985" lon="0.0981149"><ele>314.75</ele><time>2026-05-04T10:39:25.576Z</time></trkpt><trkpt lat="41.5128836" lon="0.0982763"><ele>315.0</ele><time>2026-05-04T10:39:26.579Z</time></trkpt><trkpt lat="41.5128681" lon="0.0984462"><ele>316.25</ele><time>2026-05-04T10:39:27.584Z</time></trkpt><trkpt lat="41.5128504" lon="0.0986259"><ele>317.5</ele><time>2026-05-04T10:39:28.582Z</time></trkpt><trkpt lat="41.5128281" lon="0.0988102"><ele>318.75</ele><time>2026-05-04T10:39:29.585Z</time></trkpt><trkpt lat="41.512805" lon="0.0990048"><ele>320.0</ele><time>2026-05-04T10:39:30.581Z</time></trkpt><trkpt lat="41.512785" lon="0.0991935"><ele>320.0</ele><time>2026-05-04T10:39:31.579Z</time></trkpt><trkpt lat="41.5127657" lon="0.0993843"><ele>320.0</ele><time>2026-05-04T10:39:32.58Z</time></trkpt><trkpt lat="41.5127509" lon="0.0995789"><ele>320.0</ele><time>2026-05-04T10:39:33.597Z</time></trkpt><trkpt lat="41.5127427" lon="0.0997712"><ele>320.0</ele><time>2026-05-04T10:39:34.581Z</time></trkpt><trkpt lat="41.5127423" lon="0.0999743"><ele>319.75</ele><time>2026-05-04T10:39:35.582Z</time></trkpt><trkpt lat="41.5127514" lon="0.1001746"><ele>319.5</ele><time>2026-05-04T10:39:36.581Z</time></trkpt><trkpt lat="41.5127668" lon="0.1003724"><ele>319.25</ele><time>2026-05-04T10:39:37.581Z</time></trkpt><trkpt lat="41.5127993" lon="0.1005666"><ele>319.0</ele><time>2026-05-04T10:39:38.584Z</time></trkpt><trkpt lat="41.5128255" lon="0.1007203"><ele>319.0</ele><time>2026-05-04T10:39:39.593Z</time></trkpt><trkpt lat="41.5128438" lon="0.1008542"><ele>319.0</ele><time>2026-05-04T10:39:40.585Z</time></trkpt><trkpt lat="41.5128874" lon="0.1010045"><ele>319.0</ele><time>2026-05-04T10:39:41.589Z</time></trkpt><trkpt lat="41.5129404" lon="0.1011717"><ele>319.0</ele><time>2026-05-04T10:39:42.571Z</time></trkpt><trkpt lat="41.5129837" lon="0.1013725"><ele>318.66666666666663</ele><time>2026-05-04T10:39:43.582Z</time></trkpt><trkpt lat="41.5130538" lon="0.1015911"><ele>318.3333333333333</ele><time>2026-05-04T10:39:44.571Z</time></trkpt><trkpt lat="41.513125" lon="0.1018187"><ele>318.0</ele><time>2026-05-04T10:39:45.586Z</time></trkpt><trkpt lat="41.5131797" lon="0.1020326"><ele>318.0</ele><time>2026-05-04T10:39:46.571Z</time></trkpt><trkpt lat="41.5132437" lon="0.1022545"><ele>318.0</ele><time>2026-05-04T10:39:47.572Z</time></trkpt><trkpt lat="41.5133166" lon="0.1024364"><ele>318.0</ele><time>2026-05-04T10:39:48.572Z</time></trkpt><trkpt lat="41.513393" lon="0.1026335"><ele>318.25</ele><time>2026-05-04T10:39:49.57Z</time></trkpt><trkpt lat="41.5134573" lon="0.1028154"><ele>318.5</ele><time>2026-05-04T10:39:50.573Z</time></trkpt><trkpt lat="41.5135163" lon="0.1030086"><ele>318.75</ele><time>2026-05-04T10:39:51.58Z</time></trkpt><trkpt lat="41.513568" lon="0.1031856"><ele>319.0</ele><time>2026-05-04T10:39:52.574Z</time></trkpt><trkpt lat="41.5136305" lon="0.1033701"><ele>319.0</ele><time>2026-05-04T10:39:53.58Z</time></trkpt><trkpt lat="41.5136914" lon="0.1035648"><ele>319.0</ele><time>2026-05-04T10:39:54.585Z</time></trkpt><trkpt lat="41.5137553" lon="0.1037618"><ele>319.0</ele><time>2026-05-04T10:39:55.584Z</time></trkpt><trkpt lat="41.5138175" lon="0.1039611"><ele>318.75</ele><time>2026-05-04T10:39:56.582Z</time></trkpt><trkpt lat="41.5138805" lon="0.1041479"><ele>318.5</ele><time>2026-05-04T10:39:57.596Z</time></trkpt><trkpt lat="41.513917" lon="0.1043448"><ele>318.25</ele><time>2026-05-04T10:39:58.583Z</time></trkpt><trkpt lat="41.5139332" lon="0.1044805"><ele>318.0</ele><time>2026-05-04T10:39:59.579Z</time></trkpt><trkpt lat="41.5139661" lon="0.104633"><ele>318.0</ele><time>2026-05-04T10:40:00.555Z</time></trkpt><trkpt lat="41.5140484" lon="0.1048433"><ele>318.0</ele><time>2026-05-04T10:40:01.572Z</time></trkpt><trkpt lat="41.5141322" lon="0.1050356"><ele>318.0</ele><time>2026-05-04T10:40:02.577Z</time></trkpt><trkpt lat="41.5141755" lon="0.1052421"><ele>317.6666666666667</ele><time>2026-05-04T10:40:03.57Z</time></trkpt><trkpt lat="41.5142628" lon="0.1054439"><ele>317.33333333333337</ele><time>2026-05-04T10:40:04.59Z</time></trkpt><trkpt lat="41.5143437" lon="0.1056292"><ele>317.0</ele><time>2026-05-04T10:40:05.57Z</time></trkpt><trkpt lat="41.5144108" lon="0.1057941"><ele>316.75</ele><time>2026-05-04T10:40:06.576Z</time></trkpt><trkpt lat="41.5144734" lon="0.1059611"><ele>316.5</ele><time>2026-05-04T10:40:07.574Z</time></trkpt><trkpt lat="41.5145324" lon="0.1061371"><ele>316.25</ele><time>2026-05-04T10:40:08.571Z</time></trkpt><trkpt lat="41.5145925" lon="0.1063195"><ele>316.0</ele><time>2026-05-04T10:40:09.577Z</time></trkpt><trkpt lat="41.514648" lon="0.1064885"><ele>315.75</ele><time>2026-05-04T10:40:10.575Z</time></trkpt><trkpt lat="41.5147087" lon="0.1066473"><ele>315.5</ele><time>2026-05-04T10:40:11.576Z</time></trkpt><trkpt lat="41.5147642" lon="0.1068016"><ele>315.25</ele><time>2026-05-04T10:40:12.571Z</time></trkpt><trkpt lat="41.5148144" lon="0.1069554"><ele>315.0</ele><time>2026-05-04T10:40:13.563Z</time></trkpt><trkpt lat="41.5148646" lon="0.1071152"><ele>315.0</ele><time>2026-05-04T10:40:14.567Z</time></trkpt><trkpt lat="41.5149024" lon="0.1072923"><ele>315.0</ele><time>2026-05-04T10:40:15.583Z</time></trkpt><trkpt lat="41.5149774" lon="0.1074778"><ele>315.0</ele><time>2026-05-04T10:40:16.581Z</time></trkpt><trkpt lat="41.5150435" lon="0.1076777"><ele>314.75</ele><time>2026-05-04T10:40:17.576Z</time></trkpt><trkpt lat="41.5150808" lon="0.1078505"><ele>314.5</ele><time>2026-05-04T10:40:18.572Z</time></trkpt><trkpt lat="41.5151106" lon="0.1080169"><ele>314.25</ele><time>2026-05-04T10:40:19.579Z</time></trkpt><trkpt lat="41.5151603" lon="0.1081938"><ele>314.0</ele><time>2026-05-04T10:40:20.578Z</time></trkpt><trkpt lat="41.5152135" lon="0.1083697"><ele>314.0</ele><time>2026-05-04T10:40:21.579Z</time></trkpt><trkpt lat="41.5152681" lon="0.108537"><ele>314.0</ele><time>2026-05-04T10:40:22.58Z</time></trkpt><trkpt lat="41.5153231" lon="0.1087026"><ele>314.0</ele><time>2026-05-04T10:40:23.582Z</time></trkpt><trkpt lat="41.5153759" lon="0.1088701"><ele>314.0</ele><time>2026-05-04T10:40:24.58Z</time></trkpt><trkpt lat="41.5154345" lon="0.1090428"><ele>314.75</ele><time>2026-05-04T10:40:25.581Z</time></trkpt><trkpt lat="41.5154927" lon="0.1092147"><ele>315.5</ele><time>2026-05-04T10:40:26.577Z</time></trkpt><trkpt lat="41.515539" lon="0.1093854"><ele>316.25</ele><time>2026-05-04T10:40:27.595Z</time></trkpt><trkpt lat="41.5155929" lon="0.1095423"><ele>317.0</ele><time>2026-05-04T10:40:28.589Z</time></trkpt><trkpt lat="41.5156611" lon="0.1096228"><ele>317.0</ele><time>2026-05-04T10:40:29.592Z</time></trkpt><trkpt lat="41.5157806" lon="0.1097043"><ele>317.0</ele><time>2026-05-04T10:40:30.58Z</time></trkpt><trkpt lat="41.5158476" lon="0.1098488"><ele>317.0</ele><time>2026-05-04T10:40:31.587Z</time></trkpt><trkpt lat="41.5158707" lon="0.1099515"><ele>317.0</ele><time>2026-05-04T10:40:32.579Z</time></trkpt><trkpt lat="41.5159091" lon="0.1101447"><ele>316.6666666666667</ele><time>2026-05-04T10:40:33.576Z</time></trkpt><trkpt lat="41.5159462" lon="0.1103695"><ele>316.3333333333333</ele><time>2026-05-04T10:40:34.58Z</time></trkpt><trkpt lat="41.5159759" lon="0.1105864"><ele>316.0</ele><time>2026-05-04T10:40:35.592Z</time></trkpt><trkpt lat="41.5160229" lon="0.1107917"><ele>315.66666666666663</ele><time>2026-05-04T10:40:36.581Z</time></trkpt><trkpt lat="41.5161207" lon="0.1110165"><ele>315.3333333333333</ele><time>2026-05-04T10:40:37.573Z</time></trkpt><trkpt lat="41.5161459" lon="0.1112569"><ele>315.0</ele><time>2026-05-04T10:40:38.581Z</time></trkpt><trkpt lat="41.516196" lon="0.1114868"><ele>315.25</ele><time>2026-05-04T10:40:39.576Z</time></trkpt><trkpt lat="41.5162528" lon="0.1116864"><ele>315.5</ele><time>2026-05-04T10:40:40.577Z</time></trkpt><trkpt lat="41.5163067" lon="0.1118676"><ele>315.75</ele><time>2026-05-04T10:40:41.573Z</time></trkpt><trkpt lat="41.5163584" lon="0.112038"><ele>316.0</ele><time>2026-05-04T10:40:42.576Z</time></trkpt><trkpt lat="41.5164226" lon="0.1122097"><ele>316.0</ele><time>2026-05-04T10:40:43.577Z</time></trkpt><trkpt lat="41.5164869" lon="0.1123778"><ele>316.0</ele><time>2026-05-04T10:40:44.577Z</time></trkpt><trkpt lat="41.516551" lon="0.1125404"><ele>316.0</ele><time>2026-05-04T10:40:45.579Z</time></trkpt><trkpt lat="41.5166071" lon="0.1127035"><ele>316.0</ele><time>2026-05-04T10:40:46.579Z</time></trkpt><trkpt lat="41.5166578" lon="0.112865"><ele>316.0</ele><time>2026-05-04T10:40:47.579Z</time></trkpt><trkpt lat="41.5167121" lon="0.1130298"><ele>316.0</ele><time>2026-05-04T10:40:48.58Z</time></trkpt><trkpt lat="41.5167644" lon="0.1131894"><ele>316.0</ele><time>2026-05-04T10:40:49.575Z</time></trkpt><trkpt lat="41.5168167" lon="0.1133585"><ele>316.0</ele><time>2026-05-04T10:40:50.576Z</time></trkpt><trkpt lat="41.5168757" lon="0.1135384"><ele>316.0</ele><time>2026-05-04T10:40:51.574Z</time></trkpt><trkpt lat="41.5169291" lon="0.1137108"><ele>316.0</ele><time>2026-05-04T10:40:52.579Z</time></trkpt><trkpt lat="41.5170439" lon="0.1140494"><ele>316.0</ele><time>2026-05-04T10:40:54.574Z</time></trkpt><trkpt lat="41.5170898" lon="0.1142212"><ele>316.0</ele><time>2026-05-04T10:40:55.578Z</time></trkpt><trkpt lat="41.5171495" lon="0.1143923"><ele>316.0</ele><time>2026-05-04T10:40:56.575Z</time></trkpt><trkpt lat="41.5172027" lon="0.1145677"><ele>316.0</ele><time>2026-05-04T10:40:57.583Z</time></trkpt><trkpt lat="41.5172599" lon="0.1147468"><ele>316.0</ele><time>2026-05-04T10:40:58.581Z</time></trkpt><trkpt lat="41.5173188" lon="0.1149104"><ele>316.0</ele><time>2026-05-04T10:40:59.585Z</time></trkpt><trkpt lat="41.5173725" lon="0.1150571"><ele>316.0</ele><time>2026-05-04T10:41:00.582Z</time></trkpt><trkpt lat="41.5174299" lon="0.1151979"><ele>316.0</ele><time>2026-05-04T10:41:01.584Z</time></trkpt><trkpt lat="41.517495" lon="0.1153533"><ele>316.0</ele><time>2026-05-04T10:41:02.57Z</time></trkpt><trkpt lat="41.5175469" lon="0.1155412"><ele>316.0</ele><time>2026-05-04T10:41:03.575Z</time></trkpt><trkpt lat="41.5176059" lon="0.1157073"><ele>316.0</ele><time>2026-05-04T10:41:04.557Z</time></trkpt><trkpt lat="41.5176646" lon="0.1158974"><ele>316.0</ele><time>2026-05-04T10:41:05.573Z</time></trkpt><trkpt lat="41.5177238" lon="0.1160883"><ele>316.0</ele><time>2026-05-04T10:41:06.598Z</time></trkpt><trkpt lat="41.5177817" lon="0.1162714"><ele>315.66666666666663</ele><time>2026-05-04T10:41:07.578Z</time></trkpt><trkpt lat="41.5178362" lon="0.116461"><ele>315.3333333333333</ele><time>2026-05-04T10:41:08.582Z</time></trkpt><trkpt lat="41.5178944" lon="0.1166526"><ele>315.0</ele><time>2026-05-04T10:41:09.583Z</time></trkpt><trkpt lat="41.5179549" lon="0.1168452"><ele>315.0</ele><time>2026-05-04T10:41:10.582Z</time></trkpt><trkpt lat="41.5180192" lon="0.1170308"><ele>315.0</ele><time>2026-05-04T10:41:11.579Z</time></trkpt><trkpt lat="41.5180767" lon="0.1172193"><ele>315.0</ele><time>2026-05-04T10:41:12.578Z</time></trkpt><trkpt lat="41.5181318" lon="0.1174029"><ele>314.3333333333333</ele><time>2026-05-04T10:41:13.583Z</time></trkpt><trkpt lat="41.5181903" lon="0.1175922"><ele>313.66666666666663</ele><time>2026-05-04T10:41:14.576Z</time></trkpt><trkpt lat="41.5182426" lon="0.1177865"><ele>313.0</ele><time>2026-05-04T10:41:15.588Z</time></trkpt><trkpt lat="41.5183046" lon="0.1179721"><ele>313.0</ele><time>2026-05-04T10:41:16.583Z</time></trkpt><trkpt lat="41.5183561" lon="0.1181534"><ele>313.0</ele><time>2026-05-04T10:41:17.59Z</time></trkpt><trkpt lat="41.5184164" lon="0.1183306"><ele>313.0</ele><time>2026-05-04T10:41:18.584Z</time></trkpt><trkpt lat="41.5184705" lon="0.1185073"><ele>313.0</ele><time>2026-05-04T10:41:19.58Z</time></trkpt><trkpt lat="41.5185285" lon="0.1186961"><ele>313.0</ele><time>2026-05-04T10:41:20.579Z</time></trkpt><trkpt lat="41.5185717" lon="0.1188804"><ele>313.0</ele><time>2026-05-04T10:41:21.569Z</time></trkpt><trkpt lat="41.5186364" lon="0.1190678"><ele>313.0</ele><time>2026-05-04T10:41:22.577Z</time></trkpt><trkpt lat="41.5187176" lon="0.1193097"><ele>313.25</ele><time>2026-05-04T10:41:23.576Z</time></trkpt><trkpt lat="41.5187831" lon="0.1194927"><ele>313.5</ele><time>2026-05-04T10:41:24.567Z</time></trkpt><trkpt lat="41.518813" lon="0.1196214"><ele>313.75</ele><time>2026-05-04T10:41:25.564Z</time></trkpt><trkpt lat="41.5188606" lon="0.1197723"><ele>314.0</ele><time>2026-05-04T10:41:26.566Z</time></trkpt><trkpt lat="41.518901" lon="0.1199283"><ele>313.5</ele><time>2026-05-04T10:41:27.586Z</time></trkpt><trkpt lat="41.5189474" lon="0.120065"><ele>313.0</ele><time>2026-05-04T10:41:28.581Z</time></trkpt><trkpt lat="41.5190016" lon="0.1202107"><ele>312.5</ele><time>2026-05-04T10:41:29.583Z</time></trkpt><trkpt lat="41.5190466" lon="0.1203635"><ele>312.0</ele><time>2026-05-04T10:41:30.578Z</time></trkpt><trkpt lat="41.5191042" lon="0.1205118"><ele>312.0</ele><time>2026-05-04T10:41:31.582Z</time></trkpt><trkpt lat="41.5191557" lon="0.1206675"><ele>312.0</ele><time>2026-05-04T10:41:32.581Z</time></trkpt><trkpt lat="41.5192068" lon="0.1208286"><ele>312.0</ele><time>2026-05-04T10:41:33.58Z</time></trkpt><trkpt lat="41.519256" lon="0.1209898"><ele>312.0</ele><time>2026-05-04T10:41:34.579Z</time></trkpt><trkpt lat="41.5192978" lon="0.1211471"><ele>311.75</ele><time>2026-05-04T10:41:35.578Z</time></trkpt><trkpt lat="41.5193419" lon="0.1213104"><ele>311.5</ele><time>2026-05-04T10:41:36.583Z</time></trkpt><trkpt lat="41.5193845" lon="0.12147"><ele>311.25</ele><time>2026-05-04T10:41:37.597Z</time></trkpt><trkpt lat="41.5194248" lon="0.121636"><ele>311.0</ele><time>2026-05-04T10:41:38.581Z</time></trkpt><trkpt lat="41.5194625" lon="0.1218136"><ele>310.0</ele><time>2026-05-04T10:41:39.578Z</time></trkpt><trkpt lat="41.5194998" lon="0.1220003"><ele>309.0</ele><time>2026-05-04T10:41:40.587Z</time></trkpt><trkpt lat="41.519528" lon="0.1221818"><ele>308.0</ele><time>2026-05-04T10:41:41.579Z</time></trkpt><trkpt lat="41.5195513" lon="0.1223762"><ele>307.0</ele><time>2026-05-04T10:41:42.58Z</time></trkpt><trkpt lat="41.5195785" lon="0.1225695"><ele>305.5</ele><time>2026-05-04T10:41:43.579Z</time></trkpt><trkpt lat="41.5196012" lon="0.1227652"><ele>304.0</ele><time>2026-05-04T10:41:44.579Z</time></trkpt><trkpt lat="41.5196181" lon="0.1229604"><ele>302.5</ele><time>2026-05-04T10:41:45.579Z</time></trkpt><trkpt lat="41.5196386" lon="0.1231108"><ele>301.0</ele><time>2026-05-04T10:41:46.57Z</time></trkpt><trkpt lat="41.5196463" lon="0.1232648"><ele>300.0</ele><time>2026-05-04T10:41:47.582Z</time></trkpt><trkpt lat="41.5196457" lon="0.1234294"><ele>299.0</ele><time>2026-05-04T10:41:48.575Z</time></trkpt><trkpt lat="41.5196542" lon="0.1236762"><ele>298.0</ele><time>2026-05-04T10:41:49.573Z</time></trkpt><trkpt lat="41.5196733" lon="0.1238874"><ele>298.66666666666663</ele><time>2026-05-04T10:41:50.571Z</time></trkpt><trkpt lat="41.519691" lon="0.1240884"><ele>299.3333333333333</ele><time>2026-05-04T10:41:51.565Z</time></trkpt><trkpt lat="41.519667" lon="0.1243269"><ele>300.0</ele><time>2026-05-04T10:41:52.577Z</time></trkpt><trkpt lat="41.5196466" lon="0.1245302"><ele>300.0</ele><time>2026-05-04T10:41:53.579Z</time></trkpt><trkpt lat="41.5196279" lon="0.1247363"><ele>300.0</ele><time>2026-05-04T10:41:54.578Z</time></trkpt><trkpt lat="41.5196062" lon="0.1249346"><ele>300.0</ele><time>2026-05-04T10:41:55.582Z</time></trkpt><trkpt lat="41.5195888" lon="0.1251346"><ele>299.3333333333333</ele><time>2026-05-04T10:41:56.578Z</time></trkpt><trkpt lat="41.5195729" lon="0.1253327"><ele>298.66666666666663</ele><time>2026-05-04T10:41:57.584Z</time></trkpt><trkpt lat="41.5195475" lon="0.1255293"><ele>298.0</ele><time>2026-05-04T10:41:58.581Z</time></trkpt><trkpt lat="41.5195278" lon="0.125732"><ele>299.5</ele><time>2026-05-04T10:41:59.577Z</time></trkpt><trkpt lat="41.5195057" lon="0.1259353"><ele>301.0</ele><time>2026-05-04T10:42:00.58Z</time></trkpt><trkpt lat="41.5194807" lon="0.1261355"><ele>302.5</ele><time>2026-05-04T10:42:01.579Z</time></trkpt><trkpt lat="41.5194646" lon="0.1263147"><ele>304.0</ele><time>2026-05-04T10:42:02.573Z</time></trkpt><trkpt lat="41.5194564" lon="0.1265089"><ele>305.66666666666663</ele><time>2026-05-04T10:42:03.574Z</time></trkpt><trkpt lat="41.5194445" lon="0.126711"><ele>307.3333333333333</ele><time>2026-05-04T10:42:04.578Z</time></trkpt><trkpt lat="41.5194198" lon="0.1269114"><ele>309.0</ele><time>2026-05-04T10:42:05.568Z</time></trkpt><trkpt lat="41.51941" lon="0.1271089"><ele>309.0</ele><time>2026-05-04T10:42:06.576Z</time></trkpt><trkpt lat="41.5193862" lon="0.1272865"><ele>309.0</ele><time>2026-05-04T10:42:07.581Z</time></trkpt><trkpt lat="41.5193725" lon="0.1274349"><ele>309.0</ele><time>2026-05-04T10:42:08.597Z</time></trkpt><trkpt lat="41.519374" lon="0.1276537"><ele>309.0</ele><time>2026-05-04T10:42:09.578Z</time></trkpt><trkpt lat="41.5193391" lon="0.1278669"><ele>309.3333333333333</ele><time>2026-05-04T10:42:10.578Z</time></trkpt><trkpt lat="41.5193519" lon="0.1280835"><ele>309.66666666666663</ele><time>2026-05-04T10:42:11.581Z</time></trkpt><trkpt lat="41.5193282" lon="0.1282434"><ele>310.0</ele><time>2026-05-04T10:42:12.58Z</time></trkpt><trkpt lat="41.5193" lon="0.1284608"><ele>309.3333333333333</ele><time>2026-05-04T10:42:13.59Z</time></trkpt><trkpt lat="41.519257" lon="0.1286854"><ele>308.6666666666667</ele><time>2026-05-04T10:42:14.594Z</time></trkpt><trkpt lat="41.5192371" lon="0.128877"><ele>308.0</ele><time>2026-05-04T10:42:15.578Z</time></trkpt><trkpt lat="41.5192161" lon="0.1290921"><ele>306.6666666666667</ele><time>2026-05-04T10:42:16.576Z</time></trkpt><trkpt lat="41.5191888" lon="0.1293099"><ele>305.3333333333333</ele><time>2026-05-04T10:42:17.573Z</time></trkpt><trkpt lat="41.5191775" lon="0.1295117"><ele>304.0</ele><time>2026-05-04T10:42:18.578Z</time></trkpt><trkpt lat="41.519164" lon="0.1297334"><ele>303.0</ele><time>2026-05-04T10:42:19.589Z</time></trkpt><trkpt lat="41.5191451" lon="0.1299523"><ele>302.0</ele><time>2026-05-04T10:42:20.587Z</time></trkpt><trkpt lat="41.5191297" lon="0.1301578"><ele>301.0</ele><time>2026-05-04T10:42:21.59Z</time></trkpt><trkpt lat="41.5191098" lon="0.1303647"><ele>301.0</ele><time>2026-05-04T10:42:22.589Z</time></trkpt><trkpt lat="41.5191001" lon="0.1305557"><ele>301.0</ele><time>2026-05-04T10:42:23.593Z</time></trkpt><trkpt lat="41.5190834" lon="0.1307658"><ele>301.0</ele><time>2026-05-04T10:42:24.585Z</time></trkpt><trkpt lat="41.5190647" lon="0.1309798"><ele>301.0</ele><time>2026-05-04T10:42:25.589Z</time></trkpt><trkpt lat="41.5190474" lon="0.1311812"><ele>301.0</ele><time>2026-05-04T10:42:26.59Z</time></trkpt><trkpt lat="41.5190316" lon="0.1313885"><ele>301.0</ele><time>2026-05-04T10:42:27.598Z</time></trkpt><trkpt lat="41.5190139" lon="0.1315854"><ele>302.0</ele><time>2026-05-04T10:42:28.592Z</time></trkpt><trkpt lat="41.518992" lon="0.1317998"><ele>303.0</ele><time>2026-05-04T10:42:29.59Z</time></trkpt><trkpt lat="41.5189688" lon="0.132009"><ele>304.0</ele><time>2026-05-04T10:42:30.589Z</time></trkpt><trkpt lat="41.5189496" lon="0.132211"><ele>304.75</ele><time>2026-05-04T10:42:31.593Z</time></trkpt><trkpt lat="41.5189291" lon="0.1323978"><ele>305.5</ele><time>2026-05-04T10:42:32.583Z</time></trkpt><trkpt lat="41.5189155" lon="0.1325453"><ele>306.25</ele><time>2026-05-04T10:42:33.584Z</time></trkpt><trkpt lat="41.518936" lon="0.1326908"><ele>307.0</ele><time>2026-05-04T10:42:34.591Z</time></trkpt><trkpt lat="41.5189497" lon="0.132852"><ele>307.0</ele><time>2026-05-04T10:42:35.582Z</time></trkpt><trkpt lat="41.518996" lon="0.1330104"><ele>307.0</ele><time>2026-05-04T10:42:36.583Z</time></trkpt><trkpt lat="41.5190065" lon="0.1332496"><ele>307.0</ele><time>2026-05-04T10:42:37.588Z</time></trkpt><trkpt lat="41.5190058" lon="0.1334523"><ele>306.3333333333333</ele><time>2026-05-04T10:42:38.577Z</time></trkpt><trkpt lat="41.5189829" lon="0.13366"><ele>305.6666666666667</ele><time>2026-05-04T10:42:39.588Z</time></trkpt><trkpt lat="41.5189487" lon="0.1338586"><ele>305.0</ele><time>2026-05-04T10:42:40.576Z</time></trkpt><trkpt lat="41.5189124" lon="0.1340734"><ele>305.0</ele><time>2026-05-04T10:42:41.577Z</time></trkpt><trkpt lat="41.5188696" lon="0.1342817"><ele>305.0</ele><time>2026-05-04T10:42:42.577Z</time></trkpt><trkpt lat="41.5188332" lon="0.1344869"><ele>305.0</ele><time>2026-05-04T10:42:43.597Z</time></trkpt><trkpt lat="41.5187944" lon="0.1346898"><ele>305.0</ele><time>2026-05-04T10:42:44.567Z</time></trkpt><trkpt lat="41.5187562" lon="0.1348806"><ele>305.0</ele><time>2026-05-04T10:42:45.587Z</time></trkpt><trkpt lat="41.518723" lon="0.1350745"><ele>305.0</ele><time>2026-05-04T10:42:46.588Z</time></trkpt><trkpt lat="41.5186941" lon="0.1352325"><ele>305.0</ele><time>2026-05-04T10:42:47.593Z</time></trkpt><trkpt lat="41.5186685" lon="0.135386"><ele>304.6666666666667</ele><time>2026-05-04T10:42:48.591Z</time></trkpt><trkpt lat="41.5186514" lon="0.1355914"><ele>304.3333333333333</ele><time>2026-05-04T10:42:49.583Z</time></trkpt><trkpt lat="41.5186309" lon="0.1357936"><ele>304.0</ele><time>2026-05-04T10:42:50.582Z</time></trkpt><trkpt lat="41.5186068" lon="0.135992"><ele>304.0</ele><time>2026-05-04T10:42:51.598Z</time></trkpt><trkpt lat="41.5185955" lon="0.13618"><ele>304.0</ele><time>2026-05-04T10:42:52.589Z</time></trkpt><trkpt lat="41.5185846" lon="0.1363702"><ele>304.0</ele><time>2026-05-04T10:42:53.593Z</time></trkpt><trkpt lat="41.518578" lon="0.1365464"><ele>304.0</ele><time>2026-05-04T10:42:54.596Z</time></trkpt><trkpt lat="41.5185745" lon="0.136723"><ele>304.0</ele><time>2026-05-04T10:42:55.598Z</time></trkpt><trkpt lat="41.5185493" lon="0.136909"><ele>304.0</ele><time>2026-05-04T10:42:56.595Z</time></trkpt><trkpt lat="41.5185455" lon="0.1370955"><ele>304.0</ele><time>2026-05-04T10:42:57.589Z</time></trkpt><trkpt lat="41.518528" lon="0.1372725"><ele>304.0</ele><time>2026-05-04T10:42:58.588Z</time></trkpt><trkpt lat="41.5185154" lon="0.1374556"><ele>303.75</ele><time>2026-05-04T10:42:59.593Z</time></trkpt><trkpt lat="41.5185002" lon="0.1376476"><ele>303.5</ele><time>2026-05-04T10:43:00.591Z</time></trkpt><trkpt lat="41.5184799" lon="0.1378305"><ele>303.25</ele><time>2026-05-04T10:43:01.595Z</time></trkpt><trkpt lat="41.5184563" lon="0.1380169"><ele>303.0</ele><time>2026-05-04T10:43:02.588Z</time></trkpt><trkpt lat="41.518436" lon="0.1382047"><ele>303.0</ele><time>2026-05-04T10:43:03.598Z</time></trkpt><trkpt lat="41.5184156" lon="0.1383977"><ele>303.0</ele><time>2026-05-04T10:43:04.591Z</time></trkpt><trkpt lat="41.5184014" lon="0.1385907"><ele>303.0</ele><time>2026-05-04T10:43:05.594Z</time></trkpt><trkpt lat="41.51838" lon="0.1387803"><ele>303.0</ele><time>2026-05-04T10:43:06.589Z</time></trkpt><trkpt lat="41.5183613" lon="0.1389658"><ele>303.0</ele><time>2026-05-04T10:43:07.596Z</time></trkpt><trkpt lat="41.5183335" lon="0.1391344"><ele>303.0</ele><time>2026-05-04T10:43:08.591Z</time></trkpt><trkpt lat="41.5183136" lon="0.1392532"><ele>303.0</ele><time>2026-05-04T10:43:09.595Z</time></trkpt><trkpt lat="41.518286" lon="0.1393688"><ele>303.0</ele><time>2026-05-04T10:43:10.627Z</time></trkpt><trkpt lat="41.5182346" lon="0.1394876"><ele>303.0</ele><time>2026-05-04T10:43:11.592Z</time></trkpt><trkpt lat="41.518206" lon="0.1396548"><ele>303.0</ele><time>2026-05-04T10:43:12.582Z</time></trkpt><trkpt lat="41.518185" lon="0.1398166"><ele>303.0</ele><time>2026-05-04T10:43:13.585Z</time></trkpt><trkpt lat="41.5181554" lon="0.1399831"><ele>303.0</ele><time>2026-05-04T10:43:14.583Z</time></trkpt><trkpt lat="41.5181124" lon="0.1401787"><ele>303.0</ele><time>2026-05-04T10:43:15.586Z</time></trkpt><trkpt lat="41.518057" lon="0.1403898"><ele>302.6666666666667</ele><time>2026-05-04T10:43:16.588Z</time></trkpt><trkpt lat="41.5180011" lon="0.1406013"><ele>302.33333333333337</ele><time>2026-05-04T10:43:17.589Z</time></trkpt><trkpt lat="41.5179321" lon="0.1408053"><ele>302.0</ele><time>2026-05-04T10:43:18.591Z</time></trkpt><trkpt lat="41.5178535" lon="0.1410222"><ele>302.0</ele><time>2026-05-04T10:43:19.588Z</time></trkpt><trkpt lat="41.5177766" lon="0.1412287"><ele>302.0</ele><time>2026-05-04T10:43:20.59Z</time></trkpt><trkpt lat="41.5176954" lon="0.1414783"><ele>302.0</ele><time>2026-05-04T10:43:21.592Z</time></trkpt><trkpt lat="41.5176224" lon="0.1416571"><ele>301.5</ele><time>2026-05-04T10:43:22.579Z</time></trkpt><trkpt lat="41.5175508" lon="0.1418196"><ele>301.0</ele><time>2026-05-04T10:43:23.585Z</time></trkpt><trkpt lat="41.5174653" lon="0.1419694"><ele>300.5</ele><time>2026-05-04T10:43:24.583Z</time></trkpt><trkpt lat="41.517383" lon="0.1421092"><ele>300.0</ele><time>2026-05-04T10:43:25.583Z</time></trkpt><trkpt lat="41.5172944" lon="0.1422466"><ele>299.3333333333333</ele><time>2026-05-04T10:43:26.577Z</time></trkpt><trkpt lat="41.517198" lon="0.1424047"><ele>298.66666666666663</ele><time>2026-05-04T10:43:27.585Z</time></trkpt><trkpt lat="41.5170901" lon="0.1425599"><ele>298.0</ele><time>2026-05-04T10:43:28.586Z</time></trkpt><trkpt lat="41.5169795" lon="0.1427061"><ele>298.0</ele><time>2026-05-04T10:43:29.58Z</time></trkpt><trkpt lat="41.5168665" lon="0.1428518"><ele>298.0</ele><time>2026-05-04T10:43:30.585Z</time></trkpt><trkpt lat="41.5167454" lon="0.1429859"><ele>298.0</ele><time>2026-05-04T10:43:31.585Z</time></trkpt><trkpt lat="41.5166339" lon="0.1431072"><ele>297.0</ele><time>2026-05-04T10:43:32.582Z</time></trkpt><trkpt lat="41.5165193" lon="0.1432306"><ele>296.0</ele><time>2026-05-04T10:43:33.583Z</time></trkpt><trkpt lat="41.5164065" lon="0.1433591"><ele>295.0</ele><time>2026-05-04T10:43:34.587Z</time></trkpt><trkpt lat="41.5162946" lon="0.1434857"><ele>294.0</ele><time>2026-05-04T10:43:35.587Z</time></trkpt><trkpt lat="41.5161851" lon="0.1436209"><ele>293.75</ele><time>2026-05-04T10:43:36.595Z</time></trkpt><trkpt lat="41.516081" lon="0.1437607"><ele>293.5</ele><time>2026-05-04T10:43:37.584Z</time></trkpt><trkpt lat="41.51598" lon="0.1439071"><ele>293.25</ele><time>2026-05-04T10:43:38.587Z</time></trkpt><trkpt lat="41.515885" lon="0.1440509"><ele>293.0</ele><time>2026-05-04T10:43:39.586Z</time></trkpt><trkpt lat="41.5157957" lon="0.1442081"><ele>291.5</ele><time>2026-05-04T10:43:40.607Z</time></trkpt><trkpt lat="41.5157067" lon="0.1443733"><ele>290.0</ele><time>2026-05-04T10:43:41.592Z</time></trkpt><trkpt lat="41.5156222" lon="0.1445332"><ele>288.5</ele><time>2026-05-04T10:43:42.587Z</time></trkpt><trkpt lat="41.515545" lon="0.1446833"><ele>287.0</ele><time>2026-05-04T10:43:43.591Z</time></trkpt><trkpt lat="41.515468" lon="0.1448362"><ele>284.33333333333337</ele><time>2026-05-04T10:43:44.594Z</time></trkpt><trkpt lat="41.5153905" lon="0.1450064"><ele>281.6666666666667</ele><time>2026-05-04T10:43:45.595Z</time></trkpt><trkpt lat="41.5153168" lon="0.145181"><ele>279.0</ele><time>2026-05-04T10:43:46.592Z</time></trkpt><trkpt lat="41.51525" lon="0.1453626"><ele>279.0</ele><time>2026-05-04T10:43:47.595Z</time></trkpt><trkpt lat="41.5151828" lon="0.1455467"><ele>279.0</ele><time>2026-05-04T10:43:48.601Z</time></trkpt><trkpt lat="41.5151186" lon="0.1457089"><ele>279.0</ele><time>2026-05-04T10:43:49.601Z</time></trkpt><trkpt lat="41.5150692" lon="0.1458315"><ele>279.0</ele><time>2026-05-04T10:43:50.598Z</time></trkpt><trkpt lat="41.5149998" lon="0.1459871"><ele>278.25</ele><time>2026-05-04T10:43:51.595Z</time></trkpt><trkpt lat="41.5149653" lon="0.1461466"><ele>277.5</ele><time>2026-05-04T10:43:52.597Z</time></trkpt><trkpt lat="41.5149254" lon="0.1463287"><ele>276.75</ele><time>2026-05-04T10:43:53.584Z</time></trkpt><trkpt lat="41.5148953" lon="0.1465421"><ele>276.0</ele><time>2026-05-04T10:43:54.577Z</time></trkpt><trkpt lat="41.5148704" lon="0.1467718"><ele>275.6666666666667</ele><time>2026-05-04T10:43:55.579Z</time></trkpt><trkpt lat="41.5148261" lon="0.1470315"><ele>275.33333333333337</ele><time>2026-05-04T10:43:56.578Z</time></trkpt><trkpt lat="41.5148226" lon="0.1472573"><ele>275.0</ele><time>2026-05-04T10:43:57.583Z</time></trkpt><trkpt lat="41.5148146" lon="0.1474764"><ele>274.0</ele><time>2026-05-04T10:43:58.576Z</time></trkpt><trkpt lat="41.5148056" lon="0.1477023"><ele>273.0</ele><time>2026-05-04T10:43:59.582Z</time></trkpt><trkpt lat="41.5147917" lon="0.1479287"><ele>272.0</ele><time>2026-05-04T10:44:00.587Z</time></trkpt><trkpt lat="41.5147869" lon="0.1481548"><ele>272.0</ele><time>2026-05-04T10:44:01.587Z</time></trkpt><trkpt lat="41.5147888" lon="0.148381"><ele>272.0</ele><time>2026-05-04T10:44:02.589Z</time></trkpt><trkpt lat="41.5148011" lon="0.1486009"><ele>272.0</ele><time>2026-05-04T10:44:03.59Z</time></trkpt><trkpt lat="41.5148178" lon="0.1488196"><ele>272.0</ele><time>2026-05-04T10:44:04.59Z</time></trkpt><trkpt lat="41.5148439" lon="0.1490269"><ele>272.0</ele><time>2026-05-04T10:44:05.598Z</time></trkpt><trkpt lat="41.5148303" lon="0.1491928"><ele>272.0</ele><time>2026-05-04T10:44:06.595Z</time></trkpt><trkpt lat="41.5148114" lon="0.1493572"><ele>272.0</ele><time>2026-05-04T10:44:07.592Z</time></trkpt><trkpt lat="41.5148552" lon="0.1495964"><ele>272.0</ele><time>2026-05-04T10:44:08.587Z</time></trkpt><trkpt lat="41.5148758" lon="0.1498299"><ele>272.0</ele><time>2026-05-04T10:44:09.595Z</time></trkpt><trkpt lat="41.5149325" lon="0.1500595"><ele>272.0</ele><time>2026-05-04T10:44:10.594Z</time></trkpt><trkpt lat="41.5150384" lon="0.1503072"><ele>271.33333333333337</ele><time>2026-05-04T10:44:11.606Z</time></trkpt><trkpt lat="41.5151165" lon="0.1505151"><ele>270.6666666666667</ele><time>2026-05-04T10:44:12.582Z</time></trkpt><trkpt lat="41.5151819" lon="0.1507093"><ele>270.0</ele><time>2026-05-04T10:44:13.582Z</time></trkpt><trkpt lat="41.5152302" lon="0.1508878"><ele>269.6666666666667</ele><time>2026-05-04T10:44:14.581Z</time></trkpt><trkpt lat="41.5152787" lon="0.1510822"><ele>269.33333333333337</ele><time>2026-05-04T10:44:15.579Z</time></trkpt><trkpt lat="41.515326" lon="0.1512725"><ele>269.0</ele><time>2026-05-04T10:44:16.581Z</time></trkpt><trkpt lat="41.5153793" lon="0.1514729"><ele>269.33333333333337</ele><time>2026-05-04T10:44:17.586Z</time></trkpt><trkpt lat="41.5154302" lon="0.1516699"><ele>269.6666666666667</ele><time>2026-05-04T10:44:18.586Z</time></trkpt><trkpt lat="41.515472" lon="0.1518628"><ele>270.0</ele><time>2026-05-04T10:44:19.589Z</time></trkpt><trkpt lat="41.515516" lon="0.1520581"><ele>270.0</ele><time>2026-05-04T10:44:20.588Z</time></trkpt><trkpt lat="41.5155627" lon="0.1522553"><ele>270.0</ele><time>2026-05-04T10:44:21.588Z</time></trkpt><trkpt lat="41.5156059" lon="0.1524539"><ele>270.0</ele><time>2026-05-04T10:44:22.588Z</time></trkpt><trkpt lat="41.5156509" lon="0.1526515"><ele>269.0</ele><time>2026-05-04T10:44:23.592Z</time></trkpt><trkpt lat="41.5157011" lon="0.1528525"><ele>268.0</ele><time>2026-05-04T10:44:24.593Z</time></trkpt><trkpt lat="41.515749" lon="0.1530485"><ele>267.0</ele><time>2026-05-04T10:44:25.597Z</time></trkpt><trkpt lat="41.5157941" lon="0.1532468"><ele>266.6666666666667</ele><time>2026-05-04T10:44:26.591Z</time></trkpt><trkpt lat="41.5158409" lon="0.1534448"><ele>266.33333333333337</ele><time>2026-05-04T10:44:27.596Z</time></trkpt><trkpt lat="41.5158884" lon="0.1536469"><ele>266.0</ele><time>2026-05-04T10:44:28.591Z</time></trkpt><trkpt lat="41.5159343" lon="0.1538456"><ele>266.0</ele><time>2026-05-04T10:44:29.598Z</time></trkpt><trkpt lat="41.515965" lon="0.1540326"><ele>266.0</ele><time>2026-05-04T10:44:30.593Z</time></trkpt><trkpt lat="41.515993" lon="0.1542057"><ele>266.0</ele><time>2026-05-04T10:44:31.588Z</time></trkpt><trkpt lat="41.5160463" lon="0.1544"><ele>266.0</ele><time>2026-05-04T10:44:32.589Z</time></trkpt><trkpt lat="41.5160919" lon="0.1545806"><ele>266.0</ele><time>2026-05-04T10:44:33.589Z</time></trkpt><trkpt lat="41.5161336" lon="0.1547699"><ele>266.0</ele><time>2026-05-04T10:44:34.589Z</time></trkpt><trkpt lat="41.5161774" lon="0.154955"><ele>266.0</ele><time>2026-05-04T10:44:35.59Z</time></trkpt><trkpt lat="41.5162233" lon="0.1551439"><ele>266.0</ele><time>2026-05-04T10:44:36.592Z</time></trkpt><trkpt lat="41.5162669" lon="0.1553379"><ele>266.0</ele><time>2026-05-04T10:44:37.585Z</time></trkpt><trkpt lat="41.5162876" lon="0.1555136"><ele>266.0</ele><time>2026-05-04T10:44:38.595Z</time></trkpt><trkpt lat="41.516306" lon="0.1556944"><ele>266.0</ele><time>2026-05-04T10:44:39.596Z</time></trkpt><trkpt lat="41.5163608" lon="0.1558729"><ele>266.0</ele><time>2026-05-04T10:44:40.596Z</time></trkpt><trkpt lat="41.5164198" lon="0.1560804"><ele>265.75</ele><time>2026-05-04T10:44:41.595Z</time></trkpt><trkpt lat="41.516476" lon="0.1562859"><ele>265.5</ele><time>2026-05-04T10:44:42.613Z</time></trkpt><trkpt lat="41.5165344" lon="0.1564797"><ele>265.25</ele><time>2026-05-04T10:44:43.596Z</time></trkpt><trkpt lat="41.5165642" lon="0.1566461"><ele>265.0</ele><time>2026-05-04T10:44:44.597Z</time></trkpt><trkpt lat="41.5166168" lon="0.1569933"><ele>266.0</ele><time>2026-05-04T10:44:46.581Z</time></trkpt><trkpt lat="41.5166629" lon="0.1571722"><ele>267.0</ele><time>2026-05-04T10:44:47.582Z</time></trkpt><trkpt lat="41.5167145" lon="0.157371"><ele>268.0</ele><time>2026-05-04T10:44:48.577Z</time></trkpt><trkpt lat="41.5167728" lon="0.1575736"><ele>268.3333333333333</ele><time>2026-05-04T10:44:49.58Z</time></trkpt><trkpt lat="41.5168286" lon="0.1577862"><ele>268.6666666666667</ele><time>2026-05-04T10:44:50.58Z</time></trkpt><trkpt lat="41.5168824" lon="0.1579931"><ele>269.0</ele><time>2026-05-04T10:44:51.581Z</time></trkpt><trkpt lat="41.516925" lon="0.1581742"><ele>269.0</ele><time>2026-05-04T10:44:52.579Z</time></trkpt><trkpt lat="41.5169789" lon="0.1583581"><ele>269.0</ele><time>2026-05-04T10:44:53.58Z</time></trkpt><trkpt lat="41.5170274" lon="0.1585498"><ele>269.0</ele><time>2026-05-04T10:44:54.579Z</time></trkpt><trkpt lat="41.5170691" lon="0.1587447"><ele>269.25</ele><time>2026-05-04T10:44:55.587Z</time></trkpt><trkpt lat="41.5171116" lon="0.1589239"><ele>269.5</ele><time>2026-05-04T10:44:56.582Z</time></trkpt><trkpt lat="41.5171519" lon="0.159107"><ele>269.75</ele><time>2026-05-04T10:44:57.59Z</time></trkpt><trkpt lat="41.5171919" lon="0.1592936"><ele>270.0</ele><time>2026-05-04T10:44:58.587Z</time></trkpt><trkpt lat="41.5172322" lon="0.1594763"><ele>270.0</ele><time>2026-05-04T10:44:59.586Z</time></trkpt><trkpt lat="41.5172785" lon="0.1596523"><ele>270.0</ele><time>2026-05-04T10:45:00.588Z</time></trkpt><trkpt lat="41.5173241" lon="0.1598323"><ele>270.0</ele><time>2026-05-04T10:45:01.587Z</time></trkpt><trkpt lat="41.5173653" lon="0.1600046"><ele>270.0</ele><time>2026-05-04T10:45:02.59Z</time></trkpt><trkpt lat="41.517401" lon="0.1601801"><ele>269.75</ele><time>2026-05-04T10:45:03.591Z</time></trkpt><trkpt lat="41.5174329" lon="0.1603574"><ele>269.5</ele><time>2026-05-04T10:45:04.589Z</time></trkpt><trkpt lat="41.5174769" lon="0.1605264"><ele>269.25</ele><time>2026-05-04T10:45:05.593Z</time></trkpt><trkpt lat="41.5175242" lon="0.1606989"><ele>269.0</ele><time>2026-05-04T10:45:06.592Z</time></trkpt><trkpt lat="41.5175634" lon="0.1608699"><ele>269.0</ele><time>2026-05-04T10:45:07.594Z</time></trkpt><trkpt lat="41.5175838" lon="0.1609854"><ele>269.0</ele><time>2026-05-04T10:45:08.592Z</time></trkpt><trkpt lat="41.5176307" lon="0.1611507"><ele>269.0</ele><time>2026-05-04T10:45:09.593Z</time></trkpt><trkpt lat="41.5176523" lon="0.1612933"><ele>269.0</ele><time>2026-05-04T10:45:10.572Z</time></trkpt><trkpt lat="41.5177063" lon="0.161485"><ele>269.0</ele><time>2026-05-04T10:45:11.579Z</time></trkpt><trkpt lat="41.5177584" lon="0.1616747"><ele>269.0</ele><time>2026-05-04T10:45:12.583Z</time></trkpt><trkpt lat="41.5178384" lon="0.1620488"><ele>269.0</ele><time>2026-05-04T10:45:14.577Z</time></trkpt><trkpt lat="41.5178834" lon="0.1622406"><ele>270.0</ele><time>2026-05-04T10:45:15.58Z</time></trkpt><trkpt lat="41.5179183" lon="0.1624255"><ele>271.0</ele><time>2026-05-04T10:45:16.588Z</time></trkpt><trkpt lat="41.5179518" lon="0.162596"><ele>272.0</ele><time>2026-05-04T10:45:17.584Z</time></trkpt><trkpt lat="41.5179929" lon="0.1627658"><ele>273.0</ele><time>2026-05-04T10:45:18.584Z</time></trkpt><trkpt lat="41.5180229" lon="0.1629472"><ele>273.0</ele><time>2026-05-04T10:45:19.584Z</time></trkpt><trkpt lat="41.5180529" lon="0.1631325"><ele>273.0</ele><time>2026-05-04T10:45:20.583Z</time></trkpt><trkpt lat="41.5180822" lon="0.1633105"><ele>273.0</ele><time>2026-05-04T10:45:21.59Z</time></trkpt><trkpt lat="41.5181054" lon="0.1634951"><ele>273.0</ele><time>2026-05-04T10:45:22.587Z</time></trkpt><trkpt lat="41.5181301" lon="0.1636813"><ele>273.25</ele><time>2026-05-04T10:45:23.591Z</time></trkpt><trkpt lat="41.5181531" lon="0.1638723"><ele>273.5</ele><time>2026-05-04T10:45:24.592Z</time></trkpt><trkpt lat="41.5181763" lon="0.1640671"><ele>273.75</ele><time>2026-05-04T10:45:25.579Z</time></trkpt><trkpt lat="41.518205" lon="0.1642602"><ele>274.0</ele><time>2026-05-04T10:45:26.584Z</time></trkpt><trkpt lat="41.5182385" lon="0.1644444"><ele>274.0</ele><time>2026-05-04T10:45:27.579Z</time></trkpt><trkpt lat="41.5182563" lon="0.1646151"><ele>274.0</ele><time>2026-05-04T10:45:28.586Z</time></trkpt><trkpt lat="41.5182401" lon="0.1648231"><ele>274.0</ele><time>2026-05-04T10:45:29.586Z</time></trkpt><trkpt lat="41.518284" lon="0.1650444"><ele>274.0</ele><time>2026-05-04T10:45:30.586Z</time></trkpt><trkpt lat="41.5182908" lon="0.1652399"><ele>274.0</ele><time>2026-05-04T10:45:31.573Z</time></trkpt><trkpt lat="41.5183017" lon="0.1654019"><ele>274.0</ele><time>2026-05-04T10:45:32.578Z</time></trkpt><trkpt lat="41.5183163" lon="0.1655611"><ele>274.0</ele><time>2026-05-04T10:45:33.575Z</time></trkpt><trkpt lat="41.5183355" lon="0.1657211"><ele>274.0</ele><time>2026-05-04T10:45:34.576Z</time></trkpt><trkpt lat="41.5183481" lon="0.1658918"><ele>274.0</ele><time>2026-05-04T10:45:35.578Z</time></trkpt><trkpt lat="41.5183647" lon="0.1660665"><ele>274.0</ele><time>2026-05-04T10:45:36.578Z</time></trkpt><trkpt lat="41.5183849" lon="0.1662321"><ele>274.0</ele><time>2026-05-04T10:45:37.583Z</time></trkpt><trkpt lat="41.5184053" lon="0.1664061"><ele>274.25</ele><time>2026-05-04T10:45:38.586Z</time></trkpt><trkpt lat="41.5184237" lon="0.1665794"><ele>274.5</ele><time>2026-05-04T10:45:39.585Z</time></trkpt><trkpt lat="41.5184432" lon="0.1667614"><ele>274.75</ele><time>2026-05-04T10:45:40.587Z</time></trkpt><trkpt lat="41.5184681" lon="0.1669439"><ele>275.0</ele><time>2026-05-04T10:45:41.586Z</time></trkpt><trkpt lat="41.5184831" lon="0.1671122"><ele>275.0</ele><time>2026-05-04T10:45:42.588Z</time></trkpt><trkpt lat="41.5185007" lon="0.1672852"><ele>275.0</ele><time>2026-05-04T10:45:43.59Z</time></trkpt><trkpt lat="41.5185238" lon="0.1674681"><ele>275.0</ele><time>2026-05-04T10:45:44.607Z</time></trkpt><trkpt lat="41.5185435" lon="0.1676515"><ele>275.0</ele><time>2026-05-04T10:45:45.591Z</time></trkpt><trkpt lat="41.5185562" lon="0.1678238"><ele>275.0</ele><time>2026-05-04T10:45:46.593Z</time></trkpt><trkpt lat="41.5185352" lon="0.1679796"><ele>275.0</ele><time>2026-05-04T10:45:47.591Z</time></trkpt><trkpt lat="41.5185364" lon="0.1681771"><ele>275.0</ele><time>2026-05-04T10:45:48.588Z</time></trkpt><trkpt lat="41.5185368" lon="0.1683569"><ele>275.0</ele><time>2026-05-04T10:45:49.573Z</time></trkpt><trkpt lat="41.5185402" lon="0.1685418"><ele>274.75</ele><time>2026-05-04T10:45:50.573Z</time></trkpt><trkpt lat="41.5185608" lon="0.1687173"><ele>274.5</ele><time>2026-05-04T10:45:51.57Z</time></trkpt><trkpt lat="41.5185924" lon="0.1688993"><ele>274.25</ele><time>2026-05-04T10:45:52.572Z</time></trkpt><trkpt lat="41.518611" lon="0.1690686"><ele>274.0</ele><time>2026-05-04T10:45:53.575Z</time></trkpt><trkpt lat="41.5186351" lon="0.1692511"><ele>274.0</ele><time>2026-05-04T10:45:54.58Z</time></trkpt><trkpt lat="41.5186564" lon="0.1694404"><ele>274.0</ele><time>2026-05-04T10:45:55.586Z</time></trkpt><trkpt lat="41.5186825" lon="0.1696306"><ele>274.0</ele><time>2026-05-04T10:45:56.582Z</time></trkpt><trkpt lat="41.5187078" lon="0.1698115"><ele>274.0</ele><time>2026-05-04T10:45:57.592Z</time></trkpt><trkpt lat="41.5187336" lon="0.1699974"><ele>276.3333333333333</ele><time>2026-05-04T10:45:58.576Z</time></trkpt><trkpt lat="41.5187576" lon="0.1701865"><ele>278.6666666666667</ele><time>2026-05-04T10:45:59.578Z</time></trkpt><trkpt lat="41.5187725" lon="0.170393"><ele>281.0</ele><time>2026-05-04T10:46:00.574Z</time></trkpt><trkpt lat="41.5188025" lon="0.1705915"><ele>281.0</ele><time>2026-05-04T10:46:01.578Z</time></trkpt><trkpt lat="41.5188338" lon="0.1707867"><ele>281.0</ele><time>2026-05-04T10:46:02.575Z</time></trkpt><trkpt lat="41.5188663" lon="0.1709712"><ele>281.0</ele><time>2026-05-04T10:46:03.578Z</time></trkpt><trkpt lat="41.5188963" lon="0.1711577"><ele>281.0</ele><time>2026-05-04T10:46:04.571Z</time></trkpt><trkpt lat="41.5189281" lon="0.1713496"><ele>280.75</ele><time>2026-05-04T10:46:05.572Z</time></trkpt><trkpt lat="41.5189425" lon="0.1715365"><ele>280.5</ele><time>2026-05-04T10:46:06.577Z</time></trkpt><trkpt lat="41.5189472" lon="0.1717181"><ele>280.25</ele><time>2026-05-04T10:46:07.585Z</time></trkpt><trkpt lat="41.5189566" lon="0.1719049"><ele>280.0</ele><time>2026-05-04T10:46:08.58Z</time></trkpt><trkpt lat="41.5189748" lon="0.1720864"><ele>280.0</ele><time>2026-05-04T10:46:09.589Z</time></trkpt><trkpt lat="41.5189898" lon="0.1722563"><ele>280.0</ele><time>2026-05-04T10:46:10.581Z</time></trkpt><trkpt lat="41.5190044" lon="0.1724314"><ele>280.0</ele><time>2026-05-04T10:46:11.586Z</time></trkpt><trkpt lat="41.5190293" lon="0.1726142"><ele>280.0</ele><time>2026-05-04T10:46:12.585Z</time></trkpt><trkpt lat="41.5190436" lon="0.172792"><ele>279.5</ele><time>2026-05-04T10:46:13.586Z</time></trkpt><trkpt lat="41.5190668" lon="0.1729685"><ele>279.0</ele><time>2026-05-04T10:46:14.589Z</time></trkpt><trkpt lat="41.5190844" lon="0.1731528"><ele>278.5</ele><time>2026-05-04T10:46:15.603Z</time></trkpt><trkpt lat="41.5191038" lon="0.1733342"><ele>278.0</ele><time>2026-05-04T10:46:16.584Z</time></trkpt><trkpt lat="41.5191248" lon="0.173518"><ele>278.0</ele><time>2026-05-04T10:46:17.588Z</time></trkpt><trkpt lat="41.5191402" lon="0.1737017"><ele>278.0</ele><time>2026-05-04T10:46:18.587Z</time></trkpt><trkpt lat="41.5191548" lon="0.1738827"><ele>278.0</ele><time>2026-05-04T10:46:19.593Z</time></trkpt><trkpt lat="41.5191731" lon="0.174062"><ele>278.0</ele><time>2026-05-04T10:46:20.588Z</time></trkpt><trkpt lat="41.5191904" lon="0.1742396"><ele>278.25</ele><time>2026-05-04T10:46:21.596Z</time></trkpt><trkpt lat="41.5192056" lon="0.1744221"><ele>278.5</ele><time>2026-05-04T10:46:22.586Z</time></trkpt><trkpt lat="41.5192259" lon="0.1746045"><ele>278.75</ele><time>2026-05-04T10:46:23.589Z</time></trkpt><trkpt lat="41.5192428" lon="0.1747839"><ele>279.0</ele><time>2026-05-04T10:46:24.588Z</time></trkpt><trkpt lat="41.5192632" lon="0.1749691"><ele>279.25</ele><time>2026-05-04T10:46:25.587Z</time></trkpt><trkpt lat="41.519279" lon="0.1751491"><ele>279.5</ele><time>2026-05-04T10:46:26.582Z</time></trkpt><trkpt lat="41.5193002" lon="0.1753385"><ele>279.75</ele><time>2026-05-04T10:46:27.595Z</time></trkpt><trkpt lat="41.5193098" lon="0.1755185"><ele>280.0</ele><time>2026-05-04T10:46:28.591Z</time></trkpt><trkpt lat="41.5193121" lon="0.175678"><ele>280.0</ele><time>2026-05-04T10:46:29.592Z</time></trkpt><trkpt lat="41.5193399" lon="0.1758716"><ele>280.0</ele><time>2026-05-04T10:46:30.586Z</time></trkpt><trkpt lat="41.5193546" lon="0.1760228"><ele>280.0</ele><time>2026-05-04T10:46:31.582Z</time></trkpt><trkpt lat="41.519398" lon="0.1762255"><ele>280.0</ele><time>2026-05-04T10:46:32.569Z</time></trkpt><trkpt lat="41.5194184" lon="0.1764213"><ele>280.0</ele><time>2026-05-04T10:46:33.578Z</time></trkpt><trkpt lat="41.519437" lon="0.1766147"><ele>280.0</ele><time>2026-05-04T10:46:34.578Z</time></trkpt><trkpt lat="41.5194582" lon="0.17681"><ele>280.0</ele><time>2026-05-04T10:46:35.578Z</time></trkpt><trkpt lat="41.5194783" lon="0.176987"><ele>280.0</ele><time>2026-05-04T10:46:36.577Z</time></trkpt><trkpt lat="41.5194982" lon="0.1771705"><ele>280.0</ele><time>2026-05-04T10:46:37.573Z</time></trkpt><trkpt lat="41.5195112" lon="0.1773468"><ele>280.0</ele><time>2026-05-04T10:46:38.571Z</time></trkpt><trkpt lat="41.5195209" lon="0.1775298"><ele>280.0</ele><time>2026-05-04T10:46:39.58Z</time></trkpt><trkpt lat="41.5195284" lon="0.1777077"><ele>280.0</ele><time>2026-05-04T10:46:40.581Z</time></trkpt><trkpt lat="41.5195391" lon="0.177888"><ele>280.0</ele><time>2026-05-04T10:46:41.583Z</time></trkpt><trkpt lat="41.5195579" lon="0.1780715"><ele>280.0</ele><time>2026-05-04T10:46:42.579Z</time></trkpt><trkpt lat="41.5195777" lon="0.1782526"><ele>280.0</ele><time>2026-05-04T10:46:43.588Z</time></trkpt><trkpt lat="41.5195908" lon="0.1784255"><ele>280.0</ele><time>2026-05-04T10:46:44.588Z</time></trkpt><trkpt lat="41.5195711" lon="0.1785867"><ele>281.0</ele><time>2026-05-04T10:46:45.594Z</time></trkpt><trkpt lat="41.5195932" lon="0.1787724"><ele>282.0</ele><time>2026-05-04T10:46:46.607Z</time></trkpt><trkpt lat="41.5196261" lon="0.1789152"><ele>283.0</ele><time>2026-05-04T10:46:47.578Z</time></trkpt><trkpt lat="41.5196447" lon="0.1790862"><ele>284.0</ele><time>2026-05-04T10:46:48.575Z</time></trkpt><trkpt lat="41.5196682" lon="0.1792931"><ele>284.0</ele><time>2026-05-04T10:46:49.585Z</time></trkpt><trkpt lat="41.5196883" lon="0.1794897"><ele>284.0</ele><time>2026-05-04T10:46:50.582Z</time></trkpt><trkpt lat="41.5197103" lon="0.1796774"><ele>284.0</ele><time>2026-05-04T10:46:51.591Z</time></trkpt><trkpt lat="41.5197314" lon="0.1798753"><ele>284.0</ele><time>2026-05-04T10:46:52.578Z</time></trkpt><trkpt lat="41.5197462" lon="0.1800728"><ele>283.75</ele><time>2026-05-04T10:46:53.59Z</time></trkpt><trkpt lat="41.5197616" lon="0.1802699"><ele>283.5</ele><time>2026-05-04T10:46:54.585Z</time></trkpt><trkpt lat="41.519779" lon="0.1804509"><ele>283.25</ele><time>2026-05-04T10:46:55.597Z</time></trkpt><trkpt lat="41.5197949" lon="0.1806313"><ele>283.0</ele><time>2026-05-04T10:46:56.587Z</time></trkpt><trkpt lat="41.5198062" lon="0.1808105"><ele>282.75</ele><time>2026-05-04T10:46:57.591Z</time></trkpt><trkpt lat="41.5198277" lon="0.1810012"><ele>282.5</ele><time>2026-05-04T10:46:58.592Z</time></trkpt><trkpt lat="41.5198482" lon="0.1811914"><ele>282.25</ele><time>2026-05-04T10:46:59.59Z</time></trkpt><trkpt lat="41.5199039" lon="0.1813878"><ele>282.0</ele><time>2026-05-04T10:47:00.593Z</time></trkpt><trkpt lat="41.5199533" lon="0.1815636"><ele>282.5</ele><time>2026-05-04T10:47:01.578Z</time></trkpt><trkpt lat="41.5199928" lon="0.1817638"><ele>283.0</ele><time>2026-05-04T10:47:02.586Z</time></trkpt><trkpt lat="41.5199926" lon="0.1819421"><ele>283.5</ele><time>2026-05-04T10:47:03.572Z</time></trkpt><trkpt lat="41.5200028" lon="0.1821173"><ele>284.0</ele><time>2026-05-04T10:47:04.581Z</time></trkpt><trkpt lat="41.5200049" lon="0.1822931"><ele>284.0</ele><time>2026-05-04T10:47:05.582Z</time></trkpt><trkpt lat="41.5200139" lon="0.1824644"><ele>284.0</ele><time>2026-05-04T10:47:06.586Z</time></trkpt><trkpt lat="41.5200331" lon="0.1826541"><ele>284.0</ele><time>2026-05-04T10:47:07.59Z</time></trkpt><trkpt lat="41.520047" lon="0.1828406"><ele>284.0</ele><time>2026-05-04T10:47:08.577Z</time></trkpt><trkpt lat="41.5200617" lon="0.1830319"><ele>284.25</ele><time>2026-05-04T10:47:09.585Z</time></trkpt><trkpt lat="41.520075" lon="0.1832198"><ele>284.5</ele><time>2026-05-04T10:47:10.588Z</time></trkpt><trkpt lat="41.5200921" lon="0.1834041"><ele>284.75</ele><time>2026-05-04T10:47:11.587Z</time></trkpt><trkpt lat="41.5201067" lon="0.1835852"><ele>285.0</ele><time>2026-05-04T10:47:12.585Z</time></trkpt><trkpt lat="41.5201166" lon="0.1837644"><ele>285.0</ele><time>2026-05-04T10:47:13.582Z</time></trkpt><trkpt lat="41.5201317" lon="0.1839527"><ele>285.0</ele><time>2026-05-04T10:47:14.579Z</time></trkpt><trkpt lat="41.5201469" lon="0.1841296"><ele>285.0</ele><time>2026-05-04T10:47:15.579Z</time></trkpt><trkpt lat="41.5201551" lon="0.1843165"><ele>285.0</ele><time>2026-05-04T10:47:16.584Z</time></trkpt><trkpt lat="41.5201657" lon="0.1845283"><ele>285.3333333333333</ele><time>2026-05-04T10:47:17.594Z</time></trkpt><trkpt lat="41.5201724" lon="0.1847323"><ele>285.66666666666663</ele><time>2026-05-04T10:47:18.56Z</time></trkpt><trkpt lat="41.5202139" lon="0.1849387"><ele>286.0</ele><time>2026-05-04T10:47:19.57Z</time></trkpt><trkpt lat="41.5202322" lon="0.1851313"><ele>286.3333333333333</ele><time>2026-05-04T10:47:20.572Z</time></trkpt><trkpt lat="41.5202557" lon="0.185333"><ele>286.6666666666667</ele><time>2026-05-04T10:47:21.579Z</time></trkpt><trkpt lat="41.5202762" lon="0.1855707"><ele>287.0</ele><time>2026-05-04T10:47:22.574Z</time></trkpt><trkpt lat="41.5203112" lon="0.1857589"><ele>287.0</ele><time>2026-05-04T10:47:23.585Z</time></trkpt><trkpt lat="41.5203151" lon="0.1859086"><ele>287.0</ele><time>2026-05-04T10:47:24.57Z</time></trkpt><trkpt lat="41.5203334" lon="0.1860534"><ele>287.0</ele><time>2026-05-04T10:47:25.582Z</time></trkpt><trkpt lat="41.5203499" lon="0.1862054"><ele>287.0</ele><time>2026-05-04T10:47:26.581Z</time></trkpt><trkpt lat="41.520368" lon="0.1863649"><ele>287.0</ele><time>2026-05-04T10:47:27.593Z</time></trkpt><trkpt lat="41.520387" lon="0.1865331"><ele>287.0</ele><time>2026-05-04T10:47:28.583Z</time></trkpt><trkpt lat="41.5204042" lon="0.1866945"><ele>287.0</ele><time>2026-05-04T10:47:29.588Z</time></trkpt><trkpt lat="41.5204157" lon="0.1868594"><ele>287.0</ele><time>2026-05-04T10:47:30.585Z</time></trkpt><trkpt lat="41.5204277" lon="0.1870273"><ele>287.25</ele><time>2026-05-04T10:47:31.592Z</time></trkpt><trkpt lat="41.5204393" lon="0.1871947"><ele>287.5</ele><time>2026-05-04T10:47:32.585Z</time></trkpt><trkpt lat="41.5204533" lon="0.1873638"><ele>287.75</ele><time>2026-05-04T10:47:33.594Z</time></trkpt><trkpt lat="41.5204684" lon="0.1875337"><ele>288.0</ele><time>2026-05-04T10:47:34.586Z</time></trkpt><trkpt lat="41.5204833" lon="0.1877076"><ele>288.0</ele><time>2026-05-04T10:47:35.587Z</time></trkpt><trkpt lat="41.5205014" lon="0.1878883"><ele>288.0</ele><time>2026-05-04T10:47:36.59Z</time></trkpt><trkpt lat="41.5205199" lon="0.1880708"><ele>288.0</ele><time>2026-05-04T10:47:37.59Z</time></trkpt><trkpt lat="41.5205439" lon="0.1882601"><ele>288.0</ele><time>2026-05-04T10:47:38.592Z</time></trkpt><trkpt lat="41.520562" lon="0.1884474"><ele>288.0</ele><time>2026-05-04T10:47:39.592Z</time></trkpt><trkpt lat="41.5205773" lon="0.1886367"><ele>288.0</ele><time>2026-05-04T10:47:40.589Z</time></trkpt><trkpt lat="41.5205956" lon="0.188836"><ele>288.0</ele><time>2026-05-04T10:47:41.59Z</time></trkpt><trkpt lat="41.5206188" lon="0.189032"><ele>288.0</ele><time>2026-05-04T10:47:42.589Z</time></trkpt><trkpt lat="41.5206343" lon="0.1892316"><ele>288.0</ele><time>2026-05-04T10:47:43.59Z</time></trkpt><trkpt lat="41.5206528" lon="0.1894255"><ele>288.0</ele><time>2026-05-04T10:47:44.593Z</time></trkpt><trkpt lat="41.5206799" lon="0.1896375"><ele>288.0</ele><time>2026-05-04T10:47:45.593Z</time></trkpt><trkpt lat="41.5207001" lon="0.1898432"><ele>288.5</ele><time>2026-05-04T10:47:46.592Z</time></trkpt><trkpt lat="41.520716" lon="0.190034"><ele>289.0</ele><time>2026-05-04T10:47:47.592Z</time></trkpt><trkpt lat="41.5207374" lon="0.1902246"><ele>289.5</ele><time>2026-05-04T10:47:48.632Z</time></trkpt><trkpt lat="41.5207614" lon="0.1904129"><ele>290.0</ele><time>2026-05-04T10:47:49.599Z</time></trkpt><trkpt lat="41.5207814" lon="0.190607"><ele>289.75</ele><time>2026-05-04T10:47:50.593Z</time></trkpt><trkpt lat="41.5208" lon="0.1907932"><ele>289.5</ele><time>2026-05-04T10:47:51.602Z</time></trkpt><trkpt lat="41.5208142" lon="0.1909729"><ele>289.25</ele><time>2026-05-04T10:47:52.585Z</time></trkpt><trkpt lat="41.5208253" lon="0.1911348"><ele>289.0</ele><time>2026-05-04T10:47:53.591Z</time></trkpt><trkpt lat="41.5208349" lon="0.1913497"><ele>289.75</ele><time>2026-05-04T10:47:54.597Z</time></trkpt><trkpt lat="41.5208726" lon="0.1915402"><ele>290.5</ele><time>2026-05-04T10:47:55.583Z</time></trkpt><trkpt lat="41.520901" lon="0.191722"><ele>291.25</ele><time>2026-05-04T10:47:56.596Z</time></trkpt><trkpt lat="41.5209282" lon="0.1918925"><ele>292.0</ele><time>2026-05-04T10:47:57.592Z</time></trkpt><trkpt lat="41.5209513" lon="0.1920882"><ele>292.0</ele><time>2026-05-04T10:47:58.591Z</time></trkpt><trkpt lat="41.5209564" lon="0.1922774"><ele>292.0</ele><time>2026-05-04T10:47:59.592Z</time></trkpt><trkpt lat="41.520958" lon="0.1924702"><ele>292.0</ele><time>2026-05-04T10:48:00.589Z</time></trkpt><trkpt lat="41.5209505" lon="0.1926598"><ele>292.0</ele><time>2026-05-04T10:48:01.585Z</time></trkpt><trkpt lat="41.5209398" lon="0.1928508"><ele>292.5</ele><time>2026-05-04T10:48:02.582Z</time></trkpt><trkpt lat="41.520934" lon="0.1930432"><ele>293.0</ele><time>2026-05-04T10:48:03.587Z</time></trkpt><trkpt lat="41.5209222" lon="0.193225"><ele>293.5</ele><time>2026-05-04T10:48:04.587Z</time></trkpt><trkpt lat="41.5209116" lon="0.1934095"><ele>294.0</ele><time>2026-05-04T10:48:05.596Z</time></trkpt><trkpt lat="41.5209019" lon="0.1935883"><ele>294.0</ele><time>2026-05-04T10:48:06.595Z</time></trkpt><trkpt lat="41.5208848" lon="0.1937622"><ele>294.0</ele><time>2026-05-04T10:48:07.593Z</time></trkpt><trkpt lat="41.5208692" lon="0.1939453"><ele>294.0</ele><time>2026-05-04T10:48:08.591Z</time></trkpt><trkpt lat="41.5208568" lon="0.1941389"><ele>294.0</ele><time>2026-05-04T10:48:09.588Z</time></trkpt><trkpt lat="41.5208411" lon="0.1943398"><ele>294.25</ele><time>2026-05-04T10:48:10.59Z</time></trkpt><trkpt lat="41.5208268" lon="0.1945255"><ele>294.5</ele><time>2026-05-04T10:48:11.586Z</time></trkpt><trkpt lat="41.5208104" lon="0.194713"><ele>294.75</ele><time>2026-05-04T10:48:12.586Z</time></trkpt><trkpt lat="41.5207858" lon="0.1949008"><ele>295.0</ele><time>2026-05-04T10:48:13.585Z</time></trkpt><trkpt lat="41.5207697" lon="0.1950871"><ele>295.25</ele><time>2026-05-04T10:48:14.585Z</time></trkpt><trkpt lat="41.5207618" lon="0.1952462"><ele>295.5</ele><time>2026-05-04T10:48:15.585Z</time></trkpt><trkpt lat="41.5207549" lon="0.1953868"><ele>295.75</ele><time>2026-05-04T10:48:16.576Z</time></trkpt><trkpt lat="41.5207268" lon="0.1955865"><ele>296.0</ele><time>2026-05-04T10:48:17.593Z</time></trkpt><trkpt lat="41.5207156" lon="0.1958165"><ele>296.0</ele><time>2026-05-04T10:48:18.592Z</time></trkpt><trkpt lat="41.5206964" lon="0.1959737"><ele>296.0</ele><time>2026-05-04T10:48:19.583Z</time></trkpt><trkpt lat="41.5206877" lon="0.1961433"><ele>296.0</ele><time>2026-05-04T10:48:20.588Z</time></trkpt><trkpt lat="41.5206955" lon="0.1963153"><ele>296.0</ele><time>2026-05-04T10:48:21.592Z</time></trkpt><trkpt lat="41.5206916" lon="0.1964972"><ele>296.33333333333337</ele><time>2026-05-04T10:48:22.595Z</time></trkpt><trkpt lat="41.5206909" lon="0.1967111"><ele>296.6666666666667</ele><time>2026-05-04T10:48:23.59Z</time></trkpt><trkpt lat="41.5206593" lon="0.1969078"><ele>297.0</ele><time>2026-05-04T10:48:24.598Z</time></trkpt><trkpt lat="41.5206302" lon="0.1971082"><ele>297.0</ele><time>2026-05-04T10:48:25.591Z</time></trkpt><trkpt lat="41.5206171" lon="0.1972873"><ele>297.0</ele><time>2026-05-04T10:48:26.579Z</time></trkpt><trkpt lat="41.5205906" lon="0.197488"><ele>297.0</ele><time>2026-05-04T10:48:27.584Z</time></trkpt><trkpt lat="41.5205667" lon="0.1976897"><ele>297.0</ele><time>2026-05-04T10:48:28.589Z</time></trkpt><trkpt lat="41.5205435" lon="0.1978878"><ele>297.3333333333333</ele><time>2026-05-04T10:48:29.586Z</time></trkpt><trkpt lat="41.5205223" lon="0.1980894"><ele>297.66666666666663</ele><time>2026-05-04T10:48:30.584Z</time></trkpt><trkpt lat="41.5205008" lon="0.1983029"><ele>298.0</ele><time>2026-05-04T10:48:31.597Z</time></trkpt><trkpt lat="41.520512" lon="0.1984995"><ele>298.3333333333333</ele><time>2026-05-04T10:48:32.587Z</time></trkpt><trkpt lat="41.5204995" lon="0.1986882"><ele>298.6666666666667</ele><time>2026-05-04T10:48:33.586Z</time></trkpt><trkpt lat="41.5204797" lon="0.1988906"><ele>299.0</ele><time>2026-05-04T10:48:34.582Z</time></trkpt><trkpt lat="41.520473" lon="0.1990988"><ele>299.5</ele><time>2026-05-04T10:48:35.588Z</time></trkpt><trkpt lat="41.5204484" lon="0.1992556"><ele>300.0</ele><time>2026-05-04T10:48:36.591Z</time></trkpt><trkpt lat="41.5204198" lon="0.1994053"><ele>300.5</ele><time>2026-05-04T10:48:37.594Z</time></trkpt><trkpt lat="41.520392" lon="0.1995309"><ele>301.0</ele><time>2026-05-04T10:48:38.584Z</time></trkpt><trkpt lat="41.5203811" lon="0.199722"><ele>301.25</ele><time>2026-05-04T10:48:39.588Z</time></trkpt><trkpt lat="41.5203616" lon="0.1999116"><ele>301.5</ele><time>2026-05-04T10:48:40.593Z</time></trkpt><trkpt lat="41.5203633" lon="0.2001067"><ele>301.75</ele><time>2026-05-04T10:48:41.592Z</time></trkpt><trkpt lat="41.5203548" lon="0.2002998"><ele>302.0</ele><time>2026-05-04T10:48:42.591Z</time></trkpt><trkpt lat="41.5203475" lon="0.2004999"><ele>302.33333333333337</ele><time>2026-05-04T10:48:43.589Z</time></trkpt><trkpt lat="41.5203057" lon="0.2006993"><ele>302.6666666666667</ele><time>2026-05-04T10:48:44.592Z</time></trkpt><trkpt lat="41.5202659" lon="0.2008992"><ele>303.0</ele><time>2026-05-04T10:48:45.587Z</time></trkpt><trkpt lat="41.5202473" lon="0.2010988"><ele>303.0</ele><time>2026-05-04T10:48:46.588Z</time></trkpt><trkpt lat="41.520229" lon="0.2012987"><ele>303.0</ele><time>2026-05-04T10:48:47.58Z</time></trkpt><trkpt lat="41.5202094" lon="0.2014899"><ele>303.0</ele><time>2026-05-04T10:48:48.574Z</time></trkpt><trkpt lat="41.5201957" lon="0.201678"><ele>303.0</ele><time>2026-05-04T10:48:49.591Z</time></trkpt><trkpt lat="41.5201846" lon="0.2018803"><ele>303.0</ele><time>2026-05-04T10:48:50.572Z</time></trkpt><trkpt lat="41.5201807" lon="0.2020803"><ele>303.0</ele><time>2026-05-04T10:48:51.578Z</time></trkpt><trkpt lat="41.5201709" lon="0.2022567"><ele>303.0</ele><time>2026-05-04T10:48:52.582Z</time></trkpt><trkpt lat="41.5201631" lon="0.2024341"><ele>303.0</ele><time>2026-05-04T10:48:53.596Z</time></trkpt><trkpt lat="41.520158" lon="0.2025976"><ele>303.0</ele><time>2026-05-04T10:48:54.599Z</time></trkpt><trkpt lat="41.5201349" lon="0.2027696"><ele>303.0</ele><time>2026-05-04T10:48:55.596Z</time></trkpt><trkpt lat="41.5201174" lon="0.2029375"><ele>303.0</ele><time>2026-05-04T10:48:56.591Z</time></trkpt><trkpt lat="41.520101" lon="0.2031138"><ele>303.0</ele><time>2026-05-04T10:48:57.603Z</time></trkpt><trkpt lat="41.5200828" lon="0.2032688"><ele>302.75</ele><time>2026-05-04T10:48:58.597Z</time></trkpt><trkpt lat="41.5200785" lon="0.2034223"><ele>302.5</ele><time>2026-05-04T10:48:59.599Z</time></trkpt><trkpt lat="41.5200644" lon="0.2035804"><ele>302.25</ele><time>2026-05-04T10:49:00.595Z</time></trkpt><trkpt lat="41.5200438" lon="0.2037369"><ele>302.0</ele><time>2026-05-04T10:49:01.603Z</time></trkpt><trkpt lat="41.5200305" lon="0.2038897"><ele>302.5</ele><time>2026-05-04T10:49:02.596Z</time></trkpt><trkpt lat="41.5200208" lon="0.2040333"><ele>303.0</ele><time>2026-05-04T10:49:03.603Z</time></trkpt><trkpt lat="41.52001" lon="0.2041789"><ele>303.5</ele><time>2026-05-04T10:49:04.593Z</time></trkpt><trkpt lat="41.5199932" lon="0.2043347"><ele>304.0</ele><time>2026-05-04T10:49:05.593Z</time></trkpt><trkpt lat="41.5199638" lon="0.2044974"><ele>304.0</ele><time>2026-05-04T10:49:06.587Z</time></trkpt><trkpt lat="41.5199325" lon="0.2046724"><ele>304.0</ele><time>2026-05-04T10:49:07.589Z</time></trkpt><trkpt lat="41.5198874" lon="0.2048215"><ele>304.0</ele><time>2026-05-04T10:49:08.582Z</time></trkpt><trkpt lat="41.5198621" lon="0.2049276"><ele>304.0</ele><time>2026-05-04T10:49:09.578Z</time></trkpt><trkpt lat="41.519833" lon="0.2050156"><ele>304.0</ele><time>2026-05-04T10:49:10.571Z</time></trkpt><trkpt lat="41.5198068" lon="0.2051069"><ele>304.0</ele><time>2026-05-04T10:49:11.573Z</time></trkpt><trkpt lat="41.5197967" lon="0.2052011"><ele>304.0</ele><time>2026-05-04T10:49:12.574Z</time></trkpt><trkpt lat="41.5197939" lon="0.2052879"><ele>304.0</ele><time>2026-05-04T10:49:13.575Z</time></trkpt><trkpt lat="41.5198089" lon="0.2054344"><ele>304.0</ele><time>2026-05-04T10:49:15.593Z</time></trkpt><trkpt lat="41.5198201" lon="0.2055707"><ele>304.0</ele><time>2026-05-04T10:49:17.591Z</time></trkpt><trkpt lat="41.5198135" lon="0.2057052"><ele>304.0</ele><time>2026-05-04T10:49:19.582Z</time></trkpt><trkpt lat="41.5197935" lon="0.2058229"><ele>304.0</ele><time>2026-05-04T10:49:21.564Z</time></trkpt><trkpt lat="41.519731" lon="0.2059711"><ele>304.0</ele><time>2026-05-04T10:49:23.59Z</time></trkpt><trkpt lat="41.5197376" lon="0.2060962"><ele>304.0</ele><time>2026-05-04T10:49:25.587Z</time></trkpt><trkpt lat="41.5197161" lon="0.2061869"><ele>304.0</ele><time>2026-05-04T10:49:26.586Z</time></trkpt><trkpt lat="41.5196795" lon="0.2062921"><ele>304.0</ele><time>2026-05-04T10:49:28.586Z</time></trkpt><trkpt lat="41.5197191" lon="0.2061895"><ele>304.0</ele><time>2026-05-04T10:49:42.589Z</time></trkpt><trkpt lat="41.5197219" lon="0.2060984"><ele>304.0</ele><time>2026-05-04T10:50:06.582Z</time></trkpt><trkpt lat="41.5196656" lon="0.2061474"><ele>304.0</ele><time>2026-05-04T10:50:10.576Z</time></trkpt><trkpt lat="41.519709" lon="0.206066"><ele>304.0</ele><time>2026-05-04T10:50:48.573Z</time></trkpt><trkpt lat="41.5197299" lon="0.2061633"><ele>304.0</ele><time>2026-05-04T10:50:52.59Z</time></trkpt><trkpt lat="41.5196815" lon="0.2062513"><ele>304.0</ele><time>2026-05-04T10:51:11.597Z</time></trkpt><trkpt lat="41.5196595" lon="0.2063743"><ele>304.0</ele><time>2026-05-04T10:51:14.585Z</time></trkpt><trkpt lat="41.5196479" lon="0.2062287"><ele>304.0</ele><time>2026-05-04T10:51:26.584Z</time></trkpt><trkpt lat="41.519646" lon="0.206137"><ele>304.0</ele><time>2026-05-04T10:51:46.589Z</time></trkpt><trkpt lat="41.5197079" lon="0.2061071"><ele>304.0</ele><time>2026-05-04T10:52:12.575Z</time></trkpt><trkpt lat="41.5196795" lon="0.2062052"><ele>304.0</ele><time>2026-05-04T10:52:57.598Z</time></trkpt><trkpt lat="41.5197365" lon="0.2062466"><ele>304.0</ele><time>2026-05-04T10:53:31.574Z</time></trkpt><trkpt lat="41.5196793" lon="0.2062894"><ele>304.0</ele><time>2026-05-04T10:53:55.578Z</time></trkpt><trkpt lat="41.5196931" lon="0.2062017"><ele>304.0</ele><time>2026-05-04T10:54:46.58Z</time></trkpt><trkpt lat="41.5196529" lon="0.2063125"><ele>304.0</ele><time>2026-05-04T10:56:24.59Z</time></trkpt><trkpt lat="41.519656" lon="0.2064315"><ele>304.0</ele><time>2026-05-04T10:56:33.61Z</time></trkpt><trkpt lat="41.519671" lon="0.2065317"><ele>304.0</ele><time>2026-05-04T10:56:35.584Z</time></trkpt><trkpt lat="41.5197427" lon="0.206601"><ele>303.8</ele><time>2026-05-04T10:56:50.584Z</time></trkpt><trkpt lat="41.5197762" lon="0.2067549"><ele>303.59999999999997</ele><time>2026-05-04T10:56:52.586Z</time></trkpt><trkpt lat="41.5197961" lon="0.2069067"><ele>303.4</ele><time>2026-05-04T10:56:54.59Z</time></trkpt><trkpt lat="41.519784" lon="0.2070586"><ele>303.2</ele><time>2026-05-04T10:56:56.595Z</time></trkpt><trkpt lat="41.5197762" lon="0.2071469"><ele>303.0</ele><time>2026-05-04T10:56:57.611Z</time></trkpt><trkpt lat="41.5197683" lon="0.2072377"><ele>303.2857142857143</ele><time>2026-05-04T10:56:58.593Z</time></trkpt><trkpt lat="41.5197659" lon="0.2073365"><ele>303.57142857142856</ele><time>2026-05-04T10:56:59.599Z</time></trkpt><trkpt lat="41.519761" lon="0.2074387"><ele>303.8571428571429</ele><time>2026-05-04T10:57:00.594Z</time></trkpt><trkpt lat="41.5197551" lon="0.2075389"><ele>304.1428571428571</ele><time>2026-05-04T10:57:01.594Z</time></trkpt><trkpt lat="41.5197503" lon="0.207634"><ele>304.4285714285714</ele><time>2026-05-04T10:57:02.592Z</time></trkpt><trkpt lat="41.519744" lon="0.2077249"><ele>304.7142857142857</ele><time>2026-05-04T10:57:03.595Z</time></trkpt><trkpt lat="41.5197378" lon="0.2078134"><ele>305.0</ele><time>2026-05-04T10:57:04.632Z</time></trkpt><trkpt lat="41.5197309" lon="0.2079031"><ele>305.0</ele><time>2026-05-04T10:57:05.584Z</time></trkpt><trkpt lat="41.5197259" lon="0.2079902"><ele>305.0</ele><time>2026-05-04T10:57:06.588Z</time></trkpt><trkpt lat="41.5197226" lon="0.2080753"><ele>305.0</ele><time>2026-05-04T10:57:07.587Z</time></trkpt><trkpt lat="41.519717" lon="0.2081609"><ele>305.0</ele><time>2026-05-04T10:57:08.581Z</time></trkpt><trkpt lat="41.5197109" lon="0.2082517"><ele>305.0</ele><time>2026-05-04T10:57:09.582Z</time></trkpt><trkpt lat="41.5197064" lon="0.2083421"><ele>305.0</ele><time>2026-05-04T10:57:10.584Z</time></trkpt><trkpt lat="41.5196904" lon="0.2084414"><ele>305.0</ele><time>2026-05-04T10:57:11.588Z</time></trkpt><trkpt lat="41.5196725" lon="0.2085418"><ele>305.33333333333337</ele><time>2026-05-04T10:57:12.592Z</time></trkpt><trkpt lat="41.519658" lon="0.2086445"><ele>305.6666666666667</ele><time>2026-05-04T10:57:13.594Z</time></trkpt><trkpt lat="41.5196522" lon="0.2087477"><ele>306.0</ele><time>2026-05-04T10:57:14.602Z</time></trkpt><trkpt lat="41.5196457" lon="0.2088579"><ele>306.3333333333333</ele><time>2026-05-04T10:57:15.608Z</time></trkpt><trkpt lat="41.5196387" lon="0.2089673"><ele>306.66666666666663</ele><time>2026-05-04T10:57:16.598Z</time></trkpt><trkpt lat="41.5196284" lon="0.2090767"><ele>307.0</ele><time>2026-05-04T10:57:17.599Z</time></trkpt><trkpt lat="41.5196198" lon="0.2091845"><ele>307.0</ele><time>2026-05-04T10:57:18.604Z</time></trkpt><trkpt lat="41.519611" lon="0.2092992"><ele>307.0</ele><time>2026-05-04T10:57:19.6Z</time></trkpt><trkpt lat="41.5196013" lon="0.2094223"><ele>307.0</ele><time>2026-05-04T10:57:20.601Z</time></trkpt><trkpt lat="41.5195877" lon="0.2095519"><ele>307.0</ele><time>2026-05-04T10:57:21.601Z</time></trkpt><trkpt lat="41.5195742" lon="0.2096858"><ele>307.0</ele><time>2026-05-04T10:57:22.601Z</time></trkpt><trkpt lat="41.5195605" lon="0.209823"><ele>307.0</ele><time>2026-05-04T10:57:23.603Z</time></trkpt><trkpt lat="41.5195493" lon="0.2099583"><ele>307.0</ele><time>2026-05-04T10:57:24.602Z</time></trkpt><trkpt lat="41.5195392" lon="0.2100897"><ele>307.0</ele><time>2026-05-04T10:57:25.6Z</time></trkpt><trkpt lat="41.5195278" lon="0.2102243"><ele>307.0</ele><time>2026-05-04T10:57:26.599Z</time></trkpt><trkpt lat="41.5195128" lon="0.2103669"><ele>307.0</ele><time>2026-05-04T10:57:27.597Z</time></trkpt><trkpt lat="41.5194967" lon="0.2105035"><ele>307.0</ele><time>2026-05-04T10:57:28.587Z</time></trkpt><trkpt lat="41.5194825" lon="0.2106302"><ele>307.0</ele><time>2026-05-04T10:57:29.59Z</time></trkpt><trkpt lat="41.5194719" lon="0.2107534"><ele>307.0</ele><time>2026-05-04T10:57:30.581Z</time></trkpt><trkpt lat="41.5194614" lon="0.2108729"><ele>307.0</ele><time>2026-05-04T10:57:31.587Z</time></trkpt><trkpt lat="41.5194513" lon="0.2110028"><ele>307.0</ele><time>2026-05-04T10:57:32.601Z</time></trkpt><trkpt lat="41.5194421" lon="0.2111357"><ele>307.0</ele><time>2026-05-04T10:57:33.602Z</time></trkpt><trkpt lat="41.5194308" lon="0.2112668"><ele>307.0</ele><time>2026-05-04T10:57:34.613Z</time></trkpt><trkpt lat="41.5194142" lon="0.2114008"><ele>307.0</ele><time>2026-05-04T10:57:35.593Z</time></trkpt><trkpt lat="41.5194021" lon="0.2115307"><ele>307.0</ele><time>2026-05-04T10:57:36.596Z</time></trkpt><trkpt lat="41.5193918" lon="0.2116674"><ele>307.0</ele><time>2026-05-04T10:57:37.595Z</time></trkpt><trkpt lat="41.5193823" lon="0.2118034"><ele>307.0</ele><time>2026-05-04T10:57:38.598Z</time></trkpt><trkpt lat="41.519371" lon="0.2119402"><ele>307.0</ele><time>2026-05-04T10:57:39.597Z</time></trkpt><trkpt lat="41.5193607" lon="0.2120774"><ele>307.0</ele><time>2026-05-04T10:57:40.591Z</time></trkpt><trkpt lat="41.5193496" lon="0.2122166"><ele>307.0</ele><time>2026-05-04T10:57:41.588Z</time></trkpt><trkpt lat="41.5193403" lon="0.2123534"><ele>307.0</ele><time>2026-05-04T10:57:42.589Z</time></trkpt><trkpt lat="41.5193309" lon="0.2124825"><ele>307.0</ele><time>2026-05-04T10:57:43.588Z</time></trkpt><trkpt lat="41.5193238" lon="0.2126064"><ele>307.0</ele><time>2026-05-04T10:57:44.592Z</time></trkpt><trkpt lat="41.5193151" lon="0.2127214"><ele>307.0</ele><time>2026-05-04T10:57:45.592Z</time></trkpt><trkpt lat="41.519304" lon="0.2128323"><ele>307.0</ele><time>2026-05-04T10:57:46.597Z</time></trkpt><trkpt lat="41.5192953" lon="0.2129379"><ele>307.0</ele><time>2026-05-04T10:57:47.598Z</time></trkpt><trkpt lat="41.5192884" lon="0.2130465"><ele>307.0</ele><time>2026-05-04T10:57:48.595Z</time></trkpt><trkpt lat="41.5192797" lon="0.213158"><ele>307.0</ele><time>2026-05-04T10:57:49.596Z</time></trkpt><trkpt lat="41.5192732" lon="0.2132698"><ele>307.0</ele><time>2026-05-04T10:57:50.606Z</time></trkpt><trkpt lat="41.5192626" lon="0.2133833"><ele>307.0</ele><time>2026-05-04T10:57:51.607Z</time></trkpt><trkpt lat="41.5192495" lon="0.2135011"><ele>307.0</ele><time>2026-05-04T10:57:52.595Z</time></trkpt><trkpt lat="41.5192352" lon="0.2136274"><ele>307.0</ele><time>2026-05-04T10:57:53.597Z</time></trkpt><trkpt lat="41.5192226" lon="0.2137521"><ele>307.0</ele><time>2026-05-04T10:57:54.595Z</time></trkpt><trkpt lat="41.5192132" lon="0.2138705"><ele>307.0</ele><time>2026-05-04T10:57:55.603Z</time></trkpt><trkpt lat="41.5192066" lon="0.2139873"><ele>307.0</ele><time>2026-05-04T10:57:56.593Z</time></trkpt><trkpt lat="41.5191967" lon="0.214103"><ele>307.0</ele><time>2026-05-04T10:57:57.594Z</time></trkpt><trkpt lat="41.5191859" lon="0.2142157"><ele>307.0</ele><time>2026-05-04T10:57:58.588Z</time></trkpt><trkpt lat="41.5191783" lon="0.2143287"><ele>307.0</ele><time>2026-05-04T10:57:59.591Z</time></trkpt><trkpt lat="41.5191687" lon="0.2144366"><ele>307.0</ele><time>2026-05-04T10:58:00.591Z</time></trkpt><trkpt lat="41.519162" lon="0.2145397"><ele>307.5</ele><time>2026-05-04T10:58:01.593Z</time></trkpt><trkpt lat="41.5191559" lon="0.2146483"><ele>308.0</ele><time>2026-05-04T10:58:02.593Z</time></trkpt><trkpt lat="41.5191471" lon="0.2147595"><ele>308.5</ele><time>2026-05-04T10:58:03.601Z</time></trkpt><trkpt lat="41.5191381" lon="0.2148748"><ele>309.0</ele><time>2026-05-04T10:58:04.598Z</time></trkpt><trkpt lat="41.5191315" lon="0.2149893"><ele>309.5</ele><time>2026-05-04T10:58:05.613Z</time></trkpt><trkpt lat="41.5191273" lon="0.2151036"><ele>310.0</ele><time>2026-05-04T10:58:06.598Z</time></trkpt><trkpt lat="41.5191174" lon="0.2152207"><ele>310.16666666666663</ele><time>2026-05-04T10:58:07.602Z</time></trkpt><trkpt lat="41.5191051" lon="0.2153368"><ele>310.3333333333333</ele><time>2026-05-04T10:58:08.599Z</time></trkpt><trkpt lat="41.5190944" lon="0.2154546"><ele>310.5</ele><time>2026-05-04T10:58:09.613Z</time></trkpt><trkpt lat="41.5190849" lon="0.2155705"><ele>310.6666666666667</ele><time>2026-05-04T10:58:10.597Z</time></trkpt><trkpt lat="41.5190784" lon="0.2156881"><ele>310.83333333333337</ele><time>2026-05-04T10:58:11.598Z</time></trkpt><trkpt lat="41.5190703" lon="0.2158109"><ele>311.0</ele><time>2026-05-04T10:58:12.6Z</time></trkpt><trkpt lat="41.5190603" lon="0.2159336"><ele>311.2</ele><time>2026-05-04T10:58:13.601Z</time></trkpt><trkpt lat="41.5190523" lon="0.2160556"><ele>311.40000000000003</ele><time>2026-05-04T10:58:14.597Z</time></trkpt><trkpt lat="41.5190388" lon="0.2161808"><ele>311.6</ele><time>2026-05-04T10:58:15.6Z</time></trkpt><trkpt lat="41.5190286" lon="0.2163049"><ele>311.8</ele><time>2026-05-04T10:58:16.598Z</time></trkpt><trkpt lat="41.5190172" lon="0.2164317"><ele>312.0</ele><time>2026-05-04T10:58:17.6Z</time></trkpt><trkpt lat="41.5190067" lon="0.2165605"><ele>312.2</ele><time>2026-05-04T10:58:18.601Z</time></trkpt><trkpt lat="41.5189969" lon="0.2166888"><ele>312.4</ele><time>2026-05-04T10:58:19.592Z</time></trkpt><trkpt lat="41.5189863" lon="0.216823"><ele>312.6</ele><time>2026-05-04T10:58:20.598Z</time></trkpt><trkpt lat="41.5189752" lon="0.2169558"><ele>312.8</ele><time>2026-05-04T10:58:21.598Z</time></trkpt><trkpt lat="41.5189586" lon="0.2170837"><ele>313.0</ele><time>2026-05-04T10:58:22.592Z</time></trkpt><trkpt lat="41.5189459" lon="0.2172155"><ele>313.2</ele><time>2026-05-04T10:58:23.589Z</time></trkpt><trkpt lat="41.5189374" lon="0.2173447"><ele>313.4</ele><time>2026-05-04T10:58:24.596Z</time></trkpt><trkpt lat="41.5189307" lon="0.2174793"><ele>313.59999999999997</ele><time>2026-05-04T10:58:25.598Z</time></trkpt><trkpt lat="41.5189224" lon="0.2176166"><ele>313.8</ele><time>2026-05-04T10:58:26.595Z</time></trkpt><trkpt lat="41.5189131" lon="0.2177598"><ele>314.0</ele><time>2026-05-04T10:58:27.601Z</time></trkpt><trkpt lat="41.5189022" lon="0.2179241"><ele>314.0</ele><time>2026-05-04T10:58:28.596Z</time></trkpt><trkpt lat="41.5188812" lon="0.2180881"><ele>314.0</ele><time>2026-05-04T10:58:29.592Z</time></trkpt><trkpt lat="41.5188657" lon="0.2182395"><ele>314.0</ele><time>2026-05-04T10:58:30.59Z</time></trkpt><trkpt lat="41.5188494" lon="0.2183891"><ele>314.0</ele><time>2026-05-04T10:58:31.595Z</time></trkpt><trkpt lat="41.5188365" lon="0.2185324"><ele>313.8</ele><time>2026-05-04T10:58:32.59Z</time></trkpt><trkpt lat="41.5188251" lon="0.21867"><ele>313.59999999999997</ele><time>2026-05-04T10:58:33.6Z</time></trkpt><trkpt lat="41.5188162" lon="0.2188021"><ele>313.4</ele><time>2026-05-04T10:58:34.598Z</time></trkpt><trkpt lat="41.5188072" lon="0.2189378"><ele>313.2</ele><time>2026-05-04T10:58:35.591Z</time></trkpt><trkpt lat="41.5187963" lon="0.2190818"><ele>313.0</ele><time>2026-05-04T10:58:36.606Z</time></trkpt><trkpt lat="41.5187795" lon="0.219209"><ele>313.3333333333333</ele><time>2026-05-04T10:58:37.587Z</time></trkpt><trkpt lat="41.5187673" lon="0.2193274"><ele>313.66666666666663</ele><time>2026-05-04T10:58:38.59Z</time></trkpt><trkpt lat="41.5187602" lon="0.2194497"><ele>314.0</ele><time>2026-05-04T10:58:39.59Z</time></trkpt><trkpt lat="41.5187567" lon="0.2195627"><ele>314.3333333333333</ele><time>2026-05-04T10:58:40.592Z</time></trkpt><trkpt lat="41.5187508" lon="0.2196789"><ele>314.6666666666667</ele><time>2026-05-04T10:58:41.593Z</time></trkpt><trkpt lat="41.5187447" lon="0.2197969"><ele>315.0</ele><time>2026-05-04T10:58:42.593Z</time></trkpt><trkpt lat="41.5187309" lon="0.2199256"><ele>315.0</ele><time>2026-05-04T10:58:43.597Z</time></trkpt><trkpt lat="41.5187232" lon="0.2200522"><ele>315.0</ele><time>2026-05-04T10:58:44.599Z</time></trkpt><trkpt lat="41.5187137" lon="0.2201852"><ele>315.0</ele><time>2026-05-04T10:58:45.605Z</time></trkpt><trkpt lat="41.5187026" lon="0.2203155"><ele>315.0</ele><time>2026-05-04T10:58:46.59Z</time></trkpt><trkpt lat="41.5186945" lon="0.2204518"><ele>315.0</ele><time>2026-05-04T10:58:47.594Z</time></trkpt><trkpt lat="41.5186864" lon="0.2205914"><ele>315.3333333333333</ele><time>2026-05-04T10:58:48.59Z</time></trkpt><trkpt lat="41.5186666" lon="0.2208863"><ele>315.66666666666663</ele><time>2026-05-04T10:58:50.588Z</time></trkpt><trkpt lat="41.5186566" lon="0.2210375"><ele>316.0</ele><time>2026-05-04T10:58:51.588Z</time></trkpt><trkpt lat="41.5186419" lon="0.2211908"><ele>316.0</ele><time>2026-05-04T10:58:52.595Z</time></trkpt><trkpt lat="41.5186277" lon="0.2213522"><ele>316.0</ele><time>2026-05-04T10:58:53.586Z</time></trkpt><trkpt lat="41.5186135" lon="0.2215023"><ele>316.0</ele><time>2026-05-04T10:58:54.589Z</time></trkpt><trkpt lat="41.5186043" lon="0.2216539"><ele>316.0</ele><time>2026-05-04T10:58:55.585Z</time></trkpt><trkpt lat="41.5185906" lon="0.2218021"><ele>316.25</ele><time>2026-05-04T10:58:56.588Z</time></trkpt><trkpt lat="41.5185765" lon="0.2219524"><ele>316.5</ele><time>2026-05-04T10:58:57.595Z</time></trkpt><trkpt lat="41.5185599" lon="0.2221091"><ele>316.75</ele><time>2026-05-04T10:58:58.589Z</time></trkpt><trkpt lat="41.518548" lon="0.2222645"><ele>317.0</ele><time>2026-05-04T10:58:59.595Z</time></trkpt><trkpt lat="41.5185388" lon="0.2224176"><ele>317.6</ele><time>2026-05-04T10:59:00.591Z</time></trkpt><trkpt lat="41.5185281" lon="0.222569"><ele>318.2</ele><time>2026-05-04T10:59:01.595Z</time></trkpt><trkpt lat="41.5185139" lon="0.2227194"><ele>318.8</ele><time>2026-05-04T10:59:02.594Z</time></trkpt><trkpt lat="41.5185031" lon="0.2228665"><ele>319.4</ele><time>2026-05-04T10:59:03.604Z</time></trkpt><trkpt lat="41.5184917" lon="0.2230142"><ele>320.0</ele><time>2026-05-04T10:59:04.592Z</time></trkpt><trkpt lat="41.5184808" lon="0.2231593"><ele>320.6</ele><time>2026-05-04T10:59:05.593Z</time></trkpt><trkpt lat="41.5184719" lon="0.2233021"><ele>321.2</ele><time>2026-05-04T10:59:06.592Z</time></trkpt><trkpt lat="41.5184629" lon="0.2234433"><ele>321.79999999999995</ele><time>2026-05-04T10:59:07.609Z</time></trkpt><trkpt lat="41.5184512" lon="0.2235814"><ele>322.4</ele><time>2026-05-04T10:59:08.596Z</time></trkpt><trkpt lat="41.5184356" lon="0.2237152"><ele>323.0</ele><time>2026-05-04T10:59:09.597Z</time></trkpt><trkpt lat="41.5184246" lon="0.2238491"><ele>323.0</ele><time>2026-05-04T10:59:10.59Z</time></trkpt><trkpt lat="41.5184129" lon="0.223983"><ele>323.0</ele><time>2026-05-04T10:59:11.588Z</time></trkpt><trkpt lat="41.5183985" lon="0.2241136"><ele>323.0</ele><time>2026-05-04T10:59:12.581Z</time></trkpt><trkpt lat="41.5183834" lon="0.2242399"><ele>323.0</ele><time>2026-05-04T10:59:13.595Z</time></trkpt><trkpt lat="41.5183718" lon="0.2243683"><ele>323.0</ele><time>2026-05-04T10:59:14.59Z</time></trkpt><trkpt lat="41.5183622" lon="0.2245021"><ele>323.0</ele><time>2026-05-04T10:59:15.597Z</time></trkpt><trkpt lat="41.518351" lon="0.2246335"><ele>323.0</ele><time>2026-05-04T10:59:16.593Z</time></trkpt><trkpt lat="41.5183425" lon="0.2247606"><ele>323.0</ele><time>2026-05-04T10:59:17.606Z</time></trkpt><trkpt lat="41.5183344" lon="0.2248848"><ele>323.0</ele><time>2026-05-04T10:59:18.595Z</time></trkpt><trkpt lat="41.5183253" lon="0.2250124"><ele>323.0</ele><time>2026-05-04T10:59:19.596Z</time></trkpt><trkpt lat="41.5183174" lon="0.2251409"><ele>323.1666666666667</ele><time>2026-05-04T10:59:20.602Z</time></trkpt><trkpt lat="41.5183037" lon="0.2252624"><ele>323.33333333333337</ele><time>2026-05-04T10:59:21.605Z</time></trkpt><trkpt lat="41.5182894" lon="0.2253793"><ele>323.5</ele><time>2026-05-04T10:59:22.595Z</time></trkpt><trkpt lat="41.5182769" lon="0.2254937"><ele>323.6666666666667</ele><time>2026-05-04T10:59:23.597Z</time></trkpt><trkpt lat="41.5182666" lon="0.2256058"><ele>323.8333333333333</ele><time>2026-05-04T10:59:24.598Z</time></trkpt><trkpt lat="41.5182585" lon="0.2257148"><ele>324.0</ele><time>2026-05-04T10:59:25.598Z</time></trkpt><trkpt lat="41.5182518" lon="0.2258254"><ele>324.79999999999995</ele><time>2026-05-04T10:59:26.597Z</time></trkpt><trkpt lat="41.5182445" lon="0.2259376"><ele>325.59999999999997</ele><time>2026-05-04T10:59:27.6Z</time></trkpt><trkpt lat="41.5182343" lon="0.2260582"><ele>326.4</ele><time>2026-05-04T10:59:28.59Z</time></trkpt><trkpt lat="41.5182212" lon="0.2261804"><ele>327.2</ele><time>2026-05-04T10:59:29.587Z</time></trkpt><trkpt lat="41.5182166" lon="0.2263237"><ele>328.0</ele><time>2026-05-04T10:59:30.587Z</time></trkpt><trkpt lat="41.518203" lon="0.2264314"><ele>328.16666666666663</ele><time>2026-05-04T10:59:31.587Z</time></trkpt><trkpt lat="41.5181972" lon="0.2265296"><ele>328.3333333333333</ele><time>2026-05-04T10:59:32.587Z</time></trkpt><trkpt lat="41.5181875" lon="0.2266474"><ele>328.5</ele><time>2026-05-04T10:59:33.596Z</time></trkpt><trkpt lat="41.5181759" lon="0.2267633"><ele>328.6666666666667</ele><time>2026-05-04T10:59:34.592Z</time></trkpt><trkpt lat="41.518164" lon="0.2268756"><ele>328.83333333333337</ele><time>2026-05-04T10:59:35.594Z</time></trkpt><trkpt lat="41.5181524" lon="0.2269965"><ele>329.0</ele><time>2026-05-04T10:59:36.592Z</time></trkpt><trkpt lat="41.5181443" lon="0.2271163"><ele>329.0</ele><time>2026-05-04T10:59:37.595Z</time></trkpt><trkpt lat="41.5181333" lon="0.2272324"><ele>329.0</ele><time>2026-05-04T10:59:38.614Z</time></trkpt><trkpt lat="41.5181247" lon="0.2273526"><ele>329.0</ele><time>2026-05-04T10:59:39.607Z</time></trkpt><trkpt lat="41.5181173" lon="0.2274755"><ele>329.0</ele><time>2026-05-04T10:59:40.601Z</time></trkpt><trkpt lat="41.5181088" lon="0.2275998"><ele>329.0</ele><time>2026-05-04T10:59:41.598Z</time></trkpt><trkpt lat="41.5181006" lon="0.2277262"><ele>329.4</ele><time>2026-05-04T10:59:42.603Z</time></trkpt><trkpt lat="41.5180932" lon="0.2278586"><ele>329.79999999999995</ele><time>2026-05-04T10:59:43.609Z</time></trkpt><trkpt lat="41.5180831" lon="0.2279881"><ele>330.20000000000005</ele><time>2026-05-04T10:59:44.604Z</time></trkpt><trkpt lat="41.5180733" lon="0.228114"><ele>330.6</ele><time>2026-05-04T10:59:45.604Z</time></trkpt><trkpt lat="41.5180622" lon="0.2282385"><ele>331.0</ele><time>2026-05-04T10:59:46.603Z</time></trkpt><trkpt lat="41.5180501" lon="0.2283617"><ele>331.6</ele><time>2026-05-04T10:59:47.599Z</time></trkpt><trkpt lat="41.5180368" lon="0.2284879"><ele>332.20000000000005</ele><time>2026-05-04T10:59:48.603Z</time></trkpt><trkpt lat="41.5180246" lon="0.2286151"><ele>332.79999999999995</ele><time>2026-05-04T10:59:49.605Z</time></trkpt><trkpt lat="41.5180152" lon="0.2287434"><ele>333.4</ele><time>2026-05-04T10:59:50.599Z</time></trkpt><trkpt lat="41.5180066" lon="0.2288761"><ele>334.0</ele><time>2026-05-04T10:59:51.609Z</time></trkpt><trkpt lat="41.5179994" lon="0.2290051"><ele>334.2</ele><time>2026-05-04T10:59:52.6Z</time></trkpt><trkpt lat="41.5179894" lon="0.2291373"><ele>334.4</ele><time>2026-05-04T10:59:53.607Z</time></trkpt><trkpt lat="41.517975" lon="0.2292685"><ele>334.6</ele><time>2026-05-04T10:59:54.611Z</time></trkpt><trkpt lat="41.5179598" lon="0.2294055"><ele>334.8</ele><time>2026-05-04T10:59:55.568Z</time></trkpt><trkpt lat="41.5179473" lon="0.2295435"><ele>335.0</ele><time>2026-05-04T10:59:56.566Z</time></trkpt><trkpt lat="41.5179351" lon="0.2296813"><ele>334.8</ele><time>2026-05-04T10:59:57.59Z</time></trkpt><trkpt lat="41.5179254" lon="0.2298131"><ele>334.6</ele><time>2026-05-04T10:59:58.57Z</time></trkpt><trkpt lat="41.5179157" lon="0.2299466"><ele>334.4</ele><time>2026-05-04T10:59:59.573Z</time></trkpt><trkpt lat="41.5179095" lon="0.2300788"><ele>334.2</ele><time>2026-05-04T11:00:00.552Z</time></trkpt><trkpt lat="41.5179047" lon="0.2302071"><ele>334.0</ele><time>2026-05-04T11:00:01.561Z</time></trkpt><trkpt lat="41.5178979" lon="0.2303457"><ele>334.0</ele><time>2026-05-04T11:00:02.554Z</time></trkpt><trkpt lat="41.5178829" lon="0.2304813"><ele>334.0</ele><time>2026-05-04T11:00:03.555Z</time></trkpt><trkpt lat="41.5178693" lon="0.2306198"><ele>334.0</ele><time>2026-05-04T11:00:04.557Z</time></trkpt><trkpt lat="41.5178527" lon="0.2307545"><ele>334.0</ele><time>2026-05-04T11:00:05.565Z</time></trkpt><trkpt lat="41.5178395" lon="0.230894"><ele>334.0</ele><time>2026-05-04T11:00:06.559Z</time></trkpt><trkpt lat="41.5178093" lon="0.2311794"><ele>334.0</ele><time>2026-05-04T11:00:08.566Z</time></trkpt><trkpt lat="41.5177935" lon="0.2313235"><ele>334.0</ele><time>2026-05-04T11:00:09.568Z</time></trkpt><trkpt lat="41.5177811" lon="0.2314666"><ele>334.0</ele><time>2026-05-04T11:00:10.562Z</time></trkpt><trkpt lat="41.5177662" lon="0.2316078"><ele>334.0</ele><time>2026-05-04T11:00:11.562Z</time></trkpt><trkpt lat="41.5177545" lon="0.2317516"><ele>334.0</ele><time>2026-05-04T11:00:12.572Z</time></trkpt><trkpt lat="41.5177366" lon="0.2319086"><ele>334.5</ele><time>2026-05-04T11:00:13.556Z</time></trkpt><trkpt lat="41.5177169" lon="0.2320696"><ele>335.0</ele><time>2026-05-04T11:00:14.565Z</time></trkpt><trkpt lat="41.5177029" lon="0.2322202"><ele>335.5</ele><time>2026-05-04T11:00:15.57Z</time></trkpt><trkpt lat="41.517689" lon="0.2323658"><ele>336.0</ele><time>2026-05-04T11:00:16.565Z</time></trkpt><trkpt lat="41.5176792" lon="0.2325084"><ele>336.5</ele><time>2026-05-04T11:00:17.559Z</time></trkpt><trkpt lat="41.5176659" lon="0.2326575"><ele>337.0</ele><time>2026-05-04T11:00:18.548Z</time></trkpt><trkpt lat="41.5176565" lon="0.2328266"><ele>337.5</ele><time>2026-05-04T11:00:19.554Z</time></trkpt><trkpt lat="41.5176387" lon="0.2329853"><ele>338.0</ele><time>2026-05-04T11:00:20.558Z</time></trkpt><trkpt lat="41.5176235" lon="0.2331455"><ele>338.4</ele><time>2026-05-04T11:00:21.566Z</time></trkpt><trkpt lat="41.5176087" lon="0.2332952"><ele>338.79999999999995</ele><time>2026-05-04T11:00:22.568Z</time></trkpt><trkpt lat="41.5176002" lon="0.2334419"><ele>339.2</ele><time>2026-05-04T11:00:23.572Z</time></trkpt><trkpt lat="41.5175959" lon="0.2335846"><ele>339.6</ele><time>2026-05-04T11:00:24.572Z</time></trkpt><trkpt lat="41.517588" lon="0.2337366"><ele>340.0</ele><time>2026-05-04T11:00:25.572Z</time></trkpt><trkpt lat="41.5175782" lon="0.2338862"><ele>340.0</ele><time>2026-05-04T11:00:26.567Z</time></trkpt><trkpt lat="41.5175687" lon="0.2340363"><ele>340.0</ele><time>2026-05-04T11:00:27.575Z</time></trkpt><trkpt lat="41.5175564" lon="0.2341866"><ele>340.0</ele><time>2026-05-04T11:00:28.57Z</time></trkpt><trkpt lat="41.5175467" lon="0.2343359"><ele>340.0</ele><time>2026-05-04T11:00:29.573Z</time></trkpt><trkpt lat="41.517537" lon="0.2344875"><ele>340.0</ele><time>2026-05-04T11:00:30.567Z</time></trkpt><trkpt lat="41.5175235" lon="0.2346421"><ele>340.0</ele><time>2026-05-04T11:00:31.568Z</time></trkpt><trkpt lat="41.5175119" lon="0.2347966"><ele>340.0</ele><time>2026-05-04T11:00:32.568Z</time></trkpt><trkpt lat="41.5174956" lon="0.2349511"><ele>340.0</ele><time>2026-05-04T11:00:33.572Z</time></trkpt><trkpt lat="41.5174847" lon="0.2351085"><ele>340.25</ele><time>2026-05-04T11:00:34.567Z</time></trkpt><trkpt lat="41.5174687" lon="0.2352662"><ele>340.5</ele><time>2026-05-04T11:00:35.568Z</time></trkpt><trkpt lat="41.5174525" lon="0.2354278"><ele>340.75</ele><time>2026-05-04T11:00:36.576Z</time></trkpt><trkpt lat="41.5174377" lon="0.2355863"><ele>341.0</ele><time>2026-05-04T11:00:37.557Z</time></trkpt><trkpt lat="41.5174245" lon="0.2357462"><ele>341.5</ele><time>2026-05-04T11:00:38.577Z</time></trkpt><trkpt lat="41.5174116" lon="0.2359074"><ele>342.0</ele><time>2026-05-04T11:00:39.571Z</time></trkpt><trkpt lat="41.5173977" lon="0.2360678"><ele>342.5</ele><time>2026-05-04T11:00:40.579Z</time></trkpt><trkpt lat="41.5173832" lon="0.2362299"><ele>343.0</ele><time>2026-05-04T11:00:41.57Z</time></trkpt><trkpt lat="41.5173698" lon="0.2363925"><ele>343.0</ele><time>2026-05-04T11:00:42.569Z</time></trkpt><trkpt lat="41.5173598" lon="0.2365592"><ele>343.0</ele><time>2026-05-04T11:00:43.569Z</time></trkpt><trkpt lat="41.5173494" lon="0.2367237"><ele>343.0</ele><time>2026-05-04T11:00:44.573Z</time></trkpt><trkpt lat="41.5173385" lon="0.2368884"><ele>343.0</ele><time>2026-05-04T11:00:45.566Z</time></trkpt><trkpt lat="41.5173245" lon="0.2370568"><ele>343.0</ele><time>2026-05-04T11:00:46.563Z</time></trkpt><trkpt lat="41.5173095" lon="0.237224"><ele>343.0</ele><time>2026-05-04T11:00:47.569Z</time></trkpt><trkpt lat="41.5172979" lon="0.237393"><ele>343.0</ele><time>2026-05-04T11:00:48.573Z</time></trkpt><trkpt lat="41.5172837" lon="0.237564"><ele>343.0</ele><time>2026-05-04T11:00:49.575Z</time></trkpt><trkpt lat="41.517267" lon="0.2377354"><ele>343.3333333333333</ele><time>2026-05-04T11:00:50.57Z</time></trkpt><trkpt lat="41.5172554" lon="0.2378993"><ele>343.6666666666667</ele><time>2026-05-04T11:00:51.572Z</time></trkpt><trkpt lat="41.5172429" lon="0.2380649"><ele>344.0</ele><time>2026-05-04T11:00:52.558Z</time></trkpt><trkpt lat="41.517217" lon="0.2383917"><ele>344.5</ele><time>2026-05-04T11:00:54.566Z</time></trkpt><trkpt lat="41.5172044" lon="0.2385527"><ele>345.0</ele><time>2026-05-04T11:00:55.563Z</time></trkpt><trkpt lat="41.5171959" lon="0.2387124"><ele>345.5</ele><time>2026-05-04T11:00:56.562Z</time></trkpt><trkpt lat="41.5171868" lon="0.2388761"><ele>346.0</ele><time>2026-05-04T11:00:57.572Z</time></trkpt><trkpt lat="41.5171754" lon="0.2390386"><ele>346.25</ele><time>2026-05-04T11:00:58.568Z</time></trkpt><trkpt lat="41.5171634" lon="0.2392116"><ele>346.5</ele><time>2026-05-04T11:00:59.562Z</time></trkpt><trkpt lat="41.5171568" lon="0.2393969"><ele>346.75</ele><time>2026-05-04T11:01:00.568Z</time></trkpt><trkpt lat="41.517149" lon="0.2395996"><ele>347.0</ele><time>2026-05-04T11:01:01.562Z</time></trkpt><trkpt lat="41.5171184" lon="0.2398092"><ele>347.0</ele><time>2026-05-04T11:01:02.56Z</time></trkpt><trkpt lat="41.517091" lon="0.2399953"><ele>347.0</ele><time>2026-05-04T11:01:03.563Z</time></trkpt><trkpt lat="41.5170686" lon="0.2401646"><ele>347.0</ele><time>2026-05-04T11:01:04.568Z</time></trkpt><trkpt lat="41.5170558" lon="0.2403297"><ele>347.0</ele><time>2026-05-04T11:01:05.563Z</time></trkpt><trkpt lat="41.5170423" lon="0.2405055"><ele>347.25</ele><time>2026-05-04T11:01:06.573Z</time></trkpt><trkpt lat="41.5170324" lon="0.2406741"><ele>347.5</ele><time>2026-05-04T11:01:07.576Z</time></trkpt><trkpt lat="41.5170343" lon="0.2408493"><ele>347.75</ele><time>2026-05-04T11:01:08.568Z</time></trkpt><trkpt lat="41.5170253" lon="0.2410172"><ele>348.0</ele><time>2026-05-04T11:01:09.574Z</time></trkpt><trkpt lat="41.5170039" lon="0.2411871"><ele>348.0</ele><time>2026-05-04T11:01:10.571Z</time></trkpt><trkpt lat="41.5169815" lon="0.2413638"><ele>348.0</ele><time>2026-05-04T11:01:11.578Z</time></trkpt><trkpt lat="41.5169629" lon="0.2415386"><ele>348.0</ele><time>2026-05-04T11:01:12.574Z</time></trkpt><trkpt lat="41.5169408" lon="0.2417178"><ele>348.0</ele><time>2026-05-04T11:01:13.562Z</time></trkpt><trkpt lat="41.5169264" lon="0.2418957"><ele>348.5</ele><time>2026-05-04T11:01:14.57Z</time></trkpt><trkpt lat="41.5169063" lon="0.2420789"><ele>349.0</ele><time>2026-05-04T11:01:15.565Z</time></trkpt><trkpt lat="41.5168849" lon="0.2422573"><ele>349.5</ele><time>2026-05-04T11:01:16.564Z</time></trkpt><trkpt lat="41.5168636" lon="0.2424325"><ele>350.0</ele><time>2026-05-04T11:01:17.563Z</time></trkpt><trkpt lat="41.5168453" lon="0.2426144"><ele>350.25</ele><time>2026-05-04T11:01:18.569Z</time></trkpt><trkpt lat="41.5168311" lon="0.2428017"><ele>350.5</ele><time>2026-05-04T11:01:19.561Z</time></trkpt><trkpt lat="41.5168134" lon="0.2429963"><ele>350.75</ele><time>2026-05-04T11:01:20.558Z</time></trkpt><trkpt lat="41.5167946" lon="0.2431908"><ele>351.0</ele><time>2026-05-04T11:01:21.568Z</time></trkpt><trkpt lat="41.5167849" lon="0.2433813"><ele>351.25</ele><time>2026-05-04T11:01:22.575Z</time></trkpt><trkpt lat="41.5167698" lon="0.2435661"><ele>351.5</ele><time>2026-05-04T11:01:23.578Z</time></trkpt><trkpt lat="41.5167588" lon="0.243744"><ele>351.75</ele><time>2026-05-04T11:01:24.579Z</time></trkpt><trkpt lat="41.5167467" lon="0.2439296"><ele>352.0</ele><time>2026-05-04T11:01:25.578Z</time></trkpt><trkpt lat="41.5167388" lon="0.2441111"><ele>352.0</ele><time>2026-05-04T11:01:26.575Z</time></trkpt><trkpt lat="41.5167251" lon="0.2442991"><ele>352.0</ele><time>2026-05-04T11:01:27.578Z</time></trkpt><trkpt lat="41.5167129" lon="0.2444828"><ele>352.0</ele><time>2026-05-04T11:01:28.549Z</time></trkpt><trkpt lat="41.5166948" lon="0.2446705"><ele>352.0</ele><time>2026-05-04T11:01:29.576Z</time></trkpt><trkpt lat="41.5166684" lon="0.2448954"><ele>352.25</ele><time>2026-05-04T11:01:30.56Z</time></trkpt><trkpt lat="41.5166472" lon="0.2450889"><ele>352.5</ele><time>2026-05-04T11:01:31.555Z</time></trkpt><trkpt lat="41.5166295" lon="0.245252"><ele>352.75</ele><time>2026-05-04T11:01:32.565Z</time></trkpt><trkpt lat="41.5166251" lon="0.245394"><ele>353.0</ele><time>2026-05-04T11:01:33.566Z</time></trkpt><trkpt lat="41.5166151" lon="0.245552"><ele>353.25</ele><time>2026-05-04T11:01:34.572Z</time></trkpt><trkpt lat="41.5166105" lon="0.2457097"><ele>353.5</ele><time>2026-05-04T11:01:35.575Z</time></trkpt><trkpt lat="41.5166042" lon="0.2458645"><ele>353.75</ele><time>2026-05-04T11:01:36.571Z</time></trkpt><trkpt lat="41.516585" lon="0.2460297"><ele>354.0</ele><time>2026-05-04T11:01:37.571Z</time></trkpt><trkpt lat="41.5165695" lon="0.2461908"><ele>354.0</ele><time>2026-05-04T11:01:38.572Z</time></trkpt><trkpt lat="41.5165535" lon="0.2463668"><ele>354.0</ele><time>2026-05-04T11:01:39.569Z</time></trkpt><trkpt lat="41.5165418" lon="0.2465447"><ele>354.0</ele><time>2026-05-04T11:01:40.569Z</time></trkpt><trkpt lat="41.5165323" lon="0.2467268"><ele>354.0</ele><time>2026-05-04T11:01:41.574Z</time></trkpt><trkpt lat="41.5165238" lon="0.2469072"><ele>354.0</ele><time>2026-05-04T11:01:42.58Z</time></trkpt><trkpt lat="41.5165109" lon="0.2470901"><ele>354.0</ele><time>2026-05-04T11:01:43.574Z</time></trkpt><trkpt lat="41.516499" lon="0.2472589"><ele>354.0</ele><time>2026-05-04T11:01:44.567Z</time></trkpt><trkpt lat="41.5164753" lon="0.2474291"><ele>354.0</ele><time>2026-05-04T11:01:45.574Z</time></trkpt><trkpt lat="41.5164603" lon="0.2476044"><ele>354.0</ele><time>2026-05-04T11:01:46.571Z</time></trkpt><trkpt lat="41.5164505" lon="0.2477697"><ele>354.0</ele><time>2026-05-04T11:01:47.569Z</time></trkpt><trkpt lat="41.5164363" lon="0.2479341"><ele>354.0</ele><time>2026-05-04T11:01:48.571Z</time></trkpt><trkpt lat="41.5164217" lon="0.248091"><ele>354.0</ele><time>2026-05-04T11:01:49.57Z</time></trkpt><trkpt lat="41.5164062" lon="0.2482503"><ele>354.5</ele><time>2026-05-04T11:01:50.567Z</time></trkpt><trkpt lat="41.5163912" lon="0.2484113"><ele>355.0</ele><time>2026-05-04T11:01:51.574Z</time></trkpt><trkpt lat="41.5163759" lon="0.2485689"><ele>355.5</ele><time>2026-05-04T11:01:52.568Z</time></trkpt><trkpt lat="41.5163633" lon="0.2487294"><ele>356.0</ele><time>2026-05-04T11:01:53.568Z</time></trkpt><trkpt lat="41.5163495" lon="0.24889"><ele>356.25</ele><time>2026-05-04T11:01:54.572Z</time></trkpt><trkpt lat="41.5163342" lon="0.2490551"><ele>356.5</ele><time>2026-05-04T11:01:55.573Z</time></trkpt><trkpt lat="41.5163225" lon="0.2492202"><ele>356.75</ele><time>2026-05-04T11:01:56.567Z</time></trkpt><trkpt lat="41.5163095" lon="0.249388"><ele>357.0</ele><time>2026-05-04T11:01:57.576Z</time></trkpt><trkpt lat="41.5162966" lon="0.2495606"><ele>357.0</ele><time>2026-05-04T11:01:58.568Z</time></trkpt><trkpt lat="41.5162813" lon="0.2497338"><ele>357.0</ele><time>2026-05-04T11:01:59.568Z</time></trkpt><trkpt lat="41.5162669" lon="0.2499039"><ele>357.0</ele><time>2026-05-04T11:02:00.569Z</time></trkpt><trkpt lat="41.5162503" lon="0.2500736"><ele>357.0</ele><time>2026-05-04T11:02:01.555Z</time></trkpt><trkpt lat="41.5162367" lon="0.250245"><ele>357.25</ele><time>2026-05-04T11:02:02.559Z</time></trkpt><trkpt lat="41.5162261" lon="0.250412"><ele>357.5</ele><time>2026-05-04T11:02:03.57Z</time></trkpt><trkpt lat="41.5162173" lon="0.2505873"><ele>357.75</ele><time>2026-05-04T11:02:04.557Z</time></trkpt><trkpt lat="41.5162045" lon="0.2507882"><ele>358.0</ele><time>2026-05-04T11:02:05.554Z</time></trkpt><trkpt lat="41.5161793" lon="0.2509826"><ele>358.25</ele><time>2026-05-04T11:02:06.564Z</time></trkpt><trkpt lat="41.5161605" lon="0.2511644"><ele>358.5</ele><time>2026-05-04T11:02:07.558Z</time></trkpt><trkpt lat="41.5161351" lon="0.251354"><ele>358.75</ele><time>2026-05-04T11:02:08.56Z</time></trkpt><trkpt lat="41.5161173" lon="0.251538"><ele>359.0</ele><time>2026-05-04T11:02:09.564Z</time></trkpt><trkpt lat="41.5161018" lon="0.2517187"><ele>359.0</ele><time>2026-05-04T11:02:10.572Z</time></trkpt><trkpt lat="41.51609" lon="0.2518941"><ele>359.0</ele><time>2026-05-04T11:02:11.566Z</time></trkpt><trkpt lat="41.5160781" lon="0.2520688"><ele>359.0</ele><time>2026-05-04T11:02:12.577Z</time></trkpt><trkpt lat="41.5160628" lon="0.2522416"><ele>359.0</ele><time>2026-05-04T11:02:13.568Z</time></trkpt><trkpt lat="41.5160478" lon="0.2524149"><ele>359.25</ele><time>2026-05-04T11:02:14.569Z</time></trkpt><trkpt lat="41.5160345" lon="0.2525859"><ele>359.5</ele><time>2026-05-04T11:02:15.563Z</time></trkpt><trkpt lat="41.5160273" lon="0.2527578"><ele>359.75</ele><time>2026-05-04T11:02:16.561Z</time></trkpt><trkpt lat="41.5160083" lon="0.2529207"><ele>360.0</ele><time>2026-05-04T11:02:17.569Z</time></trkpt><trkpt lat="41.5159857" lon="0.253095"><ele>360.25</ele><time>2026-05-04T11:02:18.556Z</time></trkpt><trkpt lat="41.5159645" lon="0.2532886"><ele>360.5</ele><time>2026-05-04T11:02:19.56Z</time></trkpt><trkpt lat="41.5159441" lon="0.2534764"><ele>360.75</ele><time>2026-05-04T11:02:20.569Z</time></trkpt><trkpt lat="41.5159295" lon="0.2536463"><ele>361.0</ele><time>2026-05-04T11:02:21.575Z</time></trkpt><trkpt lat="41.5159181" lon="0.2538324"><ele>361.0</ele><time>2026-05-04T11:02:22.566Z</time></trkpt><trkpt lat="41.5159083" lon="0.2540144"><ele>361.0</ele><time>2026-05-04T11:02:23.57Z</time></trkpt><trkpt lat="41.5159192" lon="0.2541756"><ele>361.0</ele><time>2026-05-04T11:02:24.562Z</time></trkpt><trkpt lat="41.5159089" lon="0.2543359"><ele>361.0</ele><time>2026-05-04T11:02:25.562Z</time></trkpt><trkpt lat="41.5158899" lon="0.2545175"><ele>361.0</ele><time>2026-05-04T11:02:26.566Z</time></trkpt><trkpt lat="41.5158446" lon="0.2547422"><ele>361.0</ele><time>2026-05-04T11:02:27.56Z</time></trkpt><trkpt lat="41.515819" lon="0.2549208"><ele>361.0</ele><time>2026-05-04T11:02:28.561Z</time></trkpt><trkpt lat="41.5157974" lon="0.2550933"><ele>361.0</ele><time>2026-05-04T11:02:29.562Z</time></trkpt><trkpt lat="41.5157787" lon="0.2552588"><ele>361.0</ele><time>2026-05-04T11:02:30.566Z</time></trkpt><trkpt lat="41.5157647" lon="0.2554228"><ele>361.0</ele><time>2026-05-04T11:02:31.572Z</time></trkpt><trkpt lat="41.5157459" lon="0.2555979"><ele>361.0</ele><time>2026-05-04T11:02:32.571Z</time></trkpt><trkpt lat="41.5157254" lon="0.255783"><ele>361.0</ele><time>2026-05-04T11:02:33.572Z</time></trkpt><trkpt lat="41.5157019" lon="0.2559818"><ele>361.25</ele><time>2026-05-04T11:02:34.568Z</time></trkpt><trkpt lat="41.5156751" lon="0.256161"><ele>361.5</ele><time>2026-05-04T11:02:35.563Z</time></trkpt><trkpt lat="41.5156505" lon="0.2563473"><ele>361.75</ele><time>2026-05-04T11:02:36.568Z</time></trkpt><trkpt lat="41.5156272" lon="0.2565351"><ele>362.0</ele><time>2026-05-04T11:02:37.58Z</time></trkpt><trkpt lat="41.5156147" lon="0.2567161"><ele>362.25</ele><time>2026-05-04T11:02:38.588Z</time></trkpt><trkpt lat="41.5155965" lon="0.2569092"><ele>362.5</ele><time>2026-05-04T11:02:39.584Z</time></trkpt><trkpt lat="41.515574" lon="0.2570993"><ele>362.75</ele><time>2026-05-04T11:02:40.585Z</time></trkpt><trkpt lat="41.5155615" lon="0.2572847"><ele>363.0</ele><time>2026-05-04T11:02:41.586Z</time></trkpt><trkpt lat="41.5155422" lon="0.257475"><ele>363.0</ele><time>2026-05-04T11:02:42.586Z</time></trkpt><trkpt lat="41.5155169" lon="0.2576515"><ele>363.0</ele><time>2026-05-04T11:02:43.585Z</time></trkpt><trkpt lat="41.5154967" lon="0.2578365"><ele>363.0</ele><time>2026-05-04T11:02:44.581Z</time></trkpt><trkpt lat="41.5154811" lon="0.2580222"><ele>363.0</ele><time>2026-05-04T11:02:45.579Z</time></trkpt><trkpt lat="41.5154643" lon="0.2582042"><ele>363.25</ele><time>2026-05-04T11:02:46.586Z</time></trkpt><trkpt lat="41.5154241" lon="0.2583591"><ele>363.5</ele><time>2026-05-04T11:02:47.578Z</time></trkpt><trkpt lat="41.5153926" lon="0.258528"><ele>363.75</ele><time>2026-05-04T11:02:48.569Z</time></trkpt><trkpt lat="41.5153736" lon="0.2586915"><ele>364.0</ele><time>2026-05-04T11:02:49.57Z</time></trkpt><trkpt lat="41.5153499" lon="0.2588576"><ele>364.0</ele><time>2026-05-04T11:02:50.564Z</time></trkpt><trkpt lat="41.5153231" lon="0.2590423"><ele>364.0</ele><time>2026-05-04T11:02:51.574Z</time></trkpt><trkpt lat="41.5153031" lon="0.2592309"><ele>364.0</ele><time>2026-05-04T11:02:52.574Z</time></trkpt><trkpt lat="41.5152912" lon="0.2594237"><ele>364.0</ele><time>2026-05-04T11:02:53.576Z</time></trkpt><trkpt lat="41.5152767" lon="0.2596154"><ele>364.0</ele><time>2026-05-04T11:02:54.584Z</time></trkpt><trkpt lat="41.515255" lon="0.2598048"><ele>364.0</ele><time>2026-05-04T11:02:55.583Z</time></trkpt><trkpt lat="41.5152393" lon="0.2599925"><ele>364.0</ele><time>2026-05-04T11:02:56.584Z</time></trkpt><trkpt lat="41.515236" lon="0.2601799"><ele>364.0</ele><time>2026-05-04T11:02:57.588Z</time></trkpt><trkpt lat="41.5152335" lon="0.2603638"><ele>364.0</ele><time>2026-05-04T11:02:58.586Z</time></trkpt><trkpt lat="41.5152277" lon="0.2605505"><ele>364.0</ele><time>2026-05-04T11:02:59.582Z</time></trkpt><trkpt lat="41.5152108" lon="0.2607352"><ele>364.0</ele><time>2026-05-04T11:03:00.58Z</time></trkpt><trkpt lat="41.5151905" lon="0.2609183"><ele>364.0</ele><time>2026-05-04T11:03:01.581Z</time></trkpt><trkpt lat="41.5151789" lon="0.2610999"><ele>364.5</ele><time>2026-05-04T11:03:02.58Z</time></trkpt><trkpt lat="41.5151606" lon="0.2612819"><ele>365.0</ele><time>2026-05-04T11:03:03.579Z</time></trkpt><trkpt lat="41.5151437" lon="0.26146"><ele>365.5</ele><time>2026-05-04T11:03:04.58Z</time></trkpt><trkpt lat="41.5151255" lon="0.2616456"><ele>366.0</ele><time>2026-05-04T11:03:05.572Z</time></trkpt><trkpt lat="41.5151136" lon="0.2618259"><ele>366.0</ele><time>2026-05-04T11:03:06.57Z</time></trkpt><trkpt lat="41.5150959" lon="0.261989"><ele>366.0</ele><time>2026-05-04T11:03:07.574Z</time></trkpt><trkpt lat="41.5150927" lon="0.2621742"><ele>366.0</ele><time>2026-05-04T11:03:08.559Z</time></trkpt><trkpt lat="41.5150834" lon="0.2623618"><ele>366.0</ele><time>2026-05-04T11:03:09.571Z</time></trkpt><trkpt lat="41.515065" lon="0.2625453"><ele>366.25</ele><time>2026-05-04T11:03:10.577Z</time></trkpt><trkpt lat="41.515043" lon="0.2627227"><ele>366.5</ele><time>2026-05-04T11:03:11.581Z</time></trkpt><trkpt lat="41.5150154" lon="0.2629011"><ele>366.75</ele><time>2026-05-04T11:03:12.578Z</time></trkpt><trkpt lat="41.5149879" lon="0.2630704"><ele>367.0</ele><time>2026-05-04T11:03:13.58Z</time></trkpt><trkpt lat="41.5149694" lon="0.2632513"><ele>367.25</ele><time>2026-05-04T11:03:14.589Z</time></trkpt><trkpt lat="41.5149484" lon="0.2634362"><ele>367.5</ele><time>2026-05-04T11:03:15.582Z</time></trkpt><trkpt lat="41.5149246" lon="0.2636191"><ele>367.75</ele><time>2026-05-04T11:03:16.581Z</time></trkpt><trkpt lat="41.5148989" lon="0.2638007"><ele>368.0</ele><time>2026-05-04T11:03:17.582Z</time></trkpt><trkpt lat="41.5148721" lon="0.263958"><ele>368.25</ele><time>2026-05-04T11:03:18.572Z</time></trkpt><trkpt lat="41.5148876" lon="0.2641313"><ele>368.5</ele><time>2026-05-04T11:03:19.575Z</time></trkpt><trkpt lat="41.5148631" lon="0.2643172"><ele>368.75</ele><time>2026-05-04T11:03:20.56Z</time></trkpt><trkpt lat="41.5148492" lon="0.2644815"><ele>369.0</ele><time>2026-05-04T11:03:21.573Z</time></trkpt><trkpt lat="41.5148325" lon="0.2646392"><ele>369.25</ele><time>2026-05-04T11:03:22.578Z</time></trkpt><trkpt lat="41.5148117" lon="0.2648052"><ele>369.5</ele><time>2026-05-04T11:03:23.573Z</time></trkpt><trkpt lat="41.5148024" lon="0.2649715"><ele>369.75</ele><time>2026-05-04T11:03:24.58Z</time></trkpt><trkpt lat="41.5147821" lon="0.2651542"><ele>370.0</ele><time>2026-05-04T11:03:25.575Z</time></trkpt><trkpt lat="41.5147616" lon="0.2653501"><ele>370.0</ele><time>2026-05-04T11:03:26.577Z</time></trkpt><trkpt lat="41.5147331" lon="0.2655602"><ele>370.0</ele><time>2026-05-04T11:03:27.583Z</time></trkpt><trkpt lat="41.5147068" lon="0.2657839"><ele>370.0</ele><time>2026-05-04T11:03:28.574Z</time></trkpt><trkpt lat="41.5146715" lon="0.2660383"><ele>370.66666666666663</ele><time>2026-05-04T11:03:29.565Z</time></trkpt><trkpt lat="41.514633" lon="0.2662833"><ele>371.3333333333333</ele><time>2026-05-04T11:03:30.555Z</time></trkpt><trkpt lat="41.5146254" lon="0.2664883"><ele>372.0</ele><time>2026-05-04T11:03:31.562Z</time></trkpt><trkpt lat="41.5146079" lon="0.2666953"><ele>372.0</ele><time>2026-05-04T11:03:32.571Z</time></trkpt><trkpt lat="41.5145828" lon="0.2669018"><ele>372.0</ele><time>2026-05-04T11:03:33.574Z</time></trkpt><trkpt lat="41.5145498" lon="0.2670891"><ele>372.0</ele><time>2026-05-04T11:03:34.578Z</time></trkpt><trkpt lat="41.5145227" lon="0.2672841"><ele>372.0</ele><time>2026-05-04T11:03:35.578Z</time></trkpt><trkpt lat="41.514503" lon="0.2674866"><ele>371.6666666666667</ele><time>2026-05-04T11:03:36.576Z</time></trkpt><trkpt lat="41.5144806" lon="0.2676911"><ele>371.33333333333337</ele><time>2026-05-04T11:03:37.58Z</time></trkpt><trkpt lat="41.5144622" lon="0.267894"><ele>371.0</ele><time>2026-05-04T11:03:38.586Z</time></trkpt><trkpt lat="41.5144449" lon="0.268098"><ele>371.33333333333337</ele><time>2026-05-04T11:03:39.582Z</time></trkpt><trkpt lat="41.5144251" lon="0.2682943"><ele>371.6666666666667</ele><time>2026-05-04T11:03:40.578Z</time></trkpt><trkpt lat="41.5144039" lon="0.2684919"><ele>372.0</ele><time>2026-05-04T11:03:41.579Z</time></trkpt><trkpt lat="41.5143828" lon="0.2686983"><ele>372.0</ele><time>2026-05-04T11:03:42.574Z</time></trkpt><trkpt lat="41.5143654" lon="0.2689022"><ele>372.0</ele><time>2026-05-04T11:03:43.579Z</time></trkpt><trkpt lat="41.514343" lon="0.2691089"><ele>372.0</ele><time>2026-05-04T11:03:44.573Z</time></trkpt><trkpt lat="41.5143156" lon="0.2693151"><ele>372.3333333333333</ele><time>2026-05-04T11:03:45.59Z</time></trkpt><trkpt lat="41.5142954" lon="0.2695234"><ele>372.66666666666663</ele><time>2026-05-04T11:03:46.577Z</time></trkpt><trkpt lat="41.5142797" lon="0.2697247"><ele>373.0</ele><time>2026-05-04T11:03:47.577Z</time></trkpt><trkpt lat="41.5142576" lon="0.2699285"><ele>373.0</ele><time>2026-05-04T11:03:48.578Z</time></trkpt><trkpt lat="41.5142363" lon="0.2701382"><ele>373.0</ele><time>2026-05-04T11:03:49.58Z</time></trkpt><trkpt lat="41.5142137" lon="0.2703505"><ele>373.0</ele><time>2026-05-04T11:03:50.577Z</time></trkpt><trkpt lat="41.5141891" lon="0.2705621"><ele>373.0</ele><time>2026-05-04T11:03:51.58Z</time></trkpt><trkpt lat="41.5141639" lon="0.2707738"><ele>373.0</ele><time>2026-05-04T11:03:52.58Z</time></trkpt><trkpt lat="41.5141381" lon="0.2709762"><ele>373.0</ele><time>2026-05-04T11:03:53.581Z</time></trkpt><trkpt lat="41.5141115" lon="0.2711777"><ele>373.0</ele><time>2026-05-04T11:03:54.569Z</time></trkpt><trkpt lat="41.5141018" lon="0.2713676"><ele>373.0</ele><time>2026-05-04T11:03:55.57Z</time></trkpt><trkpt lat="41.5140867" lon="0.2715453"><ele>373.0</ele><time>2026-05-04T11:03:56.559Z</time></trkpt><trkpt lat="41.5140789" lon="0.2717376"><ele>373.0</ele><time>2026-05-04T11:03:57.568Z</time></trkpt><trkpt lat="41.5141013" lon="0.2719011"><ele>372.75</ele><time>2026-05-04T11:03:58.572Z</time></trkpt><trkpt lat="41.5140584" lon="0.2720483"><ele>372.5</ele><time>2026-05-04T11:03:59.556Z</time></trkpt><trkpt lat="41.514043" lon="0.2722039"><ele>372.25</ele><time>2026-05-04T11:04:00.556Z</time></trkpt><trkpt lat="41.5140113" lon="0.2723631"><ele>372.0</ele><time>2026-05-04T11:04:01.552Z</time></trkpt><trkpt lat="41.5139625" lon="0.2725384"><ele>371.5</ele><time>2026-05-04T11:04:02.553Z</time></trkpt><trkpt lat="41.5139237" lon="0.2727081"><ele>371.0</ele><time>2026-05-04T11:04:03.559Z</time></trkpt><trkpt lat="41.5138913" lon="0.2728898"><ele>370.5</ele><time>2026-05-04T11:04:04.553Z</time></trkpt><trkpt lat="41.5138404" lon="0.2730755"><ele>370.0</ele><time>2026-05-04T11:04:05.562Z</time></trkpt><trkpt lat="41.5137915" lon="0.273273"><ele>368.66666666666663</ele><time>2026-05-04T11:04:06.556Z</time></trkpt><trkpt lat="41.5137492" lon="0.2734754"><ele>367.3333333333333</ele><time>2026-05-04T11:04:07.561Z</time></trkpt><trkpt lat="41.5137128" lon="0.2736662"><ele>366.0</ele><time>2026-05-04T11:04:08.554Z</time></trkpt><trkpt lat="41.5136733" lon="0.2738648"><ele>363.5</ele><time>2026-05-04T11:04:09.563Z</time></trkpt><trkpt lat="41.5136347" lon="0.2740326"><ele>361.0</ele><time>2026-05-04T11:04:10.561Z</time></trkpt><trkpt lat="41.5135985" lon="0.2742199"><ele>358.5</ele><time>2026-05-04T11:04:11.547Z</time></trkpt><trkpt lat="41.5135467" lon="0.2744082"><ele>356.0</ele><time>2026-05-04T11:04:12.557Z</time></trkpt><trkpt lat="41.5134947" lon="0.2746055"><ele>354.75</ele><time>2026-05-04T11:04:13.548Z</time></trkpt><trkpt lat="41.5134462" lon="0.2748005"><ele>353.5</ele><time>2026-05-04T11:04:14.55Z</time></trkpt><trkpt lat="41.5133974" lon="0.2749903"><ele>352.25</ele><time>2026-05-04T11:04:15.549Z</time></trkpt><trkpt lat="41.5133627" lon="0.2751647"><ele>351.0</ele><time>2026-05-04T11:04:16.561Z</time></trkpt><trkpt lat="41.513333" lon="0.2753229"><ele>351.0</ele><time>2026-05-04T11:04:17.557Z</time></trkpt><trkpt lat="41.5132907" lon="0.275507"><ele>351.0</ele><time>2026-05-04T11:04:18.556Z</time></trkpt><trkpt lat="41.5132451" lon="0.2756903"><ele>351.0</ele><time>2026-05-04T11:04:19.563Z</time></trkpt><trkpt lat="41.5132042" lon="0.2758646"><ele>351.0</ele><time>2026-05-04T11:04:20.563Z</time></trkpt><trkpt lat="41.513176" lon="0.2760375"><ele>350.75</ele><time>2026-05-04T11:04:21.563Z</time></trkpt><trkpt lat="41.5131387" lon="0.2762129"><ele>350.5</ele><time>2026-05-04T11:04:22.566Z</time></trkpt><trkpt lat="41.5131035" lon="0.2763935"><ele>350.25</ele><time>2026-05-04T11:04:23.558Z</time></trkpt><trkpt lat="41.5130699" lon="0.2765729"><ele>350.0</ele><time>2026-05-04T11:04:24.562Z</time></trkpt><trkpt lat="41.5130285" lon="0.276741"><ele>350.4</ele><time>2026-05-04T11:04:25.553Z</time></trkpt><trkpt lat="41.5129782" lon="0.2768895"><ele>350.8</ele><time>2026-05-04T11:04:26.552Z</time></trkpt><trkpt lat="41.5129346" lon="0.2770333"><ele>351.20000000000005</ele><time>2026-05-04T11:04:27.564Z</time></trkpt><trkpt lat="41.5128522" lon="0.2771289"><ele>351.6</ele><time>2026-05-04T11:04:28.552Z</time></trkpt><trkpt lat="41.512816" lon="0.2772449"><ele>352.0</ele><time>2026-05-04T11:04:29.558Z</time></trkpt><trkpt lat="41.5128479" lon="0.2774162"><ele>348.3333333333333</ele><time>2026-05-04T11:04:30.545Z</time></trkpt><trkpt lat="41.5128839" lon="0.2776027"><ele>344.6666666666667</ele><time>2026-05-04T11:04:31.538Z</time></trkpt><trkpt lat="41.5128859" lon="0.277833"><ele>341.0</ele><time>2026-05-04T11:04:32.548Z</time></trkpt><trkpt lat="41.5128579" lon="0.278056"><ele>340.33333333333337</ele><time>2026-05-04T11:04:33.549Z</time></trkpt><trkpt lat="41.5128259" lon="0.2782854"><ele>339.6666666666667</ele><time>2026-05-04T11:04:34.555Z</time></trkpt><trkpt lat="41.5128002" lon="0.278514"><ele>339.0</ele><time>2026-05-04T11:04:35.549Z</time></trkpt><trkpt lat="41.5127738" lon="0.2787399"><ele>338.3333333333333</ele><time>2026-05-04T11:04:36.545Z</time></trkpt><trkpt lat="41.5127576" lon="0.2789573"><ele>337.66666666666663</ele><time>2026-05-04T11:04:37.549Z</time></trkpt><trkpt lat="41.5127338" lon="0.2791987"><ele>337.0</ele><time>2026-05-04T11:04:38.548Z</time></trkpt><trkpt lat="41.5127148" lon="0.2794422"><ele>337.0</ele><time>2026-05-04T11:04:39.543Z</time></trkpt><trkpt lat="41.512699" lon="0.2796892"><ele>337.0</ele><time>2026-05-04T11:04:40.548Z</time></trkpt><trkpt lat="41.51269" lon="0.2799416"><ele>337.0</ele><time>2026-05-04T11:04:41.546Z</time></trkpt><trkpt lat="41.5126825" lon="0.2802077"><ele>337.66666666666663</ele><time>2026-05-04T11:04:42.539Z</time></trkpt><trkpt lat="41.5126894" lon="0.2804597"><ele>338.3333333333333</ele><time>2026-05-04T11:04:43.538Z</time></trkpt><trkpt lat="41.5126924" lon="0.2807019"><ele>339.0</ele><time>2026-05-04T11:04:44.537Z</time></trkpt><trkpt lat="41.5126883" lon="0.2809451"><ele>337.0</ele><time>2026-05-04T11:04:45.54Z</time></trkpt><trkpt lat="41.5126854" lon="0.2811891"><ele>335.0</ele><time>2026-05-04T11:04:46.537Z</time></trkpt><trkpt lat="41.5126947" lon="0.2814372"><ele>333.0</ele><time>2026-05-04T11:04:47.547Z</time></trkpt><trkpt lat="41.5126965" lon="0.2816741"><ele>329.6666666666667</ele><time>2026-05-04T11:04:48.534Z</time></trkpt><trkpt lat="41.5127003" lon="0.2819015"><ele>326.33333333333337</ele><time>2026-05-04T11:04:49.539Z</time></trkpt><trkpt lat="41.5127047" lon="0.2821302"><ele>323.0</ele><time>2026-05-04T11:04:50.534Z</time></trkpt><trkpt lat="41.5127123" lon="0.2823532"><ele>319.0</ele><time>2026-05-04T11:04:51.533Z</time></trkpt><trkpt lat="41.5127174" lon="0.2825819"><ele>315.0</ele><time>2026-05-04T11:04:52.539Z</time></trkpt><trkpt lat="41.5127273" lon="0.2828167"><ele>311.0</ele><time>2026-05-04T11:04:53.538Z</time></trkpt><trkpt lat="41.5127337" lon="0.2830517"><ele>307.33333333333337</ele><time>2026-05-04T11:04:54.541Z</time></trkpt><trkpt lat="41.5127322" lon="0.2832774"><ele>303.6666666666667</ele><time>2026-05-04T11:04:55.538Z</time></trkpt><trkpt lat="41.5127414" lon="0.2835068"><ele>300.0</ele><time>2026-05-04T11:04:56.538Z</time></trkpt><trkpt lat="41.5127451" lon="0.283971"><ele>296.3333333333333</ele><time>2026-05-04T11:04:58.544Z</time></trkpt><trkpt lat="41.5127556" lon="0.2841986"><ele>292.66666666666663</ele><time>2026-05-04T11:04:59.536Z</time></trkpt><trkpt lat="41.5127623" lon="0.2844183"><ele>289.0</ele><time>2026-05-04T11:05:00.537Z</time></trkpt><trkpt lat="41.5127589" lon="0.2846531"><ele>286.0</ele><time>2026-05-04T11:05:01.544Z</time></trkpt><trkpt lat="41.51277" lon="0.2848746"><ele>283.0</ele><time>2026-05-04T11:05:02.528Z</time></trkpt><trkpt lat="41.5127784" lon="0.2851026"><ele>280.0</ele><time>2026-05-04T11:05:03.546Z</time></trkpt><trkpt lat="41.5127873" lon="0.2853298"><ele>280.0</ele><time>2026-05-04T11:05:04.541Z</time></trkpt><trkpt lat="41.5127879" lon="0.285562"><ele>280.0</ele><time>2026-05-04T11:05:05.541Z</time></trkpt><trkpt lat="41.5127921" lon="0.2857815"><ele>280.0</ele><time>2026-05-04T11:05:06.544Z</time></trkpt><trkpt lat="41.5127992" lon="0.2859671"><ele>278.25</ele><time>2026-05-04T11:05:07.545Z</time></trkpt><trkpt lat="41.5127966" lon="0.2861228"><ele>276.5</ele><time>2026-05-04T11:05:08.536Z</time></trkpt><trkpt lat="41.5127771" lon="0.2863228"><ele>274.75</ele><time>2026-05-04T11:05:09.529Z</time></trkpt><trkpt lat="41.5127805" lon="0.2865205"><ele>273.0</ele><time>2026-05-04T11:05:10.523Z</time></trkpt><trkpt lat="41.5128088" lon="0.2867248"><ele>271.6666666666667</ele><time>2026-05-04T11:05:11.538Z</time></trkpt><trkpt lat="41.5128374" lon="0.2869736"><ele>270.33333333333337</ele><time>2026-05-04T11:05:12.529Z</time></trkpt><trkpt lat="41.5128583" lon="0.2871927"><ele>269.0</ele><time>2026-05-04T11:05:13.546Z</time></trkpt><trkpt lat="41.5128449" lon="0.287382"><ele>266.6666666666667</ele><time>2026-05-04T11:05:14.532Z</time></trkpt><trkpt lat="41.5128442" lon="0.2875779"><ele>264.3333333333333</ele><time>2026-05-04T11:05:15.55Z</time></trkpt><trkpt lat="41.5128128" lon="0.2878395"><ele>262.0</ele><time>2026-05-04T11:05:16.532Z</time></trkpt><trkpt lat="41.51278" lon="0.2880615"><ele>259.66666666666663</ele><time>2026-05-04T11:05:17.54Z</time></trkpt><trkpt lat="41.5127623" lon="0.288294"><ele>257.3333333333333</ele><time>2026-05-04T11:05:18.536Z</time></trkpt><trkpt lat="41.5127482" lon="0.2885178"><ele>255.0</ele><time>2026-05-04T11:05:19.535Z</time></trkpt><trkpt lat="41.5127322" lon="0.2887261"><ele>253.33333333333331</ele><time>2026-05-04T11:05:20.534Z</time></trkpt><trkpt lat="41.5127183" lon="0.2889268"><ele>251.66666666666666</ele><time>2026-05-04T11:05:21.541Z</time></trkpt><trkpt lat="41.5127093" lon="0.2891372"><ele>250.0</ele><time>2026-05-04T11:05:22.541Z</time></trkpt><trkpt lat="41.5126904" lon="0.2893347"><ele>250.0</ele><time>2026-05-04T11:05:23.543Z</time></trkpt><trkpt lat="41.5126771" lon="0.2895316"><ele>250.0</ele><time>2026-05-04T11:05:24.543Z</time></trkpt><trkpt lat="41.5126673" lon="0.2897269"><ele>250.0</ele><time>2026-05-04T11:05:25.542Z</time></trkpt><trkpt lat="41.51267" lon="0.2899387"><ele>248.66666666666666</ele><time>2026-05-04T11:05:26.542Z</time></trkpt><trkpt lat="41.5127155" lon="0.29018"><ele>247.33333333333331</ele><time>2026-05-04T11:05:27.542Z</time></trkpt><trkpt lat="41.5127903" lon="0.2904103"><ele>246.0</ele><time>2026-05-04T11:05:28.538Z</time></trkpt><trkpt lat="41.5127683" lon="0.2906151"><ele>244.33333333333331</ele><time>2026-05-04T11:05:29.529Z</time></trkpt><trkpt lat="41.5126909" lon="0.2908158"><ele>242.66666666666666</ele><time>2026-05-04T11:05:30.525Z</time></trkpt><trkpt lat="41.5126029" lon="0.2910232"><ele>241.0</ele><time>2026-05-04T11:05:31.536Z</time></trkpt><trkpt lat="41.512506" lon="0.2912264"><ele>238.66666666666666</ele><time>2026-05-04T11:05:32.538Z</time></trkpt><trkpt lat="41.5124061" lon="0.2914242"><ele>236.33333333333331</ele><time>2026-05-04T11:05:33.544Z</time></trkpt><trkpt lat="41.512318" lon="0.2916102"><ele>234.0</ele><time>2026-05-04T11:05:34.535Z</time></trkpt><trkpt lat="41.5122187" lon="0.2917858"><ele>234.0</ele><time>2026-05-04T11:05:35.541Z</time></trkpt><trkpt lat="41.5121116" lon="0.291978"><ele>234.0</ele><time>2026-05-04T11:05:36.539Z</time></trkpt><trkpt lat="41.5119986" lon="0.2921431"><ele>234.0</ele><time>2026-05-04T11:05:37.536Z</time></trkpt><trkpt lat="41.5119027" lon="0.2923266"><ele>232.33333333333331</ele><time>2026-05-04T11:05:38.539Z</time></trkpt><trkpt lat="41.5118132" lon="0.2924869"><ele>230.66666666666666</ele><time>2026-05-04T11:05:39.543Z</time></trkpt><trkpt lat="41.511722" lon="0.2926557"><ele>229.0</ele><time>2026-05-04T11:05:40.538Z</time></trkpt><trkpt lat="41.5116354" lon="0.2928258"><ele>229.0</ele><time>2026-05-04T11:05:41.538Z</time></trkpt><trkpt lat="41.5115554" lon="0.2930046"><ele>229.0</ele><time>2026-05-04T11:05:42.538Z</time></trkpt><trkpt lat="41.5114684" lon="0.293182"><ele>229.0</ele><time>2026-05-04T11:05:43.539Z</time></trkpt><trkpt lat="41.5113808" lon="0.293353"><ele>228.66666666666666</ele><time>2026-05-04T11:05:44.541Z</time></trkpt><trkpt lat="41.5112934" lon="0.2935266"><ele>228.33333333333331</ele><time>2026-05-04T11:05:45.546Z</time></trkpt><trkpt lat="41.5112067" lon="0.2937063"><ele>228.0</ele><time>2026-05-04T11:05:46.539Z</time></trkpt><trkpt lat="41.5111146" lon="0.2938805"><ele>225.25</ele><time>2026-05-04T11:05:47.545Z</time></trkpt><trkpt lat="41.5110314" lon="0.2940274"><ele>222.5</ele><time>2026-05-04T11:05:48.536Z</time></trkpt><trkpt lat="41.5109736" lon="0.2941989"><ele>219.75</ele><time>2026-05-04T11:05:49.543Z</time></trkpt><trkpt lat="41.5108884" lon="0.2943857"><ele>217.0</ele><time>2026-05-04T11:05:50.543Z</time></trkpt><trkpt lat="41.510798" lon="0.2945464"><ele>217.0</ele><time>2026-05-04T11:05:51.546Z</time></trkpt><trkpt lat="41.5107105" lon="0.294715"><ele>217.0</ele><time>2026-05-04T11:05:52.547Z</time></trkpt><trkpt lat="41.5106221" lon="0.2948831"><ele>217.0</ele><time>2026-05-04T11:05:53.547Z</time></trkpt><trkpt lat="41.5105417" lon="0.2950489"><ele>217.0</ele><time>2026-05-04T11:05:54.545Z</time></trkpt><trkpt lat="41.51046" lon="0.2952122"><ele>217.0</ele><time>2026-05-04T11:05:55.545Z</time></trkpt><trkpt lat="41.5103825" lon="0.295372"><ele>217.0</ele><time>2026-05-04T11:05:56.543Z</time></trkpt><trkpt lat="41.5103074" lon="0.29553"><ele>217.0</ele><time>2026-05-04T11:05:57.546Z</time></trkpt><trkpt lat="41.5102369" lon="0.2956899"><ele>215.66666666666666</ele><time>2026-05-04T11:05:58.547Z</time></trkpt><trkpt lat="41.510101" lon="0.296021"><ele>214.33333333333331</ele><time>2026-05-04T11:06:00.539Z</time></trkpt><trkpt lat="41.5100383" lon="0.2961855"><ele>213.0</ele><time>2026-05-04T11:06:01.542Z</time></trkpt><trkpt lat="41.5099798" lon="0.2963441"><ele>212.75</ele><time>2026-05-04T11:06:02.55Z</time></trkpt><trkpt lat="41.509921" lon="0.2965026"><ele>212.5</ele><time>2026-05-04T11:06:03.545Z</time></trkpt><trkpt lat="41.5098652" lon="0.2966507"><ele>212.25</ele><time>2026-05-04T11:06:04.545Z</time></trkpt><trkpt lat="41.5098101" lon="0.2968056"><ele>212.0</ele><time>2026-05-04T11:06:05.545Z</time></trkpt><trkpt lat="41.5097537" lon="0.2969593"><ele>212.0</ele><time>2026-05-04T11:06:06.543Z</time></trkpt><trkpt lat="41.5096971" lon="0.2971158"><ele>212.0</ele><time>2026-05-04T11:06:07.546Z</time></trkpt><trkpt lat="41.5096484" lon="0.29726"><ele>212.0</ele><time>2026-05-04T11:06:08.545Z</time></trkpt><trkpt lat="41.5096075" lon="0.2973737"><ele>212.0</ele><time>2026-05-04T11:06:09.543Z</time></trkpt><trkpt lat="41.5095676" lon="0.2974817"><ele>212.0</ele><time>2026-05-04T11:06:10.543Z</time></trkpt><trkpt lat="41.5095399" lon="0.2975981"><ele>210.16666666666669</ele><time>2026-05-04T11:06:11.542Z</time></trkpt><trkpt lat="41.5095217" lon="0.2976961"><ele>208.33333333333334</ele><time>2026-05-04T11:06:12.539Z</time></trkpt><trkpt lat="41.5094962" lon="0.2978052"><ele>206.5</ele><time>2026-05-04T11:06:13.53Z</time></trkpt><trkpt lat="41.5094699" lon="0.2979035"><ele>204.66666666666669</ele><time>2026-05-04T11:06:14.525Z</time></trkpt><trkpt lat="41.5094462" lon="0.2980055"><ele>202.83333333333334</ele><time>2026-05-04T11:06:15.536Z</time></trkpt><trkpt lat="41.5094187" lon="0.2981076"><ele>201.0</ele><time>2026-05-04T11:06:16.542Z</time></trkpt><trkpt lat="41.5093892" lon="0.2982117"><ele>200.8</ele><time>2026-05-04T11:06:17.544Z</time></trkpt><trkpt lat="41.5093571" lon="0.2983721"><ele>200.60000000000002</ele><time>2026-05-04T11:06:19.543Z</time></trkpt><trkpt lat="41.5093506" lon="0.2984729"><ele>200.4</ele><time>2026-05-04T11:06:21.538Z</time></trkpt><trkpt lat="41.5093386" lon="0.2985742"><ele>200.2</ele><time>2026-05-04T11:06:25.539Z</time></trkpt><trkpt lat="41.5093012" lon="0.2986479"><ele>200.0</ele><time>2026-05-04T11:06:32.543Z</time></trkpt><trkpt lat="41.509281" lon="0.2987928"><ele>200.0</ele><time>2026-05-04T11:06:35.538Z</time></trkpt><trkpt lat="41.5092701" lon="0.298942"><ele>200.0</ele><time>2026-05-04T11:06:37.546Z</time></trkpt><trkpt lat="41.5092488" lon="0.2990508"><ele>200.0</ele><time>2026-05-04T11:06:38.546Z</time></trkpt><trkpt lat="41.5092496" lon="0.2991685"><ele>200.0</ele><time>2026-05-04T11:06:39.544Z</time></trkpt><trkpt lat="41.5092205" lon="0.2993189"><ele>200.0</ele><time>2026-05-04T11:06:40.542Z</time></trkpt><trkpt lat="41.5091919" lon="0.2994649"><ele>200.0</ele><time>2026-05-04T11:06:41.541Z</time></trkpt><trkpt lat="41.5091644" lon="0.2996007"><ele>200.0</ele><time>2026-05-04T11:06:42.542Z</time></trkpt><trkpt lat="41.5091378" lon="0.2997426"><ele>200.0</ele><time>2026-05-04T11:06:43.542Z</time></trkpt><trkpt lat="41.5091078" lon="0.2998838"><ele>200.0</ele><time>2026-05-04T11:06:44.539Z</time></trkpt><trkpt lat="41.5090818" lon="0.300033"><ele>200.0</ele><time>2026-05-04T11:06:45.539Z</time></trkpt><trkpt lat="41.509058" lon="0.3001985"><ele>199.75</ele><time>2026-05-04T11:06:46.54Z</time></trkpt><trkpt lat="41.5090349" lon="0.3003753"><ele>199.5</ele><time>2026-05-04T11:06:47.543Z</time></trkpt><trkpt lat="41.5090073" lon="0.300558"><ele>199.25</ele><time>2026-05-04T11:06:48.542Z</time></trkpt><trkpt lat="41.508988" lon="0.3007383"><ele>199.0</ele><time>2026-05-04T11:06:49.542Z</time></trkpt><trkpt lat="41.5089719" lon="0.3009241"><ele>199.75</ele><time>2026-05-04T11:06:50.544Z</time></trkpt><trkpt lat="41.5089596" lon="0.3011219"><ele>200.5</ele><time>2026-05-04T11:06:51.55Z</time></trkpt><trkpt lat="41.5089498" lon="0.301315"><ele>201.25</ele><time>2026-05-04T11:06:52.545Z</time></trkpt><trkpt lat="41.5089448" lon="0.3015183"><ele>202.0</ele><time>2026-05-04T11:06:53.543Z</time></trkpt><trkpt lat="41.5089417" lon="0.3017206"><ele>202.0</ele><time>2026-05-04T11:06:54.544Z</time></trkpt><trkpt lat="41.5089358" lon="0.3019406"><ele>202.0</ele><time>2026-05-04T11:06:55.544Z</time></trkpt><trkpt lat="41.5089282" lon="0.3021677"><ele>202.0</ele><time>2026-05-04T11:06:56.544Z</time></trkpt><trkpt lat="41.5089213" lon="0.3023933"><ele>201.33333333333331</ele><time>2026-05-04T11:06:57.55Z</time></trkpt><trkpt lat="41.5089231" lon="0.3026016"><ele>200.66666666666669</ele><time>2026-05-04T11:06:58.542Z</time></trkpt><trkpt lat="41.5089317" lon="0.3028081"><ele>200.0</ele><time>2026-05-04T11:06:59.547Z</time></trkpt><trkpt lat="41.5089332" lon="0.303008"><ele>198.5</ele><time>2026-05-04T11:07:00.548Z</time></trkpt><trkpt lat="41.5089134" lon="0.3031649"><ele>197.0</ele><time>2026-05-04T11:07:01.545Z</time></trkpt><trkpt lat="41.5089232" lon="0.30333"><ele>195.5</ele><time>2026-05-04T11:07:02.538Z</time></trkpt><trkpt lat="41.5089087" lon="0.3035332"><ele>194.0</ele><time>2026-05-04T11:07:03.538Z</time></trkpt><trkpt lat="41.508903" lon="0.3037385"><ele>192.0</ele><time>2026-05-04T11:07:04.534Z</time></trkpt><trkpt lat="41.5089106" lon="0.3039442"><ele>190.0</ele><time>2026-05-04T11:07:05.538Z</time></trkpt><trkpt lat="41.5089278" lon="0.3041521"><ele>188.0</ele><time>2026-05-04T11:07:06.534Z</time></trkpt><trkpt lat="41.5089517" lon="0.3043589"><ele>188.0</ele><time>2026-05-04T11:07:07.542Z</time></trkpt><trkpt lat="41.5089826" lon="0.3045494"><ele>188.0</ele><time>2026-05-04T11:07:08.54Z</time></trkpt><trkpt lat="41.5090085" lon="0.3047368"><ele>188.0</ele><time>2026-05-04T11:07:09.543Z</time></trkpt><trkpt lat="41.5090471" lon="0.304952"><ele>186.0</ele><time>2026-05-04T11:07:10.551Z</time></trkpt><trkpt lat="41.5090971" lon="0.3051562"><ele>184.0</ele><time>2026-05-04T11:07:11.542Z</time></trkpt><trkpt lat="41.5091554" lon="0.3053646"><ele>182.0</ele><time>2026-05-04T11:07:12.539Z</time></trkpt><trkpt lat="41.5092244" lon="0.3055702"><ele>180.33333333333331</ele><time>2026-05-04T11:07:13.54Z</time></trkpt><trkpt lat="41.5092862" lon="0.3057778"><ele>178.66666666666666</ele><time>2026-05-04T11:07:14.544Z</time></trkpt><trkpt lat="41.5093602" lon="0.3060025"><ele>177.0</ele><time>2026-05-04T11:07:15.543Z</time></trkpt><trkpt lat="41.5094369" lon="0.3062325"><ele>176.0</ele><time>2026-05-04T11:07:16.54Z</time></trkpt><trkpt lat="41.5095085" lon="0.3064602"><ele>175.0</ele><time>2026-05-04T11:07:17.535Z</time></trkpt><trkpt lat="41.5095931" lon="0.30664"><ele>174.0</ele><time>2026-05-04T11:07:18.537Z</time></trkpt><trkpt lat="41.5096886" lon="0.3067885"><ele>173.25</ele><time>2026-05-04T11:07:19.539Z</time></trkpt><trkpt lat="41.509745" lon="0.3069586"><ele>172.5</ele><time>2026-05-04T11:07:20.538Z</time></trkpt><trkpt lat="41.5098074" lon="0.3071255"><ele>171.75</ele><time>2026-05-04T11:07:21.543Z</time></trkpt><trkpt lat="41.5098712" lon="0.3072939"><ele>171.0</ele><time>2026-05-04T11:07:22.554Z</time></trkpt><trkpt lat="41.5099333" lon="0.3074559"><ele>171.0</ele><time>2026-05-04T11:07:23.542Z</time></trkpt><trkpt lat="41.5099968" lon="0.3076143"><ele>171.0</ele><time>2026-05-04T11:07:24.539Z</time></trkpt><trkpt lat="41.5100656" lon="0.3077824"><ele>171.0</ele><time>2026-05-04T11:07:25.542Z</time></trkpt><trkpt lat="41.5101314" lon="0.3079508"><ele>171.0</ele><time>2026-05-04T11:07:26.54Z</time></trkpt><trkpt lat="41.5102071" lon="0.3081156"><ele>171.0</ele><time>2026-05-04T11:07:27.546Z</time></trkpt><trkpt lat="41.5102802" lon="0.3082791"><ele>171.0</ele><time>2026-05-04T11:07:28.544Z</time></trkpt><trkpt lat="41.5103678" lon="0.3084333"><ele>171.0</ele><time>2026-05-04T11:07:29.541Z</time></trkpt><trkpt lat="41.5104454" lon="0.308585"><ele>171.0</ele><time>2026-05-04T11:07:30.543Z</time></trkpt><trkpt lat="41.5105219" lon="0.308739"><ele>170.5</ele><time>2026-05-04T11:07:31.537Z</time></trkpt><trkpt lat="41.510596" lon="0.3088886"><ele>170.0</ele><time>2026-05-04T11:07:32.529Z</time></trkpt><trkpt lat="41.5106832" lon="0.3090144"><ele>169.5</ele><time>2026-05-04T11:07:33.532Z</time></trkpt><trkpt lat="41.5107575" lon="0.3091556"><ele>169.0</ele><time>2026-05-04T11:07:34.536Z</time></trkpt><trkpt lat="41.5108356" lon="0.3093079"><ele>169.0</ele><time>2026-05-04T11:07:35.536Z</time></trkpt><trkpt lat="41.5109237" lon="0.3094624"><ele>169.0</ele><time>2026-05-04T11:07:36.535Z</time></trkpt><trkpt lat="41.5110201" lon="0.3096216"><ele>169.0</ele><time>2026-05-04T11:07:37.537Z</time></trkpt><trkpt lat="41.5111143" lon="0.3097726"><ele>169.0</ele><time>2026-05-04T11:07:38.536Z</time></trkpt><trkpt lat="41.5112099" lon="0.3099219"><ele>168.0</ele><time>2026-05-04T11:07:39.536Z</time></trkpt><trkpt lat="41.5113063" lon="0.3100649"><ele>167.0</ele><time>2026-05-04T11:07:40.536Z</time></trkpt><trkpt lat="41.5114095" lon="0.3102187"><ele>166.0</ele><time>2026-05-04T11:07:41.532Z</time></trkpt><trkpt lat="41.5115022" lon="0.3103507"><ele>165.0</ele><time>2026-05-04T11:07:42.528Z</time></trkpt><trkpt lat="41.5116262" lon="0.3105275"><ele>164.0</ele><time>2026-05-04T11:07:43.52Z</time></trkpt><trkpt lat="41.511706" lon="0.3107495"><ele>163.0</ele><time>2026-05-04T11:07:44.515Z</time></trkpt><trkpt lat="41.5117832" lon="0.3108927"><ele>162.0</ele><time>2026-05-04T11:07:45.507Z</time></trkpt><trkpt lat="41.5118644" lon="0.3109985"><ele>161.0</ele><time>2026-05-04T11:07:46.497Z</time></trkpt><trkpt lat="41.5120245" lon="0.3111618"><ele>161.0</ele><time>2026-05-04T11:07:48.534Z</time></trkpt><trkpt lat="41.511988" lon="0.3113974"><ele>161.0</ele><time>2026-05-04T11:07:49.532Z</time></trkpt><trkpt lat="41.5120051" lon="0.311636"><ele>161.0</ele><time>2026-05-04T11:07:50.531Z</time></trkpt><trkpt lat="41.5120364" lon="0.3117893"><ele>161.75</ele><time>2026-05-04T11:07:51.531Z</time></trkpt><trkpt lat="41.5120794" lon="0.3119544"><ele>162.5</ele><time>2026-05-04T11:07:52.539Z</time></trkpt><trkpt lat="41.5121071" lon="0.3121218"><ele>163.25</ele><time>2026-05-04T11:07:53.542Z</time></trkpt><trkpt lat="41.5121284" lon="0.3123029"><ele>164.0</ele><time>2026-05-04T11:07:54.542Z</time></trkpt><trkpt lat="41.5121358" lon="0.3124568"><ele>164.0</ele><time>2026-05-04T11:07:55.562Z</time></trkpt><trkpt lat="41.5121279" lon="0.3126355"><ele>164.0</ele><time>2026-05-04T11:07:56.584Z</time></trkpt><trkpt lat="41.5120845" lon="0.312815"><ele>164.0</ele><time>2026-05-04T11:07:57.578Z</time></trkpt><trkpt lat="41.5120834" lon="0.3130007"><ele>164.0</ele><time>2026-05-04T11:07:58.53Z</time></trkpt><trkpt lat="41.5120897" lon="0.3131899"><ele>163.0</ele><time>2026-05-04T11:07:59.533Z</time></trkpt><trkpt lat="41.512107" lon="0.3133709"><ele>162.0</ele><time>2026-05-04T11:08:00.533Z</time></trkpt><trkpt lat="41.5121465" lon="0.313544"><ele>161.0</ele><time>2026-05-04T11:08:01.537Z</time></trkpt><trkpt lat="41.5121917" lon="0.313728"><ele>160.0</ele><time>2026-05-04T11:08:02.539Z</time></trkpt><trkpt lat="41.5122418" lon="0.3139099"><ele>158.5</ele><time>2026-05-04T11:08:03.544Z</time></trkpt><trkpt lat="41.5122951" lon="0.3140815"><ele>157.0</ele><time>2026-05-04T11:08:04.538Z</time></trkpt><trkpt lat="41.5123587" lon="0.3142341"><ele>155.5</ele><time>2026-05-04T11:08:05.538Z</time></trkpt><trkpt lat="41.5124184" lon="0.3143954"><ele>154.0</ele><time>2026-05-04T11:08:06.542Z</time></trkpt><trkpt lat="41.5124756" lon="0.3145484"><ele>154.0</ele><time>2026-05-04T11:08:07.536Z</time></trkpt><trkpt lat="41.5125311" lon="0.3147019"><ele>154.0</ele><time>2026-05-04T11:08:08.542Z</time></trkpt><trkpt lat="41.5125939" lon="0.3148519"><ele>154.0</ele><time>2026-05-04T11:08:09.54Z</time></trkpt><trkpt lat="41.5126506" lon="0.3149956"><ele>154.0</ele><time>2026-05-04T11:08:10.542Z</time></trkpt><trkpt lat="41.5127136" lon="0.3151261"><ele>154.0</ele><time>2026-05-04T11:08:11.542Z</time></trkpt><trkpt lat="41.512767" lon="0.3152414"><ele>154.0</ele><time>2026-05-04T11:08:12.54Z</time></trkpt><trkpt lat="41.5128537" lon="0.3153599"><ele>154.0</ele><time>2026-05-04T11:08:13.526Z</time></trkpt><trkpt lat="41.5129479" lon="0.3154829"><ele>154.0</ele><time>2026-05-04T11:08:14.522Z</time></trkpt><trkpt lat="41.5130378" lon="0.3156073"><ele>152.25</ele><time>2026-05-04T11:08:15.515Z</time></trkpt><trkpt lat="41.5131307" lon="0.3157422"><ele>150.5</ele><time>2026-05-04T11:08:16.524Z</time></trkpt><trkpt lat="41.5132214" lon="0.3158824"><ele>148.75</ele><time>2026-05-04T11:08:17.525Z</time></trkpt><trkpt lat="41.5133147" lon="0.316016"><ele>147.0</ele><time>2026-05-04T11:08:18.526Z</time></trkpt><trkpt lat="41.5134156" lon="0.316143"><ele>147.0</ele><time>2026-05-04T11:08:19.526Z</time></trkpt><trkpt lat="41.5135241" lon="0.316263"><ele>147.0</ele><time>2026-05-04T11:08:20.53Z</time></trkpt><trkpt lat="41.5136343" lon="0.3163821"><ele>147.0</ele><time>2026-05-04T11:08:21.546Z</time></trkpt><trkpt lat="41.5137504" lon="0.316496"><ele>147.0</ele><time>2026-05-04T11:08:22.531Z</time></trkpt><trkpt lat="41.5138613" lon="0.3166076"><ele>146.33333333333334</ele><time>2026-05-04T11:08:23.54Z</time></trkpt><trkpt lat="41.5139692" lon="0.3167246"><ele>145.66666666666669</ele><time>2026-05-04T11:08:24.541Z</time></trkpt><trkpt lat="41.5141864" lon="0.3169307"><ele>145.0</ele><time>2026-05-04T11:08:25.535Z</time></trkpt><trkpt lat="41.5143901" lon="0.31713"><ele>143.33333333333334</ele><time>2026-05-04T11:08:26.53Z</time></trkpt><trkpt lat="41.5145476" lon="0.3172477"><ele>141.66666666666666</ele><time>2026-05-04T11:08:27.533Z</time></trkpt><trkpt lat="41.5147333" lon="0.317291"><ele>140.0</ele><time>2026-05-04T11:08:28.519Z</time></trkpt><trkpt lat="41.5148593" lon="0.3173773"><ele>140.0</ele><time>2026-05-04T11:08:29.513Z</time></trkpt><trkpt lat="41.5149444" lon="0.3174915"><ele>140.0</ele><time>2026-05-04T11:08:30.521Z</time></trkpt><trkpt lat="41.5150173" lon="0.3176207"><ele>140.0</ele><time>2026-05-04T11:08:31.53Z</time></trkpt><trkpt lat="41.5150859" lon="0.3177536"><ele>140.0</ele><time>2026-05-04T11:08:32.532Z</time></trkpt><trkpt lat="41.5151378" lon="0.3178793"><ele>140.0</ele><time>2026-05-04T11:08:33.533Z</time></trkpt><trkpt lat="41.515194" lon="0.3179963"><ele>140.0</ele><time>2026-05-04T11:08:34.53Z</time></trkpt><trkpt lat="41.5152636" lon="0.318201"><ele>140.0</ele><time>2026-05-04T11:08:35.544Z</time></trkpt><trkpt lat="41.51539" lon="0.3184147"><ele>140.25</ele><time>2026-05-04T11:08:36.534Z</time></trkpt><trkpt lat="41.5153976" lon="0.3186202"><ele>140.5</ele><time>2026-05-04T11:08:37.542Z</time></trkpt><trkpt lat="41.5153971" lon="0.318818"><ele>140.75</ele><time>2026-05-04T11:08:38.536Z</time></trkpt><trkpt lat="41.5154178" lon="0.3190062"><ele>141.0</ele><time>2026-05-04T11:08:39.541Z</time></trkpt><trkpt lat="41.5155189" lon="0.3191879"><ele>140.0</ele><time>2026-05-04T11:08:40.533Z</time></trkpt><trkpt lat="41.5156144" lon="0.3192895"><ele>139.0</ele><time>2026-05-04T11:08:41.515Z</time></trkpt><trkpt lat="41.5157137" lon="0.3193737"><ele>138.0</ele><time>2026-05-04T11:08:42.522Z</time></trkpt><trkpt lat="41.515782" lon="0.319446"><ele>137.0</ele><time>2026-05-04T11:08:43.526Z</time></trkpt><trkpt lat="41.5158286" lon="0.3195161"><ele>136.0</ele><time>2026-05-04T11:08:44.536Z</time></trkpt><trkpt lat="41.5158956" lon="0.3196147"><ele>136.0</ele><time>2026-05-04T11:08:45.533Z</time></trkpt><trkpt lat="41.515965" lon="0.3197326"><ele>136.0</ele><time>2026-05-04T11:08:46.538Z</time></trkpt><trkpt lat="41.5160338" lon="0.3198386"><ele>136.0</ele><time>2026-05-04T11:08:47.542Z</time></trkpt><trkpt lat="41.5161008" lon="0.3199456"><ele>136.0</ele><time>2026-05-04T11:08:48.553Z</time></trkpt><trkpt lat="41.5161723" lon="0.3200619"><ele>136.0</ele><time>2026-05-04T11:08:49.545Z</time></trkpt><trkpt lat="41.5162436" lon="0.3201944"><ele>135.0</ele><time>2026-05-04T11:08:50.545Z</time></trkpt><trkpt lat="41.5163191" lon="0.3203218"><ele>134.0</ele><time>2026-05-04T11:08:51.547Z</time></trkpt><trkpt lat="41.5163978" lon="0.3204485"><ele>133.0</ele><time>2026-05-04T11:08:52.552Z</time></trkpt><trkpt lat="41.5164719" lon="0.3205743"><ele>132.0</ele><time>2026-05-04T11:08:53.543Z</time></trkpt><trkpt lat="41.5165474" lon="0.3207007"><ele>131.5</ele><time>2026-05-04T11:08:54.547Z</time></trkpt><trkpt lat="41.516622" lon="0.3208336"><ele>131.0</ele><time>2026-05-04T11:08:55.554Z</time></trkpt><trkpt lat="41.5166984" lon="0.3209727"><ele>130.5</ele><time>2026-05-04T11:08:56.545Z</time></trkpt><trkpt lat="41.5167761" lon="0.3211129"><ele>130.0</ele><time>2026-05-04T11:08:57.552Z</time></trkpt><trkpt lat="41.5168522" lon="0.3212537"><ele>130.0</ele><time>2026-05-04T11:08:58.552Z</time></trkpt><trkpt lat="41.5169296" lon="0.3213987"><ele>130.0</ele><time>2026-05-04T11:08:59.545Z</time></trkpt><trkpt lat="41.5170093" lon="0.3215489"><ele>130.0</ele><time>2026-05-04T11:09:00.548Z</time></trkpt><trkpt lat="41.5170885" lon="0.3216992"><ele>130.0</ele><time>2026-05-04T11:09:01.544Z</time></trkpt><trkpt lat="41.5171619" lon="0.3218564"><ele>129.0</ele><time>2026-05-04T11:09:02.546Z</time></trkpt><trkpt lat="41.5172344" lon="0.3220244"><ele>128.0</ele><time>2026-05-04T11:09:03.545Z</time></trkpt><trkpt lat="41.5173003" lon="0.3221759"><ele>127.0</ele><time>2026-05-04T11:09:04.558Z</time></trkpt><trkpt lat="41.5173665" lon="0.3222809"><ele>126.0</ele><time>2026-05-04T11:09:05.549Z</time></trkpt><trkpt lat="41.5174341" lon="0.3223924"><ele>125.5</ele><time>2026-05-04T11:09:06.55Z</time></trkpt><trkpt lat="41.5174966" lon="0.3225498"><ele>125.0</ele><time>2026-05-04T11:09:07.548Z</time></trkpt><trkpt lat="41.5175563" lon="0.3227161"><ele>124.5</ele><time>2026-05-04T11:09:08.548Z</time></trkpt><trkpt lat="41.5176128" lon="0.3228898"><ele>124.0</ele><time>2026-05-04T11:09:09.546Z</time></trkpt><trkpt lat="41.5176599" lon="0.3230676"><ele>124.0</ele><time>2026-05-04T11:09:10.539Z</time></trkpt><trkpt lat="41.5177102" lon="0.3232456"><ele>124.0</ele><time>2026-05-04T11:09:11.545Z</time></trkpt><trkpt lat="41.5177594" lon="0.323425"><ele>124.0</ele><time>2026-05-04T11:09:12.546Z</time></trkpt><trkpt lat="41.5178094" lon="0.3236013"><ele>124.0</ele><time>2026-05-04T11:09:13.552Z</time></trkpt><trkpt lat="41.5178559" lon="0.3237715"><ele>123.0</ele><time>2026-05-04T11:09:14.548Z</time></trkpt><trkpt lat="41.5178967" lon="0.3239303"><ele>122.0</ele><time>2026-05-04T11:09:15.55Z</time></trkpt><trkpt lat="41.51793" lon="0.3240883"><ele>121.0</ele><time>2026-05-04T11:09:16.547Z</time></trkpt><trkpt lat="41.5179591" lon="0.3242437"><ele>120.0</ele><time>2026-05-04T11:09:17.547Z</time></trkpt><trkpt lat="41.5179837" lon="0.3243982"><ele>119.5</ele><time>2026-05-04T11:09:18.549Z</time></trkpt><trkpt lat="41.5180173" lon="0.3245468"><ele>119.0</ele><time>2026-05-04T11:09:19.553Z</time></trkpt><trkpt lat="41.5180509" lon="0.3246918"><ele>118.5</ele><time>2026-05-04T11:09:20.55Z</time></trkpt><trkpt lat="41.5180882" lon="0.3248379"><ele>118.0</ele><time>2026-05-04T11:09:21.551Z</time></trkpt><trkpt lat="41.5181207" lon="0.3249825"><ele>117.75</ele><time>2026-05-04T11:09:22.552Z</time></trkpt><trkpt lat="41.5181515" lon="0.3251247"><ele>117.5</ele><time>2026-05-04T11:09:23.545Z</time></trkpt><trkpt lat="41.5181839" lon="0.3252772"><ele>117.25</ele><time>2026-05-04T11:09:24.54Z</time></trkpt><trkpt lat="41.5182186" lon="0.3254346"><ele>117.0</ele><time>2026-05-04T11:09:25.545Z</time></trkpt><trkpt lat="41.518296" lon="0.3257121"><ele>116.6</ele><time>2026-05-04T11:09:27.539Z</time></trkpt><trkpt lat="41.5183289" lon="0.3258456"><ele>116.19999999999999</ele><time>2026-05-04T11:09:28.541Z</time></trkpt><trkpt lat="41.5183679" lon="0.3259762"><ele>115.8</ele><time>2026-05-04T11:09:29.536Z</time></trkpt><trkpt lat="41.5183957" lon="0.3260957"><ele>115.4</ele><time>2026-05-04T11:09:30.55Z</time></trkpt><trkpt lat="41.5184241" lon="0.3262091"><ele>115.0</ele><time>2026-05-04T11:09:31.545Z</time></trkpt><trkpt lat="41.518448" lon="0.3263195"><ele>114.8</ele><time>2026-05-04T11:09:32.547Z</time></trkpt><trkpt lat="41.518454" lon="0.3264412"><ele>114.6</ele><time>2026-05-04T11:09:33.543Z</time></trkpt><trkpt lat="41.5184578" lon="0.3265634"><ele>114.4</ele><time>2026-05-04T11:09:34.546Z</time></trkpt><trkpt lat="41.5184602" lon="0.3266888"><ele>114.2</ele><time>2026-05-04T11:09:35.543Z</time></trkpt><trkpt lat="41.5184767" lon="0.3268062"><ele>114.0</ele><time>2026-05-04T11:09:36.549Z</time></trkpt><trkpt lat="41.5185151" lon="0.3269214"><ele>114.0</ele><time>2026-05-04T11:09:37.54Z</time></trkpt><trkpt lat="41.5185628" lon="0.3270349"><ele>114.0</ele><time>2026-05-04T11:09:38.552Z</time></trkpt><trkpt lat="41.5186055" lon="0.3271416"><ele>114.0</ele><time>2026-05-04T11:09:39.555Z</time></trkpt><trkpt lat="41.5186469" lon="0.3272449"><ele>114.0</ele><time>2026-05-04T11:09:40.554Z</time></trkpt><trkpt lat="41.5186769" lon="0.3273547"><ele>114.0</ele><time>2026-05-04T11:09:41.537Z</time></trkpt><trkpt lat="41.5187093" lon="0.3274765"><ele>112.75</ele><time>2026-05-04T11:09:42.536Z</time></trkpt><trkpt lat="41.5187412" lon="0.32764"><ele>111.5</ele><time>2026-05-04T11:09:43.544Z</time></trkpt><trkpt lat="41.5188036" lon="0.3277862"><ele>110.25</ele><time>2026-05-04T11:09:44.543Z</time></trkpt><trkpt lat="41.5188453" lon="0.3279412"><ele>109.0</ele><time>2026-05-04T11:09:45.546Z</time></trkpt><trkpt lat="41.5188753" lon="0.3280985"><ele>108.75</ele><time>2026-05-04T11:09:46.55Z</time></trkpt><trkpt lat="41.5189087" lon="0.3282599"><ele>108.5</ele><time>2026-05-04T11:09:47.549Z</time></trkpt><trkpt lat="41.5189391" lon="0.328417"><ele>108.25</ele><time>2026-05-04T11:09:48.557Z</time></trkpt><trkpt lat="41.51897" lon="0.3285687"><ele>108.0</ele><time>2026-05-04T11:09:49.55Z</time></trkpt><trkpt lat="41.5189986" lon="0.3287174"><ele>108.0</ele><time>2026-05-04T11:09:50.547Z</time></trkpt><trkpt lat="41.5190273" lon="0.3288683"><ele>108.0</ele><time>2026-05-04T11:09:51.545Z</time></trkpt><trkpt lat="41.5190523" lon="0.3290152"><ele>108.0</ele><time>2026-05-04T11:09:52.541Z</time></trkpt><trkpt lat="41.5190816" lon="0.3291611"><ele>108.0</ele><time>2026-05-04T11:09:53.548Z</time></trkpt><trkpt lat="41.5191068" lon="0.3293057"><ele>107.60000000000001</ele><time>2026-05-04T11:09:54.542Z</time></trkpt><trkpt lat="41.5191341" lon="0.3294511"><ele>107.20000000000002</ele><time>2026-05-04T11:09:55.545Z</time></trkpt><trkpt lat="41.5191646" lon="0.3295939"><ele>106.8</ele><time>2026-05-04T11:09:56.546Z</time></trkpt><trkpt lat="41.519194" lon="0.3297349"><ele>106.4</ele><time>2026-05-04T11:09:57.553Z</time></trkpt><trkpt lat="41.5192245" lon="0.3298735"><ele>106.0</ele><time>2026-05-04T11:09:58.546Z</time></trkpt><trkpt lat="41.5192497" lon="0.3300017"><ele>105.8</ele><time>2026-05-04T11:09:59.537Z</time></trkpt><trkpt lat="41.5192767" lon="0.3301263"><ele>105.6</ele><time>2026-05-04T11:10:00.542Z</time></trkpt><trkpt lat="41.5193064" lon="0.3302526"><ele>105.4</ele><time>2026-05-04T11:10:01.54Z</time></trkpt><trkpt lat="41.5193391" lon="0.3303753"><ele>105.2</ele><time>2026-05-04T11:10:02.539Z</time></trkpt><trkpt lat="41.5193676" lon="0.3304896"><ele>105.0</ele><time>2026-05-04T11:10:03.54Z</time></trkpt><trkpt lat="41.5193924" lon="0.3305903"><ele>105.0</ele><time>2026-05-04T11:10:04.537Z</time></trkpt><trkpt lat="41.5194107" lon="0.330685"><ele>105.0</ele><time>2026-05-04T11:10:05.54Z</time></trkpt><trkpt lat="41.5194295" lon="0.3307781"><ele>105.0</ele><time>2026-05-04T11:10:06.542Z</time></trkpt><trkpt lat="41.519474" lon="0.3309734"><ele>105.0</ele><time>2026-05-04T11:10:08.546Z</time></trkpt><trkpt lat="41.5194956" lon="0.3310872"><ele>105.0</ele><time>2026-05-04T11:10:09.536Z</time></trkpt><trkpt lat="41.519515" lon="0.3311989"><ele>105.0</ele><time>2026-05-04T11:10:10.544Z</time></trkpt><trkpt lat="41.5195451" lon="0.3313172"><ele>105.0</ele><time>2026-05-04T11:10:11.542Z</time></trkpt><trkpt lat="41.5195691" lon="0.3314412"><ele>105.0</ele><time>2026-05-04T11:10:12.541Z</time></trkpt><trkpt lat="41.5195943" lon="0.3315622"><ele>105.0</ele><time>2026-05-04T11:10:13.541Z</time></trkpt><trkpt lat="41.5196186" lon="0.3316718"><ele>105.0</ele><time>2026-05-04T11:10:14.541Z</time></trkpt><trkpt lat="41.51965" lon="0.3317776"><ele>105.5</ele><time>2026-05-04T11:10:15.542Z</time></trkpt><trkpt lat="41.5196702" lon="0.3318904"><ele>106.0</ele><time>2026-05-04T11:10:16.551Z</time></trkpt><trkpt lat="41.5196794" lon="0.3319979"><ele>106.5</ele><time>2026-05-04T11:10:17.536Z</time></trkpt><trkpt lat="41.5196795" lon="0.3321107"><ele>107.0</ele><time>2026-05-04T11:10:18.544Z</time></trkpt><trkpt lat="41.5196715" lon="0.3322317"><ele>107.5</ele><time>2026-05-04T11:10:19.535Z</time></trkpt><trkpt lat="41.5196722" lon="0.3323597"><ele>108.0</ele><time>2026-05-04T11:10:20.549Z</time></trkpt><trkpt lat="41.5196873" lon="0.3324796"><ele>108.0</ele><time>2026-05-04T11:10:21.527Z</time></trkpt><trkpt lat="41.5196955" lon="0.3326153"><ele>108.00000000000001</ele><time>2026-05-04T11:10:22.533Z</time></trkpt><trkpt lat="41.5197171" lon="0.3327497"><ele>108.00000000000001</ele><time>2026-05-04T11:10:23.53Z</time></trkpt><trkpt lat="41.5197572" lon="0.3328711"><ele>108.0</ele><time>2026-05-04T11:10:24.535Z</time></trkpt><trkpt lat="41.5198076" lon="0.3330203"><ele>108.0</ele><time>2026-05-04T11:10:25.539Z</time></trkpt><trkpt lat="41.5198619" lon="0.3331387"><ele>108.2</ele><time>2026-05-04T11:10:26.53Z</time></trkpt><trkpt lat="41.5199076" lon="0.3332462"><ele>108.4</ele><time>2026-05-04T11:10:27.542Z</time></trkpt><trkpt lat="41.5199464" lon="0.3333526"><ele>108.60000000000001</ele><time>2026-05-04T11:10:28.539Z</time></trkpt><trkpt lat="41.5199658" lon="0.3334661"><ele>108.80000000000001</ele><time>2026-05-04T11:10:29.538Z</time></trkpt><trkpt lat="41.5199817" lon="0.3335932"><ele>109.0</ele><time>2026-05-04T11:10:30.534Z</time></trkpt><trkpt lat="41.5200056" lon="0.3337152"><ele>109.00000000000001</ele><time>2026-05-04T11:10:31.538Z</time></trkpt><trkpt lat="41.5200336" lon="0.3338388"><ele>109.0</ele><time>2026-05-04T11:10:32.537Z</time></trkpt><trkpt lat="41.520067" lon="0.3339534"><ele>109.0</ele><time>2026-05-04T11:10:33.535Z</time></trkpt><trkpt lat="41.5200962" lon="0.3340538"><ele>109.0</ele><time>2026-05-04T11:10:34.544Z</time></trkpt><trkpt lat="41.5201223" lon="0.3341593"><ele>109.00000000000001</ele><time>2026-05-04T11:10:35.54Z</time></trkpt><trkpt lat="41.5201448" lon="0.3342564"><ele>109.0</ele><time>2026-05-04T11:10:36.54Z</time></trkpt><trkpt lat="41.5201745" lon="0.3343379"><ele>109.00000000000001</ele><time>2026-05-04T11:10:37.54Z</time></trkpt><trkpt lat="41.5202079" lon="0.3344591"><ele>109.0</ele><time>2026-05-04T11:10:39.542Z</time></trkpt><trkpt lat="41.5202464" lon="0.3345648"><ele>109.0</ele><time>2026-05-04T11:11:15.506Z</time></trkpt><trkpt lat="41.5203187" lon="0.3345627"><ele>109.0</ele><time>2026-05-04T11:11:32.532Z</time></trkpt><trkpt lat="41.5202479" lon="0.3346464"><ele>109.00000000000001</ele><time>2026-05-04T11:12:51.55Z</time></trkpt><trkpt lat="41.5202055" lon="0.3347154"><ele>109.0</ele><time>2026-05-04T11:13:23.522Z</time></trkpt><trkpt lat="41.5202611" lon="0.3346463"><ele>109.0</ele><time>2026-05-04T11:13:28.534Z</time></trkpt><trkpt lat="41.5203133" lon="0.3345725"><ele>109.0</ele><time>2026-05-04T11:14:38.522Z</time></trkpt><trkpt lat="41.5202442" lon="0.3346482"><ele>109.0</ele><time>2026-05-04T11:14:53.518Z</time></trkpt><trkpt lat="41.5201838" lon="0.3348537"><ele>109.0</ele><time>2026-05-04T11:17:30.516Z</time></trkpt><trkpt lat="41.520136" lon="0.3349447"><ele>109.0</ele><time>2026-05-04T11:17:31.507Z</time></trkpt><trkpt lat="41.5200747" lon="0.3348789"><ele>109.0</ele><time>2026-05-04T11:17:33.523Z</time></trkpt><trkpt lat="41.5201259" lon="0.3348225"><ele>109.0</ele><time>2026-05-04T11:17:49.527Z</time></trkpt><trkpt lat="41.5200614" lon="0.3348502"><ele>109.0</ele><time>2026-05-04T11:18:55.534Z</time></trkpt><trkpt lat="41.5200086" lon="0.3347578"><ele>109.0</ele><time>2026-05-04T11:18:59.543Z</time></trkpt><trkpt lat="41.5199959" lon="0.3346746"><ele>109.0</ele><time>2026-05-04T11:26:34.53Z</time></trkpt><trkpt lat="41.5199981" lon="0.334773"><ele>109.0</ele><time>2026-05-04T11:27:02.522Z</time></trkpt><trkpt lat="41.5200155" lon="0.3346696"><ele>109.0</ele><time>2026-05-04T11:28:50.517Z</time></trkpt><trkpt lat="41.5200381" lon="0.3345856"><ele>109.00000000000001</ele><time>2026-05-04T11:28:53.539Z</time></trkpt><trkpt lat="41.5200963" lon="0.3346475"><ele>109.0</ele><time>2026-05-04T11:29:59.53Z</time></trkpt><trkpt lat="41.5201462" lon="0.3347364"><ele>109.0</ele><time>2026-05-04T11:30:16.538Z</time></trkpt><trkpt lat="41.5201709" lon="0.3348157"><ele>109.0</ele><time>2026-05-04T11:30:18.539Z</time></trkpt><trkpt lat="41.5201965" lon="0.3349182"><ele>109.00000000000001</ele><time>2026-05-04T11:30:20.543Z</time></trkpt><trkpt lat="41.5202323" lon="0.3350768"><ele>109.0</ele><time>2026-05-04T11:30:22.535Z</time></trkpt><trkpt lat="41.520253" lon="0.3351697"><ele>108.71428571428572</ele><time>2026-05-04T11:30:23.535Z</time></trkpt><trkpt lat="41.5202759" lon="0.3352624"><ele>108.42857142857143</ele><time>2026-05-04T11:30:24.54Z</time></trkpt><trkpt lat="41.5202973" lon="0.3353496"><ele>108.14285714285714</ele><time>2026-05-04T11:30:25.544Z</time></trkpt><trkpt lat="41.5203213" lon="0.3354352"><ele>107.85714285714286</ele><time>2026-05-04T11:30:26.542Z</time></trkpt><trkpt lat="41.5203491" lon="0.335526"><ele>107.57142857142857</ele><time>2026-05-04T11:30:27.54Z</time></trkpt><trkpt lat="41.5203832" lon="0.3356134"><ele>107.28571428571429</ele><time>2026-05-04T11:30:28.528Z</time></trkpt><trkpt lat="41.5204283" lon="0.3357125"><ele>107.0</ele><time>2026-05-04T11:30:29.532Z</time></trkpt><trkpt lat="41.5204903" lon="0.3358068"><ele>107.00000000000001</ele><time>2026-05-04T11:30:30.531Z</time></trkpt><trkpt lat="41.5205295" lon="0.3358952"><ele>107.0</ele><time>2026-05-04T11:30:31.527Z</time></trkpt><trkpt lat="41.5205655" lon="0.3359732"><ele>107.0</ele><time>2026-05-04T11:30:32.528Z</time></trkpt><trkpt lat="41.5205971" lon="0.3360585"><ele>107.0</ele><time>2026-05-04T11:30:33.528Z</time></trkpt><trkpt lat="41.5206286" lon="0.3361419"><ele>107.0</ele><time>2026-05-04T11:30:34.532Z</time></trkpt><trkpt lat="41.520653" lon="0.3362278"><ele>107.00000000000001</ele><time>2026-05-04T11:30:35.533Z</time></trkpt><trkpt lat="41.5206733" lon="0.3363212"><ele>107.0</ele><time>2026-05-04T11:30:36.537Z</time></trkpt><trkpt lat="41.5206881" lon="0.3364125"><ele>106.99999999999999</ele><time>2026-05-04T11:30:37.543Z</time></trkpt><trkpt lat="41.5207068" lon="0.3365129"><ele>107.0</ele><time>2026-05-04T11:30:38.541Z</time></trkpt><trkpt lat="41.5207294" lon="0.3366076"><ele>107.0</ele><time>2026-05-04T11:30:39.54Z</time></trkpt><trkpt lat="41.5208045" lon="0.336724"><ele>107.0</ele><time>2026-05-04T11:30:41.537Z</time></trkpt><trkpt lat="41.5208695" lon="0.336752"><ele>106.99999999999999</ele><time>2026-05-04T11:30:42.541Z</time></trkpt><trkpt lat="41.5209501" lon="0.3367898"><ele>107.0</ele><time>2026-05-04T11:30:43.54Z</time></trkpt><trkpt lat="41.5210211" lon="0.3368575"><ele>107.0</ele><time>2026-05-04T11:30:44.528Z</time></trkpt><trkpt lat="41.5210845" lon="0.3369257"><ele>106.99999999999999</ele><time>2026-05-04T11:30:45.542Z</time></trkpt><trkpt lat="41.5211572" lon="0.3370098"><ele>106.99999999999999</ele><time>2026-05-04T11:30:46.524Z</time></trkpt><trkpt lat="41.5212334" lon="0.3370952"><ele>107.0</ele><time>2026-05-04T11:30:47.524Z</time></trkpt><trkpt lat="41.5213062" lon="0.3371698"><ele>107.0</ele><time>2026-05-04T11:30:48.521Z</time></trkpt><trkpt lat="41.5213812" lon="0.3372591"><ele>106.39999999999999</ele><time>2026-05-04T11:30:49.537Z</time></trkpt><trkpt lat="41.5214522" lon="0.3373533"><ele>105.79999999999998</ele><time>2026-05-04T11:30:50.531Z</time></trkpt><trkpt lat="41.5215203" lon="0.3374467"><ele>105.2</ele><time>2026-05-04T11:30:51.533Z</time></trkpt><trkpt lat="41.5215861" lon="0.3375356"><ele>104.6</ele><time>2026-05-04T11:30:52.533Z</time></trkpt><trkpt lat="41.5216513" lon="0.3376259"><ele>104.0</ele><time>2026-05-04T11:30:53.531Z</time></trkpt><trkpt lat="41.521718" lon="0.3377181"><ele>104.0</ele><time>2026-05-04T11:30:54.532Z</time></trkpt><trkpt lat="41.5217827" lon="0.3378135"><ele>104.0</ele><time>2026-05-04T11:30:55.539Z</time></trkpt><trkpt lat="41.5218415" lon="0.3379077"><ele>104.0</ele><time>2026-05-04T11:30:56.531Z</time></trkpt><trkpt lat="41.5219036" lon="0.338"><ele>104.0</ele><time>2026-05-04T11:30:57.541Z</time></trkpt><trkpt lat="41.521966" lon="0.3380985"><ele>104.0</ele><time>2026-05-04T11:30:58.534Z</time></trkpt><trkpt lat="41.5220269" lon="0.3381941"><ele>104.0</ele><time>2026-05-04T11:30:59.528Z</time></trkpt><trkpt lat="41.5220951" lon="0.3382929"><ele>104.0</ele><time>2026-05-04T11:31:00.539Z</time></trkpt><trkpt lat="41.5221642" lon="0.3383913"><ele>104.0</ele><time>2026-05-04T11:31:01.533Z</time></trkpt><trkpt lat="41.522237" lon="0.338494"><ele>104.0</ele><time>2026-05-04T11:31:02.538Z</time></trkpt><trkpt lat="41.5223118" lon="0.3385973"><ele>104.0</ele><time>2026-05-04T11:31:03.531Z</time></trkpt><trkpt lat="41.5223863" lon="0.3386978"><ele>103.99999999999999</ele><time>2026-05-04T11:31:04.532Z</time></trkpt><trkpt lat="41.5224585" lon="0.3387801"><ele>104.0</ele><time>2026-05-04T11:31:05.54Z</time></trkpt><trkpt lat="41.5225113" lon="0.3388401"><ele>104.0</ele><time>2026-05-04T11:31:06.541Z</time></trkpt><trkpt lat="41.5225717" lon="0.3388949"><ele>104.0</ele><time>2026-05-04T11:31:08.54Z</time></trkpt><trkpt lat="41.5226281" lon="0.3389411"><ele>103.99999999999999</ele><time>2026-05-04T11:31:11.537Z</time></trkpt><trkpt lat="41.522663" lon="0.3390388"><ele>104.0</ele><time>2026-05-04T11:31:54.542Z</time></trkpt><trkpt lat="41.5226963" lon="0.3391168"><ele>104.0</ele><time>2026-05-04T11:31:55.533Z</time></trkpt><trkpt lat="41.5227319" lon="0.3392006"><ele>104.0</ele><time>2026-05-04T11:31:56.536Z</time></trkpt><trkpt lat="41.5227795" lon="0.3392952"><ele>104.0</ele><time>2026-05-04T11:31:57.542Z</time></trkpt><trkpt lat="41.5228427" lon="0.3393888"><ele>104.0</ele><time>2026-05-04T11:31:58.543Z</time></trkpt><trkpt lat="41.5229123" lon="0.3394883"><ele>104.0</ele><time>2026-05-04T11:31:59.539Z</time></trkpt><trkpt lat="41.5229944" lon="0.3395904"><ele>104.0</ele><time>2026-05-04T11:32:00.54Z</time></trkpt><trkpt lat="41.5230738" lon="0.3396999"><ele>104.0</ele><time>2026-05-04T11:32:01.528Z</time></trkpt><trkpt lat="41.5231541" lon="0.3398079"><ele>104.0</ele><time>2026-05-04T11:32:02.532Z</time></trkpt><trkpt lat="41.5232316" lon="0.339909"><ele>104.0</ele><time>2026-05-04T11:32:03.533Z</time></trkpt><trkpt lat="41.523303" lon="0.3399968"><ele>104.0</ele><time>2026-05-04T11:32:04.533Z</time></trkpt><trkpt lat="41.5233652" lon="0.340087"><ele>104.0</ele><time>2026-05-04T11:32:05.539Z</time></trkpt><trkpt lat="41.523424" lon="0.3401781"><ele>104.0</ele><time>2026-05-04T11:32:06.537Z</time></trkpt><trkpt lat="41.5234605" lon="0.3402702"><ele>104.0</ele><time>2026-05-04T11:32:07.543Z</time></trkpt><trkpt lat="41.5234916" lon="0.340398"><ele>104.0</ele><time>2026-05-04T11:32:09.544Z</time></trkpt><trkpt lat="41.5235105" lon="0.3404953"><ele>104.0</ele><time>2026-05-04T11:32:11.541Z</time></trkpt><trkpt lat="41.5235441" lon="0.3406483"><ele>103.83333333333333</ele><time>2026-05-04T11:32:13.539Z</time></trkpt><trkpt lat="41.5235779" lon="0.3407231"><ele>103.66666666666666</ele><time>2026-05-04T11:32:14.542Z</time></trkpt><trkpt lat="41.5236099" lon="0.3408076"><ele>103.5</ele><time>2026-05-04T11:32:15.544Z</time></trkpt><trkpt lat="41.5236457" lon="0.3409116"><ele>103.33333333333334</ele><time>2026-05-04T11:32:16.541Z</time></trkpt><trkpt lat="41.5236767" lon="0.3410217"><ele>103.16666666666667</ele><time>2026-05-04T11:32:17.543Z</time></trkpt><trkpt lat="41.5237025" lon="0.3411333"><ele>103.0</ele><time>2026-05-04T11:32:18.545Z</time></trkpt><trkpt lat="41.5237268" lon="0.3412544"><ele>102.60000000000001</ele><time>2026-05-04T11:32:19.545Z</time></trkpt><trkpt lat="41.5237528" lon="0.3413802"><ele>102.2</ele><time>2026-05-04T11:32:20.546Z</time></trkpt><trkpt lat="41.5237827" lon="0.3415119"><ele>101.8</ele><time>2026-05-04T11:32:21.545Z</time></trkpt><trkpt lat="41.5238121" lon="0.3416467"><ele>101.4</ele><time>2026-05-04T11:32:22.55Z</time></trkpt><trkpt lat="41.5238424" lon="0.3417868"><ele>101.0</ele><time>2026-05-04T11:32:23.549Z</time></trkpt><trkpt lat="41.5238723" lon="0.3419292"><ele>101.0</ele><time>2026-05-04T11:32:24.546Z</time></trkpt><trkpt lat="41.5239028" lon="0.3420709"><ele>101.0</ele><time>2026-05-04T11:32:25.55Z</time></trkpt><trkpt lat="41.5239372" lon="0.3422195"><ele>101.0</ele><time>2026-05-04T11:32:26.553Z</time></trkpt><trkpt lat="41.5239743" lon="0.3423684"><ele>101.0</ele><time>2026-05-04T11:32:27.553Z</time></trkpt><trkpt lat="41.5240135" lon="0.3425177"><ele>101.5</ele><time>2026-05-04T11:32:28.549Z</time></trkpt><trkpt lat="41.5240466" lon="0.3426637"><ele>102.0</ele><time>2026-05-04T11:32:29.548Z</time></trkpt><trkpt lat="41.5240788" lon="0.3428123"><ele>102.5</ele><time>2026-05-04T11:32:30.552Z</time></trkpt><trkpt lat="41.524114" lon="0.3429612"><ele>103.0</ele><time>2026-05-04T11:32:31.543Z</time></trkpt><trkpt lat="41.5241486" lon="0.3431064"><ele>103.0</ele><time>2026-05-04T11:32:32.54Z</time></trkpt><trkpt lat="41.5241855" lon="0.3432459"><ele>103.0</ele><time>2026-05-04T11:32:33.549Z</time></trkpt><trkpt lat="41.5242226" lon="0.3433798"><ele>103.0</ele><time>2026-05-04T11:32:34.549Z</time></trkpt><trkpt lat="41.5242594" lon="0.3435086"><ele>103.0</ele><time>2026-05-04T11:32:35.55Z</time></trkpt><trkpt lat="41.524293" lon="0.3436368"><ele>103.0</ele><time>2026-05-04T11:32:36.542Z</time></trkpt><trkpt lat="41.5243278" lon="0.3437647"><ele>102.2</ele><time>2026-05-04T11:32:37.546Z</time></trkpt><trkpt lat="41.5243646" lon="0.3438945"><ele>101.4</ele><time>2026-05-04T11:32:38.545Z</time></trkpt><trkpt lat="41.5244029" lon="0.344027"><ele>100.60000000000001</ele><time>2026-05-04T11:32:39.547Z</time></trkpt><trkpt lat="41.5244405" lon="0.3441583"><ele>99.80000000000001</ele><time>2026-05-04T11:32:40.547Z</time></trkpt><trkpt lat="41.5244773" lon="0.3442891"><ele>99.0</ele><time>2026-05-04T11:32:41.548Z</time></trkpt><trkpt lat="41.5245146" lon="0.3444281"><ele>99.0</ele><time>2026-05-04T11:32:42.548Z</time></trkpt><trkpt lat="41.5245529" lon="0.3445662"><ele>99.0</ele><time>2026-05-04T11:32:43.552Z</time></trkpt><trkpt lat="41.5245925" lon="0.3446957"><ele>99.0</ele><time>2026-05-04T11:32:44.549Z</time></trkpt><trkpt lat="41.5246291" lon="0.3448273"><ele>99.0</ele><time>2026-05-04T11:32:45.549Z</time></trkpt><trkpt lat="41.5246659" lon="0.34496"><ele>99.0</ele><time>2026-05-04T11:32:46.547Z</time></trkpt><trkpt lat="41.5247068" lon="0.3450956"><ele>98.5</ele><time>2026-05-04T11:32:47.551Z</time></trkpt><trkpt lat="41.5247483" lon="0.3452341"><ele>98.0</ele><time>2026-05-04T11:32:48.552Z</time></trkpt><trkpt lat="41.5247863" lon="0.3453801"><ele>97.5</ele><time>2026-05-04T11:32:49.552Z</time></trkpt><trkpt lat="41.5248219" lon="0.3455246"><ele>97.0</ele><time>2026-05-04T11:32:50.552Z</time></trkpt><trkpt lat="41.5248545" lon="0.3456626"><ele>97.0</ele><time>2026-05-04T11:32:51.548Z</time></trkpt><trkpt lat="41.5248897" lon="0.345805"><ele>97.0</ele><time>2026-05-04T11:32:52.542Z</time></trkpt><trkpt lat="41.5249269" lon="0.345958"><ele>97.0</ele><time>2026-05-04T11:32:53.541Z</time></trkpt><trkpt lat="41.5249812" lon="0.346098"><ele>97.0</ele><time>2026-05-04T11:32:54.541Z</time></trkpt><trkpt lat="41.5250308" lon="0.3462331"><ele>97.0</ele><time>2026-05-04T11:32:55.544Z</time></trkpt><trkpt lat="41.5250746" lon="0.3463724"><ele>97.0</ele><time>2026-05-04T11:32:56.539Z</time></trkpt><trkpt lat="41.525116" lon="0.346515"><ele>97.0</ele><time>2026-05-04T11:32:57.55Z</time></trkpt><trkpt lat="41.5251496" lon="0.3466556"><ele>97.0</ele><time>2026-05-04T11:32:58.548Z</time></trkpt><trkpt lat="41.5251819" lon="0.3467994"><ele>99.0</ele><time>2026-05-04T11:32:59.544Z</time></trkpt><trkpt lat="41.5252158" lon="0.3469525"><ele>101.0</ele><time>2026-05-04T11:33:00.539Z</time></trkpt><trkpt lat="41.5252428" lon="0.3471114"><ele>103.0</ele><time>2026-05-04T11:33:01.541Z</time></trkpt><trkpt lat="41.5252765" lon="0.3472699"><ele>105.0</ele><time>2026-05-04T11:33:02.535Z</time></trkpt><trkpt lat="41.5253167" lon="0.3474307"><ele>106.66666666666666</ele><time>2026-05-04T11:33:03.534Z</time></trkpt><trkpt lat="41.5253483" lon="0.3475871"><ele>108.33333333333333</ele><time>2026-05-04T11:33:04.537Z</time></trkpt><trkpt lat="41.5253794" lon="0.3477314"><ele>110.0</ele><time>2026-05-04T11:33:05.531Z</time></trkpt><trkpt lat="41.5254317" lon="0.3480163"><ele>110.25</ele><time>2026-05-04T11:33:07.535Z</time></trkpt><trkpt lat="41.5254502" lon="0.3481711"><ele>110.5</ele><time>2026-05-04T11:33:08.53Z</time></trkpt><trkpt lat="41.5254645" lon="0.3483402"><ele>110.75</ele><time>2026-05-04T11:33:09.533Z</time></trkpt><trkpt lat="41.5254618" lon="0.3485078"><ele>111.0</ele><time>2026-05-04T11:33:10.533Z</time></trkpt><trkpt lat="41.5254423" lon="0.3486575"><ele>111.0</ele><time>2026-05-04T11:33:11.53Z</time></trkpt><trkpt lat="41.5254106" lon="0.3488016"><ele>111.0</ele><time>2026-05-04T11:33:12.53Z</time></trkpt><trkpt lat="41.5253802" lon="0.3489462"><ele>111.0</ele><time>2026-05-04T11:33:13.541Z</time></trkpt><trkpt lat="41.5253443" lon="0.349092"><ele>111.0</ele><time>2026-05-04T11:33:14.53Z</time></trkpt><trkpt lat="41.5253104" lon="0.3492403"><ele>114.75</ele><time>2026-05-04T11:33:15.538Z</time></trkpt><trkpt lat="41.5252718" lon="0.3493925"><ele>118.5</ele><time>2026-05-04T11:33:16.538Z</time></trkpt><trkpt lat="41.5252271" lon="0.3495448"><ele>122.25</ele><time>2026-05-04T11:33:17.536Z</time></trkpt><trkpt lat="41.5251817" lon="0.3496899"><ele>126.0</ele><time>2026-05-04T11:33:18.539Z</time></trkpt><trkpt lat="41.5251322" lon="0.3498357"><ele>126.0</ele><time>2026-05-04T11:33:19.54Z</time></trkpt><trkpt lat="41.5250813" lon="0.3499813"><ele>126.0</ele><time>2026-05-04T11:33:20.536Z</time></trkpt><trkpt lat="41.5250252" lon="0.3501188"><ele>126.0</ele><time>2026-05-04T11:33:21.525Z</time></trkpt><trkpt lat="41.5249605" lon="0.3502558"><ele>126.0</ele><time>2026-05-04T11:33:22.526Z</time></trkpt><trkpt lat="41.5249019" lon="0.3503996"><ele>125.75</ele><time>2026-05-04T11:33:23.53Z</time></trkpt><trkpt lat="41.5248479" lon="0.3505582"><ele>125.5</ele><time>2026-05-04T11:33:24.526Z</time></trkpt><trkpt lat="41.5247967" lon="0.3507192"><ele>125.25</ele><time>2026-05-04T11:33:25.528Z</time></trkpt><trkpt lat="41.524751" lon="0.3508746"><ele>125.0</ele><time>2026-05-04T11:33:26.538Z</time></trkpt><trkpt lat="41.5247423" lon="0.351026"><ele>125.0</ele><time>2026-05-04T11:33:27.531Z</time></trkpt><trkpt lat="41.5247367" lon="0.3511873"><ele>125.0</ele><time>2026-05-04T11:33:28.535Z</time></trkpt><trkpt lat="41.5247118" lon="0.3513431"><ele>125.0</ele><time>2026-05-04T11:33:29.526Z</time></trkpt><trkpt lat="41.5246752" lon="0.3514894"><ele>125.0</ele><time>2026-05-04T11:33:30.526Z</time></trkpt><trkpt lat="41.5246388" lon="0.3516312"><ele>124.25</ele><time>2026-05-04T11:33:31.532Z</time></trkpt><trkpt lat="41.5245969" lon="0.3517662"><ele>123.5</ele><time>2026-05-04T11:33:32.531Z</time></trkpt><trkpt lat="41.524563" lon="0.3519077"><ele>122.75</ele><time>2026-05-04T11:33:33.531Z</time></trkpt><trkpt lat="41.5245249" lon="0.3520568"><ele>122.0</ele><time>2026-05-04T11:33:34.533Z</time></trkpt><trkpt lat="41.5244782" lon="0.3522108"><ele>129.5</ele><time>2026-05-04T11:33:35.539Z</time></trkpt><trkpt lat="41.5244304" lon="0.3523673"><ele>137.0</ele><time>2026-05-04T11:33:36.539Z</time></trkpt><trkpt lat="41.5243855" lon="0.3525245"><ele>144.5</ele><time>2026-05-04T11:33:37.541Z</time></trkpt><trkpt lat="41.5243419" lon="0.3526869"><ele>152.0</ele><time>2026-05-04T11:33:38.547Z</time></trkpt><trkpt lat="41.5243029" lon="0.3528446"><ele>152.0</ele><time>2026-05-04T11:33:39.544Z</time></trkpt><trkpt lat="41.5242606" lon="0.3529991"><ele>152.0</ele><time>2026-05-04T11:33:40.545Z</time></trkpt><trkpt lat="41.5242202" lon="0.3531539"><ele>152.0</ele><time>2026-05-04T11:33:41.545Z</time></trkpt><trkpt lat="41.5241858" lon="0.3533085"><ele>152.0</ele><time>2026-05-04T11:33:42.548Z</time></trkpt><trkpt lat="41.524147" lon="0.3534618"><ele>152.0</ele><time>2026-05-04T11:33:43.541Z</time></trkpt><trkpt lat="41.5241097" lon="0.3536178"><ele>152.0</ele><time>2026-05-04T11:33:44.544Z</time></trkpt><trkpt lat="41.524077" lon="0.3537709"><ele>152.0</ele><time>2026-05-04T11:33:45.55Z</time></trkpt><trkpt lat="41.5240393" lon="0.3539199"><ele>152.0</ele><time>2026-05-04T11:33:46.535Z</time></trkpt><trkpt lat="41.5240027" lon="0.3540647"><ele>152.0</ele><time>2026-05-04T11:33:47.547Z</time></trkpt><trkpt lat="41.5239655" lon="0.3542137"><ele>152.0</ele><time>2026-05-04T11:33:48.538Z</time></trkpt><trkpt lat="41.5239241" lon="0.354363"><ele>152.0</ele><time>2026-05-04T11:33:49.536Z</time></trkpt><trkpt lat="41.5238868" lon="0.3545112"><ele>152.0</ele><time>2026-05-04T11:33:50.542Z</time></trkpt><trkpt lat="41.5238467" lon="0.3546604"><ele>153.6</ele><time>2026-05-04T11:33:51.543Z</time></trkpt><trkpt lat="41.5237921" lon="0.3548118"><ele>155.2</ele><time>2026-05-04T11:33:52.529Z</time></trkpt><trkpt lat="41.5237425" lon="0.3549562"><ele>156.8</ele><time>2026-05-04T11:33:53.531Z</time></trkpt><trkpt lat="41.5236954" lon="0.3550859"><ele>158.4</ele><time>2026-05-04T11:33:54.53Z</time></trkpt><trkpt lat="41.5236611" lon="0.3551843"><ele>160.0</ele><time>2026-05-04T11:33:55.515Z</time></trkpt><trkpt lat="41.5236086" lon="0.3553202"><ele>160.0</ele><time>2026-05-04T11:33:56.519Z</time></trkpt><trkpt lat="41.5235672" lon="0.3554476"><ele>160.0</ele><time>2026-05-04T11:33:57.53Z</time></trkpt><trkpt lat="41.5235297" lon="0.3555821"><ele>160.0</ele><time>2026-05-04T11:33:58.53Z</time></trkpt><trkpt lat="41.5234946" lon="0.355711"><ele>160.0</ele><time>2026-05-04T11:33:59.529Z</time></trkpt><trkpt lat="41.5234649" lon="0.3558384"><ele>160.0</ele><time>2026-05-04T11:34:00.533Z</time></trkpt><trkpt lat="41.5234373" lon="0.3559657"><ele>159.6</ele><time>2026-05-04T11:34:01.539Z</time></trkpt><trkpt lat="41.5234111" lon="0.3560956"><ele>159.2</ele><time>2026-05-04T11:34:02.541Z</time></trkpt><trkpt lat="41.5233865" lon="0.3562291"><ele>158.8</ele><time>2026-05-04T11:34:03.539Z</time></trkpt><trkpt lat="41.5233678" lon="0.3563626"><ele>158.4</ele><time>2026-05-04T11:34:04.544Z</time></trkpt><trkpt lat="41.5233561" lon="0.3564956"><ele>158.0</ele><time>2026-05-04T11:34:05.543Z</time></trkpt><trkpt lat="41.5233527" lon="0.3566324"><ele>157.75</ele><time>2026-05-04T11:34:06.537Z</time></trkpt><trkpt lat="41.5233552" lon="0.3567819"><ele>157.5</ele><time>2026-05-04T11:34:07.542Z</time></trkpt><trkpt lat="41.5233598" lon="0.3569349"><ele>157.25</ele><time>2026-05-04T11:34:08.541Z</time></trkpt><trkpt lat="41.523374" lon="0.3570916"><ele>157.0</ele><time>2026-05-04T11:34:09.536Z</time></trkpt><trkpt lat="41.5233952" lon="0.3572425"><ele>157.0</ele><time>2026-05-04T11:34:10.546Z</time></trkpt><trkpt lat="41.5234213" lon="0.3573894"><ele>157.0</ele><time>2026-05-04T11:34:11.548Z</time></trkpt><trkpt lat="41.5234404" lon="0.3575308"><ele>157.0</ele><time>2026-05-04T11:34:12.539Z</time></trkpt><trkpt lat="41.5234571" lon="0.3576671"><ele>157.0</ele><time>2026-05-04T11:34:13.54Z</time></trkpt><trkpt lat="41.5234785" lon="0.3578044"><ele>157.0</ele><time>2026-05-04T11:34:14.539Z</time></trkpt><trkpt lat="41.5235043" lon="0.3579507"><ele>159.33333333333334</ele><time>2026-05-04T11:34:15.531Z</time></trkpt><trkpt lat="41.5235344" lon="0.3581054"><ele>161.66666666666666</ele><time>2026-05-04T11:34:16.539Z</time></trkpt><trkpt lat="41.5235915" lon="0.3584332"><ele>164.0</ele><time>2026-05-04T11:34:18.54Z</time></trkpt><trkpt lat="41.5236262" lon="0.3586148"><ele>164.0</ele><time>2026-05-04T11:34:19.543Z</time></trkpt><trkpt lat="41.5236602" lon="0.3588031"><ele>164.0</ele><time>2026-05-04T11:34:20.55Z</time></trkpt><trkpt lat="41.5236878" lon="0.3589739"><ele>164.0</ele><time>2026-05-04T11:34:21.527Z</time></trkpt><trkpt lat="41.5237111" lon="0.3591405"><ele>164.0</ele><time>2026-05-04T11:34:22.535Z</time></trkpt><trkpt lat="41.5237387" lon="0.3593317"><ele>167.5</ele><time>2026-05-04T11:34:23.528Z</time></trkpt><trkpt lat="41.5237648" lon="0.3595101"><ele>171.0</ele><time>2026-05-04T11:34:24.529Z</time></trkpt><trkpt lat="41.523787" lon="0.3596769"><ele>174.5</ele><time>2026-05-04T11:34:25.532Z</time></trkpt><trkpt lat="41.5238118" lon="0.3598445"><ele>178.0</ele><time>2026-05-04T11:34:26.532Z</time></trkpt><trkpt lat="41.523839" lon="0.3600047"><ele>178.4</ele><time>2026-05-04T11:34:27.543Z</time></trkpt><trkpt lat="41.5238639" lon="0.3601579"><ele>178.8</ele><time>2026-05-04T11:34:28.54Z</time></trkpt><trkpt lat="41.5238864" lon="0.360305"><ele>179.2</ele><time>2026-05-04T11:34:29.543Z</time></trkpt><trkpt lat="41.5239081" lon="0.3604481"><ele>179.6</ele><time>2026-05-04T11:34:30.542Z</time></trkpt><trkpt lat="41.5239249" lon="0.3605919"><ele>180.0</ele><time>2026-05-04T11:34:31.544Z</time></trkpt><trkpt lat="41.5239375" lon="0.3607384"><ele>180.2</ele><time>2026-05-04T11:34:32.547Z</time></trkpt><trkpt lat="41.5239458" lon="0.3608796"><ele>180.4</ele><time>2026-05-04T11:34:33.542Z</time></trkpt><trkpt lat="41.5239487" lon="0.3610259"><ele>180.60000000000002</ele><time>2026-05-04T11:34:34.538Z</time></trkpt><trkpt lat="41.5239472" lon="0.36118"><ele>180.8</ele><time>2026-05-04T11:34:35.538Z</time></trkpt><trkpt lat="41.5239421" lon="0.3613347"><ele>181.0</ele><time>2026-05-04T11:34:36.541Z</time></trkpt><trkpt lat="41.5239273" lon="0.3614897"><ele>181.0</ele><time>2026-05-04T11:34:37.539Z</time></trkpt><trkpt lat="41.5239128" lon="0.3616434"><ele>181.0</ele><time>2026-05-04T11:34:38.542Z</time></trkpt><trkpt lat="41.5238951" lon="0.3617973"><ele>181.0</ele><time>2026-05-04T11:34:39.54Z</time></trkpt><trkpt lat="41.5238789" lon="0.3619475"><ele>181.0</ele><time>2026-05-04T11:34:40.536Z</time></trkpt><trkpt lat="41.5238533" lon="0.3620998"><ele>181.25</ele><time>2026-05-04T11:34:41.539Z</time></trkpt><trkpt lat="41.5238274" lon="0.3622555"><ele>181.5</ele><time>2026-05-04T11:34:42.54Z</time></trkpt><trkpt lat="41.5238034" lon="0.3624113"><ele>181.75</ele><time>2026-05-04T11:34:43.543Z</time></trkpt><trkpt lat="41.5237748" lon="0.3625686"><ele>182.0</ele><time>2026-05-04T11:34:44.537Z</time></trkpt><trkpt lat="41.5237536" lon="0.3627158"><ele>182.39999999999998</ele><time>2026-05-04T11:34:45.543Z</time></trkpt><trkpt lat="41.5237248" lon="0.3628145"><ele>182.79999999999998</ele><time>2026-05-04T11:34:46.533Z</time></trkpt><trkpt lat="41.5237127" lon="0.3629607"><ele>183.2</ele><time>2026-05-04T11:34:47.541Z</time></trkpt><trkpt lat="41.5237035" lon="0.3631075"><ele>183.6</ele><time>2026-05-04T11:34:48.53Z</time></trkpt><trkpt lat="41.5237015" lon="0.3632466"><ele>184.0</ele><time>2026-05-04T11:34:49.539Z</time></trkpt><trkpt lat="41.5236919" lon="0.3633932"><ele>184.39999999999998</ele><time>2026-05-04T11:34:50.539Z</time></trkpt><trkpt lat="41.5236649" lon="0.3635284"><ele>184.8</ele><time>2026-05-04T11:34:51.537Z</time></trkpt><trkpt lat="41.5236326" lon="0.3636592"><ele>185.2</ele><time>2026-05-04T11:34:52.543Z</time></trkpt><trkpt lat="41.5235921" lon="0.3637802"><ele>185.60000000000002</ele><time>2026-05-04T11:34:53.546Z</time></trkpt><trkpt lat="41.5235499" lon="0.3638898"><ele>186.0</ele><time>2026-05-04T11:34:54.548Z</time></trkpt><trkpt lat="41.5234791" lon="0.3639687"><ele>186.0</ele><time>2026-05-04T11:34:55.555Z</time></trkpt><trkpt lat="41.5233906" lon="0.3640171"><ele>186.0</ele><time>2026-05-04T11:34:56.545Z</time></trkpt><trkpt lat="41.5233029" lon="0.3640302"><ele>186.0</ele><time>2026-05-04T11:34:57.557Z</time></trkpt><trkpt lat="41.5232047" lon="0.3640158"><ele>186.0</ele><time>2026-05-04T11:34:58.538Z</time></trkpt><trkpt lat="41.5231127" lon="0.3639957"><ele>186.0</ele><time>2026-05-04T11:34:59.548Z</time></trkpt><trkpt lat="41.5230299" lon="0.3639659"><ele>186.0</ele><time>2026-05-04T11:35:00.539Z</time></trkpt><trkpt lat="41.5229308" lon="0.3639463"><ele>186.0</ele><time>2026-05-04T11:35:01.538Z</time></trkpt><trkpt lat="41.5228439" lon="0.3639442"><ele>186.0</ele><time>2026-05-04T11:35:02.538Z</time></trkpt><trkpt lat="41.5227535" lon="0.3639521"><ele>186.0</ele><time>2026-05-04T11:35:03.535Z</time></trkpt><trkpt lat="41.5226625" lon="0.3639655"><ele>186.0</ele><time>2026-05-04T11:35:04.535Z</time></trkpt><trkpt lat="41.5225676" lon="0.3640009"><ele>186.60000000000002</ele><time>2026-05-04T11:35:05.538Z</time></trkpt><trkpt lat="41.5224681" lon="0.3640439"><ele>187.2</ele><time>2026-05-04T11:35:06.537Z</time></trkpt><trkpt lat="41.5223656" lon="0.3640904"><ele>187.8</ele><time>2026-05-04T11:35:07.54Z</time></trkpt><trkpt lat="41.5222618" lon="0.3641486"><ele>188.39999999999998</ele><time>2026-05-04T11:35:08.537Z</time></trkpt><trkpt lat="41.5221552" lon="0.3642106"><ele>189.0</ele><time>2026-05-04T11:35:09.541Z</time></trkpt><trkpt lat="41.5220468" lon="0.3642879"><ele>189.0</ele><time>2026-05-04T11:35:10.543Z</time></trkpt><trkpt lat="41.5219465" lon="0.3643627"><ele>189.0</ele><time>2026-05-04T11:35:11.537Z</time></trkpt><trkpt lat="41.5218514" lon="0.364436"><ele>189.0</ele><time>2026-05-04T11:35:12.539Z</time></trkpt><trkpt lat="41.5217555" lon="0.3645024"><ele>189.0</ele><time>2026-05-04T11:35:13.543Z</time></trkpt><trkpt lat="41.5216602" lon="0.3645737"><ele>189.0</ele><time>2026-05-04T11:35:14.54Z</time></trkpt><trkpt lat="41.5215686" lon="0.3646417"><ele>188.39999999999998</ele><time>2026-05-04T11:35:15.543Z</time></trkpt><trkpt lat="41.5214816" lon="0.3647085"><ele>187.8</ele><time>2026-05-04T11:35:16.549Z</time></trkpt><trkpt lat="41.5213977" lon="0.3647735"><ele>187.2</ele><time>2026-05-04T11:35:17.543Z</time></trkpt><trkpt lat="41.5213162" lon="0.3648414"><ele>186.60000000000002</ele><time>2026-05-04T11:35:18.545Z</time></trkpt><trkpt lat="41.5212328" lon="0.3649126"><ele>186.0</ele><time>2026-05-04T11:35:19.546Z</time></trkpt><trkpt lat="41.5211531" lon="0.3649831"><ele>185.8</ele><time>2026-05-04T11:35:20.545Z</time></trkpt><trkpt lat="41.5210726" lon="0.3650515"><ele>185.60000000000002</ele><time>2026-05-04T11:35:21.539Z</time></trkpt><trkpt lat="41.5209878" lon="0.3651123"><ele>185.4</ele><time>2026-05-04T11:35:22.537Z</time></trkpt><trkpt lat="41.5208953" lon="0.3651763"><ele>185.2</ele><time>2026-05-04T11:35:23.538Z</time></trkpt><trkpt lat="41.5207982" lon="0.3652449"><ele>185.0</ele><time>2026-05-04T11:35:24.535Z</time></trkpt><trkpt lat="41.5206964" lon="0.3653178"><ele>185.0</ele><time>2026-05-04T11:35:25.535Z</time></trkpt><trkpt lat="41.5205862" lon="0.3653914"><ele>185.0</ele><time>2026-05-04T11:35:26.535Z</time></trkpt><trkpt lat="41.5204717" lon="0.3654709"><ele>185.0</ele><time>2026-05-04T11:35:27.543Z</time></trkpt><trkpt lat="41.5203671" lon="0.3655596"><ele>185.0</ele><time>2026-05-04T11:35:28.539Z</time></trkpt><trkpt lat="41.5202556" lon="0.3656443"><ele>184.0</ele><time>2026-05-04T11:35:29.534Z</time></trkpt><trkpt lat="41.5201411" lon="0.3657294"><ele>183.0</ele><time>2026-05-04T11:35:30.535Z</time></trkpt><trkpt lat="41.5200214" lon="0.3658172"><ele>182.0</ele><time>2026-05-04T11:35:31.537Z</time></trkpt><trkpt lat="41.5198999" lon="0.3659028"><ele>181.0</ele><time>2026-05-04T11:35:32.538Z</time></trkpt><trkpt lat="41.5197817" lon="0.3659822"><ele>181.0</ele><time>2026-05-04T11:35:33.538Z</time></trkpt><trkpt lat="41.5196645" lon="0.3660629"><ele>181.0</ele><time>2026-05-04T11:35:34.538Z</time></trkpt><trkpt lat="41.5195503" lon="0.3661454"><ele>181.0</ele><time>2026-05-04T11:35:35.541Z</time></trkpt><trkpt lat="41.5194326" lon="0.3662259"><ele>181.0</ele><time>2026-05-04T11:35:36.542Z</time></trkpt><trkpt lat="41.5193155" lon="0.3662957"><ele>181.25</ele><time>2026-05-04T11:35:37.545Z</time></trkpt><trkpt lat="41.5191926" lon="0.3663604"><ele>181.5</ele><time>2026-05-04T11:35:38.534Z</time></trkpt><trkpt lat="41.5190713" lon="0.3664062"><ele>181.75</ele><time>2026-05-04T11:35:39.542Z</time></trkpt><trkpt lat="41.518949" lon="0.3664433"><ele>182.0</ele><time>2026-05-04T11:35:40.541Z</time></trkpt><trkpt lat="41.5188322" lon="0.3664872"><ele>179.5</ele><time>2026-05-04T11:35:41.547Z</time></trkpt><trkpt lat="41.5187116" lon="0.3665279"><ele>177.0</ele><time>2026-05-04T11:35:42.541Z</time></trkpt><trkpt lat="41.5185893" lon="0.3665695"><ele>174.5</ele><time>2026-05-04T11:35:43.551Z</time></trkpt><trkpt lat="41.5184674" lon="0.3666145"><ele>172.0</ele><time>2026-05-04T11:35:44.543Z</time></trkpt><trkpt lat="41.5183476" lon="0.3666609"><ele>172.0</ele><time>2026-05-04T11:35:45.544Z</time></trkpt><trkpt lat="41.518218" lon="0.3667082"><ele>172.0</ele><time>2026-05-04T11:35:46.527Z</time></trkpt><trkpt lat="41.5180775" lon="0.3667646"><ele>172.0</ele><time>2026-05-04T11:35:47.533Z</time></trkpt><trkpt lat="41.5179511" lon="0.3668678"><ele>172.0</ele><time>2026-05-04T11:35:48.537Z</time></trkpt><trkpt lat="41.5178593" lon="0.36704"><ele>170.25</ele><time>2026-05-04T11:35:49.539Z</time></trkpt><trkpt lat="41.5177507" lon="0.3671802"><ele>168.5</ele><time>2026-05-04T11:35:50.531Z</time></trkpt><trkpt lat="41.5176598" lon="0.3673047"><ele>166.75</ele><time>2026-05-04T11:35:51.537Z</time></trkpt><trkpt lat="41.517567" lon="0.367426"><ele>165.0</ele><time>2026-05-04T11:35:52.539Z</time></trkpt><trkpt lat="41.5174753" lon="0.3675679"><ele>164.75</ele><time>2026-05-04T11:35:53.545Z</time></trkpt><trkpt lat="41.5173857" lon="0.3676958"><ele>164.5</ele><time>2026-05-04T11:35:54.544Z</time></trkpt><trkpt lat="41.5172923" lon="0.367839"><ele>164.25</ele><time>2026-05-04T11:35:55.544Z</time></trkpt><trkpt lat="41.5172042" lon="0.3679758"><ele>164.0</ele><time>2026-05-04T11:35:56.54Z</time></trkpt><trkpt lat="41.5171115" lon="0.3680991"><ele>162.25</ele><time>2026-05-04T11:35:57.547Z</time></trkpt><trkpt lat="41.5170079" lon="0.3682093"><ele>160.5</ele><time>2026-05-04T11:35:58.544Z</time></trkpt><trkpt lat="41.5169167" lon="0.3682814"><ele>158.75</ele><time>2026-05-04T11:35:59.549Z</time></trkpt><trkpt lat="41.5168296" lon="0.3683177"><ele>157.0</ele><time>2026-05-04T11:36:00.54Z</time></trkpt><trkpt lat="41.5167141" lon="0.3684236"><ele>157.0</ele><time>2026-05-04T11:36:01.54Z</time></trkpt><trkpt lat="41.5165573" lon="0.3685132"><ele>157.0</ele><time>2026-05-04T11:36:02.54Z</time></trkpt><trkpt lat="41.5164172" lon="0.3685841"><ele>157.0</ele><time>2026-05-04T11:36:03.539Z</time></trkpt><trkpt lat="41.5162825" lon="0.3686144"><ele>156.5</ele><time>2026-05-04T11:36:04.539Z</time></trkpt><trkpt lat="41.5161547" lon="0.3686316"><ele>156.0</ele><time>2026-05-04T11:36:05.546Z</time></trkpt><trkpt lat="41.5160255" lon="0.368637"><ele>155.5</ele><time>2026-05-04T11:36:06.543Z</time></trkpt><trkpt lat="41.5158906" lon="0.3686217"><ele>155.0</ele><time>2026-05-04T11:36:07.545Z</time></trkpt><trkpt lat="41.5157621" lon="0.3685847"><ele>155.0</ele><time>2026-05-04T11:36:08.547Z</time></trkpt><trkpt lat="41.515634" lon="0.3685295"><ele>155.0</ele><time>2026-05-04T11:36:09.545Z</time></trkpt><trkpt lat="41.5155081" lon="0.3684576"><ele>155.0</ele><time>2026-05-04T11:36:10.542Z</time></trkpt><trkpt lat="41.5153835" lon="0.368377"><ele>155.0</ele><time>2026-05-04T11:36:11.54Z</time></trkpt><trkpt lat="41.515262" lon="0.368283"><ele>155.0</ele><time>2026-05-04T11:36:12.541Z</time></trkpt><trkpt lat="41.5151542" lon="0.368186"><ele>155.0</ele><time>2026-05-04T11:36:13.542Z</time></trkpt><trkpt lat="41.5150431" lon="0.3681"><ele>155.0</ele><time>2026-05-04T11:36:14.533Z</time></trkpt><trkpt lat="41.5149374" lon="0.3680068"><ele>155.0</ele><time>2026-05-04T11:36:15.534Z</time></trkpt><trkpt lat="41.5148477" lon="0.3679095"><ele>154.5</ele><time>2026-05-04T11:36:16.539Z</time></trkpt><trkpt lat="41.5147724" lon="0.367807"><ele>154.0</ele><time>2026-05-04T11:36:17.528Z</time></trkpt><trkpt lat="41.5146804" lon="0.3677005"><ele>153.5</ele><time>2026-05-04T11:36:18.522Z</time></trkpt><trkpt lat="41.5145823" lon="0.3675874"><ele>153.0</ele><time>2026-05-04T11:36:19.531Z</time></trkpt><trkpt lat="41.5144752" lon="0.3675015"><ele>153.0</ele><time>2026-05-04T11:36:20.531Z</time></trkpt><trkpt lat="41.5143625" lon="0.3674375"><ele>153.0</ele><time>2026-05-04T11:36:21.533Z</time></trkpt><trkpt lat="41.514246" lon="0.3673995"><ele>153.0</ele><time>2026-05-04T11:36:22.537Z</time></trkpt><trkpt lat="41.5141344" lon="0.3673857"><ele>153.0</ele><time>2026-05-04T11:36:23.542Z</time></trkpt><trkpt lat="41.5140268" lon="0.3673928"><ele>153.0</ele><time>2026-05-04T11:36:24.542Z</time></trkpt><trkpt lat="41.5139363" lon="0.3674203"><ele>153.0</ele><time>2026-05-04T11:36:25.524Z</time></trkpt><trkpt lat="41.5138459" lon="0.3674314"><ele>153.0</ele><time>2026-05-04T11:36:26.546Z</time></trkpt><trkpt lat="41.513773" lon="0.3674015"><ele>153.0</ele><time>2026-05-04T11:36:27.546Z</time></trkpt><trkpt lat="41.5136882" lon="0.3673511"><ele>153.0</ele><time>2026-05-04T11:36:28.547Z</time></trkpt><trkpt lat="41.513602" lon="0.367283"><ele>152.83333333333334</ele><time>2026-05-04T11:36:29.534Z</time></trkpt><trkpt lat="41.5135083" lon="0.3672313"><ele>152.66666666666666</ele><time>2026-05-04T11:36:30.53Z</time></trkpt><trkpt lat="41.5134258" lon="0.3671817"><ele>152.5</ele><time>2026-05-04T11:36:31.532Z</time></trkpt><trkpt lat="41.5133434" lon="0.3671795"><ele>152.33333333333331</ele><time>2026-05-04T11:36:32.535Z</time></trkpt><trkpt lat="41.5132598" lon="0.3671919"><ele>152.16666666666666</ele><time>2026-05-04T11:36:33.532Z</time></trkpt><trkpt lat="41.5131777" lon="0.3672247"><ele>152.0</ele><time>2026-05-04T11:36:34.536Z</time></trkpt><trkpt lat="41.5130958" lon="0.3672841"><ele>152.0</ele><time>2026-05-04T11:36:35.532Z</time></trkpt><trkpt lat="41.5130111" lon="0.367377"><ele>152.0</ele><time>2026-05-04T11:36:36.539Z</time></trkpt><trkpt lat="41.5129439" lon="0.3674769"><ele>152.0</ele><time>2026-05-04T11:36:37.544Z</time></trkpt><trkpt lat="41.5128971" lon="0.36758"><ele>152.0</ele><time>2026-05-04T11:36:38.544Z</time></trkpt><trkpt lat="41.5128621" lon="0.3676961"><ele>152.0</ele><time>2026-05-04T11:36:39.54Z</time></trkpt><trkpt lat="41.5128339" lon="0.3678138"><ele>151.5</ele><time>2026-05-04T11:36:40.539Z</time></trkpt><trkpt lat="41.5128107" lon="0.3679316"><ele>151.0</ele><time>2026-05-04T11:36:41.543Z</time></trkpt><trkpt lat="41.5127925" lon="0.368042"><ele>150.5</ele><time>2026-05-04T11:36:42.544Z</time></trkpt><trkpt lat="41.5127649" lon="0.3681512"><ele>150.0</ele><time>2026-05-04T11:36:43.547Z</time></trkpt><trkpt lat="41.5127264" lon="0.3682445"><ele>149.5</ele><time>2026-05-04T11:36:44.551Z</time></trkpt><trkpt lat="41.5126636" lon="0.3683072"><ele>149.0</ele><time>2026-05-04T11:36:45.545Z</time></trkpt><trkpt lat="41.5125844" lon="0.3683341"><ele>148.8</ele><time>2026-05-04T11:36:46.555Z</time></trkpt><trkpt lat="41.5124908" lon="0.3683112"><ele>148.60000000000002</ele><time>2026-05-04T11:36:47.549Z</time></trkpt><trkpt lat="41.5123925" lon="0.3682522"><ele>148.4</ele><time>2026-05-04T11:36:48.544Z</time></trkpt><trkpt lat="41.5122967" lon="0.3681923"><ele>148.20000000000002</ele><time>2026-05-04T11:36:49.54Z</time></trkpt><trkpt lat="41.5121998" lon="0.3681271"><ele>148.0</ele><time>2026-05-04T11:36:50.539Z</time></trkpt><trkpt lat="41.5120998" lon="0.3680503"><ele>147.0</ele><time>2026-05-04T11:36:51.54Z</time></trkpt><trkpt lat="41.5119988" lon="0.3679663"><ele>146.0</ele><time>2026-05-04T11:36:52.546Z</time></trkpt><trkpt lat="41.5119022" lon="0.3678726"><ele>145.0</ele><time>2026-05-04T11:36:53.546Z</time></trkpt><trkpt lat="41.5118047" lon="0.3677728"><ele>144.0</ele><time>2026-05-04T11:36:54.542Z</time></trkpt><trkpt lat="41.511714" lon="0.3676595"><ele>144.0</ele><time>2026-05-04T11:36:55.546Z</time></trkpt><trkpt lat="41.5116239" lon="0.3675388"><ele>144.0</ele><time>2026-05-04T11:36:56.544Z</time></trkpt><trkpt lat="41.5115359" lon="0.3674141"><ele>144.0</ele><time>2026-05-04T11:36:57.55Z</time></trkpt><trkpt lat="41.5114498" lon="0.3672829"><ele>144.0</ele><time>2026-05-04T11:36:58.55Z</time></trkpt><trkpt lat="41.5113645" lon="0.3671669"><ele>144.4</ele><time>2026-05-04T11:36:59.549Z</time></trkpt><trkpt lat="41.5112791" lon="0.3670825"><ele>144.8</ele><time>2026-05-04T11:37:00.537Z</time></trkpt><trkpt lat="41.5112039" lon="0.3669769"><ele>145.2</ele><time>2026-05-04T11:37:01.533Z</time></trkpt><trkpt lat="41.5111228" lon="0.3668676"><ele>145.6</ele><time>2026-05-04T11:37:02.533Z</time></trkpt><trkpt lat="41.5110537" lon="0.3667478"><ele>146.0</ele><time>2026-05-04T11:37:03.542Z</time></trkpt><trkpt lat="41.5109777" lon="0.3666225"><ele>145.25</ele><time>2026-05-04T11:37:04.534Z</time></trkpt><trkpt lat="41.5108825" lon="0.3664988"><ele>144.5</ele><time>2026-05-04T11:37:05.543Z</time></trkpt><trkpt lat="41.5107787" lon="0.366368"><ele>143.75</ele><time>2026-05-04T11:37:06.54Z</time></trkpt><trkpt lat="41.5106729" lon="0.3662442"><ele>143.0</ele><time>2026-05-04T11:37:07.54Z</time></trkpt><trkpt lat="41.5105582" lon="0.3661148"><ele>143.0</ele><time>2026-05-04T11:37:08.539Z</time></trkpt><trkpt lat="41.5104407" lon="0.3659935"><ele>143.0</ele><time>2026-05-04T11:37:09.541Z</time></trkpt><trkpt lat="41.5103177" lon="0.3658699"><ele>143.0</ele><time>2026-05-04T11:37:10.545Z</time></trkpt><trkpt lat="41.51019" lon="0.365765"><ele>142.0</ele><time>2026-05-04T11:37:11.544Z</time></trkpt><trkpt lat="41.5100601" lon="0.3656699"><ele>141.0</ele><time>2026-05-04T11:37:12.543Z</time></trkpt><trkpt lat="41.5099239" lon="0.3655787"><ele>140.0</ele><time>2026-05-04T11:37:13.547Z</time></trkpt><trkpt lat="41.5097885" lon="0.3655"><ele>139.0</ele><time>2026-05-04T11:37:14.542Z</time></trkpt><trkpt lat="41.5096427" lon="0.3654337"><ele>134.66666666666669</ele><time>2026-05-04T11:37:15.541Z</time></trkpt><trkpt lat="41.5094912" lon="0.3653864"><ele>130.33333333333334</ele><time>2026-05-04T11:37:16.544Z</time></trkpt><trkpt lat="41.5093343" lon="0.3653493"><ele>126.0</ele><time>2026-05-04T11:37:17.544Z</time></trkpt><trkpt lat="41.5091749" lon="0.3653188"><ele>126.0</ele><time>2026-05-04T11:37:18.553Z</time></trkpt><trkpt lat="41.5090199" lon="0.3652953"><ele>126.0</ele><time>2026-05-04T11:37:19.554Z</time></trkpt><trkpt lat="41.5088715" lon="0.3652785"><ele>126.0</ele><time>2026-05-04T11:37:20.542Z</time></trkpt><trkpt lat="41.5087257" lon="0.3652597"><ele>123.5</ele><time>2026-05-04T11:37:21.543Z</time></trkpt><trkpt lat="41.5085885" lon="0.36528"><ele>121.0</ele><time>2026-05-04T11:37:22.546Z</time></trkpt><trkpt lat="41.5084662" lon="0.3652777"><ele>118.5</ele><time>2026-05-04T11:37:23.532Z</time></trkpt><trkpt lat="41.5083135" lon="0.3652968"><ele>116.0</ele><time>2026-05-04T11:37:24.534Z</time></trkpt><trkpt lat="41.5081606" lon="0.3653409"><ele>116.0</ele><time>2026-05-04T11:37:25.538Z</time></trkpt><trkpt lat="41.5080159" lon="0.3654017"><ele>116.0</ele><time>2026-05-04T11:37:26.54Z</time></trkpt><trkpt lat="41.5078725" lon="0.36548"><ele>116.0</ele><time>2026-05-04T11:37:27.539Z</time></trkpt><trkpt lat="41.5077279" lon="0.3655625"><ele>116.66666666666666</ele><time>2026-05-04T11:37:28.543Z</time></trkpt><trkpt lat="41.5075969" lon="0.3656815"><ele>117.33333333333334</ele><time>2026-05-04T11:37:29.537Z</time></trkpt><trkpt lat="41.5074431" lon="0.3658417"><ele>118.0</ele><time>2026-05-04T11:37:30.53Z</time></trkpt><trkpt lat="41.507302" lon="0.3659851"><ele>118.0</ele><time>2026-05-04T11:37:31.539Z</time></trkpt><trkpt lat="41.5071775" lon="0.3661101"><ele>118.0</ele><time>2026-05-04T11:37:32.535Z</time></trkpt><trkpt lat="41.5070584" lon="0.3662354"><ele>118.0</ele><time>2026-05-04T11:37:33.542Z</time></trkpt><trkpt lat="41.5069512" lon="0.3663398"><ele>118.0</ele><time>2026-05-04T11:37:34.542Z</time></trkpt><trkpt lat="41.5068444" lon="0.3664296"><ele>118.5</ele><time>2026-05-04T11:37:35.547Z</time></trkpt><trkpt lat="41.506739" lon="0.3665379"><ele>119.0</ele><time>2026-05-04T11:37:36.543Z</time></trkpt><trkpt lat="41.5066299" lon="0.3666405"><ele>119.5</ele><time>2026-05-04T11:37:37.548Z</time></trkpt><trkpt lat="41.5065272" lon="0.3667385"><ele>120.0</ele><time>2026-05-04T11:37:38.55Z</time></trkpt><trkpt lat="41.5064297" lon="0.3668406"><ele>120.0</ele><time>2026-05-04T11:37:39.542Z</time></trkpt><trkpt lat="41.5063382" lon="0.3669411"><ele>120.0</ele><time>2026-05-04T11:37:40.539Z</time></trkpt><trkpt lat="41.5062457" lon="0.3670419"><ele>120.0</ele><time>2026-05-04T11:37:41.546Z</time></trkpt><trkpt lat="41.5061522" lon="0.3671417"><ele>120.0</ele><time>2026-05-04T11:37:42.547Z</time></trkpt><trkpt lat="41.5060675" lon="0.367238"><ele>119.5</ele><time>2026-05-04T11:37:43.557Z</time></trkpt><trkpt lat="41.5059789" lon="0.3673356"><ele>119.0</ele><time>2026-05-04T11:37:44.551Z</time></trkpt><trkpt lat="41.5058871" lon="0.3674367"><ele>118.5</ele><time>2026-05-04T11:37:45.55Z</time></trkpt><trkpt lat="41.505795" lon="0.3675373"><ele>118.0</ele><time>2026-05-04T11:37:46.554Z</time></trkpt><trkpt lat="41.5056107" lon="0.3677519"><ele>118.0</ele><time>2026-05-04T11:37:48.546Z</time></trkpt><trkpt lat="41.5055155" lon="0.3678663"><ele>118.0</ele><time>2026-05-04T11:37:49.546Z</time></trkpt><trkpt lat="41.5054165" lon="0.3679827"><ele>118.0</ele><time>2026-05-04T11:37:50.547Z</time></trkpt><trkpt lat="41.5053134" lon="0.3680929"><ele>118.0</ele><time>2026-05-04T11:37:51.549Z</time></trkpt><trkpt lat="41.5052105" lon="0.3682014"><ele>118.0</ele><time>2026-05-04T11:37:52.546Z</time></trkpt><trkpt lat="41.5051052" lon="0.3683136"><ele>118.0</ele><time>2026-05-04T11:37:53.553Z</time></trkpt><trkpt lat="41.5049926" lon="0.3684245"><ele>118.0</ele><time>2026-05-04T11:37:54.549Z</time></trkpt><trkpt lat="41.5048789" lon="0.3685456"><ele>118.0</ele><time>2026-05-04T11:37:55.548Z</time></trkpt><trkpt lat="41.5047626" lon="0.3686725"><ele>118.0</ele><time>2026-05-04T11:37:56.548Z</time></trkpt><trkpt lat="41.504652" lon="0.3688062"><ele>118.0</ele><time>2026-05-04T11:37:57.552Z</time></trkpt><trkpt lat="41.5045367" lon="0.3689381"><ele>118.0</ele><time>2026-05-04T11:37:58.559Z</time></trkpt><trkpt lat="41.5044221" lon="0.3690698"><ele>117.33333333333334</ele><time>2026-05-04T11:37:59.556Z</time></trkpt><trkpt lat="41.5043065" lon="0.3692037"><ele>116.66666666666666</ele><time>2026-05-04T11:38:00.557Z</time></trkpt><trkpt lat="41.5041871" lon="0.3693351"><ele>116.0</ele><time>2026-05-04T11:38:01.55Z</time></trkpt><trkpt lat="41.5040775" lon="0.3694571"><ele>116.0</ele><time>2026-05-04T11:38:02.547Z</time></trkpt><trkpt lat="41.5039691" lon="0.3695657"><ele>116.0</ele><time>2026-05-04T11:38:03.54Z</time></trkpt><trkpt lat="41.5038825" lon="0.3696222"><ele>116.0</ele><time>2026-05-04T11:38:04.544Z</time></trkpt><trkpt lat="41.5037544" lon="0.3697239"><ele>116.0</ele><time>2026-05-04T11:38:05.53Z</time></trkpt><trkpt lat="41.503618" lon="0.3699181"><ele>115.0</ele><time>2026-05-04T11:38:06.539Z</time></trkpt><trkpt lat="41.50349" lon="0.3700837"><ele>114.0</ele><time>2026-05-04T11:38:07.546Z</time></trkpt><trkpt lat="41.5033707" lon="0.3702384"><ele>113.0</ele><time>2026-05-04T11:38:08.547Z</time></trkpt><trkpt lat="41.5032579" lon="0.3703876"><ele>113.0</ele><time>2026-05-04T11:38:09.544Z</time></trkpt><trkpt lat="41.5031408" lon="0.370518"><ele>113.0</ele><time>2026-05-04T11:38:10.542Z</time></trkpt><trkpt lat="41.503031" lon="0.3706504"><ele>113.0</ele><time>2026-05-04T11:38:11.547Z</time></trkpt><trkpt lat="41.5029216" lon="0.3707726"><ele>113.0</ele><time>2026-05-04T11:38:12.55Z</time></trkpt><trkpt lat="41.5028178" lon="0.370895"><ele>113.0</ele><time>2026-05-04T11:38:13.548Z</time></trkpt><trkpt lat="41.5027136" lon="0.3710112"><ele>113.0</ele><time>2026-05-04T11:38:14.552Z</time></trkpt><trkpt lat="41.5026174" lon="0.3711195"><ele>113.0</ele><time>2026-05-04T11:38:15.549Z</time></trkpt><trkpt lat="41.5025292" lon="0.3712329"><ele>113.0</ele><time>2026-05-04T11:38:16.554Z</time></trkpt><trkpt lat="41.5024408" lon="0.3713637"><ele>113.25</ele><time>2026-05-04T11:38:17.545Z</time></trkpt><trkpt lat="41.502345" lon="0.3714768"><ele>113.5</ele><time>2026-05-04T11:38:18.54Z</time></trkpt><trkpt lat="41.5022456" lon="0.3715919"><ele>113.75</ele><time>2026-05-04T11:38:19.544Z</time></trkpt><trkpt lat="41.5021502" lon="0.3716932"><ele>114.0</ele><time>2026-05-04T11:38:20.548Z</time></trkpt><trkpt lat="41.5020444" lon="0.3717967"><ele>114.25</ele><time>2026-05-04T11:38:21.548Z</time></trkpt><trkpt lat="41.5019302" lon="0.3719018"><ele>114.5</ele><time>2026-05-04T11:38:22.551Z</time></trkpt><trkpt lat="41.5018156" lon="0.3720142"><ele>114.75</ele><time>2026-05-04T11:38:23.545Z</time></trkpt><trkpt lat="41.501699" lon="0.3721371"><ele>115.0</ele><time>2026-05-04T11:38:24.554Z</time></trkpt><trkpt lat="41.501584" lon="0.372252"><ele>115.5</ele><time>2026-05-04T11:38:25.55Z</time></trkpt><trkpt lat="41.5014736" lon="0.3723781"><ele>116.0</ele><time>2026-05-04T11:38:26.542Z</time></trkpt><trkpt lat="41.501366" lon="0.3725097"><ele>116.5</ele><time>2026-05-04T11:38:27.552Z</time></trkpt><trkpt lat="41.5012615" lon="0.3726408"><ele>117.0</ele><time>2026-05-04T11:38:28.543Z</time></trkpt><trkpt lat="41.5011515" lon="0.3727662"><ele>117.0</ele><time>2026-05-04T11:38:29.55Z</time></trkpt><trkpt lat="41.5010354" lon="0.3729071"><ele>117.0</ele><time>2026-05-04T11:38:30.544Z</time></trkpt><trkpt lat="41.5009241" lon="0.373055"><ele>117.0</ele><time>2026-05-04T11:38:31.539Z</time></trkpt><trkpt lat="41.500806" lon="0.3732015"><ele>117.5</ele><time>2026-05-04T11:38:32.543Z</time></trkpt><trkpt lat="41.5006866" lon="0.3733155"><ele>118.0</ele><time>2026-05-04T11:38:33.546Z</time></trkpt><trkpt lat="41.5005805" lon="0.3734264"><ele>118.5</ele><time>2026-05-04T11:38:34.546Z</time></trkpt><trkpt lat="41.5004698" lon="0.3735361"><ele>119.0</ele><time>2026-05-04T11:38:35.549Z</time></trkpt><trkpt lat="41.5003606" lon="0.3736533"><ele>119.0</ele><time>2026-05-04T11:38:36.545Z</time></trkpt><trkpt lat="41.5002457" lon="0.3737824"><ele>119.0</ele><time>2026-05-04T11:38:37.548Z</time></trkpt><trkpt lat="41.5001317" lon="0.3739058"><ele>119.0</ele><time>2026-05-04T11:38:38.545Z</time></trkpt><trkpt lat="41.5000219" lon="0.3740306"><ele>119.0</ele><time>2026-05-04T11:38:39.547Z</time></trkpt><trkpt lat="41.4999111" lon="0.3741537"><ele>119.0</ele><time>2026-05-04T11:38:40.55Z</time></trkpt><trkpt lat="41.4998046" lon="0.3742691"><ele>119.0</ele><time>2026-05-04T11:38:41.549Z</time></trkpt><trkpt lat="41.4996991" lon="0.3743807"><ele>119.0</ele><time>2026-05-04T11:38:42.545Z</time></trkpt><trkpt lat="41.4995896" lon="0.3745024"><ele>119.0</ele><time>2026-05-04T11:38:43.548Z</time></trkpt><trkpt lat="41.4994851" lon="0.3746231"><ele>121.0</ele><time>2026-05-04T11:38:44.559Z</time></trkpt><trkpt lat="41.4993825" lon="0.3747445"><ele>123.0</ele><time>2026-05-04T11:38:45.552Z</time></trkpt><trkpt lat="41.4992756" lon="0.3748589"><ele>125.0</ele><time>2026-05-04T11:38:46.553Z</time></trkpt><trkpt lat="41.4991688" lon="0.3749594"><ele>127.0</ele><time>2026-05-04T11:38:47.553Z</time></trkpt><trkpt lat="41.4990482" lon="0.3750399"><ele>127.0</ele><time>2026-05-04T11:38:48.541Z</time></trkpt><trkpt lat="41.4989119" lon="0.3751592"><ele>127.0</ele><time>2026-05-04T11:38:49.524Z</time></trkpt><trkpt lat="41.4987934" lon="0.3753175"><ele>127.0</ele><time>2026-05-04T11:38:50.537Z</time></trkpt><trkpt lat="41.4986738" lon="0.3754475"><ele>128.5</ele><time>2026-05-04T11:38:51.542Z</time></trkpt><trkpt lat="41.4985632" lon="0.3755678"><ele>130.0</ele><time>2026-05-04T11:38:52.543Z</time></trkpt><trkpt lat="41.498461" lon="0.3756962"><ele>131.5</ele><time>2026-05-04T11:38:53.546Z</time></trkpt><trkpt lat="41.4983567" lon="0.3758312"><ele>133.0</ele><time>2026-05-04T11:38:54.543Z</time></trkpt><trkpt lat="41.4982569" lon="0.3759606"><ele>133.0</ele><time>2026-05-04T11:38:55.546Z</time></trkpt><trkpt lat="41.4981481" lon="0.3760876"><ele>133.0</ele><time>2026-05-04T11:38:56.546Z</time></trkpt><trkpt lat="41.4980328" lon="0.376217"><ele>133.0</ele><time>2026-05-04T11:38:57.552Z</time></trkpt><trkpt lat="41.497921" lon="0.3763568"><ele>133.0</ele><time>2026-05-04T11:38:58.545Z</time></trkpt><trkpt lat="41.4978117" lon="0.376486"><ele>132.5</ele><time>2026-05-04T11:38:59.548Z</time></trkpt><trkpt lat="41.4976916" lon="0.3766017"><ele>132.0</ele><time>2026-05-04T11:39:00.549Z</time></trkpt><trkpt lat="41.4975893" lon="0.376696"><ele>131.5</ele><time>2026-05-04T11:39:01.545Z</time></trkpt><trkpt lat="41.4974837" lon="0.3768197"><ele>131.0</ele><time>2026-05-04T11:39:02.545Z</time></trkpt><trkpt lat="41.4973794" lon="0.3769185"><ele>131.0</ele><time>2026-05-04T11:39:03.543Z</time></trkpt><trkpt lat="41.4972644" lon="0.3770265"><ele>131.0</ele><time>2026-05-04T11:39:04.548Z</time></trkpt><trkpt lat="41.4971598" lon="0.3771378"><ele>131.0</ele><time>2026-05-04T11:39:05.549Z</time></trkpt><trkpt lat="41.4970552" lon="0.3772443"><ele>131.0</ele><time>2026-05-04T11:39:06.558Z</time></trkpt><trkpt lat="41.4969575" lon="0.3773517"><ele>131.75</ele><time>2026-05-04T11:39:07.558Z</time></trkpt><trkpt lat="41.4968534" lon="0.3774646"><ele>132.5</ele><time>2026-05-04T11:39:08.556Z</time></trkpt><trkpt lat="41.4967468" lon="0.3775713"><ele>133.25</ele><time>2026-05-04T11:39:09.553Z</time></trkpt><trkpt lat="41.4966449" lon="0.3776854"><ele>134.0</ele><time>2026-05-04T11:39:10.549Z</time></trkpt><trkpt lat="41.4965396" lon="0.3778053"><ele>134.0</ele><time>2026-05-04T11:39:11.556Z</time></trkpt><trkpt lat="41.4964396" lon="0.3779257"><ele>134.0</ele><time>2026-05-04T11:39:12.554Z</time></trkpt><trkpt lat="41.4963395" lon="0.3780427"><ele>134.0</ele><time>2026-05-04T11:39:13.546Z</time></trkpt><trkpt lat="41.496239" lon="0.3781618"><ele>134.0</ele><time>2026-05-04T11:39:14.551Z</time></trkpt><trkpt lat="41.4961316" lon="0.3782594"><ele>134.25</ele><time>2026-05-04T11:39:15.551Z</time></trkpt><trkpt lat="41.4959963" lon="0.3784069"><ele>134.5</ele><time>2026-05-04T11:39:16.547Z</time></trkpt><trkpt lat="41.495889" lon="0.3785296"><ele>134.75</ele><time>2026-05-04T11:39:17.538Z</time></trkpt><trkpt lat="41.4957901" lon="0.3786442"><ele>135.0</ele><time>2026-05-04T11:39:18.539Z</time></trkpt><trkpt lat="41.495697" lon="0.3787521"><ele>135.0</ele><time>2026-05-04T11:39:19.537Z</time></trkpt><trkpt lat="41.4956014" lon="0.3788502"><ele>135.0</ele><time>2026-05-04T11:39:20.537Z</time></trkpt><trkpt lat="41.4955033" lon="0.3789565"><ele>135.0</ele><time>2026-05-04T11:39:21.542Z</time></trkpt><trkpt lat="41.4954035" lon="0.379059"><ele>135.0</ele><time>2026-05-04T11:39:22.546Z</time></trkpt><trkpt lat="41.4953081" lon="0.3791686"><ele>135.25</ele><time>2026-05-04T11:39:23.55Z</time></trkpt><trkpt lat="41.4952195" lon="0.3792775"><ele>135.5</ele><time>2026-05-04T11:39:24.55Z</time></trkpt><trkpt lat="41.4951213" lon="0.3793943"><ele>135.75</ele><time>2026-05-04T11:39:25.555Z</time></trkpt><trkpt lat="41.4950212" lon="0.37951"><ele>136.0</ele><time>2026-05-04T11:39:26.553Z</time></trkpt><trkpt lat="41.4949245" lon="0.3796239"><ele>136.0</ele><time>2026-05-04T11:39:27.552Z</time></trkpt><trkpt lat="41.4948283" lon="0.3797265"><ele>136.0</ele><time>2026-05-04T11:39:28.559Z</time></trkpt><trkpt lat="41.4947249" lon="0.3798274"><ele>136.0</ele><time>2026-05-04T11:39:29.557Z</time></trkpt><trkpt lat="41.4946245" lon="0.3799038"><ele>136.0</ele><time>2026-05-04T11:39:30.545Z</time></trkpt><trkpt lat="41.4945233" lon="0.3800237"><ele>136.5</ele><time>2026-05-04T11:39:31.549Z</time></trkpt><trkpt lat="41.4944244" lon="0.3801383"><ele>137.0</ele><time>2026-05-04T11:39:32.536Z</time></trkpt><trkpt lat="41.4943282" lon="0.3802566"><ele>137.5</ele><time>2026-05-04T11:39:33.546Z</time></trkpt><trkpt lat="41.4942314" lon="0.3803767"><ele>138.0</ele><time>2026-05-04T11:39:34.549Z</time></trkpt><trkpt lat="41.4941365" lon="0.3804985"><ele>138.5</ele><time>2026-05-04T11:39:35.545Z</time></trkpt><trkpt lat="41.4940417" lon="0.3806215"><ele>139.0</ele><time>2026-05-04T11:39:36.548Z</time></trkpt><trkpt lat="41.4939417" lon="0.3807345"><ele>139.5</ele><time>2026-05-04T11:39:37.554Z</time></trkpt><trkpt lat="41.4938411" lon="0.3808454"><ele>140.0</ele><time>2026-05-04T11:39:38.55Z</time></trkpt><trkpt lat="41.4937391" lon="0.3809523"><ele>140.0</ele><time>2026-05-04T11:39:39.551Z</time></trkpt><trkpt lat="41.4936386" lon="0.3810635"><ele>140.0</ele><time>2026-05-04T11:39:40.547Z</time></trkpt><trkpt lat="41.4935385" lon="0.3811747"><ele>140.0</ele><time>2026-05-04T11:39:41.548Z</time></trkpt><trkpt lat="41.4934346" lon="0.3812844"><ele>140.0</ele><time>2026-05-04T11:39:42.553Z</time></trkpt><trkpt lat="41.4932178" lon="0.3814976"><ele>140.0</ele><time>2026-05-04T11:39:44.546Z</time></trkpt><trkpt lat="41.4931046" lon="0.3816001"><ele>140.0</ele><time>2026-05-04T11:39:45.548Z</time></trkpt><trkpt lat="41.4929877" lon="0.3816961"><ele>140.0</ele><time>2026-05-04T11:39:46.556Z</time></trkpt><trkpt lat="41.4928669" lon="0.3817895"><ele>140.0</ele><time>2026-05-04T11:39:47.555Z</time></trkpt><trkpt lat="41.492742" lon="0.381883"><ele>140.0</ele><time>2026-05-04T11:39:48.551Z</time></trkpt><trkpt lat="41.4926198" lon="0.381961"><ele>140.0</ele><time>2026-05-04T11:39:49.552Z</time></trkpt><trkpt lat="41.4924973" lon="0.3820455"><ele>140.0</ele><time>2026-05-04T11:39:50.546Z</time></trkpt><trkpt lat="41.4923766" lon="0.3821221"><ele>140.0</ele><time>2026-05-04T11:39:51.553Z</time></trkpt><trkpt lat="41.4922511" lon="0.3821875"><ele>140.0</ele><time>2026-05-04T11:39:52.552Z</time></trkpt><trkpt lat="41.4921263" lon="0.3822459"><ele>140.0</ele><time>2026-05-04T11:39:53.565Z</time></trkpt><trkpt lat="41.4920093" lon="0.3823035"><ele>140.0</ele><time>2026-05-04T11:39:54.559Z</time></trkpt><trkpt lat="41.4918781" lon="0.3823526"><ele>140.0</ele><time>2026-05-04T11:39:55.559Z</time></trkpt><trkpt lat="41.4917468" lon="0.3823987"><ele>140.0</ele><time>2026-05-04T11:39:56.56Z</time></trkpt><trkpt lat="41.4916206" lon="0.3824378"><ele>140.0</ele><time>2026-05-04T11:39:57.563Z</time></trkpt><trkpt lat="41.4914915" lon="0.3824745"><ele>140.0</ele><time>2026-05-04T11:39:58.567Z</time></trkpt><trkpt lat="41.4913637" lon="0.3825107"><ele>140.0</ele><time>2026-05-04T11:39:59.566Z</time></trkpt><trkpt lat="41.4912327" lon="0.3825377"><ele>139.75</ele><time>2026-05-04T11:40:00.568Z</time></trkpt><trkpt lat="41.491102" lon="0.3825683"><ele>139.5</ele><time>2026-05-04T11:40:01.565Z</time></trkpt><trkpt lat="41.4909692" lon="0.3825968"><ele>139.25</ele><time>2026-05-04T11:40:02.568Z</time></trkpt><trkpt lat="41.4908362" lon="0.3826203"><ele>139.0</ele><time>2026-05-04T11:40:03.562Z</time></trkpt><trkpt lat="41.4907056" lon="0.3826445"><ele>139.0</ele><time>2026-05-04T11:40:04.559Z</time></trkpt><trkpt lat="41.490573" lon="0.3826688"><ele>139.0</ele><time>2026-05-04T11:40:05.558Z</time></trkpt><trkpt lat="41.4904409" lon="0.3826919"><ele>139.0</ele><time>2026-05-04T11:40:06.557Z</time></trkpt><trkpt lat="41.4903002" lon="0.3827137"><ele>139.0</ele><time>2026-05-04T11:40:07.564Z</time></trkpt><trkpt lat="41.4901589" lon="0.3827291"><ele>139.0</ele><time>2026-05-04T11:40:08.56Z</time></trkpt><trkpt lat="41.4900195" lon="0.3827467"><ele>139.0</ele><time>2026-05-04T11:40:09.552Z</time></trkpt><trkpt lat="41.4898827" lon="0.3827717"><ele>139.0</ele><time>2026-05-04T11:40:10.56Z</time></trkpt><trkpt lat="41.4897486" lon="0.3827899"><ele>139.0</ele><time>2026-05-04T11:40:11.544Z</time></trkpt><trkpt lat="41.4896018" lon="0.382792"><ele>139.25</ele><time>2026-05-04T11:40:12.56Z</time></trkpt><trkpt lat="41.4894596" lon="0.3828096"><ele>139.5</ele><time>2026-05-04T11:40:13.553Z</time></trkpt><trkpt lat="41.4893161" lon="0.3828295"><ele>139.75</ele><time>2026-05-04T11:40:14.556Z</time></trkpt><trkpt lat="41.4891786" lon="0.3828564"><ele>140.0</ele><time>2026-05-04T11:40:15.557Z</time></trkpt><trkpt lat="41.4890422" lon="0.3828814"><ele>140.0</ele><time>2026-05-04T11:40:16.555Z</time></trkpt><trkpt lat="41.4889099" lon="0.3829052"><ele>140.0</ele><time>2026-05-04T11:40:17.558Z</time></trkpt><trkpt lat="41.4887733" lon="0.3829416"><ele>140.0</ele><time>2026-05-04T11:40:18.556Z</time></trkpt><trkpt lat="41.488634" lon="0.382959"><ele>140.0</ele><time>2026-05-04T11:40:19.551Z</time></trkpt><trkpt lat="41.4884953" lon="0.3829725"><ele>140.5</ele><time>2026-05-04T11:40:20.547Z</time></trkpt><trkpt lat="41.4883576" lon="0.3829893"><ele>141.0</ele><time>2026-05-04T11:40:21.542Z</time></trkpt><trkpt lat="41.4882204" lon="0.383002"><ele>141.5</ele><time>2026-05-04T11:40:22.55Z</time></trkpt><trkpt lat="41.4880815" lon="0.3830227"><ele>142.0</ele><time>2026-05-04T11:40:23.546Z</time></trkpt><trkpt lat="41.4879407" lon="0.383042"><ele>142.5</ele><time>2026-05-04T11:40:24.534Z</time></trkpt><trkpt lat="41.4877988" lon="0.3830623"><ele>143.0</ele><time>2026-05-04T11:40:25.541Z</time></trkpt><trkpt lat="41.4876564" lon="0.3830911"><ele>143.5</ele><time>2026-05-04T11:40:26.546Z</time></trkpt><trkpt lat="41.4875174" lon="0.3831063"><ele>144.0</ele><time>2026-05-04T11:40:27.55Z</time></trkpt><trkpt lat="41.4873758" lon="0.3831341"><ele>144.0</ele><time>2026-05-04T11:40:28.55Z</time></trkpt><trkpt lat="41.4872315" lon="0.3831672"><ele>144.0</ele><time>2026-05-04T11:40:29.549Z</time></trkpt><trkpt lat="41.4870862" lon="0.3832025"><ele>144.0</ele><time>2026-05-04T11:40:30.547Z</time></trkpt><trkpt lat="41.4869365" lon="0.3832156"><ele>144.0</ele><time>2026-05-04T11:40:31.546Z</time></trkpt><trkpt lat="41.4867964" lon="0.3831969"><ele>144.0</ele><time>2026-05-04T11:40:32.54Z</time></trkpt><trkpt lat="41.4866375" lon="0.3832194"><ele>144.0</ele><time>2026-05-04T11:40:33.545Z</time></trkpt><trkpt lat="41.4864407" lon="0.3832332"><ele>144.0</ele><time>2026-05-04T11:40:34.546Z</time></trkpt><trkpt lat="41.4862978" lon="0.383268"><ele>144.0</ele><time>2026-05-04T11:40:35.543Z</time></trkpt><trkpt lat="41.4861616" lon="0.3832936"><ele>144.0</ele><time>2026-05-04T11:40:36.54Z</time></trkpt><trkpt lat="41.4860252" lon="0.3833219"><ele>144.0</ele><time>2026-05-04T11:40:37.538Z</time></trkpt><trkpt lat="41.4858736" lon="0.3833484"><ele>144.0</ele><time>2026-05-04T11:40:38.545Z</time></trkpt><trkpt lat="41.4857336" lon="0.3833796"><ele>144.0</ele><time>2026-05-04T11:40:39.545Z</time></trkpt><trkpt lat="41.4856013" lon="0.3834073"><ele>144.0</ele><time>2026-05-04T11:40:40.552Z</time></trkpt><trkpt lat="41.4854654" lon="0.3834371"><ele>144.0</ele><time>2026-05-04T11:40:41.547Z</time></trkpt><trkpt lat="41.4853254" lon="0.383466"><ele>144.0</ele><time>2026-05-04T11:40:42.55Z</time></trkpt><trkpt lat="41.4851917" lon="0.3834832"><ele>144.0</ele><time>2026-05-04T11:40:43.551Z</time></trkpt><trkpt lat="41.4850581" lon="0.3835058"><ele>144.0</ele><time>2026-05-04T11:40:44.552Z</time></trkpt><trkpt lat="41.4849212" lon="0.3835293"><ele>144.0</ele><time>2026-05-04T11:40:45.546Z</time></trkpt><trkpt lat="41.4847888" lon="0.3835454"><ele>144.0</ele><time>2026-05-04T11:40:46.552Z</time></trkpt><trkpt lat="41.4846527" lon="0.3835611"><ele>144.25</ele><time>2026-05-04T11:40:47.552Z</time></trkpt><trkpt lat="41.484527" lon="0.3835796"><ele>144.5</ele><time>2026-05-04T11:40:48.552Z</time></trkpt><trkpt lat="41.484392" lon="0.3836054"><ele>144.75</ele><time>2026-05-04T11:40:49.553Z</time></trkpt><trkpt lat="41.484251" lon="0.3836271"><ele>145.0</ele><time>2026-05-04T11:40:50.551Z</time></trkpt><trkpt lat="41.4841124" lon="0.3836418"><ele>145.0</ele><time>2026-05-04T11:40:51.548Z</time></trkpt><trkpt lat="41.4839698" lon="0.38366"><ele>145.0</ele><time>2026-05-04T11:40:52.544Z</time></trkpt><trkpt lat="41.4838335" lon="0.3836804"><ele>145.0</ele><time>2026-05-04T11:40:53.546Z</time></trkpt><trkpt lat="41.4836893" lon="0.3837005"><ele>145.0</ele><time>2026-05-04T11:40:54.545Z</time></trkpt><trkpt lat="41.4835526" lon="0.3837342"><ele>145.0</ele><time>2026-05-04T11:40:55.555Z</time></trkpt><trkpt lat="41.4834107" lon="0.3837651"><ele>145.0</ele><time>2026-05-04T11:40:56.556Z</time></trkpt><trkpt lat="41.4832731" lon="0.3837906"><ele>145.0</ele><time>2026-05-04T11:40:57.567Z</time></trkpt><trkpt lat="41.4831308" lon="0.3838158"><ele>145.0</ele><time>2026-05-04T11:40:58.552Z</time></trkpt><trkpt lat="41.4829926" lon="0.3838341"><ele>145.0</ele><time>2026-05-04T11:40:59.561Z</time></trkpt><trkpt lat="41.4828469" lon="0.3838454"><ele>145.0</ele><time>2026-05-04T11:41:00.561Z</time></trkpt><trkpt lat="41.4827085" lon="0.3838692"><ele>145.0</ele><time>2026-05-04T11:41:01.557Z</time></trkpt><trkpt lat="41.4825657" lon="0.3838923"><ele>145.0</ele><time>2026-05-04T11:41:02.551Z</time></trkpt><trkpt lat="41.4824184" lon="0.3839135"><ele>145.0</ele><time>2026-05-04T11:41:03.556Z</time></trkpt><trkpt lat="41.4822721" lon="0.3839365"><ele>145.0</ele><time>2026-05-04T11:41:04.561Z</time></trkpt><trkpt lat="41.4821275" lon="0.3839591"><ele>145.0</ele><time>2026-05-04T11:41:05.563Z</time></trkpt><trkpt lat="41.4819838" lon="0.383983"><ele>145.0</ele><time>2026-05-04T11:41:06.563Z</time></trkpt><trkpt lat="41.4818381" lon="0.3839693"><ele>146.0</ele><time>2026-05-04T11:41:07.543Z</time></trkpt><trkpt lat="41.4816981" lon="0.3839748"><ele>147.0</ele><time>2026-05-04T11:41:08.558Z</time></trkpt><trkpt lat="41.4815565" lon="0.3839611"><ele>148.0</ele><time>2026-05-04T11:41:09.542Z</time></trkpt><trkpt lat="41.4814353" lon="0.3839628"><ele>149.0</ele><time>2026-05-04T11:41:10.542Z</time></trkpt><trkpt lat="41.4813151" lon="0.3840047"><ele>149.0</ele><time>2026-05-04T11:41:11.541Z</time></trkpt><trkpt lat="41.4811718" lon="0.3840702"><ele>149.0</ele><time>2026-05-04T11:41:12.542Z</time></trkpt><trkpt lat="41.4810293" lon="0.3841214"><ele>149.0</ele><time>2026-05-04T11:41:13.545Z</time></trkpt><trkpt lat="41.4808865" lon="0.3841557"><ele>149.0</ele><time>2026-05-04T11:41:14.543Z</time></trkpt><trkpt lat="41.4807479" lon="0.384196"><ele>149.0</ele><time>2026-05-04T11:41:15.55Z</time></trkpt><trkpt lat="41.4806153" lon="0.3842547"><ele>149.0</ele><time>2026-05-04T11:41:16.547Z</time></trkpt><trkpt lat="41.4804775" lon="0.3843278"><ele>149.0</ele><time>2026-05-04T11:41:17.549Z</time></trkpt><trkpt lat="41.4803455" lon="0.3844144"><ele>149.0</ele><time>2026-05-04T11:41:18.555Z</time></trkpt><trkpt lat="41.4802238" lon="0.3845179"><ele>149.0</ele><time>2026-05-04T11:41:19.549Z</time></trkpt><trkpt lat="41.4801077" lon="0.3846261"><ele>149.0</ele><time>2026-05-04T11:41:20.551Z</time></trkpt><trkpt lat="41.4800026" lon="0.3847384"><ele>149.0</ele><time>2026-05-04T11:41:21.551Z</time></trkpt><trkpt lat="41.4798981" lon="0.3848533"><ele>149.0</ele><time>2026-05-04T11:41:22.553Z</time></trkpt><trkpt lat="41.479793" lon="0.3849724"><ele>149.0</ele><time>2026-05-04T11:41:23.549Z</time></trkpt><trkpt lat="41.4796867" lon="0.3850838"><ele>149.0</ele><time>2026-05-04T11:41:24.55Z</time></trkpt><trkpt lat="41.4795808" lon="0.3852"><ele>149.0</ele><time>2026-05-04T11:41:25.552Z</time></trkpt><trkpt lat="41.4794785" lon="0.3853094"><ele>149.0</ele><time>2026-05-04T11:41:26.553Z</time></trkpt><trkpt lat="41.4793803" lon="0.3854253"><ele>149.0</ele><time>2026-05-04T11:41:27.555Z</time></trkpt><trkpt lat="41.4792823" lon="0.3855198"><ele>149.0</ele><time>2026-05-04T11:41:28.55Z</time></trkpt><trkpt lat="41.479195" lon="0.3856099"><ele>149.0</ele><time>2026-05-04T11:41:29.553Z</time></trkpt><trkpt lat="41.4791093" lon="0.3857073"><ele>149.0</ele><time>2026-05-04T11:41:30.555Z</time></trkpt><trkpt lat="41.479028" lon="0.3858043"><ele>149.0</ele><time>2026-05-04T11:41:31.547Z</time></trkpt><trkpt lat="41.4789415" lon="0.385901"><ele>149.0</ele><time>2026-05-04T11:41:32.549Z</time></trkpt><trkpt lat="41.4788518" lon="0.3859938"><ele>149.0</ele><time>2026-05-04T11:41:33.553Z</time></trkpt><trkpt lat="41.4787628" lon="0.3860899"><ele>149.0</ele><time>2026-05-04T11:41:34.55Z</time></trkpt><trkpt lat="41.4786735" lon="0.3861905"><ele>149.5</ele><time>2026-05-04T11:41:35.551Z</time></trkpt><trkpt lat="41.4785783" lon="0.3862938"><ele>150.0</ele><time>2026-05-04T11:41:36.551Z</time></trkpt><trkpt lat="41.4784817" lon="0.3864038"><ele>150.5</ele><time>2026-05-04T11:41:37.555Z</time></trkpt><trkpt lat="41.4783824" lon="0.3865156"><ele>151.0</ele><time>2026-05-04T11:41:38.551Z</time></trkpt><trkpt lat="41.4782783" lon="0.3866304"><ele>151.0</ele><time>2026-05-04T11:41:39.553Z</time></trkpt><trkpt lat="41.4781774" lon="0.3867411"><ele>151.0</ele><time>2026-05-04T11:41:40.555Z</time></trkpt><trkpt lat="41.4780755" lon="0.38685"><ele>151.0</ele><time>2026-05-04T11:41:41.55Z</time></trkpt><trkpt lat="41.4779786" lon="0.3869584"><ele>151.0</ele><time>2026-05-04T11:41:42.552Z</time></trkpt><trkpt lat="41.4778854" lon="0.3870622"><ele>151.5</ele><time>2026-05-04T11:41:43.554Z</time></trkpt><trkpt lat="41.4777896" lon="0.3871657"><ele>152.0</ele><time>2026-05-04T11:41:44.549Z</time></trkpt><trkpt lat="41.4776943" lon="0.3872677"><ele>152.5</ele><time>2026-05-04T11:41:45.551Z</time></trkpt><trkpt lat="41.4775973" lon="0.3873647"><ele>153.0</ele><time>2026-05-04T11:41:46.556Z</time></trkpt><trkpt lat="41.4774985" lon="0.3874703"><ele>153.0</ele><time>2026-05-04T11:41:47.558Z</time></trkpt><trkpt lat="41.4773979" lon="0.3875772"><ele>153.0</ele><time>2026-05-04T11:41:48.551Z</time></trkpt><trkpt lat="41.4772981" lon="0.3876866"><ele>153.0</ele><time>2026-05-04T11:41:49.555Z</time></trkpt><trkpt lat="41.4772001" lon="0.3877945"><ele>153.0</ele><time>2026-05-04T11:41:50.549Z</time></trkpt><trkpt lat="41.4771018" lon="0.387899"><ele>152.75</ele><time>2026-05-04T11:41:51.561Z</time></trkpt><trkpt lat="41.477006" lon="0.388006"><ele>152.5</ele><time>2026-05-04T11:41:52.552Z</time></trkpt><trkpt lat="41.4769153" lon="0.3881126"><ele>152.25</ele><time>2026-05-04T11:41:53.546Z</time></trkpt><trkpt lat="41.4768285" lon="0.3882191"><ele>152.0</ele><time>2026-05-04T11:41:54.544Z</time></trkpt><trkpt lat="41.4767444" lon="0.3883274"><ele>152.0</ele><time>2026-05-04T11:41:55.548Z</time></trkpt><trkpt lat="41.4766661" lon="0.3884465"><ele>152.0</ele><time>2026-05-04T11:41:56.544Z</time></trkpt><trkpt lat="41.4765815" lon="0.3885689"><ele>152.0</ele><time>2026-05-04T11:41:57.551Z</time></trkpt><trkpt lat="41.4764964" lon="0.388697"><ele>152.0</ele><time>2026-05-04T11:41:58.547Z</time></trkpt><trkpt lat="41.4763274" lon="0.3889599"><ele>151.5</ele><time>2026-05-04T11:42:00.549Z</time></trkpt><trkpt lat="41.4762417" lon="0.3891"><ele>151.0</ele><time>2026-05-04T11:42:01.543Z</time></trkpt><trkpt lat="41.4761577" lon="0.3892408"><ele>150.5</ele><time>2026-05-04T11:42:02.541Z</time></trkpt><trkpt lat="41.4760709" lon="0.3893735"><ele>150.0</ele><time>2026-05-04T11:42:03.554Z</time></trkpt><trkpt lat="41.4759821" lon="0.3895144"><ele>150.0</ele><time>2026-05-04T11:42:04.547Z</time></trkpt><trkpt lat="41.4758988" lon="0.3896586"><ele>150.0</ele><time>2026-05-04T11:42:05.549Z</time></trkpt><trkpt lat="41.4758178" lon="0.389793"><ele>150.0</ele><time>2026-05-04T11:42:06.55Z</time></trkpt><trkpt lat="41.4757351" lon="0.3899201"><ele>150.0</ele><time>2026-05-04T11:42:07.549Z</time></trkpt><trkpt lat="41.4756525" lon="0.3900529"><ele>149.5</ele><time>2026-05-04T11:42:08.543Z</time></trkpt><trkpt lat="41.475572" lon="0.3901896"><ele>149.0</ele><time>2026-05-04T11:42:09.55Z</time></trkpt><trkpt lat="41.4754827" lon="0.3903323"><ele>148.5</ele><time>2026-05-04T11:42:10.55Z</time></trkpt><trkpt lat="41.4753902" lon="0.3904744"><ele>148.0</ele><time>2026-05-04T11:42:11.551Z</time></trkpt><trkpt lat="41.4753006" lon="0.3906221"><ele>146.0</ele><time>2026-05-04T11:42:12.552Z</time></trkpt><trkpt lat="41.4752119" lon="0.390758"><ele>144.0</ele><time>2026-05-04T11:42:13.552Z</time></trkpt><trkpt lat="41.4751214" lon="0.3908969"><ele>142.0</ele><time>2026-05-04T11:42:14.547Z</time></trkpt><trkpt lat="41.475032" lon="0.3910444"><ele>140.0</ele><time>2026-05-04T11:42:15.546Z</time></trkpt><trkpt lat="41.4749399" lon="0.3911896"><ele>140.0</ele><time>2026-05-04T11:42:16.559Z</time></trkpt><trkpt lat="41.4748457" lon="0.3913347"><ele>140.0</ele><time>2026-05-04T11:42:17.547Z</time></trkpt><trkpt lat="41.4747567" lon="0.3914846"><ele>140.0</ele><time>2026-05-04T11:42:18.552Z</time></trkpt><trkpt lat="41.4746671" lon="0.3916346"><ele>140.0</ele><time>2026-05-04T11:42:19.547Z</time></trkpt><trkpt lat="41.4745677" lon="0.3917838"><ele>140.0</ele><time>2026-05-04T11:42:20.55Z</time></trkpt><trkpt lat="41.4744799" lon="0.3919259"><ele>140.0</ele><time>2026-05-04T11:42:21.554Z</time></trkpt><trkpt lat="41.4743912" lon="0.3920688"><ele>140.0</ele><time>2026-05-04T11:42:22.559Z</time></trkpt><trkpt lat="41.4743037" lon="0.3922103"><ele>140.0</ele><time>2026-05-04T11:42:23.549Z</time></trkpt><trkpt lat="41.4742196" lon="0.3923531"><ele>139.5</ele><time>2026-05-04T11:42:24.544Z</time></trkpt><trkpt lat="41.4741288" lon="0.3925011"><ele>139.0</ele><time>2026-05-04T11:42:25.551Z</time></trkpt><trkpt lat="41.4740338" lon="0.3926404"><ele>138.5</ele><time>2026-05-04T11:42:26.551Z</time></trkpt><trkpt lat="41.4739487" lon="0.3927954"><ele>138.0</ele><time>2026-05-04T11:42:27.557Z</time></trkpt><trkpt lat="41.4738588" lon="0.3929442"><ele>137.5</ele><time>2026-05-04T11:42:28.553Z</time></trkpt><trkpt lat="41.4737696" lon="0.3930884"><ele>137.0</ele><time>2026-05-04T11:42:29.552Z</time></trkpt><trkpt lat="41.4736805" lon="0.3932295"><ele>136.5</ele><time>2026-05-04T11:42:30.555Z</time></trkpt><trkpt lat="41.4735893" lon="0.3933798"><ele>136.0</ele><time>2026-05-04T11:42:31.552Z</time></trkpt><trkpt lat="41.4734921" lon="0.3935297"><ele>136.0</ele><time>2026-05-04T11:42:32.555Z</time></trkpt><trkpt lat="41.4733947" lon="0.3936791"><ele>136.0</ele><time>2026-05-04T11:42:33.555Z</time></trkpt><trkpt lat="41.4732891" lon="0.3938407"><ele>136.0</ele><time>2026-05-04T11:42:34.554Z</time></trkpt><trkpt lat="41.4732036" lon="0.3939887"><ele>136.0</ele><time>2026-05-04T11:42:35.546Z</time></trkpt><trkpt lat="41.4731146" lon="0.3941332"><ele>135.75</ele><time>2026-05-04T11:42:36.545Z</time></trkpt><trkpt lat="41.473014" lon="0.394291"><ele>135.5</ele><time>2026-05-04T11:42:37.548Z</time></trkpt><trkpt lat="41.4729233" lon="0.3944328"><ele>135.25</ele><time>2026-05-04T11:42:38.55Z</time></trkpt><trkpt lat="41.4728333" lon="0.3945761"><ele>135.0</ele><time>2026-05-04T11:42:39.546Z</time></trkpt><trkpt lat="41.4727442" lon="0.3947206"><ele>133.33333333333334</ele><time>2026-05-04T11:42:40.551Z</time></trkpt><trkpt lat="41.4726564" lon="0.394866"><ele>131.66666666666669</ele><time>2026-05-04T11:42:41.554Z</time></trkpt><trkpt lat="41.4725668" lon="0.3950001"><ele>130.0</ele><time>2026-05-04T11:42:42.558Z</time></trkpt><trkpt lat="41.4723962" lon="0.3952628"><ele>130.0</ele><time>2026-05-04T11:42:44.555Z</time></trkpt><trkpt lat="41.4723069" lon="0.3953878"><ele>130.0</ele><time>2026-05-04T11:42:45.554Z</time></trkpt><trkpt lat="41.4722152" lon="0.3955407"><ele>130.0</ele><time>2026-05-04T11:42:46.553Z</time></trkpt><trkpt lat="41.4721289" lon="0.395687"><ele>130.0</ele><time>2026-05-04T11:42:47.558Z</time></trkpt><trkpt lat="41.4720373" lon="0.3958323"><ele>130.0</ele><time>2026-05-04T11:42:48.558Z</time></trkpt><trkpt lat="41.47195" lon="0.3959727"><ele>130.0</ele><time>2026-05-04T11:42:49.555Z</time></trkpt><trkpt lat="41.4718595" lon="0.3961203"><ele>130.0</ele><time>2026-05-04T11:42:50.558Z</time></trkpt><trkpt lat="41.4717698" lon="0.3962675"><ele>130.0</ele><time>2026-05-04T11:42:51.558Z</time></trkpt><trkpt lat="41.4716842" lon="0.3964056"><ele>130.0</ele><time>2026-05-04T11:42:52.555Z</time></trkpt><trkpt lat="41.471592" lon="0.3965377"><ele>130.0</ele><time>2026-05-04T11:42:53.555Z</time></trkpt><trkpt lat="41.4715043" lon="0.3966805"><ele>130.0</ele><time>2026-05-04T11:42:54.555Z</time></trkpt><trkpt lat="41.4714224" lon="0.3968192"><ele>130.0</ele><time>2026-05-04T11:42:55.556Z</time></trkpt><trkpt lat="41.4713307" lon="0.3969638"><ele>130.25</ele><time>2026-05-04T11:42:56.557Z</time></trkpt><trkpt lat="41.4712452" lon="0.3970963"><ele>130.5</ele><time>2026-05-04T11:42:57.563Z</time></trkpt><trkpt lat="41.4711616" lon="0.3972325"><ele>130.75</ele><time>2026-05-04T11:42:58.555Z</time></trkpt><trkpt lat="41.4710717" lon="0.3973753"><ele>131.0</ele><time>2026-05-04T11:42:59.551Z</time></trkpt><trkpt lat="41.4709838" lon="0.3975102"><ele>130.0</ele><time>2026-05-04T11:43:00.558Z</time></trkpt><trkpt lat="41.4708921" lon="0.3976692"><ele>129.0</ele><time>2026-05-04T11:43:01.555Z</time></trkpt><trkpt lat="41.4707957" lon="0.3978242"><ele>128.0</ele><time>2026-05-04T11:43:02.557Z</time></trkpt><trkpt lat="41.4706951" lon="0.3979768"><ele>128.0</ele><time>2026-05-04T11:43:03.556Z</time></trkpt><trkpt lat="41.4705927" lon="0.3981375"><ele>128.0</ele><time>2026-05-04T11:43:04.558Z</time></trkpt><trkpt lat="41.4704957" lon="0.3982993"><ele>128.0</ele><time>2026-05-04T11:43:05.559Z</time></trkpt><trkpt lat="41.4704002" lon="0.3984606"><ele>128.0</ele><time>2026-05-04T11:43:06.557Z</time></trkpt><trkpt lat="41.4703008" lon="0.3986228"><ele>128.0</ele><time>2026-05-04T11:43:07.562Z</time></trkpt><trkpt lat="41.4701981" lon="0.3987833"><ele>128.0</ele><time>2026-05-04T11:43:08.559Z</time></trkpt><trkpt lat="41.4701023" lon="0.3989433"><ele>128.0</ele><time>2026-05-04T11:43:09.559Z</time></trkpt><trkpt lat="41.4700063" lon="0.3990984"><ele>128.0</ele><time>2026-05-04T11:43:10.561Z</time></trkpt><trkpt lat="41.4699088" lon="0.3992507"><ele>128.0</ele><time>2026-05-04T11:43:11.563Z</time></trkpt><trkpt lat="41.4698111" lon="0.399396"><ele>128.0</ele><time>2026-05-04T11:43:12.56Z</time></trkpt><trkpt lat="41.4697158" lon="0.3995313"><ele>128.0</ele><time>2026-05-04T11:43:13.563Z</time></trkpt><trkpt lat="41.4696165" lon="0.3996646"><ele>128.0</ele><time>2026-05-04T11:43:14.564Z</time></trkpt><trkpt lat="41.469519" lon="0.3997884"><ele>128.0</ele><time>2026-05-04T11:43:15.563Z</time></trkpt><trkpt lat="41.469419" lon="0.3999225"><ele>128.0</ele><time>2026-05-04T11:43:16.554Z</time></trkpt><trkpt lat="41.469316" lon="0.4000549"><ele>128.25</ele><time>2026-05-04T11:43:17.556Z</time></trkpt><trkpt lat="41.4692145" lon="0.4001809"><ele>128.5</ele><time>2026-05-04T11:43:18.556Z</time></trkpt><trkpt lat="41.4691169" lon="0.4003159"><ele>128.75</ele><time>2026-05-04T11:43:19.543Z</time></trkpt><trkpt lat="41.4690287" lon="0.4004498"><ele>129.0</ele><time>2026-05-04T11:43:20.556Z</time></trkpt><trkpt lat="41.4689356" lon="0.4005814"><ele>129.0</ele><time>2026-05-04T11:43:21.552Z</time></trkpt><trkpt lat="41.4688362" lon="0.4007115"><ele>129.0</ele><time>2026-05-04T11:43:22.558Z</time></trkpt><trkpt lat="41.4687365" lon="0.4008411"><ele>129.0</ele><time>2026-05-04T11:43:23.555Z</time></trkpt><trkpt lat="41.4686423" lon="0.4009628"><ele>129.0</ele><time>2026-05-04T11:43:24.557Z</time></trkpt><trkpt lat="41.4685442" lon="0.4010965"><ele>129.25</ele><time>2026-05-04T11:43:25.557Z</time></trkpt><trkpt lat="41.4684536" lon="0.4012264"><ele>129.5</ele><time>2026-05-04T11:43:26.554Z</time></trkpt><trkpt lat="41.4683583" lon="0.4013641"><ele>129.75</ele><time>2026-05-04T11:43:27.558Z</time></trkpt><trkpt lat="41.4682639" lon="0.4014839"><ele>130.0</ele><time>2026-05-04T11:43:28.56Z</time></trkpt><trkpt lat="41.4681728" lon="0.4016145"><ele>130.0</ele><time>2026-05-04T11:43:29.558Z</time></trkpt><trkpt lat="41.4680792" lon="0.4017435"><ele>130.0</ele><time>2026-05-04T11:43:30.562Z</time></trkpt><trkpt lat="41.4679827" lon="0.4018797"><ele>130.0</ele><time>2026-05-04T11:43:31.557Z</time></trkpt><trkpt lat="41.4678858" lon="0.4019939"><ele>130.0</ele><time>2026-05-04T11:43:32.558Z</time></trkpt><trkpt lat="41.4677933" lon="0.4021265"><ele>130.25</ele><time>2026-05-04T11:43:33.559Z</time></trkpt><trkpt lat="41.4676932" lon="0.402259"><ele>130.5</ele><time>2026-05-04T11:43:34.562Z</time></trkpt><trkpt lat="41.4676022" lon="0.402388"><ele>130.75</ele><time>2026-05-04T11:43:35.559Z</time></trkpt><trkpt lat="41.4675108" lon="0.4025112"><ele>131.0</ele><time>2026-05-04T11:43:36.555Z</time></trkpt><trkpt lat="41.4674208" lon="0.4026355"><ele>131.0</ele><time>2026-05-04T11:43:37.553Z</time></trkpt><trkpt lat="41.4673392" lon="0.4027547"><ele>131.0</ele><time>2026-05-04T11:43:38.556Z</time></trkpt><trkpt lat="41.467242" lon="0.4028753"><ele>131.0</ele><time>2026-05-04T11:43:39.558Z</time></trkpt><trkpt lat="41.4671588" lon="0.4029713"><ele>131.0</ele><time>2026-05-04T11:43:40.542Z</time></trkpt><trkpt lat="41.4670615" lon="0.4030866"><ele>129.5</ele><time>2026-05-04T11:43:41.545Z</time></trkpt><trkpt lat="41.4669544" lon="0.4031978"><ele>128.0</ele><time>2026-05-04T11:43:42.543Z</time></trkpt><trkpt lat="41.466834" lon="0.4032931"><ele>126.5</ele><time>2026-05-04T11:43:43.545Z</time></trkpt><trkpt lat="41.4667164" lon="0.4033642"><ele>125.0</ele><time>2026-05-04T11:43:44.55Z</time></trkpt><trkpt lat="41.4665923" lon="0.4034272"><ele>125.0</ele><time>2026-05-04T11:43:45.546Z</time></trkpt><trkpt lat="41.4664593" lon="0.4034693"><ele>125.0</ele><time>2026-05-04T11:43:46.548Z</time></trkpt><trkpt lat="41.4663209" lon="0.4034834"><ele>125.0</ele><time>2026-05-04T11:43:47.546Z</time></trkpt><trkpt lat="41.466179" lon="0.4034925"><ele>125.0</ele><time>2026-05-04T11:43:48.547Z</time></trkpt><trkpt lat="41.4660349" lon="0.4034821"><ele>124.75</ele><time>2026-05-04T11:43:49.545Z</time></trkpt><trkpt lat="41.465902" lon="0.4034776"><ele>124.5</ele><time>2026-05-04T11:43:50.545Z</time></trkpt><trkpt lat="41.4657631" lon="0.4034964"><ele>124.25</ele><time>2026-05-04T11:43:51.541Z</time></trkpt><trkpt lat="41.4656191" lon="0.4035171"><ele>124.0</ele><time>2026-05-04T11:43:52.541Z</time></trkpt><trkpt lat="41.4654841" lon="0.4035599"><ele>123.25</ele><time>2026-05-04T11:43:53.543Z</time></trkpt><trkpt lat="41.4653512" lon="0.4036217"><ele>122.5</ele><time>2026-05-04T11:43:54.543Z</time></trkpt><trkpt lat="41.4652219" lon="0.4036966"><ele>121.75</ele><time>2026-05-04T11:43:55.541Z</time></trkpt><trkpt lat="41.4651036" lon="0.4037909"><ele>121.0</ele><time>2026-05-04T11:43:56.54Z</time></trkpt><trkpt lat="41.4649903" lon="0.4038961"><ele>119.5</ele><time>2026-05-04T11:43:57.548Z</time></trkpt><trkpt lat="41.4648907" lon="0.4040126"><ele>118.0</ele><time>2026-05-04T11:43:58.545Z</time></trkpt><trkpt lat="41.4647899" lon="0.4041263"><ele>116.5</ele><time>2026-05-04T11:43:59.547Z</time></trkpt><trkpt lat="41.4646983" lon="0.4042247"><ele>115.0</ele><time>2026-05-04T11:44:00.549Z</time></trkpt><trkpt lat="41.4645936" lon="0.404323"><ele>114.25</ele><time>2026-05-04T11:44:01.542Z</time></trkpt><trkpt lat="41.4644871" lon="0.4044234"><ele>113.5</ele><time>2026-05-04T11:44:02.544Z</time></trkpt><trkpt lat="41.4643818" lon="0.404505"><ele>112.75</ele><time>2026-05-04T11:44:03.542Z</time></trkpt><trkpt lat="41.4642779" lon="0.4046043"><ele>112.0</ele><time>2026-05-04T11:44:04.546Z</time></trkpt><trkpt lat="41.4641718" lon="0.4047022"><ele>112.0</ele><time>2026-05-04T11:44:05.542Z</time></trkpt><trkpt lat="41.4640801" lon="0.4048022"><ele>111.99999999999999</ele><time>2026-05-04T11:44:06.545Z</time></trkpt><trkpt lat="41.4639916" lon="0.4048977"><ele>111.99999999999999</ele><time>2026-05-04T11:44:07.542Z</time></trkpt><trkpt lat="41.4639026" lon="0.4049841"><ele>112.0</ele><time>2026-05-04T11:44:08.542Z</time></trkpt><trkpt lat="41.4638203" lon="0.4050595"><ele>112.0</ele><time>2026-05-04T11:44:09.547Z</time></trkpt><trkpt lat="41.4637384" lon="0.4051308"><ele>111.39999999999999</ele><time>2026-05-04T11:44:10.54Z</time></trkpt><trkpt lat="41.4636576" lon="0.4052093"><ele>110.79999999999998</ele><time>2026-05-04T11:44:11.539Z</time></trkpt><trkpt lat="41.4635851" lon="0.4052734"><ele>110.2</ele><time>2026-05-04T11:44:12.543Z</time></trkpt><trkpt lat="41.4635046" lon="0.4053388"><ele>109.6</ele><time>2026-05-04T11:44:13.549Z</time></trkpt><trkpt lat="41.4634262" lon="0.4053767"><ele>109.0</ele><time>2026-05-04T11:44:14.542Z</time></trkpt><trkpt lat="41.4633405" lon="0.4053792"><ele>109.00000000000001</ele><time>2026-05-04T11:44:15.547Z</time></trkpt><trkpt lat="41.4632624" lon="0.4053845"><ele>109.0</ele><time>2026-05-04T11:44:16.546Z</time></trkpt><trkpt lat="41.4631935" lon="0.405426"><ele>109.0</ele><time>2026-05-04T11:44:17.543Z</time></trkpt><trkpt lat="41.4631424" lon="0.4054995"><ele>109.0</ele><time>2026-05-04T11:44:18.544Z</time></trkpt><trkpt lat="41.4631182" lon="0.4055862"><ele>109.00000000000001</ele><time>2026-05-04T11:44:19.545Z</time></trkpt><trkpt lat="41.4630995" lon="0.4056797"><ele>109.0</ele><time>2026-05-04T11:44:20.551Z</time></trkpt><trkpt lat="41.4630517" lon="0.4057692"><ele>109.4</ele><time>2026-05-04T11:44:21.543Z</time></trkpt><trkpt lat="41.4629993" lon="0.4058402"><ele>109.80000000000001</ele><time>2026-05-04T11:44:22.551Z</time></trkpt><trkpt lat="41.4629307" lon="0.4059144"><ele>110.19999999999999</ele><time>2026-05-04T11:44:23.542Z</time></trkpt><trkpt lat="41.4628527" lon="0.4059924"><ele>110.6</ele><time>2026-05-04T11:44:24.541Z</time></trkpt><trkpt lat="41.4627627" lon="0.4060784"><ele>111.0</ele><time>2026-05-04T11:44:25.545Z</time></trkpt><trkpt lat="41.4626689" lon="0.4061588"><ele>109.75</ele><time>2026-05-04T11:44:26.547Z</time></trkpt><trkpt lat="41.4625744" lon="0.4062402"><ele>108.5</ele><time>2026-05-04T11:44:27.552Z</time></trkpt><trkpt lat="41.4624754" lon="0.4063247"><ele>107.25</ele><time>2026-05-04T11:44:28.551Z</time></trkpt><trkpt lat="41.4623724" lon="0.4064092"><ele>106.0</ele><time>2026-05-04T11:44:29.552Z</time></trkpt><trkpt lat="41.4622685" lon="0.4064982"><ele>105.0</ele><time>2026-05-04T11:44:30.547Z</time></trkpt><trkpt lat="41.4621718" lon="0.4065873"><ele>104.0</ele><time>2026-05-04T11:44:31.538Z</time></trkpt><trkpt lat="41.4620678" lon="0.4066744"><ele>103.0</ele><time>2026-05-04T11:44:32.542Z</time></trkpt><trkpt lat="41.461961" lon="0.4067792"><ele>102.0</ele><time>2026-05-04T11:44:33.536Z</time></trkpt><trkpt lat="41.4618459" lon="0.4068917"><ele>101.5</ele><time>2026-05-04T11:44:34.547Z</time></trkpt><trkpt lat="41.4617317" lon="0.407002"><ele>101.0</ele><time>2026-05-04T11:44:35.544Z</time></trkpt><trkpt lat="41.4616224" lon="0.4071007"><ele>100.5</ele><time>2026-05-04T11:44:36.554Z</time></trkpt><trkpt lat="41.4615124" lon="0.4072024"><ele>100.0</ele><time>2026-05-04T11:44:37.549Z</time></trkpt><trkpt lat="41.461406" lon="0.4073058"><ele>99.8</ele><time>2026-05-04T11:44:38.544Z</time></trkpt><trkpt lat="41.4613002" lon="0.4073986"><ele>99.6</ele><time>2026-05-04T11:44:39.548Z</time></trkpt><trkpt lat="41.4612064" lon="0.4074836"><ele>99.4</ele><time>2026-05-04T11:44:40.546Z</time></trkpt><trkpt lat="41.4611156" lon="0.4075593"><ele>99.2</ele><time>2026-05-04T11:44:41.545Z</time></trkpt><trkpt lat="41.4610357" lon="0.4076239"><ele>99.0</ele><time>2026-05-04T11:44:42.54Z</time></trkpt><trkpt lat="41.4609658" lon="0.4076787"><ele>99.0</ele><time>2026-05-04T11:44:43.549Z</time></trkpt><trkpt lat="41.4609018" lon="0.4077218"><ele>99.0</ele><time>2026-05-04T11:44:44.552Z</time></trkpt><trkpt lat="41.4607826" lon="0.4077382"><ele>99.0</ele><time>2026-05-04T11:44:46.55Z</time></trkpt><trkpt lat="41.4606681" lon="0.4077396"><ele>99.0</ele><time>2026-05-04T11:44:48.554Z</time></trkpt><trkpt lat="41.4605937" lon="0.4078372"><ele>99.0</ele><time>2026-05-04T11:44:50.553Z</time></trkpt><trkpt lat="41.4606011" lon="0.4079839"><ele>99.0</ele><time>2026-05-04T11:44:52.559Z</time></trkpt><trkpt lat="41.4606485" lon="0.4080397"><ele>99.0</ele><time>2026-05-04T11:44:53.549Z</time></trkpt><trkpt lat="41.4607132" lon="0.4080767"><ele>99.0</ele><time>2026-05-04T11:44:54.548Z</time></trkpt><trkpt lat="41.4607855" lon="0.4080971"><ele>99.0</ele><time>2026-05-04T11:44:55.552Z</time></trkpt><trkpt lat="41.4608529" lon="0.4081093"><ele>99.0</ele><time>2026-05-04T11:44:56.55Z</time></trkpt><trkpt lat="41.4609181" lon="0.4081338"><ele>99.0</ele><time>2026-05-04T11:44:57.555Z</time></trkpt><trkpt lat="41.4609759" lon="0.4081712"><ele>99.0</ele><time>2026-05-04T11:44:58.555Z</time></trkpt><trkpt lat="41.4610321" lon="0.4082132"><ele>99.0</ele><time>2026-05-04T11:44:59.546Z</time></trkpt><trkpt lat="41.4610836" lon="0.4082646"><ele>99.0</ele><time>2026-05-04T11:45:00.549Z</time></trkpt><trkpt lat="41.4611307" lon="0.4083232"><ele>99.0</ele><time>2026-05-04T11:45:01.535Z</time></trkpt><trkpt lat="41.4611853" lon="0.4083831"><ele>99.0</ele><time>2026-05-04T11:45:02.547Z</time></trkpt><trkpt lat="41.4612385" lon="0.4084416"><ele>99.0</ele><time>2026-05-04T11:45:03.544Z</time></trkpt><trkpt lat="41.4612989" lon="0.4084899"><ele>99.0</ele><time>2026-05-04T11:45:04.539Z</time></trkpt><trkpt lat="41.4613638" lon="0.4085416"><ele>99.0</ele><time>2026-05-04T11:45:05.535Z</time></trkpt><trkpt lat="41.4614307" lon="0.4086039"><ele>99.80000000000001</ele><time>2026-05-04T11:45:06.54Z</time></trkpt><trkpt lat="41.4614829" lon="0.4086601"><ele>100.60000000000001</ele><time>2026-05-04T11:45:07.533Z</time></trkpt><trkpt lat="41.4615332" lon="0.408715"><ele>101.4</ele><time>2026-05-04T11:45:08.521Z</time></trkpt><trkpt lat="41.4616205" lon="0.4088186"><ele>102.2</ele><time>2026-05-04T11:45:10.516Z</time></trkpt><trkpt lat="41.4617068" lon="0.4089392"><ele>103.0</ele><time>2026-05-04T11:45:12.524Z</time></trkpt><trkpt lat="41.4617808" lon="0.4090466"><ele>103.50000000000001</ele><time>2026-05-04T11:45:14.528Z</time></trkpt><trkpt lat="41.4618545" lon="0.4091488"><ele>104.0</ele><time>2026-05-04T11:45:16.532Z</time></trkpt><trkpt lat="41.4619334" lon="0.4092684"><ele>104.5</ele><time>2026-05-04T11:45:18.53Z</time></trkpt><trkpt lat="41.4619793" lon="0.4093308"><ele>105.0</ele><time>2026-05-04T11:45:19.532Z</time></trkpt><trkpt lat="41.4620269" lon="0.4093975"><ele>105.50000000000001</ele><time>2026-05-04T11:45:20.54Z</time></trkpt><trkpt lat="41.4620798" lon="0.4094547"><ele>106.0</ele><time>2026-05-04T11:45:21.536Z</time></trkpt><trkpt lat="41.4621301" lon="0.4095132"><ele>106.00000000000001</ele><time>2026-05-04T11:45:22.526Z</time></trkpt><trkpt lat="41.4621767" lon="0.4095759"><ele>106.0</ele><time>2026-05-04T11:45:23.527Z</time></trkpt><trkpt lat="41.462228" lon="0.4096446"><ele>106.0</ele><time>2026-05-04T11:45:24.53Z</time></trkpt><trkpt lat="41.4622677" lon="0.4097153"><ele>106.0</ele><time>2026-05-04T11:45:25.532Z</time></trkpt><trkpt lat="41.4623092" lon="0.409789"><ele>106.00000000000001</ele><time>2026-05-04T11:45:26.531Z</time></trkpt><trkpt lat="41.4623836" lon="0.4099176"><ele>106.0</ele><time>2026-05-04T11:45:28.535Z</time></trkpt><trkpt lat="41.4624197" lon="0.4099928"><ele>106.00000000000001</ele><time>2026-05-04T11:45:29.531Z</time></trkpt><trkpt lat="41.4624889" lon="0.41012"><ele>106.0</ele><time>2026-05-04T11:45:31.538Z</time></trkpt><trkpt lat="41.4625202" lon="0.4101946"><ele>106.0</ele><time>2026-05-04T11:45:32.535Z</time></trkpt><trkpt lat="41.4625705" lon="0.4103343"><ele>106.0</ele><time>2026-05-04T11:45:34.538Z</time></trkpt><trkpt lat="41.4626197" lon="0.4104124"><ele>106.00000000000001</ele><time>2026-05-04T11:45:36.534Z</time></trkpt><trkpt lat="41.4626598" lon="0.410489"><ele>106.0</ele><time>2026-05-04T11:45:38.542Z</time></trkpt><trkpt lat="41.462694" lon="0.410572"><ele>106.00000000000001</ele><time>2026-05-04T11:45:40.535Z</time></trkpt><trkpt lat="41.4627339" lon="0.4106903"><ele>106.0</ele><time>2026-05-04T11:45:43.533Z</time></trkpt><trkpt lat="41.4627752" lon="0.4107597"><ele>106.0</ele><time>2026-05-04T11:45:45.535Z</time></trkpt><trkpt lat="41.462826" lon="0.4108105"><ele>106.0</ele><time>2026-05-04T11:45:47.528Z</time></trkpt><trkpt lat="41.4628886" lon="0.4108827"><ele>106.00000000000001</ele><time>2026-05-04T11:45:49.536Z</time></trkpt><trkpt lat="41.4629742" lon="0.4109483"><ele>106.0</ele><time>2026-05-04T11:45:51.53Z</time></trkpt><trkpt lat="41.4630322" lon="0.4109909"><ele>106.0</ele><time>2026-05-04T11:45:52.526Z</time></trkpt><trkpt lat="41.4630923" lon="0.4110239"><ele>106.0</ele><time>2026-05-04T11:45:53.526Z</time></trkpt><trkpt lat="41.4631555" lon="0.41107"><ele>106.0</ele><time>2026-05-04T11:45:54.529Z</time></trkpt><trkpt lat="41.4632287" lon="0.4111235"><ele>106.0</ele><time>2026-05-04T11:45:55.522Z</time></trkpt><trkpt lat="41.4632897" lon="0.4111713"><ele>106.0</ele><time>2026-05-04T11:45:56.529Z</time></trkpt><trkpt lat="41.4633473" lon="0.4112161"><ele>106.0</ele><time>2026-05-04T11:45:57.541Z</time></trkpt><trkpt lat="41.4634074" lon="0.4112596"><ele>106.0</ele><time>2026-05-04T11:45:58.538Z</time></trkpt><trkpt lat="41.4635017" lon="0.4113497"><ele>105.71428571428572</ele><time>2026-05-04T11:46:00.537Z</time></trkpt><trkpt lat="41.46356" lon="0.4113994"><ele>105.42857142857142</ele><time>2026-05-04T11:46:01.528Z</time></trkpt><trkpt lat="41.4636156" lon="0.4114598"><ele>105.14285714285714</ele><time>2026-05-04T11:46:02.537Z</time></trkpt><trkpt lat="41.4636657" lon="0.4115219"><ele>104.85714285714286</ele><time>2026-05-04T11:46:03.533Z</time></trkpt><trkpt lat="41.4637146" lon="0.4115875"><ele>104.57142857142858</ele><time>2026-05-04T11:46:04.543Z</time></trkpt><trkpt lat="41.4637622" lon="0.4116548"><ele>104.28571428571428</ele><time>2026-05-04T11:46:05.528Z</time></trkpt><trkpt lat="41.4638106" lon="0.4117324"><ele>104.0</ele><time>2026-05-04T11:46:06.531Z</time></trkpt><trkpt lat="41.463857" lon="0.4118088"><ele>103.85714285714285</ele><time>2026-05-04T11:46:07.529Z</time></trkpt><trkpt lat="41.4638989" lon="0.4118833"><ele>103.71428571428572</ele><time>2026-05-04T11:46:08.526Z</time></trkpt><trkpt lat="41.4639441" lon="0.4119517"><ele>103.57142857142857</ele><time>2026-05-04T11:46:09.532Z</time></trkpt><trkpt lat="41.4639959" lon="0.4120205"><ele>103.42857142857142</ele><time>2026-05-04T11:46:10.536Z</time></trkpt><trkpt lat="41.4640514" lon="0.4120801"><ele>103.28571428571428</ele><time>2026-05-04T11:46:11.536Z</time></trkpt><trkpt lat="41.4641026" lon="0.4121469"><ele>103.14285714285714</ele><time>2026-05-04T11:46:12.539Z</time></trkpt><trkpt lat="41.4641565" lon="0.4122207"><ele>103.0</ele><time>2026-05-04T11:46:13.544Z</time></trkpt><trkpt lat="41.4642196" lon="0.4122879"><ele>103.00000000000001</ele><time>2026-05-04T11:46:14.539Z</time></trkpt><trkpt lat="41.4642886" lon="0.4123366"><ele>103.0</ele><time>2026-05-04T11:46:15.534Z</time></trkpt><trkpt lat="41.464359" lon="0.4123758"><ele>103.0</ele><time>2026-05-04T11:46:16.536Z</time></trkpt><trkpt lat="41.4644342" lon="0.4124163"><ele>103.0</ele><time>2026-05-04T11:46:17.536Z</time></trkpt><trkpt lat="41.464508" lon="0.4124575"><ele>103.00000000000001</ele><time>2026-05-04T11:46:18.537Z</time></trkpt><trkpt lat="41.4645682" lon="0.412519"><ele>103.0</ele><time>2026-05-04T11:46:19.535Z</time></trkpt><trkpt lat="41.464625" lon="0.412584"><ele>102.99999999999999</ele><time>2026-05-04T11:46:20.534Z</time></trkpt><trkpt lat="41.464674" lon="0.4126476"><ele>103.0</ele><time>2026-05-04T11:46:21.53Z</time></trkpt><trkpt lat="41.4647155" lon="0.4127136"><ele>103.0</ele><time>2026-05-04T11:46:22.533Z</time></trkpt><trkpt lat="41.4647631" lon="0.4127795"><ele>103.0</ele><time>2026-05-04T11:46:23.53Z</time></trkpt><trkpt lat="41.464809" lon="0.412848"><ele>103.0</ele><time>2026-05-04T11:46:24.531Z</time></trkpt><trkpt lat="41.4648587" lon="0.4129189"><ele>102.99999999999999</ele><time>2026-05-04T11:46:25.537Z</time></trkpt><trkpt lat="41.4649106" lon="0.4129858"><ele>103.0</ele><time>2026-05-04T11:46:26.54Z</time></trkpt><trkpt lat="41.4649605" lon="0.413044"><ele>103.0</ele><time>2026-05-04T11:46:27.55Z</time></trkpt><trkpt lat="41.4650088" lon="0.4131002"><ele>103.0</ele><time>2026-05-04T11:46:28.542Z</time></trkpt><trkpt lat="41.4650947" lon="0.4132201"><ele>103.0</ele><time>2026-05-04T11:46:30.546Z</time></trkpt><trkpt lat="41.4651768" lon="0.4133478"><ele>103.0</ele><time>2026-05-04T11:46:32.538Z</time></trkpt><trkpt lat="41.4652526" lon="0.4134766"><ele>103.0</ele><time>2026-05-04T11:46:34.539Z</time></trkpt><trkpt lat="41.4653251" lon="0.4135977"><ele>103.0</ele><time>2026-05-04T11:46:36.538Z</time></trkpt><trkpt lat="41.4654003" lon="0.4137048"><ele>103.0</ele><time>2026-05-04T11:46:38.533Z</time></trkpt><trkpt lat="41.4654787" lon="0.4138113"><ele>103.0</ele><time>2026-05-04T11:46:40.531Z</time></trkpt><trkpt lat="41.4655593" lon="0.4139288"><ele>103.0</ele><time>2026-05-04T11:46:42.538Z</time></trkpt><trkpt lat="41.4656327" lon="0.4140506"><ele>103.0</ele><time>2026-05-04T11:46:44.542Z</time></trkpt><trkpt lat="41.4657099" lon="0.4141447"><ele>103.0</ele><time>2026-05-04T11:46:46.544Z</time></trkpt><trkpt lat="41.4657716" lon="0.4142349"><ele>103.0</ele><time>2026-05-04T11:46:48.536Z</time></trkpt><trkpt lat="41.4658272" lon="0.4143524"><ele>103.0</ele><time>2026-05-04T11:46:50.533Z</time></trkpt><trkpt lat="41.465869" lon="0.4144271"><ele>103.0</ele><time>2026-05-04T11:46:51.536Z</time></trkpt><trkpt lat="41.4659285" lon="0.4145096"><ele>102.75</ele><time>2026-05-04T11:46:52.546Z</time></trkpt><trkpt lat="41.4660543" lon="0.4147009"><ele>102.5</ele><time>2026-05-04T11:46:54.546Z</time></trkpt><trkpt lat="41.466119" lon="0.4148044"><ele>102.25</ele><time>2026-05-04T11:46:55.548Z</time></trkpt><trkpt lat="41.4661859" lon="0.4149144"><ele>102.0</ele><time>2026-05-04T11:46:56.541Z</time></trkpt><trkpt lat="41.4662631" lon="0.4150159"><ele>102.39999999999999</ele><time>2026-05-04T11:46:57.546Z</time></trkpt><trkpt lat="41.4663335" lon="0.4151249"><ele>102.8</ele><time>2026-05-04T11:46:58.542Z</time></trkpt><trkpt lat="41.4664022" lon="0.4152408"><ele>103.2</ele><time>2026-05-04T11:46:59.544Z</time></trkpt><trkpt lat="41.4664705" lon="0.4153565"><ele>103.6</ele><time>2026-05-04T11:47:00.546Z</time></trkpt><trkpt lat="41.4665457" lon="0.4154693"><ele>104.0</ele><time>2026-05-04T11:47:01.539Z</time></trkpt><trkpt lat="41.4666199" lon="0.415588"><ele>104.25</ele><time>2026-05-04T11:47:02.544Z</time></trkpt><trkpt lat="41.4666943" lon="0.4157117"><ele>104.5</ele><time>2026-05-04T11:47:03.543Z</time></trkpt><trkpt lat="41.4667665" lon="0.4158399"><ele>104.75</ele><time>2026-05-04T11:47:04.542Z</time></trkpt><trkpt lat="41.4668426" lon="0.4159582"><ele>105.0</ele><time>2026-05-04T11:47:05.543Z</time></trkpt><trkpt lat="41.4669234" lon="0.4160796"><ele>105.0</ele><time>2026-05-04T11:47:06.545Z</time></trkpt><trkpt lat="41.4670101" lon="0.4162087"><ele>105.0</ele><time>2026-05-04T11:47:07.546Z</time></trkpt><trkpt lat="41.4670947" lon="0.4163304"><ele>105.0</ele><time>2026-05-04T11:47:08.545Z</time></trkpt><trkpt lat="41.4671725" lon="0.4164556"><ele>105.0</ele><time>2026-05-04T11:47:09.546Z</time></trkpt><trkpt lat="41.4672505" lon="0.4165985"><ele>105.0</ele><time>2026-05-04T11:47:10.55Z</time></trkpt><trkpt lat="41.467326" lon="0.4167518"><ele>105.0</ele><time>2026-05-04T11:47:11.545Z</time></trkpt><trkpt lat="41.4674005" lon="0.4169136"><ele>105.0</ele><time>2026-05-04T11:47:12.549Z</time></trkpt><trkpt lat="41.4674744" lon="0.4170921"><ele>105.0</ele><time>2026-05-04T11:47:13.551Z</time></trkpt><trkpt lat="41.4675396" lon="0.4172699"><ele>104.0</ele><time>2026-05-04T11:47:14.55Z</time></trkpt><trkpt lat="41.4676038" lon="0.4174431"><ele>103.0</ele><time>2026-05-04T11:47:15.554Z</time></trkpt><trkpt lat="41.4676682" lon="0.417617"><ele>102.0</ele><time>2026-05-04T11:47:16.564Z</time></trkpt><trkpt lat="41.4677228" lon="0.417781"><ele>101.0</ele><time>2026-05-04T11:47:17.55Z</time></trkpt><trkpt lat="41.467774" lon="0.4179396"><ele>101.0</ele><time>2026-05-04T11:47:18.555Z</time></trkpt><trkpt lat="41.4678317" lon="0.4180825"><ele>101.0</ele><time>2026-05-04T11:47:19.548Z</time></trkpt><trkpt lat="41.4678793" lon="0.4182228"><ele>101.0</ele><time>2026-05-04T11:47:20.554Z</time></trkpt><trkpt lat="41.4679251" lon="0.4183762"><ele>101.0</ele><time>2026-05-04T11:47:21.547Z</time></trkpt><trkpt lat="41.4679754" lon="0.4185259"><ele>101.0</ele><time>2026-05-04T11:47:22.55Z</time></trkpt><trkpt lat="41.4680281" lon="0.418676"><ele>101.0</ele><time>2026-05-04T11:47:23.551Z</time></trkpt><trkpt lat="41.4680835" lon="0.4188283"><ele>101.0</ele><time>2026-05-04T11:47:24.546Z</time></trkpt><trkpt lat="41.4681364" lon="0.4189839"><ele>101.0</ele><time>2026-05-04T11:47:25.552Z</time></trkpt><trkpt lat="41.4681906" lon="0.4191298"><ele>101.0</ele><time>2026-05-04T11:47:26.542Z</time></trkpt><trkpt lat="41.4682488" lon="0.419284"><ele>101.0</ele><time>2026-05-04T11:47:27.544Z</time></trkpt><trkpt lat="41.4683169" lon="0.4194402"><ele>101.0</ele><time>2026-05-04T11:47:28.548Z</time></trkpt><trkpt lat="41.4683741" lon="0.41959"><ele>101.0</ele><time>2026-05-04T11:47:29.547Z</time></trkpt><trkpt lat="41.4684263" lon="0.4197323"><ele>100.5</ele><time>2026-05-04T11:47:30.551Z</time></trkpt><trkpt lat="41.4684792" lon="0.4198801"><ele>100.0</ele><time>2026-05-04T11:47:31.548Z</time></trkpt><trkpt lat="41.4685406" lon="0.4200302"><ele>99.5</ele><time>2026-05-04T11:47:32.548Z</time></trkpt><trkpt lat="41.4686023" lon="0.4201851"><ele>99.0</ele><time>2026-05-04T11:47:33.549Z</time></trkpt><trkpt lat="41.4686608" lon="0.4203486"><ele>98.75</ele><time>2026-05-04T11:47:34.549Z</time></trkpt><trkpt lat="41.4687203" lon="0.4205133"><ele>98.5</ele><time>2026-05-04T11:47:35.547Z</time></trkpt><trkpt lat="41.4687853" lon="0.4206882"><ele>98.25</ele><time>2026-05-04T11:47:36.55Z</time></trkpt><trkpt lat="41.4688407" lon="0.4208647"><ele>98.0</ele><time>2026-05-04T11:47:37.549Z</time></trkpt><trkpt lat="41.4689094" lon="0.42103"><ele>99.25</ele><time>2026-05-04T11:47:38.543Z</time></trkpt><trkpt lat="41.4689714" lon="0.4211815"><ele>100.5</ele><time>2026-05-04T11:47:39.539Z</time></trkpt><trkpt lat="41.4690481" lon="0.4213241"><ele>101.75</ele><time>2026-05-04T11:47:40.541Z</time></trkpt><trkpt lat="41.4691211" lon="0.4214815"><ele>103.0</ele><time>2026-05-04T11:47:41.539Z</time></trkpt><trkpt lat="41.4691905" lon="0.4216317"><ele>103.0</ele><time>2026-05-04T11:47:42.54Z</time></trkpt><trkpt lat="41.4692566" lon="0.4217688"><ele>103.0</ele><time>2026-05-04T11:47:43.536Z</time></trkpt><trkpt lat="41.4693374" lon="0.4219068"><ele>103.0</ele><time>2026-05-04T11:47:44.549Z</time></trkpt><trkpt lat="41.4694152" lon="0.4220383"><ele>103.0</ele><time>2026-05-04T11:47:45.539Z</time></trkpt><trkpt lat="41.4694937" lon="0.4221653"><ele>103.0</ele><time>2026-05-04T11:47:46.542Z</time></trkpt><trkpt lat="41.4695713" lon="0.4222807"><ele>103.0</ele><time>2026-05-04T11:47:47.539Z</time></trkpt><trkpt lat="41.4696523" lon="0.4223959"><ele>103.0</ele><time>2026-05-04T11:47:48.542Z</time></trkpt><trkpt lat="41.46973" lon="0.4225114"><ele>103.0</ele><time>2026-05-04T11:47:49.548Z</time></trkpt><trkpt lat="41.4698095" lon="0.422627"><ele>103.0</ele><time>2026-05-04T11:47:50.546Z</time></trkpt><trkpt lat="41.4698897" lon="0.4227391"><ele>103.0</ele><time>2026-05-04T11:47:51.546Z</time></trkpt><trkpt lat="41.4699731" lon="0.4228434"><ele>103.0</ele><time>2026-05-04T11:47:52.548Z</time></trkpt><trkpt lat="41.470055" lon="0.4229418"><ele>103.0</ele><time>2026-05-04T11:47:53.548Z</time></trkpt><trkpt lat="41.4701372" lon="0.4230401"><ele>103.0</ele><time>2026-05-04T11:47:54.545Z</time></trkpt><trkpt lat="41.4702149" lon="0.4231352"><ele>103.0</ele><time>2026-05-04T11:47:55.545Z</time></trkpt><trkpt lat="41.4702919" lon="0.4232235"><ele>103.0</ele><time>2026-05-04T11:47:56.543Z</time></trkpt><trkpt lat="41.4703588" lon="0.4233137"><ele>103.0</ele><time>2026-05-04T11:47:57.546Z</time></trkpt><trkpt lat="41.4704203" lon="0.4234058"><ele>103.0</ele><time>2026-05-04T11:47:58.543Z</time></trkpt><trkpt lat="41.4704642" lon="0.4234999"><ele>103.00000000000001</ele><time>2026-05-04T11:47:59.548Z</time></trkpt><trkpt lat="41.4704929" lon="0.4236068"><ele>103.0</ele><time>2026-05-04T11:48:00.55Z</time></trkpt><trkpt lat="41.4705315" lon="0.4236971"><ele>103.0</ele><time>2026-05-04T11:48:01.539Z</time></trkpt><trkpt lat="41.4705837" lon="0.4237635"><ele>103.0</ele><time>2026-05-04T11:48:02.54Z</time></trkpt><trkpt lat="41.4706573" lon="0.4237972"><ele>103.00000000000001</ele><time>2026-05-04T11:48:03.542Z</time></trkpt><trkpt lat="41.4707487" lon="0.4238144"><ele>103.0</ele><time>2026-05-04T11:48:04.544Z</time></trkpt><trkpt lat="41.4708402" lon="0.4238605"><ele>102.25</ele><time>2026-05-04T11:48:05.538Z</time></trkpt><trkpt lat="41.4709401" lon="0.4239154"><ele>101.5</ele><time>2026-05-04T11:48:06.538Z</time></trkpt><trkpt lat="41.4710435" lon="0.4239767"><ele>100.75</ele><time>2026-05-04T11:48:07.538Z</time></trkpt><trkpt lat="41.4711516" lon="0.4240302"><ele>100.0</ele><time>2026-05-04T11:48:08.54Z</time></trkpt><trkpt lat="41.4712595" lon="0.4240832"><ele>100.5</ele><time>2026-05-04T11:48:09.541Z</time></trkpt><trkpt lat="41.4713688" lon="0.4241366"><ele>101.0</ele><time>2026-05-04T11:48:10.546Z</time></trkpt><trkpt lat="41.4714763" lon="0.4241939"><ele>101.5</ele><time>2026-05-04T11:48:11.546Z</time></trkpt><trkpt lat="41.4715815" lon="0.4242505"><ele>102.0</ele><time>2026-05-04T11:48:12.547Z</time></trkpt><trkpt lat="41.4716859" lon="0.4243045"><ele>102.0</ele><time>2026-05-04T11:48:13.539Z</time></trkpt><trkpt lat="41.4717936" lon="0.4243688"><ele>102.0</ele><time>2026-05-04T11:48:14.542Z</time></trkpt><trkpt lat="41.4719018" lon="0.424428"><ele>102.0</ele><time>2026-05-04T11:48:15.538Z</time></trkpt><trkpt lat="41.4720161" lon="0.4244972"><ele>102.0</ele><time>2026-05-04T11:48:16.542Z</time></trkpt><trkpt lat="41.4721289" lon="0.4245745"><ele>102.0</ele><time>2026-05-04T11:48:17.542Z</time></trkpt><trkpt lat="41.4722347" lon="0.4246631"><ele>102.0</ele><time>2026-05-04T11:48:18.546Z</time></trkpt><trkpt lat="41.4723366" lon="0.4247677"><ele>102.0</ele><time>2026-05-04T11:48:19.543Z</time></trkpt><trkpt lat="41.4724315" lon="0.4248916"><ele>102.0</ele><time>2026-05-04T11:48:20.542Z</time></trkpt><trkpt lat="41.4725184" lon="0.425028"><ele>102.0</ele><time>2026-05-04T11:48:21.541Z</time></trkpt><trkpt lat="41.4726091" lon="0.4251779"><ele>102.0</ele><time>2026-05-04T11:48:22.539Z</time></trkpt><trkpt lat="41.4726867" lon="0.42534"><ele>102.0</ele><time>2026-05-04T11:48:23.536Z</time></trkpt><trkpt lat="41.472751" lon="0.4255033"><ele>102.0</ele><time>2026-05-04T11:48:24.539Z</time></trkpt><trkpt lat="41.4728194" lon="0.4256609"><ele>101.75</ele><time>2026-05-04T11:48:25.542Z</time></trkpt><trkpt lat="41.4728882" lon="0.4258249"><ele>101.5</ele><time>2026-05-04T11:48:26.544Z</time></trkpt><trkpt lat="41.4729669" lon="0.4259738"><ele>101.25</ele><time>2026-05-04T11:48:27.553Z</time></trkpt><trkpt lat="41.4730454" lon="0.4261372"><ele>101.0</ele><time>2026-05-04T11:48:28.551Z</time></trkpt><trkpt lat="41.4731219" lon="0.4262924"><ele>102.0</ele><time>2026-05-04T11:48:29.54Z</time></trkpt><trkpt lat="41.4731932" lon="0.4264544"><ele>103.0</ele><time>2026-05-04T11:48:30.55Z</time></trkpt><trkpt lat="41.4732766" lon="0.4266253"><ele>104.0</ele><time>2026-05-04T11:48:31.55Z</time></trkpt><trkpt lat="41.4733634" lon="0.4267915"><ele>105.0</ele><time>2026-05-04T11:48:32.549Z</time></trkpt><trkpt lat="41.4734607" lon="0.4269522"><ele>105.0</ele><time>2026-05-04T11:48:33.546Z</time></trkpt><trkpt lat="41.4735529" lon="0.427106"><ele>105.0</ele><time>2026-05-04T11:48:34.544Z</time></trkpt><trkpt lat="41.4736411" lon="0.4272535"><ele>105.0</ele><time>2026-05-04T11:48:35.544Z</time></trkpt><trkpt lat="41.4737247" lon="0.4273973"><ele>105.0</ele><time>2026-05-04T11:48:36.545Z</time></trkpt><trkpt lat="41.4738132" lon="0.4275325"><ele>105.25</ele><time>2026-05-04T11:48:37.54Z</time></trkpt><trkpt lat="41.4738906" lon="0.4276711"><ele>105.5</ele><time>2026-05-04T11:48:38.555Z</time></trkpt><trkpt lat="41.4739707" lon="0.4278074"><ele>105.75</ele><time>2026-05-04T11:48:39.546Z</time></trkpt><trkpt lat="41.4740415" lon="0.4279404"><ele>106.0</ele><time>2026-05-04T11:48:40.544Z</time></trkpt><trkpt lat="41.4741295" lon="0.4280715"><ele>104.5</ele><time>2026-05-04T11:48:41.539Z</time></trkpt><trkpt lat="41.4742163" lon="0.428204"><ele>103.0</ele><time>2026-05-04T11:48:42.543Z</time></trkpt><trkpt lat="41.4743017" lon="0.4283428"><ele>101.5</ele><time>2026-05-04T11:48:43.546Z</time></trkpt><trkpt lat="41.474385" lon="0.4284762"><ele>100.0</ele><time>2026-05-04T11:48:44.543Z</time></trkpt><trkpt lat="41.4744679" lon="0.4286049"><ele>100.0</ele><time>2026-05-04T11:48:45.539Z</time></trkpt><trkpt lat="41.4745552" lon="0.4287301"><ele>100.0</ele><time>2026-05-04T11:48:46.541Z</time></trkpt><trkpt lat="41.4746416" lon="0.4288619"><ele>100.0</ele><time>2026-05-04T11:48:47.546Z</time></trkpt><trkpt lat="41.47473" lon="0.4289978"><ele>100.0</ele><time>2026-05-04T11:48:48.545Z</time></trkpt><trkpt lat="41.47482" lon="0.4291316"><ele>100.25</ele><time>2026-05-04T11:48:49.543Z</time></trkpt><trkpt lat="41.474916" lon="0.4292682"><ele>100.5</ele><time>2026-05-04T11:48:50.546Z</time></trkpt><trkpt lat="41.4750128" lon="0.429402"><ele>100.75</ele><time>2026-05-04T11:48:51.545Z</time></trkpt><trkpt lat="41.4751152" lon="0.4295362"><ele>101.0</ele><time>2026-05-04T11:48:52.547Z</time></trkpt><trkpt lat="41.4752163" lon="0.4296801"><ele>101.5</ele><time>2026-05-04T11:48:53.546Z</time></trkpt><trkpt lat="41.4753178" lon="0.4298113"><ele>102.0</ele><time>2026-05-04T11:48:54.547Z</time></trkpt><trkpt lat="41.4754175" lon="0.4299388"><ele>102.5</ele><time>2026-05-04T11:48:55.55Z</time></trkpt><trkpt lat="41.4755171" lon="0.4300746"><ele>103.0</ele><time>2026-05-04T11:48:56.542Z</time></trkpt><trkpt lat="41.4756128" lon="0.4302097"><ele>103.0</ele><time>2026-05-04T11:48:57.55Z</time></trkpt><trkpt lat="41.4757099" lon="0.4303428"><ele>103.0</ele><time>2026-05-04T11:48:58.539Z</time></trkpt><trkpt lat="41.4757955" lon="0.4304733"><ele>103.0</ele><time>2026-05-04T11:48:59.538Z</time></trkpt><trkpt lat="41.4758908" lon="0.4306121"><ele>103.0</ele><time>2026-05-04T11:49:00.54Z</time></trkpt><trkpt lat="41.4759853" lon="0.4307524"><ele>103.25</ele><time>2026-05-04T11:49:01.54Z</time></trkpt><trkpt lat="41.4760814" lon="0.4308922"><ele>103.5</ele><time>2026-05-04T11:49:02.539Z</time></trkpt><trkpt lat="41.4761798" lon="0.4310284"><ele>103.75</ele><time>2026-05-04T11:49:03.539Z</time></trkpt><trkpt lat="41.4762759" lon="0.4311567"><ele>104.0</ele><time>2026-05-04T11:49:04.547Z</time></trkpt><trkpt lat="41.4763684" lon="0.4312985"><ele>102.75</ele><time>2026-05-04T11:49:05.537Z</time></trkpt><trkpt lat="41.4764615" lon="0.4314316"><ele>101.5</ele><time>2026-05-04T11:49:06.542Z</time></trkpt><trkpt lat="41.4765598" lon="0.4315748"><ele>100.25</ele><time>2026-05-04T11:49:07.541Z</time></trkpt><trkpt lat="41.4766528" lon="0.4317211"><ele>99.0</ele><time>2026-05-04T11:49:08.542Z</time></trkpt><trkpt lat="41.4767368" lon="0.4318752"><ele>99.0</ele><time>2026-05-04T11:49:09.542Z</time></trkpt><trkpt lat="41.4768275" lon="0.4320169"><ele>99.0</ele><time>2026-05-04T11:49:10.546Z</time></trkpt><trkpt lat="41.4769143" lon="0.4321618"><ele>99.0</ele><time>2026-05-04T11:49:11.547Z</time></trkpt><trkpt lat="41.4769945" lon="0.4323092"><ele>99.0</ele><time>2026-05-04T11:49:12.54Z</time></trkpt><trkpt lat="41.477068" lon="0.4324648"><ele>99.25</ele><time>2026-05-04T11:49:13.546Z</time></trkpt><trkpt lat="41.4771493" lon="0.4326166"><ele>99.5</ele><time>2026-05-04T11:49:14.544Z</time></trkpt><trkpt lat="41.4772368" lon="0.4327724"><ele>99.75</ele><time>2026-05-04T11:49:15.544Z</time></trkpt><trkpt lat="41.4773107" lon="0.4329287"><ele>100.0</ele><time>2026-05-04T11:49:16.545Z</time></trkpt><trkpt lat="41.4773828" lon="0.4330928"><ele>100.0</ele><time>2026-05-04T11:49:17.539Z</time></trkpt><trkpt lat="41.477466" lon="0.4332511"><ele>100.0</ele><time>2026-05-04T11:49:18.547Z</time></trkpt><trkpt lat="41.4775461" lon="0.4334096"><ele>100.0</ele><time>2026-05-04T11:49:19.537Z</time></trkpt><trkpt lat="41.4776177" lon="0.433557"><ele>100.0</ele><time>2026-05-04T11:49:20.539Z</time></trkpt><trkpt lat="41.4777046" lon="0.4337108"><ele>98.5</ele><time>2026-05-04T11:49:21.543Z</time></trkpt><trkpt lat="41.4777876" lon="0.43386"><ele>97.0</ele><time>2026-05-04T11:49:22.539Z</time></trkpt><trkpt lat="41.4778639" lon="0.434021"><ele>95.5</ele><time>2026-05-04T11:49:23.541Z</time></trkpt><trkpt lat="41.477938" lon="0.4341778"><ele>94.0</ele><time>2026-05-04T11:49:24.541Z</time></trkpt><trkpt lat="41.4780206" lon="0.434335"><ele>95.25</ele><time>2026-05-04T11:49:25.542Z</time></trkpt><trkpt lat="41.4781133" lon="0.4344992"><ele>96.5</ele><time>2026-05-04T11:49:26.543Z</time></trkpt><trkpt lat="41.4781896" lon="0.434661"><ele>97.75</ele><time>2026-05-04T11:49:27.548Z</time></trkpt><trkpt lat="41.4782694" lon="0.4348121"><ele>99.0</ele><time>2026-05-04T11:49:28.545Z</time></trkpt><trkpt lat="41.4783532" lon="0.4349636"><ele>99.0</ele><time>2026-05-04T11:49:29.541Z</time></trkpt><trkpt lat="41.4784297" lon="0.4351208"><ele>99.0</ele><time>2026-05-04T11:49:30.548Z</time></trkpt><trkpt lat="41.4785121" lon="0.4352722"><ele>99.0</ele><time>2026-05-04T11:49:31.54Z</time></trkpt><trkpt lat="41.4785935" lon="0.4354332"><ele>99.0</ele><time>2026-05-04T11:49:32.537Z</time></trkpt><trkpt lat="41.4786816" lon="0.4355895"><ele>99.75</ele><time>2026-05-04T11:49:33.536Z</time></trkpt><trkpt lat="41.4787666" lon="0.4357462"><ele>100.5</ele><time>2026-05-04T11:49:34.537Z</time></trkpt><trkpt lat="41.4788469" lon="0.4359062"><ele>101.25</ele><time>2026-05-04T11:49:35.538Z</time></trkpt><trkpt lat="41.4789248" lon="0.4360657"><ele>102.0</ele><time>2026-05-04T11:49:36.538Z</time></trkpt><trkpt lat="41.479001" lon="0.4362282"><ele>102.0</ele><time>2026-05-04T11:49:37.539Z</time></trkpt><trkpt lat="41.47908" lon="0.4363875"><ele>102.0</ele><time>2026-05-04T11:49:38.541Z</time></trkpt><trkpt lat="41.479165" lon="0.4365455"><ele>102.0</ele><time>2026-05-04T11:49:39.538Z</time></trkpt><trkpt lat="41.4792413" lon="0.4367129"><ele>102.0</ele><time>2026-05-04T11:49:40.538Z</time></trkpt><trkpt lat="41.4793206" lon="0.4368708"><ele>102.0</ele><time>2026-05-04T11:49:41.543Z</time></trkpt><trkpt lat="41.4794039" lon="0.4370289"><ele>102.0</ele><time>2026-05-04T11:49:42.546Z</time></trkpt><trkpt lat="41.4794919" lon="0.4371845"><ele>102.0</ele><time>2026-05-04T11:49:43.548Z</time></trkpt><trkpt lat="41.4795665" lon="0.4373349"><ele>102.0</ele><time>2026-05-04T11:49:44.545Z</time></trkpt><trkpt lat="41.479647" lon="0.4374947"><ele>102.0</ele><time>2026-05-04T11:49:45.542Z</time></trkpt><trkpt lat="41.4797167" lon="0.4376561"><ele>102.0</ele><time>2026-05-04T11:49:46.544Z</time></trkpt><trkpt lat="41.4797924" lon="0.4378157"><ele>102.0</ele><time>2026-05-04T11:49:47.542Z</time></trkpt><trkpt lat="41.4798739" lon="0.4379707"><ele>102.0</ele><time>2026-05-04T11:49:48.544Z</time></trkpt><trkpt lat="41.4799532" lon="0.4381218"><ele>102.0</ele><time>2026-05-04T11:49:49.546Z</time></trkpt><trkpt lat="41.4800265" lon="0.4382717"><ele>102.0</ele><time>2026-05-04T11:49:50.546Z</time></trkpt><trkpt lat="41.4801123" lon="0.4384191"><ele>102.0</ele><time>2026-05-04T11:49:51.545Z</time></trkpt><trkpt lat="41.4801893" lon="0.4385689"><ele>102.0</ele><time>2026-05-04T11:49:52.543Z</time></trkpt><trkpt lat="41.4802695" lon="0.438721"><ele>101.25</ele><time>2026-05-04T11:49:53.542Z</time></trkpt><trkpt lat="41.4803442" lon="0.4388717"><ele>100.5</ele><time>2026-05-04T11:49:54.543Z</time></trkpt><trkpt lat="41.4804364" lon="0.4390278"><ele>99.75</ele><time>2026-05-04T11:49:55.554Z</time></trkpt><trkpt lat="41.480517" lon="0.4391765"><ele>99.0</ele><time>2026-05-04T11:49:56.546Z</time></trkpt><trkpt lat="41.4805949" lon="0.4393388"><ele>100.75</ele><time>2026-05-04T11:49:57.551Z</time></trkpt><trkpt lat="41.4806772" lon="0.4394923"><ele>102.5</ele><time>2026-05-04T11:49:58.549Z</time></trkpt><trkpt lat="41.4807597" lon="0.4396403"><ele>104.25</ele><time>2026-05-04T11:49:59.546Z</time></trkpt><trkpt lat="41.4808379" lon="0.4397803"><ele>106.0</ele><time>2026-05-04T11:50:00.546Z</time></trkpt><trkpt lat="41.4809215" lon="0.4399259"><ele>106.0</ele><time>2026-05-04T11:50:01.541Z</time></trkpt><trkpt lat="41.4809927" lon="0.4400715"><ele>106.0</ele><time>2026-05-04T11:50:02.539Z</time></trkpt><trkpt lat="41.4810736" lon="0.4402088"><ele>106.0</ele><time>2026-05-04T11:50:03.543Z</time></trkpt><trkpt lat="41.4811565" lon="0.4403413"><ele>106.0</ele><time>2026-05-04T11:50:04.546Z</time></trkpt><trkpt lat="41.4812432" lon="0.4404695"><ele>108.25</ele><time>2026-05-04T11:50:05.553Z</time></trkpt><trkpt lat="41.4813169" lon="0.4405955"><ele>110.5</ele><time>2026-05-04T11:50:06.557Z</time></trkpt><trkpt lat="41.481395" lon="0.4407197"><ele>112.75</ele><time>2026-05-04T11:50:07.543Z</time></trkpt><trkpt lat="41.4814712" lon="0.440836"><ele>115.0</ele><time>2026-05-04T11:50:08.558Z</time></trkpt><trkpt lat="41.4815459" lon="0.4409518"><ele>115.0</ele><time>2026-05-04T11:50:09.553Z</time></trkpt><trkpt lat="41.4816149" lon="0.4410662"><ele>115.0</ele><time>2026-05-04T11:50:10.554Z</time></trkpt><trkpt lat="41.4816809" lon="0.4411799"><ele>115.0</ele><time>2026-05-04T11:50:11.555Z</time></trkpt><trkpt lat="41.4817523" lon="0.4412926"><ele>115.0</ele><time>2026-05-04T11:50:12.556Z</time></trkpt><trkpt lat="41.4818227" lon="0.4414072"><ele>115.0</ele><time>2026-05-04T11:50:13.564Z</time></trkpt><trkpt lat="41.4818938" lon="0.4415231"><ele>116.0</ele><time>2026-05-04T11:50:14.555Z</time></trkpt><trkpt lat="41.4819632" lon="0.4416401"><ele>117.0</ele><time>2026-05-04T11:50:15.557Z</time></trkpt><trkpt lat="41.482037" lon="0.4417617"><ele>118.0</ele><time>2026-05-04T11:50:16.552Z</time></trkpt><trkpt lat="41.4821169" lon="0.441884"><ele>119.0</ele><time>2026-05-04T11:50:17.553Z</time></trkpt><trkpt lat="41.4821953" lon="0.442012"><ele>116.75</ele><time>2026-05-04T11:50:18.554Z</time></trkpt><trkpt lat="41.482271" lon="0.4421433"><ele>114.5</ele><time>2026-05-04T11:50:19.558Z</time></trkpt><trkpt lat="41.4823475" lon="0.4422701"><ele>112.25</ele><time>2026-05-04T11:50:20.551Z</time></trkpt><trkpt lat="41.4824265" lon="0.4423993"><ele>110.0</ele><time>2026-05-04T11:50:21.549Z</time></trkpt><trkpt lat="41.4825042" lon="0.4425256"><ele>110.0</ele><time>2026-05-04T11:50:22.548Z</time></trkpt><trkpt lat="41.4825814" lon="0.4426444"><ele>110.0</ele><time>2026-05-04T11:50:23.544Z</time></trkpt><trkpt lat="41.4826583" lon="0.4427641"><ele>110.0</ele><time>2026-05-04T11:50:24.547Z</time></trkpt><trkpt lat="41.4827354" lon="0.4428863"><ele>110.0</ele><time>2026-05-04T11:50:25.548Z</time></trkpt><trkpt lat="41.4828151" lon="0.4430118"><ele>109.75</ele><time>2026-05-04T11:50:26.551Z</time></trkpt><trkpt lat="41.4828941" lon="0.4431427"><ele>109.5</ele><time>2026-05-04T11:50:27.548Z</time></trkpt><trkpt lat="41.4829716" lon="0.4432735"><ele>109.25</ele><time>2026-05-04T11:50:28.548Z</time></trkpt><trkpt lat="41.4830517" lon="0.4434077"><ele>109.0</ele><time>2026-05-04T11:50:29.54Z</time></trkpt><trkpt lat="41.4831285" lon="0.4435578"><ele>109.0</ele><time>2026-05-04T11:50:30.541Z</time></trkpt><trkpt lat="41.4831955" lon="0.4437154"><ele>109.0</ele><time>2026-05-04T11:50:31.534Z</time></trkpt><trkpt lat="41.4832574" lon="0.4438777"><ele>109.0</ele><time>2026-05-04T11:50:32.548Z</time></trkpt><trkpt lat="41.4833115" lon="0.4440391"><ele>109.0</ele><time>2026-05-04T11:50:33.538Z</time></trkpt><trkpt lat="41.4833558" lon="0.4442066"><ele>108.25</ele><time>2026-05-04T11:50:34.539Z</time></trkpt><trkpt lat="41.4834002" lon="0.4443828"><ele>107.5</ele><time>2026-05-04T11:50:35.537Z</time></trkpt><trkpt lat="41.4834367" lon="0.4445652"><ele>106.75</ele><time>2026-05-04T11:50:36.544Z</time></trkpt><trkpt lat="41.4834646" lon="0.4447396"><ele>106.0</ele><time>2026-05-04T11:50:37.544Z</time></trkpt><trkpt lat="41.4834947" lon="0.4449141"><ele>105.66666666666667</ele><time>2026-05-04T11:50:38.545Z</time></trkpt><trkpt lat="41.4835636" lon="0.4452592"><ele>105.33333333333334</ele><time>2026-05-04T11:50:40.544Z</time></trkpt><trkpt lat="41.4836113" lon="0.4454356"><ele>105.0</ele><time>2026-05-04T11:50:41.542Z</time></trkpt><trkpt lat="41.4836702" lon="0.4455914"><ele>104.5</ele><time>2026-05-04T11:50:42.547Z</time></trkpt><trkpt lat="41.4837382" lon="0.4457381"><ele>104.0</ele><time>2026-05-04T11:50:43.549Z</time></trkpt><trkpt lat="41.4838147" lon="0.4458866"><ele>103.5</ele><time>2026-05-04T11:50:44.544Z</time></trkpt><trkpt lat="41.4838961" lon="0.446024"><ele>103.0</ele><time>2026-05-04T11:50:45.542Z</time></trkpt><trkpt lat="41.4839935" lon="0.4461505"><ele>103.0</ele><time>2026-05-04T11:50:46.543Z</time></trkpt><trkpt lat="41.4841013" lon="0.4462729"><ele>103.0</ele><time>2026-05-04T11:50:47.541Z</time></trkpt><trkpt lat="41.4842269" lon="0.4463846"><ele>103.0</ele><time>2026-05-04T11:50:48.547Z</time></trkpt><trkpt lat="41.4843451" lon="0.4464998"><ele>103.0</ele><time>2026-05-04T11:50:49.546Z</time></trkpt><trkpt lat="41.484458" lon="0.446609"><ele>103.0</ele><time>2026-05-04T11:50:50.547Z</time></trkpt><trkpt lat="41.4845623" lon="0.4467136"><ele>103.0</ele><time>2026-05-04T11:50:51.55Z</time></trkpt><trkpt lat="41.4846626" lon="0.4468158"><ele>103.0</ele><time>2026-05-04T11:50:52.543Z</time></trkpt><trkpt lat="41.484755" lon="0.4469139"><ele>103.0</ele><time>2026-05-04T11:50:53.544Z</time></trkpt><trkpt lat="41.4848379" lon="0.4470123"><ele>103.5</ele><time>2026-05-04T11:50:54.545Z</time></trkpt><trkpt lat="41.4849247" lon="0.4471049"><ele>104.0</ele><time>2026-05-04T11:50:55.547Z</time></trkpt><trkpt lat="41.4850158" lon="0.4472049"><ele>104.5</ele><time>2026-05-04T11:50:56.536Z</time></trkpt><trkpt lat="41.4851032" lon="0.447316"><ele>105.0</ele><time>2026-05-04T11:50:57.55Z</time></trkpt><trkpt lat="41.4851931" lon="0.4474344"><ele>105.0</ele><time>2026-05-04T11:50:58.547Z</time></trkpt><trkpt lat="41.4852827" lon="0.44756"><ele>105.0</ele><time>2026-05-04T11:50:59.539Z</time></trkpt><trkpt lat="41.4853724" lon="0.4476975"><ele>105.0</ele><time>2026-05-04T11:51:00.541Z</time></trkpt><trkpt lat="41.4854647" lon="0.447847"><ele>105.0</ele><time>2026-05-04T11:51:01.543Z</time></trkpt><trkpt lat="41.4855488" lon="0.448004"><ele>108.75</ele><time>2026-05-04T11:51:02.542Z</time></trkpt><trkpt lat="41.4856277" lon="0.4481613"><ele>112.5</ele><time>2026-05-04T11:51:03.543Z</time></trkpt><trkpt lat="41.4857059" lon="0.4483096"><ele>116.25</ele><time>2026-05-04T11:51:04.537Z</time></trkpt><trkpt lat="41.4857783" lon="0.4484417"><ele>120.0</ele><time>2026-05-04T11:51:05.539Z</time></trkpt><trkpt lat="41.4858497" lon="0.4485638"><ele>120.0</ele><time>2026-05-04T11:51:06.54Z</time></trkpt><trkpt lat="41.4859193" lon="0.4486985"><ele>120.0</ele><time>2026-05-04T11:51:07.541Z</time></trkpt><trkpt lat="41.4859963" lon="0.448827"><ele>120.0</ele><time>2026-05-04T11:51:08.541Z</time></trkpt><trkpt lat="41.48607" lon="0.4489571"><ele>120.0</ele><time>2026-05-04T11:51:09.538Z</time></trkpt><trkpt lat="41.4861432" lon="0.44909"><ele>117.5</ele><time>2026-05-04T11:51:10.541Z</time></trkpt><trkpt lat="41.4862194" lon="0.4492224"><ele>115.0</ele><time>2026-05-04T11:51:11.541Z</time></trkpt><trkpt lat="41.4862924" lon="0.4493605"><ele>112.5</ele><time>2026-05-04T11:51:12.539Z</time></trkpt><trkpt lat="41.4863671" lon="0.4494975"><ele>110.0</ele><time>2026-05-04T11:51:13.544Z</time></trkpt><trkpt lat="41.4864445" lon="0.4496352"><ele>110.0</ele><time>2026-05-04T11:51:14.541Z</time></trkpt><trkpt lat="41.4865258" lon="0.4497819"><ele>110.0</ele><time>2026-05-04T11:51:15.547Z</time></trkpt><trkpt lat="41.4866028" lon="0.4499324"><ele>110.0</ele><time>2026-05-04T11:51:16.539Z</time></trkpt><trkpt lat="41.4866828" lon="0.4500888"><ele>110.0</ele><time>2026-05-04T11:51:17.536Z</time></trkpt><trkpt lat="41.4867624" lon="0.4502379"><ele>111.66666666666666</ele><time>2026-05-04T11:51:18.541Z</time></trkpt><trkpt lat="41.4869474" lon="0.450526"><ele>113.33333333333334</ele><time>2026-05-04T11:51:20.537Z</time></trkpt><trkpt lat="41.4870418" lon="0.4506727"><ele>115.0</ele><time>2026-05-04T11:51:21.541Z</time></trkpt><trkpt lat="41.4871275" lon="0.4508055"><ele>115.0</ele><time>2026-05-04T11:51:22.546Z</time></trkpt><trkpt lat="41.4872229" lon="0.4509502"><ele>115.0</ele><time>2026-05-04T11:51:23.541Z</time></trkpt><trkpt lat="41.4873175" lon="0.4510893"><ele>115.0</ele><time>2026-05-04T11:51:24.542Z</time></trkpt><trkpt lat="41.4874058" lon="0.4512366"><ele>115.0</ele><time>2026-05-04T11:51:25.543Z</time></trkpt><trkpt lat="41.4874882" lon="0.4513867"><ele>112.75</ele><time>2026-05-04T11:51:26.539Z</time></trkpt><trkpt lat="41.4875694" lon="0.4515423"><ele>110.5</ele><time>2026-05-04T11:51:27.555Z</time></trkpt><trkpt lat="41.4876573" lon="0.451688"><ele>108.25</ele><time>2026-05-04T11:51:28.548Z</time></trkpt><trkpt lat="41.4877395" lon="0.4518256"><ele>106.0</ele><time>2026-05-04T11:51:29.544Z</time></trkpt><trkpt lat="41.4878278" lon="0.4519614"><ele>106.0</ele><time>2026-05-04T11:51:30.55Z</time></trkpt><trkpt lat="41.4879195" lon="0.4520992"><ele>106.0</ele><time>2026-05-04T11:51:31.54Z</time></trkpt><trkpt lat="41.48802" lon="0.4522295"><ele>106.0</ele><time>2026-05-04T11:51:32.546Z</time></trkpt><trkpt lat="41.4881146" lon="0.4523544"><ele>106.0</ele><time>2026-05-04T11:51:33.543Z</time></trkpt><trkpt lat="41.4882137" lon="0.4524716"><ele>108.5</ele><time>2026-05-04T11:51:34.543Z</time></trkpt><trkpt lat="41.4883173" lon="0.4525803"><ele>111.0</ele><time>2026-05-04T11:51:35.544Z</time></trkpt><trkpt lat="41.488422" lon="0.4526841"><ele>113.5</ele><time>2026-05-04T11:51:36.546Z</time></trkpt><trkpt lat="41.4885257" lon="0.4527791"><ele>116.0</ele><time>2026-05-04T11:51:37.549Z</time></trkpt><trkpt lat="41.4886323" lon="0.4528662"><ele>116.0</ele><time>2026-05-04T11:51:38.543Z</time></trkpt><trkpt lat="41.4887288" lon="0.4529524"><ele>116.0</ele><time>2026-05-04T11:51:39.544Z</time></trkpt><trkpt lat="41.4888296" lon="0.4530391"><ele>116.0</ele><time>2026-05-04T11:51:40.536Z</time></trkpt><trkpt lat="41.4889297" lon="0.4531187"><ele>116.0</ele><time>2026-05-04T11:51:41.538Z</time></trkpt><trkpt lat="41.4890216" lon="0.453195"><ele>114.19999999999999</ele><time>2026-05-04T11:51:42.54Z</time></trkpt><trkpt lat="41.4891102" lon="0.4532804"><ele>112.39999999999999</ele><time>2026-05-04T11:51:43.546Z</time></trkpt><trkpt lat="41.4892035" lon="0.4533595"><ele>110.6</ele><time>2026-05-04T11:51:44.545Z</time></trkpt><trkpt lat="41.4892921" lon="0.4534338"><ele>108.8</ele><time>2026-05-04T11:51:45.542Z</time></trkpt><trkpt lat="41.4893766" lon="0.4535107"><ele>107.0</ele><time>2026-05-04T11:51:46.545Z</time></trkpt><trkpt lat="41.4894631" lon="0.4535866"><ele>107.0</ele><time>2026-05-04T11:51:47.547Z</time></trkpt><trkpt lat="41.4895405" lon="0.4536619"><ele>106.99999999999999</ele><time>2026-05-04T11:51:48.544Z</time></trkpt><trkpt lat="41.4896165" lon="0.4537314"><ele>106.99999999999999</ele><time>2026-05-04T11:51:49.545Z</time></trkpt><trkpt lat="41.4896879" lon="0.4538042"><ele>107.0</ele><time>2026-05-04T11:51:50.538Z</time></trkpt><trkpt lat="41.4897601" lon="0.4538769"><ele>107.0</ele><time>2026-05-04T11:51:51.544Z</time></trkpt><trkpt lat="41.4898344" lon="0.4539562"><ele>106.49999999999999</ele><time>2026-05-04T11:51:52.54Z</time></trkpt><trkpt lat="41.4899129" lon="0.4540261"><ele>106.0</ele><time>2026-05-04T11:51:53.542Z</time></trkpt><trkpt lat="41.4899846" lon="0.4540944"><ele>105.5</ele><time>2026-05-04T11:51:54.533Z</time></trkpt><trkpt lat="41.4900492" lon="0.4541586"><ele>105.0</ele><time>2026-05-04T11:51:55.54Z</time></trkpt><trkpt lat="41.4900945" lon="0.4542292"><ele>104.49999999999999</ele><time>2026-05-04T11:51:56.531Z</time></trkpt><trkpt lat="41.490131" lon="0.454309"><ele>104.0</ele><time>2026-05-04T11:51:57.549Z</time></trkpt><trkpt lat="41.4901717" lon="0.4543827"><ele>103.99999999999999</ele><time>2026-05-04T11:51:58.538Z</time></trkpt><trkpt lat="41.4902151" lon="0.4544448"><ele>104.0</ele><time>2026-05-04T11:51:59.539Z</time></trkpt><trkpt lat="41.4902691" lon="0.4544996"><ele>104.0</ele><time>2026-05-04T11:52:00.542Z</time></trkpt><trkpt lat="41.4903235" lon="0.4545633"><ele>104.0</ele><time>2026-05-04T11:52:01.53Z</time></trkpt><trkpt lat="41.4903817" lon="0.4546427"><ele>103.99999999999999</ele><time>2026-05-04T11:52:02.533Z</time></trkpt><trkpt lat="41.4904314" lon="0.4547374"><ele>104.0</ele><time>2026-05-04T11:52:03.533Z</time></trkpt><trkpt lat="41.490478" lon="0.4548338"><ele>103.6</ele><time>2026-05-04T11:52:04.534Z</time></trkpt><trkpt lat="41.4905248" lon="0.4549371"><ele>103.2</ele><time>2026-05-04T11:52:05.533Z</time></trkpt><trkpt lat="41.4905677" lon="0.4550684"><ele>102.8</ele><time>2026-05-04T11:52:06.53Z</time></trkpt><trkpt lat="41.4906055" lon="0.4552054"><ele>102.39999999999999</ele><time>2026-05-04T11:52:07.533Z</time></trkpt><trkpt lat="41.4906406" lon="0.4553379"><ele>102.0</ele><time>2026-05-04T11:52:08.531Z</time></trkpt><trkpt lat="41.490672" lon="0.4554864"><ele>102.0</ele><time>2026-05-04T11:52:09.536Z</time></trkpt><trkpt lat="41.4907079" lon="0.455638"><ele>102.0</ele><time>2026-05-04T11:52:10.543Z</time></trkpt><trkpt lat="41.4907485" lon="0.4557937"><ele>102.0</ele><time>2026-05-04T11:52:11.542Z</time></trkpt><trkpt lat="41.4907906" lon="0.4559414"><ele>102.0</ele><time>2026-05-04T11:52:12.547Z</time></trkpt><trkpt lat="41.490826" lon="0.456086"><ele>102.0</ele><time>2026-05-04T11:52:13.541Z</time></trkpt><trkpt lat="41.4908569" lon="0.4562333"><ele>102.0</ele><time>2026-05-04T11:52:14.539Z</time></trkpt><trkpt lat="41.4908909" lon="0.4563767"><ele>102.0</ele><time>2026-05-04T11:52:15.543Z</time></trkpt><trkpt lat="41.4909329" lon="0.4565131"><ele>102.0</ele><time>2026-05-04T11:52:16.547Z</time></trkpt><trkpt lat="41.490971" lon="0.456645"><ele>102.0</ele><time>2026-05-04T11:52:17.539Z</time></trkpt><trkpt lat="41.4910053" lon="0.4567715"><ele>102.0</ele><time>2026-05-04T11:52:18.54Z</time></trkpt><trkpt lat="41.4910434" lon="0.4568999"><ele>102.0</ele><time>2026-05-04T11:52:19.534Z</time></trkpt><trkpt lat="41.4910837" lon="0.4570272"><ele>102.0</ele><time>2026-05-04T11:52:20.533Z</time></trkpt><trkpt lat="41.491129" lon="0.4571634"><ele>102.0</ele><time>2026-05-04T11:52:21.533Z</time></trkpt><trkpt lat="41.4911851" lon="0.4572913"><ele>102.0</ele><time>2026-05-04T11:52:22.53Z</time></trkpt><trkpt lat="41.4912546" lon="0.4574197"><ele>103.0</ele><time>2026-05-04T11:52:23.526Z</time></trkpt><trkpt lat="41.4913308" lon="0.4575447"><ele>104.0</ele><time>2026-05-04T11:52:24.535Z</time></trkpt><trkpt lat="41.4914092" lon="0.4576762"><ele>105.0</ele><time>2026-05-04T11:52:25.532Z</time></trkpt><trkpt lat="41.4914863" lon="0.4578137"><ele>106.0</ele><time>2026-05-04T11:52:26.526Z</time></trkpt><trkpt lat="41.4915735" lon="0.4579528"><ele>106.25</ele><time>2026-05-04T11:52:27.534Z</time></trkpt><trkpt lat="41.4916589" lon="0.4580928"><ele>106.5</ele><time>2026-05-04T11:52:28.537Z</time></trkpt><trkpt lat="41.4917593" lon="0.4582252"><ele>106.75</ele><time>2026-05-04T11:52:29.539Z</time></trkpt><trkpt lat="41.4918496" lon="0.4583434"><ele>107.0</ele><time>2026-05-04T11:52:30.544Z</time></trkpt><trkpt lat="41.4919235" lon="0.4584519"><ele>107.0</ele><time>2026-05-04T11:52:31.538Z</time></trkpt><trkpt lat="41.4919968" lon="0.4585586"><ele>106.99999999999999</ele><time>2026-05-04T11:52:32.543Z</time></trkpt><trkpt lat="41.4920754" lon="0.4586417"><ele>106.99999999999999</ele><time>2026-05-04T11:52:33.537Z</time></trkpt><trkpt lat="41.4921568" lon="0.4587125"><ele>107.0</ele><time>2026-05-04T11:52:34.532Z</time></trkpt><trkpt lat="41.4922354" lon="0.4587832"><ele>107.0</ele><time>2026-05-04T11:52:35.531Z</time></trkpt><trkpt lat="41.4923035" lon="0.4588495"><ele>106.66666666666666</ele><time>2026-05-04T11:52:36.534Z</time></trkpt><trkpt lat="41.4923739" lon="0.4589102"><ele>106.33333333333333</ele><time>2026-05-04T11:52:37.532Z</time></trkpt><trkpt lat="41.4924438" lon="0.4589716"><ele>106.0</ele><time>2026-05-04T11:52:38.53Z</time></trkpt><trkpt lat="41.4925224" lon="0.4590228"><ele>105.66666666666666</ele><time>2026-05-04T11:52:39.528Z</time></trkpt><trkpt lat="41.492596" lon="0.4590734"><ele>105.33333333333333</ele><time>2026-05-04T11:52:40.528Z</time></trkpt><trkpt lat="41.4926852" lon="0.4591199"><ele>105.0</ele><time>2026-05-04T11:52:41.522Z</time></trkpt><trkpt lat="41.4927765" lon="0.4591693"><ele>105.0</ele><time>2026-05-04T11:52:42.529Z</time></trkpt><trkpt lat="41.4928667" lon="0.4592222"><ele>105.0</ele><time>2026-05-04T11:52:43.534Z</time></trkpt><trkpt lat="41.4929581" lon="0.4592762"><ele>105.0</ele><time>2026-05-04T11:52:44.528Z</time></trkpt><trkpt lat="41.4930562" lon="0.4593301"><ele>105.0</ele><time>2026-05-04T11:52:45.53Z</time></trkpt><trkpt lat="41.4931481" lon="0.459385"><ele>105.0</ele><time>2026-05-04T11:52:46.534Z</time></trkpt><trkpt lat="41.4932365" lon="0.4594486"><ele>105.2</ele><time>2026-05-04T11:52:47.535Z</time></trkpt><trkpt lat="41.4933315" lon="0.4595124"><ele>105.4</ele><time>2026-05-04T11:52:48.536Z</time></trkpt><trkpt lat="41.4934254" lon="0.4595706"><ele>105.6</ele><time>2026-05-04T11:52:49.535Z</time></trkpt><trkpt lat="41.493519" lon="0.459633"><ele>105.8</ele><time>2026-05-04T11:52:50.533Z</time></trkpt><trkpt lat="41.4936188" lon="0.45969"><ele>106.0</ele><time>2026-05-04T11:52:51.538Z</time></trkpt><trkpt lat="41.4937223" lon="0.4597534"><ele>106.25</ele><time>2026-05-04T11:52:52.537Z</time></trkpt><trkpt lat="41.4938266" lon="0.4598154"><ele>106.5</ele><time>2026-05-04T11:52:53.536Z</time></trkpt><trkpt lat="41.4939337" lon="0.4598725"><ele>106.75</ele><time>2026-05-04T11:52:54.54Z</time></trkpt><trkpt lat="41.4940412" lon="0.4599382"><ele>107.0</ele><time>2026-05-04T11:52:55.546Z</time></trkpt><trkpt lat="41.4941478" lon="0.4600082"><ele>107.0</ele><time>2026-05-04T11:52:56.536Z</time></trkpt><trkpt lat="41.4942545" lon="0.4600783"><ele>107.0</ele><time>2026-05-04T11:52:57.539Z</time></trkpt><trkpt lat="41.4943715" lon="0.4601562"><ele>107.0</ele><time>2026-05-04T11:52:58.533Z</time></trkpt><trkpt lat="41.4944823" lon="0.4602242"><ele>107.0</ele><time>2026-05-04T11:52:59.534Z</time></trkpt><trkpt lat="41.49459" lon="0.4602947"><ele>107.0</ele><time>2026-05-04T11:53:00.539Z</time></trkpt><trkpt lat="41.494698" lon="0.4603704"><ele>107.0</ele><time>2026-05-04T11:53:01.537Z</time></trkpt><trkpt lat="41.494808" lon="0.4604444"><ele>107.0</ele><time>2026-05-04T11:53:02.536Z</time></trkpt><trkpt lat="41.4949182" lon="0.460507"><ele>107.0</ele><time>2026-05-04T11:53:03.531Z</time></trkpt><trkpt lat="41.4950353" lon="0.4605732"><ele>107.0</ele><time>2026-05-04T11:53:04.535Z</time></trkpt><trkpt lat="41.4951527" lon="0.4606385"><ele>107.0</ele><time>2026-05-04T11:53:05.537Z</time></trkpt><trkpt lat="41.4952708" lon="0.4607056"><ele>107.0</ele><time>2026-05-04T11:53:06.539Z</time></trkpt><trkpt lat="41.495392" lon="0.460776"><ele>107.0</ele><time>2026-05-04T11:53:07.539Z</time></trkpt><trkpt lat="41.4955181" lon="0.4608512"><ele>107.25</ele><time>2026-05-04T11:53:08.537Z</time></trkpt><trkpt lat="41.4956384" lon="0.4609323"><ele>107.5</ele><time>2026-05-04T11:53:09.538Z</time></trkpt><trkpt lat="41.4957523" lon="0.4610176"><ele>107.75</ele><time>2026-05-04T11:53:10.524Z</time></trkpt><trkpt lat="41.4958716" lon="0.4611"><ele>108.0</ele><time>2026-05-04T11:53:11.533Z</time></trkpt><trkpt lat="41.4959893" lon="0.4611652"><ele>108.0</ele><time>2026-05-04T11:53:12.534Z</time></trkpt><trkpt lat="41.4961085" lon="0.4612338"><ele>108.0</ele><time>2026-05-04T11:53:13.53Z</time></trkpt><trkpt lat="41.496215" lon="0.4613005"><ele>108.0</ele><time>2026-05-04T11:53:14.518Z</time></trkpt><trkpt lat="41.4963183" lon="0.4613641"><ele>108.0</ele><time>2026-05-04T11:53:15.523Z</time></trkpt><trkpt lat="41.4964229" lon="0.4614222"><ele>108.4</ele><time>2026-05-04T11:53:16.52Z</time></trkpt><trkpt lat="41.4965256" lon="0.4614748"><ele>108.80000000000001</ele><time>2026-05-04T11:53:17.531Z</time></trkpt><trkpt lat="41.4966231" lon="0.4615408"><ele>109.2</ele><time>2026-05-04T11:53:18.53Z</time></trkpt><trkpt lat="41.4967223" lon="0.4616091"><ele>109.6</ele><time>2026-05-04T11:53:19.527Z</time></trkpt><trkpt lat="41.4968279" lon="0.4616715"><ele>110.0</ele><time>2026-05-04T11:53:20.53Z</time></trkpt><trkpt lat="41.4969321" lon="0.4617257"><ele>110.0</ele><time>2026-05-04T11:53:21.531Z</time></trkpt><trkpt lat="41.4970406" lon="0.461788"><ele>110.0</ele><time>2026-05-04T11:53:22.538Z</time></trkpt><trkpt lat="41.4971488" lon="0.4618532"><ele>110.0</ele><time>2026-05-04T11:53:23.531Z</time></trkpt><trkpt lat="41.4972599" lon="0.4619158"><ele>110.0</ele><time>2026-05-04T11:53:24.53Z</time></trkpt><trkpt lat="41.4973688" lon="0.4619775"><ele>110.4</ele><time>2026-05-04T11:53:25.536Z</time></trkpt><trkpt lat="41.4974779" lon="0.4620438"><ele>110.8</ele><time>2026-05-04T11:53:26.536Z</time></trkpt><trkpt lat="41.4975794" lon="0.4621146"><ele>111.19999999999999</ele><time>2026-05-04T11:53:27.541Z</time></trkpt><trkpt lat="41.4976748" lon="0.4621716"><ele>111.6</ele><time>2026-05-04T11:53:28.529Z</time></trkpt><trkpt lat="41.4977667" lon="0.4622216"><ele>112.0</ele><time>2026-05-04T11:53:29.534Z</time></trkpt><trkpt lat="41.4978545" lon="0.4622812"><ele>112.39999999999999</ele><time>2026-05-04T11:53:30.538Z</time></trkpt><trkpt lat="41.4979479" lon="0.4623415"><ele>112.79999999999998</ele><time>2026-05-04T11:53:31.531Z</time></trkpt><trkpt lat="41.4980373" lon="0.4624083"><ele>113.2</ele><time>2026-05-04T11:53:32.537Z</time></trkpt><trkpt lat="41.4981165" lon="0.4624935"><ele>113.6</ele><time>2026-05-04T11:53:33.529Z</time></trkpt><trkpt lat="41.4981719" lon="0.4625975"><ele>114.0</ele><time>2026-05-04T11:53:34.53Z</time></trkpt><trkpt lat="41.498214" lon="0.4627008"><ele>114.0</ele><time>2026-05-04T11:53:35.53Z</time></trkpt><trkpt lat="41.4982441" lon="0.4628038"><ele>114.0</ele><time>2026-05-04T11:53:36.53Z</time></trkpt><trkpt lat="41.4982578" lon="0.4629031"><ele>114.0</ele><time>2026-05-04T11:53:37.537Z</time></trkpt><trkpt lat="41.498267" lon="0.4629978"><ele>114.0</ele><time>2026-05-04T11:53:38.535Z</time></trkpt><trkpt lat="41.4982796" lon="0.4630823"><ele>114.0</ele><time>2026-05-04T11:53:39.538Z</time></trkpt><trkpt lat="41.498309" lon="0.4632531"><ele>114.0</ele><time>2026-05-04T11:53:41.538Z</time></trkpt><trkpt lat="41.4983243" lon="0.4633555"><ele>114.0</ele><time>2026-05-04T11:53:42.549Z</time></trkpt><trkpt lat="41.4983277" lon="0.4634614"><ele>114.0</ele><time>2026-05-04T11:53:43.546Z</time></trkpt><trkpt lat="41.4983358" lon="0.463559"><ele>114.0</ele><time>2026-05-04T11:53:44.535Z</time></trkpt><trkpt lat="41.4983556" lon="0.4636573"><ele>114.0</ele><time>2026-05-04T11:53:45.55Z</time></trkpt><trkpt lat="41.498397" lon="0.4637482"><ele>114.0</ele><time>2026-05-04T11:53:46.542Z</time></trkpt><trkpt lat="41.4984581" lon="0.4638339"><ele>114.0</ele><time>2026-05-04T11:53:47.544Z</time></trkpt><trkpt lat="41.498517" lon="0.4639341"><ele>113.6</ele><time>2026-05-04T11:53:48.553Z</time></trkpt><trkpt lat="41.498565" lon="0.4640457"><ele>113.2</ele><time>2026-05-04T11:53:49.538Z</time></trkpt><trkpt lat="41.4986141" lon="0.4641704"><ele>112.79999999999998</ele><time>2026-05-04T11:53:50.544Z</time></trkpt><trkpt lat="41.4986587" lon="0.4643066"><ele>112.39999999999999</ele><time>2026-05-04T11:53:51.546Z</time></trkpt><trkpt lat="41.4986973" lon="0.4644509"><ele>112.0</ele><time>2026-05-04T11:53:52.539Z</time></trkpt><trkpt lat="41.4987353" lon="0.4645906"><ele>113.0</ele><time>2026-05-04T11:53:53.544Z</time></trkpt><trkpt lat="41.4987757" lon="0.4647276"><ele>114.0</ele><time>2026-05-04T11:53:54.542Z</time></trkpt><trkpt lat="41.4988167" lon="0.4648725"><ele>115.0</ele><time>2026-05-04T11:53:55.548Z</time></trkpt><trkpt lat="41.4988558" lon="0.465017"><ele>116.0</ele><time>2026-05-04T11:53:56.544Z</time></trkpt><trkpt lat="41.4989012" lon="0.4651662"><ele>116.0</ele><time>2026-05-04T11:53:57.547Z</time></trkpt><trkpt lat="41.4989521" lon="0.4653176"><ele>116.0</ele><time>2026-05-04T11:53:58.548Z</time></trkpt><trkpt lat="41.4990014" lon="0.4654717"><ele>116.0</ele><time>2026-05-04T11:53:59.541Z</time></trkpt><trkpt lat="41.4990553" lon="0.4656143"><ele>116.0</ele><time>2026-05-04T11:54:00.551Z</time></trkpt><trkpt lat="41.4991108" lon="0.465754"><ele>115.75</ele><time>2026-05-04T11:54:01.547Z</time></trkpt><trkpt lat="41.4991663" lon="0.4658956"><ele>115.5</ele><time>2026-05-04T11:54:02.547Z</time></trkpt><trkpt lat="41.4992242" lon="0.4660383"><ele>115.25</ele><time>2026-05-04T11:54:03.545Z</time></trkpt><trkpt lat="41.499281" lon="0.4661795"><ele>115.0</ele><time>2026-05-04T11:54:04.548Z</time></trkpt><trkpt lat="41.4993423" lon="0.4663209"><ele>113.5</ele><time>2026-05-04T11:54:05.545Z</time></trkpt><trkpt lat="41.4994028" lon="0.4664615"><ele>112.0</ele><time>2026-05-04T11:54:06.547Z</time></trkpt><trkpt lat="41.4994665" lon="0.466602"><ele>110.5</ele><time>2026-05-04T11:54:07.547Z</time></trkpt><trkpt lat="41.4995353" lon="0.4667398"><ele>109.0</ele><time>2026-05-04T11:54:08.55Z</time></trkpt><trkpt lat="41.499604" lon="0.4668754"><ele>111.0</ele><time>2026-05-04T11:54:09.544Z</time></trkpt><trkpt lat="41.4996689" lon="0.467014"><ele>113.0</ele><time>2026-05-04T11:54:10.543Z</time></trkpt><trkpt lat="41.4997425" lon="0.467157"><ele>115.0</ele><time>2026-05-04T11:54:11.545Z</time></trkpt><trkpt lat="41.4998202" lon="0.4672918"><ele>117.0</ele><time>2026-05-04T11:54:12.548Z</time></trkpt><trkpt lat="41.4998928" lon="0.4674282"><ele>117.0</ele><time>2026-05-04T11:54:13.546Z</time></trkpt><trkpt lat="41.4999666" lon="0.4675668"><ele>117.0</ele><time>2026-05-04T11:54:14.538Z</time></trkpt><trkpt lat="41.500045" lon="0.4677112"><ele>117.0</ele><time>2026-05-04T11:54:15.542Z</time></trkpt><trkpt lat="41.500122" lon="0.4678547"><ele>117.0</ele><time>2026-05-04T11:54:16.543Z</time></trkpt><trkpt lat="41.500196" lon="0.4680019"><ele>118.5</ele><time>2026-05-04T11:54:17.541Z</time></trkpt><trkpt lat="41.5002705" lon="0.4681483"><ele>120.0</ele><time>2026-05-04T11:54:18.55Z</time></trkpt><trkpt lat="41.5003492" lon="0.4682966"><ele>121.5</ele><time>2026-05-04T11:54:19.542Z</time></trkpt><trkpt lat="41.5004248" lon="0.4684431"><ele>123.0</ele><time>2026-05-04T11:54:20.543Z</time></trkpt><trkpt lat="41.5004989" lon="0.4685994"><ele>123.0</ele><time>2026-05-04T11:54:21.546Z</time></trkpt><trkpt lat="41.500573" lon="0.4687562"><ele>123.0</ele><time>2026-05-04T11:54:22.549Z</time></trkpt><trkpt lat="41.5006442" lon="0.4689116"><ele>123.0</ele><time>2026-05-04T11:54:23.544Z</time></trkpt><trkpt lat="41.5007083" lon="0.4690551"><ele>123.0</ele><time>2026-05-04T11:54:24.546Z</time></trkpt><trkpt lat="41.5007687" lon="0.4692065"><ele>120.75</ele><time>2026-05-04T11:54:25.549Z</time></trkpt><trkpt lat="41.500816" lon="0.4693515"><ele>118.5</ele><time>2026-05-04T11:54:26.549Z</time></trkpt><trkpt lat="41.5008639" lon="0.4694932"><ele>116.25</ele><time>2026-05-04T11:54:27.554Z</time></trkpt><trkpt lat="41.5009095" lon="0.4696368"><ele>114.0</ele><time>2026-05-04T11:54:28.55Z</time></trkpt><trkpt lat="41.5009555" lon="0.4697795"><ele>113.25</ele><time>2026-05-04T11:54:29.547Z</time></trkpt><trkpt lat="41.5010033" lon="0.4699179"><ele>112.5</ele><time>2026-05-04T11:54:30.552Z</time></trkpt><trkpt lat="41.5010528" lon="0.4700599"><ele>111.75</ele><time>2026-05-04T11:54:31.554Z</time></trkpt><trkpt lat="41.5010983" lon="0.470206"><ele>111.0</ele><time>2026-05-04T11:54:32.548Z</time></trkpt><trkpt lat="41.5011433" lon="0.4703506"><ele>110.0</ele><time>2026-05-04T11:54:33.541Z</time></trkpt><trkpt lat="41.501197" lon="0.470495"><ele>109.0</ele><time>2026-05-04T11:54:34.549Z</time></trkpt><trkpt lat="41.5012596" lon="0.4706404"><ele>108.0</ele><time>2026-05-04T11:54:35.541Z</time></trkpt><trkpt lat="41.5013347" lon="0.4707859"><ele>107.0</ele><time>2026-05-04T11:54:36.54Z</time></trkpt><trkpt lat="41.5014214" lon="0.4709314"><ele>108.0</ele><time>2026-05-04T11:54:37.54Z</time></trkpt><trkpt lat="41.5015236" lon="0.4710685"><ele>109.0</ele><time>2026-05-04T11:54:38.541Z</time></trkpt><trkpt lat="41.501655" lon="0.4711844"><ele>110.0</ele><time>2026-05-04T11:54:39.546Z</time></trkpt><trkpt lat="41.5018003" lon="0.4712851"><ele>110.0</ele><time>2026-05-04T11:54:40.538Z</time></trkpt><trkpt lat="41.5019505" lon="0.4713849"><ele>110.0</ele><time>2026-05-04T11:54:41.542Z</time></trkpt><trkpt lat="41.502096" lon="0.4714769"><ele>110.0</ele><time>2026-05-04T11:54:42.542Z</time></trkpt><trkpt lat="41.5022401" lon="0.4715501"><ele>110.66666666666666</ele><time>2026-05-04T11:54:43.541Z</time></trkpt><trkpt lat="41.5023951" lon="0.4715971"><ele>111.33333333333334</ele><time>2026-05-04T11:54:44.546Z</time></trkpt><trkpt lat="41.5025565" lon="0.4716324"><ele>112.0</ele><time>2026-05-04T11:54:45.547Z</time></trkpt><trkpt lat="41.5027131" lon="0.4716581"><ele>112.0</ele><time>2026-05-04T11:54:46.545Z</time></trkpt><trkpt lat="41.5028663" lon="0.471678"><ele>112.0</ele><time>2026-05-04T11:54:47.548Z</time></trkpt><trkpt lat="41.5030166" lon="0.471706"><ele>112.0</ele><time>2026-05-04T11:54:48.547Z</time></trkpt><trkpt lat="41.5031696" lon="0.4717366"><ele>111.0</ele><time>2026-05-04T11:54:49.543Z</time></trkpt><trkpt lat="41.5033221" lon="0.4717667"><ele>110.0</ele><time>2026-05-04T11:54:50.54Z</time></trkpt><trkpt lat="41.5034703" lon="0.4717929"><ele>109.0</ele><time>2026-05-04T11:54:51.549Z</time></trkpt><trkpt lat="41.5036051" lon="0.4718287"><ele>108.0</ele><time>2026-05-04T11:54:52.552Z</time></trkpt><trkpt lat="41.5037411" lon="0.4718631"><ele>107.75</ele><time>2026-05-04T11:54:53.548Z</time></trkpt><trkpt lat="41.5038768" lon="0.4719014"><ele>107.5</ele><time>2026-05-04T11:54:54.547Z</time></trkpt><trkpt lat="41.5040165" lon="0.4719471"><ele>107.25</ele><time>2026-05-04T11:54:55.553Z</time></trkpt><trkpt lat="41.504152" lon="0.472001"><ele>107.0</ele><time>2026-05-04T11:54:56.55Z</time></trkpt><trkpt lat="41.5042884" lon="0.472071"><ele>107.25</ele><time>2026-05-04T11:54:57.552Z</time></trkpt><trkpt lat="41.5044117" lon="0.4721509"><ele>107.5</ele><time>2026-05-04T11:54:58.547Z</time></trkpt><trkpt lat="41.504536" lon="0.4722348"><ele>107.75</ele><time>2026-05-04T11:54:59.55Z</time></trkpt><trkpt lat="41.5046642" lon="0.4723383"><ele>108.0</ele><time>2026-05-04T11:55:00.552Z</time></trkpt><trkpt lat="41.5047863" lon="0.472447"><ele>109.25</ele><time>2026-05-04T11:55:01.548Z</time></trkpt><trkpt lat="41.5049024" lon="0.4725521"><ele>110.5</ele><time>2026-05-04T11:55:02.549Z</time></trkpt><trkpt lat="41.5050101" lon="0.4726636"><ele>111.75</ele><time>2026-05-04T11:55:03.547Z</time></trkpt><trkpt lat="41.5051088" lon="0.4727838"><ele>113.0</ele><time>2026-05-04T11:55:04.548Z</time></trkpt><trkpt lat="41.5052061" lon="0.4729025"><ele>112.0</ele><time>2026-05-04T11:55:05.543Z</time></trkpt><trkpt lat="41.5052983" lon="0.4730434"><ele>111.0</ele><time>2026-05-04T11:55:06.547Z</time></trkpt><trkpt lat="41.5053815" lon="0.4731795"><ele>110.0</ele><time>2026-05-04T11:55:07.549Z</time></trkpt><trkpt lat="41.5054659" lon="0.4733195"><ele>109.0</ele><time>2026-05-04T11:55:08.544Z</time></trkpt><trkpt lat="41.5055619" lon="0.4734497"><ele>109.5</ele><time>2026-05-04T11:55:09.551Z</time></trkpt><trkpt lat="41.505644" lon="0.4735836"><ele>110.0</ele><time>2026-05-04T11:55:10.552Z</time></trkpt><trkpt lat="41.5057259" lon="0.4737181"><ele>110.5</ele><time>2026-05-04T11:55:11.548Z</time></trkpt><trkpt lat="41.505811" lon="0.4738537"><ele>111.0</ele><time>2026-05-04T11:55:12.549Z</time></trkpt><trkpt lat="41.5058971" lon="0.4739812"><ele>111.0</ele><time>2026-05-04T11:55:13.55Z</time></trkpt><trkpt lat="41.5059838" lon="0.4741107"><ele>111.0</ele><time>2026-05-04T11:55:14.548Z</time></trkpt><trkpt lat="41.5060705" lon="0.4742399"><ele>111.0</ele><time>2026-05-04T11:55:15.548Z</time></trkpt><trkpt lat="41.5061653" lon="0.47436"><ele>111.0</ele><time>2026-05-04T11:55:16.544Z</time></trkpt><trkpt lat="41.5062654" lon="0.4744726"><ele>110.75</ele><time>2026-05-04T11:55:17.548Z</time></trkpt><trkpt lat="41.5063689" lon="0.4745744"><ele>110.5</ele><time>2026-05-04T11:55:18.543Z</time></trkpt><trkpt lat="41.5064779" lon="0.4746611"><ele>110.25</ele><time>2026-05-04T11:55:19.541Z</time></trkpt><trkpt lat="41.5065903" lon="0.4747389"><ele>110.0</ele><time>2026-05-04T11:55:20.546Z</time></trkpt><trkpt lat="41.5067085" lon="0.4748101"><ele>110.0</ele><time>2026-05-04T11:55:21.538Z</time></trkpt><trkpt lat="41.5068239" lon="0.4748712"><ele>110.0</ele><time>2026-05-04T11:55:22.547Z</time></trkpt><trkpt lat="41.5069402" lon="0.4749199"><ele>110.0</ele><time>2026-05-04T11:55:23.54Z</time></trkpt><trkpt lat="41.5070574" lon="0.4749554"><ele>110.0</ele><time>2026-05-04T11:55:24.54Z</time></trkpt><trkpt lat="41.5071749" lon="0.4749822"><ele>110.75</ele><time>2026-05-04T11:55:25.541Z</time></trkpt><trkpt lat="41.5072927" lon="0.4749946"><ele>111.5</ele><time>2026-05-04T11:55:26.538Z</time></trkpt><trkpt lat="41.5074135" lon="0.4749947"><ele>112.25</ele><time>2026-05-04T11:55:27.55Z</time></trkpt><trkpt lat="41.5075404" lon="0.4749905"><ele>113.0</ele><time>2026-05-04T11:55:28.548Z</time></trkpt><trkpt lat="41.5077979" lon="0.4749786"><ele>113.75</ele><time>2026-05-04T11:55:30.549Z</time></trkpt><trkpt lat="41.5079246" lon="0.4749785"><ele>114.5</ele><time>2026-05-04T11:55:31.543Z</time></trkpt><trkpt lat="41.5080571" lon="0.4749818"><ele>115.25</ele><time>2026-05-04T11:55:32.54Z</time></trkpt><trkpt lat="41.5081904" lon="0.4749989"><ele>116.0</ele><time>2026-05-04T11:55:33.54Z</time></trkpt><trkpt lat="41.5083213" lon="0.4750276"><ele>116.0</ele><time>2026-05-04T11:55:34.539Z</time></trkpt><trkpt lat="41.5084468" lon="0.4750675"><ele>116.0</ele><time>2026-05-04T11:55:35.54Z</time></trkpt><trkpt lat="41.5085761" lon="0.4751147"><ele>116.0</ele><time>2026-05-04T11:55:36.541Z</time></trkpt><trkpt lat="41.5087048" lon="0.4751699"><ele>116.0</ele><time>2026-05-04T11:55:37.541Z</time></trkpt><trkpt lat="41.5088346" lon="0.4752391"><ele>117.25</ele><time>2026-05-04T11:55:38.544Z</time></trkpt><trkpt lat="41.5089585" lon="0.475315"><ele>118.5</ele><time>2026-05-04T11:55:39.54Z</time></trkpt><trkpt lat="41.5090774" lon="0.4754032"><ele>119.75</ele><time>2026-05-04T11:55:40.541Z</time></trkpt><trkpt lat="41.509197" lon="0.4754892"><ele>121.0</ele><time>2026-05-04T11:55:41.544Z</time></trkpt><trkpt lat="41.5093189" lon="0.4755748"><ele>119.75</ele><time>2026-05-04T11:55:42.544Z</time></trkpt><trkpt lat="41.5094339" lon="0.4756668"><ele>118.5</ele><time>2026-05-04T11:55:43.545Z</time></trkpt><trkpt lat="41.5095569" lon="0.4757598"><ele>117.25</ele><time>2026-05-04T11:55:44.547Z</time></trkpt><trkpt lat="41.5096819" lon="0.4758444"><ele>116.0</ele><time>2026-05-04T11:55:45.545Z</time></trkpt><trkpt lat="41.5098024" lon="0.4759255"><ele>116.0</ele><time>2026-05-04T11:55:46.545Z</time></trkpt><trkpt lat="41.5099213" lon="0.4760167"><ele>116.0</ele><time>2026-05-04T11:55:47.539Z</time></trkpt><trkpt lat="41.510031" lon="0.4761048"><ele>116.0</ele><time>2026-05-04T11:55:48.548Z</time></trkpt><trkpt lat="41.5101448" lon="0.4761882"><ele>116.0</ele><time>2026-05-04T11:55:49.54Z</time></trkpt><trkpt lat="41.5102589" lon="0.4762665"><ele>115.25</ele><time>2026-05-04T11:55:50.539Z</time></trkpt><trkpt lat="41.5103731" lon="0.4763442"><ele>114.5</ele><time>2026-05-04T11:55:51.55Z</time></trkpt><trkpt lat="41.5104861" lon="0.4764285"><ele>113.75</ele><time>2026-05-04T11:55:52.551Z</time></trkpt><trkpt lat="41.5105963" lon="0.4765105"><ele>113.0</ele><time>2026-05-04T11:55:53.546Z</time></trkpt><trkpt lat="41.5107135" lon="0.4765965"><ele>113.0</ele><time>2026-05-04T11:55:54.544Z</time></trkpt><trkpt lat="41.5108318" lon="0.4766807"><ele>113.0</ele><time>2026-05-04T11:55:55.547Z</time></trkpt><trkpt lat="41.5109532" lon="0.4767591"><ele>113.0</ele><time>2026-05-04T11:55:56.544Z</time></trkpt><trkpt lat="41.5110772" lon="0.4768278"><ele>113.0</ele><time>2026-05-04T11:55:57.546Z</time></trkpt><trkpt lat="41.5112097" lon="0.4768935"><ele>114.75</ele><time>2026-05-04T11:55:58.545Z</time></trkpt><trkpt lat="41.511346" lon="0.4769504"><ele>116.5</ele><time>2026-05-04T11:55:59.545Z</time></trkpt><trkpt lat="41.5114805" lon="0.4770051"><ele>118.25</ele><time>2026-05-04T11:56:00.547Z</time></trkpt><trkpt lat="41.5116174" lon="0.4770418"><ele>120.0</ele><time>2026-05-04T11:56:01.546Z</time></trkpt><trkpt lat="41.511754" lon="0.4770865"><ele>118.0</ele><time>2026-05-04T11:56:02.542Z</time></trkpt><trkpt lat="41.5118888" lon="0.4771287"><ele>116.0</ele><time>2026-05-04T11:56:03.545Z</time></trkpt><trkpt lat="41.5120198" lon="0.4771687"><ele>114.0</ele><time>2026-05-04T11:56:04.543Z</time></trkpt><trkpt lat="41.5121412" lon="0.4772176"><ele>112.0</ele><time>2026-05-04T11:56:05.539Z</time></trkpt><trkpt lat="41.5122727" lon="0.4772626"><ele>112.0</ele><time>2026-05-04T11:56:06.544Z</time></trkpt><trkpt lat="41.5123958" lon="0.4773124"><ele>112.0</ele><time>2026-05-04T11:56:07.532Z</time></trkpt><trkpt lat="41.5125077" lon="0.4773542"><ele>112.0</ele><time>2026-05-04T11:56:08.538Z</time></trkpt><trkpt lat="41.5126342" lon="0.4773988"><ele>112.0</ele><time>2026-05-04T11:56:09.537Z</time></trkpt><trkpt lat="41.51276" lon="0.477459"><ele>112.0</ele><time>2026-05-04T11:56:10.54Z</time></trkpt><trkpt lat="41.5128848" lon="0.4775152"><ele>112.0</ele><time>2026-05-04T11:56:11.539Z</time></trkpt><trkpt lat="41.5130057" lon="0.4775652"><ele>112.0</ele><time>2026-05-04T11:56:12.544Z</time></trkpt><trkpt lat="41.5131369" lon="0.4776123"><ele>112.0</ele><time>2026-05-04T11:56:13.544Z</time></trkpt><trkpt lat="41.513259" lon="0.4776595"><ele>113.0</ele><time>2026-05-04T11:56:14.541Z</time></trkpt><trkpt lat="41.5133844" lon="0.4777043"><ele>114.0</ele><time>2026-05-04T11:56:15.546Z</time></trkpt><trkpt lat="41.5135082" lon="0.4777489"><ele>115.0</ele><time>2026-05-04T11:56:16.542Z</time></trkpt><trkpt lat="41.5136329" lon="0.4777967"><ele>116.0</ele><time>2026-05-04T11:56:17.547Z</time></trkpt><trkpt lat="41.5137562" lon="0.4778467"><ele>115.25</ele><time>2026-05-04T11:56:18.543Z</time></trkpt><trkpt lat="41.5138768" lon="0.4778967"><ele>114.5</ele><time>2026-05-04T11:56:19.549Z</time></trkpt><trkpt lat="41.5140032" lon="0.4779448"><ele>113.75</ele><time>2026-05-04T11:56:20.542Z</time></trkpt><trkpt lat="41.5141319" lon="0.4779929"><ele>113.0</ele><time>2026-05-04T11:56:21.542Z</time></trkpt><trkpt lat="41.5142629" lon="0.4780461"><ele>113.0</ele><time>2026-05-04T11:56:22.549Z</time></trkpt><trkpt lat="41.5143934" lon="0.4780969"><ele>113.0</ele><time>2026-05-04T11:56:23.545Z</time></trkpt><trkpt lat="41.5145299" lon="0.4781369"><ele>113.0</ele><time>2026-05-04T11:56:24.542Z</time></trkpt><trkpt lat="41.514667" lon="0.4781721"><ele>113.0</ele><time>2026-05-04T11:56:25.545Z</time></trkpt><trkpt lat="41.5148086" lon="0.4782052"><ele>113.75</ele><time>2026-05-04T11:56:26.544Z</time></trkpt><trkpt lat="41.5149437" lon="0.4782265"><ele>114.5</ele><time>2026-05-04T11:56:27.549Z</time></trkpt><trkpt lat="41.5150817" lon="0.4782374"><ele>115.25</ele><time>2026-05-04T11:56:28.548Z</time></trkpt><trkpt lat="41.5152217" lon="0.4782381"><ele>116.0</ele><time>2026-05-04T11:56:29.542Z</time></trkpt><trkpt lat="41.5153561" lon="0.4782374"><ele>115.75</ele><time>2026-05-04T11:56:30.549Z</time></trkpt><trkpt lat="41.5154836" lon="0.4782428"><ele>115.5</ele><time>2026-05-04T11:56:31.537Z</time></trkpt><trkpt lat="41.5156219" lon="0.4782418"><ele>115.25</ele><time>2026-05-04T11:56:32.546Z</time></trkpt><trkpt lat="41.5157619" lon="0.4782426"><ele>115.0</ele><time>2026-05-04T11:56:33.54Z</time></trkpt><trkpt lat="41.5159006" lon="0.4782532"><ele>115.0</ele><time>2026-05-04T11:56:34.535Z</time></trkpt><trkpt lat="41.5160439" lon="0.4782666"><ele>115.0</ele><time>2026-05-04T11:56:35.535Z</time></trkpt><trkpt lat="41.5161761" lon="0.4782791"><ele>115.0</ele><time>2026-05-04T11:56:36.535Z</time></trkpt><trkpt lat="41.5163166" lon="0.4782908"><ele>115.0</ele><time>2026-05-04T11:56:37.541Z</time></trkpt><trkpt lat="41.5164639" lon="0.4783005"><ele>116.0</ele><time>2026-05-04T11:56:38.533Z</time></trkpt><trkpt lat="41.5165976" lon="0.4783149"><ele>117.0</ele><time>2026-05-04T11:56:39.543Z</time></trkpt><trkpt lat="41.5167292" lon="0.4783293"><ele>118.0</ele><time>2026-05-04T11:56:40.538Z</time></trkpt><trkpt lat="41.5169701" lon="0.4783903"><ele>118.25</ele><time>2026-05-04T11:56:42.547Z</time></trkpt><trkpt lat="41.5170962" lon="0.4784383"><ele>118.5</ele><time>2026-05-04T11:56:43.542Z</time></trkpt><trkpt lat="41.517223" lon="0.4784859"><ele>118.75</ele><time>2026-05-04T11:56:44.54Z</time></trkpt><trkpt lat="41.517349" lon="0.4785319"><ele>119.0</ele><time>2026-05-04T11:56:45.545Z</time></trkpt><trkpt lat="41.517475" lon="0.47859"><ele>119.0</ele><time>2026-05-04T11:56:46.541Z</time></trkpt><trkpt lat="41.5176091" lon="0.4786494"><ele>119.0</ele><time>2026-05-04T11:56:47.54Z</time></trkpt><trkpt lat="41.5177345" lon="0.4787214"><ele>119.0</ele><time>2026-05-04T11:56:48.549Z</time></trkpt><trkpt lat="41.5178573" lon="0.4787951"><ele>119.0</ele><time>2026-05-04T11:56:49.545Z</time></trkpt><trkpt lat="41.5179776" lon="0.4788657"><ele>117.5</ele><time>2026-05-04T11:56:50.545Z</time></trkpt><trkpt lat="41.5180954" lon="0.4789461"><ele>116.0</ele><time>2026-05-04T11:56:51.546Z</time></trkpt><trkpt lat="41.518204" lon="0.4790337"><ele>114.5</ele><time>2026-05-04T11:56:52.55Z</time></trkpt><trkpt lat="41.5183124" lon="0.479113"><ele>113.0</ele><time>2026-05-04T11:56:53.547Z</time></trkpt><trkpt lat="41.5184245" lon="0.4791958"><ele>113.0</ele><time>2026-05-04T11:56:54.548Z</time></trkpt><trkpt lat="41.5185371" lon="0.4792786"><ele>113.0</ele><time>2026-05-04T11:56:55.553Z</time></trkpt><trkpt lat="41.5186549" lon="0.4793607"><ele>113.0</ele><time>2026-05-04T11:56:56.546Z</time></trkpt><trkpt lat="41.5187724" lon="0.4794314"><ele>113.0</ele><time>2026-05-04T11:56:57.56Z</time></trkpt><trkpt lat="41.5188891" lon="0.4794996"><ele>112.75</ele><time>2026-05-04T11:56:58.55Z</time></trkpt><trkpt lat="41.5190094" lon="0.4795661"><ele>112.5</ele><time>2026-05-04T11:56:59.559Z</time></trkpt><trkpt lat="41.5191365" lon="0.4796304"><ele>112.25</ele><time>2026-05-04T11:57:00.559Z</time></trkpt><trkpt lat="41.5192733" lon="0.4796762"><ele>112.0</ele><time>2026-05-04T11:57:01.56Z</time></trkpt><trkpt lat="41.5194126" lon="0.4797205"><ele>112.0</ele><time>2026-05-04T11:57:02.56Z</time></trkpt><trkpt lat="41.5195594" lon="0.4797728"><ele>112.0</ele><time>2026-05-04T11:57:03.557Z</time></trkpt><trkpt lat="41.5197042" lon="0.4798281"><ele>112.0</ele><time>2026-05-04T11:57:04.557Z</time></trkpt><trkpt lat="41.5198429" lon="0.4798807"><ele>112.0</ele><time>2026-05-04T11:57:05.565Z</time></trkpt><trkpt lat="41.5199885" lon="0.4799261"><ele>113.0</ele><time>2026-05-04T11:57:06.56Z</time></trkpt><trkpt lat="41.5201309" lon="0.4799715"><ele>114.0</ele><time>2026-05-04T11:57:07.553Z</time></trkpt><trkpt lat="41.5202749" lon="0.4800154"><ele>115.0</ele><time>2026-05-04T11:57:08.552Z</time></trkpt><trkpt lat="41.5204206" lon="0.4800613"><ele>116.0</ele><time>2026-05-04T11:57:09.548Z</time></trkpt><trkpt lat="41.5205514" lon="0.4801114"><ele>116.25</ele><time>2026-05-04T11:57:10.563Z</time></trkpt><trkpt lat="41.5206907" lon="0.4801624"><ele>116.5</ele><time>2026-05-04T11:57:11.561Z</time></trkpt><trkpt lat="41.5208176" lon="0.4802129"><ele>116.75</ele><time>2026-05-04T11:57:12.566Z</time></trkpt><trkpt lat="41.5209419" lon="0.4802562"><ele>117.0</ele><time>2026-05-04T11:57:13.563Z</time></trkpt><trkpt lat="41.5210696" lon="0.4802893"><ele>117.0</ele><time>2026-05-04T11:57:14.563Z</time></trkpt><trkpt lat="41.5211953" lon="0.4803258"><ele>117.0</ele><time>2026-05-04T11:57:15.569Z</time></trkpt><trkpt lat="41.5213169" lon="0.4803708"><ele>117.0</ele><time>2026-05-04T11:57:16.564Z</time></trkpt><trkpt lat="41.5214451" lon="0.4804147"><ele>117.0</ele><time>2026-05-04T11:57:17.559Z</time></trkpt><trkpt lat="41.5215758" lon="0.4804577"><ele>117.0</ele><time>2026-05-04T11:57:18.563Z</time></trkpt><trkpt lat="41.5217135" lon="0.4804934"><ele>117.0</ele><time>2026-05-04T11:57:19.56Z</time></trkpt><trkpt lat="41.5218444" lon="0.4805281"><ele>117.0</ele><time>2026-05-04T11:57:20.558Z</time></trkpt><trkpt lat="41.521974" lon="0.4805609"><ele>117.0</ele><time>2026-05-04T11:57:21.566Z</time></trkpt><trkpt lat="41.522109" lon="0.4805874"><ele>117.0</ele><time>2026-05-04T11:57:22.555Z</time></trkpt><trkpt lat="41.5222487" lon="0.4806261"><ele>117.0</ele><time>2026-05-04T11:57:23.559Z</time></trkpt><trkpt lat="41.5223866" lon="0.480662"><ele>117.0</ele><time>2026-05-04T11:57:24.557Z</time></trkpt><trkpt lat="41.5225344" lon="0.4806999"><ele>117.0</ele><time>2026-05-04T11:57:25.564Z</time></trkpt><trkpt lat="41.522682" lon="0.4807383"><ele>117.0</ele><time>2026-05-04T11:57:26.557Z</time></trkpt><trkpt lat="41.5228382" lon="0.4807826"><ele>117.0</ele><time>2026-05-04T11:57:27.566Z</time></trkpt><trkpt lat="41.5229825" lon="0.4808252"><ele>117.0</ele><time>2026-05-04T11:57:28.56Z</time></trkpt><trkpt lat="41.5231279" lon="0.480877"><ele>117.75</ele><time>2026-05-04T11:57:29.555Z</time></trkpt><trkpt lat="41.5232674" lon="0.4809357"><ele>118.5</ele><time>2026-05-04T11:57:30.557Z</time></trkpt><trkpt lat="41.5234114" lon="0.4809964"><ele>119.25</ele><time>2026-05-04T11:57:31.551Z</time></trkpt><trkpt lat="41.523546" lon="0.4810641"><ele>120.0</ele><time>2026-05-04T11:57:32.559Z</time></trkpt><trkpt lat="41.5236794" lon="0.4811325"><ele>119.0</ele><time>2026-05-04T11:57:33.56Z</time></trkpt><trkpt lat="41.5238175" lon="0.4812068"><ele>118.0</ele><time>2026-05-04T11:57:34.553Z</time></trkpt><trkpt lat="41.5239526" lon="0.4812947"><ele>117.0</ele><time>2026-05-04T11:57:35.546Z</time></trkpt><trkpt lat="41.5240868" lon="0.4813839"><ele>116.0</ele><time>2026-05-04T11:57:36.55Z</time></trkpt><trkpt lat="41.5242179" lon="0.4814752"><ele>116.0</ele><time>2026-05-04T11:57:37.557Z</time></trkpt><trkpt lat="41.5243428" lon="0.4815749"><ele>116.0</ele><time>2026-05-04T11:57:38.555Z</time></trkpt><trkpt lat="41.5244672" lon="0.4816765"><ele>116.0</ele><time>2026-05-04T11:57:39.561Z</time></trkpt><trkpt lat="41.5245917" lon="0.4817817"><ele>116.0</ele><time>2026-05-04T11:57:40.554Z</time></trkpt><trkpt lat="41.5247147" lon="0.4818884"><ele>115.5</ele><time>2026-05-04T11:57:41.559Z</time></trkpt><trkpt lat="41.5248385" lon="0.4819892"><ele>115.0</ele><time>2026-05-04T11:57:42.558Z</time></trkpt><trkpt lat="41.5249636" lon="0.4820976"><ele>114.5</ele><time>2026-05-04T11:57:43.562Z</time></trkpt><trkpt lat="41.5250831" lon="0.4822012"><ele>114.0</ele><time>2026-05-04T11:57:44.557Z</time></trkpt><trkpt lat="41.5251999" lon="0.4822975"><ele>114.0</ele><time>2026-05-04T11:57:45.559Z</time></trkpt><trkpt lat="41.525319" lon="0.4823909"><ele>114.0</ele><time>2026-05-04T11:57:46.558Z</time></trkpt><trkpt lat="41.5254415" lon="0.4824808"><ele>114.0</ele><time>2026-05-04T11:57:47.554Z</time></trkpt><trkpt lat="41.5255698" lon="0.4825645"><ele>114.0</ele><time>2026-05-04T11:57:48.55Z</time></trkpt><trkpt lat="41.5257022" lon="0.4826279"><ele>115.75</ele><time>2026-05-04T11:57:49.548Z</time></trkpt><trkpt lat="41.5258517" lon="0.4826829"><ele>117.5</ele><time>2026-05-04T11:57:50.555Z</time></trkpt><trkpt lat="41.5259974" lon="0.4827257"><ele>119.25</ele><time>2026-05-04T11:57:51.556Z</time></trkpt><trkpt lat="41.5261384" lon="0.482739"><ele>121.0</ele><time>2026-05-04T11:57:52.549Z</time></trkpt><trkpt lat="41.5262706" lon="0.4827418"><ele>121.0</ele><time>2026-05-04T11:57:53.551Z</time></trkpt><trkpt lat="41.5263903" lon="0.4827416"><ele>121.0</ele><time>2026-05-04T11:57:54.555Z</time></trkpt><trkpt lat="41.5265146" lon="0.4827347"><ele>121.0</ele><time>2026-05-04T11:57:55.554Z</time></trkpt><trkpt lat="41.5266424" lon="0.482726"><ele>121.0</ele><time>2026-05-04T11:57:56.556Z</time></trkpt><trkpt lat="41.5267566" lon="0.4827349"><ele>121.0</ele><time>2026-05-04T11:57:57.561Z</time></trkpt><trkpt lat="41.5268787" lon="0.4827469"><ele>121.0</ele><time>2026-05-04T11:57:58.555Z</time></trkpt><trkpt lat="41.5270024" lon="0.4827697"><ele>121.0</ele><time>2026-05-04T11:57:59.553Z</time></trkpt><trkpt lat="41.5271281" lon="0.4828135"><ele>121.0</ele><time>2026-05-04T11:58:00.557Z</time></trkpt><trkpt lat="41.527254" lon="0.482866"><ele>121.0</ele><time>2026-05-04T11:58:01.558Z</time></trkpt><trkpt lat="41.527378" lon="0.4829255"><ele>121.0</ele><time>2026-05-04T11:58:02.563Z</time></trkpt><trkpt lat="41.5275042" lon="0.4829935"><ele>121.0</ele><time>2026-05-04T11:58:03.554Z</time></trkpt><trkpt lat="41.5276177" lon="0.4830794"><ele>121.0</ele><time>2026-05-04T11:58:04.56Z</time></trkpt><trkpt lat="41.5277323" lon="0.4831717"><ele>121.5</ele><time>2026-05-04T11:58:05.56Z</time></trkpt><trkpt lat="41.5278467" lon="0.4832628"><ele>122.0</ele><time>2026-05-04T11:58:06.561Z</time></trkpt><trkpt lat="41.5279664" lon="0.4833532"><ele>122.5</ele><time>2026-05-04T11:58:07.562Z</time></trkpt><trkpt lat="41.528089" lon="0.483456"><ele>123.0</ele><time>2026-05-04T11:58:08.562Z</time></trkpt><trkpt lat="41.5282085" lon="0.4835577"><ele>123.0</ele><time>2026-05-04T11:58:09.565Z</time></trkpt><trkpt lat="41.5283199" lon="0.4836577"><ele>123.0</ele><time>2026-05-04T11:58:10.564Z</time></trkpt><trkpt lat="41.5284371" lon="0.4837585"><ele>123.0</ele><time>2026-05-04T11:58:11.562Z</time></trkpt><trkpt lat="41.528558" lon="0.4838493"><ele>123.0</ele><time>2026-05-04T11:58:12.56Z</time></trkpt><trkpt lat="41.5286812" lon="0.4839207"><ele>122.0</ele><time>2026-05-04T11:58:13.565Z</time></trkpt><trkpt lat="41.5288029" lon="0.4839912"><ele>121.0</ele><time>2026-05-04T11:58:14.563Z</time></trkpt><trkpt lat="41.5289284" lon="0.4840447"><ele>120.0</ele><time>2026-05-04T11:58:15.564Z</time></trkpt><trkpt lat="41.5290542" lon="0.4840805"><ele>119.0</ele><time>2026-05-04T11:58:16.555Z</time></trkpt><trkpt lat="41.5291775" lon="0.4840987"><ele>119.0</ele><time>2026-05-04T11:58:17.557Z</time></trkpt><trkpt lat="41.5292904" lon="0.4841092"><ele>119.0</ele><time>2026-05-04T11:58:18.561Z</time></trkpt><trkpt lat="41.5294092" lon="0.4841165"><ele>119.0</ele><time>2026-05-04T11:58:19.556Z</time></trkpt><trkpt lat="41.5295153" lon="0.4841216"><ele>119.0</ele><time>2026-05-04T11:58:20.56Z</time></trkpt><trkpt lat="41.5296117" lon="0.4841187"><ele>119.0</ele><time>2026-05-04T11:58:21.553Z</time></trkpt><trkpt lat="41.5297017" lon="0.4841223"><ele>119.4</ele><time>2026-05-04T11:58:22.558Z</time></trkpt><trkpt lat="41.5297967" lon="0.4841271"><ele>119.80000000000001</ele><time>2026-05-04T11:58:23.547Z</time></trkpt><trkpt lat="41.5298851" lon="0.4841495"><ele>120.19999999999999</ele><time>2026-05-04T11:58:24.557Z</time></trkpt><trkpt lat="41.5299592" lon="0.4841963"><ele>120.6</ele><time>2026-05-04T11:58:25.56Z</time></trkpt><trkpt lat="41.5300236" lon="0.4843416"><ele>121.0</ele><time>2026-05-04T11:58:27.568Z</time></trkpt><trkpt lat="41.5300923" lon="0.4844224"><ele>121.00000000000001</ele><time>2026-05-04T11:58:29.561Z</time></trkpt><trkpt lat="41.530151" lon="0.4843501"><ele>121.0</ele><time>2026-05-04T11:58:31.564Z</time></trkpt><trkpt lat="41.530171" lon="0.4841911"><ele>121.0</ele><time>2026-05-04T11:58:33.555Z</time></trkpt><trkpt lat="41.5301697" lon="0.4840904"><ele>121.0</ele><time>2026-05-04T11:58:34.555Z</time></trkpt><trkpt lat="41.530198" lon="0.4839899"><ele>121.00000000000001</ele><time>2026-05-04T11:58:35.559Z</time></trkpt><trkpt lat="41.5302364" lon="0.4839174"><ele>121.0</ele><time>2026-05-04T11:58:36.554Z</time></trkpt><trkpt lat="41.5302964" lon="0.4838898"><ele>121.0</ele><time>2026-05-04T11:58:37.562Z</time></trkpt><trkpt lat="41.5303759" lon="0.4838833"><ele>121.0</ele><time>2026-05-04T11:58:38.555Z</time></trkpt><trkpt lat="41.5304644" lon="0.4838819"><ele>121.0</ele><time>2026-05-04T11:58:39.558Z</time></trkpt><trkpt lat="41.5305563" lon="0.483865"><ele>121.0</ele><time>2026-05-04T11:58:40.559Z</time></trkpt><trkpt lat="41.5306506" lon="0.4838476"><ele>121.0</ele><time>2026-05-04T11:58:41.56Z</time></trkpt><trkpt lat="41.5307484" lon="0.4838234"><ele>120.5</ele><time>2026-05-04T11:58:42.559Z</time></trkpt><trkpt lat="41.5308527" lon="0.4838014"><ele>120.0</ele><time>2026-05-04T11:58:43.557Z</time></trkpt><trkpt lat="41.5309619" lon="0.4837845"><ele>119.5</ele><time>2026-05-04T11:58:44.562Z</time></trkpt><trkpt lat="41.5310783" lon="0.4837591"><ele>119.0</ele><time>2026-05-04T11:58:45.57Z</time></trkpt><trkpt lat="41.5311995" lon="0.483732"><ele>119.5</ele><time>2026-05-04T11:58:46.563Z</time></trkpt><trkpt lat="41.5313212" lon="0.4837075"><ele>120.0</ele><time>2026-05-04T11:58:47.564Z</time></trkpt><trkpt lat="41.5314411" lon="0.4836814"><ele>120.5</ele><time>2026-05-04T11:58:48.559Z</time></trkpt><trkpt lat="41.5315665" lon="0.4836564"><ele>121.0</ele><time>2026-05-04T11:58:49.563Z</time></trkpt><trkpt lat="41.531689" lon="0.4836329"><ele>121.0</ele><time>2026-05-04T11:58:50.564Z</time></trkpt><trkpt lat="41.5318118" lon="0.4836104"><ele>121.0</ele><time>2026-05-04T11:58:51.563Z</time></trkpt><trkpt lat="41.5319345" lon="0.4835896"><ele>121.0</ele><time>2026-05-04T11:58:52.561Z</time></trkpt><trkpt lat="41.532054" lon="0.4835712"><ele>121.0</ele><time>2026-05-04T11:58:53.562Z</time></trkpt><trkpt lat="41.5321671" lon="0.4835574"><ele>122.6</ele><time>2026-05-04T11:58:54.568Z</time></trkpt><trkpt lat="41.5322783" lon="0.4835484"><ele>124.19999999999999</ele><time>2026-05-04T11:58:55.561Z</time></trkpt><trkpt lat="41.5323842" lon="0.4835421"><ele>125.80000000000001</ele><time>2026-05-04T11:58:56.563Z</time></trkpt><trkpt lat="41.5324844" lon="0.4835356"><ele>127.4</ele><time>2026-05-04T11:58:57.564Z</time></trkpt><trkpt lat="41.5325847" lon="0.4835337"><ele>129.0</ele><time>2026-05-04T11:58:58.559Z</time></trkpt><trkpt lat="41.5326855" lon="0.4835342"><ele>129.0</ele><time>2026-05-04T11:58:59.559Z</time></trkpt><trkpt lat="41.5327873" lon="0.4835352"><ele>129.0</ele><time>2026-05-04T11:59:00.566Z</time></trkpt><trkpt lat="41.5328929" lon="0.4835404"><ele>129.0</ele><time>2026-05-04T11:59:01.559Z</time></trkpt><trkpt lat="41.5330012" lon="0.4835476"><ele>129.0</ele><time>2026-05-04T11:59:02.556Z</time></trkpt><trkpt lat="41.5331037" lon="0.4835538"><ele>129.0</ele><time>2026-05-04T11:59:03.554Z</time></trkpt><trkpt lat="41.5332085" lon="0.483566"><ele>130.6</ele><time>2026-05-04T11:59:04.542Z</time></trkpt><trkpt lat="41.5333151" lon="0.4835851"><ele>132.2</ele><time>2026-05-04T11:59:05.546Z</time></trkpt><trkpt lat="41.5334239" lon="0.4836069"><ele>133.79999999999998</ele><time>2026-05-04T11:59:06.547Z</time></trkpt><trkpt lat="41.5335364" lon="0.4836372"><ele>135.4</ele><time>2026-05-04T11:59:07.548Z</time></trkpt><trkpt lat="41.5336498" lon="0.4836696"><ele>137.0</ele><time>2026-05-04T11:59:08.556Z</time></trkpt><trkpt lat="41.5337645" lon="0.4837024"><ele>137.0</ele><time>2026-05-04T11:59:09.558Z</time></trkpt><trkpt lat="41.5338854" lon="0.4837327"><ele>137.0</ele><time>2026-05-04T11:59:10.554Z</time></trkpt><trkpt lat="41.5340042" lon="0.4837612"><ele>137.0</ele><time>2026-05-04T11:59:11.561Z</time></trkpt><trkpt lat="41.5341273" lon="0.4837954"><ele>137.0</ele><time>2026-05-04T11:59:12.56Z</time></trkpt><trkpt lat="41.5342521" lon="0.4838265"><ele>137.5</ele><time>2026-05-04T11:59:13.576Z</time></trkpt><trkpt lat="41.5343803" lon="0.4838634"><ele>138.0</ele><time>2026-05-04T11:59:14.557Z</time></trkpt><trkpt lat="41.5345078" lon="0.4838954"><ele>138.5</ele><time>2026-05-04T11:59:15.563Z</time></trkpt><trkpt lat="41.5346332" lon="0.4839277"><ele>139.0</ele><time>2026-05-04T11:59:16.561Z</time></trkpt><trkpt lat="41.5347572" lon="0.4839616"><ele>139.0</ele><time>2026-05-04T11:59:17.572Z</time></trkpt><trkpt lat="41.5348808" lon="0.483994"><ele>139.0</ele><time>2026-05-04T11:59:18.566Z</time></trkpt><trkpt lat="41.5350024" lon="0.4840275"><ele>139.0</ele><time>2026-05-04T11:59:19.566Z</time></trkpt><trkpt lat="41.5351257" lon="0.4840639"><ele>139.0</ele><time>2026-05-04T11:59:20.565Z</time></trkpt><trkpt lat="41.5352516" lon="0.4841023"><ele>139.0</ele><time>2026-05-04T11:59:21.567Z</time></trkpt><trkpt lat="41.5353737" lon="0.4841354"><ele>139.0</ele><time>2026-05-04T11:59:22.564Z</time></trkpt><trkpt lat="41.5354916" lon="0.4841649"><ele>139.0</ele><time>2026-05-04T11:59:23.559Z</time></trkpt><trkpt lat="41.535606" lon="0.4841969"><ele>139.0</ele><time>2026-05-04T11:59:24.558Z</time></trkpt><trkpt lat="41.5357183" lon="0.4842292"><ele>139.0</ele><time>2026-05-04T11:59:25.559Z</time></trkpt><trkpt lat="41.5359367" lon="0.4842901"><ele>139.0</ele><time>2026-05-04T11:59:27.564Z</time></trkpt><trkpt lat="41.5360408" lon="0.484322"><ele>139.0</ele><time>2026-05-04T11:59:28.568Z</time></trkpt><trkpt lat="41.5361367" lon="0.4843516"><ele>139.0</ele><time>2026-05-04T11:59:29.559Z</time></trkpt><trkpt lat="41.5362331" lon="0.4843832"><ele>139.0</ele><time>2026-05-04T11:59:30.566Z</time></trkpt><trkpt lat="41.536324" lon="0.4844239"><ele>139.0</ele><time>2026-05-04T11:59:31.56Z</time></trkpt><trkpt lat="41.5364089" lon="0.4844764"><ele>139.0</ele><time>2026-05-04T11:59:32.562Z</time></trkpt><trkpt lat="41.5364877" lon="0.4845393"><ele>139.0</ele><time>2026-05-04T11:59:33.562Z</time></trkpt><trkpt lat="41.5365511" lon="0.4845997"><ele>139.0</ele><time>2026-05-04T11:59:34.57Z</time></trkpt><trkpt lat="41.5366134" lon="0.4846379"><ele>139.0</ele><time>2026-05-04T11:59:35.571Z</time></trkpt><trkpt lat="41.5366876" lon="0.4846396"><ele>138.5</ele><time>2026-05-04T11:59:36.565Z</time></trkpt><trkpt lat="41.5367611" lon="0.4846356"><ele>138.0</ele><time>2026-05-04T11:59:37.568Z</time></trkpt><trkpt lat="41.5368376" lon="0.4846566"><ele>137.5</ele><time>2026-05-04T11:59:38.566Z</time></trkpt><trkpt lat="41.53691" lon="0.4847097"><ele>137.0</ele><time>2026-05-04T11:59:39.582Z</time></trkpt><trkpt lat="41.5369735" lon="0.4847988"><ele>136.5</ele><time>2026-05-04T11:59:40.563Z</time></trkpt><trkpt lat="41.5370389" lon="0.48491"><ele>136.0</ele><time>2026-05-04T11:59:41.558Z</time></trkpt><trkpt lat="41.5371087" lon="0.485032"><ele>136.0</ele><time>2026-05-04T11:59:42.566Z</time></trkpt><trkpt lat="41.537176" lon="0.4851621"><ele>136.0</ele><time>2026-05-04T11:59:43.569Z</time></trkpt><trkpt lat="41.5372486" lon="0.4852942"><ele>136.0</ele><time>2026-05-04T11:59:44.56Z</time></trkpt><trkpt lat="41.5373198" lon="0.4854321"><ele>136.0</ele><time>2026-05-04T11:59:45.561Z</time></trkpt><trkpt lat="41.537395" lon="0.4855807"><ele>135.5</ele><time>2026-05-04T11:59:46.561Z</time></trkpt><trkpt lat="41.5374692" lon="0.4857338"><ele>135.0</ele><time>2026-05-04T11:59:47.563Z</time></trkpt><trkpt lat="41.5375485" lon="0.4858902"><ele>134.5</ele><time>2026-05-04T11:59:48.575Z</time></trkpt><trkpt lat="41.5376288" lon="0.4860573"><ele>134.0</ele><time>2026-05-04T11:59:49.568Z</time></trkpt><trkpt lat="41.5377158" lon="0.4862344"><ele>133.25</ele><time>2026-05-04T11:59:50.562Z</time></trkpt><trkpt lat="41.5378019" lon="0.4864033"><ele>132.5</ele><time>2026-05-04T11:59:51.57Z</time></trkpt><trkpt lat="41.537881" lon="0.4865602"><ele>131.75</ele><time>2026-05-04T11:59:52.565Z</time></trkpt><trkpt lat="41.537963" lon="0.4867231"><ele>131.0</ele><time>2026-05-04T11:59:53.569Z</time></trkpt><trkpt lat="41.5380395" lon="0.4868718"><ele>130.5</ele><time>2026-05-04T11:59:54.562Z</time></trkpt><trkpt lat="41.5381211" lon="0.4870128"><ele>130.0</ele><time>2026-05-04T11:59:55.55Z</time></trkpt><trkpt lat="41.5381843" lon="0.4871435"><ele>129.5</ele><time>2026-05-04T11:59:56.554Z</time></trkpt><trkpt lat="41.5382467" lon="0.4872792"><ele>129.0</ele><time>2026-05-04T11:59:57.566Z</time></trkpt><trkpt lat="41.5383123" lon="0.4874175"><ele>128.0</ele><time>2026-05-04T11:59:58.565Z</time></trkpt><trkpt lat="41.5383789" lon="0.487549"><ele>127.0</ele><time>2026-05-04T11:59:59.555Z</time></trkpt><trkpt lat="41.53844" lon="0.4876678"><ele>126.0</ele><time>2026-05-04T12:00:00.564Z</time></trkpt><trkpt lat="41.5384906" lon="0.4877781"><ele>125.0</ele><time>2026-05-04T12:00:01.557Z</time></trkpt><trkpt lat="41.5385431" lon="0.4878834"><ele>124.0</ele><time>2026-05-04T12:00:02.545Z</time></trkpt><trkpt lat="41.5385873" lon="0.4879927"><ele>123.6</ele><time>2026-05-04T12:00:03.557Z</time></trkpt><trkpt lat="41.5386208" lon="0.4880935"><ele>123.2</ele><time>2026-05-04T12:00:04.562Z</time></trkpt><trkpt lat="41.5386303" lon="0.4881899"><ele>122.79999999999998</ele><time>2026-05-04T12:00:05.555Z</time></trkpt><trkpt lat="41.5385986" lon="0.4883411"><ele>122.39999999999999</ele><time>2026-05-04T12:00:07.55Z</time></trkpt><trkpt lat="41.5386241" lon="0.4884636"><ele>122.0</ele><time>2026-05-04T12:00:09.558Z</time></trkpt><trkpt lat="41.5387491" lon="0.4884994"><ele>122.0</ele><time>2026-05-04T12:00:11.55Z</time></trkpt><trkpt lat="41.5388283" lon="0.4885066"><ele>121.99999999999999</ele><time>2026-05-04T12:00:12.558Z</time></trkpt><trkpt lat="41.5389192" lon="0.4885242"><ele>121.99999999999999</ele><time>2026-05-04T12:00:13.562Z</time></trkpt><trkpt lat="41.5390171" lon="0.4885741"><ele>122.0</ele><time>2026-05-04T12:00:14.563Z</time></trkpt><trkpt lat="41.5391123" lon="0.4886467"><ele>122.0</ele><time>2026-05-04T12:00:15.565Z</time></trkpt><trkpt lat="41.5392137" lon="0.4887136"><ele>121.75</ele><time>2026-05-04T12:00:16.563Z</time></trkpt><trkpt lat="41.5393188" lon="0.4887894"><ele>121.5</ele><time>2026-05-04T12:00:17.57Z</time></trkpt><trkpt lat="41.539433" lon="0.4888566"><ele>121.25</ele><time>2026-05-04T12:00:18.573Z</time></trkpt><trkpt lat="41.5395552" lon="0.4889262"><ele>121.0</ele><time>2026-05-04T12:00:19.572Z</time></trkpt><trkpt lat="41.5396685" lon="0.4889852"><ele>121.5</ele><time>2026-05-04T12:00:20.575Z</time></trkpt><trkpt lat="41.5397838" lon="0.4890407"><ele>122.0</ele><time>2026-05-04T12:00:21.576Z</time></trkpt><trkpt lat="41.5399026" lon="0.4890988"><ele>122.5</ele><time>2026-05-04T12:00:22.571Z</time></trkpt><trkpt lat="41.5400243" lon="0.4891567"><ele>123.0</ele><time>2026-05-04T12:00:23.57Z</time></trkpt><trkpt lat="41.5401491" lon="0.4892159"><ele>123.0</ele><time>2026-05-04T12:00:24.578Z</time></trkpt><trkpt lat="41.5402649" lon="0.4892765"><ele>123.0</ele><time>2026-05-04T12:00:25.581Z</time></trkpt><trkpt lat="41.5403806" lon="0.489335"><ele>123.0</ele><time>2026-05-04T12:00:26.578Z</time></trkpt><trkpt lat="41.540493" lon="0.4894009"><ele>123.0</ele><time>2026-05-04T12:00:27.569Z</time></trkpt><trkpt lat="41.5406111" lon="0.4894781"><ele>123.0</ele><time>2026-05-04T12:00:28.567Z</time></trkpt><trkpt lat="41.5407333" lon="0.4895593"><ele>123.0</ele><time>2026-05-04T12:00:29.554Z</time></trkpt><trkpt lat="41.5408535" lon="0.489664"><ele>123.0</ele><time>2026-05-04T12:00:30.57Z</time></trkpt><trkpt lat="41.5409845" lon="0.4897817"><ele>123.0</ele><time>2026-05-04T12:00:31.561Z</time></trkpt><trkpt lat="41.5411097" lon="0.489893"><ele>123.0</ele><time>2026-05-04T12:00:32.559Z</time></trkpt><trkpt lat="41.5412219" lon="0.4900068"><ele>123.0</ele><time>2026-05-04T12:00:33.57Z</time></trkpt><trkpt lat="41.5413367" lon="0.4901265"><ele>123.0</ele><time>2026-05-04T12:00:34.57Z</time></trkpt><trkpt lat="41.5414584" lon="0.4902421"><ele>123.0</ele><time>2026-05-04T12:00:35.562Z</time></trkpt><trkpt lat="41.5415771" lon="0.4903508"><ele>122.75</ele><time>2026-05-04T12:00:36.57Z</time></trkpt><trkpt lat="41.5416882" lon="0.4904544"><ele>122.5</ele><time>2026-05-04T12:00:37.573Z</time></trkpt><trkpt lat="41.5418069" lon="0.4905665"><ele>122.25</ele><time>2026-05-04T12:00:38.584Z</time></trkpt><trkpt lat="41.5419295" lon="0.4906766"><ele>122.0</ele><time>2026-05-04T12:00:39.577Z</time></trkpt><trkpt lat="41.5420424" lon="0.4907741"><ele>122.8</ele><time>2026-05-04T12:00:40.564Z</time></trkpt><trkpt lat="41.5421277" lon="0.4908568"><ele>123.6</ele><time>2026-05-04T12:00:41.578Z</time></trkpt><trkpt lat="41.5422118" lon="0.4909303"><ele>124.39999999999999</ele><time>2026-05-04T12:00:42.574Z</time></trkpt><trkpt lat="41.5422926" lon="0.4910045"><ele>125.19999999999999</ele><time>2026-05-04T12:00:43.578Z</time></trkpt><trkpt lat="41.5423665" lon="0.4910748"><ele>126.0</ele><time>2026-05-04T12:00:44.574Z</time></trkpt><trkpt lat="41.5424372" lon="0.4911498"><ele>126.0</ele><time>2026-05-04T12:00:45.573Z</time></trkpt><trkpt lat="41.5425177" lon="0.4912315"><ele>126.0</ele><time>2026-05-04T12:00:46.578Z</time></trkpt><trkpt lat="41.5425973" lon="0.4913132"><ele>126.0</ele><time>2026-05-04T12:00:47.572Z</time></trkpt><trkpt lat="41.5426854" lon="0.4913863"><ele>126.0</ele><time>2026-05-04T12:00:48.574Z</time></trkpt><trkpt lat="41.5427707" lon="0.4914646"><ele>126.0</ele><time>2026-05-04T12:00:49.576Z</time></trkpt><trkpt lat="41.5428567" lon="0.4915417"><ele>127.6</ele><time>2026-05-04T12:00:50.578Z</time></trkpt><trkpt lat="41.5429358" lon="0.4916216"><ele>129.2</ele><time>2026-05-04T12:00:51.577Z</time></trkpt><trkpt lat="41.5430209" lon="0.4916999"><ele>130.8</ele><time>2026-05-04T12:00:52.581Z</time></trkpt><trkpt lat="41.5431117" lon="0.4917816"><ele>132.4</ele><time>2026-05-04T12:00:53.573Z</time></trkpt><trkpt lat="41.5432044" lon="0.4918592"><ele>134.0</ele><time>2026-05-04T12:00:54.575Z</time></trkpt><trkpt lat="41.5432994" lon="0.4919334"><ele>134.0</ele><time>2026-05-04T12:00:55.579Z</time></trkpt><trkpt lat="41.5434008" lon="0.4920135"><ele>134.0</ele><time>2026-05-04T12:00:56.577Z</time></trkpt><trkpt lat="41.5435086" lon="0.4920881"><ele>134.0</ele><time>2026-05-04T12:00:57.578Z</time></trkpt><trkpt lat="41.5436227" lon="0.4921612"><ele>134.0</ele><time>2026-05-04T12:00:58.579Z</time></trkpt><trkpt lat="41.5437372" lon="0.4922349"><ele>133.25</ele><time>2026-05-04T12:00:59.578Z</time></trkpt><trkpt lat="41.543857" lon="0.4923046"><ele>132.5</ele><time>2026-05-04T12:01:00.582Z</time></trkpt><trkpt lat="41.5439843" lon="0.4923753"><ele>131.75</ele><time>2026-05-04T12:01:01.572Z</time></trkpt><trkpt lat="41.5441139" lon="0.4924517"><ele>131.0</ele><time>2026-05-04T12:01:02.573Z</time></trkpt><trkpt lat="41.5442455" lon="0.4925254"><ele>131.0</ele><time>2026-05-04T12:01:03.571Z</time></trkpt><trkpt lat="41.5443843" lon="0.4926095"><ele>131.0</ele><time>2026-05-04T12:01:04.572Z</time></trkpt><trkpt lat="41.5445179" lon="0.492697"><ele>131.0</ele><time>2026-05-04T12:01:05.57Z</time></trkpt><trkpt lat="41.5446562" lon="0.4927843"><ele>129.0</ele><time>2026-05-04T12:01:06.571Z</time></trkpt><trkpt lat="41.5448009" lon="0.4928787"><ele>127.0</ele><time>2026-05-04T12:01:07.562Z</time></trkpt><trkpt lat="41.5449544" lon="0.4929723"><ele>125.0</ele><time>2026-05-04T12:01:08.566Z</time></trkpt><trkpt lat="41.5451029" lon="0.4930646"><ele>124.33333333333333</ele><time>2026-05-04T12:01:09.573Z</time></trkpt><trkpt lat="41.5452493" lon="0.4931547"><ele>123.66666666666666</ele><time>2026-05-04T12:01:10.572Z</time></trkpt><trkpt lat="41.5454002" lon="0.4932483"><ele>123.0</ele><time>2026-05-04T12:01:11.574Z</time></trkpt><trkpt lat="41.54554" lon="0.4933337"><ele>124.0</ele><time>2026-05-04T12:01:12.568Z</time></trkpt><trkpt lat="41.5456758" lon="0.4934124"><ele>125.0</ele><time>2026-05-04T12:01:13.567Z</time></trkpt><trkpt lat="41.5458131" lon="0.4934818"><ele>126.0</ele><time>2026-05-04T12:01:14.572Z</time></trkpt><trkpt lat="41.5459403" lon="0.4935614"><ele>127.0</ele><time>2026-05-04T12:01:15.569Z</time></trkpt><trkpt lat="41.5460683" lon="0.4936331"><ele>127.0</ele><time>2026-05-04T12:01:16.574Z</time></trkpt><trkpt lat="41.5461975" lon="0.493721"><ele>127.0</ele><time>2026-05-04T12:01:17.577Z</time></trkpt><trkpt lat="41.5463232" lon="0.493799"><ele>127.0</ele><time>2026-05-04T12:01:18.573Z</time></trkpt><trkpt lat="41.546456" lon="0.4938716"><ele>127.0</ele><time>2026-05-04T12:01:19.57Z</time></trkpt><trkpt lat="41.5465845" lon="0.4939471"><ele>126.75</ele><time>2026-05-04T12:01:20.572Z</time></trkpt><trkpt lat="41.5467098" lon="0.494022"><ele>126.5</ele><time>2026-05-04T12:01:21.566Z</time></trkpt><trkpt lat="41.5468334" lon="0.494102"><ele>126.25</ele><time>2026-05-04T12:01:22.576Z</time></trkpt><trkpt lat="41.5469649" lon="0.4941813"><ele>126.0</ele><time>2026-05-04T12:01:23.574Z</time></trkpt><trkpt lat="41.5470892" lon="0.4942691"><ele>126.0</ele><time>2026-05-04T12:01:24.571Z</time></trkpt><trkpt lat="41.5472115" lon="0.4943518"><ele>126.0</ele><time>2026-05-04T12:01:25.57Z</time></trkpt><trkpt lat="41.5473308" lon="0.4944178"><ele>126.0</ele><time>2026-05-04T12:01:26.572Z</time></trkpt><trkpt lat="41.5474609" lon="0.4944944"><ele>126.0</ele><time>2026-05-04T12:01:27.57Z</time></trkpt><trkpt lat="41.5475884" lon="0.4945721"><ele>126.0</ele><time>2026-05-04T12:01:28.575Z</time></trkpt><trkpt lat="41.5477099" lon="0.494648"><ele>126.0</ele><time>2026-05-04T12:01:29.572Z</time></trkpt><trkpt lat="41.547842" lon="0.4947294"><ele>126.0</ele><time>2026-05-04T12:01:30.581Z</time></trkpt><trkpt lat="41.5479636" lon="0.494806"><ele>126.0</ele><time>2026-05-04T12:01:31.571Z</time></trkpt><trkpt lat="41.5480917" lon="0.4948797"><ele>126.0</ele><time>2026-05-04T12:01:32.573Z</time></trkpt><trkpt lat="41.5482114" lon="0.4949595"><ele>126.0</ele><time>2026-05-04T12:01:33.575Z</time></trkpt><trkpt lat="41.5483387" lon="0.4950283"><ele>126.0</ele><time>2026-05-04T12:01:34.569Z</time></trkpt><trkpt lat="41.5484579" lon="0.4951055"><ele>126.0</ele><time>2026-05-04T12:01:35.574Z</time></trkpt><trkpt lat="41.5485798" lon="0.4951864"><ele>126.0</ele><time>2026-05-04T12:01:36.57Z</time></trkpt><trkpt lat="41.5487116" lon="0.4952603"><ele>126.0</ele><time>2026-05-04T12:01:37.571Z</time></trkpt><trkpt lat="41.5488344" lon="0.4953394"><ele>126.0</ele><time>2026-05-04T12:01:38.573Z</time></trkpt><trkpt lat="41.5489625" lon="0.4954142"><ele>126.0</ele><time>2026-05-04T12:01:39.576Z</time></trkpt><trkpt lat="41.5490963" lon="0.4954849"><ele>125.75</ele><time>2026-05-04T12:01:40.57Z</time></trkpt><trkpt lat="41.5492217" lon="0.4955634"><ele>125.5</ele><time>2026-05-04T12:01:41.572Z</time></trkpt><trkpt lat="41.5493525" lon="0.4956505"><ele>125.25</ele><time>2026-05-04T12:01:42.57Z</time></trkpt><trkpt lat="41.5494738" lon="0.4957208"><ele>125.0</ele><time>2026-05-04T12:01:43.567Z</time></trkpt><trkpt lat="41.5495962" lon="0.495791"><ele>125.75</ele><time>2026-05-04T12:01:44.564Z</time></trkpt><trkpt lat="41.5497178" lon="0.4958679"><ele>126.5</ele><time>2026-05-04T12:01:45.565Z</time></trkpt><trkpt lat="41.5498424" lon="0.4959365"><ele>127.25</ele><time>2026-05-04T12:01:46.574Z</time></trkpt><trkpt lat="41.5499635" lon="0.4959971"><ele>128.0</ele><time>2026-05-04T12:01:47.562Z</time></trkpt><trkpt lat="41.5500863" lon="0.4960741"><ele>128.0</ele><time>2026-05-04T12:01:48.562Z</time></trkpt><trkpt lat="41.5502033" lon="0.4961405"><ele>128.0</ele><time>2026-05-04T12:01:49.567Z</time></trkpt><trkpt lat="41.5503194" lon="0.4962127"><ele>128.0</ele><time>2026-05-04T12:01:50.571Z</time></trkpt><trkpt lat="41.550436" lon="0.4962827"><ele>128.0</ele><time>2026-05-04T12:01:51.569Z</time></trkpt><trkpt lat="41.5505501" lon="0.4963552"><ele>127.5</ele><time>2026-05-04T12:01:52.577Z</time></trkpt><trkpt lat="41.5506714" lon="0.4964213"><ele>127.0</ele><time>2026-05-04T12:01:53.579Z</time></trkpt><trkpt lat="41.5507918" lon="0.4964871"><ele>126.5</ele><time>2026-05-04T12:01:54.578Z</time></trkpt><trkpt lat="41.5509075" lon="0.4965626"><ele>126.0</ele><time>2026-05-04T12:01:55.574Z</time></trkpt><trkpt lat="41.5510262" lon="0.4966392"><ele>126.0</ele><time>2026-05-04T12:01:56.575Z</time></trkpt><trkpt lat="41.5511484" lon="0.4967142"><ele>126.0</ele><time>2026-05-04T12:01:57.573Z</time></trkpt><trkpt lat="41.5512707" lon="0.4967891"><ele>126.0</ele><time>2026-05-04T12:01:58.577Z</time></trkpt><trkpt lat="41.5513882" lon="0.4968564"><ele>126.0</ele><time>2026-05-04T12:01:59.574Z</time></trkpt><trkpt lat="41.5515001" lon="0.4969269"><ele>125.5</ele><time>2026-05-04T12:02:00.578Z</time></trkpt><trkpt lat="41.5516117" lon="0.4969985"><ele>125.0</ele><time>2026-05-04T12:02:01.573Z</time></trkpt><trkpt lat="41.5517249" lon="0.4970733"><ele>124.5</ele><time>2026-05-04T12:02:02.572Z</time></trkpt><trkpt lat="41.5518374" lon="0.4971453"><ele>124.0</ele><time>2026-05-04T12:02:03.571Z</time></trkpt><trkpt lat="41.5519497" lon="0.497218"><ele>124.25</ele><time>2026-05-04T12:02:04.569Z</time></trkpt><trkpt lat="41.5520582" lon="0.497284"><ele>124.5</ele><time>2026-05-04T12:02:05.57Z</time></trkpt><trkpt lat="41.5521674" lon="0.4973504"><ele>124.75</ele><time>2026-05-04T12:02:06.57Z</time></trkpt><trkpt lat="41.5522734" lon="0.4974126"><ele>125.0</ele><time>2026-05-04T12:02:07.576Z</time></trkpt><trkpt lat="41.5523704" lon="0.4974601"><ele>124.99999999999999</ele><time>2026-05-04T12:02:08.574Z</time></trkpt><trkpt lat="41.5524552" lon="0.4975028"><ele>125.0</ele><time>2026-05-04T12:02:09.576Z</time></trkpt><trkpt lat="41.5525223" lon="0.4975435"><ele>125.0</ele><time>2026-05-04T12:02:10.573Z</time></trkpt><trkpt lat="41.5525802" lon="0.4975857"><ele>125.0</ele><time>2026-05-04T12:02:11.581Z</time></trkpt><trkpt lat="41.5526873" lon="0.4976624"><ele>124.99999999999999</ele><time>2026-05-04T12:02:13.579Z</time></trkpt><trkpt lat="41.5527461" lon="0.4977082"><ele>125.0</ele><time>2026-05-04T12:02:14.577Z</time></trkpt><trkpt lat="41.5528666" lon="0.4978264"><ele>125.0</ele><time>2026-05-04T12:02:16.58Z</time></trkpt><trkpt lat="41.5529231" lon="0.4979108"><ele>125.0</ele><time>2026-05-04T12:02:17.578Z</time></trkpt><trkpt lat="41.5529672" lon="0.4980261"><ele>125.0</ele><time>2026-05-04T12:02:18.576Z</time></trkpt><trkpt lat="41.5530068" lon="0.4981509"><ele>125.0</ele><time>2026-05-04T12:02:19.576Z</time></trkpt><trkpt lat="41.5530403" lon="0.498283"><ele>125.0</ele><time>2026-05-04T12:02:20.577Z</time></trkpt><trkpt lat="41.553073" lon="0.4984254"><ele>125.0</ele><time>2026-05-04T12:02:21.574Z</time></trkpt><trkpt lat="41.5531087" lon="0.4985691"><ele>125.0</ele><time>2026-05-04T12:02:22.573Z</time></trkpt><trkpt lat="41.5531477" lon="0.4987254"><ele>125.0</ele><time>2026-05-04T12:02:23.574Z</time></trkpt><trkpt lat="41.5531794" lon="0.498878"><ele>125.0</ele><time>2026-05-04T12:02:24.579Z</time></trkpt><trkpt lat="41.5532133" lon="0.4990365"><ele>125.0</ele><time>2026-05-04T12:02:25.582Z</time></trkpt><trkpt lat="41.5532457" lon="0.4991984"><ele>125.0</ele><time>2026-05-04T12:02:26.577Z</time></trkpt><trkpt lat="41.5532756" lon="0.4993618"><ele>125.0</ele><time>2026-05-04T12:02:27.578Z</time></trkpt><trkpt lat="41.5533049" lon="0.4995223"><ele>125.0</ele><time>2026-05-04T12:02:28.577Z</time></trkpt><trkpt lat="41.5533338" lon="0.4996823"><ele>124.75</ele><time>2026-05-04T12:02:29.576Z</time></trkpt><trkpt lat="41.5533634" lon="0.4998432"><ele>124.5</ele><time>2026-05-04T12:02:30.58Z</time></trkpt><trkpt lat="41.5533953" lon="0.5000069"><ele>124.25</ele><time>2026-05-04T12:02:31.576Z</time></trkpt><trkpt lat="41.5534303" lon="0.5001658"><ele>124.0</ele><time>2026-05-04T12:02:32.583Z</time></trkpt><trkpt lat="41.5534687" lon="0.5003277"><ele>124.0</ele><time>2026-05-04T12:02:33.578Z</time></trkpt><trkpt lat="41.5535038" lon="0.5004911"><ele>124.0</ele><time>2026-05-04T12:02:34.575Z</time></trkpt><trkpt lat="41.5535372" lon="0.5006579"><ele>124.0</ele><time>2026-05-04T12:02:35.574Z</time></trkpt><trkpt lat="41.5535671" lon="0.5008169"><ele>124.0</ele><time>2026-05-04T12:02:36.578Z</time></trkpt><trkpt lat="41.5536019" lon="0.5009752"><ele>124.0</ele><time>2026-05-04T12:02:37.58Z</time></trkpt><trkpt lat="41.5536443" lon="0.5011332"><ele>124.0</ele><time>2026-05-04T12:02:38.582Z</time></trkpt><trkpt lat="41.553685" lon="0.5012958"><ele>124.0</ele><time>2026-05-04T12:02:39.578Z</time></trkpt><trkpt lat="41.5537282" lon="0.5014569"><ele>124.0</ele><time>2026-05-04T12:02:40.575Z</time></trkpt><trkpt lat="41.5537723" lon="0.5016087"><ele>125.5</ele><time>2026-05-04T12:02:41.578Z</time></trkpt><trkpt lat="41.5538179" lon="0.5017666"><ele>127.0</ele><time>2026-05-04T12:02:42.575Z</time></trkpt><trkpt lat="41.5538608" lon="0.5019268"><ele>128.5</ele><time>2026-05-04T12:02:43.577Z</time></trkpt><trkpt lat="41.5539038" lon="0.5020824"><ele>130.0</ele><time>2026-05-04T12:02:44.573Z</time></trkpt><trkpt lat="41.5539473" lon="0.502232"><ele>130.25</ele><time>2026-05-04T12:02:45.58Z</time></trkpt><trkpt lat="41.5539988" lon="0.5023813"><ele>130.5</ele><time>2026-05-04T12:02:46.577Z</time></trkpt><trkpt lat="41.5540496" lon="0.5025307"><ele>130.75</ele><time>2026-05-04T12:02:47.577Z</time></trkpt><trkpt lat="41.5541027" lon="0.5026839"><ele>131.0</ele><time>2026-05-04T12:02:48.584Z</time></trkpt><trkpt lat="41.5541572" lon="0.5028348"><ele>131.0</ele><time>2026-05-04T12:02:49.583Z</time></trkpt><trkpt lat="41.5542158" lon="0.5029832"><ele>131.0</ele><time>2026-05-04T12:02:50.584Z</time></trkpt><trkpt lat="41.5542744" lon="0.5031287"><ele>131.0</ele><time>2026-05-04T12:02:51.578Z</time></trkpt><trkpt lat="41.5543367" lon="0.5032735"><ele>131.0</ele><time>2026-05-04T12:02:52.583Z</time></trkpt><trkpt lat="41.5543998" lon="0.5034218"><ele>131.0</ele><time>2026-05-04T12:02:53.578Z</time></trkpt><trkpt lat="41.5544658" lon="0.5035639"><ele>131.0</ele><time>2026-05-04T12:02:54.582Z</time></trkpt><trkpt lat="41.5545287" lon="0.5037109"><ele>131.0</ele><time>2026-05-04T12:02:55.582Z</time></trkpt><trkpt lat="41.5545907" lon="0.5038521"><ele>131.0</ele><time>2026-05-04T12:02:56.566Z</time></trkpt><trkpt lat="41.5546546" lon="0.5039831"><ele>131.0</ele><time>2026-05-04T12:02:57.562Z</time></trkpt><trkpt lat="41.5547226" lon="0.5040986"><ele>131.0</ele><time>2026-05-04T12:02:58.575Z</time></trkpt><trkpt lat="41.5547874" lon="0.5042164"><ele>131.0</ele><time>2026-05-04T12:02:59.575Z</time></trkpt><trkpt lat="41.5548505" lon="0.5043291"><ele>131.0</ele><time>2026-05-04T12:03:00.575Z</time></trkpt><trkpt lat="41.554912" lon="0.5044371"><ele>131.0</ele><time>2026-05-04T12:03:01.574Z</time></trkpt><trkpt lat="41.5549703" lon="0.5045538"><ele>130.4</ele><time>2026-05-04T12:03:02.571Z</time></trkpt><trkpt lat="41.5550294" lon="0.5046625"><ele>129.8</ele><time>2026-05-04T12:03:03.573Z</time></trkpt><trkpt lat="41.5550894" lon="0.5047727"><ele>129.20000000000002</ele><time>2026-05-04T12:03:04.576Z</time></trkpt><trkpt lat="41.5551516" lon="0.5048719"><ele>128.6</ele><time>2026-05-04T12:03:05.57Z</time></trkpt><trkpt lat="41.555199" lon="0.5049698"><ele>128.0</ele><time>2026-05-04T12:03:06.576Z</time></trkpt><trkpt lat="41.5552422" lon="0.5050642"><ele>128.0</ele><time>2026-05-04T12:03:07.573Z</time></trkpt><trkpt lat="41.5552753" lon="0.5051577"><ele>127.99999999999999</ele><time>2026-05-04T12:03:08.567Z</time></trkpt><trkpt lat="41.5552871" lon="0.5052543"><ele>128.0</ele><time>2026-05-04T12:03:09.573Z</time></trkpt><trkpt lat="41.5552929" lon="0.5053539"><ele>128.0</ele><time>2026-05-04T12:03:10.569Z</time></trkpt><trkpt lat="41.5553072" lon="0.5054486"><ele>127.99999999999999</ele><time>2026-05-04T12:03:11.57Z</time></trkpt><trkpt lat="41.5553422" lon="0.5055301"><ele>128.0</ele><time>2026-05-04T12:03:12.564Z</time></trkpt><trkpt lat="41.555388" lon="0.5055968"><ele>128.0</ele><time>2026-05-04T12:03:13.576Z</time></trkpt><trkpt lat="41.5554563" lon="0.5056429"><ele>128.0</ele><time>2026-05-04T12:03:14.569Z</time></trkpt><trkpt lat="41.5555381" lon="0.5056845"><ele>128.0</ele><time>2026-05-04T12:03:15.569Z</time></trkpt><trkpt lat="41.5556179" lon="0.5057437"><ele>128.0</ele><time>2026-05-04T12:03:16.57Z</time></trkpt><trkpt lat="41.5556993" lon="0.5058263"><ele>128.0</ele><time>2026-05-04T12:03:17.566Z</time></trkpt><trkpt lat="41.5557705" lon="0.5059332"><ele>128.0</ele><time>2026-05-04T12:03:18.576Z</time></trkpt><trkpt lat="41.5558393" lon="0.5060602"><ele>128.0</ele><time>2026-05-04T12:03:19.574Z</time></trkpt><trkpt lat="41.5559176" lon="0.5061937"><ele>128.0</ele><time>2026-05-04T12:03:20.573Z</time></trkpt><trkpt lat="41.5560014" lon="0.5063283"><ele>128.0</ele><time>2026-05-04T12:03:21.577Z</time></trkpt><trkpt lat="41.5560865" lon="0.5064666"><ele>128.0</ele><time>2026-05-04T12:03:22.577Z</time></trkpt><trkpt lat="41.5561664" lon="0.5066059"><ele>128.25</ele><time>2026-05-04T12:03:23.573Z</time></trkpt><trkpt lat="41.5562525" lon="0.5067512"><ele>128.5</ele><time>2026-05-04T12:03:24.583Z</time></trkpt><trkpt lat="41.5563404" lon="0.506897"><ele>128.75</ele><time>2026-05-04T12:03:25.585Z</time></trkpt><trkpt lat="41.5564294" lon="0.5070407"><ele>129.0</ele><time>2026-05-04T12:03:26.583Z</time></trkpt><trkpt lat="41.5565244" lon="0.5071917"><ele>128.5</ele><time>2026-05-04T12:03:27.582Z</time></trkpt><trkpt lat="41.5566184" lon="0.5073418"><ele>128.0</ele><time>2026-05-04T12:03:28.581Z</time></trkpt><trkpt lat="41.556713" lon="0.5074984"><ele>127.5</ele><time>2026-05-04T12:03:29.581Z</time></trkpt><trkpt lat="41.5567982" lon="0.5076549"><ele>127.0</ele><time>2026-05-04T12:03:30.573Z</time></trkpt><trkpt lat="41.5568766" lon="0.5078187"><ele>127.0</ele><time>2026-05-04T12:03:31.571Z</time></trkpt><trkpt lat="41.5569576" lon="0.5079842"><ele>127.0</ele><time>2026-05-04T12:03:32.568Z</time></trkpt><trkpt lat="41.5570311" lon="0.5081409"><ele>127.0</ele><time>2026-05-04T12:03:33.572Z</time></trkpt><trkpt lat="41.5570935" lon="0.508308"><ele>127.0</ele><time>2026-05-04T12:03:34.569Z</time></trkpt><trkpt lat="41.5571613" lon="0.508468"><ele>127.0</ele><time>2026-05-04T12:03:35.572Z</time></trkpt><trkpt lat="41.5572246" lon="0.5086245"><ele>127.0</ele><time>2026-05-04T12:03:36.578Z</time></trkpt><trkpt lat="41.557283" lon="0.5087655"><ele>127.0</ele><time>2026-05-04T12:03:37.567Z</time></trkpt><trkpt lat="41.5573498" lon="0.5089023"><ele>127.0</ele><time>2026-05-04T12:03:38.572Z</time></trkpt><trkpt lat="41.5574098" lon="0.5090478"><ele>127.0</ele><time>2026-05-04T12:03:39.571Z</time></trkpt><trkpt lat="41.5574697" lon="0.5091902"><ele>127.0</ele><time>2026-05-04T12:03:40.566Z</time></trkpt><trkpt lat="41.5575343" lon="0.5093278"><ele>127.0</ele><time>2026-05-04T12:03:41.571Z</time></trkpt><trkpt lat="41.5576023" lon="0.5094679"><ele>127.0</ele><time>2026-05-04T12:03:42.564Z</time></trkpt><trkpt lat="41.5576709" lon="0.5096065"><ele>127.5</ele><time>2026-05-04T12:03:43.578Z</time></trkpt><trkpt lat="41.5577437" lon="0.5097482"><ele>128.0</ele><time>2026-05-04T12:03:44.559Z</time></trkpt><trkpt lat="41.5578174" lon="0.509888"><ele>128.5</ele><time>2026-05-04T12:03:45.577Z</time></trkpt><trkpt lat="41.5578913" lon="0.5100299"><ele>129.0</ele><time>2026-05-04T12:03:46.569Z</time></trkpt><trkpt lat="41.5579649" lon="0.5101692"><ele>128.75</ele><time>2026-05-04T12:03:47.574Z</time></trkpt><trkpt lat="41.5580426" lon="0.5103157"><ele>128.5</ele><time>2026-05-04T12:03:48.571Z</time></trkpt><trkpt lat="41.5581235" lon="0.5104603"><ele>128.25</ele><time>2026-05-04T12:03:49.57Z</time></trkpt><trkpt lat="41.5582041" lon="0.5106034"><ele>128.0</ele><time>2026-05-04T12:03:50.571Z</time></trkpt><trkpt lat="41.5582866" lon="0.5107509"><ele>128.0</ele><time>2026-05-04T12:03:51.573Z</time></trkpt><trkpt lat="41.5583613" lon="0.5109063"><ele>128.0</ele><time>2026-05-04T12:03:52.572Z</time></trkpt><trkpt lat="41.558446" lon="0.5110523"><ele>128.0</ele><time>2026-05-04T12:03:53.573Z</time></trkpt><trkpt lat="41.5585343" lon="0.5111933"><ele>128.0</ele><time>2026-05-04T12:03:54.57Z</time></trkpt><trkpt lat="41.5586285" lon="0.5113478"><ele>127.5</ele><time>2026-05-04T12:03:55.569Z</time></trkpt><trkpt lat="41.5587313" lon="0.5114963"><ele>127.0</ele><time>2026-05-04T12:03:56.566Z</time></trkpt><trkpt lat="41.5588231" lon="0.511619"><ele>126.5</ele><time>2026-05-04T12:03:57.574Z</time></trkpt><trkpt lat="41.5589171" lon="0.5117291"><ele>126.0</ele><time>2026-05-04T12:03:58.565Z</time></trkpt><trkpt lat="41.5589985" lon="0.5118536"><ele>126.0</ele><time>2026-05-04T12:03:59.567Z</time></trkpt><trkpt lat="41.5590944" lon="0.5119778"><ele>126.0</ele><time>2026-05-04T12:04:00.573Z</time></trkpt><trkpt lat="41.5591894" lon="0.5121011"><ele>126.0</ele><time>2026-05-04T12:04:01.567Z</time></trkpt><trkpt lat="41.5592791" lon="0.5122175"><ele>126.0</ele><time>2026-05-04T12:04:02.578Z</time></trkpt><trkpt lat="41.5593735" lon="0.5123296"><ele>126.0</ele><time>2026-05-04T12:04:03.567Z</time></trkpt><trkpt lat="41.5594652" lon="0.5124606"><ele>126.0</ele><time>2026-05-04T12:04:04.572Z</time></trkpt><trkpt lat="41.5595555" lon="0.5125886"><ele>126.0</ele><time>2026-05-04T12:04:05.569Z</time></trkpt><trkpt lat="41.5596396" lon="0.512716"><ele>126.0</ele><time>2026-05-04T12:04:06.576Z</time></trkpt><trkpt lat="41.5597217" lon="0.5128395"><ele>126.5</ele><time>2026-05-04T12:04:07.576Z</time></trkpt><trkpt lat="41.559807" lon="0.5129642"><ele>127.0</ele><time>2026-05-04T12:04:08.576Z</time></trkpt><trkpt lat="41.5598969" lon="0.5130862"><ele>127.5</ele><time>2026-05-04T12:04:09.573Z</time></trkpt><trkpt lat="41.559984" lon="0.5132108"><ele>128.0</ele><time>2026-05-04T12:04:10.581Z</time></trkpt><trkpt lat="41.5600674" lon="0.5133311"><ele>128.0</ele><time>2026-05-04T12:04:11.576Z</time></trkpt><trkpt lat="41.5601489" lon="0.5134458"><ele>128.0</ele><time>2026-05-04T12:04:12.579Z</time></trkpt><trkpt lat="41.5602302" lon="0.5135551"><ele>128.0</ele><time>2026-05-04T12:04:13.582Z</time></trkpt><trkpt lat="41.5603074" lon="0.5136642"><ele>128.0</ele><time>2026-05-04T12:04:14.58Z</time></trkpt><trkpt lat="41.5603871" lon="0.5137669"><ele>128.6</ele><time>2026-05-04T12:04:15.58Z</time></trkpt><trkpt lat="41.5604584" lon="0.5138604"><ele>129.20000000000002</ele><time>2026-05-04T12:04:16.574Z</time></trkpt><trkpt lat="41.5605262" lon="0.5139456"><ele>129.8</ele><time>2026-05-04T12:04:17.57Z</time></trkpt><trkpt lat="41.5605823" lon="0.5140269"><ele>130.4</ele><time>2026-05-04T12:04:18.574Z</time></trkpt><trkpt lat="41.5606271" lon="0.5141039"><ele>131.0</ele><time>2026-05-04T12:04:19.575Z</time></trkpt><trkpt lat="41.5606872" lon="0.5142307"><ele>131.0</ele><time>2026-05-04T12:04:21.569Z</time></trkpt><trkpt lat="41.5607089" lon="0.5143693"><ele>131.0</ele><time>2026-05-04T12:04:23.573Z</time></trkpt><trkpt lat="41.5607574" lon="0.514501"><ele>131.0</ele><time>2026-05-04T12:04:25.568Z</time></trkpt><trkpt lat="41.5608676" lon="0.514578"><ele>131.0</ele><time>2026-05-04T12:04:27.562Z</time></trkpt><trkpt lat="41.5609341" lon="0.5146088"><ele>131.0</ele><time>2026-05-04T12:04:28.566Z</time></trkpt><trkpt lat="41.5610176" lon="0.5146468"><ele>130.8</ele><time>2026-05-04T12:04:29.579Z</time></trkpt><trkpt lat="41.5610981" lon="0.5147122"><ele>130.6</ele><time>2026-05-04T12:04:30.567Z</time></trkpt><trkpt lat="41.561185" lon="0.5147974"><ele>130.4</ele><time>2026-05-04T12:04:31.571Z</time></trkpt><trkpt lat="41.5612766" lon="0.5149025"><ele>130.2</ele><time>2026-05-04T12:04:32.571Z</time></trkpt><trkpt lat="41.561369" lon="0.5150162"><ele>130.0</ele><time>2026-05-04T12:04:33.574Z</time></trkpt><trkpt lat="41.5614653" lon="0.5151329"><ele>130.0</ele><time>2026-05-04T12:04:34.571Z</time></trkpt><trkpt lat="41.5615649" lon="0.5152487"><ele>130.0</ele><time>2026-05-04T12:04:35.576Z</time></trkpt><trkpt lat="41.5616633" lon="0.5153633"><ele>130.0</ele><time>2026-05-04T12:04:36.567Z</time></trkpt><trkpt lat="41.5617635" lon="0.5154806"><ele>130.0</ele><time>2026-05-04T12:04:37.572Z</time></trkpt><trkpt lat="41.5618705" lon="0.5156057"><ele>130.0</ele><time>2026-05-04T12:04:38.573Z</time></trkpt><trkpt lat="41.5619749" lon="0.515731"><ele>130.0</ele><time>2026-05-04T12:04:39.571Z</time></trkpt><trkpt lat="41.5620768" lon="0.5158485"><ele>130.0</ele><time>2026-05-04T12:04:40.567Z</time></trkpt><trkpt lat="41.5621738" lon="0.5159618"><ele>130.0</ele><time>2026-05-04T12:04:41.569Z</time></trkpt><trkpt lat="41.5622598" lon="0.5160777"><ele>130.0</ele><time>2026-05-04T12:04:42.557Z</time></trkpt><trkpt lat="41.562347" lon="0.5161993"><ele>130.0</ele><time>2026-05-04T12:04:43.561Z</time></trkpt><trkpt lat="41.5624253" lon="0.5163257"><ele>130.0</ele><time>2026-05-04T12:04:44.558Z</time></trkpt><trkpt lat="41.5624999" lon="0.5164592"><ele>130.0</ele><time>2026-05-04T12:04:45.561Z</time></trkpt><trkpt lat="41.5625747" lon="0.5165941"><ele>129.5</ele><time>2026-05-04T12:04:46.56Z</time></trkpt><trkpt lat="41.5626399" lon="0.5167328"><ele>129.0</ele><time>2026-05-04T12:04:47.558Z</time></trkpt><trkpt lat="41.5627027" lon="0.5168809"><ele>128.5</ele><time>2026-05-04T12:04:48.555Z</time></trkpt><trkpt lat="41.5627611" lon="0.5170396"><ele>128.0</ele><time>2026-05-04T12:04:49.554Z</time></trkpt><trkpt lat="41.562813" lon="0.5172003"><ele>128.0</ele><time>2026-05-04T12:04:50.564Z</time></trkpt><trkpt lat="41.5628563" lon="0.51737"><ele>128.0</ele><time>2026-05-04T12:04:51.552Z</time></trkpt><trkpt lat="41.5628901" lon="0.5175434"><ele>128.0</ele><time>2026-05-04T12:04:52.551Z</time></trkpt><trkpt lat="41.5629136" lon="0.5177222"><ele>128.0</ele><time>2026-05-04T12:04:53.555Z</time></trkpt><trkpt lat="41.5629372" lon="0.5178938"><ele>128.0</ele><time>2026-05-04T12:04:54.546Z</time></trkpt><trkpt lat="41.5629341" lon="0.518077"><ele>128.0</ele><time>2026-05-04T12:04:55.552Z</time></trkpt><trkpt lat="41.5629211" lon="0.5182616"><ele>128.0</ele><time>2026-05-04T12:04:56.55Z</time></trkpt><trkpt lat="41.5628949" lon="0.5186174"><ele>128.5</ele><time>2026-05-04T12:04:58.553Z</time></trkpt><trkpt lat="41.5628739" lon="0.518778"><ele>129.0</ele><time>2026-05-04T12:04:59.556Z</time></trkpt><trkpt lat="41.5628539" lon="0.5189383"><ele>129.5</ele><time>2026-05-04T12:05:00.56Z</time></trkpt><trkpt lat="41.562836" lon="0.5190955"><ele>130.0</ele><time>2026-05-04T12:05:01.55Z</time></trkpt><trkpt lat="41.5628205" lon="0.51924"><ele>130.0</ele><time>2026-05-04T12:05:02.547Z</time></trkpt><trkpt lat="41.562805" lon="0.5193796"><ele>130.0</ele><time>2026-05-04T12:05:03.546Z</time></trkpt><trkpt lat="41.5627906" lon="0.5195139"><ele>130.0</ele><time>2026-05-04T12:05:04.547Z</time></trkpt><trkpt lat="41.5627738" lon="0.519649"><ele>130.0</ele><time>2026-05-04T12:05:05.55Z</time></trkpt><trkpt lat="41.5627528" lon="0.5197918"><ele>130.0</ele><time>2026-05-04T12:05:06.555Z</time></trkpt><trkpt lat="41.562728" lon="0.5199294"><ele>130.25</ele><time>2026-05-04T12:05:07.545Z</time></trkpt><trkpt lat="41.5626875" lon="0.5200701"><ele>130.5</ele><time>2026-05-04T12:05:08.548Z</time></trkpt><trkpt lat="41.5626444" lon="0.5202099"><ele>130.75</ele><time>2026-05-04T12:05:09.548Z</time></trkpt><trkpt lat="41.562593" lon="0.520349"><ele>131.0</ele><time>2026-05-04T12:05:10.543Z</time></trkpt><trkpt lat="41.5625294" lon="0.5204878"><ele>131.25</ele><time>2026-05-04T12:05:11.543Z</time></trkpt><trkpt lat="41.5624602" lon="0.5206271"><ele>131.5</ele><time>2026-05-04T12:05:12.55Z</time></trkpt><trkpt lat="41.5623864" lon="0.520771"><ele>131.75</ele><time>2026-05-04T12:05:13.55Z</time></trkpt><trkpt lat="41.5623153" lon="0.5209096"><ele>132.0</ele><time>2026-05-04T12:05:14.55Z</time></trkpt><trkpt lat="41.5622442" lon="0.521046"><ele>132.0</ele><time>2026-05-04T12:05:15.551Z</time></trkpt><trkpt lat="41.5621723" lon="0.5211875"><ele>132.0</ele><time>2026-05-04T12:05:16.553Z</time></trkpt><trkpt lat="41.5621011" lon="0.5213231"><ele>132.0</ele><time>2026-05-04T12:05:17.558Z</time></trkpt><trkpt lat="41.5620275" lon="0.5214522"><ele>132.0</ele><time>2026-05-04T12:05:18.559Z</time></trkpt><trkpt lat="41.5619556" lon="0.5215851"><ele>132.0</ele><time>2026-05-04T12:05:19.557Z</time></trkpt><trkpt lat="41.5618894" lon="0.5217153"><ele>132.0</ele><time>2026-05-04T12:05:20.558Z</time></trkpt><trkpt lat="41.5618256" lon="0.5218469"><ele>132.0</ele><time>2026-05-04T12:05:21.557Z</time></trkpt><trkpt lat="41.5617605" lon="0.5219716"><ele>132.0</ele><time>2026-05-04T12:05:22.561Z</time></trkpt><trkpt lat="41.5616956" lon="0.5220964"><ele>132.0</ele><time>2026-05-04T12:05:23.558Z</time></trkpt><trkpt lat="41.5616333" lon="0.5222229"><ele>132.0</ele><time>2026-05-04T12:05:24.56Z</time></trkpt><trkpt lat="41.5615691" lon="0.5223555"><ele>132.0</ele><time>2026-05-04T12:05:25.56Z</time></trkpt><trkpt lat="41.5615058" lon="0.5224856"><ele>132.0</ele><time>2026-05-04T12:05:26.557Z</time></trkpt><trkpt lat="41.5614431" lon="0.5226123"><ele>132.0</ele><time>2026-05-04T12:05:27.561Z</time></trkpt><trkpt lat="41.5613778" lon="0.5227393"><ele>132.0</ele><time>2026-05-04T12:05:28.562Z</time></trkpt><trkpt lat="41.5613139" lon="0.5228678"><ele>132.0</ele><time>2026-05-04T12:05:29.557Z</time></trkpt><trkpt lat="41.5612514" lon="0.5229987"><ele>132.0</ele><time>2026-05-04T12:05:30.56Z</time></trkpt><trkpt lat="41.5611808" lon="0.523131"><ele>131.5</ele><time>2026-05-04T12:05:31.552Z</time></trkpt><trkpt lat="41.5611163" lon="0.5232693"><ele>131.0</ele><time>2026-05-04T12:05:32.551Z</time></trkpt><trkpt lat="41.5610546" lon="0.5234115"><ele>130.5</ele><time>2026-05-04T12:05:33.548Z</time></trkpt><trkpt lat="41.5610023" lon="0.5235573"><ele>130.0</ele><time>2026-05-04T12:05:34.545Z</time></trkpt><trkpt lat="41.5609562" lon="0.5237097"><ele>129.75</ele><time>2026-05-04T12:05:35.546Z</time></trkpt><trkpt lat="41.5609174" lon="0.5238607"><ele>129.5</ele><time>2026-05-04T12:05:36.546Z</time></trkpt><trkpt lat="41.5608997" lon="0.5240177"><ele>129.25</ele><time>2026-05-04T12:05:37.55Z</time></trkpt><trkpt lat="41.5608954" lon="0.5241709"><ele>129.0</ele><time>2026-05-04T12:05:38.55Z</time></trkpt><trkpt lat="41.5609034" lon="0.5243235"><ele>129.0</ele><time>2026-05-04T12:05:39.546Z</time></trkpt><trkpt lat="41.5609183" lon="0.5244725"><ele>129.0</ele><time>2026-05-04T12:05:40.546Z</time></trkpt><trkpt lat="41.5609394" lon="0.524617"><ele>129.0</ele><time>2026-05-04T12:05:41.542Z</time></trkpt><trkpt lat="41.5609678" lon="0.5247569"><ele>129.0</ele><time>2026-05-04T12:05:42.551Z</time></trkpt><trkpt lat="41.5609973" lon="0.5248954"><ele>129.0</ele><time>2026-05-04T12:05:43.551Z</time></trkpt><trkpt lat="41.5610327" lon="0.5250347"><ele>128.5</ele><time>2026-05-04T12:05:44.549Z</time></trkpt><trkpt lat="41.5610783" lon="0.5251719"><ele>128.0</ele><time>2026-05-04T12:05:45.547Z</time></trkpt><trkpt lat="41.5611297" lon="0.525306"><ele>127.5</ele><time>2026-05-04T12:05:46.546Z</time></trkpt><trkpt lat="41.5611906" lon="0.5254371"><ele>127.0</ele><time>2026-05-04T12:05:47.548Z</time></trkpt><trkpt lat="41.5612586" lon="0.5255681"><ele>127.0</ele><time>2026-05-04T12:05:48.555Z</time></trkpt><trkpt lat="41.5613341" lon="0.5256984"><ele>127.0</ele><time>2026-05-04T12:05:49.545Z</time></trkpt><trkpt lat="41.561422" lon="0.5258215"><ele>127.0</ele><time>2026-05-04T12:05:50.55Z</time></trkpt><trkpt lat="41.561517" lon="0.5259473"><ele>127.0</ele><time>2026-05-04T12:05:51.554Z</time></trkpt><trkpt lat="41.5616146" lon="0.5260651"><ele>127.0</ele><time>2026-05-04T12:05:52.553Z</time></trkpt><trkpt lat="41.561696" lon="0.5261888"><ele>127.0</ele><time>2026-05-04T12:05:53.545Z</time></trkpt><trkpt lat="41.5617905" lon="0.5262948"><ele>127.0</ele><time>2026-05-04T12:05:54.547Z</time></trkpt><trkpt lat="41.561879" lon="0.5264017"><ele>127.0</ele><time>2026-05-04T12:05:55.554Z</time></trkpt><trkpt lat="41.5619692" lon="0.5264984"><ele>127.75</ele><time>2026-05-04T12:05:56.543Z</time></trkpt><trkpt lat="41.5620645" lon="0.5266191"><ele>128.5</ele><time>2026-05-04T12:05:57.552Z</time></trkpt><trkpt lat="41.5621613" lon="0.5267386"><ele>129.25</ele><time>2026-05-04T12:05:58.551Z</time></trkpt><trkpt lat="41.5622602" lon="0.5268522"><ele>130.0</ele><time>2026-05-04T12:05:59.549Z</time></trkpt><trkpt lat="41.5623527" lon="0.5269652"><ele>129.5</ele><time>2026-05-04T12:06:00.546Z</time></trkpt><trkpt lat="41.5624461" lon="0.5270764"><ele>129.0</ele><time>2026-05-04T12:06:01.548Z</time></trkpt><trkpt lat="41.5625407" lon="0.527191"><ele>128.5</ele><time>2026-05-04T12:06:02.551Z</time></trkpt><trkpt lat="41.5626392" lon="0.5273055"><ele>128.0</ele><time>2026-05-04T12:06:03.552Z</time></trkpt><trkpt lat="41.5627287" lon="0.527419"><ele>128.0</ele><time>2026-05-04T12:06:04.553Z</time></trkpt><trkpt lat="41.5628142" lon="0.5275234"><ele>128.0</ele><time>2026-05-04T12:06:05.543Z</time></trkpt><trkpt lat="41.5629046" lon="0.5276355"><ele>128.0</ele><time>2026-05-04T12:06:06.547Z</time></trkpt><trkpt lat="41.5629862" lon="0.5277489"><ele>128.0</ele><time>2026-05-04T12:06:07.551Z</time></trkpt><trkpt lat="41.5630728" lon="0.5278685"><ele>128.75</ele><time>2026-05-04T12:06:08.555Z</time></trkpt><trkpt lat="41.5631572" lon="0.5279911"><ele>129.5</ele><time>2026-05-04T12:06:09.551Z</time></trkpt><trkpt lat="41.5632468" lon="0.5281134"><ele>130.25</ele><time>2026-05-04T12:06:10.555Z</time></trkpt><trkpt lat="41.5633399" lon="0.5282374"><ele>131.0</ele><time>2026-05-04T12:06:11.549Z</time></trkpt><trkpt lat="41.5634272" lon="0.5283604"><ele>131.0</ele><time>2026-05-04T12:06:12.547Z</time></trkpt><trkpt lat="41.5635226" lon="0.5284798"><ele>131.0</ele><time>2026-05-04T12:06:13.554Z</time></trkpt><trkpt lat="41.563621" lon="0.5285996"><ele>131.0</ele><time>2026-05-04T12:06:14.549Z</time></trkpt><trkpt lat="41.563724" lon="0.5287185"><ele>131.0</ele><time>2026-05-04T12:06:15.547Z</time></trkpt><trkpt lat="41.5638307" lon="0.5288275"><ele>130.75</ele><time>2026-05-04T12:06:16.547Z</time></trkpt><trkpt lat="41.5639392" lon="0.5289226"><ele>130.5</ele><time>2026-05-04T12:06:17.553Z</time></trkpt><trkpt lat="41.5640529" lon="0.5290003"><ele>130.25</ele><time>2026-05-04T12:06:18.559Z</time></trkpt><trkpt lat="41.5641653" lon="0.5290696"><ele>130.0</ele><time>2026-05-04T12:06:19.548Z</time></trkpt><trkpt lat="41.5642808" lon="0.5291338"><ele>130.0</ele><time>2026-05-04T12:06:20.553Z</time></trkpt><trkpt lat="41.5643974" lon="0.5291943"><ele>130.0</ele><time>2026-05-04T12:06:21.554Z</time></trkpt><trkpt lat="41.5645108" lon="0.5292587"><ele>130.0</ele><time>2026-05-04T12:06:22.555Z</time></trkpt><trkpt lat="41.5646266" lon="0.5293216"><ele>130.0</ele><time>2026-05-04T12:06:23.553Z</time></trkpt><trkpt lat="41.5647378" lon="0.5293845"><ele>130.75</ele><time>2026-05-04T12:06:24.551Z</time></trkpt><trkpt lat="41.5648497" lon="0.5294477"><ele>131.5</ele><time>2026-05-04T12:06:25.551Z</time></trkpt><trkpt lat="41.5649646" lon="0.529512"><ele>132.25</ele><time>2026-05-04T12:06:26.555Z</time></trkpt><trkpt lat="41.5650728" lon="0.5295792"><ele>133.0</ele><time>2026-05-04T12:06:27.557Z</time></trkpt><trkpt lat="41.5651773" lon="0.5296398"><ele>133.0</ele><time>2026-05-04T12:06:28.554Z</time></trkpt><trkpt lat="41.5652754" lon="0.5296988"><ele>133.0</ele><time>2026-05-04T12:06:29.55Z</time></trkpt><trkpt lat="41.565377" lon="0.5297574"><ele>133.0</ele><time>2026-05-04T12:06:30.553Z</time></trkpt><trkpt lat="41.5654685" lon="0.5298161"><ele>133.0</ele><time>2026-05-04T12:06:31.55Z</time></trkpt><trkpt lat="41.565557" lon="0.52987"><ele>133.0</ele><time>2026-05-04T12:06:32.546Z</time></trkpt><trkpt lat="41.5656472" lon="0.5299231"><ele>133.5</ele><time>2026-05-04T12:06:33.539Z</time></trkpt><trkpt lat="41.5657354" lon="0.529983"><ele>134.0</ele><time>2026-05-04T12:06:34.547Z</time></trkpt><trkpt lat="41.5658177" lon="0.5300311"><ele>134.5</ele><time>2026-05-04T12:06:35.542Z</time></trkpt><trkpt lat="41.5658959" lon="0.5300736"><ele>135.0</ele><time>2026-05-04T12:06:36.546Z</time></trkpt><trkpt lat="41.5659667" lon="0.5301116"><ele>135.5</ele><time>2026-05-04T12:06:37.546Z</time></trkpt><trkpt lat="41.5660277" lon="0.5301575"><ele>136.0</ele><time>2026-05-04T12:06:38.545Z</time></trkpt><trkpt lat="41.5660823" lon="0.5302125"><ele>136.0</ele><time>2026-05-04T12:06:39.546Z</time></trkpt><trkpt lat="41.566129" lon="0.530277"><ele>136.0</ele><time>2026-05-04T12:06:40.544Z</time></trkpt><trkpt lat="41.5661695" lon="0.530352"><ele>136.0</ele><time>2026-05-04T12:06:41.552Z</time></trkpt><trkpt lat="41.5662085" lon="0.5304321"><ele>136.0</ele><time>2026-05-04T12:06:42.553Z</time></trkpt><trkpt lat="41.5662594" lon="0.5305079"><ele>136.0</ele><time>2026-05-04T12:06:43.551Z</time></trkpt><trkpt lat="41.5663124" lon="0.5305879"><ele>136.0</ele><time>2026-05-04T12:06:44.549Z</time></trkpt><trkpt lat="41.566376" lon="0.5306718"><ele>136.2</ele><time>2026-05-04T12:06:45.553Z</time></trkpt><trkpt lat="41.5664386" lon="0.5307691"><ele>136.39999999999998</ele><time>2026-05-04T12:06:46.553Z</time></trkpt><trkpt lat="41.5664992" lon="0.53088"><ele>136.6</ele><time>2026-05-04T12:06:47.552Z</time></trkpt><trkpt lat="41.5665644" lon="0.5310041"><ele>136.79999999999998</ele><time>2026-05-04T12:06:48.552Z</time></trkpt><trkpt lat="41.5666274" lon="0.5311265"><ele>137.0</ele><time>2026-05-04T12:06:49.553Z</time></trkpt><trkpt lat="41.5666954" lon="0.5312534"><ele>136.5</ele><time>2026-05-04T12:06:50.553Z</time></trkpt><trkpt lat="41.5667644" lon="0.5313842"><ele>136.0</ele><time>2026-05-04T12:06:51.553Z</time></trkpt><trkpt lat="41.5668296" lon="0.5315175"><ele>135.5</ele><time>2026-05-04T12:06:52.548Z</time></trkpt><trkpt lat="41.566897" lon="0.531656"><ele>135.0</ele><time>2026-05-04T12:06:53.553Z</time></trkpt><trkpt lat="41.5669631" lon="0.5317952"><ele>135.0</ele><time>2026-05-04T12:06:54.554Z</time></trkpt><trkpt lat="41.567027" lon="0.5319325"><ele>135.0</ele><time>2026-05-04T12:06:55.565Z</time></trkpt><trkpt lat="41.5671011" lon="0.5320825"><ele>135.0</ele><time>2026-05-04T12:06:56.555Z</time></trkpt><trkpt lat="41.5671812" lon="0.5322307"><ele>135.0</ele><time>2026-05-04T12:06:57.562Z</time></trkpt><trkpt lat="41.5672634" lon="0.5323837"><ele>135.0</ele><time>2026-05-04T12:06:58.562Z</time></trkpt><trkpt lat="41.5673436" lon="0.5325353"><ele>135.0</ele><time>2026-05-04T12:06:59.566Z</time></trkpt><trkpt lat="41.5674249" lon="0.5326861"><ele>135.0</ele><time>2026-05-04T12:07:00.562Z</time></trkpt><trkpt lat="41.5675038" lon="0.532841"><ele>135.0</ele><time>2026-05-04T12:07:01.561Z</time></trkpt><trkpt lat="41.5675799" lon="0.5329975"><ele>135.0</ele><time>2026-05-04T12:07:02.56Z</time></trkpt><trkpt lat="41.5676621" lon="0.5331433"><ele>135.0</ele><time>2026-05-04T12:07:03.558Z</time></trkpt><trkpt lat="41.5677382" lon="0.5332963"><ele>135.0</ele><time>2026-05-04T12:07:04.557Z</time></trkpt><trkpt lat="41.5678053" lon="0.5334539"><ele>135.0</ele><time>2026-05-04T12:07:05.558Z</time></trkpt><trkpt lat="41.5678758" lon="0.5336127"><ele>134.75</ele><time>2026-05-04T12:07:06.555Z</time></trkpt><trkpt lat="41.5679462" lon="0.5337727"><ele>134.5</ele><time>2026-05-04T12:07:07.557Z</time></trkpt><trkpt lat="41.5680075" lon="0.5339406"><ele>134.25</ele><time>2026-05-04T12:07:08.554Z</time></trkpt><trkpt lat="41.5680747" lon="0.5341034"><ele>134.0</ele><time>2026-05-04T12:07:09.554Z</time></trkpt><trkpt lat="41.5681349" lon="0.5342619"><ele>134.0</ele><time>2026-05-04T12:07:10.56Z</time></trkpt><trkpt lat="41.5682016" lon="0.53442"><ele>134.0</ele><time>2026-05-04T12:07:11.557Z</time></trkpt><trkpt lat="41.5682681" lon="0.5345787"><ele>134.0</ele><time>2026-05-04T12:07:12.557Z</time></trkpt><trkpt lat="41.5683337" lon="0.5347416"><ele>134.0</ele><time>2026-05-04T12:07:13.553Z</time></trkpt><trkpt lat="41.5684012" lon="0.5349043"><ele>133.5</ele><time>2026-05-04T12:07:14.557Z</time></trkpt><trkpt lat="41.5684715" lon="0.5350657"><ele>133.0</ele><time>2026-05-04T12:07:15.558Z</time></trkpt><trkpt lat="41.5685358" lon="0.5352287"><ele>132.5</ele><time>2026-05-04T12:07:16.555Z</time></trkpt><trkpt lat="41.5685983" lon="0.5353908"><ele>132.0</ele><time>2026-05-04T12:07:17.553Z</time></trkpt><trkpt lat="41.5686692" lon="0.5355603"><ele>132.0</ele><time>2026-05-04T12:07:18.551Z</time></trkpt><trkpt lat="41.56874" lon="0.5357267"><ele>132.0</ele><time>2026-05-04T12:07:19.554Z</time></trkpt><trkpt lat="41.5688011" lon="0.5358897"><ele>132.0</ele><time>2026-05-04T12:07:20.558Z</time></trkpt><trkpt lat="41.5688642" lon="0.5360431"><ele>132.0</ele><time>2026-05-04T12:07:21.552Z</time></trkpt><trkpt lat="41.5689311" lon="0.5361994"><ele>132.25</ele><time>2026-05-04T12:07:22.556Z</time></trkpt><trkpt lat="41.5689922" lon="0.5363567"><ele>132.5</ele><time>2026-05-04T12:07:23.553Z</time></trkpt><trkpt lat="41.5690582" lon="0.5365108"><ele>132.75</ele><time>2026-05-04T12:07:24.555Z</time></trkpt><trkpt lat="41.5691175" lon="0.5366601"><ele>133.0</ele><time>2026-05-04T12:07:25.557Z</time></trkpt><trkpt lat="41.569183" lon="0.5368059"><ele>133.0</ele><time>2026-05-04T12:07:26.562Z</time></trkpt><trkpt lat="41.5692502" lon="0.5369572"><ele>133.0</ele><time>2026-05-04T12:07:27.559Z</time></trkpt><trkpt lat="41.5693233" lon="0.5370968"><ele>133.0</ele><time>2026-05-04T12:07:28.557Z</time></trkpt><trkpt lat="41.5693997" lon="0.5372423"><ele>133.0</ele><time>2026-05-04T12:07:29.553Z</time></trkpt><trkpt lat="41.5694771" lon="0.5373835"><ele>133.75</ele><time>2026-05-04T12:07:30.557Z</time></trkpt><trkpt lat="41.5695529" lon="0.5375277"><ele>134.5</ele><time>2026-05-04T12:07:31.555Z</time></trkpt><trkpt lat="41.5696295" lon="0.5376707"><ele>135.25</ele><time>2026-05-04T12:07:32.556Z</time></trkpt><trkpt lat="41.5697021" lon="0.5378168"><ele>136.0</ele><time>2026-05-04T12:07:33.556Z</time></trkpt><trkpt lat="41.5697746" lon="0.537961"><ele>136.25</ele><time>2026-05-04T12:07:34.555Z</time></trkpt><trkpt lat="41.5698463" lon="0.5381074"><ele>136.5</ele><time>2026-05-04T12:07:35.553Z</time></trkpt><trkpt lat="41.5699226" lon="0.5382563"><ele>136.75</ele><time>2026-05-04T12:07:36.554Z</time></trkpt><trkpt lat="41.5699983" lon="0.5384064"><ele>137.0</ele><time>2026-05-04T12:07:37.555Z</time></trkpt><trkpt lat="41.5700792" lon="0.5385618"><ele>137.0</ele><time>2026-05-04T12:07:38.557Z</time></trkpt><trkpt lat="41.5701618" lon="0.5387142"><ele>137.0</ele><time>2026-05-04T12:07:39.553Z</time></trkpt><trkpt lat="41.5702461" lon="0.5388692"><ele>137.0</ele><time>2026-05-04T12:07:40.556Z</time></trkpt><trkpt lat="41.5703211" lon="0.5390254"><ele>137.0</ele><time>2026-05-04T12:07:41.551Z</time></trkpt><trkpt lat="41.5704036" lon="0.5391791"><ele>137.0</ele><time>2026-05-04T12:07:42.553Z</time></trkpt><trkpt lat="41.5704818" lon="0.5393308"><ele>137.0</ele><time>2026-05-04T12:07:43.551Z</time></trkpt><trkpt lat="41.5705642" lon="0.5394794"><ele>137.0</ele><time>2026-05-04T12:07:44.552Z</time></trkpt><trkpt lat="41.5706407" lon="0.5396255"><ele>137.0</ele><time>2026-05-04T12:07:45.553Z</time></trkpt><trkpt lat="41.5707136" lon="0.5397697"><ele>137.0</ele><time>2026-05-04T12:07:46.551Z</time></trkpt><trkpt lat="41.5707778" lon="0.5399263"><ele>137.0</ele><time>2026-05-04T12:07:47.551Z</time></trkpt><trkpt lat="41.570848" lon="0.5400824"><ele>137.0</ele><time>2026-05-04T12:07:48.552Z</time></trkpt><trkpt lat="41.5709112" lon="0.5402418"><ele>137.0</ele><time>2026-05-04T12:07:49.556Z</time></trkpt><trkpt lat="41.5709711" lon="0.5404108"><ele>137.0</ele><time>2026-05-04T12:07:50.556Z</time></trkpt><trkpt lat="41.5710357" lon="0.5405735"><ele>137.0</ele><time>2026-05-04T12:07:51.566Z</time></trkpt><trkpt lat="41.5711026" lon="0.5407257"><ele>137.0</ele><time>2026-05-04T12:07:52.556Z</time></trkpt><trkpt lat="41.5711809" lon="0.5408847"><ele>137.0</ele><time>2026-05-04T12:07:53.561Z</time></trkpt><trkpt lat="41.5712483" lon="0.5410441"><ele>137.75</ele><time>2026-05-04T12:07:54.555Z</time></trkpt><trkpt lat="41.5713124" lon="0.5412062"><ele>138.5</ele><time>2026-05-04T12:07:55.555Z</time></trkpt><trkpt lat="41.5713833" lon="0.5413682"><ele>139.25</ele><time>2026-05-04T12:07:56.55Z</time></trkpt><trkpt lat="41.5714488" lon="0.5415329"><ele>140.0</ele><time>2026-05-04T12:07:57.556Z</time></trkpt><trkpt lat="41.5715174" lon="0.5417014"><ele>140.0</ele><time>2026-05-04T12:07:58.559Z</time></trkpt><trkpt lat="41.5715823" lon="0.5418578"><ele>140.0</ele><time>2026-05-04T12:07:59.556Z</time></trkpt><trkpt lat="41.5716552" lon="0.5420107"><ele>140.0</ele><time>2026-05-04T12:08:00.564Z</time></trkpt><trkpt lat="41.5717238" lon="0.5421659"><ele>140.0</ele><time>2026-05-04T12:08:01.555Z</time></trkpt><trkpt lat="41.5717982" lon="0.5423228"><ele>140.0</ele><time>2026-05-04T12:08:02.556Z</time></trkpt><trkpt lat="41.5718611" lon="0.5424819"><ele>140.0</ele><time>2026-05-04T12:08:03.559Z</time></trkpt><trkpt lat="41.571928" lon="0.5426389"><ele>140.0</ele><time>2026-05-04T12:08:04.559Z</time></trkpt><trkpt lat="41.5720027" lon="0.542801"><ele>140.0</ele><time>2026-05-04T12:08:05.555Z</time></trkpt><trkpt lat="41.5720641" lon="0.5429639"><ele>140.0</ele><time>2026-05-04T12:08:06.562Z</time></trkpt><trkpt lat="41.5721288" lon="0.5431312"><ele>140.0</ele><time>2026-05-04T12:08:07.555Z</time></trkpt><trkpt lat="41.572192" lon="0.5433078"><ele>140.0</ele><time>2026-05-04T12:08:08.558Z</time></trkpt><trkpt lat="41.5722393" lon="0.5434879"><ele>140.0</ele><time>2026-05-04T12:08:09.556Z</time></trkpt><trkpt lat="41.5722914" lon="0.5436724"><ele>139.5</ele><time>2026-05-04T12:08:10.555Z</time></trkpt><trkpt lat="41.5723373" lon="0.5438589"><ele>139.0</ele><time>2026-05-04T12:08:11.558Z</time></trkpt><trkpt lat="41.5723806" lon="0.5440531"><ele>138.5</ele><time>2026-05-04T12:08:12.56Z</time></trkpt><trkpt lat="41.5724171" lon="0.5442484"><ele>138.0</ele><time>2026-05-04T12:08:13.554Z</time></trkpt><trkpt lat="41.5724555" lon="0.5444342"><ele>136.66666666666666</ele><time>2026-05-04T12:08:14.555Z</time></trkpt><trkpt lat="41.572501" lon="0.5446326"><ele>135.33333333333331</ele><time>2026-05-04T12:08:15.552Z</time></trkpt><trkpt lat="41.5725397" lon="0.5448283"><ele>134.0</ele><time>2026-05-04T12:08:16.554Z</time></trkpt><trkpt lat="41.5725817" lon="0.5450251"><ele>134.0</ele><time>2026-05-04T12:08:17.552Z</time></trkpt><trkpt lat="41.572622" lon="0.5452193"><ele>134.0</ele><time>2026-05-04T12:08:18.557Z</time></trkpt><trkpt lat="41.5726612" lon="0.5454206"><ele>134.0</ele><time>2026-05-04T12:08:19.558Z</time></trkpt><trkpt lat="41.572698" lon="0.5456241"><ele>133.75</ele><time>2026-05-04T12:08:20.555Z</time></trkpt><trkpt lat="41.5727459" lon="0.5458048"><ele>133.5</ele><time>2026-05-04T12:08:21.565Z</time></trkpt><trkpt lat="41.5727847" lon="0.545991"><ele>133.25</ele><time>2026-05-04T12:08:22.562Z</time></trkpt><trkpt lat="41.57282" lon="0.5461717"><ele>133.0</ele><time>2026-05-04T12:08:23.56Z</time></trkpt><trkpt lat="41.5728592" lon="0.5463469"><ele>134.25</ele><time>2026-05-04T12:08:24.562Z</time></trkpt><trkpt lat="41.5728999" lon="0.546522"><ele>135.5</ele><time>2026-05-04T12:08:25.561Z</time></trkpt><trkpt lat="41.5729368" lon="0.5467075"><ele>136.75</ele><time>2026-05-04T12:08:26.559Z</time></trkpt><trkpt lat="41.5729764" lon="0.5468967"><ele>138.0</ele><time>2026-05-04T12:08:27.557Z</time></trkpt><trkpt lat="41.5730158" lon="0.5470754"><ele>139.0</ele><time>2026-05-04T12:08:28.562Z</time></trkpt><trkpt lat="41.5730936" lon="0.5474327"><ele>140.0</ele><time>2026-05-04T12:08:30.555Z</time></trkpt><trkpt lat="41.5731315" lon="0.5476182"><ele>141.0</ele><time>2026-05-04T12:08:31.552Z</time></trkpt><trkpt lat="41.5731838" lon="0.5477977"><ele>141.0</ele><time>2026-05-04T12:08:32.553Z</time></trkpt><trkpt lat="41.573237" lon="0.5479662"><ele>141.0</ele><time>2026-05-04T12:08:33.556Z</time></trkpt><trkpt lat="41.5732949" lon="0.5481352"><ele>141.0</ele><time>2026-05-04T12:08:34.554Z</time></trkpt><trkpt lat="41.5733606" lon="0.5483036"><ele>141.0</ele><time>2026-05-04T12:08:35.554Z</time></trkpt><trkpt lat="41.573433" lon="0.548473"><ele>141.0</ele><time>2026-05-04T12:08:36.555Z</time></trkpt><trkpt lat="41.5735034" lon="0.5486394"><ele>141.0</ele><time>2026-05-04T12:08:37.554Z</time></trkpt><trkpt lat="41.573572" lon="0.5488098"><ele>141.0</ele><time>2026-05-04T12:08:38.554Z</time></trkpt><trkpt lat="41.5736443" lon="0.5489751"><ele>141.0</ele><time>2026-05-04T12:08:39.553Z</time></trkpt><trkpt lat="41.5737194" lon="0.5491434"><ele>140.75</ele><time>2026-05-04T12:08:40.553Z</time></trkpt><trkpt lat="41.5737914" lon="0.5493224"><ele>140.5</ele><time>2026-05-04T12:08:41.553Z</time></trkpt><trkpt lat="41.5738688" lon="0.5494896"><ele>140.25</ele><time>2026-05-04T12:08:42.555Z</time></trkpt><trkpt lat="41.5739474" lon="0.5496533"><ele>140.0</ele><time>2026-05-04T12:08:43.555Z</time></trkpt><trkpt lat="41.5740224" lon="0.5498193"><ele>140.0</ele><time>2026-05-04T12:08:44.557Z</time></trkpt><trkpt lat="41.5740881" lon="0.5499965"><ele>140.0</ele><time>2026-05-04T12:08:45.55Z</time></trkpt><trkpt lat="41.5741552" lon="0.5501798"><ele>140.0</ele><time>2026-05-04T12:08:46.557Z</time></trkpt><trkpt lat="41.5742202" lon="0.5503607"><ele>139.25</ele><time>2026-05-04T12:08:47.552Z</time></trkpt><trkpt lat="41.5742961" lon="0.550529"><ele>138.5</ele><time>2026-05-04T12:08:48.549Z</time></trkpt><trkpt lat="41.574367" lon="0.5506932"><ele>137.75</ele><time>2026-05-04T12:08:49.557Z</time></trkpt><trkpt lat="41.5744454" lon="0.5508564"><ele>137.0</ele><time>2026-05-04T12:08:50.554Z</time></trkpt><trkpt lat="41.5745192" lon="0.5510181"><ele>138.0</ele><time>2026-05-04T12:08:51.552Z</time></trkpt><trkpt lat="41.5745866" lon="0.5511979"><ele>139.0</ele><time>2026-05-04T12:08:52.556Z</time></trkpt><trkpt lat="41.5746535" lon="0.551366"><ele>140.0</ele><time>2026-05-04T12:08:53.558Z</time></trkpt><trkpt lat="41.5747115" lon="0.5515392"><ele>141.0</ele><time>2026-05-04T12:08:54.557Z</time></trkpt><trkpt lat="41.5747734" lon="0.5517142"><ele>141.0</ele><time>2026-05-04T12:08:55.552Z</time></trkpt><trkpt lat="41.5748356" lon="0.5518887"><ele>141.0</ele><time>2026-05-04T12:08:56.555Z</time></trkpt><trkpt lat="41.5748979" lon="0.5520613"><ele>141.0</ele><time>2026-05-04T12:08:57.547Z</time></trkpt><trkpt lat="41.5749531" lon="0.5522348"><ele>141.0</ele><time>2026-05-04T12:08:58.556Z</time></trkpt><trkpt lat="41.5750126" lon="0.5524007"><ele>140.5</ele><time>2026-05-04T12:08:59.553Z</time></trkpt><trkpt lat="41.5750685" lon="0.5525603"><ele>140.0</ele><time>2026-05-04T12:09:00.565Z</time></trkpt><trkpt lat="41.575138" lon="0.5527215"><ele>139.5</ele><time>2026-05-04T12:09:01.553Z</time></trkpt><trkpt lat="41.5752071" lon="0.552882"><ele>139.0</ele><time>2026-05-04T12:09:02.543Z</time></trkpt><trkpt lat="41.5752889" lon="0.5530397"><ele>139.5</ele><time>2026-05-04T12:09:03.551Z</time></trkpt><trkpt lat="41.5753688" lon="0.553194"><ele>140.0</ele><time>2026-05-04T12:09:04.55Z</time></trkpt><trkpt lat="41.5754586" lon="0.5533444"><ele>140.5</ele><time>2026-05-04T12:09:05.558Z</time></trkpt><trkpt lat="41.5755531" lon="0.5534985"><ele>141.0</ele><time>2026-05-04T12:09:06.549Z</time></trkpt><trkpt lat="41.57564" lon="0.5536464"><ele>141.0</ele><time>2026-05-04T12:09:07.552Z</time></trkpt><trkpt lat="41.5757342" lon="0.5537973"><ele>141.0</ele><time>2026-05-04T12:09:08.555Z</time></trkpt><trkpt lat="41.5758179" lon="0.5539496"><ele>141.0</ele><time>2026-05-04T12:09:09.555Z</time></trkpt><trkpt lat="41.5758996" lon="0.554092"><ele>141.0</ele><time>2026-05-04T12:09:10.554Z</time></trkpt><trkpt lat="41.5759851" lon="0.5542294"><ele>141.0</ele><time>2026-05-04T12:09:11.552Z</time></trkpt><trkpt lat="41.5760651" lon="0.5543727"><ele>141.0</ele><time>2026-05-04T12:09:12.553Z</time></trkpt><trkpt lat="41.576146" lon="0.5545099"><ele>141.0</ele><time>2026-05-04T12:09:13.556Z</time></trkpt><trkpt lat="41.5762342" lon="0.554639"><ele>141.0</ele><time>2026-05-04T12:09:14.555Z</time></trkpt><trkpt lat="41.5763212" lon="0.5547807"><ele>141.75</ele><time>2026-05-04T12:09:15.554Z</time></trkpt><trkpt lat="41.5764024" lon="0.5549383"><ele>142.5</ele><time>2026-05-04T12:09:16.553Z</time></trkpt><trkpt lat="41.5764961" lon="0.555086"><ele>143.25</ele><time>2026-05-04T12:09:17.556Z</time></trkpt><trkpt lat="41.5765819" lon="0.5552415"><ele>144.0</ele><time>2026-05-04T12:09:18.554Z</time></trkpt><trkpt lat="41.5766815" lon="0.5554033"><ele>144.0</ele><time>2026-05-04T12:09:19.554Z</time></trkpt><trkpt lat="41.5767797" lon="0.5555735"><ele>144.0</ele><time>2026-05-04T12:09:20.555Z</time></trkpt><trkpt lat="41.5768772" lon="0.5557555"><ele>144.0</ele><time>2026-05-04T12:09:21.554Z</time></trkpt><trkpt lat="41.5769754" lon="0.5559368"><ele>144.0</ele><time>2026-05-04T12:09:22.555Z</time></trkpt><trkpt lat="41.5770708" lon="0.5561091"><ele>144.0</ele><time>2026-05-04T12:09:23.554Z</time></trkpt><trkpt lat="41.5771583" lon="0.5562749"><ele>144.0</ele><time>2026-05-04T12:09:24.556Z</time></trkpt><trkpt lat="41.57725" lon="0.5564364"><ele>143.66666666666666</ele><time>2026-05-04T12:09:25.557Z</time></trkpt><trkpt lat="41.5773406" lon="0.5565997"><ele>143.33333333333331</ele><time>2026-05-04T12:09:26.555Z</time></trkpt><trkpt lat="41.5774299" lon="0.5567577"><ele>143.0</ele><time>2026-05-04T12:09:27.558Z</time></trkpt><trkpt lat="41.5775311" lon="0.5569099"><ele>143.0</ele><time>2026-05-04T12:09:28.568Z</time></trkpt><trkpt lat="41.5776232" lon="0.5570713"><ele>143.0</ele><time>2026-05-04T12:09:29.553Z</time></trkpt><trkpt lat="41.5777183" lon="0.5572281"><ele>143.0</ele><time>2026-05-04T12:09:30.558Z</time></trkpt><trkpt lat="41.5778116" lon="0.5573966"><ele>143.66666666666666</ele><time>2026-05-04T12:09:31.558Z</time></trkpt><trkpt lat="41.5779064" lon="0.5575537"><ele>144.33333333333334</ele><time>2026-05-04T12:09:32.56Z</time></trkpt><trkpt lat="41.578001" lon="0.5577134"><ele>145.0</ele><time>2026-05-04T12:09:33.554Z</time></trkpt><trkpt lat="41.5780933" lon="0.5578692"><ele>145.33333333333334</ele><time>2026-05-04T12:09:34.554Z</time></trkpt><trkpt lat="41.5781874" lon="0.5580242"><ele>145.66666666666666</ele><time>2026-05-04T12:09:35.557Z</time></trkpt><trkpt lat="41.5782809" lon="0.5581906"><ele>146.0</ele><time>2026-05-04T12:09:36.556Z</time></trkpt><trkpt lat="41.5783758" lon="0.558343"><ele>146.0</ele><time>2026-05-04T12:09:37.557Z</time></trkpt><trkpt lat="41.5784692" lon="0.5585001"><ele>146.0</ele><time>2026-05-04T12:09:38.56Z</time></trkpt><trkpt lat="41.5785557" lon="0.5586578"><ele>146.0</ele><time>2026-05-04T12:09:39.558Z</time></trkpt><trkpt lat="41.5786446" lon="0.5588202"><ele>146.0</ele><time>2026-05-04T12:09:40.559Z</time></trkpt><trkpt lat="41.5787321" lon="0.5589674"><ele>146.25</ele><time>2026-05-04T12:09:41.557Z</time></trkpt><trkpt lat="41.5788233" lon="0.5591176"><ele>146.5</ele><time>2026-05-04T12:09:42.557Z</time></trkpt><trkpt lat="41.5789056" lon="0.5592569"><ele>146.75</ele><time>2026-05-04T12:09:43.555Z</time></trkpt><trkpt lat="41.5789811" lon="0.5594035"><ele>147.0</ele><time>2026-05-04T12:09:44.558Z</time></trkpt><trkpt lat="41.5790647" lon="0.5595439"><ele>147.0</ele><time>2026-05-04T12:09:45.555Z</time></trkpt><trkpt lat="41.5791517" lon="0.5596936"><ele>147.0</ele><time>2026-05-04T12:09:46.554Z</time></trkpt><trkpt lat="41.579233" lon="0.5598385"><ele>147.0</ele><time>2026-05-04T12:09:47.558Z</time></trkpt><trkpt lat="41.57931" lon="0.5599775"><ele>147.0</ele><time>2026-05-04T12:09:48.554Z</time></trkpt><trkpt lat="41.5793935" lon="0.5601134"><ele>147.0</ele><time>2026-05-04T12:09:49.554Z</time></trkpt><trkpt lat="41.5794796" lon="0.5602533"><ele>147.0</ele><time>2026-05-04T12:09:50.552Z</time></trkpt><trkpt lat="41.5795649" lon="0.5603941"><ele>147.0</ele><time>2026-05-04T12:09:51.55Z</time></trkpt><trkpt lat="41.5796442" lon="0.5605288"><ele>147.0</ele><time>2026-05-04T12:09:52.555Z</time></trkpt><trkpt lat="41.5797198" lon="0.5606686"><ele>147.0</ele><time>2026-05-04T12:09:53.554Z</time></trkpt><trkpt lat="41.5797878" lon="0.5608128"><ele>147.0</ele><time>2026-05-04T12:09:54.551Z</time></trkpt><trkpt lat="41.5798668" lon="0.5609487"><ele>147.0</ele><time>2026-05-04T12:09:55.554Z</time></trkpt><trkpt lat="41.5799462" lon="0.5610865"><ele>147.0</ele><time>2026-05-04T12:09:56.554Z</time></trkpt><trkpt lat="41.5800267" lon="0.5612379"><ele>147.0</ele><time>2026-05-04T12:09:57.555Z</time></trkpt><trkpt lat="41.5801077" lon="0.5613868"><ele>147.0</ele><time>2026-05-04T12:09:58.557Z</time></trkpt><trkpt lat="41.5801839" lon="0.5615344"><ele>147.0</ele><time>2026-05-04T12:09:59.555Z</time></trkpt><trkpt lat="41.5802627" lon="0.5616757"><ele>147.0</ele><time>2026-05-04T12:10:00.557Z</time></trkpt><trkpt lat="41.5803404" lon="0.5618221"><ele>147.25</ele><time>2026-05-04T12:10:01.556Z</time></trkpt><trkpt lat="41.5804211" lon="0.5619634"><ele>147.5</ele><time>2026-05-04T12:10:02.556Z</time></trkpt><trkpt lat="41.5805066" lon="0.56211"><ele>147.75</ele><time>2026-05-04T12:10:03.556Z</time></trkpt><trkpt lat="41.580591" lon="0.5622521"><ele>148.0</ele><time>2026-05-04T12:10:04.553Z</time></trkpt><trkpt lat="41.5806787" lon="0.5624033"><ele>148.0</ele><time>2026-05-04T12:10:05.554Z</time></trkpt><trkpt lat="41.5807584" lon="0.5625553"><ele>148.0</ele><time>2026-05-04T12:10:06.556Z</time></trkpt><trkpt lat="41.5808461" lon="0.5627108"><ele>148.0</ele><time>2026-05-04T12:10:07.556Z</time></trkpt><trkpt lat="41.5809326" lon="0.5628638"><ele>148.0</ele><time>2026-05-04T12:10:08.553Z</time></trkpt><trkpt lat="41.5810215" lon="0.5630165"><ele>147.66666666666669</ele><time>2026-05-04T12:10:09.552Z</time></trkpt><trkpt lat="41.5811147" lon="0.563172"><ele>147.33333333333334</ele><time>2026-05-04T12:10:10.554Z</time></trkpt><trkpt lat="41.5812124" lon="0.5633257"><ele>147.0</ele><time>2026-05-04T12:10:11.55Z</time></trkpt><trkpt lat="41.581317" lon="0.5634787"><ele>146.33333333333334</ele><time>2026-05-04T12:10:12.554Z</time></trkpt><trkpt lat="41.5814244" lon="0.5636354"><ele>145.66666666666669</ele><time>2026-05-04T12:10:13.552Z</time></trkpt><trkpt lat="41.5815228" lon="0.5638012"><ele>145.0</ele><time>2026-05-04T12:10:14.553Z</time></trkpt><trkpt lat="41.5816281" lon="0.5639631"><ele>145.25</ele><time>2026-05-04T12:10:15.555Z</time></trkpt><trkpt lat="41.5817207" lon="0.5641156"><ele>145.5</ele><time>2026-05-04T12:10:16.557Z</time></trkpt><trkpt lat="41.5818223" lon="0.5642674"><ele>145.75</ele><time>2026-05-04T12:10:17.555Z</time></trkpt><trkpt lat="41.5819165" lon="0.5644237"><ele>146.0</ele><time>2026-05-04T12:10:18.556Z</time></trkpt><trkpt lat="41.582007" lon="0.5645769"><ele>146.0</ele><time>2026-05-04T12:10:19.553Z</time></trkpt><trkpt lat="41.5821063" lon="0.5647189"><ele>146.0</ele><time>2026-05-04T12:10:20.555Z</time></trkpt><trkpt lat="41.5821988" lon="0.5648637"><ele>146.0</ele><time>2026-05-04T12:10:21.553Z</time></trkpt><trkpt lat="41.5822835" lon="0.5650079"><ele>146.0</ele><time>2026-05-04T12:10:22.556Z</time></trkpt><trkpt lat="41.5823742" lon="0.5651569"><ele>146.0</ele><time>2026-05-04T12:10:23.552Z</time></trkpt><trkpt lat="41.5824741" lon="0.5653015"><ele>146.0</ele><time>2026-05-04T12:10:24.552Z</time></trkpt><trkpt lat="41.5825575" lon="0.5654393"><ele>146.0</ele><time>2026-05-04T12:10:25.555Z</time></trkpt><trkpt lat="41.582642" lon="0.565585"><ele>146.0</ele><time>2026-05-04T12:10:26.553Z</time></trkpt><trkpt lat="41.5827283" lon="0.5657233"><ele>146.0</ele><time>2026-05-04T12:10:27.556Z</time></trkpt><trkpt lat="41.5828124" lon="0.5658613"><ele>146.0</ele><time>2026-05-04T12:10:28.561Z</time></trkpt><trkpt lat="41.5828983" lon="0.5660022"><ele>146.0</ele><time>2026-05-04T12:10:29.569Z</time></trkpt><trkpt lat="41.5829828" lon="0.5661352"><ele>146.0</ele><time>2026-05-04T12:10:30.568Z</time></trkpt><trkpt lat="41.5830691" lon="0.5662854"><ele>147.0</ele><time>2026-05-04T12:10:31.562Z</time></trkpt><trkpt lat="41.5831592" lon="0.5664226"><ele>148.0</ele><time>2026-05-04T12:10:32.566Z</time></trkpt><trkpt lat="41.5832462" lon="0.5665533"><ele>149.0</ele><time>2026-05-04T12:10:33.561Z</time></trkpt><trkpt lat="41.583317" lon="0.5666738"><ele>150.0</ele><time>2026-05-04T12:10:34.557Z</time></trkpt><trkpt lat="41.5833948" lon="0.5668135"><ele>150.0</ele><time>2026-05-04T12:10:35.562Z</time></trkpt><trkpt lat="41.5834854" lon="0.56695"><ele>150.0</ele><time>2026-05-04T12:10:36.563Z</time></trkpt><trkpt lat="41.583577" lon="0.5670882"><ele>150.0</ele><time>2026-05-04T12:10:37.563Z</time></trkpt><trkpt lat="41.5836721" lon="0.5672283"><ele>150.0</ele><time>2026-05-04T12:10:38.559Z</time></trkpt><trkpt lat="41.5837576" lon="0.5673656"><ele>151.0</ele><time>2026-05-04T12:10:39.562Z</time></trkpt><trkpt lat="41.5838538" lon="0.5675043"><ele>152.0</ele><time>2026-05-04T12:10:40.552Z</time></trkpt><trkpt lat="41.5839359" lon="0.5676527"><ele>153.0</ele><time>2026-05-04T12:10:41.551Z</time></trkpt><trkpt lat="41.5840267" lon="0.5677973"><ele>154.0</ele><time>2026-05-04T12:10:42.557Z</time></trkpt><trkpt lat="41.5841176" lon="0.5679378"><ele>154.25</ele><time>2026-05-04T12:10:43.56Z</time></trkpt><trkpt lat="41.5842034" lon="0.5680792"><ele>154.5</ele><time>2026-05-04T12:10:44.556Z</time></trkpt><trkpt lat="41.5842909" lon="0.5682207"><ele>154.75</ele><time>2026-05-04T12:10:45.556Z</time></trkpt><trkpt lat="41.5843782" lon="0.5683655"><ele>155.0</ele><time>2026-05-04T12:10:46.559Z</time></trkpt><trkpt lat="41.5844633" lon="0.5685306"><ele>156.25</ele><time>2026-05-04T12:10:47.541Z</time></trkpt><trkpt lat="41.5845604" lon="0.5686712"><ele>157.5</ele><time>2026-05-04T12:10:48.556Z</time></trkpt><trkpt lat="41.5846493" lon="0.5688009"><ele>158.75</ele><time>2026-05-04T12:10:49.547Z</time></trkpt><trkpt lat="41.5847384" lon="0.5689451"><ele>160.0</ele><time>2026-05-04T12:10:50.545Z</time></trkpt><trkpt lat="41.5848277" lon="0.5690869"><ele>160.0</ele><time>2026-05-04T12:10:51.55Z</time></trkpt><trkpt lat="41.5849169" lon="0.5692334"><ele>160.0</ele><time>2026-05-04T12:10:52.547Z</time></trkpt><trkpt lat="41.5850085" lon="0.5693747"><ele>160.0</ele><time>2026-05-04T12:10:53.55Z</time></trkpt><trkpt lat="41.5851005" lon="0.5695174"><ele>160.0</ele><time>2026-05-04T12:10:54.552Z</time></trkpt><trkpt lat="41.5851885" lon="0.5696564"><ele>160.0</ele><time>2026-05-04T12:10:55.552Z</time></trkpt><trkpt lat="41.5852734" lon="0.5698042"><ele>160.0</ele><time>2026-05-04T12:10:56.544Z</time></trkpt><trkpt lat="41.5853719" lon="0.5699543"><ele>160.0</ele><time>2026-05-04T12:10:57.553Z</time></trkpt><trkpt lat="41.5854611" lon="0.5700979"><ele>160.0</ele><time>2026-05-04T12:10:58.555Z</time></trkpt><trkpt lat="41.5855536" lon="0.570243"><ele>159.75</ele><time>2026-05-04T12:10:59.552Z</time></trkpt><trkpt lat="41.5856506" lon="0.5703853"><ele>159.5</ele><time>2026-05-04T12:11:00.556Z</time></trkpt><trkpt lat="41.5857416" lon="0.5705277"><ele>159.25</ele><time>2026-05-04T12:11:01.552Z</time></trkpt><trkpt lat="41.5858338" lon="0.5706699"><ele>159.0</ele><time>2026-05-04T12:11:02.555Z</time></trkpt><trkpt lat="41.5859273" lon="0.5708205"><ele>159.0</ele><time>2026-05-04T12:11:03.543Z</time></trkpt><trkpt lat="41.5860116" lon="0.5709548"><ele>159.0</ele><time>2026-05-04T12:11:04.547Z</time></trkpt><trkpt lat="41.5861089" lon="0.5710954"><ele>159.0</ele><time>2026-05-04T12:11:05.547Z</time></trkpt><trkpt lat="41.5862041" lon="0.5712453"><ele>159.0</ele><time>2026-05-04T12:11:06.557Z</time></trkpt><trkpt lat="41.5862897" lon="0.5713923"><ele>159.25</ele><time>2026-05-04T12:11:07.552Z</time></trkpt><trkpt lat="41.5863777" lon="0.571534"><ele>159.5</ele><time>2026-05-04T12:11:08.554Z</time></trkpt><trkpt lat="41.5864627" lon="0.5716869"><ele>159.75</ele><time>2026-05-04T12:11:09.555Z</time></trkpt><trkpt lat="41.5865472" lon="0.5718434"><ele>160.0</ele><time>2026-05-04T12:11:10.554Z</time></trkpt><trkpt lat="41.5866203" lon="0.5720014"><ele>160.25</ele><time>2026-05-04T12:11:11.555Z</time></trkpt><trkpt lat="41.5866908" lon="0.572173"><ele>160.5</ele><time>2026-05-04T12:11:12.551Z</time></trkpt><trkpt lat="41.5867541" lon="0.5723462"><ele>160.75</ele><time>2026-05-04T12:11:13.558Z</time></trkpt><trkpt lat="41.5868224" lon="0.5725096"><ele>161.0</ele><time>2026-05-04T12:11:14.552Z</time></trkpt><trkpt lat="41.5869084" lon="0.5726419"><ele>161.0</ele><time>2026-05-04T12:11:15.547Z</time></trkpt><trkpt lat="41.5869892" lon="0.5727987"><ele>161.0</ele><time>2026-05-04T12:11:16.548Z</time></trkpt><trkpt lat="41.5870682" lon="0.5729631"><ele>161.0</ele><time>2026-05-04T12:11:17.551Z</time></trkpt><trkpt lat="41.5871485" lon="0.5731164"><ele>161.0</ele><time>2026-05-04T12:11:18.55Z</time></trkpt><trkpt lat="41.587226" lon="0.5732784"><ele>161.25</ele><time>2026-05-04T12:11:19.549Z</time></trkpt><trkpt lat="41.5873098" lon="0.5734352"><ele>161.5</ele><time>2026-05-04T12:11:20.549Z</time></trkpt><trkpt lat="41.587396" lon="0.5735859"><ele>161.75</ele><time>2026-05-04T12:11:21.549Z</time></trkpt><trkpt lat="41.5874851" lon="0.5737323"><ele>162.0</ele><time>2026-05-04T12:11:22.549Z</time></trkpt><trkpt lat="41.5875755" lon="0.5738811"><ele>162.0</ele><time>2026-05-04T12:11:23.548Z</time></trkpt><trkpt lat="41.5876693" lon="0.5740278"><ele>162.0</ele><time>2026-05-04T12:11:24.553Z</time></trkpt><trkpt lat="41.5877672" lon="0.5741702"><ele>162.0</ele><time>2026-05-04T12:11:25.548Z</time></trkpt><trkpt lat="41.5878703" lon="0.5743109"><ele>162.0</ele><time>2026-05-04T12:11:26.552Z</time></trkpt><trkpt lat="41.5879792" lon="0.5744506"><ele>163.0</ele><time>2026-05-04T12:11:27.551Z</time></trkpt><trkpt lat="41.5880941" lon="0.574587"><ele>164.0</ele><time>2026-05-04T12:11:28.558Z</time></trkpt><trkpt lat="41.5882" lon="0.5747197"><ele>165.0</ele><time>2026-05-04T12:11:29.551Z</time></trkpt><trkpt lat="41.5883138" lon="0.5748533"><ele>165.0</ele><time>2026-05-04T12:11:30.556Z</time></trkpt><trkpt lat="41.5884291" lon="0.5749883"><ele>165.0</ele><time>2026-05-04T12:11:31.552Z</time></trkpt><trkpt lat="41.5885368" lon="0.5751195"><ele>165.0</ele><time>2026-05-04T12:11:32.551Z</time></trkpt><trkpt lat="41.5886463" lon="0.5752459"><ele>165.0</ele><time>2026-05-04T12:11:33.554Z</time></trkpt><trkpt lat="41.5887559" lon="0.5753705"><ele>165.25</ele><time>2026-05-04T12:11:34.553Z</time></trkpt><trkpt lat="41.5888642" lon="0.5754992"><ele>165.5</ele><time>2026-05-04T12:11:35.552Z</time></trkpt><trkpt lat="41.5889684" lon="0.5756291"><ele>165.75</ele><time>2026-05-04T12:11:36.558Z</time></trkpt><trkpt lat="41.5890673" lon="0.5757617"><ele>166.0</ele><time>2026-05-04T12:11:37.552Z</time></trkpt><trkpt lat="41.5891677" lon="0.5758996"><ele>166.0</ele><time>2026-05-04T12:11:38.557Z</time></trkpt><trkpt lat="41.5892651" lon="0.5760402"><ele>166.0</ele><time>2026-05-04T12:11:39.555Z</time></trkpt><trkpt lat="41.589355" lon="0.5761869"><ele>166.0</ele><time>2026-05-04T12:11:40.554Z</time></trkpt><trkpt lat="41.5894393" lon="0.5763455"><ele>166.0</ele><time>2026-05-04T12:11:41.555Z</time></trkpt><trkpt lat="41.5895209" lon="0.5764971"><ele>165.75</ele><time>2026-05-04T12:11:42.555Z</time></trkpt><trkpt lat="41.5896066" lon="0.5766518"><ele>165.5</ele><time>2026-05-04T12:11:43.55Z</time></trkpt><trkpt lat="41.5896879" lon="0.576799"><ele>165.25</ele><time>2026-05-04T12:11:44.554Z</time></trkpt><trkpt lat="41.5897711" lon="0.576959"><ele>165.0</ele><time>2026-05-04T12:11:45.548Z</time></trkpt><trkpt lat="41.5898554" lon="0.5771104"><ele>165.0</ele><time>2026-05-04T12:11:46.553Z</time></trkpt><trkpt lat="41.589934" lon="0.5772513"><ele>165.0</ele><time>2026-05-04T12:11:47.548Z</time></trkpt><trkpt lat="41.5900075" lon="0.5774059"><ele>165.0</ele><time>2026-05-04T12:11:48.553Z</time></trkpt><trkpt lat="41.5900828" lon="0.5775542"><ele>165.0</ele><time>2026-05-04T12:11:49.547Z</time></trkpt><trkpt lat="41.5901705" lon="0.5777044"><ele>165.5</ele><time>2026-05-04T12:11:50.553Z</time></trkpt><trkpt lat="41.5902542" lon="0.5778593"><ele>166.0</ele><time>2026-05-04T12:11:51.549Z</time></trkpt><trkpt lat="41.5903358" lon="0.5780168"><ele>166.5</ele><time>2026-05-04T12:11:52.552Z</time></trkpt><trkpt lat="41.5904159" lon="0.5781843"><ele>167.0</ele><time>2026-05-04T12:11:53.554Z</time></trkpt><trkpt lat="41.5904892" lon="0.5783507"><ele>167.0</ele><time>2026-05-04T12:11:54.547Z</time></trkpt><trkpt lat="41.5905438" lon="0.5785281"><ele>167.0</ele><time>2026-05-04T12:11:55.555Z</time></trkpt><trkpt lat="41.5905982" lon="0.5787089"><ele>167.0</ele><time>2026-05-04T12:11:56.547Z</time></trkpt><trkpt lat="41.5906432" lon="0.5788938"><ele>167.0</ele><time>2026-05-04T12:11:57.548Z</time></trkpt><trkpt lat="41.590685" lon="0.5790786"><ele>165.5</ele><time>2026-05-04T12:11:58.553Z</time></trkpt><trkpt lat="41.5907209" lon="0.5792651"><ele>164.0</ele><time>2026-05-04T12:11:59.549Z</time></trkpt><trkpt lat="41.5907375" lon="0.5794654"><ele>162.5</ele><time>2026-05-04T12:12:00.557Z</time></trkpt><trkpt lat="41.590753" lon="0.57966"><ele>161.0</ele><time>2026-05-04T12:12:01.553Z</time></trkpt><trkpt lat="41.5907619" lon="0.5798504"><ele>160.33333333333331</ele><time>2026-05-04T12:12:02.553Z</time></trkpt><trkpt lat="41.5907614" lon="0.5800533"><ele>159.66666666666666</ele><time>2026-05-04T12:12:03.55Z</time></trkpt><trkpt lat="41.5907619" lon="0.5802552"><ele>159.0</ele><time>2026-05-04T12:12:04.552Z</time></trkpt><trkpt lat="41.5907613" lon="0.5804622"><ele>159.0</ele><time>2026-05-04T12:12:05.553Z</time></trkpt><trkpt lat="41.5907647" lon="0.5806631"><ele>159.0</ele><time>2026-05-04T12:12:06.554Z</time></trkpt><trkpt lat="41.5907661" lon="0.5808638"><ele>159.0</ele><time>2026-05-04T12:12:07.548Z</time></trkpt><trkpt lat="41.5907661" lon="0.5810641"><ele>158.66666666666666</ele><time>2026-05-04T12:12:08.552Z</time></trkpt><trkpt lat="41.5907693" lon="0.5812721"><ele>158.33333333333331</ele><time>2026-05-04T12:12:09.546Z</time></trkpt><trkpt lat="41.5907758" lon="0.5814791"><ele>158.0</ele><time>2026-05-04T12:12:10.554Z</time></trkpt><trkpt lat="41.590794" lon="0.5816847"><ele>158.0</ele><time>2026-05-04T12:12:11.551Z</time></trkpt><trkpt lat="41.5908138" lon="0.5818848"><ele>158.0</ele><time>2026-05-04T12:12:12.551Z</time></trkpt><trkpt lat="41.5908382" lon="0.5820821"><ele>158.0</ele><time>2026-05-04T12:12:13.551Z</time></trkpt><trkpt lat="41.5908603" lon="0.5822764"><ele>158.0</ele><time>2026-05-04T12:12:14.555Z</time></trkpt><trkpt lat="41.5908994" lon="0.5824676"><ele>158.0</ele><time>2026-05-04T12:12:15.551Z</time></trkpt><trkpt lat="41.5909413" lon="0.5826566"><ele>158.0</ele><time>2026-05-04T12:12:16.553Z</time></trkpt><trkpt lat="41.5909943" lon="0.5828421"><ele>158.0</ele><time>2026-05-04T12:12:17.555Z</time></trkpt><trkpt lat="41.5910522" lon="0.5830212"><ele>158.0</ele><time>2026-05-04T12:12:18.556Z</time></trkpt><trkpt lat="41.5911095" lon="0.5832075"><ele>158.33333333333331</ele><time>2026-05-04T12:12:19.554Z</time></trkpt><trkpt lat="41.5911743" lon="0.5833878"><ele>158.66666666666666</ele><time>2026-05-04T12:12:20.555Z</time></trkpt><trkpt lat="41.5912424" lon="0.5835653"><ele>159.0</ele><time>2026-05-04T12:12:21.556Z</time></trkpt><trkpt lat="41.5913178" lon="0.583742"><ele>159.33333333333334</ele><time>2026-05-04T12:12:22.558Z</time></trkpt><trkpt lat="41.5913947" lon="0.5839214"><ele>159.66666666666669</ele><time>2026-05-04T12:12:23.56Z</time></trkpt><trkpt lat="41.5914714" lon="0.5840981"><ele>160.0</ele><time>2026-05-04T12:12:24.559Z</time></trkpt><trkpt lat="41.5915503" lon="0.5842776"><ele>160.0</ele><time>2026-05-04T12:12:25.564Z</time></trkpt><trkpt lat="41.5916211" lon="0.5844532"><ele>160.0</ele><time>2026-05-04T12:12:26.555Z</time></trkpt><trkpt lat="41.5916997" lon="0.5846317"><ele>160.0</ele><time>2026-05-04T12:12:27.558Z</time></trkpt><trkpt lat="41.5917758" lon="0.584822"><ele>159.66666666666669</ele><time>2026-05-04T12:12:28.557Z</time></trkpt><trkpt lat="41.5918405" lon="0.5850092"><ele>159.33333333333334</ele><time>2026-05-04T12:12:29.556Z</time></trkpt><trkpt lat="41.5919196" lon="0.5851748"><ele>159.0</ele><time>2026-05-04T12:12:30.563Z</time></trkpt><trkpt lat="41.5919953" lon="0.5853628"><ele>159.5</ele><time>2026-05-04T12:12:31.557Z</time></trkpt><trkpt lat="41.5920651" lon="0.5855353"><ele>160.0</ele><time>2026-05-04T12:12:32.558Z</time></trkpt><trkpt lat="41.5921371" lon="0.5857089"><ele>160.5</ele><time>2026-05-04T12:12:33.555Z</time></trkpt><trkpt lat="41.5922121" lon="0.5858767"><ele>161.0</ele><time>2026-05-04T12:12:34.555Z</time></trkpt><trkpt lat="41.5922879" lon="0.5860499"><ele>160.33333333333331</ele><time>2026-05-04T12:12:35.556Z</time></trkpt><trkpt lat="41.5923604" lon="0.5862262"><ele>159.66666666666666</ele><time>2026-05-04T12:12:36.553Z</time></trkpt><trkpt lat="41.5924406" lon="0.5863961"><ele>159.0</ele><time>2026-05-04T12:12:37.56Z</time></trkpt><trkpt lat="41.5925114" lon="0.5865734"><ele>159.0</ele><time>2026-05-04T12:12:38.557Z</time></trkpt><trkpt lat="41.5925852" lon="0.5867418"><ele>159.0</ele><time>2026-05-04T12:12:39.557Z</time></trkpt><trkpt lat="41.5926603" lon="0.586914"><ele>159.0</ele><time>2026-05-04T12:12:40.555Z</time></trkpt><trkpt lat="41.5927395" lon="0.5870827"><ele>159.0</ele><time>2026-05-04T12:12:41.557Z</time></trkpt><trkpt lat="41.5928141" lon="0.5872537"><ele>159.0</ele><time>2026-05-04T12:12:42.554Z</time></trkpt><trkpt lat="41.5928896" lon="0.5874255"><ele>159.0</ele><time>2026-05-04T12:12:43.564Z</time></trkpt><trkpt lat="41.592958" lon="0.5875998"><ele>159.0</ele><time>2026-05-04T12:12:44.559Z</time></trkpt><trkpt lat="41.5930162" lon="0.5877878"><ele>159.0</ele><time>2026-05-04T12:12:45.559Z</time></trkpt><trkpt lat="41.5930729" lon="0.5879612"><ele>159.25</ele><time>2026-05-04T12:12:46.56Z</time></trkpt><trkpt lat="41.5931291" lon="0.5881439"><ele>159.5</ele><time>2026-05-04T12:12:47.557Z</time></trkpt><trkpt lat="41.5931821" lon="0.5883242"><ele>159.75</ele><time>2026-05-04T12:12:48.556Z</time></trkpt><trkpt lat="41.5932252" lon="0.5885078"><ele>160.0</ele><time>2026-05-04T12:12:49.556Z</time></trkpt><trkpt lat="41.5932816" lon="0.5886775"><ele>159.5</ele><time>2026-05-04T12:12:50.554Z</time></trkpt><trkpt lat="41.5933323" lon="0.5888318"><ele>159.0</ele><time>2026-05-04T12:12:51.556Z</time></trkpt><trkpt lat="41.5933837" lon="0.5889883"><ele>158.5</ele><time>2026-05-04T12:12:52.557Z</time></trkpt><trkpt lat="41.59343" lon="0.589126"><ele>158.0</ele><time>2026-05-04T12:12:53.557Z</time></trkpt><trkpt lat="41.5934774" lon="0.589267"><ele>158.0</ele><time>2026-05-04T12:12:54.568Z</time></trkpt><trkpt lat="41.5935231" lon="0.5893936"><ele>158.0</ele><time>2026-05-04T12:12:55.559Z</time></trkpt><trkpt lat="41.5935749" lon="0.5895168"><ele>158.0</ele><time>2026-05-04T12:12:56.555Z</time></trkpt><trkpt lat="41.5936184" lon="0.5896538"><ele>158.0</ele><time>2026-05-04T12:12:57.553Z</time></trkpt><trkpt lat="41.5936464" lon="0.589793"><ele>158.0</ele><time>2026-05-04T12:12:58.56Z</time></trkpt><trkpt lat="41.5936679" lon="0.5899246"><ele>158.20000000000002</ele><time>2026-05-04T12:12:59.554Z</time></trkpt><trkpt lat="41.593702" lon="0.5900424"><ele>158.4</ele><time>2026-05-04T12:13:00.554Z</time></trkpt><trkpt lat="41.5937462" lon="0.5901511"><ele>158.60000000000002</ele><time>2026-05-04T12:13:01.549Z</time></trkpt><trkpt lat="41.5938084" lon="0.5902426"><ele>158.8</ele><time>2026-05-04T12:13:02.557Z</time></trkpt><trkpt lat="41.5938872" lon="0.5903232"><ele>159.0</ele><time>2026-05-04T12:13:03.562Z</time></trkpt><trkpt lat="41.5939685" lon="0.5904098"><ele>159.25</ele><time>2026-05-04T12:13:04.557Z</time></trkpt><trkpt lat="41.594058" lon="0.5905105"><ele>159.5</ele><time>2026-05-04T12:13:05.554Z</time></trkpt><trkpt lat="41.5941419" lon="0.5906268"><ele>159.75</ele><time>2026-05-04T12:13:06.552Z</time></trkpt><trkpt lat="41.5942331" lon="0.5907654"><ele>160.0</ele><time>2026-05-04T12:13:07.558Z</time></trkpt><trkpt lat="41.5943203" lon="0.5909029"><ele>160.0</ele><time>2026-05-04T12:13:08.554Z</time></trkpt><trkpt lat="41.5944095" lon="0.5910475"><ele>160.0</ele><time>2026-05-04T12:13:09.553Z</time></trkpt><trkpt lat="41.5945113" lon="0.5911982"><ele>160.0</ele><time>2026-05-04T12:13:10.556Z</time></trkpt><trkpt lat="41.5946055" lon="0.5913383"><ele>160.0</ele><time>2026-05-04T12:13:11.558Z</time></trkpt><trkpt lat="41.5946877" lon="0.5914897"><ele>160.25</ele><time>2026-05-04T12:13:12.559Z</time></trkpt><trkpt lat="41.5947698" lon="0.5916338"><ele>160.5</ele><time>2026-05-04T12:13:13.559Z</time></trkpt><trkpt lat="41.5948557" lon="0.5917847"><ele>160.75</ele><time>2026-05-04T12:13:14.555Z</time></trkpt><trkpt lat="41.59494" lon="0.5919314"><ele>161.0</ele><time>2026-05-04T12:13:15.559Z</time></trkpt><trkpt lat="41.5950249" lon="0.5920791"><ele>160.5</ele><time>2026-05-04T12:13:16.555Z</time></trkpt><trkpt lat="41.595104" lon="0.5922257"><ele>160.0</ele><time>2026-05-04T12:13:17.558Z</time></trkpt><trkpt lat="41.59518" lon="0.5923704"><ele>159.5</ele><time>2026-05-04T12:13:18.56Z</time></trkpt><trkpt lat="41.5952656" lon="0.5925082"><ele>159.0</ele><time>2026-05-04T12:13:19.551Z</time></trkpt><trkpt lat="41.5953455" lon="0.5926577"><ele>159.0</ele><time>2026-05-04T12:13:20.555Z</time></trkpt><trkpt lat="41.5954176" lon="0.5927999"><ele>159.0</ele><time>2026-05-04T12:13:21.542Z</time></trkpt><trkpt lat="41.5954872" lon="0.5929349"><ele>159.0</ele><time>2026-05-04T12:13:22.56Z</time></trkpt><trkpt lat="41.5955698" lon="0.5930708"><ele>159.0</ele><time>2026-05-04T12:13:23.552Z</time></trkpt><trkpt lat="41.5956496" lon="0.5932037"><ele>159.25</ele><time>2026-05-04T12:13:24.564Z</time></trkpt><trkpt lat="41.5957287" lon="0.5933492"><ele>159.5</ele><time>2026-05-04T12:13:25.553Z</time></trkpt><trkpt lat="41.5958076" lon="0.5934828"><ele>159.75</ele><time>2026-05-04T12:13:26.556Z</time></trkpt><trkpt lat="41.5958872" lon="0.5936203"><ele>160.0</ele><time>2026-05-04T12:13:27.558Z</time></trkpt><trkpt lat="41.5959656" lon="0.5937556"><ele>160.0</ele><time>2026-05-04T12:13:28.561Z</time></trkpt><trkpt lat="41.5960463" lon="0.5938976"><ele>160.0</ele><time>2026-05-04T12:13:29.558Z</time></trkpt><trkpt lat="41.5961275" lon="0.5940409"><ele>160.0</ele><time>2026-05-04T12:13:30.565Z</time></trkpt><trkpt lat="41.596209" lon="0.5941835"><ele>160.0</ele><time>2026-05-04T12:13:31.555Z</time></trkpt><trkpt lat="41.5962888" lon="0.5943283"><ele>160.0</ele><time>2026-05-04T12:13:32.559Z</time></trkpt><trkpt lat="41.5963733" lon="0.5944771"><ele>160.0</ele><time>2026-05-04T12:13:33.557Z</time></trkpt><trkpt lat="41.5964547" lon="0.5946173"><ele>160.0</ele><time>2026-05-04T12:13:34.556Z</time></trkpt><trkpt lat="41.5965432" lon="0.5947609"><ele>160.0</ele><time>2026-05-04T12:13:35.56Z</time></trkpt><trkpt lat="41.596635" lon="0.5949076"><ele>160.0</ele><time>2026-05-04T12:13:36.558Z</time></trkpt><trkpt lat="41.5967266" lon="0.5950428"><ele>160.0</ele><time>2026-05-04T12:13:37.557Z</time></trkpt><trkpt lat="41.5968133" lon="0.5951856"><ele>160.0</ele><time>2026-05-04T12:13:38.558Z</time></trkpt><trkpt lat="41.5969025" lon="0.5953281"><ele>160.0</ele><time>2026-05-04T12:13:39.556Z</time></trkpt><trkpt lat="41.5969967" lon="0.595471"><ele>160.5</ele><time>2026-05-04T12:13:40.556Z</time></trkpt><trkpt lat="41.5970813" lon="0.5956095"><ele>161.0</ele><time>2026-05-04T12:13:41.562Z</time></trkpt><trkpt lat="41.5971679" lon="0.5957492"><ele>161.5</ele><time>2026-05-04T12:13:42.55Z</time></trkpt><trkpt lat="41.5972552" lon="0.5958902"><ele>162.0</ele><time>2026-05-04T12:13:43.568Z</time></trkpt><trkpt lat="41.5973435" lon="0.596027"><ele>162.0</ele><time>2026-05-04T12:13:44.559Z</time></trkpt><trkpt lat="41.5974421" lon="0.5961694"><ele>162.0</ele><time>2026-05-04T12:13:45.57Z</time></trkpt><trkpt lat="41.5975253" lon="0.5963013"><ele>162.0</ele><time>2026-05-04T12:13:46.558Z</time></trkpt><trkpt lat="41.5976984" lon="0.5965848"><ele>162.0</ele><time>2026-05-04T12:13:48.56Z</time></trkpt><trkpt lat="41.5977876" lon="0.5967276"><ele>162.0</ele><time>2026-05-04T12:13:49.557Z</time></trkpt><trkpt lat="41.5978765" lon="0.5968657"><ele>162.0</ele><time>2026-05-04T12:13:50.55Z</time></trkpt><trkpt lat="41.5979715" lon="0.5970104"><ele>162.0</ele><time>2026-05-04T12:13:51.554Z</time></trkpt><trkpt lat="41.5980682" lon="0.5971473"><ele>162.0</ele><time>2026-05-04T12:13:52.556Z</time></trkpt><trkpt lat="41.5981608" lon="0.5972876"><ele>162.0</ele><time>2026-05-04T12:13:53.558Z</time></trkpt><trkpt lat="41.5982526" lon="0.5974151"><ele>162.0</ele><time>2026-05-04T12:13:54.556Z</time></trkpt><trkpt lat="41.5983501" lon="0.5975413"><ele>162.0</ele><time>2026-05-04T12:13:55.558Z</time></trkpt><trkpt lat="41.5984488" lon="0.5976534"><ele>162.0</ele><time>2026-05-04T12:13:56.555Z</time></trkpt><trkpt lat="41.5985536" lon="0.5977541"><ele>162.0</ele><time>2026-05-04T12:13:57.554Z</time></trkpt><trkpt lat="41.5986547" lon="0.597841"><ele>162.0</ele><time>2026-05-04T12:13:58.563Z</time></trkpt><trkpt lat="41.5987519" lon="0.5979264"><ele>162.0</ele><time>2026-05-04T12:13:59.558Z</time></trkpt><trkpt lat="41.5988405" lon="0.598009"><ele>162.25</ele><time>2026-05-04T12:14:00.556Z</time></trkpt><trkpt lat="41.5989239" lon="0.5980819"><ele>162.5</ele><time>2026-05-04T12:14:01.548Z</time></trkpt><trkpt lat="41.599013" lon="0.5981541"><ele>162.75</ele><time>2026-05-04T12:14:02.551Z</time></trkpt><trkpt lat="41.5991957" lon="0.5982924"><ele>163.0</ele><time>2026-05-04T12:14:04.537Z</time></trkpt><trkpt lat="41.5992708" lon="0.5983794"><ele>163.0</ele><time>2026-05-04T12:14:05.549Z</time></trkpt><trkpt lat="41.5993434" lon="0.5984776"><ele>163.0</ele><time>2026-05-04T12:14:06.554Z</time></trkpt><trkpt lat="41.5994126" lon="0.59859"><ele>163.0</ele><time>2026-05-04T12:14:07.556Z</time></trkpt><trkpt lat="41.5994818" lon="0.5987108"><ele>163.0</ele><time>2026-05-04T12:14:08.55Z</time></trkpt><trkpt lat="41.5995574" lon="0.5988317"><ele>163.0</ele><time>2026-05-04T12:14:09.556Z</time></trkpt><trkpt lat="41.5996346" lon="0.5989585"><ele>162.5</ele><time>2026-05-04T12:14:10.554Z</time></trkpt><trkpt lat="41.5996995" lon="0.5990916"><ele>162.0</ele><time>2026-05-04T12:14:11.55Z</time></trkpt><trkpt lat="41.5997589" lon="0.5992306"><ele>161.5</ele><time>2026-05-04T12:14:12.545Z</time></trkpt><trkpt lat="41.5998105" lon="0.5993839"><ele>161.0</ele><time>2026-05-04T12:14:13.557Z</time></trkpt><trkpt lat="41.5998559" lon="0.5995373"><ele>161.0</ele><time>2026-05-04T12:14:14.554Z</time></trkpt><trkpt lat="41.5999008" lon="0.599689"><ele>161.0</ele><time>2026-05-04T12:14:15.558Z</time></trkpt><trkpt lat="41.5999455" lon="0.5998397"><ele>161.0</ele><time>2026-05-04T12:14:16.557Z</time></trkpt><trkpt lat="41.5999914" lon="0.599988"><ele>161.0</ele><time>2026-05-04T12:14:17.558Z</time></trkpt><trkpt lat="41.6000402" lon="0.6001401"><ele>161.0</ele><time>2026-05-04T12:14:18.559Z</time></trkpt><trkpt lat="41.6000909" lon="0.6002921"><ele>161.0</ele><time>2026-05-04T12:14:19.56Z</time></trkpt><trkpt lat="41.6001487" lon="0.6004523"><ele>161.0</ele><time>2026-05-04T12:14:20.557Z</time></trkpt><trkpt lat="41.6002045" lon="0.6006163"><ele>161.0</ele><time>2026-05-04T12:14:21.558Z</time></trkpt><trkpt lat="41.6002579" lon="0.6007884"><ele>160.75</ele><time>2026-05-04T12:14:22.559Z</time></trkpt><trkpt lat="41.6003122" lon="0.6009724"><ele>160.5</ele><time>2026-05-04T12:14:23.557Z</time></trkpt><trkpt lat="41.6003649" lon="0.6011505"><ele>160.25</ele><time>2026-05-04T12:14:24.557Z</time></trkpt><trkpt lat="41.6004202" lon="0.60132"><ele>160.0</ele><time>2026-05-04T12:14:25.558Z</time></trkpt><trkpt lat="41.6004762" lon="0.6014937"><ele>160.0</ele><time>2026-05-04T12:14:26.557Z</time></trkpt><trkpt lat="41.6005262" lon="0.6016658"><ele>160.0</ele><time>2026-05-04T12:14:27.557Z</time></trkpt><trkpt lat="41.6005811" lon="0.6018401"><ele>160.0</ele><time>2026-05-04T12:14:28.562Z</time></trkpt><trkpt lat="41.6006417" lon="0.602011"><ele>160.0</ele><time>2026-05-04T12:14:29.555Z</time></trkpt><trkpt lat="41.6006936" lon="0.6021819"><ele>160.0</ele><time>2026-05-04T12:14:30.558Z</time></trkpt><trkpt lat="41.6007521" lon="0.6023532"><ele>160.0</ele><time>2026-05-04T12:14:31.556Z</time></trkpt><trkpt lat="41.600815" lon="0.6025168"><ele>160.0</ele><time>2026-05-04T12:14:32.556Z</time></trkpt><trkpt lat="41.6008832" lon="0.60268"><ele>160.0</ele><time>2026-05-04T12:14:33.559Z</time></trkpt><trkpt lat="41.6009576" lon="0.6028318"><ele>160.25</ele><time>2026-05-04T12:14:34.559Z</time></trkpt><trkpt lat="41.6010299" lon="0.6029754"><ele>160.5</ele><time>2026-05-04T12:14:35.559Z</time></trkpt><trkpt lat="41.6011095" lon="0.603111"><ele>160.75</ele><time>2026-05-04T12:14:36.56Z</time></trkpt><trkpt lat="41.6011718" lon="0.6032303"><ele>161.0</ele><time>2026-05-04T12:14:37.554Z</time></trkpt><trkpt lat="41.6012385" lon="0.6033465"><ele>161.60000000000002</ele><time>2026-05-04T12:14:38.557Z</time></trkpt><trkpt lat="41.6013033" lon="0.603456"><ele>162.2</ele><time>2026-05-04T12:14:39.541Z</time></trkpt><trkpt lat="41.6013788" lon="0.6035713"><ele>162.8</ele><time>2026-05-04T12:14:40.557Z</time></trkpt><trkpt lat="41.6014426" lon="0.6036765"><ele>163.39999999999998</ele><time>2026-05-04T12:14:41.547Z</time></trkpt><trkpt lat="41.6015076" lon="0.6037929"><ele>164.0</ele><time>2026-05-04T12:14:42.551Z</time></trkpt><trkpt lat="41.601569" lon="0.603902"><ele>162.6</ele><time>2026-05-04T12:14:43.557Z</time></trkpt><trkpt lat="41.601626" lon="0.6040135"><ele>161.2</ele><time>2026-05-04T12:14:44.558Z</time></trkpt><trkpt lat="41.6016888" lon="0.6041225"><ele>159.79999999999998</ele><time>2026-05-04T12:14:45.558Z</time></trkpt><trkpt lat="41.601753" lon="0.6042308"><ele>158.39999999999998</ele><time>2026-05-04T12:14:46.557Z</time></trkpt><trkpt lat="41.6018212" lon="0.6043349"><ele>157.0</ele><time>2026-05-04T12:14:47.555Z</time></trkpt><trkpt lat="41.6018844" lon="0.6044377"><ele>156.0</ele><time>2026-05-04T12:14:48.558Z</time></trkpt><trkpt lat="41.6019455" lon="0.6045348"><ele>155.0</ele><time>2026-05-04T12:14:49.552Z</time></trkpt><trkpt lat="41.6020015" lon="0.6046333"><ele>154.0</ele><time>2026-05-04T12:14:50.55Z</time></trkpt><trkpt lat="41.6020455" lon="0.6047303"><ele>153.0</ele><time>2026-05-04T12:14:51.548Z</time></trkpt><trkpt lat="41.6020804" lon="0.6048305"><ele>152.0</ele><time>2026-05-04T12:14:52.552Z</time></trkpt><trkpt lat="41.6020919" lon="0.6049443"><ele>151.0</ele><time>2026-05-04T12:14:53.559Z</time></trkpt><trkpt lat="41.6020985" lon="0.6050605"><ele>151.71428571428572</ele><time>2026-05-04T12:14:54.553Z</time></trkpt><trkpt lat="41.602112" lon="0.6051656"><ele>152.42857142857144</ele><time>2026-05-04T12:14:55.557Z</time></trkpt><trkpt lat="41.6021297" lon="0.6052616"><ele>153.14285714285717</ele><time>2026-05-04T12:14:56.549Z</time></trkpt><trkpt lat="41.6021675" lon="0.6053377"><ele>153.85714285714286</ele><time>2026-05-04T12:14:57.557Z</time></trkpt><trkpt lat="41.6022222" lon="0.605394"><ele>154.57142857142856</ele><time>2026-05-04T12:14:58.552Z</time></trkpt><trkpt lat="41.602285" lon="0.6054337"><ele>155.2857142857143</ele><time>2026-05-04T12:14:59.547Z</time></trkpt><trkpt lat="41.6023539" lon="0.6054644"><ele>156.0</ele><time>2026-05-04T12:15:00.548Z</time></trkpt><trkpt lat="41.6024423" lon="0.6055082"><ele>156.0</ele><time>2026-05-04T12:15:01.553Z</time></trkpt><trkpt lat="41.6025205" lon="0.6055908"><ele>156.0</ele><time>2026-05-04T12:15:02.549Z</time></trkpt><trkpt lat="41.6025884" lon="0.6056966"><ele>156.0</ele><time>2026-05-04T12:15:03.552Z</time></trkpt><trkpt lat="41.6026562" lon="0.605827"><ele>156.0</ele><time>2026-05-04T12:15:04.553Z</time></trkpt><trkpt lat="41.6027227" lon="0.6059613"><ele>156.0</ele><time>2026-05-04T12:15:05.553Z</time></trkpt><trkpt lat="41.6027904" lon="0.606113"><ele>159.25</ele><time>2026-05-04T12:15:06.555Z</time></trkpt><trkpt lat="41.6028597" lon="0.6062666"><ele>162.5</ele><time>2026-05-04T12:15:07.558Z</time></trkpt><trkpt lat="41.602922" lon="0.6064245"><ele>165.75</ele><time>2026-05-04T12:15:08.555Z</time></trkpt><trkpt lat="41.602979" lon="0.6065895"><ele>169.0</ele><time>2026-05-04T12:15:09.555Z</time></trkpt><trkpt lat="41.6030338" lon="0.6067632"><ele>169.0</ele><time>2026-05-04T12:15:10.555Z</time></trkpt><trkpt lat="41.6030844" lon="0.6069345"><ele>169.0</ele><time>2026-05-04T12:15:11.557Z</time></trkpt><trkpt lat="41.6031387" lon="0.6071025"><ele>169.0</ele><time>2026-05-04T12:15:12.554Z</time></trkpt><trkpt lat="41.6031946" lon="0.607262"><ele>169.0</ele><time>2026-05-04T12:15:13.555Z</time></trkpt><trkpt lat="41.6032587" lon="0.6074256"><ele>167.5</ele><time>2026-05-04T12:15:14.557Z</time></trkpt><trkpt lat="41.6033316" lon="0.6076006"><ele>166.0</ele><time>2026-05-04T12:15:15.552Z</time></trkpt><trkpt lat="41.6034068" lon="0.6077591"><ele>164.5</ele><time>2026-05-04T12:15:16.557Z</time></trkpt><trkpt lat="41.6034806" lon="0.6079169"><ele>163.0</ele><time>2026-05-04T12:15:17.557Z</time></trkpt><trkpt lat="41.6035584" lon="0.6080698"><ele>162.25</ele><time>2026-05-04T12:15:18.555Z</time></trkpt><trkpt lat="41.6036341" lon="0.6082261"><ele>161.5</ele><time>2026-05-04T12:15:19.555Z</time></trkpt><trkpt lat="41.6037185" lon="0.608384"><ele>160.75</ele><time>2026-05-04T12:15:20.554Z</time></trkpt><trkpt lat="41.6038036" lon="0.6085371"><ele>160.0</ele><time>2026-05-04T12:15:21.561Z</time></trkpt><trkpt lat="41.603894" lon="0.6086908"><ele>160.0</ele><time>2026-05-04T12:15:22.556Z</time></trkpt><trkpt lat="41.6039841" lon="0.6088355"><ele>160.0</ele><time>2026-05-04T12:15:23.554Z</time></trkpt><trkpt lat="41.6040753" lon="0.6089842"><ele>160.0</ele><time>2026-05-04T12:15:24.551Z</time></trkpt><trkpt lat="41.6041546" lon="0.6091258"><ele>160.0</ele><time>2026-05-04T12:15:25.55Z</time></trkpt><trkpt lat="41.6042259" lon="0.6092721"><ele>160.0</ele><time>2026-05-04T12:15:26.547Z</time></trkpt><trkpt lat="41.6042976" lon="0.609421"><ele>160.0</ele><time>2026-05-04T12:15:27.551Z</time></trkpt><trkpt lat="41.604365" lon="0.6095577"><ele>160.0</ele><time>2026-05-04T12:15:28.556Z</time></trkpt><trkpt lat="41.6044314" lon="0.6096951"><ele>160.0</ele><time>2026-05-04T12:15:29.553Z</time></trkpt><trkpt lat="41.6045009" lon="0.6098256"><ele>160.25</ele><time>2026-05-04T12:15:30.549Z</time></trkpt><trkpt lat="41.6045657" lon="0.6099649"><ele>160.5</ele><time>2026-05-04T12:15:31.546Z</time></trkpt><trkpt lat="41.6046363" lon="0.6101005"><ele>160.75</ele><time>2026-05-04T12:15:32.543Z</time></trkpt><trkpt lat="41.6047003" lon="0.6102343"><ele>161.0</ele><time>2026-05-04T12:15:33.544Z</time></trkpt><trkpt lat="41.6047636" lon="0.6103684"><ele>159.75</ele><time>2026-05-04T12:15:34.551Z</time></trkpt><trkpt lat="41.6048278" lon="0.6104958"><ele>158.5</ele><time>2026-05-04T12:15:35.547Z</time></trkpt><trkpt lat="41.6048904" lon="0.6106224"><ele>157.25</ele><time>2026-05-04T12:15:36.547Z</time></trkpt><trkpt lat="41.6049531" lon="0.6107468"><ele>156.0</ele><time>2026-05-04T12:15:37.548Z</time></trkpt><trkpt lat="41.6050118" lon="0.6108759"><ele>156.0</ele><time>2026-05-04T12:15:38.552Z</time></trkpt><trkpt lat="41.6050703" lon="0.611013"><ele>156.0</ele><time>2026-05-04T12:15:39.545Z</time></trkpt><trkpt lat="41.6051256" lon="0.6111411"><ele>156.0</ele><time>2026-05-04T12:15:40.542Z</time></trkpt><trkpt lat="41.6051804" lon="0.611267"><ele>156.0</ele><time>2026-05-04T12:15:41.539Z</time></trkpt><trkpt lat="41.6052293" lon="0.6113903"><ele>156.0</ele><time>2026-05-04T12:15:42.546Z</time></trkpt><trkpt lat="41.6052805" lon="0.6114978"><ele>156.0</ele><time>2026-05-04T12:15:43.553Z</time></trkpt><trkpt lat="41.605335" lon="0.6116123"><ele>156.0</ele><time>2026-05-04T12:15:44.554Z</time></trkpt><trkpt lat="41.6053993" lon="0.6117319"><ele>156.0</ele><time>2026-05-04T12:15:45.549Z</time></trkpt><trkpt lat="41.6054637" lon="0.6118619"><ele>156.0</ele><time>2026-05-04T12:15:46.549Z</time></trkpt><trkpt lat="41.6055241" lon="0.6119897"><ele>156.0</ele><time>2026-05-04T12:15:47.545Z</time></trkpt><trkpt lat="41.605581" lon="0.612125"><ele>156.0</ele><time>2026-05-04T12:15:48.545Z</time></trkpt><trkpt lat="41.6056399" lon="0.6122573"><ele>156.0</ele><time>2026-05-04T12:15:49.547Z</time></trkpt><trkpt lat="41.6056957" lon="0.6123876"><ele>156.0</ele><time>2026-05-04T12:15:50.552Z</time></trkpt><trkpt lat="41.6057494" lon="0.6125148"><ele>156.0</ele><time>2026-05-04T12:15:51.553Z</time></trkpt><trkpt lat="41.6058" lon="0.6126421"><ele>156.0</ele><time>2026-05-04T12:15:52.554Z</time></trkpt><trkpt lat="41.6058436" lon="0.6127644"><ele>156.0</ele><time>2026-05-04T12:15:53.551Z</time></trkpt><trkpt lat="41.605882" lon="0.6128786"><ele>156.0</ele><time>2026-05-04T12:15:54.549Z</time></trkpt><trkpt lat="41.6059149" lon="0.6129898"><ele>156.0</ele><time>2026-05-04T12:15:55.554Z</time></trkpt><trkpt lat="41.6059259" lon="0.6130832"><ele>156.0</ele><time>2026-05-04T12:15:56.542Z</time></trkpt><trkpt lat="41.6059018" lon="0.6132372"><ele>156.0</ele><time>2026-05-04T12:15:58.554Z</time></trkpt><trkpt lat="41.6058501" lon="0.6133687"><ele>156.0</ele><time>2026-05-04T12:16:00.556Z</time></trkpt><trkpt lat="41.6057991" lon="0.6135182"><ele>156.0</ele><time>2026-05-04T12:16:02.548Z</time></trkpt><trkpt lat="41.6058061" lon="0.6136657"><ele>156.0</ele><time>2026-05-04T12:16:04.555Z</time></trkpt><trkpt lat="41.6059063" lon="0.6137497"><ele>156.0</ele><time>2026-05-04T12:16:06.546Z</time></trkpt><trkpt lat="41.6059775" lon="0.6137588"><ele>156.0</ele><time>2026-05-04T12:16:07.542Z</time></trkpt><trkpt lat="41.6060469" lon="0.6137601"><ele>156.33333333333334</ele><time>2026-05-04T12:16:08.551Z</time></trkpt><trkpt lat="41.6061143" lon="0.613775"><ele>156.66666666666666</ele><time>2026-05-04T12:16:09.55Z</time></trkpt><trkpt lat="41.6061816" lon="0.6138148"><ele>157.0</ele><time>2026-05-04T12:16:10.546Z</time></trkpt><trkpt lat="41.6062395" lon="0.6138801"><ele>157.33333333333331</ele><time>2026-05-04T12:16:11.552Z</time></trkpt><trkpt lat="41.6062887" lon="0.6139856"><ele>157.66666666666666</ele><time>2026-05-04T12:16:12.553Z</time></trkpt><trkpt lat="41.6063351" lon="0.6140848"><ele>158.0</ele><time>2026-05-04T12:16:13.546Z</time></trkpt><trkpt lat="41.606384" lon="0.6141835"><ele>158.20000000000002</ele><time>2026-05-04T12:16:14.542Z</time></trkpt><trkpt lat="41.6064309" lon="0.6142998"><ele>158.4</ele><time>2026-05-04T12:16:15.546Z</time></trkpt><trkpt lat="41.6064763" lon="0.6144189"><ele>158.60000000000002</ele><time>2026-05-04T12:16:16.548Z</time></trkpt><trkpt lat="41.6065142" lon="0.6145399"><ele>158.8</ele><time>2026-05-04T12:16:17.547Z</time></trkpt><trkpt lat="41.6065545" lon="0.6146563"><ele>159.0</ele><time>2026-05-04T12:16:18.547Z</time></trkpt><trkpt lat="41.6065958" lon="0.6147784"><ele>159.0</ele><time>2026-05-04T12:16:19.546Z</time></trkpt><trkpt lat="41.6066404" lon="0.6148964"><ele>159.0</ele><time>2026-05-04T12:16:20.543Z</time></trkpt><trkpt lat="41.6066937" lon="0.6150078"><ele>159.0</ele><time>2026-05-04T12:16:21.553Z</time></trkpt><trkpt lat="41.6067493" lon="0.615119"><ele>159.0</ele><time>2026-05-04T12:16:22.559Z</time></trkpt><trkpt lat="41.6068061" lon="0.615232"><ele>159.0</ele><time>2026-05-04T12:16:23.557Z</time></trkpt><trkpt lat="41.6068698" lon="0.6153435"><ele>159.25</ele><time>2026-05-04T12:16:24.554Z</time></trkpt><trkpt lat="41.6069432" lon="0.6154553"><ele>159.5</ele><time>2026-05-04T12:16:25.559Z</time></trkpt><trkpt lat="41.6070195" lon="0.615564"><ele>159.75</ele><time>2026-05-04T12:16:26.554Z</time></trkpt><trkpt lat="41.6071014" lon="0.6156701"><ele>160.0</ele><time>2026-05-04T12:16:27.558Z</time></trkpt><trkpt lat="41.6071833" lon="0.6157772"><ele>160.0</ele><time>2026-05-04T12:16:28.559Z</time></trkpt><trkpt lat="41.6072694" lon="0.6158753"><ele>160.0</ele><time>2026-05-04T12:16:29.552Z</time></trkpt><trkpt lat="41.6073492" lon="0.6159688"><ele>160.0</ele><time>2026-05-04T12:16:30.55Z</time></trkpt><trkpt lat="41.6074353" lon="0.6160576"><ele>160.0</ele><time>2026-05-04T12:16:31.55Z</time></trkpt><trkpt lat="41.607515" lon="0.6161518"><ele>160.0</ele><time>2026-05-04T12:16:32.549Z</time></trkpt><trkpt lat="41.6075919" lon="0.6162418"><ele>160.2</ele><time>2026-05-04T12:16:33.551Z</time></trkpt><trkpt lat="41.60767" lon="0.6163307"><ele>160.4</ele><time>2026-05-04T12:16:34.547Z</time></trkpt><trkpt lat="41.6077396" lon="0.616421"><ele>160.60000000000002</ele><time>2026-05-04T12:16:35.546Z</time></trkpt><trkpt lat="41.607813" lon="0.6165145"><ele>160.8</ele><time>2026-05-04T12:16:36.549Z</time></trkpt><trkpt lat="41.6078806" lon="0.616611"><ele>161.0</ele><time>2026-05-04T12:16:37.55Z</time></trkpt><trkpt lat="41.6079395" lon="0.6167067"><ele>161.0</ele><time>2026-05-04T12:16:38.548Z</time></trkpt><trkpt lat="41.6079973" lon="0.6168061"><ele>161.0</ele><time>2026-05-04T12:16:39.552Z</time></trkpt><trkpt lat="41.6080482" lon="0.6169074"><ele>161.0</ele><time>2026-05-04T12:16:40.541Z</time></trkpt><trkpt lat="41.6080849" lon="0.6170075"><ele>161.0</ele><time>2026-05-04T12:16:41.542Z</time></trkpt><trkpt lat="41.6081109" lon="0.6170972"><ele>161.0</ele><time>2026-05-04T12:16:42.542Z</time></trkpt><trkpt lat="41.6081323" lon="0.6172588"><ele>160.16666666666666</ele><time>2026-05-04T12:16:44.541Z</time></trkpt><trkpt lat="41.6081222" lon="0.6173995"><ele>159.33333333333331</ele><time>2026-05-04T12:16:46.538Z</time></trkpt><trkpt lat="41.6080844" lon="0.6175253"><ele>158.5</ele><time>2026-05-04T12:16:48.547Z</time></trkpt><trkpt lat="41.6080381" lon="0.6175869"><ele>157.66666666666666</ele><time>2026-05-04T12:16:49.537Z</time></trkpt><trkpt lat="41.6079887" lon="0.6176487"><ele>156.83333333333334</ele><time>2026-05-04T12:16:50.533Z</time></trkpt><trkpt lat="41.6079335" lon="0.6177049"><ele>156.0</ele><time>2026-05-04T12:16:51.537Z</time></trkpt><trkpt lat="41.6078713" lon="0.6177489"><ele>156.33333333333334</ele><time>2026-05-04T12:16:52.542Z</time></trkpt><trkpt lat="41.6077929" lon="0.6177786"><ele>156.66666666666666</ele><time>2026-05-04T12:16:53.539Z</time></trkpt><trkpt lat="41.6077304" lon="0.6178154"><ele>157.0</ele><time>2026-05-04T12:16:54.539Z</time></trkpt><trkpt lat="41.6076669" lon="0.6178735"><ele>157.33333333333331</ele><time>2026-05-04T12:16:55.543Z</time></trkpt><trkpt lat="41.6075959" lon="0.6179227"><ele>157.66666666666666</ele><time>2026-05-04T12:16:56.539Z</time></trkpt><trkpt lat="41.6075189" lon="0.6179794"><ele>158.0</ele><time>2026-05-04T12:16:57.54Z</time></trkpt><trkpt lat="41.6074361" lon="0.6180393"><ele>157.0</ele><time>2026-05-04T12:16:58.537Z</time></trkpt><trkpt lat="41.6073504" lon="0.6181081"><ele>156.0</ele><time>2026-05-04T12:16:59.537Z</time></trkpt><trkpt lat="41.6072662" lon="0.6181637"><ele>155.0</ele><time>2026-05-04T12:17:00.545Z</time></trkpt><trkpt lat="41.6071827" lon="0.6182235"><ele>154.0</ele><time>2026-05-04T12:17:01.542Z</time></trkpt><trkpt lat="41.6071042" lon="0.6182812"><ele>153.0</ele><time>2026-05-04T12:17:02.537Z</time></trkpt><trkpt lat="41.6070277" lon="0.6183576"><ele>152.20000000000002</ele><time>2026-05-04T12:17:03.548Z</time></trkpt><trkpt lat="41.6069388" lon="0.6184347"><ele>151.4</ele><time>2026-05-04T12:17:04.55Z</time></trkpt><trkpt lat="41.60685" lon="0.6185167"><ele>150.60000000000002</ele><time>2026-05-04T12:17:05.55Z</time></trkpt><trkpt lat="41.6067597" lon="0.6186035"><ele>149.8</ele><time>2026-05-04T12:17:06.551Z</time></trkpt><trkpt lat="41.6066748" lon="0.6186954"><ele>149.0</ele><time>2026-05-04T12:17:07.552Z</time></trkpt><trkpt lat="41.6065927" lon="0.6187877"><ele>149.0</ele><time>2026-05-04T12:17:08.554Z</time></trkpt><trkpt lat="41.6065133" lon="0.6188908"><ele>149.0</ele><time>2026-05-04T12:17:09.552Z</time></trkpt><trkpt lat="41.6064323" lon="0.6189949"><ele>149.0</ele><time>2026-05-04T12:17:10.551Z</time></trkpt><trkpt lat="41.6063486" lon="0.619099"><ele>149.0</ele><time>2026-05-04T12:17:11.552Z</time></trkpt><trkpt lat="41.6062721" lon="0.6192106"><ele>149.0</ele><time>2026-05-04T12:17:12.553Z</time></trkpt><trkpt lat="41.6061988" lon="0.6193258"><ele>149.0</ele><time>2026-05-04T12:17:13.554Z</time></trkpt><trkpt lat="41.606121" lon="0.6194452"><ele>149.0</ele><time>2026-05-04T12:17:14.552Z</time></trkpt><trkpt lat="41.6060451" lon="0.6195684"><ele>149.0</ele><time>2026-05-04T12:17:15.551Z</time></trkpt><trkpt lat="41.6059697" lon="0.6197026"><ele>148.75</ele><time>2026-05-04T12:17:16.554Z</time></trkpt><trkpt lat="41.6058986" lon="0.6198374"><ele>148.5</ele><time>2026-05-04T12:17:17.551Z</time></trkpt><trkpt lat="41.6058266" lon="0.6199786"><ele>148.25</ele><time>2026-05-04T12:17:18.553Z</time></trkpt><trkpt lat="41.605757" lon="0.6201203"><ele>148.0</ele><time>2026-05-04T12:17:19.562Z</time></trkpt><trkpt lat="41.6056857" lon="0.6202635"><ele>148.0</ele><time>2026-05-04T12:17:20.554Z</time></trkpt><trkpt lat="41.6056163" lon="0.6204134"><ele>148.0</ele><time>2026-05-04T12:17:21.553Z</time></trkpt><trkpt lat="41.6055503" lon="0.6205592"><ele>148.0</ele><time>2026-05-04T12:17:22.55Z</time></trkpt><trkpt lat="41.6054833" lon="0.6207107"><ele>148.0</ele><time>2026-05-04T12:17:23.554Z</time></trkpt><trkpt lat="41.6054206" lon="0.6208644"><ele>148.0</ele><time>2026-05-04T12:17:24.555Z</time></trkpt><trkpt lat="41.6053599" lon="0.6210175"><ele>148.0</ele><time>2026-05-04T12:17:25.557Z</time></trkpt><trkpt lat="41.6052966" lon="0.6211742"><ele>148.0</ele><time>2026-05-04T12:17:26.549Z</time></trkpt><trkpt lat="41.6052336" lon="0.621328"><ele>148.0</ele><time>2026-05-04T12:17:27.552Z</time></trkpt><trkpt lat="41.6051692" lon="0.6214822"><ele>147.25</ele><time>2026-05-04T12:17:28.561Z</time></trkpt><trkpt lat="41.6051034" lon="0.6216373"><ele>146.5</ele><time>2026-05-04T12:17:29.552Z</time></trkpt><trkpt lat="41.6050325" lon="0.6217826"><ele>145.75</ele><time>2026-05-04T12:17:30.563Z</time></trkpt><trkpt lat="41.6049539" lon="0.6219163"><ele>145.0</ele><time>2026-05-04T12:17:31.554Z</time></trkpt><trkpt lat="41.6048688" lon="0.6220355"><ele>145.0</ele><time>2026-05-04T12:17:32.557Z</time></trkpt><trkpt lat="41.6047733" lon="0.6221396"><ele>145.0</ele><time>2026-05-04T12:17:33.552Z</time></trkpt><trkpt lat="41.60467" lon="0.6222291"><ele>145.0</ele><time>2026-05-04T12:17:34.557Z</time></trkpt><trkpt lat="41.6045586" lon="0.6223095"><ele>145.0</ele><time>2026-05-04T12:17:35.551Z</time></trkpt><trkpt lat="41.6044369" lon="0.6223748"><ele>144.5</ele><time>2026-05-04T12:17:36.554Z</time></trkpt><trkpt lat="41.60432" lon="0.6224309"><ele>144.0</ele><time>2026-05-04T12:17:37.557Z</time></trkpt><trkpt lat="41.604206" lon="0.6224797"><ele>143.5</ele><time>2026-05-04T12:17:38.557Z</time></trkpt><trkpt lat="41.6040929" lon="0.6225269"><ele>143.0</ele><time>2026-05-04T12:17:39.557Z</time></trkpt><trkpt lat="41.6039879" lon="0.622574"><ele>143.0</ele><time>2026-05-04T12:17:40.556Z</time></trkpt><trkpt lat="41.6038882" lon="0.6226284"><ele>143.0</ele><time>2026-05-04T12:17:41.558Z</time></trkpt><trkpt lat="41.6037884" lon="0.6226886"><ele>143.0</ele><time>2026-05-04T12:17:42.557Z</time></trkpt><trkpt lat="41.60369" lon="0.6227547"><ele>143.0</ele><time>2026-05-04T12:17:43.555Z</time></trkpt><trkpt lat="41.6035939" lon="0.6228246"><ele>143.0</ele><time>2026-05-04T12:17:44.558Z</time></trkpt><trkpt lat="41.6034982" lon="0.6229058"><ele>144.25</ele><time>2026-05-04T12:17:45.551Z</time></trkpt><trkpt lat="41.6033999" lon="0.6229902"><ele>145.5</ele><time>2026-05-04T12:17:46.552Z</time></trkpt><trkpt lat="41.6033102" lon="0.6230812"><ele>146.75</ele><time>2026-05-04T12:17:47.544Z</time></trkpt><trkpt lat="41.603224" lon="0.6231846"><ele>148.0</ele><time>2026-05-04T12:17:48.55Z</time></trkpt><trkpt lat="41.6031447" lon="0.6233056"><ele>148.0</ele><time>2026-05-04T12:17:49.553Z</time></trkpt><trkpt lat="41.6030739" lon="0.6234322"><ele>148.0</ele><time>2026-05-04T12:17:50.557Z</time></trkpt><trkpt lat="41.6030046" lon="0.6235643"><ele>148.0</ele><time>2026-05-04T12:17:51.551Z</time></trkpt><trkpt lat="41.6029463" lon="0.6237068"><ele>148.0</ele><time>2026-05-04T12:17:52.553Z</time></trkpt><trkpt lat="41.6028941" lon="0.6238612"><ele>148.25</ele><time>2026-05-04T12:17:53.548Z</time></trkpt><trkpt lat="41.6028466" lon="0.6240189"><ele>148.5</ele><time>2026-05-04T12:17:54.55Z</time></trkpt><trkpt lat="41.6028066" lon="0.6241784"><ele>148.75</ele><time>2026-05-04T12:17:55.556Z</time></trkpt><trkpt lat="41.6027738" lon="0.6243461"><ele>149.0</ele><time>2026-05-04T12:17:56.547Z</time></trkpt><trkpt lat="41.6027478" lon="0.6245167"><ele>148.5</ele><time>2026-05-04T12:17:57.551Z</time></trkpt><trkpt lat="41.6027329" lon="0.624691"><ele>148.0</ele><time>2026-05-04T12:17:58.552Z</time></trkpt><trkpt lat="41.6027273" lon="0.6248684"><ele>147.5</ele><time>2026-05-04T12:17:59.551Z</time></trkpt><trkpt lat="41.6027343" lon="0.6250527"><ele>147.0</ele><time>2026-05-04T12:18:00.553Z</time></trkpt><trkpt lat="41.6027501" lon="0.6252434"><ele>147.0</ele><time>2026-05-04T12:18:01.549Z</time></trkpt><trkpt lat="41.602791" lon="0.6254371"><ele>147.0</ele><time>2026-05-04T12:18:02.552Z</time></trkpt><trkpt lat="41.6028509" lon="0.6256076"><ele>147.0</ele><time>2026-05-04T12:18:03.543Z</time></trkpt><trkpt lat="41.602919" lon="0.6258052"><ele>147.0</ele><time>2026-05-04T12:18:04.547Z</time></trkpt><trkpt lat="41.6029953" lon="0.6259656"><ele>147.0</ele><time>2026-05-04T12:18:05.55Z</time></trkpt><trkpt lat="41.603078" lon="0.6261128"><ele>147.0</ele><time>2026-05-04T12:18:06.55Z</time></trkpt><trkpt lat="41.6031632" lon="0.6262492"><ele>147.0</ele><time>2026-05-04T12:18:07.546Z</time></trkpt><trkpt lat="41.603252" lon="0.6263807"><ele>147.0</ele><time>2026-05-04T12:18:08.547Z</time></trkpt><trkpt lat="41.603364" lon="0.6265036"><ele>147.0</ele><time>2026-05-04T12:18:09.549Z</time></trkpt><trkpt lat="41.6034794" lon="0.6266008"><ele>147.0</ele><time>2026-05-04T12:18:10.549Z</time></trkpt><trkpt lat="41.6036018" lon="0.6266934"><ele>147.0</ele><time>2026-05-04T12:18:11.547Z</time></trkpt><trkpt lat="41.6037323" lon="0.6267831"><ele>147.0</ele><time>2026-05-04T12:18:12.547Z</time></trkpt><trkpt lat="41.6038566" lon="0.6268545"><ele>147.0</ele><time>2026-05-04T12:18:13.546Z</time></trkpt><trkpt lat="41.603978" lon="0.6269046"><ele>147.0</ele><time>2026-05-04T12:18:14.545Z</time></trkpt><trkpt lat="41.6041137" lon="0.6269394"><ele>147.0</ele><time>2026-05-04T12:18:15.549Z</time></trkpt><trkpt lat="41.6042371" lon="0.6269658"><ele>147.25</ele><time>2026-05-04T12:18:16.554Z</time></trkpt><trkpt lat="41.6043537" lon="0.6269872"><ele>147.5</ele><time>2026-05-04T12:18:17.558Z</time></trkpt><trkpt lat="41.6044711" lon="0.6270091"><ele>147.75</ele><time>2026-05-04T12:18:18.552Z</time></trkpt><trkpt lat="41.6045913" lon="0.6270316"><ele>148.0</ele><time>2026-05-04T12:18:19.553Z</time></trkpt><trkpt lat="41.6047149" lon="0.6270579"><ele>148.0</ele><time>2026-05-04T12:18:20.551Z</time></trkpt><trkpt lat="41.6048318" lon="0.6270912"><ele>148.0</ele><time>2026-05-04T12:18:21.557Z</time></trkpt><trkpt lat="41.604947" lon="0.6271282"><ele>148.0</ele><time>2026-05-04T12:18:22.55Z</time></trkpt><trkpt lat="41.6050573" lon="0.6271786"><ele>148.0</ele><time>2026-05-04T12:18:23.554Z</time></trkpt><trkpt lat="41.6051682" lon="0.6272306"><ele>148.0</ele><time>2026-05-04T12:18:24.553Z</time></trkpt><trkpt lat="41.6052734" lon="0.6272917"><ele>148.0</ele><time>2026-05-04T12:18:25.55Z</time></trkpt><trkpt lat="41.6053671" lon="0.6273659"><ele>148.0</ele><time>2026-05-04T12:18:26.552Z</time></trkpt><trkpt lat="41.6054625" lon="0.6274471"><ele>148.0</ele><time>2026-05-04T12:18:27.554Z</time></trkpt><trkpt lat="41.6055364" lon="0.627521"><ele>148.0</ele><time>2026-05-04T12:18:28.554Z</time></trkpt><trkpt lat="41.6055941" lon="0.6275917"><ele>148.16666666666669</ele><time>2026-05-04T12:18:29.546Z</time></trkpt><trkpt lat="41.6056674" lon="0.6277014"><ele>148.33333333333334</ele><time>2026-05-04T12:18:31.552Z</time></trkpt><trkpt lat="41.6056943" lon="0.6277895"><ele>148.5</ele><time>2026-05-04T12:18:34.551Z</time></trkpt><trkpt lat="41.6057448" lon="0.6278809"><ele>148.66666666666666</ele><time>2026-05-04T12:19:00.547Z</time></trkpt><trkpt lat="41.6057933" lon="0.6279415"><ele>148.83333333333331</ele><time>2026-05-04T12:19:02.551Z</time></trkpt><trkpt lat="41.60585" lon="0.6280239"><ele>149.0</ele><time>2026-05-04T12:19:05.546Z</time></trkpt><trkpt lat="41.6059048" lon="0.6280921"><ele>149.16666666666666</ele><time>2026-05-04T12:19:09.551Z</time></trkpt><trkpt lat="41.6059476" lon="0.6281745"><ele>149.33333333333331</ele><time>2026-05-04T12:19:13.55Z</time></trkpt><trkpt lat="41.6059968" lon="0.6282564"><ele>149.5</ele><time>2026-05-04T12:19:16.555Z</time></trkpt><trkpt lat="41.6060436" lon="0.6283328"><ele>149.66666666666666</ele><time>2026-05-04T12:19:19.555Z</time></trkpt><trkpt lat="41.606112" lon="0.6283531"><ele>149.83333333333334</ele><time>2026-05-04T12:19:47.545Z</time></trkpt><trkpt lat="41.6061637" lon="0.6284613"><ele>150.0</ele><time>2026-05-04T12:19:50.547Z</time></trkpt><trkpt lat="41.6061941" lon="0.6285378"><ele>149.7142857142857</ele><time>2026-05-04T12:19:52.543Z</time></trkpt><trkpt lat="41.6062174" lon="0.6286231"><ele>149.42857142857142</ele><time>2026-05-04T12:19:54.546Z</time></trkpt><trkpt lat="41.6062405" lon="0.6287031"><ele>149.14285714285714</ele><time>2026-05-04T12:19:57.551Z</time></trkpt><trkpt lat="41.6062557" lon="0.6287854"><ele>148.85714285714283</ele><time>2026-05-04T12:20:05.549Z</time></trkpt><trkpt lat="41.6062792" lon="0.628874"><ele>148.57142857142856</ele><time>2026-05-04T12:20:10.549Z</time></trkpt><trkpt lat="41.6062878" lon="0.6289964"><ele>148.28571428571428</ele><time>2026-05-04T12:20:14.549Z</time></trkpt><trkpt lat="41.6062989" lon="0.6290857"><ele>148.0</ele><time>2026-05-04T12:20:16.551Z</time></trkpt><trkpt lat="41.6063282" lon="0.6291815"><ele>147.8</ele><time>2026-05-04T12:20:18.551Z</time></trkpt><trkpt lat="41.6063907" lon="0.6292744"><ele>147.60000000000002</ele><time>2026-05-04T12:20:20.547Z</time></trkpt><trkpt lat="41.6064891" lon="0.6293347"><ele>147.39999999999998</ele><time>2026-05-04T12:20:22.547Z</time></trkpt><trkpt lat="41.6066047" lon="0.6293369"><ele>147.2</ele><time>2026-05-04T12:20:24.55Z</time></trkpt><trkpt lat="41.6067069" lon="0.6292579"><ele>147.0</ele><time>2026-05-04T12:20:26.545Z</time></trkpt><trkpt lat="41.6067887" lon="0.6291296"><ele>147.0</ele><time>2026-05-04T12:20:28.549Z</time></trkpt><trkpt lat="41.6068116" lon="0.6290508"><ele>147.0</ele><time>2026-05-04T12:20:29.542Z</time></trkpt><trkpt lat="41.6068244" lon="0.6289681"><ele>147.0</ele><time>2026-05-04T12:20:30.543Z</time></trkpt><trkpt lat="41.606831" lon="0.6288033"><ele>147.0</ele><time>2026-05-04T12:20:32.541Z</time></trkpt><trkpt lat="41.6068516" lon="0.6286365"><ele>147.0</ele><time>2026-05-04T12:20:34.538Z</time></trkpt><trkpt lat="41.6068912" lon="0.6284822"><ele>147.0</ele><time>2026-05-04T12:20:36.531Z</time></trkpt><trkpt lat="41.6069157" lon="0.6283907"><ele>147.0</ele><time>2026-05-04T12:20:37.548Z</time></trkpt><trkpt lat="41.6069424" lon="0.628307"><ele>147.0</ele><time>2026-05-04T12:20:38.541Z</time></trkpt><trkpt lat="41.6069925" lon="0.6282194"><ele>147.0</ele><time>2026-05-04T12:20:39.532Z</time></trkpt><trkpt lat="41.6070366" lon="0.6281441"><ele>147.0</ele><time>2026-05-04T12:20:40.536Z</time></trkpt><trkpt lat="41.6070888" lon="0.6280592"><ele>147.0</ele><time>2026-05-04T12:20:41.55Z</time></trkpt><trkpt lat="41.6071395" lon="0.6279907"><ele>147.0</ele><time>2026-05-04T12:20:42.547Z</time></trkpt><trkpt lat="41.6071813" lon="0.6279111"><ele>147.0</ele><time>2026-05-04T12:20:43.552Z</time></trkpt><trkpt lat="41.6072167" lon="0.6278377"><ele>147.0</ele><time>2026-05-04T12:20:44.545Z</time></trkpt><trkpt lat="41.6072496" lon="0.6277606"><ele>147.0</ele><time>2026-05-04T12:20:45.541Z</time></trkpt><trkpt lat="41.6072807" lon="0.6276719"><ele>147.0</ele><time>2026-05-04T12:20:46.541Z</time></trkpt><trkpt lat="41.6073108" lon="0.6275911"><ele>147.0</ele><time>2026-05-04T12:20:47.536Z</time></trkpt><trkpt lat="41.6073537" lon="0.6275197"><ele>147.0</ele><time>2026-05-04T12:20:48.545Z</time></trkpt><trkpt lat="41.6074258" lon="0.6273908"><ele>147.2</ele><time>2026-05-04T12:20:50.546Z</time></trkpt><trkpt lat="41.6074833" lon="0.6272711"><ele>147.39999999999998</ele><time>2026-05-04T12:20:52.543Z</time></trkpt><trkpt lat="41.607533" lon="0.6271891"><ele>147.60000000000002</ele><time>2026-05-04T12:20:54.54Z</time></trkpt><trkpt lat="41.6075882" lon="0.6271482"><ele>147.8</ele><time>2026-05-04T12:21:40.551Z</time></trkpt><trkpt lat="41.6076626" lon="0.6270606"><ele>148.0</ele><time>2026-05-04T12:21:43.545Z</time></trkpt><trkpt lat="41.6077264" lon="0.6269395"><ele>148.0</ele><time>2026-05-04T12:21:45.543Z</time></trkpt><trkpt lat="41.6077645" lon="0.6268645"><ele>148.0</ele><time>2026-05-04T12:21:46.542Z</time></trkpt><trkpt lat="41.6078509" lon="0.6267328"><ele>148.0</ele><time>2026-05-04T12:21:48.533Z</time></trkpt><trkpt lat="41.6078984" lon="0.626661"><ele>148.0</ele><time>2026-05-04T12:21:49.536Z</time></trkpt><trkpt lat="41.6079536" lon="0.6265862"><ele>148.0</ele><time>2026-05-04T12:21:50.537Z</time></trkpt><trkpt lat="41.6080116" lon="0.6265061"><ele>148.0</ele><time>2026-05-04T12:21:51.536Z</time></trkpt><trkpt lat="41.6080723" lon="0.6264225"><ele>148.16666666666669</ele><time>2026-05-04T12:21:52.534Z</time></trkpt><trkpt lat="41.6081301" lon="0.6263299"><ele>148.33333333333334</ele><time>2026-05-04T12:21:53.539Z</time></trkpt><trkpt lat="41.6081907" lon="0.6262368"><ele>148.5</ele><time>2026-05-04T12:21:54.538Z</time></trkpt><trkpt lat="41.6082445" lon="0.6261429"><ele>148.66666666666666</ele><time>2026-05-04T12:21:55.539Z</time></trkpt><trkpt lat="41.6083004" lon="0.6260586"><ele>148.83333333333331</ele><time>2026-05-04T12:21:56.538Z</time></trkpt><trkpt lat="41.6083473" lon="0.6259897"><ele>149.0</ele><time>2026-05-04T12:21:57.544Z</time></trkpt><trkpt lat="41.6084115" lon="0.6259041"><ele>148.66666666666666</ele><time>2026-05-04T12:21:59.539Z</time></trkpt><trkpt lat="41.6084802" lon="0.6258911"><ele>148.33333333333331</ele><time>2026-05-04T12:22:01.545Z</time></trkpt><trkpt lat="41.6085426" lon="0.6259645"><ele>148.0</ele><time>2026-05-04T12:22:03.546Z</time></trkpt><trkpt lat="41.6086051" lon="0.6260419"><ele>147.66666666666666</ele><time>2026-05-04T12:22:05.542Z</time></trkpt><trkpt lat="41.6086861" lon="0.6261"><ele>147.33333333333334</ele><time>2026-05-04T12:22:07.546Z</time></trkpt><trkpt lat="41.6087513" lon="0.6261527"><ele>147.0</ele><time>2026-05-04T12:22:09.543Z</time></trkpt><trkpt lat="41.6088186" lon="0.6262038"><ele>147.0</ele><time>2026-05-04T12:22:12.542Z</time></trkpt><trkpt lat="41.6088646" lon="0.6262692"><ele>147.0</ele><time>2026-05-04T12:22:46.548Z</time></trkpt><trkpt lat="41.6089069" lon="0.626196"><ele>147.0</ele><time>2026-05-04T12:23:03.547Z</time></trkpt><trkpt lat="41.6089767" lon="0.6261652"><ele>147.0</ele><time>2026-05-04T12:23:08.554Z</time></trkpt><trkpt lat="41.6090427" lon="0.626189"><ele>147.0</ele><time>2026-05-04T12:23:12.544Z</time></trkpt><trkpt lat="41.6089673" lon="0.6261936"><ele>147.0</ele><time>2026-05-04T12:23:32.545Z</time></trkpt><trkpt lat="41.608889" lon="0.6261793"><ele>147.0</ele><time>2026-05-04T12:23:35.537Z</time></trkpt><trkpt lat="41.6088221" lon="0.6261987"><ele>147.0</ele><time>2026-05-04T12:23:39.544Z</time></trkpt><trkpt lat="41.6087558" lon="0.6261957"><ele>147.0</ele><time>2026-05-04T12:23:42.544Z</time></trkpt><trkpt lat="41.6086841" lon="0.626162"><ele>147.0</ele><time>2026-05-04T12:23:44.55Z</time></trkpt><trkpt lat="41.6086217" lon="0.6261058"><ele>147.0</ele><time>2026-05-04T12:23:46.545Z</time></trkpt><trkpt lat="41.6085572" lon="0.6260703"><ele>147.0</ele><time>2026-05-04T12:23:49.551Z</time></trkpt><trkpt lat="41.6085077" lon="0.6259861"><ele>147.0</ele><time>2026-05-04T12:23:53.551Z</time></trkpt><trkpt lat="41.6085302" lon="0.6259032"><ele>147.0</ele><time>2026-05-04T12:23:56.546Z</time></trkpt><trkpt lat="41.6085823" lon="0.6258298"><ele>146.0</ele><time>2026-05-04T12:23:59.546Z</time></trkpt><trkpt lat="41.6086401" lon="0.6257871"><ele>146.0</ele><time>2026-05-04T12:24:26.56Z</time></trkpt></trkseg><trkseg><trkpt lat="41.6085417" lon="0.6259963"><ele>146.0</ele><time>2026-05-04T13:56:49.54Z</time></trkpt><trkpt lat="41.608609" lon="0.6260417"><ele>146.0</ele><time>2026-05-04T13:56:51.529Z</time></trkpt><trkpt lat="41.6087142" lon="0.6260903"><ele>146.0</ele><time>2026-05-04T13:56:53.527Z</time></trkpt><trkpt lat="41.6087836" lon="0.6261091"><ele>146.0</ele><time>2026-05-04T13:56:58.534Z</time></trkpt><trkpt lat="41.6088646" lon="0.6261045"><ele>146.0</ele><time>2026-05-04T13:57:07.538Z</time></trkpt><trkpt lat="41.6087876" lon="0.6260976"><ele>146.0</ele><time>2026-05-04T13:57:20.541Z</time></trkpt><trkpt lat="41.6087245" lon="0.6260706"><ele>146.0</ele><time>2026-05-04T13:57:23.529Z</time></trkpt><trkpt lat="41.6086496" lon="0.6260554"><ele>146.0</ele><time>2026-05-04T13:58:32.528Z</time></trkpt><trkpt lat="41.6085561" lon="0.6260176"><ele>146.0</ele><time>2026-05-04T13:58:34.54Z</time></trkpt><trkpt lat="41.6084588" lon="0.625979"><ele>146.0</ele><time>2026-05-04T13:58:36.543Z</time></trkpt><trkpt lat="41.6083675" lon="0.6259825"><ele>146.0</ele><time>2026-05-04T13:58:38.538Z</time></trkpt><trkpt lat="41.6083036" lon="0.6260416"><ele>146.0</ele><time>2026-05-04T13:58:40.533Z</time></trkpt><trkpt lat="41.6082629" lon="0.626111"><ele>146.5</ele><time>2026-05-04T13:58:42.546Z</time></trkpt><trkpt lat="41.6082182" lon="0.6262147"><ele>147.0</ele><time>2026-05-04T13:58:45.538Z</time></trkpt><trkpt lat="41.6081777" lon="0.6262963"><ele>147.5</ele><time>2026-05-04T13:58:49.54Z</time></trkpt><trkpt lat="41.6081501" lon="0.6263743"><ele>148.0</ele><time>2026-05-04T13:58:55.533Z</time></trkpt><trkpt lat="41.6080804" lon="0.6264916"><ele>148.5</ele><time>2026-05-04T13:58:57.531Z</time></trkpt><trkpt lat="41.6080293" lon="0.6265587"><ele>149.0</ele><time>2026-05-04T13:58:58.54Z</time></trkpt><trkpt lat="41.6079744" lon="0.6266391"><ele>149.0</ele><time>2026-05-04T13:58:59.538Z</time></trkpt><trkpt lat="41.6079207" lon="0.6267256"><ele>149.0</ele><time>2026-05-04T13:59:00.537Z</time></trkpt><trkpt lat="41.6078666" lon="0.6268178"><ele>149.0</ele><time>2026-05-04T13:59:01.532Z</time></trkpt><trkpt lat="41.6078074" lon="0.6269092"><ele>149.0</ele><time>2026-05-04T13:59:02.524Z</time></trkpt><trkpt lat="41.6077425" lon="0.6270092"><ele>149.0</ele><time>2026-05-04T13:59:03.533Z</time></trkpt><trkpt lat="41.6076727" lon="0.6271218"><ele>149.0</ele><time>2026-05-04T13:59:04.527Z</time></trkpt><trkpt lat="41.6076071" lon="0.6272351"><ele>149.0</ele><time>2026-05-04T13:59:05.529Z</time></trkpt><trkpt lat="41.6075439" lon="0.6273448"><ele>149.0</ele><time>2026-05-04T13:59:06.53Z</time></trkpt><trkpt lat="41.6074779" lon="0.6274556"><ele>149.0</ele><time>2026-05-04T13:59:07.524Z</time></trkpt><trkpt lat="41.6074085" lon="0.627567"><ele>149.0</ele><time>2026-05-04T13:59:08.529Z</time></trkpt><trkpt lat="41.607341" lon="0.6276726"><ele>149.0</ele><time>2026-05-04T13:59:09.529Z</time></trkpt><trkpt lat="41.6072757" lon="0.6277729"><ele>149.0</ele><time>2026-05-04T13:59:10.534Z</time></trkpt><trkpt lat="41.6072168" lon="0.6278686"><ele>149.0</ele><time>2026-05-04T13:59:11.531Z</time></trkpt><trkpt lat="41.6071687" lon="0.6279545"><ele>149.0</ele><time>2026-05-04T13:59:12.543Z</time></trkpt><trkpt lat="41.6071121" lon="0.62806"><ele>149.0</ele><time>2026-05-04T13:59:14.537Z</time></trkpt><trkpt lat="41.6070507" lon="0.6281393"><ele>148.83333333333331</ele><time>2026-05-04T13:59:23.539Z</time></trkpt><trkpt lat="41.6069789" lon="0.6282438"><ele>148.66666666666666</ele><time>2026-05-04T13:59:25.564Z</time></trkpt><trkpt lat="41.6069392" lon="0.6283095"><ele>148.5</ele><time>2026-05-04T13:59:26.532Z</time></trkpt><trkpt lat="41.6068963" lon="0.6283804"><ele>148.33333333333334</ele><time>2026-05-04T13:59:27.529Z</time></trkpt><trkpt lat="41.6068461" lon="0.6284544"><ele>148.16666666666669</ele><time>2026-05-04T13:59:28.532Z</time></trkpt><trkpt lat="41.6067975" lon="0.6285296"><ele>148.0</ele><time>2026-05-04T13:59:29.535Z</time></trkpt><trkpt lat="41.6067483" lon="0.6285979"><ele>147.8</ele><time>2026-05-04T13:59:30.53Z</time></trkpt><trkpt lat="41.6066642" lon="0.6286882"><ele>147.60000000000002</ele><time>2026-05-04T13:59:32.535Z</time></trkpt><trkpt lat="41.6065837" lon="0.6287507"><ele>147.39999999999998</ele><time>2026-05-04T13:59:34.542Z</time></trkpt><trkpt lat="41.6064744" lon="0.6287878"><ele>147.2</ele><time>2026-05-04T13:59:36.547Z</time></trkpt><trkpt lat="41.6063769" lon="0.6288373"><ele>147.0</ele><time>2026-05-04T13:59:38.539Z</time></trkpt><trkpt lat="41.6063105" lon="0.6289731"><ele>147.0</ele><time>2026-05-04T13:59:40.541Z</time></trkpt><trkpt lat="41.6063111" lon="0.6290635"><ele>147.0</ele><time>2026-05-04T13:59:41.542Z</time></trkpt><trkpt lat="41.6063385" lon="0.6291469"><ele>147.0</ele><time>2026-05-04T13:59:42.53Z</time></trkpt><trkpt lat="41.6063881" lon="0.6292224"><ele>147.0</ele><time>2026-05-04T13:59:43.538Z</time></trkpt><trkpt lat="41.6064678" lon="0.6292713"><ele>147.0</ele><time>2026-05-04T13:59:44.53Z</time></trkpt><trkpt lat="41.6065552" lon="0.6293149"><ele>147.0</ele><time>2026-05-04T13:59:45.534Z</time></trkpt><trkpt lat="41.6066387" lon="0.6293643"><ele>147.0</ele><time>2026-05-04T13:59:46.542Z</time></trkpt><trkpt lat="41.6067174" lon="0.6294161"><ele>147.0</ele><time>2026-05-04T13:59:47.544Z</time></trkpt><trkpt lat="41.6067881" lon="0.6294958"><ele>147.0</ele><time>2026-05-04T13:59:48.545Z</time></trkpt><trkpt lat="41.6068406" lon="0.629602"><ele>147.0</ele><time>2026-05-04T13:59:49.537Z</time></trkpt><trkpt lat="41.6068841" lon="0.6297235"><ele>147.0</ele><time>2026-05-04T13:59:50.541Z</time></trkpt><trkpt lat="41.6069261" lon="0.6298467"><ele>146.25</ele><time>2026-05-04T13:59:51.533Z</time></trkpt><trkpt lat="41.6069688" lon="0.6299772"><ele>145.5</ele><time>2026-05-04T13:59:52.534Z</time></trkpt><trkpt lat="41.6070121" lon="0.6301162"><ele>144.75</ele><time>2026-05-04T13:59:53.53Z</time></trkpt><trkpt lat="41.6070547" lon="0.6302657"><ele>144.0</ele><time>2026-05-04T13:59:54.534Z</time></trkpt><trkpt lat="41.6070999" lon="0.630421"><ele>144.0</ele><time>2026-05-04T13:59:55.548Z</time></trkpt><trkpt lat="41.607145" lon="0.6305716"><ele>144.0</ele><time>2026-05-04T13:59:56.538Z</time></trkpt><trkpt lat="41.6071888" lon="0.6307099"><ele>144.0</ele><time>2026-05-04T13:59:57.538Z</time></trkpt><trkpt lat="41.6072277" lon="0.6308393"><ele>144.0</ele><time>2026-05-04T13:59:58.536Z</time></trkpt><trkpt lat="41.607265" lon="0.6309627"><ele>144.0</ele><time>2026-05-04T13:59:59.542Z</time></trkpt><trkpt lat="41.6073046" lon="0.6310815"><ele>144.2</ele><time>2026-05-04T14:00:00.539Z</time></trkpt><trkpt lat="41.6073458" lon="0.6312047"><ele>144.4</ele><time>2026-05-04T14:00:01.543Z</time></trkpt><trkpt lat="41.6073877" lon="0.6313406"><ele>144.6</ele><time>2026-05-04T14:00:02.544Z</time></trkpt><trkpt lat="41.6074267" lon="0.6314758"><ele>144.8</ele><time>2026-05-04T14:00:03.539Z</time></trkpt><trkpt lat="41.6074705" lon="0.6316141"><ele>145.0</ele><time>2026-05-04T14:00:04.536Z</time></trkpt><trkpt lat="41.6075139" lon="0.631753"><ele>145.0</ele><time>2026-05-04T14:00:05.542Z</time></trkpt><trkpt lat="41.6075587" lon="0.6318885"><ele>145.0</ele><time>2026-05-04T14:00:06.541Z</time></trkpt><trkpt lat="41.6076018" lon="0.6320261"><ele>145.0</ele><time>2026-05-04T14:00:07.542Z</time></trkpt><trkpt lat="41.6076463" lon="0.632158"><ele>145.0</ele><time>2026-05-04T14:00:08.565Z</time></trkpt><trkpt lat="41.6076926" lon="0.632286"><ele>145.0</ele><time>2026-05-04T14:00:09.537Z</time></trkpt><trkpt lat="41.6077347" lon="0.6324118"><ele>144.8</ele><time>2026-05-04T14:00:10.542Z</time></trkpt><trkpt lat="41.6077771" lon="0.6325342"><ele>144.6</ele><time>2026-05-04T14:00:11.54Z</time></trkpt><trkpt lat="41.6078195" lon="0.6326502"><ele>144.4</ele><time>2026-05-04T14:00:12.539Z</time></trkpt><trkpt lat="41.6078578" lon="0.6327662"><ele>144.2</ele><time>2026-05-04T14:00:13.549Z</time></trkpt><trkpt lat="41.6078941" lon="0.632877"><ele>144.0</ele><time>2026-05-04T14:00:14.539Z</time></trkpt><trkpt lat="41.6079306" lon="0.6329879"><ele>144.4</ele><time>2026-05-04T14:00:15.541Z</time></trkpt><trkpt lat="41.6079654" lon="0.6330983"><ele>144.8</ele><time>2026-05-04T14:00:16.542Z</time></trkpt><trkpt lat="41.6080014" lon="0.6332096"><ele>145.2</ele><time>2026-05-04T14:00:17.546Z</time></trkpt><trkpt lat="41.608042" lon="0.6333284"><ele>145.6</ele><time>2026-05-04T14:00:18.548Z</time></trkpt><trkpt lat="41.6080841" lon="0.6334504"><ele>146.0</ele><time>2026-05-04T14:00:19.538Z</time></trkpt><trkpt lat="41.6081273" lon="0.6335767"><ele>146.4</ele><time>2026-05-04T14:00:20.545Z</time></trkpt><trkpt lat="41.6081712" lon="0.6337067"><ele>146.8</ele><time>2026-05-04T14:00:21.547Z</time></trkpt><trkpt lat="41.6082151" lon="0.6338418"><ele>147.20000000000002</ele><time>2026-05-04T14:00:22.547Z</time></trkpt><trkpt lat="41.6082589" lon="0.6339783"><ele>147.6</ele><time>2026-05-04T14:00:23.546Z</time></trkpt><trkpt lat="41.6083039" lon="0.6341138"><ele>148.0</ele><time>2026-05-04T14:00:24.541Z</time></trkpt><trkpt lat="41.6083503" lon="0.6342577"><ele>148.0</ele><time>2026-05-04T14:00:25.541Z</time></trkpt><trkpt lat="41.6083958" lon="0.634403"><ele>148.0</ele><time>2026-05-04T14:00:26.553Z</time></trkpt><trkpt lat="41.6084397" lon="0.6345435"><ele>148.0</ele><time>2026-05-04T14:00:27.537Z</time></trkpt><trkpt lat="41.608487" lon="0.6346838"><ele>148.0</ele><time>2026-05-04T14:00:28.539Z</time></trkpt><trkpt lat="41.6085326" lon="0.634818"><ele>148.0</ele><time>2026-05-04T14:00:29.54Z</time></trkpt><trkpt lat="41.6085772" lon="0.6349464"><ele>148.0</ele><time>2026-05-04T14:00:30.549Z</time></trkpt><trkpt lat="41.6086184" lon="0.6350718"><ele>148.0</ele><time>2026-05-04T14:00:31.543Z</time></trkpt><trkpt lat="41.6086604" lon="0.635202"><ele>148.0</ele><time>2026-05-04T14:00:32.541Z</time></trkpt><trkpt lat="41.608702" lon="0.6353356"><ele>148.0</ele><time>2026-05-04T14:00:33.544Z</time></trkpt><trkpt lat="41.6087433" lon="0.6354669"><ele>148.6</ele><time>2026-05-04T14:00:34.545Z</time></trkpt><trkpt lat="41.6087843" lon="0.6355915"><ele>149.20000000000002</ele><time>2026-05-04T14:00:35.545Z</time></trkpt><trkpt lat="41.6088244" lon="0.6357114"><ele>149.8</ele><time>2026-05-04T14:00:36.544Z</time></trkpt><trkpt lat="41.6088629" lon="0.6358212"><ele>150.4</ele><time>2026-05-04T14:00:37.546Z</time></trkpt><trkpt lat="41.6088953" lon="0.6359266"><ele>151.0</ele><time>2026-05-04T14:00:38.542Z</time></trkpt><trkpt lat="41.6089298" lon="0.6360264"><ele>151.0</ele><time>2026-05-04T14:00:39.543Z</time></trkpt><trkpt lat="41.6089638" lon="0.6361308"><ele>151.0</ele><time>2026-05-04T14:00:40.542Z</time></trkpt><trkpt lat="41.6089972" lon="0.636233"><ele>151.0</ele><time>2026-05-04T14:00:41.54Z</time></trkpt><trkpt lat="41.6090289" lon="0.6363346"><ele>151.0</ele><time>2026-05-04T14:00:42.535Z</time></trkpt><trkpt lat="41.6090671" lon="0.6364396"><ele>151.0</ele><time>2026-05-04T14:00:43.547Z</time></trkpt><trkpt lat="41.6091034" lon="0.6365431"><ele>151.0</ele><time>2026-05-04T14:00:44.541Z</time></trkpt><trkpt lat="41.6091365" lon="0.6366452"><ele>151.0</ele><time>2026-05-04T14:00:45.533Z</time></trkpt><trkpt lat="41.6091725" lon="0.6367471"><ele>151.0</ele><time>2026-05-04T14:00:46.536Z</time></trkpt><trkpt lat="41.6092068" lon="0.6368524"><ele>151.0</ele><time>2026-05-04T14:00:47.542Z</time></trkpt><trkpt lat="41.6092386" lon="0.6369574"><ele>151.0</ele><time>2026-05-04T14:00:48.544Z</time></trkpt><trkpt lat="41.6092731" lon="0.6370625"><ele>151.0</ele><time>2026-05-04T14:00:49.538Z</time></trkpt><trkpt lat="41.6093094" lon="0.6371698"><ele>151.0</ele><time>2026-05-04T14:00:50.542Z</time></trkpt><trkpt lat="41.6093441" lon="0.6372741"><ele>150.66666666666669</ele><time>2026-05-04T14:00:51.534Z</time></trkpt><trkpt lat="41.6093841" lon="0.6373832"><ele>150.33333333333334</ele><time>2026-05-04T14:00:52.537Z</time></trkpt><trkpt lat="41.6094286" lon="0.6374962"><ele>150.0</ele><time>2026-05-04T14:00:53.536Z</time></trkpt><trkpt lat="41.6094682" lon="0.6376058"><ele>149.66666666666666</ele><time>2026-05-04T14:00:54.542Z</time></trkpt><trkpt lat="41.6095026" lon="0.6377128"><ele>149.33333333333331</ele><time>2026-05-04T14:00:55.536Z</time></trkpt><trkpt lat="41.6095332" lon="0.6378151"><ele>149.0</ele><time>2026-05-04T14:00:56.537Z</time></trkpt><trkpt lat="41.6095661" lon="0.6379215"><ele>148.8</ele><time>2026-05-04T14:00:57.552Z</time></trkpt><trkpt lat="41.6096024" lon="0.6380327"><ele>148.60000000000002</ele><time>2026-05-04T14:00:58.537Z</time></trkpt><trkpt lat="41.6096366" lon="0.6381388"><ele>148.4</ele><time>2026-05-04T14:00:59.54Z</time></trkpt><trkpt lat="41.6096725" lon="0.6382402"><ele>148.20000000000002</ele><time>2026-05-04T14:01:00.547Z</time></trkpt><trkpt lat="41.6097433" lon="0.6384381"><ele>148.0</ele><time>2026-05-04T14:01:02.536Z</time></trkpt><trkpt lat="41.6097776" lon="0.6385395"><ele>148.0</ele><time>2026-05-04T14:01:03.539Z</time></trkpt><trkpt lat="41.6098122" lon="0.6386473"><ele>148.0</ele><time>2026-05-04T14:01:04.543Z</time></trkpt><trkpt lat="41.6098464" lon="0.6387617"><ele>148.0</ele><time>2026-05-04T14:01:05.544Z</time></trkpt><trkpt lat="41.609883" lon="0.6388812"><ele>148.0</ele><time>2026-05-04T14:01:06.54Z</time></trkpt><trkpt lat="41.6099215" lon="0.639001"><ele>148.0</ele><time>2026-05-04T14:01:07.54Z</time></trkpt><trkpt lat="41.6099643" lon="0.6391204"><ele>148.0</ele><time>2026-05-04T14:01:08.542Z</time></trkpt><trkpt lat="41.6100052" lon="0.6392391"><ele>148.0</ele><time>2026-05-04T14:01:09.536Z</time></trkpt><trkpt lat="41.6100432" lon="0.639357"><ele>148.0</ele><time>2026-05-04T14:01:10.543Z</time></trkpt><trkpt lat="41.6100795" lon="0.6394691"><ele>148.0</ele><time>2026-05-04T14:01:11.545Z</time></trkpt><trkpt lat="41.6101162" lon="0.6395802"><ele>148.0</ele><time>2026-05-04T14:01:12.547Z</time></trkpt><trkpt lat="41.6101495" lon="0.6396965"><ele>148.0</ele><time>2026-05-04T14:01:13.54Z</time></trkpt><trkpt lat="41.6101726" lon="0.639812"><ele>148.0</ele><time>2026-05-04T14:01:14.543Z</time></trkpt><trkpt lat="41.6101889" lon="0.6399307"><ele>148.0</ele><time>2026-05-04T14:01:15.552Z</time></trkpt><trkpt lat="41.6101742" lon="0.6400491"><ele>148.0</ele><time>2026-05-04T14:01:16.547Z</time></trkpt><trkpt lat="41.6101513" lon="0.6401624"><ele>148.0</ele><time>2026-05-04T14:01:17.546Z</time></trkpt><trkpt lat="41.6101375" lon="0.6402762"><ele>148.0</ele><time>2026-05-04T14:01:18.542Z</time></trkpt><trkpt lat="41.6101372" lon="0.6403923"><ele>148.0</ele><time>2026-05-04T14:01:19.546Z</time></trkpt><trkpt lat="41.6101634" lon="0.640498"><ele>148.0</ele><time>2026-05-04T14:01:20.547Z</time></trkpt><trkpt lat="41.6102143" lon="0.6405818"><ele>148.0</ele><time>2026-05-04T14:01:21.541Z</time></trkpt><trkpt lat="41.6102914" lon="0.6406545"><ele>148.0</ele><time>2026-05-04T14:01:22.543Z</time></trkpt><trkpt lat="41.6103839" lon="0.6407083"><ele>148.0</ele><time>2026-05-04T14:01:23.553Z</time></trkpt><trkpt lat="41.6104803" lon="0.6407602"><ele>148.0</ele><time>2026-05-04T14:01:24.548Z</time></trkpt><trkpt lat="41.6105593" lon="0.6408537"><ele>148.0</ele><time>2026-05-04T14:01:25.552Z</time></trkpt><trkpt lat="41.6106213" lon="0.6409865"><ele>148.0</ele><time>2026-05-04T14:01:26.544Z</time></trkpt><trkpt lat="41.610666" lon="0.641141"><ele>148.0</ele><time>2026-05-04T14:01:27.545Z</time></trkpt><trkpt lat="41.6107066" lon="0.6412923"><ele>148.25</ele><time>2026-05-04T14:01:28.561Z</time></trkpt><trkpt lat="41.6107522" lon="0.6414375"><ele>148.5</ele><time>2026-05-04T14:01:29.546Z</time></trkpt><trkpt lat="41.610802" lon="0.6415805"><ele>148.75</ele><time>2026-05-04T14:01:30.549Z</time></trkpt><trkpt lat="41.6108432" lon="0.6417166"><ele>149.0</ele><time>2026-05-04T14:01:31.543Z</time></trkpt><trkpt lat="41.6108844" lon="0.6418448"><ele>149.0</ele><time>2026-05-04T14:01:32.542Z</time></trkpt><trkpt lat="41.6109224" lon="0.6419724"><ele>149.0</ele><time>2026-05-04T14:01:33.545Z</time></trkpt><trkpt lat="41.6109617" lon="0.6420877"><ele>149.0</ele><time>2026-05-04T14:01:34.538Z</time></trkpt><trkpt lat="41.611" lon="0.6422025"><ele>149.0</ele><time>2026-05-04T14:01:35.539Z</time></trkpt><trkpt lat="41.6110371" lon="0.6423143"><ele>149.0</ele><time>2026-05-04T14:01:36.533Z</time></trkpt><trkpt lat="41.6110749" lon="0.642429"><ele>149.0</ele><time>2026-05-04T14:01:37.546Z</time></trkpt><trkpt lat="41.6111106" lon="0.6425343"><ele>149.0</ele><time>2026-05-04T14:01:38.542Z</time></trkpt><trkpt lat="41.6111472" lon="0.6426376"><ele>149.0</ele><time>2026-05-04T14:01:39.539Z</time></trkpt><trkpt lat="41.6111823" lon="0.6427425"><ele>149.0</ele><time>2026-05-04T14:01:40.545Z</time></trkpt><trkpt lat="41.6112141" lon="0.6428409"><ele>149.0</ele><time>2026-05-04T14:01:41.54Z</time></trkpt><trkpt lat="41.6112475" lon="0.6429471"><ele>149.0</ele><time>2026-05-04T14:01:42.54Z</time></trkpt><trkpt lat="41.6112822" lon="0.6430503"><ele>150.4</ele><time>2026-05-04T14:01:43.549Z</time></trkpt><trkpt lat="41.6113212" lon="0.6431596"><ele>151.8</ele><time>2026-05-04T14:01:44.545Z</time></trkpt><trkpt lat="41.6113596" lon="0.6432648"><ele>153.2</ele><time>2026-05-04T14:01:45.539Z</time></trkpt><trkpt lat="41.6114012" lon="0.6433746"><ele>154.6</ele><time>2026-05-04T14:01:46.545Z</time></trkpt><trkpt lat="41.6114425" lon="0.643484"><ele>156.0</ele><time>2026-05-04T14:01:47.544Z</time></trkpt><trkpt lat="41.6114783" lon="0.6435983"><ele>155.6</ele><time>2026-05-04T14:01:48.549Z</time></trkpt><trkpt lat="41.6115194" lon="0.6437164"><ele>155.2</ele><time>2026-05-04T14:01:49.534Z</time></trkpt><trkpt lat="41.6115609" lon="0.6438363"><ele>154.8</ele><time>2026-05-04T14:01:50.541Z</time></trkpt><trkpt lat="41.611602" lon="0.6439576"><ele>154.4</ele><time>2026-05-04T14:01:51.532Z</time></trkpt><trkpt lat="41.6116424" lon="0.6440769"><ele>154.0</ele><time>2026-05-04T14:01:52.536Z</time></trkpt><trkpt lat="41.6116834" lon="0.6441945"><ele>154.0</ele><time>2026-05-04T14:01:53.545Z</time></trkpt><trkpt lat="41.6117214" lon="0.6443139"><ele>154.0</ele><time>2026-05-04T14:01:54.54Z</time></trkpt><trkpt lat="41.6117604" lon="0.644431"><ele>154.0</ele><time>2026-05-04T14:01:55.54Z</time></trkpt><trkpt lat="41.6118013" lon="0.644547"><ele>154.0</ele><time>2026-05-04T14:01:56.544Z</time></trkpt><trkpt lat="41.6118432" lon="0.6446673"><ele>154.0</ele><time>2026-05-04T14:01:57.545Z</time></trkpt><trkpt lat="41.6118853" lon="0.6447863"><ele>154.0</ele><time>2026-05-04T14:01:58.545Z</time></trkpt><trkpt lat="41.6119264" lon="0.644909"><ele>154.0</ele><time>2026-05-04T14:01:59.556Z</time></trkpt><trkpt lat="41.6119719" lon="0.6450375"><ele>154.0</ele><time>2026-05-04T14:02:00.547Z</time></trkpt><trkpt lat="41.6120145" lon="0.6451662"><ele>154.0</ele><time>2026-05-04T14:02:01.542Z</time></trkpt><trkpt lat="41.6120552" lon="0.6452933"><ele>154.0</ele><time>2026-05-04T14:02:02.544Z</time></trkpt><trkpt lat="41.6120954" lon="0.6454153"><ele>154.0</ele><time>2026-05-04T14:02:03.541Z</time></trkpt><trkpt lat="41.612133" lon="0.64554"><ele>154.0</ele><time>2026-05-04T14:02:04.542Z</time></trkpt><trkpt lat="41.6121696" lon="0.6456611"><ele>154.0</ele><time>2026-05-04T14:02:05.542Z</time></trkpt><trkpt lat="41.6122091" lon="0.6457848"><ele>154.0</ele><time>2026-05-04T14:02:06.539Z</time></trkpt><trkpt lat="41.6122499" lon="0.645905"><ele>154.0</ele><time>2026-05-04T14:02:07.54Z</time></trkpt><trkpt lat="41.6122878" lon="0.6460281"><ele>154.8</ele><time>2026-05-04T14:02:08.548Z</time></trkpt><trkpt lat="41.6123279" lon="0.646152"><ele>155.60000000000002</ele><time>2026-05-04T14:02:09.551Z</time></trkpt><trkpt lat="41.6123665" lon="0.6462725"><ele>156.4</ele><time>2026-05-04T14:02:10.543Z</time></trkpt><trkpt lat="41.6124061" lon="0.6463966"><ele>157.20000000000002</ele><time>2026-05-04T14:02:11.539Z</time></trkpt><trkpt lat="41.6124445" lon="0.6465216"><ele>158.0</ele><time>2026-05-04T14:02:12.544Z</time></trkpt><trkpt lat="41.6124844" lon="0.6466468"><ele>158.0</ele><time>2026-05-04T14:02:13.547Z</time></trkpt><trkpt lat="41.6125238" lon="0.6467747"><ele>158.0</ele><time>2026-05-04T14:02:14.541Z</time></trkpt><trkpt lat="41.6125669" lon="0.6469008"><ele>158.0</ele><time>2026-05-04T14:02:15.545Z</time></trkpt><trkpt lat="41.6126108" lon="0.6470356"><ele>158.0</ele><time>2026-05-04T14:02:16.546Z</time></trkpt><trkpt lat="41.6126516" lon="0.6471663"><ele>158.0</ele><time>2026-05-04T14:02:17.548Z</time></trkpt><trkpt lat="41.612693" lon="0.6472913"><ele>158.20000000000002</ele><time>2026-05-04T14:02:18.546Z</time></trkpt><trkpt lat="41.6127339" lon="0.6474137"><ele>158.4</ele><time>2026-05-04T14:02:19.542Z</time></trkpt><trkpt lat="41.6127771" lon="0.6475313"><ele>158.60000000000002</ele><time>2026-05-04T14:02:20.543Z</time></trkpt><trkpt lat="41.6128161" lon="0.6476421"><ele>158.8</ele><time>2026-05-04T14:02:21.547Z</time></trkpt><trkpt lat="41.6128553" lon="0.6477512"><ele>159.0</ele><time>2026-05-04T14:02:22.551Z</time></trkpt><trkpt lat="41.6128935" lon="0.6478614"><ele>159.2</ele><time>2026-05-04T14:02:23.541Z</time></trkpt><trkpt lat="41.6129289" lon="0.6479799"><ele>159.4</ele><time>2026-05-04T14:02:24.544Z</time></trkpt><trkpt lat="41.6129601" lon="0.6480939"><ele>159.6</ele><time>2026-05-04T14:02:25.545Z</time></trkpt><trkpt lat="41.612998" lon="0.648215"><ele>159.8</ele><time>2026-05-04T14:02:26.544Z</time></trkpt><trkpt lat="41.6130378" lon="0.6483349"><ele>160.0</ele><time>2026-05-04T14:02:27.542Z</time></trkpt><trkpt lat="41.6130805" lon="0.6484614"><ele>160.0</ele><time>2026-05-04T14:02:28.542Z</time></trkpt><trkpt lat="41.6131241" lon="0.648591"><ele>160.0</ele><time>2026-05-04T14:02:29.545Z</time></trkpt><trkpt lat="41.6131718" lon="0.6487225"><ele>160.0</ele><time>2026-05-04T14:02:30.564Z</time></trkpt><trkpt lat="41.6132204" lon="0.6488527"><ele>160.0</ele><time>2026-05-04T14:02:31.541Z</time></trkpt><trkpt lat="41.6132632" lon="0.6489821"><ele>160.0</ele><time>2026-05-04T14:02:32.543Z</time></trkpt><trkpt lat="41.6133077" lon="0.649108"><ele>160.4</ele><time>2026-05-04T14:02:33.543Z</time></trkpt><trkpt lat="41.6133473" lon="0.6492264"><ele>160.8</ele><time>2026-05-04T14:02:34.543Z</time></trkpt><trkpt lat="41.6133902" lon="0.6493506"><ele>161.2</ele><time>2026-05-04T14:02:35.545Z</time></trkpt><trkpt lat="41.6134349" lon="0.6494749"><ele>161.6</ele><time>2026-05-04T14:02:36.543Z</time></trkpt><trkpt lat="41.6134771" lon="0.6496"><ele>162.0</ele><time>2026-05-04T14:02:37.544Z</time></trkpt><trkpt lat="41.6135248" lon="0.6497332"><ele>161.8</ele><time>2026-05-04T14:02:38.54Z</time></trkpt><trkpt lat="41.6135715" lon="0.6498595"><ele>161.6</ele><time>2026-05-04T14:02:39.541Z</time></trkpt><trkpt lat="41.6136178" lon="0.6499867"><ele>161.4</ele><time>2026-05-04T14:02:40.543Z</time></trkpt><trkpt lat="41.6136609" lon="0.6501138"><ele>161.20000000000002</ele><time>2026-05-04T14:02:41.546Z</time></trkpt><trkpt lat="41.6137021" lon="0.6502353"><ele>161.0</ele><time>2026-05-04T14:02:42.554Z</time></trkpt><trkpt lat="41.6137417" lon="0.6503573"><ele>161.83333333333331</ele><time>2026-05-04T14:02:43.543Z</time></trkpt><trkpt lat="41.613776" lon="0.6504808"><ele>162.66666666666666</ele><time>2026-05-04T14:02:44.541Z</time></trkpt><trkpt lat="41.6138097" lon="0.650602"><ele>163.5</ele><time>2026-05-04T14:02:45.539Z</time></trkpt><trkpt lat="41.6138334" lon="0.6507074"><ele>164.33333333333334</ele><time>2026-05-04T14:02:46.541Z</time></trkpt><trkpt lat="41.6138415" lon="0.6508237"><ele>165.16666666666669</ele><time>2026-05-04T14:02:48.547Z</time></trkpt><trkpt lat="41.6137924" lon="0.6508861"><ele>166.0</ele><time>2026-05-04T14:02:57.544Z</time></trkpt><trkpt lat="41.6137966" lon="0.6509718"><ele>166.0</ele><time>2026-05-04T14:03:00.541Z</time></trkpt><trkpt lat="41.6138003" lon="0.6510623"><ele>166.0</ele><time>2026-05-04T14:03:04.536Z</time></trkpt><trkpt lat="41.6138212" lon="0.65116"><ele>166.0</ele><time>2026-05-04T14:03:20.544Z</time></trkpt><trkpt lat="41.6138347" lon="0.6512565"><ele>166.0</ele><time>2026-05-04T14:03:21.543Z</time></trkpt><trkpt lat="41.6138513" lon="0.6513583"><ele>166.0</ele><time>2026-05-04T14:03:22.546Z</time></trkpt><trkpt lat="41.6138702" lon="0.6514702"><ele>166.0</ele><time>2026-05-04T14:03:23.547Z</time></trkpt><trkpt lat="41.6138967" lon="0.6515961"><ele>165.8</ele><time>2026-05-04T14:03:24.553Z</time></trkpt><trkpt lat="41.6139275" lon="0.651741"><ele>165.60000000000002</ele><time>2026-05-04T14:03:25.548Z</time></trkpt><trkpt lat="41.6139636" lon="0.6518817"><ele>165.4</ele><time>2026-05-04T14:03:26.548Z</time></trkpt><trkpt lat="41.6139989" lon="0.6520249"><ele>165.2</ele><time>2026-05-04T14:03:27.544Z</time></trkpt><trkpt lat="41.6140454" lon="0.6521563"><ele>165.0</ele><time>2026-05-04T14:03:28.546Z</time></trkpt><trkpt lat="41.6140936" lon="0.6522892"><ele>164.33333333333334</ele><time>2026-05-04T14:03:29.54Z</time></trkpt><trkpt lat="41.614147" lon="0.6524206"><ele>163.66666666666669</ele><time>2026-05-04T14:03:30.544Z</time></trkpt><trkpt lat="41.6142941" lon="0.652654"><ele>163.0</ele><time>2026-05-04T14:03:32.566Z</time></trkpt><trkpt lat="41.6143877" lon="0.6527391"><ele>163.25</ele><time>2026-05-04T14:03:33.546Z</time></trkpt><trkpt lat="41.6144826" lon="0.6528333"><ele>163.5</ele><time>2026-05-04T14:03:34.548Z</time></trkpt><trkpt lat="41.6145585" lon="0.6529451"><ele>163.75</ele><time>2026-05-04T14:03:35.548Z</time></trkpt><trkpt lat="41.6146218" lon="0.6530902"><ele>164.0</ele><time>2026-05-04T14:03:36.545Z</time></trkpt><trkpt lat="41.6146787" lon="0.6532428"><ele>164.25</ele><time>2026-05-04T14:03:37.543Z</time></trkpt><trkpt lat="41.6147307" lon="0.653406"><ele>164.5</ele><time>2026-05-04T14:03:38.55Z</time></trkpt><trkpt lat="41.614788" lon="0.6535792"><ele>164.75</ele><time>2026-05-04T14:03:39.544Z</time></trkpt><trkpt lat="41.6148443" lon="0.6537536"><ele>165.0</ele><time>2026-05-04T14:03:40.549Z</time></trkpt><trkpt lat="41.614899" lon="0.653926"><ele>165.0</ele><time>2026-05-04T14:03:41.545Z</time></trkpt><trkpt lat="41.6149625" lon="0.6541036"><ele>165.0</ele><time>2026-05-04T14:03:42.549Z</time></trkpt><trkpt lat="41.6150287" lon="0.6542899"><ele>165.0</ele><time>2026-05-04T14:03:43.55Z</time></trkpt><trkpt lat="41.6150912" lon="0.6544783"><ele>165.0</ele><time>2026-05-04T14:03:44.552Z</time></trkpt><trkpt lat="41.6151565" lon="0.6546677"><ele>165.0</ele><time>2026-05-04T14:03:45.552Z</time></trkpt><trkpt lat="41.615225" lon="0.6548577"><ele>165.0</ele><time>2026-05-04T14:03:46.548Z</time></trkpt><trkpt lat="41.6152994" lon="0.6550518"><ele>165.0</ele><time>2026-05-04T14:03:47.55Z</time></trkpt><trkpt lat="41.6153692" lon="0.6552455"><ele>165.0</ele><time>2026-05-04T14:03:48.553Z</time></trkpt><trkpt lat="41.6154457" lon="0.6554412"><ele>165.0</ele><time>2026-05-04T14:03:49.552Z</time></trkpt><trkpt lat="41.6155288" lon="0.6556382"><ele>165.66666666666666</ele><time>2026-05-04T14:03:50.554Z</time></trkpt><trkpt lat="41.6156043" lon="0.6558403"><ele>166.33333333333331</ele><time>2026-05-04T14:03:51.552Z</time></trkpt><trkpt lat="41.6156827" lon="0.6560498"><ele>167.0</ele><time>2026-05-04T14:03:52.553Z</time></trkpt><trkpt lat="41.6157615" lon="0.6562602"><ele>167.33333333333331</ele><time>2026-05-04T14:03:53.553Z</time></trkpt><trkpt lat="41.6158394" lon="0.6564715"><ele>167.66666666666666</ele><time>2026-05-04T14:03:54.548Z</time></trkpt><trkpt lat="41.6159174" lon="0.6566847"><ele>168.0</ele><time>2026-05-04T14:03:55.546Z</time></trkpt><trkpt lat="41.6159906" lon="0.6568964"><ele>168.66666666666666</ele><time>2026-05-04T14:03:56.542Z</time></trkpt><trkpt lat="41.6160658" lon="0.6571123"><ele>169.33333333333331</ele><time>2026-05-04T14:03:57.548Z</time></trkpt><trkpt lat="41.616139" lon="0.657321"><ele>170.0</ele><time>2026-05-04T14:03:58.558Z</time></trkpt><trkpt lat="41.6162209" lon="0.6575405"><ele>168.66666666666666</ele><time>2026-05-04T14:03:59.549Z</time></trkpt><trkpt lat="41.6163024" lon="0.6577715"><ele>167.33333333333334</ele><time>2026-05-04T14:04:00.551Z</time></trkpt><trkpt lat="41.6163794" lon="0.6579914"><ele>166.0</ele><time>2026-05-04T14:04:01.55Z</time></trkpt><trkpt lat="41.6164579" lon="0.6582209"><ele>166.0</ele><time>2026-05-04T14:04:02.548Z</time></trkpt><trkpt lat="41.6165368" lon="0.6584569"><ele>166.0</ele><time>2026-05-04T14:04:03.578Z</time></trkpt><trkpt lat="41.6166168" lon="0.6586871"><ele>166.0</ele><time>2026-05-04T14:04:04.549Z</time></trkpt><trkpt lat="41.6166955" lon="0.6589185"><ele>166.66666666666669</ele><time>2026-05-04T14:04:05.544Z</time></trkpt><trkpt lat="41.6167773" lon="0.659162"><ele>167.33333333333334</ele><time>2026-05-04T14:04:06.548Z</time></trkpt><trkpt lat="41.6168621" lon="0.6593999"><ele>168.0</ele><time>2026-05-04T14:04:07.548Z</time></trkpt><trkpt lat="41.6169464" lon="0.6596301"><ele>167.66666666666666</ele><time>2026-05-04T14:04:08.548Z</time></trkpt><trkpt lat="41.6170271" lon="0.6598637"><ele>167.33333333333331</ele><time>2026-05-04T14:04:09.547Z</time></trkpt><trkpt lat="41.6171099" lon="0.6600967"><ele>167.0</ele><time>2026-05-04T14:04:10.549Z</time></trkpt><trkpt lat="41.6171891" lon="0.6603337"><ele>168.0</ele><time>2026-05-04T14:04:11.552Z</time></trkpt><trkpt lat="41.6172682" lon="0.6605697"><ele>169.0</ele><time>2026-05-04T14:04:12.547Z</time></trkpt><trkpt lat="41.6173373" lon="0.6608011"><ele>170.0</ele><time>2026-05-04T14:04:13.547Z</time></trkpt><trkpt lat="41.6173967" lon="0.6610323"><ele>170.5</ele><time>2026-05-04T14:04:14.549Z</time></trkpt><trkpt lat="41.6174487" lon="0.6612264"><ele>171.0</ele><time>2026-05-04T14:04:15.542Z</time></trkpt><trkpt lat="41.6174949" lon="0.6614016"><ele>171.5</ele><time>2026-05-04T14:04:16.543Z</time></trkpt><trkpt lat="41.6175304" lon="0.6615646"><ele>172.0</ele><time>2026-05-04T14:04:17.545Z</time></trkpt><trkpt lat="41.6175571" lon="0.6617216"><ele>172.0</ele><time>2026-05-04T14:04:18.552Z</time></trkpt><trkpt lat="41.6175884" lon="0.6618958"><ele>172.0</ele><time>2026-05-04T14:04:19.546Z</time></trkpt><trkpt lat="41.6176174" lon="0.6620559"><ele>172.0</ele><time>2026-05-04T14:04:20.543Z</time></trkpt><trkpt lat="41.6176435" lon="0.6622353"><ele>172.0</ele><time>2026-05-04T14:04:21.547Z</time></trkpt><trkpt lat="41.6176761" lon="0.6624269"><ele>173.0</ele><time>2026-05-04T14:04:22.544Z</time></trkpt><trkpt lat="41.6177128" lon="0.6626232"><ele>174.0</ele><time>2026-05-04T14:04:23.55Z</time></trkpt><trkpt lat="41.6177546" lon="0.662826"><ele>175.0</ele><time>2026-05-04T14:04:24.547Z</time></trkpt><trkpt lat="41.6177949" lon="0.6630171"><ele>173.5</ele><time>2026-05-04T14:04:25.544Z</time></trkpt><trkpt lat="41.6178367" lon="0.6632056"><ele>172.0</ele><time>2026-05-04T14:04:26.544Z</time></trkpt><trkpt lat="41.6178704" lon="0.6633971"><ele>170.5</ele><time>2026-05-04T14:04:27.55Z</time></trkpt><trkpt lat="41.6179033" lon="0.6635834"><ele>169.0</ele><time>2026-05-04T14:04:28.554Z</time></trkpt><trkpt lat="41.6179365" lon="0.663768"><ele>169.0</ele><time>2026-05-04T14:04:29.553Z</time></trkpt><trkpt lat="41.6179563" lon="0.663912"><ele>169.0</ele><time>2026-05-04T14:04:30.548Z</time></trkpt><trkpt lat="41.617974" lon="0.6640407"><ele>169.0</ele><time>2026-05-04T14:04:31.547Z</time></trkpt><trkpt lat="41.6179832" lon="0.6641661"><ele>169.0</ele><time>2026-05-04T14:04:32.541Z</time></trkpt><trkpt lat="41.6179724" lon="0.664293"><ele>169.0</ele><time>2026-05-04T14:04:33.548Z</time></trkpt><trkpt lat="41.617949" lon="0.6644303"><ele>169.66666666666669</ele><time>2026-05-04T14:04:34.54Z</time></trkpt><trkpt lat="41.6179" lon="0.6645436"><ele>170.33333333333334</ele><time>2026-05-04T14:04:35.545Z</time></trkpt><trkpt lat="41.6178399" lon="0.6646326"><ele>171.0</ele><time>2026-05-04T14:04:36.541Z</time></trkpt><trkpt lat="41.6177925" lon="0.6647115"><ele>171.66666666666666</ele><time>2026-05-04T14:04:37.543Z</time></trkpt><trkpt lat="41.6177207" lon="0.6648363"><ele>172.33333333333331</ele><time>2026-05-04T14:04:39.543Z</time></trkpt><trkpt lat="41.6176775" lon="0.6648999"><ele>173.0</ele><time>2026-05-04T14:04:40.533Z</time></trkpt><trkpt lat="41.6176181" lon="0.664959"><ele>173.60000000000002</ele><time>2026-05-04T14:04:41.543Z</time></trkpt><trkpt lat="41.617549" lon="0.6650246"><ele>174.20000000000002</ele><time>2026-05-04T14:04:42.525Z</time></trkpt><trkpt lat="41.6174712" lon="0.6651002"><ele>174.8</ele><time>2026-05-04T14:04:43.533Z</time></trkpt><trkpt lat="41.6173869" lon="0.6651867"><ele>175.4</ele><time>2026-05-04T14:04:44.534Z</time></trkpt><trkpt lat="41.6173069" lon="0.665281"><ele>176.0</ele><time>2026-05-04T14:04:45.529Z</time></trkpt><trkpt lat="41.6172221" lon="0.6653762"><ele>176.5</ele><time>2026-05-04T14:04:46.531Z</time></trkpt><trkpt lat="41.6171405" lon="0.6654886"><ele>177.0</ele><time>2026-05-04T14:04:47.52Z</time></trkpt><trkpt lat="41.6170562" lon="0.6656126"><ele>177.5</ele><time>2026-05-04T14:04:48.529Z</time></trkpt><trkpt lat="41.6169761" lon="0.665752"><ele>178.0</ele><time>2026-05-04T14:04:49.53Z</time></trkpt><trkpt lat="41.6168947" lon="0.6658926"><ele>178.25</ele><time>2026-05-04T14:04:50.527Z</time></trkpt><trkpt lat="41.616814" lon="0.6660483"><ele>178.5</ele><time>2026-05-04T14:04:51.534Z</time></trkpt><trkpt lat="41.6167297" lon="0.6662053"><ele>178.75</ele><time>2026-05-04T14:04:52.529Z</time></trkpt><trkpt lat="41.6166381" lon="0.6663672"><ele>179.0</ele><time>2026-05-04T14:04:53.523Z</time></trkpt><trkpt lat="41.6165518" lon="0.6665392"><ele>179.5</ele><time>2026-05-04T14:04:54.527Z</time></trkpt><trkpt lat="41.6164653" lon="0.6667164"><ele>180.0</ele><time>2026-05-04T14:04:55.537Z</time></trkpt><trkpt lat="41.6163921" lon="0.666872"><ele>180.5</ele><time>2026-05-04T14:04:56.528Z</time></trkpt><trkpt lat="41.6163231" lon="0.6670128"><ele>181.0</ele><time>2026-05-04T14:04:57.527Z</time></trkpt><trkpt lat="41.6162681" lon="0.66715"><ele>181.83333333333334</ele><time>2026-05-04T14:04:58.526Z</time></trkpt><trkpt lat="41.6162135" lon="0.6672717"><ele>182.66666666666669</ele><time>2026-05-04T14:04:59.526Z</time></trkpt><trkpt lat="41.6161692" lon="0.6673793"><ele>183.5</ele><time>2026-05-04T14:05:00.535Z</time></trkpt><trkpt lat="41.6161286" lon="0.6674684"><ele>184.33333333333334</ele><time>2026-05-04T14:05:01.529Z</time></trkpt><trkpt lat="41.6160874" lon="0.6675543"><ele>185.16666666666666</ele><time>2026-05-04T14:05:02.531Z</time></trkpt><trkpt lat="41.6160507" lon="0.6676269"><ele>186.0</ele><time>2026-05-04T14:05:03.531Z</time></trkpt><trkpt lat="41.6160036" lon="0.6677283"><ele>186.5</ele><time>2026-05-04T14:05:05.531Z</time></trkpt><trkpt lat="41.6159629" lon="0.6678017"><ele>187.0</ele><time>2026-05-04T14:05:09.534Z</time></trkpt><trkpt lat="41.6159286" lon="0.66793"><ele>187.5</ele><time>2026-05-04T14:05:41.531Z</time></trkpt><trkpt lat="41.6158987" lon="0.6680075"><ele>188.0</ele><time>2026-05-04T14:05:42.532Z</time></trkpt><trkpt lat="41.6158675" lon="0.6680912"><ele>188.5</ele><time>2026-05-04T14:05:43.53Z</time></trkpt><trkpt lat="41.6158362" lon="0.6681796"><ele>189.0</ele><time>2026-05-04T14:05:44.524Z</time></trkpt><trkpt lat="41.6157957" lon="0.6682838"><ele>189.0</ele><time>2026-05-04T14:05:45.527Z</time></trkpt><trkpt lat="41.6157447" lon="0.6683995"><ele>189.0</ele><time>2026-05-04T14:05:46.525Z</time></trkpt><trkpt lat="41.6156863" lon="0.668529"><ele>189.0</ele><time>2026-05-04T14:05:47.531Z</time></trkpt><trkpt lat="41.6156268" lon="0.6686645"><ele>189.0</ele><time>2026-05-04T14:05:48.533Z</time></trkpt><trkpt lat="41.6155631" lon="0.6688083"><ele>189.5</ele><time>2026-05-04T14:05:49.541Z</time></trkpt><trkpt lat="41.6154985" lon="0.6689546"><ele>190.0</ele><time>2026-05-04T14:05:50.532Z</time></trkpt><trkpt lat="41.6154317" lon="0.669104"><ele>190.5</ele><time>2026-05-04T14:05:51.539Z</time></trkpt><trkpt lat="41.6153594" lon="0.6692597"><ele>191.0</ele><time>2026-05-04T14:05:52.535Z</time></trkpt><trkpt lat="41.615284" lon="0.669424"><ele>193.0</ele><time>2026-05-04T14:05:53.527Z</time></trkpt><trkpt lat="41.6152088" lon="0.6695898"><ele>195.0</ele><time>2026-05-04T14:05:54.526Z</time></trkpt><trkpt lat="41.6151246" lon="0.6697649"><ele>197.0</ele><time>2026-05-04T14:05:55.525Z</time></trkpt><trkpt lat="41.6150394" lon="0.6699256"><ele>199.0</ele><time>2026-05-04T14:05:56.524Z</time></trkpt><trkpt lat="41.6149512" lon="0.6700916"><ele>199.0</ele><time>2026-05-04T14:05:57.523Z</time></trkpt><trkpt lat="41.6148664" lon="0.6702537"><ele>199.0</ele><time>2026-05-04T14:05:58.529Z</time></trkpt><trkpt lat="41.6147803" lon="0.6704113"><ele>199.0</ele><time>2026-05-04T14:05:59.544Z</time></trkpt><trkpt lat="41.614682" lon="0.6705581"><ele>199.0</ele><time>2026-05-04T14:06:00.539Z</time></trkpt><trkpt lat="41.6145819" lon="0.6707023"><ele>200.0</ele><time>2026-05-04T14:06:01.54Z</time></trkpt><trkpt lat="41.614479" lon="0.6708508"><ele>201.0</ele><time>2026-05-04T14:06:02.54Z</time></trkpt><trkpt lat="41.6143745" lon="0.6710021"><ele>202.0</ele><time>2026-05-04T14:06:03.536Z</time></trkpt><trkpt lat="41.614263" lon="0.6711377"><ele>202.0</ele><time>2026-05-04T14:06:04.539Z</time></trkpt><trkpt lat="41.6141558" lon="0.67127"><ele>202.0</ele><time>2026-05-04T14:06:05.545Z</time></trkpt><trkpt lat="41.6140443" lon="0.6714101"><ele>202.0</ele><time>2026-05-04T14:06:06.55Z</time></trkpt><trkpt lat="41.6139477" lon="0.6715372"><ele>202.0</ele><time>2026-05-04T14:06:07.526Z</time></trkpt><trkpt lat="41.6138381" lon="0.6716702"><ele>202.0</ele><time>2026-05-04T14:06:08.542Z</time></trkpt><trkpt lat="41.613732" lon="0.6717953"><ele>202.0</ele><time>2026-05-04T14:06:09.537Z</time></trkpt><trkpt lat="41.6136323" lon="0.6719171"><ele>202.0</ele><time>2026-05-04T14:06:10.537Z</time></trkpt><trkpt lat="41.6135445" lon="0.6720173"><ele>202.0</ele><time>2026-05-04T14:06:11.538Z</time></trkpt><trkpt lat="41.6134486" lon="0.672104"><ele>202.6</ele><time>2026-05-04T14:06:12.533Z</time></trkpt><trkpt lat="41.6133499" lon="0.6721772"><ele>203.2</ele><time>2026-05-04T14:06:13.529Z</time></trkpt><trkpt lat="41.6132573" lon="0.6722591"><ele>203.8</ele><time>2026-05-04T14:06:14.527Z</time></trkpt><trkpt lat="41.6131598" lon="0.6723306"><ele>204.4</ele><time>2026-05-04T14:06:15.527Z</time></trkpt><trkpt lat="41.6130702" lon="0.6723982"><ele>205.0</ele><time>2026-05-04T14:06:16.535Z</time></trkpt><trkpt lat="41.6129774" lon="0.6724715"><ele>205.0</ele><time>2026-05-04T14:06:17.53Z</time></trkpt><trkpt lat="41.6128867" lon="0.6725364"><ele>205.0</ele><time>2026-05-04T14:06:18.534Z</time></trkpt><trkpt lat="41.6128023" lon="0.672607"><ele>205.0</ele><time>2026-05-04T14:06:19.536Z</time></trkpt><trkpt lat="41.6127201" lon="0.6726691"><ele>205.0</ele><time>2026-05-04T14:06:20.531Z</time></trkpt><trkpt lat="41.612634" lon="0.6727355"><ele>205.0</ele><time>2026-05-04T14:06:21.533Z</time></trkpt><trkpt lat="41.6125492" lon="0.6727979"><ele>205.2</ele><time>2026-05-04T14:06:22.535Z</time></trkpt><trkpt lat="41.6124634" lon="0.6728612"><ele>205.4</ele><time>2026-05-04T14:06:23.529Z</time></trkpt><trkpt lat="41.6123766" lon="0.6729191"><ele>205.60000000000002</ele><time>2026-05-04T14:06:24.538Z</time></trkpt><trkpt lat="41.6122898" lon="0.6729762"><ele>205.8</ele><time>2026-05-04T14:06:25.532Z</time></trkpt><trkpt lat="41.6122089" lon="0.6730344"><ele>206.0</ele><time>2026-05-04T14:06:26.529Z</time></trkpt><trkpt lat="41.6121183" lon="0.6730929"><ele>206.0</ele><time>2026-05-04T14:06:27.53Z</time></trkpt><trkpt lat="41.6120229" lon="0.6731513"><ele>206.0</ele><time>2026-05-04T14:06:28.527Z</time></trkpt><trkpt lat="41.611926" lon="0.6732089"><ele>206.0</ele><time>2026-05-04T14:06:29.533Z</time></trkpt><trkpt lat="41.6118207" lon="0.6732646"><ele>206.0</ele><time>2026-05-04T14:06:30.543Z</time></trkpt><trkpt lat="41.611709" lon="0.6733184"><ele>206.0</ele><time>2026-05-04T14:06:31.544Z</time></trkpt><trkpt lat="41.6115918" lon="0.6733695"><ele>205.75</ele><time>2026-05-04T14:06:32.544Z</time></trkpt><trkpt lat="41.6114735" lon="0.6734097"><ele>205.5</ele><time>2026-05-04T14:06:33.551Z</time></trkpt><trkpt lat="41.6113484" lon="0.6734568"><ele>205.25</ele><time>2026-05-04T14:06:34.544Z</time></trkpt><trkpt lat="41.6112177" lon="0.6735086"><ele>205.0</ele><time>2026-05-04T14:06:35.554Z</time></trkpt><trkpt lat="41.6110823" lon="0.6735528"><ele>205.0</ele><time>2026-05-04T14:06:36.556Z</time></trkpt><trkpt lat="41.610936" lon="0.6735939"><ele>205.0</ele><time>2026-05-04T14:06:37.561Z</time></trkpt><trkpt lat="41.6107825" lon="0.6736358"><ele>205.0</ele><time>2026-05-04T14:06:38.543Z</time></trkpt><trkpt lat="41.6106306" lon="0.6736724"><ele>205.0</ele><time>2026-05-04T14:06:39.546Z</time></trkpt><trkpt lat="41.6104801" lon="0.6736973"><ele>205.0</ele><time>2026-05-04T14:06:40.549Z</time></trkpt><trkpt lat="41.6103335" lon="0.6737346"><ele>205.0</ele><time>2026-05-04T14:06:41.545Z</time></trkpt><trkpt lat="41.6101795" lon="0.6737586"><ele>205.66666666666666</ele><time>2026-05-04T14:06:42.545Z</time></trkpt><trkpt lat="41.6100253" lon="0.6737813"><ele>206.33333333333331</ele><time>2026-05-04T14:06:43.542Z</time></trkpt><trkpt lat="41.6098713" lon="0.6737906"><ele>207.0</ele><time>2026-05-04T14:06:44.539Z</time></trkpt><trkpt lat="41.6097175" lon="0.6737975"><ele>207.0</ele><time>2026-05-04T14:06:45.537Z</time></trkpt><trkpt lat="41.6095718" lon="0.6738034"><ele>207.0</ele><time>2026-05-04T14:06:46.533Z</time></trkpt><trkpt lat="41.6094282" lon="0.6737949"><ele>207.0</ele><time>2026-05-04T14:06:47.533Z</time></trkpt><trkpt lat="41.6092955" lon="0.6737799"><ele>207.0</ele><time>2026-05-04T14:06:48.54Z</time></trkpt><trkpt lat="41.6091764" lon="0.6737669"><ele>206.25</ele><time>2026-05-04T14:06:49.534Z</time></trkpt><trkpt lat="41.6090586" lon="0.6737415"><ele>205.5</ele><time>2026-05-04T14:06:50.532Z</time></trkpt><trkpt lat="41.608938" lon="0.6737393"><ele>204.75</ele><time>2026-05-04T14:06:51.54Z</time></trkpt><trkpt lat="41.6088253" lon="0.6737191"><ele>204.0</ele><time>2026-05-04T14:06:52.533Z</time></trkpt><trkpt lat="41.608712" lon="0.6736986"><ele>203.79999999999998</ele><time>2026-05-04T14:06:53.531Z</time></trkpt><trkpt lat="41.6085984" lon="0.6736727"><ele>203.6</ele><time>2026-05-04T14:06:54.542Z</time></trkpt><trkpt lat="41.608492" lon="0.673651"><ele>203.4</ele><time>2026-05-04T14:06:55.536Z</time></trkpt><trkpt lat="41.608386" lon="0.6736205"><ele>203.2</ele><time>2026-05-04T14:06:56.533Z</time></trkpt><trkpt lat="41.6082835" lon="0.6735945"><ele>203.0</ele><time>2026-05-04T14:06:57.532Z</time></trkpt><trkpt lat="41.6081826" lon="0.6735617"><ele>203.0</ele><time>2026-05-04T14:06:58.528Z</time></trkpt><trkpt lat="41.6080839" lon="0.6735272"><ele>203.0</ele><time>2026-05-04T14:06:59.525Z</time></trkpt><trkpt lat="41.6079855" lon="0.6734836"><ele>203.0</ele><time>2026-05-04T14:07:00.524Z</time></trkpt><trkpt lat="41.6078879" lon="0.6734432"><ele>203.0</ele><time>2026-05-04T14:07:01.529Z</time></trkpt><trkpt lat="41.6077896" lon="0.6734001"><ele>203.0</ele><time>2026-05-04T14:07:02.525Z</time></trkpt><trkpt lat="41.6076872" lon="0.6733554"><ele>202.4</ele><time>2026-05-04T14:07:03.536Z</time></trkpt><trkpt lat="41.6075845" lon="0.6733173"><ele>201.8</ele><time>2026-05-04T14:07:04.54Z</time></trkpt><trkpt lat="41.6074804" lon="0.6732829"><ele>201.2</ele><time>2026-05-04T14:07:05.54Z</time></trkpt><trkpt lat="41.6073741" lon="0.6732468"><ele>200.6</ele><time>2026-05-04T14:07:06.536Z</time></trkpt><trkpt lat="41.6072665" lon="0.6732061"><ele>200.0</ele><time>2026-05-04T14:07:07.537Z</time></trkpt><trkpt lat="41.6071597" lon="0.6731667"><ele>200.0</ele><time>2026-05-04T14:07:08.552Z</time></trkpt><trkpt lat="41.6070565" lon="0.6731248"><ele>200.0</ele><time>2026-05-04T14:07:09.531Z</time></trkpt><trkpt lat="41.6069606" lon="0.6730735"><ele>200.0</ele><time>2026-05-04T14:07:10.537Z</time></trkpt><trkpt lat="41.6068768" lon="0.6730101"><ele>200.0</ele><time>2026-05-04T14:07:11.544Z</time></trkpt><trkpt lat="41.6068072" lon="0.6729237"><ele>200.0</ele><time>2026-05-04T14:07:12.532Z</time></trkpt><trkpt lat="41.6067394" lon="0.6728415"><ele>199.66666666666669</ele><time>2026-05-04T14:07:13.54Z</time></trkpt><trkpt lat="41.6066791" lon="0.672766"><ele>199.33333333333334</ele><time>2026-05-04T14:07:14.54Z</time></trkpt><trkpt lat="41.6066064" lon="0.6727084"><ele>199.0</ele><time>2026-05-04T14:07:15.54Z</time></trkpt><trkpt lat="41.6065242" lon="0.6726865"><ele>198.66666666666669</ele><time>2026-05-04T14:07:16.536Z</time></trkpt><trkpt lat="41.6064457" lon="0.6726891"><ele>198.33333333333334</ele><time>2026-05-04T14:07:17.541Z</time></trkpt><trkpt lat="41.6063662" lon="0.6727236"><ele>198.0</ele><time>2026-05-04T14:07:18.542Z</time></trkpt><trkpt lat="41.6062982" lon="0.6727889"><ele>197.83333333333334</ele><time>2026-05-04T14:07:19.539Z</time></trkpt><trkpt lat="41.6062399" lon="0.6728618"><ele>197.66666666666669</ele><time>2026-05-04T14:07:20.532Z</time></trkpt><trkpt lat="41.6061901" lon="0.6729435"><ele>197.5</ele><time>2026-05-04T14:07:21.537Z</time></trkpt><trkpt lat="41.6061615" lon="0.6730224"><ele>197.33333333333334</ele><time>2026-05-04T14:07:22.532Z</time></trkpt><trkpt lat="41.6061451" lon="0.6731054"><ele>197.16666666666669</ele><time>2026-05-04T14:07:23.531Z</time></trkpt><trkpt lat="41.606144" lon="0.6732586"><ele>197.0</ele><time>2026-05-04T14:07:25.538Z</time></trkpt><trkpt lat="41.6061728" lon="0.6733952"><ele>197.00000000000003</ele><time>2026-05-04T14:07:27.547Z</time></trkpt><trkpt lat="41.6062061" lon="0.6735551"><ele>197.0</ele><time>2026-05-04T14:07:29.541Z</time></trkpt><trkpt lat="41.6062282" lon="0.6736486"><ele>197.0</ele><time>2026-05-04T14:07:30.542Z</time></trkpt><trkpt lat="41.606244" lon="0.6737504"><ele>197.0</ele><time>2026-05-04T14:07:31.542Z</time></trkpt><trkpt lat="41.6062558" lon="0.6738618"><ele>197.00000000000003</ele><time>2026-05-04T14:07:32.535Z</time></trkpt><trkpt lat="41.606258" lon="0.6739722"><ele>197.0</ele><time>2026-05-04T14:07:33.54Z</time></trkpt><trkpt lat="41.606252" lon="0.6740786"><ele>196.39999999999998</ele><time>2026-05-04T14:07:34.536Z</time></trkpt><trkpt lat="41.606242" lon="0.6741804"><ele>195.79999999999998</ele><time>2026-05-04T14:07:35.536Z</time></trkpt><trkpt lat="41.6062274" lon="0.6742956"><ele>195.2</ele><time>2026-05-04T14:07:36.533Z</time></trkpt><trkpt lat="41.60621" lon="0.6744163"><ele>194.6</ele><time>2026-05-04T14:07:37.535Z</time></trkpt><trkpt lat="41.6061894" lon="0.6745448"><ele>194.0</ele><time>2026-05-04T14:07:38.531Z</time></trkpt><trkpt lat="41.6061665" lon="0.6746775"><ele>193.0</ele><time>2026-05-04T14:07:39.544Z</time></trkpt><trkpt lat="41.6061401" lon="0.6748181"><ele>192.0</ele><time>2026-05-04T14:07:40.539Z</time></trkpt><trkpt lat="41.6061157" lon="0.6749721"><ele>191.0</ele><time>2026-05-04T14:07:41.534Z</time></trkpt><trkpt lat="41.6060891" lon="0.6751193"><ele>190.0</ele><time>2026-05-04T14:07:42.538Z</time></trkpt><trkpt lat="41.606062" lon="0.6752744"><ele>189.25</ele><time>2026-05-04T14:07:43.547Z</time></trkpt><trkpt lat="41.6060347" lon="0.6754316"><ele>188.5</ele><time>2026-05-04T14:07:44.537Z</time></trkpt><trkpt lat="41.6060063" lon="0.67559"><ele>187.75</ele><time>2026-05-04T14:07:45.54Z</time></trkpt><trkpt lat="41.6059797" lon="0.675743"><ele>187.0</ele><time>2026-05-04T14:07:46.535Z</time></trkpt><trkpt lat="41.6059546" lon="0.6758908"><ele>187.0</ele><time>2026-05-04T14:07:47.538Z</time></trkpt><trkpt lat="41.6059291" lon="0.676038"><ele>187.0</ele><time>2026-05-04T14:07:48.543Z</time></trkpt><trkpt lat="41.6059098" lon="0.6761936"><ele>187.0</ele><time>2026-05-04T14:07:49.543Z</time></trkpt><trkpt lat="41.605886" lon="0.6763489"><ele>187.0</ele><time>2026-05-04T14:07:50.536Z</time></trkpt><trkpt lat="41.6058697" lon="0.6765085"><ele>187.0</ele><time>2026-05-04T14:07:51.542Z</time></trkpt><trkpt lat="41.6058623" lon="0.6766757"><ele>187.0</ele><time>2026-05-04T14:07:52.542Z</time></trkpt><trkpt lat="41.6058593" lon="0.6768411"><ele>187.0</ele><time>2026-05-04T14:07:53.54Z</time></trkpt><trkpt lat="41.6058606" lon="0.6770075"><ele>187.0</ele><time>2026-05-04T14:07:54.541Z</time></trkpt><trkpt lat="41.6058681" lon="0.6771762"><ele>187.0</ele><time>2026-05-04T14:07:55.541Z</time></trkpt><trkpt lat="41.6058837" lon="0.6773411"><ele>187.0</ele><time>2026-05-04T14:07:56.542Z</time></trkpt><trkpt lat="41.6059051" lon="0.6775036"><ele>187.0</ele><time>2026-05-04T14:07:57.537Z</time></trkpt><trkpt lat="41.6059234" lon="0.6776529"><ele>187.0</ele><time>2026-05-04T14:07:58.537Z</time></trkpt><trkpt lat="41.6059422" lon="0.6777821"><ele>187.0</ele><time>2026-05-04T14:07:59.54Z</time></trkpt><trkpt lat="41.6059572" lon="0.6778954"><ele>187.0</ele><time>2026-05-04T14:08:00.536Z</time></trkpt><trkpt lat="41.605964" lon="0.6779889"><ele>187.0</ele><time>2026-05-04T14:08:01.531Z</time></trkpt><trkpt lat="41.6059697" lon="0.6781353"><ele>187.0</ele><time>2026-05-04T14:08:03.53Z</time></trkpt><trkpt lat="41.6059441" lon="0.6782551"><ele>187.0</ele><time>2026-05-04T14:08:05.531Z</time></trkpt><trkpt lat="41.6058878" lon="0.6783448"><ele>187.0</ele><time>2026-05-04T14:08:07.532Z</time></trkpt><trkpt lat="41.6057752" lon="0.678398"><ele>187.0</ele><time>2026-05-04T14:08:09.533Z</time></trkpt><trkpt lat="41.6057092" lon="0.6784209"><ele>187.0</ele><time>2026-05-04T14:08:10.549Z</time></trkpt><trkpt lat="41.6056405" lon="0.6784514"><ele>187.0</ele><time>2026-05-04T14:08:11.526Z</time></trkpt><trkpt lat="41.6055685" lon="0.6784798"><ele>187.0</ele><time>2026-05-04T14:08:12.517Z</time></trkpt><trkpt lat="41.6054992" lon="0.6785147"><ele>187.0</ele><time>2026-05-04T14:08:13.521Z</time></trkpt><trkpt lat="41.6054398" lon="0.67856"><ele>187.0</ele><time>2026-05-04T14:08:14.528Z</time></trkpt><trkpt lat="41.6053908" lon="0.6786308"><ele>187.0</ele><time>2026-05-04T14:08:15.528Z</time></trkpt><trkpt lat="41.6053575" lon="0.6787058"><ele>186.83333333333334</ele><time>2026-05-04T14:08:16.529Z</time></trkpt><trkpt lat="41.6053423" lon="0.6788612"><ele>186.66666666666669</ele><time>2026-05-04T14:08:18.524Z</time></trkpt><trkpt lat="41.605369" lon="0.6790219"><ele>186.5</ele><time>2026-05-04T14:08:20.533Z</time></trkpt><trkpt lat="41.6053878" lon="0.6791072"><ele>186.33333333333334</ele><time>2026-05-04T14:08:21.533Z</time></trkpt><trkpt lat="41.6054043" lon="0.6791962"><ele>186.16666666666666</ele><time>2026-05-04T14:08:22.534Z</time></trkpt><trkpt lat="41.6054141" lon="0.6792943"><ele>186.0</ele><time>2026-05-04T14:08:23.533Z</time></trkpt><trkpt lat="41.6054039" lon="0.6793987"><ele>186.16666666666666</ele><time>2026-05-04T14:08:24.537Z</time></trkpt><trkpt lat="41.6053659" lon="0.679503"><ele>186.33333333333334</ele><time>2026-05-04T14:08:25.539Z</time></trkpt><trkpt lat="41.6053093" lon="0.6795932"><ele>186.5</ele><time>2026-05-04T14:08:26.53Z</time></trkpt><trkpt lat="41.6052452" lon="0.679677"><ele>186.66666666666669</ele><time>2026-05-04T14:08:27.534Z</time></trkpt><trkpt lat="41.6051733" lon="0.6797328"><ele>186.83333333333334</ele><time>2026-05-04T14:08:28.525Z</time></trkpt><trkpt lat="41.6051054" lon="0.6797802"><ele>187.0</ele><time>2026-05-04T14:08:29.531Z</time></trkpt><trkpt lat="41.6050329" lon="0.6798373"><ele>187.0</ele><time>2026-05-04T14:08:30.532Z</time></trkpt><trkpt lat="41.6049668" lon="0.6798986"><ele>187.0</ele><time>2026-05-04T14:08:31.53Z</time></trkpt><trkpt lat="41.6048947" lon="0.6799683"><ele>187.0</ele><time>2026-05-04T14:08:32.53Z</time></trkpt><trkpt lat="41.6048318" lon="0.680051"><ele>187.0</ele><time>2026-05-04T14:08:33.528Z</time></trkpt><trkpt lat="41.6047704" lon="0.6801459"><ele>187.0</ele><time>2026-05-04T14:08:34.53Z</time></trkpt><trkpt lat="41.6047168" lon="0.6802436"><ele>187.0</ele><time>2026-05-04T14:08:35.531Z</time></trkpt><trkpt lat="41.6046678" lon="0.6803542"><ele>187.0</ele><time>2026-05-04T14:08:36.536Z</time></trkpt><trkpt lat="41.6046182" lon="0.6804838"><ele>187.0</ele><time>2026-05-04T14:08:37.535Z</time></trkpt><trkpt lat="41.6045726" lon="0.6806208"><ele>187.0</ele><time>2026-05-04T14:08:38.53Z</time></trkpt><trkpt lat="41.6045282" lon="0.680758"><ele>187.0</ele><time>2026-05-04T14:08:39.534Z</time></trkpt><trkpt lat="41.6044845" lon="0.6808945"><ele>187.0</ele><time>2026-05-04T14:08:40.535Z</time></trkpt><trkpt lat="41.6044376" lon="0.6810272"><ele>187.2</ele><time>2026-05-04T14:08:41.563Z</time></trkpt><trkpt lat="41.6043923" lon="0.6811571"><ele>187.39999999999998</ele><time>2026-05-04T14:08:42.531Z</time></trkpt><trkpt lat="41.6043483" lon="0.6812941"><ele>187.60000000000002</ele><time>2026-05-04T14:08:43.534Z</time></trkpt><trkpt lat="41.6043017" lon="0.6814341"><ele>187.8</ele><time>2026-05-04T14:08:44.533Z</time></trkpt><trkpt lat="41.6042663" lon="0.6815713"><ele>188.0</ele><time>2026-05-04T14:08:45.53Z</time></trkpt><trkpt lat="41.6042236" lon="0.6817141"><ele>188.0</ele><time>2026-05-04T14:08:46.532Z</time></trkpt><trkpt lat="41.6041743" lon="0.68186"><ele>188.0</ele><time>2026-05-04T14:08:47.532Z</time></trkpt><trkpt lat="41.6041189" lon="0.6820132"><ele>188.0</ele><time>2026-05-04T14:08:48.533Z</time></trkpt><trkpt lat="41.6040675" lon="0.6821618"><ele>188.0</ele><time>2026-05-04T14:08:49.533Z</time></trkpt><trkpt lat="41.6040133" lon="0.6823144"><ele>188.5</ele><time>2026-05-04T14:08:50.527Z</time></trkpt><trkpt lat="41.6039558" lon="0.6824681"><ele>189.0</ele><time>2026-05-04T14:08:51.53Z</time></trkpt><trkpt lat="41.6038986" lon="0.6826207"><ele>189.5</ele><time>2026-05-04T14:08:52.531Z</time></trkpt><trkpt lat="41.6038409" lon="0.6827794"><ele>190.0</ele><time>2026-05-04T14:08:53.529Z</time></trkpt><trkpt lat="41.6037807" lon="0.682945"><ele>190.0</ele><time>2026-05-04T14:08:54.526Z</time></trkpt><trkpt lat="41.6037205" lon="0.6831101"><ele>190.0</ele><time>2026-05-04T14:08:55.531Z</time></trkpt><trkpt lat="41.6036572" lon="0.6832907"><ele>190.0</ele><time>2026-05-04T14:08:56.535Z</time></trkpt><trkpt lat="41.603594" lon="0.6834613"><ele>190.0</ele><time>2026-05-04T14:08:57.536Z</time></trkpt><trkpt lat="41.603531" lon="0.683641"><ele>189.25</ele><time>2026-05-04T14:08:58.536Z</time></trkpt><trkpt lat="41.6034667" lon="0.6838017"><ele>188.5</ele><time>2026-05-04T14:08:59.527Z</time></trkpt><trkpt lat="41.6033991" lon="0.6839596"><ele>187.75</ele><time>2026-05-04T14:09:00.538Z</time></trkpt><trkpt lat="41.6033328" lon="0.6841298"><ele>187.0</ele><time>2026-05-04T14:09:01.533Z</time></trkpt><trkpt lat="41.6032753" lon="0.6843018"><ele>187.0</ele><time>2026-05-04T14:09:02.532Z</time></trkpt><trkpt lat="41.6032102" lon="0.6844835"><ele>187.0</ele><time>2026-05-04T14:09:03.528Z</time></trkpt><trkpt lat="41.6031426" lon="0.6846598"><ele>187.0</ele><time>2026-05-04T14:09:04.532Z</time></trkpt><trkpt lat="41.6030709" lon="0.6848552"><ele>187.0</ele><time>2026-05-04T14:09:05.529Z</time></trkpt><trkpt lat="41.6029955" lon="0.6850365"><ele>187.0</ele><time>2026-05-04T14:09:06.533Z</time></trkpt><trkpt lat="41.6029312" lon="0.6852231"><ele>187.0</ele><time>2026-05-04T14:09:07.532Z</time></trkpt><trkpt lat="41.6028584" lon="0.6854096"><ele>187.66666666666669</ele><time>2026-05-04T14:09:08.534Z</time></trkpt><trkpt lat="41.6027897" lon="0.6856014"><ele>188.33333333333334</ele><time>2026-05-04T14:09:09.533Z</time></trkpt><trkpt lat="41.6027129" lon="0.6857953"><ele>189.0</ele><time>2026-05-04T14:09:10.53Z</time></trkpt><trkpt lat="41.6026424" lon="0.6859962"><ele>187.66666666666666</ele><time>2026-05-04T14:09:11.544Z</time></trkpt><trkpt lat="41.6025683" lon="0.6861996"><ele>186.33333333333331</ele><time>2026-05-04T14:09:12.532Z</time></trkpt><trkpt lat="41.6024929" lon="0.6864024"><ele>185.0</ele><time>2026-05-04T14:09:13.536Z</time></trkpt><trkpt lat="41.6024192" lon="0.686612"><ele>185.0</ele><time>2026-05-04T14:09:14.535Z</time></trkpt><trkpt lat="41.6023439" lon="0.6868195"><ele>185.0</ele><time>2026-05-04T14:09:15.533Z</time></trkpt><trkpt lat="41.602265" lon="0.6870256"><ele>185.0</ele><time>2026-05-04T14:09:16.541Z</time></trkpt><trkpt lat="41.6021864" lon="0.6872328"><ele>184.33333333333331</ele><time>2026-05-04T14:09:17.545Z</time></trkpt><trkpt lat="41.6021134" lon="0.6874351"><ele>183.66666666666666</ele><time>2026-05-04T14:09:18.537Z</time></trkpt><trkpt lat="41.6020387" lon="0.6876419"><ele>183.0</ele><time>2026-05-04T14:09:19.538Z</time></trkpt><trkpt lat="41.6019525" lon="0.6878563"><ele>181.33333333333334</ele><time>2026-05-04T14:09:20.538Z</time></trkpt><trkpt lat="41.601877" lon="0.6880724"><ele>179.66666666666669</ele><time>2026-05-04T14:09:21.537Z</time></trkpt><trkpt lat="41.6017969" lon="0.6882969"><ele>178.0</ele><time>2026-05-04T14:09:22.537Z</time></trkpt><trkpt lat="41.6017265" lon="0.6885154"><ele>178.33333333333334</ele><time>2026-05-04T14:09:23.537Z</time></trkpt><trkpt lat="41.601656" lon="0.6887302"><ele>178.66666666666666</ele><time>2026-05-04T14:09:24.536Z</time></trkpt><trkpt lat="41.6015814" lon="0.6889395"><ele>179.0</ele><time>2026-05-04T14:09:25.537Z</time></trkpt><trkpt lat="41.6014994" lon="0.6891485"><ele>179.0</ele><time>2026-05-04T14:09:26.535Z</time></trkpt><trkpt lat="41.6014128" lon="0.6893604"><ele>179.0</ele><time>2026-05-04T14:09:27.54Z</time></trkpt><trkpt lat="41.6013314" lon="0.6895695"><ele>179.0</ele><time>2026-05-04T14:09:28.537Z</time></trkpt><trkpt lat="41.6012598" lon="0.689786"><ele>178.66666666666666</ele><time>2026-05-04T14:09:29.537Z</time></trkpt><trkpt lat="41.6011848" lon="0.6899921"><ele>178.33333333333334</ele><time>2026-05-04T14:09:30.537Z</time></trkpt><trkpt lat="41.6011006" lon="0.6902099"><ele>178.0</ele><time>2026-05-04T14:09:31.539Z</time></trkpt><trkpt lat="41.6010165" lon="0.6904284"><ele>178.0</ele><time>2026-05-04T14:09:32.538Z</time></trkpt><trkpt lat="41.6009313" lon="0.6906432"><ele>178.0</ele><time>2026-05-04T14:09:33.54Z</time></trkpt><trkpt lat="41.6008452" lon="0.6908728"><ele>178.0</ele><time>2026-05-04T14:09:34.539Z</time></trkpt><trkpt lat="41.6007662" lon="0.6910912"><ele>177.66666666666669</ele><time>2026-05-04T14:09:35.541Z</time></trkpt><trkpt lat="41.6006881" lon="0.6913073"><ele>177.33333333333334</ele><time>2026-05-04T14:09:36.542Z</time></trkpt><trkpt lat="41.6006121" lon="0.6915211"><ele>177.0</ele><time>2026-05-04T14:09:37.543Z</time></trkpt><trkpt lat="41.6005338" lon="0.6917313"><ele>177.0</ele><time>2026-05-04T14:09:38.537Z</time></trkpt><trkpt lat="41.6004614" lon="0.691939"><ele>177.0</ele><time>2026-05-04T14:09:39.533Z</time></trkpt><trkpt lat="41.6003943" lon="0.6921516"><ele>177.0</ele><time>2026-05-04T14:09:40.529Z</time></trkpt><trkpt lat="41.6003252" lon="0.6923431"><ele>176.66666666666666</ele><time>2026-05-04T14:09:41.534Z</time></trkpt><trkpt lat="41.6002564" lon="0.6925327"><ele>176.33333333333331</ele><time>2026-05-04T14:09:42.548Z</time></trkpt><trkpt lat="41.6001819" lon="0.692732"><ele>176.0</ele><time>2026-05-04T14:09:43.541Z</time></trkpt><trkpt lat="41.6001022" lon="0.6929242"><ele>176.0</ele><time>2026-05-04T14:09:44.536Z</time></trkpt><trkpt lat="41.6000283" lon="0.6931228"><ele>176.0</ele><time>2026-05-04T14:09:45.536Z</time></trkpt><trkpt lat="41.5999508" lon="0.6933235"><ele>176.0</ele><time>2026-05-04T14:09:46.539Z</time></trkpt><trkpt lat="41.5998772" lon="0.6935176"><ele>176.66666666666666</ele><time>2026-05-04T14:09:47.539Z</time></trkpt><trkpt lat="41.599808" lon="0.6937113"><ele>177.33333333333334</ele><time>2026-05-04T14:09:48.541Z</time></trkpt><trkpt lat="41.5997403" lon="0.6938878"><ele>178.0</ele><time>2026-05-04T14:09:49.542Z</time></trkpt><trkpt lat="41.5996771" lon="0.6940585"><ele>178.0</ele><time>2026-05-04T14:09:50.54Z</time></trkpt><trkpt lat="41.5996122" lon="0.6942221"><ele>178.0</ele><time>2026-05-04T14:09:51.543Z</time></trkpt><trkpt lat="41.5995456" lon="0.6943865"><ele>178.0</ele><time>2026-05-04T14:09:52.537Z</time></trkpt><trkpt lat="41.599483" lon="0.6945682"><ele>178.0</ele><time>2026-05-04T14:09:53.542Z</time></trkpt><trkpt lat="41.5994258" lon="0.6947389"><ele>178.0</ele><time>2026-05-04T14:09:54.542Z</time></trkpt><trkpt lat="41.5993673" lon="0.6949044"><ele>178.0</ele><time>2026-05-04T14:09:55.544Z</time></trkpt><trkpt lat="41.5993127" lon="0.6950646"><ele>178.0</ele><time>2026-05-04T14:09:56.54Z</time></trkpt><trkpt lat="41.5992543" lon="0.6952247"><ele>178.0</ele><time>2026-05-04T14:09:57.541Z</time></trkpt><trkpt lat="41.5991941" lon="0.695385"><ele>177.75</ele><time>2026-05-04T14:09:58.538Z</time></trkpt><trkpt lat="41.5991328" lon="0.6955467"><ele>177.5</ele><time>2026-05-04T14:09:59.545Z</time></trkpt><trkpt lat="41.5990673" lon="0.6957108"><ele>177.25</ele><time>2026-05-04T14:10:00.534Z</time></trkpt><trkpt lat="41.5990079" lon="0.6958775"><ele>177.0</ele><time>2026-05-04T14:10:01.543Z</time></trkpt><trkpt lat="41.5989584" lon="0.696038"><ele>177.5</ele><time>2026-05-04T14:10:02.535Z</time></trkpt><trkpt lat="41.5989" lon="0.6962017"><ele>178.0</ele><time>2026-05-04T14:10:03.54Z</time></trkpt><trkpt lat="41.5988413" lon="0.6963751"><ele>178.5</ele><time>2026-05-04T14:10:04.539Z</time></trkpt><trkpt lat="41.5987794" lon="0.6965337"><ele>179.0</ele><time>2026-05-04T14:10:05.541Z</time></trkpt><trkpt lat="41.598721" lon="0.6967009"><ele>179.0</ele><time>2026-05-04T14:10:06.543Z</time></trkpt><trkpt lat="41.5986615" lon="0.6968706"><ele>179.0</ele><time>2026-05-04T14:10:07.542Z</time></trkpt><trkpt lat="41.5985988" lon="0.6970291"><ele>179.0</ele><time>2026-05-04T14:10:08.539Z</time></trkpt><trkpt lat="41.5985388" lon="0.6971927"><ele>179.0</ele><time>2026-05-04T14:10:09.54Z</time></trkpt><trkpt lat="41.5984747" lon="0.6973674"><ele>179.0</ele><time>2026-05-04T14:10:10.539Z</time></trkpt><trkpt lat="41.5984165" lon="0.6975291"><ele>179.0</ele><time>2026-05-04T14:10:11.537Z</time></trkpt><trkpt lat="41.598355" lon="0.6976925"><ele>179.0</ele><time>2026-05-04T14:10:12.532Z</time></trkpt><trkpt lat="41.5982942" lon="0.6978656"><ele>179.0</ele><time>2026-05-04T14:10:13.551Z</time></trkpt><trkpt lat="41.5982305" lon="0.6980409"><ele>179.0</ele><time>2026-05-04T14:10:14.536Z</time></trkpt><trkpt lat="41.5981707" lon="0.6982014"><ele>179.0</ele><time>2026-05-04T14:10:15.539Z</time></trkpt><trkpt lat="41.5981051" lon="0.6983568"><ele>179.0</ele><time>2026-05-04T14:10:16.538Z</time></trkpt><trkpt lat="41.5980495" lon="0.6985105"><ele>179.0</ele><time>2026-05-04T14:10:17.539Z</time></trkpt><trkpt lat="41.5979977" lon="0.6986658"><ele>179.5</ele><time>2026-05-04T14:10:18.542Z</time></trkpt><trkpt lat="41.5979373" lon="0.6988185"><ele>180.0</ele><time>2026-05-04T14:10:19.543Z</time></trkpt><trkpt lat="41.5978717" lon="0.6989791"><ele>180.5</ele><time>2026-05-04T14:10:20.539Z</time></trkpt><trkpt lat="41.5978125" lon="0.6991339"><ele>181.0</ele><time>2026-05-04T14:10:21.542Z</time></trkpt><trkpt lat="41.5977609" lon="0.6993013"><ele>180.75</ele><time>2026-05-04T14:10:22.544Z</time></trkpt><trkpt lat="41.5977052" lon="0.6994582"><ele>180.5</ele><time>2026-05-04T14:10:23.537Z</time></trkpt><trkpt lat="41.5976437" lon="0.6996142"><ele>180.25</ele><time>2026-05-04T14:10:24.54Z</time></trkpt><trkpt lat="41.5975863" lon="0.6997617"><ele>180.0</ele><time>2026-05-04T14:10:25.542Z</time></trkpt><trkpt lat="41.5975279" lon="0.6999119"><ele>180.0</ele><time>2026-05-04T14:10:26.54Z</time></trkpt><trkpt lat="41.597474" lon="0.7000607"><ele>180.0</ele><time>2026-05-04T14:10:27.537Z</time></trkpt><trkpt lat="41.5974197" lon="0.70021"><ele>180.0</ele><time>2026-05-04T14:10:28.546Z</time></trkpt><trkpt lat="41.5973659" lon="0.7003603"><ele>180.0</ele><time>2026-05-04T14:10:29.54Z</time></trkpt><trkpt lat="41.5973084" lon="0.70051"><ele>180.25</ele><time>2026-05-04T14:10:30.54Z</time></trkpt><trkpt lat="41.5972523" lon="0.7006583"><ele>180.5</ele><time>2026-05-04T14:10:31.539Z</time></trkpt><trkpt lat="41.5971983" lon="0.7008084"><ele>180.75</ele><time>2026-05-04T14:10:32.542Z</time></trkpt><trkpt lat="41.5971405" lon="0.7009633"><ele>181.0</ele><time>2026-05-04T14:10:33.541Z</time></trkpt><trkpt lat="41.5970801" lon="0.7011241"><ele>181.25</ele><time>2026-05-04T14:10:34.54Z</time></trkpt><trkpt lat="41.5970224" lon="0.7012887"><ele>181.5</ele><time>2026-05-04T14:10:35.537Z</time></trkpt><trkpt lat="41.5969625" lon="0.7014546"><ele>181.75</ele><time>2026-05-04T14:10:36.541Z</time></trkpt><trkpt lat="41.5969049" lon="0.7016153"><ele>182.0</ele><time>2026-05-04T14:10:37.544Z</time></trkpt><trkpt lat="41.5968443" lon="0.7017776"><ele>182.5</ele><time>2026-05-04T14:10:38.539Z</time></trkpt><trkpt lat="41.5967855" lon="0.7019464"><ele>183.0</ele><time>2026-05-04T14:10:39.536Z</time></trkpt><trkpt lat="41.5967187" lon="0.7021104"><ele>183.5</ele><time>2026-05-04T14:10:40.538Z</time></trkpt><trkpt lat="41.5966562" lon="0.7022757"><ele>184.0</ele><time>2026-05-04T14:10:41.541Z</time></trkpt><trkpt lat="41.5965984" lon="0.7024412"><ele>184.0</ele><time>2026-05-04T14:10:42.54Z</time></trkpt><trkpt lat="41.5965378" lon="0.7026124"><ele>184.0</ele><time>2026-05-04T14:10:43.543Z</time></trkpt><trkpt lat="41.5964797" lon="0.7027783"><ele>184.0</ele><time>2026-05-04T14:10:44.555Z</time></trkpt><trkpt lat="41.5964188" lon="0.7029437"><ele>184.0</ele><time>2026-05-04T14:10:45.541Z</time></trkpt><trkpt lat="41.596357" lon="0.7030947"><ele>184.5</ele><time>2026-05-04T14:10:46.537Z</time></trkpt><trkpt lat="41.5962998" lon="0.7032555"><ele>185.0</ele><time>2026-05-04T14:10:47.54Z</time></trkpt><trkpt lat="41.596249" lon="0.7034143"><ele>185.5</ele><time>2026-05-04T14:10:48.543Z</time></trkpt><trkpt lat="41.5961967" lon="0.7035654"><ele>186.0</ele><time>2026-05-04T14:10:49.541Z</time></trkpt><trkpt lat="41.5961396" lon="0.7037236"><ele>186.25</ele><time>2026-05-04T14:10:50.538Z</time></trkpt><trkpt lat="41.5960802" lon="0.7038899"><ele>186.5</ele><time>2026-05-04T14:10:51.538Z</time></trkpt><trkpt lat="41.5960211" lon="0.7040496"><ele>186.75</ele><time>2026-05-04T14:10:52.543Z</time></trkpt><trkpt lat="41.5959626" lon="0.7042075"><ele>187.0</ele><time>2026-05-04T14:10:53.543Z</time></trkpt><trkpt lat="41.5959064" lon="0.7043646"><ele>186.75</ele><time>2026-05-04T14:10:54.543Z</time></trkpt><trkpt lat="41.5958469" lon="0.7045243"><ele>186.5</ele><time>2026-05-04T14:10:55.538Z</time></trkpt><trkpt lat="41.5957862" lon="0.7046879"><ele>186.25</ele><time>2026-05-04T14:10:56.54Z</time></trkpt><trkpt lat="41.5957305" lon="0.7048493"><ele>186.0</ele><time>2026-05-04T14:10:57.541Z</time></trkpt><trkpt lat="41.5956713" lon="0.7050159"><ele>186.0</ele><time>2026-05-04T14:10:58.541Z</time></trkpt><trkpt lat="41.5956059" lon="0.7051846"><ele>186.0</ele><time>2026-05-04T14:10:59.543Z</time></trkpt><trkpt lat="41.5955453" lon="0.7053425"><ele>186.0</ele><time>2026-05-04T14:11:00.541Z</time></trkpt><trkpt lat="41.5954925" lon="0.7055004"><ele>186.0</ele><time>2026-05-04T14:11:01.533Z</time></trkpt><trkpt lat="41.5954247" lon="0.7056774"><ele>186.25</ele><time>2026-05-04T14:11:02.535Z</time></trkpt><trkpt lat="41.5953566" lon="0.7058542"><ele>186.5</ele><time>2026-05-04T14:11:03.536Z</time></trkpt><trkpt lat="41.5952886" lon="0.7060337"><ele>186.75</ele><time>2026-05-04T14:11:04.534Z</time></trkpt><trkpt lat="41.595224" lon="0.7062046"><ele>187.0</ele><time>2026-05-04T14:11:05.537Z</time></trkpt><trkpt lat="41.5951587" lon="0.706377"><ele>187.25</ele><time>2026-05-04T14:11:06.533Z</time></trkpt><trkpt lat="41.5950958" lon="0.7065457"><ele>187.5</ele><time>2026-05-04T14:11:07.543Z</time></trkpt><trkpt lat="41.595031" lon="0.7067072"><ele>187.75</ele><time>2026-05-04T14:11:08.54Z</time></trkpt><trkpt lat="41.5949676" lon="0.7068771"><ele>188.0</ele><time>2026-05-04T14:11:09.54Z</time></trkpt><trkpt lat="41.5949093" lon="0.7070489"><ele>188.75</ele><time>2026-05-04T14:11:10.541Z</time></trkpt><trkpt lat="41.5948494" lon="0.7072072"><ele>189.5</ele><time>2026-05-04T14:11:11.538Z</time></trkpt><trkpt lat="41.5947923" lon="0.7073666"><ele>190.25</ele><time>2026-05-04T14:11:12.536Z</time></trkpt><trkpt lat="41.5947403" lon="0.707525"><ele>191.0</ele><time>2026-05-04T14:11:13.537Z</time></trkpt><trkpt lat="41.5946819" lon="0.7076769"><ele>191.0</ele><time>2026-05-04T14:11:14.53Z</time></trkpt><trkpt lat="41.594624" lon="0.7078339"><ele>191.0</ele><time>2026-05-04T14:11:15.55Z</time></trkpt><trkpt lat="41.5945673" lon="0.7079853"><ele>191.0</ele><time>2026-05-04T14:11:16.537Z</time></trkpt><trkpt lat="41.5945117" lon="0.7081345"><ele>191.0</ele><time>2026-05-04T14:11:17.539Z</time></trkpt><trkpt lat="41.5944564" lon="0.708282"><ele>191.0</ele><time>2026-05-04T14:11:18.542Z</time></trkpt><trkpt lat="41.5944007" lon="0.7084373"><ele>191.0</ele><time>2026-05-04T14:11:19.536Z</time></trkpt><trkpt lat="41.5943418" lon="0.7085952"><ele>191.0</ele><time>2026-05-04T14:11:20.539Z</time></trkpt><trkpt lat="41.5942857" lon="0.7087452"><ele>191.0</ele><time>2026-05-04T14:11:21.537Z</time></trkpt><trkpt lat="41.594227" lon="0.7088889"><ele>191.0</ele><time>2026-05-04T14:11:22.541Z</time></trkpt><trkpt lat="41.5941694" lon="0.7090392"><ele>191.0</ele><time>2026-05-04T14:11:23.538Z</time></trkpt><trkpt lat="41.5941111" lon="0.7091893"><ele>191.0</ele><time>2026-05-04T14:11:24.538Z</time></trkpt><trkpt lat="41.5940558" lon="0.7093396"><ele>191.0</ele><time>2026-05-04T14:11:25.541Z</time></trkpt><trkpt lat="41.5939944" lon="0.709502"><ele>191.75</ele><time>2026-05-04T14:11:26.539Z</time></trkpt><trkpt lat="41.593936" lon="0.7096569"><ele>192.5</ele><time>2026-05-04T14:11:27.534Z</time></trkpt><trkpt lat="41.593878" lon="0.7098149"><ele>193.25</ele><time>2026-05-04T14:11:28.537Z</time></trkpt><trkpt lat="41.5938217" lon="0.7099733"><ele>194.0</ele><time>2026-05-04T14:11:29.536Z</time></trkpt><trkpt lat="41.5937639" lon="0.7101283"><ele>194.5</ele><time>2026-05-04T14:11:30.539Z</time></trkpt><trkpt lat="41.5937104" lon="0.7102842"><ele>195.0</ele><time>2026-05-04T14:11:31.535Z</time></trkpt><trkpt lat="41.5936556" lon="0.7104388"><ele>195.5</ele><time>2026-05-04T14:11:32.539Z</time></trkpt><trkpt lat="41.5936032" lon="0.7105939"><ele>196.0</ele><time>2026-05-04T14:11:33.536Z</time></trkpt><trkpt lat="41.593547" lon="0.7107482"><ele>196.0</ele><time>2026-05-04T14:11:34.539Z</time></trkpt><trkpt lat="41.5934887" lon="0.7109015"><ele>196.0</ele><time>2026-05-04T14:11:35.534Z</time></trkpt><trkpt lat="41.5934334" lon="0.7110578"><ele>196.0</ele><time>2026-05-04T14:11:36.53Z</time></trkpt><trkpt lat="41.5933787" lon="0.7112123"><ele>196.0</ele><time>2026-05-04T14:11:37.531Z</time></trkpt><trkpt lat="41.5933239" lon="0.7113689"><ele>196.75</ele><time>2026-05-04T14:11:38.536Z</time></trkpt><trkpt lat="41.5932654" lon="0.7115256"><ele>197.5</ele><time>2026-05-04T14:11:39.536Z</time></trkpt><trkpt lat="41.5932051" lon="0.711683"><ele>198.25</ele><time>2026-05-04T14:11:40.534Z</time></trkpt><trkpt lat="41.5931446" lon="0.7118429"><ele>199.0</ele><time>2026-05-04T14:11:41.538Z</time></trkpt><trkpt lat="41.5930796" lon="0.7120058"><ele>199.25</ele><time>2026-05-04T14:11:42.538Z</time></trkpt><trkpt lat="41.5930165" lon="0.7121726"><ele>199.5</ele><time>2026-05-04T14:11:43.54Z</time></trkpt><trkpt lat="41.5929534" lon="0.7123423"><ele>199.75</ele><time>2026-05-04T14:11:44.538Z</time></trkpt><trkpt lat="41.5928966" lon="0.7125097"><ele>200.0</ele><time>2026-05-04T14:11:45.534Z</time></trkpt><trkpt lat="41.5928377" lon="0.7126795"><ele>200.75</ele><time>2026-05-04T14:11:46.557Z</time></trkpt><trkpt lat="41.5927851" lon="0.7128402"><ele>201.5</ele><time>2026-05-04T14:11:47.534Z</time></trkpt><trkpt lat="41.592719" lon="0.7130195"><ele>202.25</ele><time>2026-05-04T14:11:48.543Z</time></trkpt><trkpt lat="41.5926533" lon="0.7131931"><ele>203.0</ele><time>2026-05-04T14:11:49.54Z</time></trkpt><trkpt lat="41.5925927" lon="0.713355"><ele>203.0</ele><time>2026-05-04T14:11:50.539Z</time></trkpt><trkpt lat="41.5925303" lon="0.7135225"><ele>203.0</ele><time>2026-05-04T14:11:51.537Z</time></trkpt><trkpt lat="41.592465" lon="0.7136852"><ele>203.0</ele><time>2026-05-04T14:11:52.532Z</time></trkpt><trkpt lat="41.5924032" lon="0.7138401"><ele>203.0</ele><time>2026-05-04T14:11:53.534Z</time></trkpt><trkpt lat="41.592345" lon="0.714"><ele>203.0</ele><time>2026-05-04T14:11:54.542Z</time></trkpt><trkpt lat="41.5922904" lon="0.7141545"><ele>203.0</ele><time>2026-05-04T14:11:55.537Z</time></trkpt><trkpt lat="41.5922302" lon="0.7143096"><ele>203.0</ele><time>2026-05-04T14:11:56.537Z</time></trkpt><trkpt lat="41.5921689" lon="0.7144651"><ele>203.0</ele><time>2026-05-04T14:11:57.534Z</time></trkpt><trkpt lat="41.5921131" lon="0.7146153"><ele>203.75</ele><time>2026-05-04T14:11:58.537Z</time></trkpt><trkpt lat="41.5920579" lon="0.7147734"><ele>204.5</ele><time>2026-05-04T14:11:59.538Z</time></trkpt><trkpt lat="41.5919969" lon="0.7149264"><ele>205.25</ele><time>2026-05-04T14:12:00.534Z</time></trkpt><trkpt lat="41.5919374" lon="0.7150827"><ele>206.0</ele><time>2026-05-04T14:12:01.535Z</time></trkpt><trkpt lat="41.5918756" lon="0.7152432"><ele>207.0</ele><time>2026-05-04T14:12:02.537Z</time></trkpt><trkpt lat="41.5918143" lon="0.7154062"><ele>208.0</ele><time>2026-05-04T14:12:03.536Z</time></trkpt><trkpt lat="41.591749" lon="0.7155725"><ele>209.0</ele><time>2026-05-04T14:12:04.538Z</time></trkpt><trkpt lat="41.5916946" lon="0.715731"><ele>210.0</ele><time>2026-05-04T14:12:05.533Z</time></trkpt><trkpt lat="41.5916367" lon="0.7158885"><ele>210.0</ele><time>2026-05-04T14:12:06.54Z</time></trkpt><trkpt lat="41.5915841" lon="0.7160457"><ele>210.0</ele><time>2026-05-04T14:12:07.539Z</time></trkpt><trkpt lat="41.5915309" lon="0.7162078"><ele>210.0</ele><time>2026-05-04T14:12:08.537Z</time></trkpt><trkpt lat="41.5914803" lon="0.7163689"><ele>210.0</ele><time>2026-05-04T14:12:09.535Z</time></trkpt><trkpt lat="41.5914223" lon="0.7165329"><ele>210.5</ele><time>2026-05-04T14:12:10.534Z</time></trkpt><trkpt lat="41.5913664" lon="0.7166987"><ele>211.0</ele><time>2026-05-04T14:12:11.539Z</time></trkpt><trkpt lat="41.5913055" lon="0.7168558"><ele>211.5</ele><time>2026-05-04T14:12:12.539Z</time></trkpt><trkpt lat="41.5912487" lon="0.7170198"><ele>212.0</ele><time>2026-05-04T14:12:13.543Z</time></trkpt><trkpt lat="41.5911937" lon="0.7171732"><ele>212.25</ele><time>2026-05-04T14:12:14.543Z</time></trkpt><trkpt lat="41.5911398" lon="0.7173301"><ele>212.5</ele><time>2026-05-04T14:12:15.541Z</time></trkpt><trkpt lat="41.59108" lon="0.7174867"><ele>212.75</ele><time>2026-05-04T14:12:16.543Z</time></trkpt><trkpt lat="41.591021" lon="0.717645"><ele>213.0</ele><time>2026-05-04T14:12:17.556Z</time></trkpt><trkpt lat="41.5909623" lon="0.7178017"><ele>214.0</ele><time>2026-05-04T14:12:18.544Z</time></trkpt><trkpt lat="41.5909002" lon="0.7179613"><ele>215.0</ele><time>2026-05-04T14:12:19.543Z</time></trkpt><trkpt lat="41.5908401" lon="0.7181197"><ele>216.0</ele><time>2026-05-04T14:12:20.544Z</time></trkpt><trkpt lat="41.5907759" lon="0.7182772"><ele>217.0</ele><time>2026-05-04T14:12:21.541Z</time></trkpt><trkpt lat="41.5907132" lon="0.7184364"><ele>217.25</ele><time>2026-05-04T14:12:22.54Z</time></trkpt><trkpt lat="41.5906533" lon="0.7185984"><ele>217.5</ele><time>2026-05-04T14:12:23.54Z</time></trkpt><trkpt lat="41.5905945" lon="0.7187627"><ele>217.75</ele><time>2026-05-04T14:12:24.539Z</time></trkpt><trkpt lat="41.5905358" lon="0.7189219"><ele>218.0</ele><time>2026-05-04T14:12:25.541Z</time></trkpt><trkpt lat="41.5904771" lon="0.7190786"><ele>218.0</ele><time>2026-05-04T14:12:26.537Z</time></trkpt><trkpt lat="41.5904145" lon="0.7192367"><ele>218.0</ele><time>2026-05-04T14:12:27.537Z</time></trkpt><trkpt lat="41.590354" lon="0.7193956"><ele>218.0</ele><time>2026-05-04T14:12:28.534Z</time></trkpt><trkpt lat="41.5902968" lon="0.7195472"><ele>218.0</ele><time>2026-05-04T14:12:29.533Z</time></trkpt><trkpt lat="41.5902363" lon="0.7197006"><ele>219.5</ele><time>2026-05-04T14:12:30.533Z</time></trkpt><trkpt lat="41.5901785" lon="0.7198542"><ele>221.0</ele><time>2026-05-04T14:12:31.534Z</time></trkpt><trkpt lat="41.590121" lon="0.7200082"><ele>222.5</ele><time>2026-05-04T14:12:32.532Z</time></trkpt><trkpt lat="41.5900639" lon="0.7201591"><ele>224.0</ele><time>2026-05-04T14:12:33.543Z</time></trkpt><trkpt lat="41.5900071" lon="0.7203088"><ele>224.5</ele><time>2026-05-04T14:12:34.542Z</time></trkpt><trkpt lat="41.5899511" lon="0.7204597"><ele>225.0</ele><time>2026-05-04T14:12:35.542Z</time></trkpt><trkpt lat="41.5898951" lon="0.7206112"><ele>225.5</ele><time>2026-05-04T14:12:36.542Z</time></trkpt><trkpt lat="41.5898379" lon="0.7207619"><ele>226.0</ele><time>2026-05-04T14:12:37.545Z</time></trkpt><trkpt lat="41.5897786" lon="0.7209154"><ele>227.5</ele><time>2026-05-04T14:12:38.547Z</time></trkpt><trkpt lat="41.589721" lon="0.7210733"><ele>229.0</ele><time>2026-05-04T14:12:39.546Z</time></trkpt><trkpt lat="41.5896612" lon="0.7212288"><ele>230.5</ele><time>2026-05-04T14:12:40.545Z</time></trkpt><trkpt lat="41.5896012" lon="0.7213788"><ele>232.0</ele><time>2026-05-04T14:12:41.55Z</time></trkpt><trkpt lat="41.5895423" lon="0.7215318"><ele>231.75</ele><time>2026-05-04T14:12:42.544Z</time></trkpt><trkpt lat="41.5894809" lon="0.7216857"><ele>231.5</ele><time>2026-05-04T14:12:43.547Z</time></trkpt><trkpt lat="41.5894171" lon="0.7218351"><ele>231.25</ele><time>2026-05-04T14:12:44.545Z</time></trkpt><trkpt lat="41.5893552" lon="0.7219898"><ele>231.0</ele><time>2026-05-04T14:12:45.546Z</time></trkpt><trkpt lat="41.5892941" lon="0.7221388"><ele>232.0</ele><time>2026-05-04T14:12:46.546Z</time></trkpt><trkpt lat="41.5892313" lon="0.722291"><ele>233.0</ele><time>2026-05-04T14:12:47.547Z</time></trkpt><trkpt lat="41.5891644" lon="0.722441"><ele>234.0</ele><time>2026-05-04T14:12:48.564Z</time></trkpt><trkpt lat="41.5890989" lon="0.7225928"><ele>235.0</ele><time>2026-05-04T14:12:49.55Z</time></trkpt><trkpt lat="41.589029" lon="0.7227463"><ele>235.25</ele><time>2026-05-04T14:12:50.548Z</time></trkpt><trkpt lat="41.588962" lon="0.7228968"><ele>235.5</ele><time>2026-05-04T14:12:51.547Z</time></trkpt><trkpt lat="41.588895" lon="0.7230466"><ele>235.75</ele><time>2026-05-04T14:12:52.545Z</time></trkpt><trkpt lat="41.5888286" lon="0.723193"><ele>236.0</ele><time>2026-05-04T14:12:53.549Z</time></trkpt><trkpt lat="41.5887611" lon="0.7233378"><ele>236.0</ele><time>2026-05-04T14:12:54.546Z</time></trkpt><trkpt lat="41.5887004" lon="0.7234873"><ele>236.0</ele><time>2026-05-04T14:12:55.551Z</time></trkpt><trkpt lat="41.5886395" lon="0.7236366"><ele>236.0</ele><time>2026-05-04T14:12:56.538Z</time></trkpt><trkpt lat="41.5885762" lon="0.7237908"><ele>236.0</ele><time>2026-05-04T14:12:57.544Z</time></trkpt><trkpt lat="41.5885202" lon="0.7239399"><ele>236.0</ele><time>2026-05-04T14:12:58.537Z</time></trkpt><trkpt lat="41.5884631" lon="0.7240905"><ele>236.0</ele><time>2026-05-04T14:12:59.542Z</time></trkpt><trkpt lat="41.5884038" lon="0.7242323"><ele>236.0</ele><time>2026-05-04T14:13:00.546Z</time></trkpt><trkpt lat="41.5883436" lon="0.7243712"><ele>236.0</ele><time>2026-05-04T14:13:01.544Z</time></trkpt><trkpt lat="41.5882811" lon="0.7245118"><ele>236.25</ele><time>2026-05-04T14:13:02.542Z</time></trkpt><trkpt lat="41.588218" lon="0.7246532"><ele>236.5</ele><time>2026-05-04T14:13:03.541Z</time></trkpt><trkpt lat="41.5881497" lon="0.7247985"><ele>236.75</ele><time>2026-05-04T14:13:04.547Z</time></trkpt><trkpt lat="41.5880879" lon="0.7249424"><ele>237.0</ele><time>2026-05-04T14:13:05.547Z</time></trkpt><trkpt lat="41.5880335" lon="0.7250892"><ele>237.0</ele><time>2026-05-04T14:13:06.54Z</time></trkpt><trkpt lat="41.5879682" lon="0.725245"><ele>237.0</ele><time>2026-05-04T14:13:07.546Z</time></trkpt><trkpt lat="41.5878983" lon="0.7254013"><ele>237.0</ele><time>2026-05-04T14:13:08.543Z</time></trkpt><trkpt lat="41.5878317" lon="0.7255564"><ele>237.0</ele><time>2026-05-04T14:13:09.54Z</time></trkpt><trkpt lat="41.5877613" lon="0.7257074"><ele>237.0</ele><time>2026-05-04T14:13:10.534Z</time></trkpt><trkpt lat="41.5876917" lon="0.7258606"><ele>237.0</ele><time>2026-05-04T14:13:11.543Z</time></trkpt><trkpt lat="41.5876179" lon="0.7260228"><ele>237.0</ele><time>2026-05-04T14:13:12.544Z</time></trkpt><trkpt lat="41.5875568" lon="0.7261665"><ele>237.0</ele><time>2026-05-04T14:13:13.548Z</time></trkpt><trkpt lat="41.58749" lon="0.7263058"><ele>236.8</ele><time>2026-05-04T14:13:14.541Z</time></trkpt><trkpt lat="41.5874347" lon="0.7264301"><ele>236.6</ele><time>2026-05-04T14:13:15.546Z</time></trkpt><trkpt lat="41.5873796" lon="0.7265383"><ele>236.40000000000003</ele><time>2026-05-04T14:13:16.542Z</time></trkpt><trkpt lat="41.5873236" lon="0.7266496"><ele>236.20000000000002</ele><time>2026-05-04T14:13:17.547Z</time></trkpt><trkpt lat="41.5872738" lon="0.7267535"><ele>236.0</ele><time>2026-05-04T14:13:18.548Z</time></trkpt><trkpt lat="41.5872214" lon="0.7268635"><ele>236.0</ele><time>2026-05-04T14:13:19.581Z</time></trkpt><trkpt lat="41.5871645" lon="0.7269742"><ele>236.00000000000003</ele><time>2026-05-04T14:13:20.547Z</time></trkpt><trkpt lat="41.5871047" lon="0.7270981"><ele>236.00000000000003</ele><time>2026-05-04T14:13:21.546Z</time></trkpt><trkpt lat="41.587044" lon="0.7272262"><ele>236.0</ele><time>2026-05-04T14:13:22.546Z</time></trkpt><trkpt lat="41.5869876" lon="0.7273525"><ele>236.0</ele><time>2026-05-04T14:13:23.549Z</time></trkpt><trkpt lat="41.5869291" lon="0.727482"><ele>236.5</ele><time>2026-05-04T14:13:24.545Z</time></trkpt><trkpt lat="41.5868674" lon="0.7276084"><ele>237.0</ele><time>2026-05-04T14:13:25.55Z</time></trkpt><trkpt lat="41.5868045" lon="0.7277382"><ele>237.5</ele><time>2026-05-04T14:13:26.543Z</time></trkpt><trkpt lat="41.586746" lon="0.7278705"><ele>238.0</ele><time>2026-05-04T14:13:27.545Z</time></trkpt><trkpt lat="41.5866832" lon="0.7280108"><ele>238.0</ele><time>2026-05-04T14:13:28.543Z</time></trkpt><trkpt lat="41.5866229" lon="0.7281492"><ele>238.0</ele><time>2026-05-04T14:13:29.543Z</time></trkpt><trkpt lat="41.5865593" lon="0.7282978"><ele>238.0</ele><time>2026-05-04T14:13:30.548Z</time></trkpt><trkpt lat="41.5864949" lon="0.72845"><ele>238.0</ele><time>2026-05-04T14:13:31.548Z</time></trkpt><trkpt lat="41.5864303" lon="0.7286039"><ele>238.25</ele><time>2026-05-04T14:13:32.545Z</time></trkpt><trkpt lat="41.5863653" lon="0.7287596"><ele>238.5</ele><time>2026-05-04T14:13:33.542Z</time></trkpt><trkpt lat="41.5862996" lon="0.7289232"><ele>238.75</ele><time>2026-05-04T14:13:34.545Z</time></trkpt><trkpt lat="41.5862333" lon="0.7290993"><ele>239.0</ele><time>2026-05-04T14:13:35.545Z</time></trkpt><trkpt lat="41.5861706" lon="0.7292738"><ele>239.0</ele><time>2026-05-04T14:13:36.547Z</time></trkpt><trkpt lat="41.5861122" lon="0.7294355"><ele>239.0</ele><time>2026-05-04T14:13:37.548Z</time></trkpt><trkpt lat="41.586054" lon="0.7295938"><ele>239.0</ele><time>2026-05-04T14:13:38.547Z</time></trkpt><trkpt lat="41.586005" lon="0.7297524"><ele>239.0</ele><time>2026-05-04T14:13:39.546Z</time></trkpt><trkpt lat="41.5859569" lon="0.7299007"><ele>239.0</ele><time>2026-05-04T14:13:40.548Z</time></trkpt><trkpt lat="41.5859064" lon="0.7300537"><ele>239.0</ele><time>2026-05-04T14:13:41.547Z</time></trkpt><trkpt lat="41.5858553" lon="0.7302032"><ele>239.0</ele><time>2026-05-04T14:13:42.545Z</time></trkpt><trkpt lat="41.5857984" lon="0.7303583"><ele>239.0</ele><time>2026-05-04T14:13:43.547Z</time></trkpt><trkpt lat="41.5857413" lon="0.7305216"><ele>239.0</ele><time>2026-05-04T14:13:44.546Z</time></trkpt><trkpt lat="41.5856844" lon="0.7306917"><ele>239.0</ele><time>2026-05-04T14:13:45.547Z</time></trkpt><trkpt lat="41.5856295" lon="0.7308619"><ele>239.0</ele><time>2026-05-04T14:13:46.545Z</time></trkpt><trkpt lat="41.5855711" lon="0.7310325"><ele>239.0</ele><time>2026-05-04T14:13:47.544Z</time></trkpt><trkpt lat="41.5855118" lon="0.731196"><ele>239.0</ele><time>2026-05-04T14:13:48.549Z</time></trkpt><trkpt lat="41.5854525" lon="0.7313675"><ele>239.0</ele><time>2026-05-04T14:13:49.563Z</time></trkpt><trkpt lat="41.5853984" lon="0.7315281"><ele>239.0</ele><time>2026-05-04T14:13:50.541Z</time></trkpt><trkpt lat="41.5853574" lon="0.7316879"><ele>239.0</ele><time>2026-05-04T14:13:51.538Z</time></trkpt><trkpt lat="41.585301" lon="0.7318649"><ele>239.25</ele><time>2026-05-04T14:13:52.54Z</time></trkpt><trkpt lat="41.5852446" lon="0.7320384"><ele>239.5</ele><time>2026-05-04T14:13:53.543Z</time></trkpt><trkpt lat="41.5851883" lon="0.7322206"><ele>239.75</ele><time>2026-05-04T14:13:54.544Z</time></trkpt><trkpt lat="41.5851296" lon="0.7324019"><ele>240.0</ele><time>2026-05-04T14:13:55.55Z</time></trkpt><trkpt lat="41.5850723" lon="0.7325807"><ele>240.25</ele><time>2026-05-04T14:13:56.542Z</time></trkpt><trkpt lat="41.5850072" lon="0.7327599"><ele>240.5</ele><time>2026-05-04T14:13:57.545Z</time></trkpt><trkpt lat="41.5849452" lon="0.7329304"><ele>240.75</ele><time>2026-05-04T14:13:58.544Z</time></trkpt><trkpt lat="41.5848896" lon="0.7331004"><ele>241.0</ele><time>2026-05-04T14:13:59.547Z</time></trkpt><trkpt lat="41.5848292" lon="0.7332727"><ele>241.0</ele><time>2026-05-04T14:14:00.548Z</time></trkpt><trkpt lat="41.5847746" lon="0.7334303"><ele>241.0</ele><time>2026-05-04T14:14:01.548Z</time></trkpt><trkpt lat="41.5847195" lon="0.7335916"><ele>241.0</ele><time>2026-05-04T14:14:02.546Z</time></trkpt><trkpt lat="41.5846628" lon="0.7337515"><ele>241.0</ele><time>2026-05-04T14:14:03.548Z</time></trkpt><trkpt lat="41.5846032" lon="0.7339018"><ele>241.0</ele><time>2026-05-04T14:14:04.546Z</time></trkpt><trkpt lat="41.5845505" lon="0.7340601"><ele>241.0</ele><time>2026-05-04T14:14:05.547Z</time></trkpt><trkpt lat="41.5844949" lon="0.7342228"><ele>241.0</ele><time>2026-05-04T14:14:06.55Z</time></trkpt><trkpt lat="41.5844452" lon="0.73439"><ele>241.0</ele><time>2026-05-04T14:14:07.541Z</time></trkpt><trkpt lat="41.5843922" lon="0.7345454"><ele>241.25</ele><time>2026-05-04T14:14:08.548Z</time></trkpt><trkpt lat="41.58434" lon="0.734706"><ele>241.5</ele><time>2026-05-04T14:14:09.546Z</time></trkpt><trkpt lat="41.5842874" lon="0.7348672"><ele>241.75</ele><time>2026-05-04T14:14:10.539Z</time></trkpt><trkpt lat="41.5842361" lon="0.7350278"><ele>242.0</ele><time>2026-05-04T14:14:11.542Z</time></trkpt><trkpt lat="41.5841858" lon="0.7351902"><ele>242.0</ele><time>2026-05-04T14:14:12.544Z</time></trkpt><trkpt lat="41.5841318" lon="0.7353528"><ele>242.0</ele><time>2026-05-04T14:14:13.543Z</time></trkpt><trkpt lat="41.5840749" lon="0.7355216"><ele>242.0</ele><time>2026-05-04T14:14:14.544Z</time></trkpt><trkpt lat="41.5840113" lon="0.7356932"><ele>242.0</ele><time>2026-05-04T14:14:15.545Z</time></trkpt><trkpt lat="41.5839457" lon="0.7358608"><ele>242.0</ele><time>2026-05-04T14:14:16.541Z</time></trkpt><trkpt lat="41.5838878" lon="0.7360324"><ele>242.0</ele><time>2026-05-04T14:14:17.545Z</time></trkpt><trkpt lat="41.5838328" lon="0.7361956"><ele>242.0</ele><time>2026-05-04T14:14:18.539Z</time></trkpt><trkpt lat="41.5837777" lon="0.7363654"><ele>242.0</ele><time>2026-05-04T14:14:19.542Z</time></trkpt><trkpt lat="41.5837173" lon="0.7365256"><ele>242.0</ele><time>2026-05-04T14:14:20.557Z</time></trkpt><trkpt lat="41.5836634" lon="0.7367007"><ele>242.0</ele><time>2026-05-04T14:14:21.552Z</time></trkpt><trkpt lat="41.5836062" lon="0.7368725"><ele>242.0</ele><time>2026-05-04T14:14:22.546Z</time></trkpt><trkpt lat="41.5835501" lon="0.7370467"><ele>242.0</ele><time>2026-05-04T14:14:23.549Z</time></trkpt><trkpt lat="41.5834962" lon="0.7372174"><ele>242.0</ele><time>2026-05-04T14:14:24.546Z</time></trkpt><trkpt lat="41.5834389" lon="0.7373912"><ele>242.0</ele><time>2026-05-04T14:14:25.556Z</time></trkpt><trkpt lat="41.5833852" lon="0.7375644"><ele>242.0</ele><time>2026-05-04T14:14:26.541Z</time></trkpt><trkpt lat="41.5833222" lon="0.7377412"><ele>242.0</ele><time>2026-05-04T14:14:27.544Z</time></trkpt><trkpt lat="41.5832646" lon="0.7379185"><ele>242.25</ele><time>2026-05-04T14:14:28.548Z</time></trkpt><trkpt lat="41.5832059" lon="0.73809"><ele>242.5</ele><time>2026-05-04T14:14:29.549Z</time></trkpt><trkpt lat="41.5831494" lon="0.7382631"><ele>242.75</ele><time>2026-05-04T14:14:30.546Z</time></trkpt><trkpt lat="41.5830923" lon="0.7384288"><ele>243.0</ele><time>2026-05-04T14:14:31.549Z</time></trkpt><trkpt lat="41.583034" lon="0.7385829"><ele>243.0</ele><time>2026-05-04T14:14:32.547Z</time></trkpt><trkpt lat="41.5829858" lon="0.7387415"><ele>243.0</ele><time>2026-05-04T14:14:33.547Z</time></trkpt><trkpt lat="41.5829409" lon="0.7389019"><ele>243.0</ele><time>2026-05-04T14:14:34.547Z</time></trkpt><trkpt lat="41.5828918" lon="0.7390662"><ele>243.0</ele><time>2026-05-04T14:14:35.547Z</time></trkpt><trkpt lat="41.5828431" lon="0.7392412"><ele>243.0</ele><time>2026-05-04T14:14:36.549Z</time></trkpt><trkpt lat="41.5827928" lon="0.7394138"><ele>243.0</ele><time>2026-05-04T14:14:37.547Z</time></trkpt><trkpt lat="41.58274" lon="0.7395891"><ele>243.0</ele><time>2026-05-04T14:14:38.547Z</time></trkpt><trkpt lat="41.5826817" lon="0.7397617"><ele>243.0</ele><time>2026-05-04T14:14:39.546Z</time></trkpt><trkpt lat="41.5826214" lon="0.7399353"><ele>243.0</ele><time>2026-05-04T14:14:40.548Z</time></trkpt><trkpt lat="41.5825584" lon="0.7401096"><ele>243.0</ele><time>2026-05-04T14:14:41.546Z</time></trkpt><trkpt lat="41.5824977" lon="0.7402949"><ele>243.0</ele><time>2026-05-04T14:14:42.548Z</time></trkpt><trkpt lat="41.582439" lon="0.7404674"><ele>243.0</ele><time>2026-05-04T14:14:43.551Z</time></trkpt><trkpt lat="41.5823808" lon="0.7406496"><ele>243.0</ele><time>2026-05-04T14:14:44.551Z</time></trkpt><trkpt lat="41.5823175" lon="0.7408274"><ele>243.0</ele><time>2026-05-04T14:14:45.545Z</time></trkpt><trkpt lat="41.5822532" lon="0.7410009"><ele>243.0</ele><time>2026-05-04T14:14:46.55Z</time></trkpt><trkpt lat="41.5821887" lon="0.7411824"><ele>243.0</ele><time>2026-05-04T14:14:47.541Z</time></trkpt><trkpt lat="41.5821212" lon="0.7413514"><ele>243.0</ele><time>2026-05-04T14:14:48.542Z</time></trkpt><trkpt lat="41.5820675" lon="0.7415297"><ele>243.0</ele><time>2026-05-04T14:14:49.541Z</time></trkpt><trkpt lat="41.582004" lon="0.7417122"><ele>243.0</ele><time>2026-05-04T14:14:50.544Z</time></trkpt><trkpt lat="41.5819439" lon="0.7418825"><ele>243.0</ele><time>2026-05-04T14:14:51.558Z</time></trkpt><trkpt lat="41.5818861" lon="0.7420547"><ele>243.5</ele><time>2026-05-04T14:14:52.538Z</time></trkpt><trkpt lat="41.5818346" lon="0.7422277"><ele>244.0</ele><time>2026-05-04T14:14:53.541Z</time></trkpt><trkpt lat="41.5817888" lon="0.7423946"><ele>244.5</ele><time>2026-05-04T14:14:54.542Z</time></trkpt><trkpt lat="41.5817295" lon="0.7425508"><ele>245.0</ele><time>2026-05-04T14:14:55.539Z</time></trkpt><trkpt lat="41.5816719" lon="0.7427114"><ele>245.0</ele><time>2026-05-04T14:14:56.542Z</time></trkpt><trkpt lat="41.5816164" lon="0.7428784"><ele>245.0</ele><time>2026-05-04T14:14:57.545Z</time></trkpt><trkpt lat="41.5815638" lon="0.7430433"><ele>245.0</ele><time>2026-05-04T14:14:58.539Z</time></trkpt><trkpt lat="41.5815103" lon="0.7432033"><ele>245.0</ele><time>2026-05-04T14:14:59.543Z</time></trkpt><trkpt lat="41.5814555" lon="0.7433692"><ele>245.0</ele><time>2026-05-04T14:15:00.543Z</time></trkpt><trkpt lat="41.5813929" lon="0.7435355"><ele>245.0</ele><time>2026-05-04T14:15:01.539Z</time></trkpt><trkpt lat="41.5813362" lon="0.7436979"><ele>245.0</ele><time>2026-05-04T14:15:02.533Z</time></trkpt><trkpt lat="41.5812805" lon="0.7438646"><ele>245.0</ele><time>2026-05-04T14:15:03.542Z</time></trkpt><trkpt lat="41.5812249" lon="0.7440341"><ele>245.0</ele><time>2026-05-04T14:15:04.542Z</time></trkpt><trkpt lat="41.581172" lon="0.7442034"><ele>245.0</ele><time>2026-05-04T14:15:05.535Z</time></trkpt><trkpt lat="41.5811164" lon="0.7443708"><ele>245.0</ele><time>2026-05-04T14:15:06.543Z</time></trkpt><trkpt lat="41.5810748" lon="0.7445387"><ele>245.0</ele><time>2026-05-04T14:15:07.542Z</time></trkpt><trkpt lat="41.5810221" lon="0.7446972"><ele>245.25</ele><time>2026-05-04T14:15:08.546Z</time></trkpt><trkpt lat="41.580968" lon="0.744857"><ele>245.5</ele><time>2026-05-04T14:15:09.545Z</time></trkpt><trkpt lat="41.5809155" lon="0.7450181"><ele>245.75</ele><time>2026-05-04T14:15:10.545Z</time></trkpt><trkpt lat="41.5808568" lon="0.7451543"><ele>246.0</ele><time>2026-05-04T14:15:11.533Z</time></trkpt><trkpt lat="41.5808156" lon="0.7452876"><ele>246.0</ele><time>2026-05-04T14:15:12.536Z</time></trkpt><trkpt lat="41.5807622" lon="0.7454532"><ele>246.0</ele><time>2026-05-04T14:15:13.541Z</time></trkpt><trkpt lat="41.5806999" lon="0.745647"><ele>246.0</ele><time>2026-05-04T14:15:14.529Z</time></trkpt><trkpt lat="41.5806383" lon="0.7458329"><ele>246.0</ele><time>2026-05-04T14:15:15.536Z</time></trkpt><trkpt lat="41.5805795" lon="0.7460007"><ele>246.0</ele><time>2026-05-04T14:15:16.54Z</time></trkpt><trkpt lat="41.5805285" lon="0.7461716"><ele>246.0</ele><time>2026-05-04T14:15:17.54Z</time></trkpt><trkpt lat="41.5804742" lon="0.746341"><ele>246.0</ele><time>2026-05-04T14:15:18.543Z</time></trkpt><trkpt lat="41.580417" lon="0.7465062"><ele>246.0</ele><time>2026-05-04T14:15:19.544Z</time></trkpt><trkpt lat="41.5803541" lon="0.7466739"><ele>246.25</ele><time>2026-05-04T14:15:20.542Z</time></trkpt><trkpt lat="41.5803019" lon="0.7468432"><ele>246.5</ele><time>2026-05-04T14:15:21.54Z</time></trkpt><trkpt lat="41.5802491" lon="0.7470128"><ele>246.75</ele><time>2026-05-04T14:15:22.553Z</time></trkpt><trkpt lat="41.5801927" lon="0.7471788"><ele>247.0</ele><time>2026-05-04T14:15:23.54Z</time></trkpt><trkpt lat="41.5801381" lon="0.7473476"><ele>247.25</ele><time>2026-05-04T14:15:24.541Z</time></trkpt><trkpt lat="41.5800931" lon="0.7475054"><ele>247.5</ele><time>2026-05-04T14:15:25.54Z</time></trkpt><trkpt lat="41.5800382" lon="0.747662"><ele>247.75</ele><time>2026-05-04T14:15:26.535Z</time></trkpt><trkpt lat="41.5799848" lon="0.747823"><ele>248.0</ele><time>2026-05-04T14:15:27.539Z</time></trkpt><trkpt lat="41.5799272" lon="0.7479825"><ele>248.0</ele><time>2026-05-04T14:15:28.543Z</time></trkpt><trkpt lat="41.579868" lon="0.7481515"><ele>248.0</ele><time>2026-05-04T14:15:29.537Z</time></trkpt><trkpt lat="41.5798079" lon="0.7483261"><ele>248.0</ele><time>2026-05-04T14:15:30.532Z</time></trkpt><trkpt lat="41.5797441" lon="0.7484979"><ele>248.0</ele><time>2026-05-04T14:15:31.539Z</time></trkpt><trkpt lat="41.5796869" lon="0.7486633"><ele>248.0</ele><time>2026-05-04T14:15:32.536Z</time></trkpt><trkpt lat="41.5796431" lon="0.7488222"><ele>248.0</ele><time>2026-05-04T14:15:33.533Z</time></trkpt><trkpt lat="41.5795891" lon="0.7489944"><ele>248.0</ele><time>2026-05-04T14:15:34.531Z</time></trkpt><trkpt lat="41.5795355" lon="0.749169"><ele>248.0</ele><time>2026-05-04T14:15:35.54Z</time></trkpt><trkpt lat="41.5794729" lon="0.749332"><ele>248.5</ele><time>2026-05-04T14:15:36.54Z</time></trkpt><trkpt lat="41.5794202" lon="0.7494998"><ele>249.0</ele><time>2026-05-04T14:15:37.543Z</time></trkpt><trkpt lat="41.5793675" lon="0.7496683"><ele>249.5</ele><time>2026-05-04T14:15:38.538Z</time></trkpt><trkpt lat="41.5793095" lon="0.7498405"><ele>250.0</ele><time>2026-05-04T14:15:39.538Z</time></trkpt><trkpt lat="41.5792562" lon="0.750007"><ele>250.0</ele><time>2026-05-04T14:15:40.542Z</time></trkpt><trkpt lat="41.5792027" lon="0.750176"><ele>250.0</ele><time>2026-05-04T14:15:41.539Z</time></trkpt><trkpt lat="41.5791508" lon="0.7503412"><ele>250.0</ele><time>2026-05-04T14:15:42.536Z</time></trkpt><trkpt lat="41.5790995" lon="0.7505104"><ele>250.0</ele><time>2026-05-04T14:15:43.545Z</time></trkpt><trkpt lat="41.5790414" lon="0.7506811"><ele>249.75</ele><time>2026-05-04T14:15:44.545Z</time></trkpt><trkpt lat="41.5789898" lon="0.7508471"><ele>249.5</ele><time>2026-05-04T14:15:45.533Z</time></trkpt><trkpt lat="41.5789323" lon="0.7510156"><ele>249.25</ele><time>2026-05-04T14:15:46.54Z</time></trkpt><trkpt lat="41.5788725" lon="0.7511846"><ele>249.0</ele><time>2026-05-04T14:15:47.538Z</time></trkpt><trkpt lat="41.5788115" lon="0.7513579"><ele>249.0</ele><time>2026-05-04T14:15:48.546Z</time></trkpt><trkpt lat="41.5787535" lon="0.7515309"><ele>249.0</ele><time>2026-05-04T14:15:49.535Z</time></trkpt><trkpt lat="41.5786941" lon="0.7517096"><ele>249.0</ele><time>2026-05-04T14:15:50.537Z</time></trkpt><trkpt lat="41.5786444" lon="0.7518836"><ele>249.0</ele><time>2026-05-04T14:15:51.539Z</time></trkpt><trkpt lat="41.5785953" lon="0.7520509"><ele>248.75</ele><time>2026-05-04T14:15:52.54Z</time></trkpt><trkpt lat="41.5785461" lon="0.7522216"><ele>248.5</ele><time>2026-05-04T14:15:53.553Z</time></trkpt><trkpt lat="41.578494" lon="0.7524024"><ele>248.25</ele><time>2026-05-04T14:15:54.54Z</time></trkpt><trkpt lat="41.5784239" lon="0.7525736"><ele>248.0</ele><time>2026-05-04T14:15:55.538Z</time></trkpt><trkpt lat="41.578364" lon="0.7527546"><ele>248.75</ele><time>2026-05-04T14:15:56.543Z</time></trkpt><trkpt lat="41.578301" lon="0.7529308"><ele>249.5</ele><time>2026-05-04T14:15:57.546Z</time></trkpt><trkpt lat="41.5782401" lon="0.7531021"><ele>250.25</ele><time>2026-05-04T14:15:58.543Z</time></trkpt><trkpt lat="41.5781771" lon="0.7532748"><ele>251.0</ele><time>2026-05-04T14:15:59.554Z</time></trkpt><trkpt lat="41.5781166" lon="0.7534342"><ele>251.0</ele><time>2026-05-04T14:16:00.544Z</time></trkpt><trkpt lat="41.5780506" lon="0.7535952"><ele>251.0</ele><time>2026-05-04T14:16:01.53Z</time></trkpt><trkpt lat="41.5779809" lon="0.7537445"><ele>251.0</ele><time>2026-05-04T14:16:02.535Z</time></trkpt><trkpt lat="41.5779297" lon="0.7538948"><ele>251.0</ele><time>2026-05-04T14:16:03.535Z</time></trkpt><trkpt lat="41.5778791" lon="0.754059"><ele>251.0</ele><time>2026-05-04T14:16:04.537Z</time></trkpt><trkpt lat="41.5778239" lon="0.7542278"><ele>251.0</ele><time>2026-05-04T14:16:05.538Z</time></trkpt><trkpt lat="41.5777704" lon="0.7544004"><ele>251.0</ele><time>2026-05-04T14:16:06.536Z</time></trkpt><trkpt lat="41.5777191" lon="0.7545655"><ele>251.0</ele><time>2026-05-04T14:16:07.536Z</time></trkpt><trkpt lat="41.577652" lon="0.7547306"><ele>251.25</ele><time>2026-05-04T14:16:08.539Z</time></trkpt><trkpt lat="41.5775928" lon="0.7548994"><ele>251.5</ele><time>2026-05-04T14:16:09.538Z</time></trkpt><trkpt lat="41.5775335" lon="0.7550738"><ele>251.75</ele><time>2026-05-04T14:16:10.538Z</time></trkpt><trkpt lat="41.5774768" lon="0.7552539"><ele>252.0</ele><time>2026-05-04T14:16:11.542Z</time></trkpt><trkpt lat="41.5774115" lon="0.7554305"><ele>252.5</ele><time>2026-05-04T14:16:12.534Z</time></trkpt><trkpt lat="41.5773453" lon="0.7556048"><ele>253.0</ele><time>2026-05-04T14:16:13.545Z</time></trkpt><trkpt lat="41.5772855" lon="0.7557771"><ele>253.5</ele><time>2026-05-04T14:16:14.53Z</time></trkpt><trkpt lat="41.5772235" lon="0.7559462"><ele>254.0</ele><time>2026-05-04T14:16:15.54Z</time></trkpt><trkpt lat="41.5771724" lon="0.7561212"><ele>254.5</ele><time>2026-05-04T14:16:16.539Z</time></trkpt><trkpt lat="41.5771191" lon="0.7563032"><ele>255.0</ele><time>2026-05-04T14:16:17.541Z</time></trkpt><trkpt lat="41.5770656" lon="0.7564893"><ele>255.5</ele><time>2026-05-04T14:16:18.536Z</time></trkpt><trkpt lat="41.5770131" lon="0.7566647"><ele>256.0</ele><time>2026-05-04T14:16:19.547Z</time></trkpt><trkpt lat="41.5769515" lon="0.7568413"><ele>254.75</ele><time>2026-05-04T14:16:20.542Z</time></trkpt><trkpt lat="41.5768882" lon="0.7570187"><ele>253.5</ele><time>2026-05-04T14:16:21.542Z</time></trkpt><trkpt lat="41.5768237" lon="0.757195"><ele>252.25</ele><time>2026-05-04T14:16:22.543Z</time></trkpt><trkpt lat="41.5767677" lon="0.7573739"><ele>251.0</ele><time>2026-05-04T14:16:23.541Z</time></trkpt><trkpt lat="41.5767123" lon="0.75755"><ele>251.5</ele><time>2026-05-04T14:16:24.554Z</time></trkpt><trkpt lat="41.5766572" lon="0.7577413"><ele>252.0</ele><time>2026-05-04T14:16:25.544Z</time></trkpt><trkpt lat="41.576602" lon="0.7579132"><ele>252.5</ele><time>2026-05-04T14:16:26.54Z</time></trkpt><trkpt lat="41.5765489" lon="0.7580852"><ele>253.0</ele><time>2026-05-04T14:16:27.538Z</time></trkpt><trkpt lat="41.5764905" lon="0.7582664"><ele>253.0</ele><time>2026-05-04T14:16:28.541Z</time></trkpt><trkpt lat="41.5764273" lon="0.7584501"><ele>253.0</ele><time>2026-05-04T14:16:29.539Z</time></trkpt><trkpt lat="41.5763707" lon="0.7586254"><ele>253.0</ele><time>2026-05-04T14:16:30.541Z</time></trkpt><trkpt lat="41.5763091" lon="0.7588"><ele>253.0</ele><time>2026-05-04T14:16:31.535Z</time></trkpt><trkpt lat="41.5762505" lon="0.7589841"><ele>253.0</ele><time>2026-05-04T14:16:32.537Z</time></trkpt><trkpt lat="41.5761845" lon="0.7591574"><ele>253.0</ele><time>2026-05-04T14:16:33.539Z</time></trkpt><trkpt lat="41.5761264" lon="0.759337"><ele>253.0</ele><time>2026-05-04T14:16:34.541Z</time></trkpt><trkpt lat="41.5760674" lon="0.7595186"><ele>253.0</ele><time>2026-05-04T14:16:35.537Z</time></trkpt><trkpt lat="41.576009" lon="0.7596922"><ele>253.0</ele><time>2026-05-04T14:16:36.539Z</time></trkpt><trkpt lat="41.5759474" lon="0.759874"><ele>253.0</ele><time>2026-05-04T14:16:37.539Z</time></trkpt><trkpt lat="41.575878" lon="0.7600544"><ele>253.0</ele><time>2026-05-04T14:16:38.537Z</time></trkpt><trkpt lat="41.5758162" lon="0.7602349"><ele>253.25</ele><time>2026-05-04T14:16:39.539Z</time></trkpt><trkpt lat="41.5757579" lon="0.760413"><ele>253.5</ele><time>2026-05-04T14:16:40.537Z</time></trkpt><trkpt lat="41.5756949" lon="0.7605929"><ele>253.75</ele><time>2026-05-04T14:16:41.535Z</time></trkpt><trkpt lat="41.5756335" lon="0.7607727"><ele>254.0</ele><time>2026-05-04T14:16:42.544Z</time></trkpt><trkpt lat="41.5755715" lon="0.7609484"><ele>254.0</ele><time>2026-05-04T14:16:43.552Z</time></trkpt><trkpt lat="41.5755134" lon="0.7611334"><ele>254.0</ele><time>2026-05-04T14:16:44.538Z</time></trkpt><trkpt lat="41.5754563" lon="0.7613264"><ele>254.0</ele><time>2026-05-04T14:16:45.538Z</time></trkpt><trkpt lat="41.5753946" lon="0.7615106"><ele>254.0</ele><time>2026-05-04T14:16:46.543Z</time></trkpt><trkpt lat="41.5752833" lon="0.7618702"><ele>254.0</ele><time>2026-05-04T14:16:48.546Z</time></trkpt><trkpt lat="41.5752235" lon="0.7620423"><ele>254.0</ele><time>2026-05-04T14:16:49.548Z</time></trkpt><trkpt lat="41.5751551" lon="0.7622254"><ele>254.0</ele><time>2026-05-04T14:16:50.553Z</time></trkpt><trkpt lat="41.5750885" lon="0.7624012"><ele>254.0</ele><time>2026-05-04T14:16:51.554Z</time></trkpt><trkpt lat="41.5750353" lon="0.7625781"><ele>254.0</ele><time>2026-05-04T14:16:52.553Z</time></trkpt><trkpt lat="41.5749815" lon="0.7627594"><ele>254.0</ele><time>2026-05-04T14:16:53.553Z</time></trkpt><trkpt lat="41.5749268" lon="0.7629332"><ele>254.0</ele><time>2026-05-04T14:16:54.551Z</time></trkpt><trkpt lat="41.5748625" lon="0.7631122"><ele>254.0</ele><time>2026-05-04T14:16:55.565Z</time></trkpt><trkpt lat="41.5748087" lon="0.7632988"><ele>254.0</ele><time>2026-05-04T14:16:56.532Z</time></trkpt><trkpt lat="41.5747293" lon="0.7634911"><ele>254.25</ele><time>2026-05-04T14:16:57.541Z</time></trkpt><trkpt lat="41.5746646" lon="0.7636758"><ele>254.5</ele><time>2026-05-04T14:16:58.541Z</time></trkpt><trkpt lat="41.5746066" lon="0.7638549"><ele>254.75</ele><time>2026-05-04T14:16:59.545Z</time></trkpt><trkpt lat="41.5745529" lon="0.7640325"><ele>255.0</ele><time>2026-05-04T14:17:00.548Z</time></trkpt><trkpt lat="41.5744943" lon="0.7642034"><ele>255.0</ele><time>2026-05-04T14:17:01.544Z</time></trkpt><trkpt lat="41.5744362" lon="0.764372"><ele>255.0</ele><time>2026-05-04T14:17:02.548Z</time></trkpt><trkpt lat="41.5743813" lon="0.7645405"><ele>255.0</ele><time>2026-05-04T14:17:03.549Z</time></trkpt><trkpt lat="41.5743279" lon="0.7647162"><ele>255.0</ele><time>2026-05-04T14:17:04.545Z</time></trkpt><trkpt lat="41.5742697" lon="0.7648855"><ele>255.0</ele><time>2026-05-04T14:17:05.543Z</time></trkpt><trkpt lat="41.5742075" lon="0.7650572"><ele>255.0</ele><time>2026-05-04T14:17:06.544Z</time></trkpt><trkpt lat="41.5741506" lon="0.7652327"><ele>255.0</ele><time>2026-05-04T14:17:07.547Z</time></trkpt><trkpt lat="41.5740882" lon="0.7654048"><ele>255.0</ele><time>2026-05-04T14:17:08.546Z</time></trkpt><trkpt lat="41.5740226" lon="0.7655802"><ele>255.25</ele><time>2026-05-04T14:17:09.55Z</time></trkpt><trkpt lat="41.5739632" lon="0.7657617"><ele>255.5</ele><time>2026-05-04T14:17:10.552Z</time></trkpt><trkpt lat="41.5738962" lon="0.7659349"><ele>255.75</ele><time>2026-05-04T14:17:11.548Z</time></trkpt><trkpt lat="41.5738326" lon="0.7661054"><ele>256.0</ele><time>2026-05-04T14:17:12.55Z</time></trkpt><trkpt lat="41.5737748" lon="0.7662827"><ele>256.0</ele><time>2026-05-04T14:17:13.548Z</time></trkpt><trkpt lat="41.5737112" lon="0.766461"><ele>256.0</ele><time>2026-05-04T14:17:14.545Z</time></trkpt><trkpt lat="41.5736478" lon="0.7666331"><ele>256.0</ele><time>2026-05-04T14:17:15.546Z</time></trkpt><trkpt lat="41.573583" lon="0.7667985"><ele>256.0</ele><time>2026-05-04T14:17:16.545Z</time></trkpt><trkpt lat="41.573518" lon="0.7669716"><ele>256.25</ele><time>2026-05-04T14:17:17.549Z</time></trkpt><trkpt lat="41.573453" lon="0.7671425"><ele>256.5</ele><time>2026-05-04T14:17:18.548Z</time></trkpt><trkpt lat="41.5733846" lon="0.7673184"><ele>256.75</ele><time>2026-05-04T14:17:19.549Z</time></trkpt><trkpt lat="41.5733161" lon="0.7674901"><ele>257.0</ele><time>2026-05-04T14:17:20.547Z</time></trkpt><trkpt lat="41.5732494" lon="0.7676605"><ele>257.75</ele><time>2026-05-04T14:17:21.549Z</time></trkpt><trkpt lat="41.5731794" lon="0.7678346"><ele>258.5</ele><time>2026-05-04T14:17:22.545Z</time></trkpt><trkpt lat="41.5731116" lon="0.7680117"><ele>259.25</ele><time>2026-05-04T14:17:23.547Z</time></trkpt><trkpt lat="41.5730491" lon="0.7681873"><ele>260.0</ele><time>2026-05-04T14:17:24.548Z</time></trkpt><trkpt lat="41.5729851" lon="0.7683506"><ele>260.0</ele><time>2026-05-04T14:17:25.552Z</time></trkpt><trkpt lat="41.57292" lon="0.7685136"><ele>260.0</ele><time>2026-05-04T14:17:26.564Z</time></trkpt><trkpt lat="41.5728535" lon="0.7686752"><ele>260.0</ele><time>2026-05-04T14:17:27.551Z</time></trkpt><trkpt lat="41.572795" lon="0.7688441"><ele>260.0</ele><time>2026-05-04T14:17:28.538Z</time></trkpt><trkpt lat="41.5727288" lon="0.7690209"><ele>260.0</ele><time>2026-05-04T14:17:29.547Z</time></trkpt><trkpt lat="41.5726548" lon="0.7691929"><ele>260.0</ele><time>2026-05-04T14:17:30.542Z</time></trkpt><trkpt lat="41.5725893" lon="0.7693481"><ele>260.0</ele><time>2026-05-04T14:17:31.541Z</time></trkpt><trkpt lat="41.5725125" lon="0.7694966"><ele>260.0</ele><time>2026-05-04T14:17:32.543Z</time></trkpt><trkpt lat="41.5724409" lon="0.7696337"><ele>259.8</ele><time>2026-05-04T14:17:33.538Z</time></trkpt><trkpt lat="41.5723809" lon="0.7697619"><ele>259.6</ele><time>2026-05-04T14:17:34.535Z</time></trkpt><trkpt lat="41.5723136" lon="0.769876"><ele>259.4</ele><time>2026-05-04T14:17:35.534Z</time></trkpt><trkpt lat="41.572244" lon="0.769994"><ele>259.2</ele><time>2026-05-04T14:17:36.535Z</time></trkpt><trkpt lat="41.5721614" lon="0.770081"><ele>259.0</ele><time>2026-05-04T14:17:37.535Z</time></trkpt><trkpt lat="41.5720794" lon="0.7701734"><ele>259.0</ele><time>2026-05-04T14:17:38.545Z</time></trkpt><trkpt lat="41.5720351" lon="0.7702983"><ele>259.0</ele><time>2026-05-04T14:17:39.546Z</time></trkpt><trkpt lat="41.5720126" lon="0.7704448"><ele>259.0</ele><time>2026-05-04T14:17:40.547Z</time></trkpt><trkpt lat="41.5720049" lon="0.770585"><ele>259.0</ele><time>2026-05-04T14:17:41.543Z</time></trkpt><trkpt lat="41.5719837" lon="0.7707183"><ele>259.0</ele><time>2026-05-04T14:17:42.544Z</time></trkpt><trkpt lat="41.5719505" lon="0.7708518"><ele>259.0</ele><time>2026-05-04T14:17:43.554Z</time></trkpt><trkpt lat="41.5719071" lon="0.7709948"><ele>259.0</ele><time>2026-05-04T14:17:44.548Z</time></trkpt><trkpt lat="41.571846" lon="0.7711342"><ele>259.0</ele><time>2026-05-04T14:17:45.542Z</time></trkpt><trkpt lat="41.5717822" lon="0.7712758"><ele>259.0</ele><time>2026-05-04T14:17:46.545Z</time></trkpt><trkpt lat="41.5717157" lon="0.7714206"><ele>258.5</ele><time>2026-05-04T14:17:47.54Z</time></trkpt><trkpt lat="41.5716433" lon="0.7715641"><ele>258.0</ele><time>2026-05-04T14:17:48.545Z</time></trkpt><trkpt lat="41.5715726" lon="0.7717108"><ele>257.5</ele><time>2026-05-04T14:17:49.55Z</time></trkpt><trkpt lat="41.5715149" lon="0.771855"><ele>257.0</ele><time>2026-05-04T14:17:50.538Z</time></trkpt><trkpt lat="41.5714516" lon="0.7720058"><ele>257.0</ele><time>2026-05-04T14:17:51.541Z</time></trkpt><trkpt lat="41.5713787" lon="0.7721556"><ele>257.0</ele><time>2026-05-04T14:17:52.543Z</time></trkpt><trkpt lat="41.5713059" lon="0.7723011"><ele>257.0</ele><time>2026-05-04T14:17:53.542Z</time></trkpt><trkpt lat="41.5712335" lon="0.7724567"><ele>257.0</ele><time>2026-05-04T14:17:54.538Z</time></trkpt><trkpt lat="41.5711586" lon="0.7726164"><ele>257.0</ele><time>2026-05-04T14:17:55.538Z</time></trkpt><trkpt lat="41.5710889" lon="0.7727693"><ele>257.0</ele><time>2026-05-04T14:17:56.545Z</time></trkpt><trkpt lat="41.571024" lon="0.7729247"><ele>257.0</ele><time>2026-05-04T14:17:57.578Z</time></trkpt><trkpt lat="41.5709609" lon="0.7730726"><ele>257.0</ele><time>2026-05-04T14:17:58.548Z</time></trkpt><trkpt lat="41.5708844" lon="0.7732191"><ele>257.0</ele><time>2026-05-04T14:17:59.55Z</time></trkpt><trkpt lat="41.5708095" lon="0.7733627"><ele>257.0</ele><time>2026-05-04T14:18:00.55Z</time></trkpt><trkpt lat="41.5707362" lon="0.7735113"><ele>257.0</ele><time>2026-05-04T14:18:01.55Z</time></trkpt><trkpt lat="41.5706669" lon="0.7736549"><ele>257.0</ele><time>2026-05-04T14:18:02.556Z</time></trkpt><trkpt lat="41.570602" lon="0.7738109"><ele>257.25</ele><time>2026-05-04T14:18:03.551Z</time></trkpt><trkpt lat="41.5705369" lon="0.7739649"><ele>257.5</ele><time>2026-05-04T14:18:04.547Z</time></trkpt><trkpt lat="41.5704735" lon="0.7741231"><ele>257.75</ele><time>2026-05-04T14:18:05.537Z</time></trkpt><trkpt lat="41.5704044" lon="0.7742769"><ele>258.0</ele><time>2026-05-04T14:18:06.539Z</time></trkpt><trkpt lat="41.570338" lon="0.7744294"><ele>258.0</ele><time>2026-05-04T14:18:07.542Z</time></trkpt><trkpt lat="41.5702749" lon="0.7745821"><ele>258.0</ele><time>2026-05-04T14:18:08.543Z</time></trkpt><trkpt lat="41.5702083" lon="0.774729"><ele>258.0</ele><time>2026-05-04T14:18:09.544Z</time></trkpt><trkpt lat="41.5701454" lon="0.7748695"><ele>258.0</ele><time>2026-05-04T14:18:10.543Z</time></trkpt><trkpt lat="41.5700793" lon="0.7750107"><ele>258.0</ele><time>2026-05-04T14:18:11.542Z</time></trkpt><trkpt lat="41.5700132" lon="0.7751561"><ele>258.0</ele><time>2026-05-04T14:18:12.546Z</time></trkpt><trkpt lat="41.5699481" lon="0.7753008"><ele>258.0</ele><time>2026-05-04T14:18:13.547Z</time></trkpt><trkpt lat="41.5698812" lon="0.7754419"><ele>258.0</ele><time>2026-05-04T14:18:14.542Z</time></trkpt><trkpt lat="41.5698157" lon="0.7755818"><ele>258.25</ele><time>2026-05-04T14:18:15.546Z</time></trkpt><trkpt lat="41.5697583" lon="0.7757269"><ele>258.5</ele><time>2026-05-04T14:18:16.541Z</time></trkpt><trkpt lat="41.5696924" lon="0.7758806"><ele>258.75</ele><time>2026-05-04T14:18:17.544Z</time></trkpt><trkpt lat="41.5696259" lon="0.776036"><ele>259.0</ele><time>2026-05-04T14:18:18.546Z</time></trkpt><trkpt lat="41.5695526" lon="0.7761911"><ele>258.75</ele><time>2026-05-04T14:18:19.54Z</time></trkpt><trkpt lat="41.5694748" lon="0.7763424"><ele>258.5</ele><time>2026-05-04T14:18:20.537Z</time></trkpt><trkpt lat="41.5693996" lon="0.7764946"><ele>258.25</ele><time>2026-05-04T14:18:21.544Z</time></trkpt><trkpt lat="41.569328" lon="0.7766441"><ele>258.0</ele><time>2026-05-04T14:18:22.545Z</time></trkpt><trkpt lat="41.569258" lon="0.7767997"><ele>258.25</ele><time>2026-05-04T14:18:23.543Z</time></trkpt><trkpt lat="41.5691873" lon="0.7769484"><ele>258.5</ele><time>2026-05-04T14:18:24.545Z</time></trkpt><trkpt lat="41.5691137" lon="0.7771035"><ele>258.75</ele><time>2026-05-04T14:18:25.546Z</time></trkpt><trkpt lat="41.5690365" lon="0.7772589"><ele>259.0</ele><time>2026-05-04T14:18:26.546Z</time></trkpt><trkpt lat="41.5689697" lon="0.7774163"><ele>259.0</ele><time>2026-05-04T14:18:27.567Z</time></trkpt><trkpt lat="41.5688958" lon="0.7775734"><ele>259.0</ele><time>2026-05-04T14:18:28.539Z</time></trkpt><trkpt lat="41.5688285" lon="0.7777295"><ele>259.0</ele><time>2026-05-04T14:18:29.55Z</time></trkpt><trkpt lat="41.5687613" lon="0.7778847"><ele>259.0</ele><time>2026-05-04T14:18:30.543Z</time></trkpt><trkpt lat="41.5686944" lon="0.778034"><ele>259.0</ele><time>2026-05-04T14:18:31.548Z</time></trkpt><trkpt lat="41.5686316" lon="0.7781886"><ele>259.0</ele><time>2026-05-04T14:18:32.535Z</time></trkpt><trkpt lat="41.5685628" lon="0.7783472"><ele>259.0</ele><time>2026-05-04T14:18:33.543Z</time></trkpt><trkpt lat="41.5684939" lon="0.7785041"><ele>259.0</ele><time>2026-05-04T14:18:34.543Z</time></trkpt><trkpt lat="41.5684225" lon="0.7786557"><ele>259.0</ele><time>2026-05-04T14:18:35.546Z</time></trkpt><trkpt lat="41.5683465" lon="0.7787972"><ele>259.0</ele><time>2026-05-04T14:18:36.55Z</time></trkpt><trkpt lat="41.5682793" lon="0.7789465"><ele>259.0</ele><time>2026-05-04T14:18:37.551Z</time></trkpt><trkpt lat="41.5682044" lon="0.7790946"><ele>259.0</ele><time>2026-05-04T14:18:38.548Z</time></trkpt><trkpt lat="41.568134" lon="0.7792449"><ele>259.3333333333333</ele><time>2026-05-04T14:18:39.546Z</time></trkpt><trkpt lat="41.5680626" lon="0.7793871"><ele>259.6666666666667</ele><time>2026-05-04T14:18:40.549Z</time></trkpt><trkpt lat="41.5679961" lon="0.7795396"><ele>260.0</ele><time>2026-05-04T14:18:41.551Z</time></trkpt><trkpt lat="41.5678554" lon="0.7798418"><ele>260.25</ele><time>2026-05-04T14:18:43.552Z</time></trkpt><trkpt lat="41.5677842" lon="0.7799964"><ele>260.5</ele><time>2026-05-04T14:18:44.549Z</time></trkpt><trkpt lat="41.5677118" lon="0.7801488"><ele>260.75</ele><time>2026-05-04T14:18:45.557Z</time></trkpt><trkpt lat="41.5676421" lon="0.7803021"><ele>261.0</ele><time>2026-05-04T14:18:46.54Z</time></trkpt><trkpt lat="41.5675763" lon="0.7804553"><ele>261.0</ele><time>2026-05-04T14:18:47.543Z</time></trkpt><trkpt lat="41.5675078" lon="0.7806127"><ele>261.0</ele><time>2026-05-04T14:18:48.55Z</time></trkpt><trkpt lat="41.5674397" lon="0.7807693"><ele>261.0</ele><time>2026-05-04T14:18:49.558Z</time></trkpt><trkpt lat="41.5673712" lon="0.7809253"><ele>261.0</ele><time>2026-05-04T14:18:50.546Z</time></trkpt><trkpt lat="41.567306" lon="0.7810806"><ele>260.75</ele><time>2026-05-04T14:18:51.549Z</time></trkpt><trkpt lat="41.567245" lon="0.7812261"><ele>260.5</ele><time>2026-05-04T14:18:52.549Z</time></trkpt><trkpt lat="41.5671749" lon="0.7813733"><ele>260.25</ele><time>2026-05-04T14:18:53.545Z</time></trkpt><trkpt lat="41.5670956" lon="0.7815233"><ele>260.0</ele><time>2026-05-04T14:18:54.54Z</time></trkpt><trkpt lat="41.5670236" lon="0.7816673"><ele>260.25</ele><time>2026-05-04T14:18:55.548Z</time></trkpt><trkpt lat="41.5669563" lon="0.7818053"><ele>260.5</ele><time>2026-05-04T14:18:56.549Z</time></trkpt><trkpt lat="41.566887" lon="0.7819596"><ele>260.75</ele><time>2026-05-04T14:18:57.547Z</time></trkpt><trkpt lat="41.5668177" lon="0.7821169"><ele>261.0</ele><time>2026-05-04T14:18:58.561Z</time></trkpt><trkpt lat="41.5667495" lon="0.7822754"><ele>261.0</ele><time>2026-05-04T14:18:59.547Z</time></trkpt><trkpt lat="41.5666825" lon="0.7824243"><ele>261.0</ele><time>2026-05-04T14:19:00.551Z</time></trkpt><trkpt lat="41.5666181" lon="0.7825719"><ele>261.0</ele><time>2026-05-04T14:19:01.545Z</time></trkpt><trkpt lat="41.5665445" lon="0.7827252"><ele>261.0</ele><time>2026-05-04T14:19:02.547Z</time></trkpt><trkpt lat="41.5664733" lon="0.7828706"><ele>260.75</ele><time>2026-05-04T14:19:03.548Z</time></trkpt><trkpt lat="41.5664075" lon="0.7830243"><ele>260.5</ele><time>2026-05-04T14:19:04.55Z</time></trkpt><trkpt lat="41.5663362" lon="0.7831866"><ele>260.25</ele><time>2026-05-04T14:19:05.55Z</time></trkpt><trkpt lat="41.5662688" lon="0.7833445"><ele>260.0</ele><time>2026-05-04T14:19:06.551Z</time></trkpt><trkpt lat="41.5662019" lon="0.7835007"><ele>260.25</ele><time>2026-05-04T14:19:07.549Z</time></trkpt><trkpt lat="41.5661327" lon="0.7836591"><ele>260.5</ele><time>2026-05-04T14:19:08.548Z</time></trkpt><trkpt lat="41.5660609" lon="0.7838198"><ele>260.75</ele><time>2026-05-04T14:19:09.549Z</time></trkpt><trkpt lat="41.565991" lon="0.7839825"><ele>261.0</ele><time>2026-05-04T14:19:10.545Z</time></trkpt><trkpt lat="41.5659163" lon="0.7841405"><ele>261.0</ele><time>2026-05-04T14:19:11.544Z</time></trkpt><trkpt lat="41.5658413" lon="0.784296"><ele>261.0</ele><time>2026-05-04T14:19:12.545Z</time></trkpt><trkpt lat="41.5657695" lon="0.7844544"><ele>261.0</ele><time>2026-05-04T14:19:13.549Z</time></trkpt><trkpt lat="41.5656906" lon="0.7846149"><ele>261.0</ele><time>2026-05-04T14:19:14.547Z</time></trkpt><trkpt lat="41.5656175" lon="0.7847766"><ele>261.25</ele><time>2026-05-04T14:19:15.545Z</time></trkpt><trkpt lat="41.5655507" lon="0.7849354"><ele>261.5</ele><time>2026-05-04T14:19:16.547Z</time></trkpt><trkpt lat="41.5654854" lon="0.7850996"><ele>261.75</ele><time>2026-05-04T14:19:17.546Z</time></trkpt><trkpt lat="41.5654096" lon="0.7852675"><ele>262.0</ele><time>2026-05-04T14:19:18.549Z</time></trkpt><trkpt lat="41.5653302" lon="0.7854335"><ele>262.0</ele><time>2026-05-04T14:19:19.554Z</time></trkpt><trkpt lat="41.5652595" lon="0.785595"><ele>262.0</ele><time>2026-05-04T14:19:20.549Z</time></trkpt><trkpt lat="41.5651774" lon="0.7857612"><ele>262.0</ele><time>2026-05-04T14:19:21.548Z</time></trkpt><trkpt lat="41.5651006" lon="0.7859302"><ele>262.0</ele><time>2026-05-04T14:19:22.55Z</time></trkpt><trkpt lat="41.5650248" lon="0.7860949"><ele>261.75</ele><time>2026-05-04T14:19:23.552Z</time></trkpt><trkpt lat="41.5649507" lon="0.7862605"><ele>261.5</ele><time>2026-05-04T14:19:24.542Z</time></trkpt><trkpt lat="41.5648714" lon="0.786422"><ele>261.25</ele><time>2026-05-04T14:19:25.545Z</time></trkpt><trkpt lat="41.5647976" lon="0.7865849"><ele>261.0</ele><time>2026-05-04T14:19:26.539Z</time></trkpt><trkpt lat="41.5647212" lon="0.7867519"><ele>261.0</ele><time>2026-05-04T14:19:27.542Z</time></trkpt><trkpt lat="41.5646468" lon="0.7869104"><ele>261.0</ele><time>2026-05-04T14:19:28.54Z</time></trkpt><trkpt lat="41.5645754" lon="0.7870904"><ele>261.0</ele><time>2026-05-04T14:19:29.559Z</time></trkpt><trkpt lat="41.564505" lon="0.7872551"><ele>261.0</ele><time>2026-05-04T14:19:30.547Z</time></trkpt><trkpt lat="41.5644321" lon="0.7874242"><ele>261.5</ele><time>2026-05-04T14:19:31.545Z</time></trkpt><trkpt lat="41.5643502" lon="0.7875771"><ele>262.0</ele><time>2026-05-04T14:19:32.549Z</time></trkpt><trkpt lat="41.5642758" lon="0.7877483"><ele>262.5</ele><time>2026-05-04T14:19:33.55Z</time></trkpt><trkpt lat="41.5641995" lon="0.7879098"><ele>263.0</ele><time>2026-05-04T14:19:34.549Z</time></trkpt><trkpt lat="41.5641232" lon="0.7880688"><ele>263.0</ele><time>2026-05-04T14:19:35.548Z</time></trkpt><trkpt lat="41.5640477" lon="0.788232"><ele>263.0</ele><time>2026-05-04T14:19:36.547Z</time></trkpt><trkpt lat="41.5639806" lon="0.7883927"><ele>263.0</ele><time>2026-05-04T14:19:37.543Z</time></trkpt><trkpt lat="41.5639175" lon="0.7885745"><ele>263.0</ele><time>2026-05-04T14:19:38.549Z</time></trkpt><trkpt lat="41.5638439" lon="0.788733"><ele>263.25</ele><time>2026-05-04T14:19:39.538Z</time></trkpt><trkpt lat="41.5637675" lon="0.7888849"><ele>263.5</ele><time>2026-05-04T14:19:40.544Z</time></trkpt><trkpt lat="41.5636928" lon="0.7890462"><ele>263.75</ele><time>2026-05-04T14:19:41.546Z</time></trkpt><trkpt lat="41.5636149" lon="0.7892006"><ele>264.0</ele><time>2026-05-04T14:19:42.544Z</time></trkpt><trkpt lat="41.5635441" lon="0.7893564"><ele>264.0</ele><time>2026-05-04T14:19:43.548Z</time></trkpt><trkpt lat="41.563473" lon="0.7895267"><ele>264.0</ele><time>2026-05-04T14:19:44.544Z</time></trkpt><trkpt lat="41.563401" lon="0.7897007"><ele>264.0</ele><time>2026-05-04T14:19:45.545Z</time></trkpt><trkpt lat="41.5633258" lon="0.7898653"><ele>264.0</ele><time>2026-05-04T14:19:46.546Z</time></trkpt><trkpt lat="41.5632438" lon="0.7900421"><ele>263.75</ele><time>2026-05-04T14:19:47.541Z</time></trkpt><trkpt lat="41.5631623" lon="0.7902041"><ele>263.5</ele><time>2026-05-04T14:19:48.541Z</time></trkpt><trkpt lat="41.5630829" lon="0.7903618"><ele>263.25</ele><time>2026-05-04T14:19:49.546Z</time></trkpt><trkpt lat="41.563005" lon="0.7905316"><ele>263.0</ele><time>2026-05-04T14:19:50.545Z</time></trkpt><trkpt lat="41.56293" lon="0.7907068"><ele>262.75</ele><time>2026-05-04T14:19:51.544Z</time></trkpt><trkpt lat="41.5628521" lon="0.7908757"><ele>262.5</ele><time>2026-05-04T14:19:52.546Z</time></trkpt><trkpt lat="41.5627741" lon="0.7910408"><ele>262.25</ele><time>2026-05-04T14:19:53.546Z</time></trkpt><trkpt lat="41.5626955" lon="0.7912096"><ele>262.0</ele><time>2026-05-04T14:19:54.548Z</time></trkpt><trkpt lat="41.5626299" lon="0.791384"><ele>262.0</ele><time>2026-05-04T14:19:55.543Z</time></trkpt><trkpt lat="41.5625558" lon="0.7915609"><ele>262.0</ele><time>2026-05-04T14:19:56.545Z</time></trkpt><trkpt lat="41.5624793" lon="0.791716"><ele>262.0</ele><time>2026-05-04T14:19:57.54Z</time></trkpt><trkpt lat="41.5623987" lon="0.7918782"><ele>262.0</ele><time>2026-05-04T14:19:58.543Z</time></trkpt><trkpt lat="41.5623177" lon="0.7920369"><ele>261.5</ele><time>2026-05-04T14:19:59.545Z</time></trkpt><trkpt lat="41.5622442" lon="0.792186"><ele>261.0</ele><time>2026-05-04T14:20:00.564Z</time></trkpt><trkpt lat="41.5621861" lon="0.7923301"><ele>260.5</ele><time>2026-05-04T14:20:01.542Z</time></trkpt><trkpt lat="41.5621217" lon="0.7924776"><ele>260.0</ele><time>2026-05-04T14:20:02.544Z</time></trkpt><trkpt lat="41.5620572" lon="0.7926241"><ele>260.25</ele><time>2026-05-04T14:20:03.54Z</time></trkpt><trkpt lat="41.5619918" lon="0.7927771"><ele>260.5</ele><time>2026-05-04T14:20:04.544Z</time></trkpt><trkpt lat="41.5619174" lon="0.7929233"><ele>260.75</ele><time>2026-05-04T14:20:05.542Z</time></trkpt><trkpt lat="41.5618513" lon="0.7930798"><ele>261.0</ele><time>2026-05-04T14:20:06.545Z</time></trkpt><trkpt lat="41.5617786" lon="0.7932344"><ele>261.0</ele><time>2026-05-04T14:20:07.541Z</time></trkpt><trkpt lat="41.561703" lon="0.7933911"><ele>261.0</ele><time>2026-05-04T14:20:08.545Z</time></trkpt><trkpt lat="41.5616333" lon="0.7935449"><ele>261.0</ele><time>2026-05-04T14:20:09.541Z</time></trkpt><trkpt lat="41.5615669" lon="0.7936954"><ele>261.0</ele><time>2026-05-04T14:20:10.543Z</time></trkpt><trkpt lat="41.5614971" lon="0.7938435"><ele>260.75</ele><time>2026-05-04T14:20:11.544Z</time></trkpt><trkpt lat="41.5614356" lon="0.7939989"><ele>260.5</ele><time>2026-05-04T14:20:12.545Z</time></trkpt><trkpt lat="41.5613652" lon="0.7941548"><ele>260.25</ele><time>2026-05-04T14:20:13.546Z</time></trkpt><trkpt lat="41.5612945" lon="0.7943156"><ele>260.0</ele><time>2026-05-04T14:20:14.544Z</time></trkpt><trkpt lat="41.5612237" lon="0.7944719"><ele>259.75</ele><time>2026-05-04T14:20:15.546Z</time></trkpt><trkpt lat="41.5611549" lon="0.7946261"><ele>259.5</ele><time>2026-05-04T14:20:16.544Z</time></trkpt><trkpt lat="41.5610809" lon="0.7947848"><ele>259.25</ele><time>2026-05-04T14:20:17.548Z</time></trkpt><trkpt lat="41.5610061" lon="0.7949332"><ele>259.0</ele><time>2026-05-04T14:20:18.546Z</time></trkpt><trkpt lat="41.5609333" lon="0.7950903"><ele>259.25</ele><time>2026-05-04T14:20:19.543Z</time></trkpt><trkpt lat="41.5608674" lon="0.7952551"><ele>259.5</ele><time>2026-05-04T14:20:20.542Z</time></trkpt><trkpt lat="41.560791" lon="0.7954067"><ele>259.75</ele><time>2026-05-04T14:20:21.543Z</time></trkpt><trkpt lat="41.5607203" lon="0.7955642"><ele>260.0</ele><time>2026-05-04T14:20:22.541Z</time></trkpt><trkpt lat="41.560652" lon="0.7957081"><ele>260.0</ele><time>2026-05-04T14:20:23.548Z</time></trkpt><trkpt lat="41.5605788" lon="0.7958603"><ele>260.0</ele><time>2026-05-04T14:20:24.551Z</time></trkpt><trkpt lat="41.5605144" lon="0.7960012"><ele>260.0</ele><time>2026-05-04T14:20:25.552Z</time></trkpt><trkpt lat="41.5604454" lon="0.7961488"><ele>260.0</ele><time>2026-05-04T14:20:26.55Z</time></trkpt><trkpt lat="41.5603754" lon="0.7962974"><ele>260.0</ele><time>2026-05-04T14:20:27.547Z</time></trkpt><trkpt lat="41.5603113" lon="0.7964408"><ele>260.0</ele><time>2026-05-04T14:20:28.549Z</time></trkpt><trkpt lat="41.560243" lon="0.7965881"><ele>260.0</ele><time>2026-05-04T14:20:29.55Z</time></trkpt><trkpt lat="41.5601762" lon="0.7967351"><ele>260.0</ele><time>2026-05-04T14:20:30.551Z</time></trkpt><trkpt lat="41.5601112" lon="0.796877"><ele>259.75</ele><time>2026-05-04T14:20:31.565Z</time></trkpt><trkpt lat="41.5600389" lon="0.7970206"><ele>259.5</ele><time>2026-05-04T14:20:32.549Z</time></trkpt><trkpt lat="41.5599687" lon="0.7971677"><ele>259.25</ele><time>2026-05-04T14:20:33.55Z</time></trkpt><trkpt lat="41.559902" lon="0.7973151"><ele>259.0</ele><time>2026-05-04T14:20:34.55Z</time></trkpt><trkpt lat="41.5598322" lon="0.7974652"><ele>259.0</ele><time>2026-05-04T14:20:35.553Z</time></trkpt><trkpt lat="41.5597638" lon="0.7976114"><ele>259.0</ele><time>2026-05-04T14:20:36.548Z</time></trkpt><trkpt lat="41.5596987" lon="0.7977606"><ele>259.0</ele><time>2026-05-04T14:20:37.549Z</time></trkpt><trkpt lat="41.5596304" lon="0.797907"><ele>259.0</ele><time>2026-05-04T14:20:38.55Z</time></trkpt><trkpt lat="41.559562" lon="0.7980529"><ele>259.5</ele><time>2026-05-04T14:20:39.546Z</time></trkpt><trkpt lat="41.5594928" lon="0.7981967"><ele>260.0</ele><time>2026-05-04T14:20:40.548Z</time></trkpt><trkpt lat="41.5594263" lon="0.7983427"><ele>260.5</ele><time>2026-05-04T14:20:41.552Z</time></trkpt><trkpt lat="41.5593598" lon="0.7984895"><ele>261.0</ele><time>2026-05-04T14:20:42.551Z</time></trkpt><trkpt lat="41.5592948" lon="0.7986451"><ele>261.0</ele><time>2026-05-04T14:20:43.556Z</time></trkpt><trkpt lat="41.5592312" lon="0.7988042"><ele>261.0</ele><time>2026-05-04T14:20:44.549Z</time></trkpt><trkpt lat="41.5591682" lon="0.7989631"><ele>261.0</ele><time>2026-05-04T14:20:45.551Z</time></trkpt><trkpt lat="41.5591029" lon="0.7991225"><ele>261.0</ele><time>2026-05-04T14:20:46.554Z</time></trkpt><trkpt lat="41.5590331" lon="0.7992882"><ele>261.5</ele><time>2026-05-04T14:20:47.546Z</time></trkpt><trkpt lat="41.5589599" lon="0.7994427"><ele>262.0</ele><time>2026-05-04T14:20:48.552Z</time></trkpt><trkpt lat="41.5588777" lon="0.7995926"><ele>262.5</ele><time>2026-05-04T14:20:49.552Z</time></trkpt><trkpt lat="41.5587978" lon="0.7997343"><ele>263.0</ele><time>2026-05-04T14:20:50.557Z</time></trkpt><trkpt lat="41.5587312" lon="0.7998861"><ele>263.0</ele><time>2026-05-04T14:20:51.557Z</time></trkpt><trkpt lat="41.5586598" lon="0.800042"><ele>263.0</ele><time>2026-05-04T14:20:52.557Z</time></trkpt><trkpt lat="41.5585893" lon="0.8001932"><ele>263.0</ele><time>2026-05-04T14:20:53.556Z</time></trkpt><trkpt lat="41.5585292" lon="0.8003502"><ele>263.0</ele><time>2026-05-04T14:20:54.545Z</time></trkpt><trkpt lat="41.5584628" lon="0.8004898"><ele>263.4</ele><time>2026-05-04T14:20:55.558Z</time></trkpt><trkpt lat="41.5584007" lon="0.8006211"><ele>263.8</ele><time>2026-05-04T14:20:56.551Z</time></trkpt><trkpt lat="41.5583342" lon="0.8007502"><ele>264.2</ele><time>2026-05-04T14:20:57.556Z</time></trkpt><trkpt lat="41.5582784" lon="0.8008719"><ele>264.6</ele><time>2026-05-04T14:20:58.56Z</time></trkpt><trkpt lat="41.5582207" lon="0.8009818"><ele>265.0</ele><time>2026-05-04T14:20:59.555Z</time></trkpt><trkpt lat="41.5581725" lon="0.801096"><ele>265.0</ele><time>2026-05-04T14:21:00.549Z</time></trkpt><trkpt lat="41.5581282" lon="0.801196"><ele>265.0</ele><time>2026-05-04T14:21:01.551Z</time></trkpt><trkpt lat="41.55808" lon="0.8012896"><ele>265.0</ele><time>2026-05-04T14:21:02.568Z</time></trkpt><trkpt lat="41.5580371" lon="0.8013898"><ele>265.0</ele><time>2026-05-04T14:21:03.551Z</time></trkpt><trkpt lat="41.5579928" lon="0.8014926"><ele>265.0</ele><time>2026-05-04T14:21:04.553Z</time></trkpt><trkpt lat="41.5579484" lon="0.8015982"><ele>265.0</ele><time>2026-05-04T14:21:05.554Z</time></trkpt><trkpt lat="41.5579013" lon="0.8017055"><ele>265.4</ele><time>2026-05-04T14:21:06.552Z</time></trkpt><trkpt lat="41.5578499" lon="0.8018131"><ele>265.8</ele><time>2026-05-04T14:21:07.551Z</time></trkpt><trkpt lat="41.5577954" lon="0.8019271"><ele>266.2</ele><time>2026-05-04T14:21:08.554Z</time></trkpt><trkpt lat="41.5577402" lon="0.8020395"><ele>266.6</ele><time>2026-05-04T14:21:09.548Z</time></trkpt><trkpt lat="41.5576845" lon="0.8021582"><ele>267.0</ele><time>2026-05-04T14:21:10.543Z</time></trkpt><trkpt lat="41.5576326" lon="0.8022826"><ele>267.0</ele><time>2026-05-04T14:21:11.544Z</time></trkpt><trkpt lat="41.5575816" lon="0.8024101"><ele>267.0</ele><time>2026-05-04T14:21:12.542Z</time></trkpt><trkpt lat="41.5575315" lon="0.8025314"><ele>267.0</ele><time>2026-05-04T14:21:13.552Z</time></trkpt><trkpt lat="41.5574804" lon="0.8026576"><ele>267.0</ele><time>2026-05-04T14:21:14.55Z</time></trkpt><trkpt lat="41.5574277" lon="0.8027833"><ele>267.0</ele><time>2026-05-04T14:21:15.55Z</time></trkpt><trkpt lat="41.5573715" lon="0.8029083"><ele>266.75</ele><time>2026-05-04T14:21:16.551Z</time></trkpt><trkpt lat="41.5573185" lon="0.8030374"><ele>266.5</ele><time>2026-05-04T14:21:17.553Z</time></trkpt><trkpt lat="41.5572605" lon="0.8031647"><ele>266.25</ele><time>2026-05-04T14:21:18.55Z</time></trkpt><trkpt lat="41.5572021" lon="0.8032951"><ele>266.0</ele><time>2026-05-04T14:21:19.55Z</time></trkpt><trkpt lat="41.5571459" lon="0.8034308"><ele>266.75</ele><time>2026-05-04T14:21:20.555Z</time></trkpt><trkpt lat="41.5570895" lon="0.803566"><ele>267.5</ele><time>2026-05-04T14:21:21.552Z</time></trkpt><trkpt lat="41.5570266" lon="0.8036999"><ele>268.25</ele><time>2026-05-04T14:21:22.552Z</time></trkpt><trkpt lat="41.556964" lon="0.8038295"><ele>269.0</ele><time>2026-05-04T14:21:23.552Z</time></trkpt><trkpt lat="41.5569025" lon="0.8039663"><ele>269.25</ele><time>2026-05-04T14:21:24.55Z</time></trkpt><trkpt lat="41.5568395" lon="0.8041031"><ele>269.5</ele><time>2026-05-04T14:21:25.553Z</time></trkpt><trkpt lat="41.5567737" lon="0.8042361"><ele>269.75</ele><time>2026-05-04T14:21:26.549Z</time></trkpt><trkpt lat="41.5567074" lon="0.8043758"><ele>270.0</ele><time>2026-05-04T14:21:27.553Z</time></trkpt><trkpt lat="41.5566358" lon="0.8045185"><ele>270.0</ele><time>2026-05-04T14:21:28.542Z</time></trkpt><trkpt lat="41.556567" lon="0.8046645"><ele>270.0</ele><time>2026-05-04T14:21:29.548Z</time></trkpt><trkpt lat="41.5565027" lon="0.8048108"><ele>270.0</ele><time>2026-05-04T14:21:30.551Z</time></trkpt><trkpt lat="41.5564384" lon="0.8049546"><ele>270.0</ele><time>2026-05-04T14:21:31.554Z</time></trkpt><trkpt lat="41.5563746" lon="0.8051021"><ele>270.25</ele><time>2026-05-04T14:21:32.553Z</time></trkpt><trkpt lat="41.5563085" lon="0.8052515"><ele>270.5</ele><time>2026-05-04T14:21:33.57Z</time></trkpt><trkpt lat="41.5562419" lon="0.8054"><ele>270.75</ele><time>2026-05-04T14:21:34.556Z</time></trkpt><trkpt lat="41.5561753" lon="0.805546"><ele>271.0</ele><time>2026-05-04T14:21:35.556Z</time></trkpt><trkpt lat="41.5561111" lon="0.8056968"><ele>271.0</ele><time>2026-05-04T14:21:36.551Z</time></trkpt><trkpt lat="41.5560465" lon="0.805844"><ele>271.0</ele><time>2026-05-04T14:21:37.545Z</time></trkpt><trkpt lat="41.5559835" lon="0.8059878"><ele>271.0</ele><time>2026-05-04T14:21:38.542Z</time></trkpt><trkpt lat="41.555925" lon="0.8061257"><ele>271.0</ele><time>2026-05-04T14:21:39.544Z</time></trkpt><trkpt lat="41.5558695" lon="0.80627"><ele>270.5</ele><time>2026-05-04T14:21:40.548Z</time></trkpt><trkpt lat="41.5558194" lon="0.8064159"><ele>270.0</ele><time>2026-05-04T14:21:41.551Z</time></trkpt><trkpt lat="41.5557697" lon="0.8065606"><ele>269.5</ele><time>2026-05-04T14:21:42.551Z</time></trkpt><trkpt lat="41.5557163" lon="0.8067077"><ele>269.0</ele><time>2026-05-04T14:21:43.555Z</time></trkpt><trkpt lat="41.5556607" lon="0.8068534"><ele>269.0</ele><time>2026-05-04T14:21:44.551Z</time></trkpt><trkpt lat="41.5556023" lon="0.8069993"><ele>269.0</ele><time>2026-05-04T14:21:45.553Z</time></trkpt><trkpt lat="41.5555464" lon="0.8071477"><ele>269.0</ele><time>2026-05-04T14:21:46.551Z</time></trkpt><trkpt lat="41.5554924" lon="0.807295"><ele>269.0</ele><time>2026-05-04T14:21:47.55Z</time></trkpt><trkpt lat="41.555435" lon="0.8074479"><ele>269.0</ele><time>2026-05-04T14:21:48.554Z</time></trkpt><trkpt lat="41.5553777" lon="0.8076037"><ele>269.0</ele><time>2026-05-04T14:21:49.556Z</time></trkpt><trkpt lat="41.555321" lon="0.807758"><ele>269.0</ele><time>2026-05-04T14:21:50.549Z</time></trkpt><trkpt lat="41.5552637" lon="0.8079045"><ele>269.0</ele><time>2026-05-04T14:21:51.544Z</time></trkpt><trkpt lat="41.5552044" lon="0.8080591"><ele>269.75</ele><time>2026-05-04T14:21:52.548Z</time></trkpt><trkpt lat="41.5551454" lon="0.808209"><ele>270.5</ele><time>2026-05-04T14:21:53.549Z</time></trkpt><trkpt lat="41.555088" lon="0.8083642"><ele>271.25</ele><time>2026-05-04T14:21:54.549Z</time></trkpt><trkpt lat="41.5550326" lon="0.8085213"><ele>272.0</ele><time>2026-05-04T14:21:55.552Z</time></trkpt><trkpt lat="41.5549743" lon="0.808674"><ele>272.0</ele><time>2026-05-04T14:21:56.548Z</time></trkpt><trkpt lat="41.5549153" lon="0.8088294"><ele>272.0</ele><time>2026-05-04T14:21:57.551Z</time></trkpt><trkpt lat="41.5548626" lon="0.8089864"><ele>272.0</ele><time>2026-05-04T14:21:58.552Z</time></trkpt><trkpt lat="41.5548088" lon="0.8091459"><ele>272.0</ele><time>2026-05-04T14:21:59.554Z</time></trkpt><trkpt lat="41.5547531" lon="0.8093023"><ele>272.0</ele><time>2026-05-04T14:22:00.56Z</time></trkpt><trkpt lat="41.5547001" lon="0.8094654"><ele>272.0</ele><time>2026-05-04T14:22:01.541Z</time></trkpt><trkpt lat="41.5546458" lon="0.8096306"><ele>272.0</ele><time>2026-05-04T14:22:02.548Z</time></trkpt><trkpt lat="41.5545931" lon="0.8097983"><ele>272.0</ele><time>2026-05-04T14:22:03.55Z</time></trkpt><trkpt lat="41.5545414" lon="0.8099642"><ele>272.5</ele><time>2026-05-04T14:22:04.564Z</time></trkpt><trkpt lat="41.5544884" lon="0.8101292"><ele>273.0</ele><time>2026-05-04T14:22:05.559Z</time></trkpt><trkpt lat="41.554434" lon="0.8102905"><ele>273.5</ele><time>2026-05-04T14:22:06.552Z</time></trkpt><trkpt lat="41.5543853" lon="0.8104518"><ele>274.0</ele><time>2026-05-04T14:22:07.552Z</time></trkpt><trkpt lat="41.554335" lon="0.8106148"><ele>274.0</ele><time>2026-05-04T14:22:08.553Z</time></trkpt><trkpt lat="41.5542894" lon="0.8107883"><ele>274.0</ele><time>2026-05-04T14:22:09.545Z</time></trkpt><trkpt lat="41.5542521" lon="0.8109437"><ele>274.0</ele><time>2026-05-04T14:22:10.55Z</time></trkpt><trkpt lat="41.5542091" lon="0.8110844"><ele>274.0</ele><time>2026-05-04T14:22:11.548Z</time></trkpt><trkpt lat="41.5541677" lon="0.8112309"><ele>274.2</ele><time>2026-05-04T14:22:12.548Z</time></trkpt><trkpt lat="41.5541251" lon="0.8113723"><ele>274.4</ele><time>2026-05-04T14:22:13.547Z</time></trkpt><trkpt lat="41.5540848" lon="0.8115084"><ele>274.6</ele><time>2026-05-04T14:22:14.543Z</time></trkpt><trkpt lat="41.5540446" lon="0.8116389"><ele>274.8</ele><time>2026-05-04T14:22:15.543Z</time></trkpt><trkpt lat="41.5540064" lon="0.8117747"><ele>275.0</ele><time>2026-05-04T14:22:16.546Z</time></trkpt><trkpt lat="41.5539642" lon="0.8119072"><ele>275.0</ele><time>2026-05-04T14:22:17.553Z</time></trkpt><trkpt lat="41.5539227" lon="0.8120324"><ele>275.0</ele><time>2026-05-04T14:22:18.554Z</time></trkpt><trkpt lat="41.5538772" lon="0.812162"><ele>275.0</ele><time>2026-05-04T14:22:19.55Z</time></trkpt><trkpt lat="41.5538312" lon="0.8122871"><ele>275.0</ele><time>2026-05-04T14:22:20.548Z</time></trkpt><trkpt lat="41.5537879" lon="0.8124106"><ele>275.0</ele><time>2026-05-04T14:22:21.551Z</time></trkpt><trkpt lat="41.5537509" lon="0.8125293"><ele>275.0</ele><time>2026-05-04T14:22:22.544Z</time></trkpt><trkpt lat="41.553719" lon="0.8126508"><ele>275.0</ele><time>2026-05-04T14:22:23.547Z</time></trkpt><trkpt lat="41.5536836" lon="0.8127658"><ele>275.0</ele><time>2026-05-04T14:22:24.549Z</time></trkpt><trkpt lat="41.5536141" lon="0.8129695"><ele>275.0</ele><time>2026-05-04T14:22:26.547Z</time></trkpt><trkpt lat="41.5535785" lon="0.8130682"><ele>275.0</ele><time>2026-05-04T14:22:27.549Z</time></trkpt><trkpt lat="41.5535508" lon="0.8131682"><ele>275.0</ele><time>2026-05-04T14:22:28.545Z</time></trkpt><trkpt lat="41.5535252" lon="0.8132752"><ele>275.0</ele><time>2026-05-04T14:22:29.551Z</time></trkpt><trkpt lat="41.5534994" lon="0.8133843"><ele>275.0</ele><time>2026-05-04T14:22:30.552Z</time></trkpt><trkpt lat="41.553474" lon="0.8134946"><ele>275.0</ele><time>2026-05-04T14:22:31.546Z</time></trkpt><trkpt lat="41.5534459" lon="0.8136082"><ele>275.0</ele><time>2026-05-04T14:22:32.549Z</time></trkpt><trkpt lat="41.5534106" lon="0.8137246"><ele>275.0</ele><time>2026-05-04T14:22:33.549Z</time></trkpt><trkpt lat="41.553374" lon="0.8138378"><ele>275.0</ele><time>2026-05-04T14:22:34.549Z</time></trkpt><trkpt lat="41.5533353" lon="0.8139613"><ele>275.0</ele><time>2026-05-04T14:22:35.565Z</time></trkpt><trkpt lat="41.5533004" lon="0.8140782"><ele>275.0</ele><time>2026-05-04T14:22:36.557Z</time></trkpt><trkpt lat="41.5532639" lon="0.8142018"><ele>275.0</ele><time>2026-05-04T14:22:37.544Z</time></trkpt><trkpt lat="41.5532222" lon="0.8143294"><ele>275.0</ele><time>2026-05-04T14:22:38.547Z</time></trkpt><trkpt lat="41.5531808" lon="0.8144569"><ele>275.6</ele><time>2026-05-04T14:22:39.548Z</time></trkpt><trkpt lat="41.5531413" lon="0.8145873"><ele>276.2</ele><time>2026-05-04T14:22:40.547Z</time></trkpt><trkpt lat="41.5531018" lon="0.8147163"><ele>276.8</ele><time>2026-05-04T14:22:41.547Z</time></trkpt><trkpt lat="41.553063" lon="0.8148478"><ele>277.4</ele><time>2026-05-04T14:22:42.548Z</time></trkpt><trkpt lat="41.5530269" lon="0.8149796"><ele>278.0</ele><time>2026-05-04T14:22:43.548Z</time></trkpt><trkpt lat="41.5529861" lon="0.8151148"><ele>278.0</ele><time>2026-05-04T14:22:44.543Z</time></trkpt><trkpt lat="41.5529442" lon="0.8152502"><ele>278.0</ele><time>2026-05-04T14:22:45.548Z</time></trkpt><trkpt lat="41.5529011" lon="0.8153849"><ele>278.0</ele><time>2026-05-04T14:22:46.55Z</time></trkpt><trkpt lat="41.5528632" lon="0.8155149"><ele>278.0</ele><time>2026-05-04T14:22:47.548Z</time></trkpt><trkpt lat="41.5528284" lon="0.8156422"><ele>278.0</ele><time>2026-05-04T14:22:48.549Z</time></trkpt><trkpt lat="41.5527876" lon="0.8157768"><ele>277.8</ele><time>2026-05-04T14:22:49.552Z</time></trkpt><trkpt lat="41.5527421" lon="0.8159064"><ele>277.6</ele><time>2026-05-04T14:22:50.547Z</time></trkpt><trkpt lat="41.5526966" lon="0.8160383"><ele>277.4</ele><time>2026-05-04T14:22:51.551Z</time></trkpt><trkpt lat="41.5526496" lon="0.8161719"><ele>277.2</ele><time>2026-05-04T14:22:52.549Z</time></trkpt><trkpt lat="41.5525975" lon="0.816304"><ele>277.0</ele><time>2026-05-04T14:22:53.559Z</time></trkpt><trkpt lat="41.5525428" lon="0.8164349"><ele>277.0</ele><time>2026-05-04T14:22:54.543Z</time></trkpt><trkpt lat="41.5524856" lon="0.8165673"><ele>277.0</ele><time>2026-05-04T14:22:55.556Z</time></trkpt><trkpt lat="41.5524261" lon="0.8166937"><ele>277.0</ele><time>2026-05-04T14:22:56.554Z</time></trkpt><trkpt lat="41.5523658" lon="0.8168184"><ele>277.0</ele><time>2026-05-04T14:22:57.552Z</time></trkpt><trkpt lat="41.5523065" lon="0.8169439"><ele>277.0</ele><time>2026-05-04T14:22:58.553Z</time></trkpt><trkpt lat="41.5522476" lon="0.8170671"><ele>277.0</ele><time>2026-05-04T14:22:59.554Z</time></trkpt><trkpt lat="41.5521856" lon="0.8171892"><ele>277.0</ele><time>2026-05-04T14:23:00.557Z</time></trkpt><trkpt lat="41.5521231" lon="0.8173094"><ele>277.0</ele><time>2026-05-04T14:23:01.55Z</time></trkpt><trkpt lat="41.5520673" lon="0.8174303"><ele>277.0</ele><time>2026-05-04T14:23:02.55Z</time></trkpt><trkpt lat="41.5520101" lon="0.8175515"><ele>277.0</ele><time>2026-05-04T14:23:03.549Z</time></trkpt><trkpt lat="41.5519528" lon="0.8176716"><ele>277.0</ele><time>2026-05-04T14:23:04.549Z</time></trkpt><trkpt lat="41.55189" lon="0.81779"><ele>277.0</ele><time>2026-05-04T14:23:05.552Z</time></trkpt><trkpt lat="41.5518282" lon="0.8179048"><ele>277.0</ele><time>2026-05-04T14:23:06.567Z</time></trkpt><trkpt lat="41.551771" lon="0.8180248"><ele>277.0</ele><time>2026-05-04T14:23:07.551Z</time></trkpt><trkpt lat="41.5517131" lon="0.8181466"><ele>277.0</ele><time>2026-05-04T14:23:08.551Z</time></trkpt><trkpt lat="41.5516546" lon="0.8182662"><ele>277.0</ele><time>2026-05-04T14:23:09.556Z</time></trkpt><trkpt lat="41.5515976" lon="0.8183893"><ele>277.0</ele><time>2026-05-04T14:23:10.559Z</time></trkpt><trkpt lat="41.5515407" lon="0.8185093"><ele>277.0</ele><time>2026-05-04T14:23:11.552Z</time></trkpt><trkpt lat="41.5514817" lon="0.8186343"><ele>277.0</ele><time>2026-05-04T14:23:12.553Z</time></trkpt><trkpt lat="41.5514222" lon="0.8187565"><ele>277.0</ele><time>2026-05-04T14:23:13.549Z</time></trkpt><trkpt lat="41.5513619" lon="0.8188765"><ele>277.2</ele><time>2026-05-04T14:23:14.551Z</time></trkpt><trkpt lat="41.5513078" lon="0.8190015"><ele>277.4</ele><time>2026-05-04T14:23:15.548Z</time></trkpt><trkpt lat="41.5512555" lon="0.8191227"><ele>277.6</ele><time>2026-05-04T14:23:16.542Z</time></trkpt><trkpt lat="41.5511994" lon="0.8192435"><ele>277.8</ele><time>2026-05-04T14:23:17.546Z</time></trkpt><trkpt lat="41.5511414" lon="0.8193638"><ele>278.0</ele><time>2026-05-04T14:23:18.545Z</time></trkpt><trkpt lat="41.5510826" lon="0.8194844"><ele>277.4</ele><time>2026-05-04T14:23:19.545Z</time></trkpt><trkpt lat="41.5510248" lon="0.8196078"><ele>276.8</ele><time>2026-05-04T14:23:20.545Z</time></trkpt><trkpt lat="41.550969" lon="0.819728"><ele>276.2</ele><time>2026-05-04T14:23:21.545Z</time></trkpt><trkpt lat="41.5509099" lon="0.8198475"><ele>275.6</ele><time>2026-05-04T14:23:22.548Z</time></trkpt><trkpt lat="41.5508468" lon="0.8199595"><ele>275.0</ele><time>2026-05-04T14:23:23.548Z</time></trkpt><trkpt lat="41.5507775" lon="0.8200723"><ele>275.4</ele><time>2026-05-04T14:23:24.549Z</time></trkpt><trkpt lat="41.5507099" lon="0.8201791"><ele>275.8</ele><time>2026-05-04T14:23:25.551Z</time></trkpt><trkpt lat="41.5506342" lon="0.8202889"><ele>276.2</ele><time>2026-05-04T14:23:26.547Z</time></trkpt><trkpt lat="41.550557" lon="0.8203867"><ele>276.6</ele><time>2026-05-04T14:23:27.547Z</time></trkpt><trkpt lat="41.5504669" lon="0.8204787"><ele>277.0</ele><time>2026-05-04T14:23:28.548Z</time></trkpt><trkpt lat="41.5503793" lon="0.8205689"><ele>274.8</ele><time>2026-05-04T14:23:29.55Z</time></trkpt><trkpt lat="41.5502857" lon="0.8206548"><ele>272.6</ele><time>2026-05-04T14:23:30.547Z</time></trkpt><trkpt lat="41.550196" lon="0.8207315"><ele>270.40000000000003</ele><time>2026-05-04T14:23:31.549Z</time></trkpt><trkpt lat="41.5500995" lon="0.8208045"><ele>268.2</ele><time>2026-05-04T14:23:32.549Z</time></trkpt><trkpt lat="41.550001" lon="0.8208634"><ele>266.0</ele><time>2026-05-04T14:23:33.548Z</time></trkpt><trkpt lat="41.5498986" lon="0.820916"><ele>266.0</ele><time>2026-05-04T14:23:34.543Z</time></trkpt><trkpt lat="41.5497931" lon="0.8209586"><ele>266.0</ele><time>2026-05-04T14:23:35.55Z</time></trkpt><trkpt lat="41.5496832" lon="0.8210043"><ele>266.0</ele><time>2026-05-04T14:23:36.553Z</time></trkpt><trkpt lat="41.549569" lon="0.8210503"><ele>266.0</ele><time>2026-05-04T14:23:37.56Z</time></trkpt><trkpt lat="41.5494546" lon="0.8210845"><ele>265.25</ele><time>2026-05-04T14:23:38.545Z</time></trkpt><trkpt lat="41.5493364" lon="0.8211064"><ele>264.5</ele><time>2026-05-04T14:23:39.545Z</time></trkpt><trkpt lat="41.5492239" lon="0.8211157"><ele>263.75</ele><time>2026-05-04T14:23:40.542Z</time></trkpt><trkpt lat="41.5491117" lon="0.8211269"><ele>263.0</ele><time>2026-05-04T14:23:41.547Z</time></trkpt><trkpt lat="41.548994" lon="0.8211353"><ele>263.0</ele><time>2026-05-04T14:23:42.55Z</time></trkpt><trkpt lat="41.5488808" lon="0.8211463"><ele>263.0</ele><time>2026-05-04T14:23:43.551Z</time></trkpt><trkpt lat="41.5487613" lon="0.821158"><ele>263.0</ele><time>2026-05-04T14:23:44.547Z</time></trkpt><trkpt lat="41.5486402" lon="0.8211669"><ele>263.0</ele><time>2026-05-04T14:23:45.548Z</time></trkpt><trkpt lat="41.548518" lon="0.821178"><ele>263.25</ele><time>2026-05-04T14:23:46.544Z</time></trkpt><trkpt lat="41.5483988" lon="0.8211881"><ele>263.5</ele><time>2026-05-04T14:23:47.546Z</time></trkpt><trkpt lat="41.5482844" lon="0.8212001"><ele>263.75</ele><time>2026-05-04T14:23:48.546Z</time></trkpt><trkpt lat="41.5481669" lon="0.8212142"><ele>264.0</ele><time>2026-05-04T14:23:49.548Z</time></trkpt><trkpt lat="41.5480533" lon="0.8212262"><ele>264.0</ele><time>2026-05-04T14:23:50.542Z</time></trkpt><trkpt lat="41.5479389" lon="0.8212356"><ele>264.0</ele><time>2026-05-04T14:23:51.542Z</time></trkpt><trkpt lat="41.5478288" lon="0.8212492"><ele>264.0</ele><time>2026-05-04T14:23:52.545Z</time></trkpt><trkpt lat="41.547716" lon="0.821265"><ele>264.0</ele><time>2026-05-04T14:23:53.54Z</time></trkpt><trkpt lat="41.5476092" lon="0.821281"><ele>264.0</ele><time>2026-05-04T14:23:54.55Z</time></trkpt><trkpt lat="41.5475022" lon="0.8212925"><ele>263.59999999999997</ele><time>2026-05-04T14:23:55.545Z</time></trkpt><trkpt lat="41.5473952" lon="0.8212981"><ele>263.2</ele><time>2026-05-04T14:23:56.54Z</time></trkpt><trkpt lat="41.5472884" lon="0.8213087"><ele>262.79999999999995</ele><time>2026-05-04T14:23:57.544Z</time></trkpt><trkpt lat="41.5471818" lon="0.821319"><ele>262.4</ele><time>2026-05-04T14:23:58.547Z</time></trkpt><trkpt lat="41.5470775" lon="0.8213297"><ele>262.0</ele><time>2026-05-04T14:23:59.549Z</time></trkpt><trkpt lat="41.5469793" lon="0.821343"><ele>261.2</ele><time>2026-05-04T14:24:00.535Z</time></trkpt><trkpt lat="41.5468768" lon="0.8213445"><ele>260.4</ele><time>2026-05-04T14:24:01.542Z</time></trkpt><trkpt lat="41.5467685" lon="0.8213522"><ele>259.6</ele><time>2026-05-04T14:24:02.543Z</time></trkpt><trkpt lat="41.5466624" lon="0.8213542"><ele>258.8</ele><time>2026-05-04T14:24:03.543Z</time></trkpt><trkpt lat="41.5465545" lon="0.82136"><ele>258.0</ele><time>2026-05-04T14:24:04.543Z</time></trkpt><trkpt lat="41.5464504" lon="0.8213671"><ele>258.0</ele><time>2026-05-04T14:24:05.542Z</time></trkpt><trkpt lat="41.5463428" lon="0.8213755"><ele>258.0</ele><time>2026-05-04T14:24:06.541Z</time></trkpt><trkpt lat="41.5462373" lon="0.8213868"><ele>258.0</ele><time>2026-05-04T14:24:07.534Z</time></trkpt><trkpt lat="41.5461317" lon="0.8213992"><ele>258.0</ele><time>2026-05-04T14:24:08.558Z</time></trkpt><trkpt lat="41.5460275" lon="0.8214105"><ele>258.0</ele><time>2026-05-04T14:24:09.539Z</time></trkpt><trkpt lat="41.5459245" lon="0.8214221"><ele>257.5</ele><time>2026-05-04T14:24:10.545Z</time></trkpt><trkpt lat="41.545816" lon="0.821437"><ele>257.0</ele><time>2026-05-04T14:24:11.541Z</time></trkpt><trkpt lat="41.5457021" lon="0.8214574"><ele>256.5</ele><time>2026-05-04T14:24:12.548Z</time></trkpt><trkpt lat="41.5455808" lon="0.821481"><ele>256.0</ele><time>2026-05-04T14:24:13.55Z</time></trkpt><trkpt lat="41.5454604" lon="0.8214997"><ele>255.5</ele><time>2026-05-04T14:24:14.547Z</time></trkpt><trkpt lat="41.5453396" lon="0.8215153"><ele>255.0</ele><time>2026-05-04T14:24:15.543Z</time></trkpt><trkpt lat="41.5452164" lon="0.8215215"><ele>254.5</ele><time>2026-05-04T14:24:16.548Z</time></trkpt><trkpt lat="41.5450946" lon="0.8215346"><ele>254.0</ele><time>2026-05-04T14:24:17.545Z</time></trkpt><trkpt lat="41.5449768" lon="0.8215429"><ele>254.0</ele><time>2026-05-04T14:24:18.544Z</time></trkpt><trkpt lat="41.5448608" lon="0.8215548"><ele>254.0</ele><time>2026-05-04T14:24:19.549Z</time></trkpt><trkpt lat="41.5447449" lon="0.8215683"><ele>254.0</ele><time>2026-05-04T14:24:20.538Z</time></trkpt><trkpt lat="41.5446327" lon="0.8215859"><ele>254.0</ele><time>2026-05-04T14:24:21.54Z</time></trkpt><trkpt lat="41.5445132" lon="0.8216006"><ele>253.0</ele><time>2026-05-04T14:24:22.545Z</time></trkpt><trkpt lat="41.5443912" lon="0.8216203"><ele>252.0</ele><time>2026-05-04T14:24:23.547Z</time></trkpt><trkpt lat="41.5442648" lon="0.8216333"><ele>251.0</ele><time>2026-05-04T14:24:24.546Z</time></trkpt><trkpt lat="41.5441328" lon="0.8216416"><ele>250.0</ele><time>2026-05-04T14:24:25.544Z</time></trkpt><trkpt lat="41.5439994" lon="0.8216522"><ele>250.0</ele><time>2026-05-04T14:24:26.543Z</time></trkpt><trkpt lat="41.5438639" lon="0.8216693"><ele>250.0</ele><time>2026-05-04T14:24:27.545Z</time></trkpt><trkpt lat="41.5437282" lon="0.8216851"><ele>250.0</ele><time>2026-05-04T14:24:28.547Z</time></trkpt><trkpt lat="41.5435932" lon="0.8216983"><ele>250.0</ele><time>2026-05-04T14:24:29.544Z</time></trkpt><trkpt lat="41.54346" lon="0.8217147"><ele>248.5</ele><time>2026-05-04T14:24:30.55Z</time></trkpt><trkpt lat="41.5433266" lon="0.8217304"><ele>247.0</ele><time>2026-05-04T14:24:31.545Z</time></trkpt><trkpt lat="41.5431953" lon="0.821747"><ele>245.5</ele><time>2026-05-04T14:24:32.548Z</time></trkpt><trkpt lat="41.5430661" lon="0.8217588"><ele>244.0</ele><time>2026-05-04T14:24:33.544Z</time></trkpt><trkpt lat="41.5429388" lon="0.8217743"><ele>243.75</ele><time>2026-05-04T14:24:34.546Z</time></trkpt><trkpt lat="41.5428145" lon="0.821789"><ele>243.5</ele><time>2026-05-04T14:24:35.547Z</time></trkpt><trkpt lat="41.542691" lon="0.8218045"><ele>243.25</ele><time>2026-05-04T14:24:36.545Z</time></trkpt><trkpt lat="41.5425666" lon="0.8218199"><ele>243.0</ele><time>2026-05-04T14:24:37.542Z</time></trkpt><trkpt lat="41.5424436" lon="0.8218507"><ele>243.0</ele><time>2026-05-04T14:24:38.541Z</time></trkpt><trkpt lat="41.542325" lon="0.8218855"><ele>243.0</ele><time>2026-05-04T14:24:39.56Z</time></trkpt><trkpt lat="41.5422056" lon="0.8219301"><ele>243.0</ele><time>2026-05-04T14:24:40.542Z</time></trkpt><trkpt lat="41.542088" lon="0.821983"><ele>243.0</ele><time>2026-05-04T14:24:41.54Z</time></trkpt><trkpt lat="41.5419732" lon="0.8220412"><ele>243.25</ele><time>2026-05-04T14:24:42.547Z</time></trkpt><trkpt lat="41.5418641" lon="0.8221096"><ele>243.5</ele><time>2026-05-04T14:24:43.541Z</time></trkpt><trkpt lat="41.5417559" lon="0.8221901"><ele>243.75</ele><time>2026-05-04T14:24:44.545Z</time></trkpt><trkpt lat="41.5416523" lon="0.8222801"><ele>244.0</ele><time>2026-05-04T14:24:45.544Z</time></trkpt><trkpt lat="41.5415533" lon="0.8223848"><ele>244.0</ele><time>2026-05-04T14:24:46.541Z</time></trkpt><trkpt lat="41.5414595" lon="0.8224886"><ele>244.0</ele><time>2026-05-04T14:24:47.548Z</time></trkpt><trkpt lat="41.5413675" lon="0.8225952"><ele>244.0</ele><time>2026-05-04T14:24:48.547Z</time></trkpt><trkpt lat="41.5412779" lon="0.8227074"><ele>244.0</ele><time>2026-05-04T14:24:49.546Z</time></trkpt><trkpt lat="41.541196" lon="0.8228328"><ele>245.0</ele><time>2026-05-04T14:24:50.544Z</time></trkpt><trkpt lat="41.5411199" lon="0.8229587"><ele>246.0</ele><time>2026-05-04T14:24:51.545Z</time></trkpt><trkpt lat="41.541053" lon="0.8230943"><ele>247.0</ele><time>2026-05-04T14:24:52.543Z</time></trkpt><trkpt lat="41.5409925" lon="0.8232371"><ele>248.0</ele><time>2026-05-04T14:24:53.543Z</time></trkpt><trkpt lat="41.5409334" lon="0.8233946"><ele>247.75</ele><time>2026-05-04T14:24:54.55Z</time></trkpt><trkpt lat="41.5408871" lon="0.8235519"><ele>247.5</ele><time>2026-05-04T14:24:55.542Z</time></trkpt><trkpt lat="41.5408476" lon="0.8237096"><ele>247.25</ele><time>2026-05-04T14:24:56.541Z</time></trkpt><trkpt lat="41.5408122" lon="0.8238718"><ele>247.0</ele><time>2026-05-04T14:24:57.544Z</time></trkpt><trkpt lat="41.5407854" lon="0.8240374"><ele>247.0</ele><time>2026-05-04T14:24:58.542Z</time></trkpt><trkpt lat="41.5407628" lon="0.8242067"><ele>247.0</ele><time>2026-05-04T14:24:59.545Z</time></trkpt><trkpt lat="41.5407506" lon="0.8243789"><ele>247.0</ele><time>2026-05-04T14:25:00.536Z</time></trkpt><trkpt lat="41.5407447" lon="0.8245563"><ele>247.0</ele><time>2026-05-04T14:25:01.542Z</time></trkpt><trkpt lat="41.540745" lon="0.8247299"><ele>246.75</ele><time>2026-05-04T14:25:02.545Z</time></trkpt><trkpt lat="41.5407443" lon="0.8249141"><ele>246.5</ele><time>2026-05-04T14:25:03.543Z</time></trkpt><trkpt lat="41.5407439" lon="0.8251001"><ele>246.25</ele><time>2026-05-04T14:25:04.549Z</time></trkpt><trkpt lat="41.5407428" lon="0.8252768"><ele>246.0</ele><time>2026-05-04T14:25:05.547Z</time></trkpt><trkpt lat="41.5407414" lon="0.8254531"><ele>246.5</ele><time>2026-05-04T14:25:06.545Z</time></trkpt><trkpt lat="41.5407345" lon="0.8256257"><ele>247.0</ele><time>2026-05-04T14:25:07.546Z</time></trkpt><trkpt lat="41.5407286" lon="0.8257985"><ele>247.5</ele><time>2026-05-04T14:25:08.546Z</time></trkpt><trkpt lat="41.5407233" lon="0.8259647"><ele>248.0</ele><time>2026-05-04T14:25:09.547Z</time></trkpt><trkpt lat="41.5407171" lon="0.8261273"><ele>248.0</ele><time>2026-05-04T14:25:10.562Z</time></trkpt><trkpt lat="41.5407004" lon="0.8264629"><ele>248.0</ele><time>2026-05-04T14:25:12.545Z</time></trkpt><trkpt lat="41.5406937" lon="0.826636"><ele>248.0</ele><time>2026-05-04T14:25:13.549Z</time></trkpt><trkpt lat="41.5406831" lon="0.8268007"><ele>248.0</ele><time>2026-05-04T14:25:14.546Z</time></trkpt><trkpt lat="41.5406761" lon="0.8269621"><ele>248.0</ele><time>2026-05-04T14:25:15.541Z</time></trkpt><trkpt lat="41.5406714" lon="0.8271245"><ele>248.0</ele><time>2026-05-04T14:25:16.542Z</time></trkpt><trkpt lat="41.5406658" lon="0.8272863"><ele>248.0</ele><time>2026-05-04T14:25:17.538Z</time></trkpt><trkpt lat="41.5406547" lon="0.827446"><ele>248.0</ele><time>2026-05-04T14:25:18.548Z</time></trkpt><trkpt lat="41.5406446" lon="0.8276008"><ele>248.0</ele><time>2026-05-04T14:25:19.547Z</time></trkpt><trkpt lat="41.5406309" lon="0.8277576"><ele>248.0</ele><time>2026-05-04T14:25:20.544Z</time></trkpt><trkpt lat="41.540619" lon="0.8279185"><ele>248.0</ele><time>2026-05-04T14:25:21.544Z</time></trkpt><trkpt lat="41.5406089" lon="0.8280759"><ele>247.75</ele><time>2026-05-04T14:25:22.546Z</time></trkpt><trkpt lat="41.5405987" lon="0.8282375"><ele>247.5</ele><time>2026-05-04T14:25:23.545Z</time></trkpt><trkpt lat="41.5405902" lon="0.8283999"><ele>247.25</ele><time>2026-05-04T14:25:24.545Z</time></trkpt><trkpt lat="41.5405814" lon="0.8285601"><ele>247.0</ele><time>2026-05-04T14:25:25.544Z</time></trkpt><trkpt lat="41.5405759" lon="0.8287219"><ele>247.0</ele><time>2026-05-04T14:25:26.543Z</time></trkpt><trkpt lat="41.5405686" lon="0.8288862"><ele>247.0</ele><time>2026-05-04T14:25:27.547Z</time></trkpt><trkpt lat="41.5405569" lon="0.8290529"><ele>247.0</ele><time>2026-05-04T14:25:28.543Z</time></trkpt><trkpt lat="41.5405419" lon="0.8292185"><ele>247.0</ele><time>2026-05-04T14:25:29.544Z</time></trkpt><trkpt lat="41.5405215" lon="0.8293827"><ele>247.75</ele><time>2026-05-04T14:25:30.546Z</time></trkpt><trkpt lat="41.5404943" lon="0.8295409"><ele>248.5</ele><time>2026-05-04T14:25:31.544Z</time></trkpt><trkpt lat="41.5404588" lon="0.8296929"><ele>249.25</ele><time>2026-05-04T14:25:32.546Z</time></trkpt><trkpt lat="41.5404159" lon="0.8298445"><ele>250.0</ele><time>2026-05-04T14:25:33.54Z</time></trkpt><trkpt lat="41.5403672" lon="0.8299881"><ele>250.25</ele><time>2026-05-04T14:25:34.538Z</time></trkpt><trkpt lat="41.5403164" lon="0.8301276"><ele>250.5</ele><time>2026-05-04T14:25:35.54Z</time></trkpt><trkpt lat="41.5402597" lon="0.8302636"><ele>250.75</ele><time>2026-05-04T14:25:36.543Z</time></trkpt><trkpt lat="41.5401984" lon="0.830398"><ele>251.0</ele><time>2026-05-04T14:25:37.545Z</time></trkpt><trkpt lat="41.5401328" lon="0.8305241"><ele>251.0</ele><time>2026-05-04T14:25:38.544Z</time></trkpt><trkpt lat="41.5400625" lon="0.8306405"><ele>251.0</ele><time>2026-05-04T14:25:39.547Z</time></trkpt><trkpt lat="41.5399888" lon="0.830758"><ele>251.0</ele><time>2026-05-04T14:25:40.538Z</time></trkpt><trkpt lat="41.5399156" lon="0.830884"><ele>251.0</ele><time>2026-05-04T14:25:41.557Z</time></trkpt><trkpt lat="41.5398445" lon="0.8310197"><ele>251.0</ele><time>2026-05-04T14:25:42.544Z</time></trkpt><trkpt lat="41.5397745" lon="0.8311545"><ele>251.0</ele><time>2026-05-04T14:25:43.546Z</time></trkpt><trkpt lat="41.5397026" lon="0.8312913"><ele>251.0</ele><time>2026-05-04T14:25:44.543Z</time></trkpt><trkpt lat="41.5396293" lon="0.8314204"><ele>251.0</ele><time>2026-05-04T14:25:45.544Z</time></trkpt><trkpt lat="41.5395502" lon="0.8315517"><ele>251.25</ele><time>2026-05-04T14:25:46.545Z</time></trkpt><trkpt lat="41.5394775" lon="0.8316824"><ele>251.5</ele><time>2026-05-04T14:25:47.543Z</time></trkpt><trkpt lat="41.5394025" lon="0.8318157"><ele>251.75</ele><time>2026-05-04T14:25:48.546Z</time></trkpt><trkpt lat="41.5393279" lon="0.831953"><ele>252.0</ele><time>2026-05-04T14:25:49.55Z</time></trkpt><trkpt lat="41.5392495" lon="0.8320875"><ele>252.0</ele><time>2026-05-04T14:25:50.543Z</time></trkpt><trkpt lat="41.5391777" lon="0.8322198"><ele>252.0</ele><time>2026-05-04T14:25:51.543Z</time></trkpt><trkpt lat="41.5391013" lon="0.8323584"><ele>252.0</ele><time>2026-05-04T14:25:52.546Z</time></trkpt><trkpt lat="41.5390325" lon="0.8324909"><ele>252.0</ele><time>2026-05-04T14:25:53.546Z</time></trkpt><trkpt lat="41.5389568" lon="0.8326199"><ele>251.75</ele><time>2026-05-04T14:25:54.545Z</time></trkpt><trkpt lat="41.5388844" lon="0.832751"><ele>251.5</ele><time>2026-05-04T14:25:55.544Z</time></trkpt><trkpt lat="41.5388085" lon="0.8328771"><ele>251.25</ele><time>2026-05-04T14:25:56.55Z</time></trkpt><trkpt lat="41.5387346" lon="0.8330046"><ele>251.0</ele><time>2026-05-04T14:25:57.55Z</time></trkpt><trkpt lat="41.5386639" lon="0.8331359"><ele>251.5</ele><time>2026-05-04T14:25:58.554Z</time></trkpt><trkpt lat="41.5385938" lon="0.8332665"><ele>252.0</ele><time>2026-05-04T14:25:59.548Z</time></trkpt><trkpt lat="41.5385283" lon="0.8333988"><ele>252.5</ele><time>2026-05-04T14:26:00.549Z</time></trkpt><trkpt lat="41.538458" lon="0.833533"><ele>253.0</ele><time>2026-05-04T14:26:01.545Z</time></trkpt><trkpt lat="41.5383896" lon="0.8336661"><ele>253.0</ele><time>2026-05-04T14:26:02.541Z</time></trkpt><trkpt lat="41.5383136" lon="0.8337977"><ele>253.0</ele><time>2026-05-04T14:26:03.533Z</time></trkpt><trkpt lat="41.5382363" lon="0.833928"><ele>253.0</ele><time>2026-05-04T14:26:04.538Z</time></trkpt><trkpt lat="41.5381621" lon="0.8340523"><ele>253.0</ele><time>2026-05-04T14:26:05.54Z</time></trkpt><trkpt lat="41.5380908" lon="0.8341821"><ele>253.0</ele><time>2026-05-04T14:26:06.541Z</time></trkpt><trkpt lat="41.5380153" lon="0.8343189"><ele>253.0</ele><time>2026-05-04T14:26:07.54Z</time></trkpt><trkpt lat="41.5379405" lon="0.8344491"><ele>253.0</ele><time>2026-05-04T14:26:08.541Z</time></trkpt><trkpt lat="41.5378679" lon="0.8345848"><ele>253.0</ele><time>2026-05-04T14:26:09.544Z</time></trkpt><trkpt lat="41.5377956" lon="0.834723"><ele>253.25</ele><time>2026-05-04T14:26:10.543Z</time></trkpt><trkpt lat="41.5377179" lon="0.8348622"><ele>253.5</ele><time>2026-05-04T14:26:11.543Z</time></trkpt><trkpt lat="41.5376357" lon="0.8349999"><ele>253.75</ele><time>2026-05-04T14:26:12.564Z</time></trkpt><trkpt lat="41.5375714" lon="0.8351328"><ele>254.0</ele><time>2026-05-04T14:26:13.554Z</time></trkpt><trkpt lat="41.5375087" lon="0.8352513"><ele>254.0</ele><time>2026-05-04T14:26:14.547Z</time></trkpt><trkpt lat="41.53745" lon="0.835378"><ele>254.0</ele><time>2026-05-04T14:26:15.537Z</time></trkpt><trkpt lat="41.5373745" lon="0.8355063"><ele>254.0</ele><time>2026-05-04T14:26:16.526Z</time></trkpt><trkpt lat="41.5373042" lon="0.8356489"><ele>254.0</ele><time>2026-05-04T14:26:17.535Z</time></trkpt><trkpt lat="41.5372319" lon="0.8357765"><ele>254.0</ele><time>2026-05-04T14:26:18.525Z</time></trkpt><trkpt lat="41.5371569" lon="0.8359153"><ele>254.0</ele><time>2026-05-04T14:26:19.539Z</time></trkpt><trkpt lat="41.5370667" lon="0.8360452"><ele>254.0</ele><time>2026-05-04T14:26:20.544Z</time></trkpt><trkpt lat="41.5369836" lon="0.83619"><ele>254.0</ele><time>2026-05-04T14:26:21.546Z</time></trkpt><trkpt lat="41.5369016" lon="0.8363339"><ele>254.25</ele><time>2026-05-04T14:26:22.545Z</time></trkpt><trkpt lat="41.536823" lon="0.8364772"><ele>254.5</ele><time>2026-05-04T14:26:23.548Z</time></trkpt><trkpt lat="41.536745" lon="0.8366171"><ele>254.75</ele><time>2026-05-04T14:26:24.54Z</time></trkpt><trkpt lat="41.5366705" lon="0.8367587"><ele>255.0</ele><time>2026-05-04T14:26:25.55Z</time></trkpt><trkpt lat="41.5365974" lon="0.8369038"><ele>255.25</ele><time>2026-05-04T14:26:26.547Z</time></trkpt><trkpt lat="41.5365173" lon="0.8370444"><ele>255.5</ele><time>2026-05-04T14:26:27.548Z</time></trkpt><trkpt lat="41.5364402" lon="0.8371795"><ele>255.75</ele><time>2026-05-04T14:26:28.547Z</time></trkpt><trkpt lat="41.5363607" lon="0.8373133"><ele>256.0</ele><time>2026-05-04T14:26:29.547Z</time></trkpt><trkpt lat="41.5362893" lon="0.8374486"><ele>255.75</ele><time>2026-05-04T14:26:30.548Z</time></trkpt><trkpt lat="41.5362131" lon="0.8375849"><ele>255.5</ele><time>2026-05-04T14:26:31.542Z</time></trkpt><trkpt lat="41.5361366" lon="0.8377178"><ele>255.25</ele><time>2026-05-04T14:26:32.545Z</time></trkpt><trkpt lat="41.5360659" lon="0.8378498"><ele>255.0</ele><time>2026-05-04T14:26:33.545Z</time></trkpt><trkpt lat="41.5359942" lon="0.8379745"><ele>255.0</ele><time>2026-05-04T14:26:34.545Z</time></trkpt><trkpt lat="41.5359247" lon="0.8381007"><ele>255.0</ele><time>2026-05-04T14:26:35.543Z</time></trkpt><trkpt lat="41.5358587" lon="0.8382242"><ele>255.0</ele><time>2026-05-04T14:26:36.54Z</time></trkpt><trkpt lat="41.5357895" lon="0.8383491"><ele>255.0</ele><time>2026-05-04T14:26:37.545Z</time></trkpt><trkpt lat="41.535718" lon="0.8384699"><ele>255.75</ele><time>2026-05-04T14:26:38.541Z</time></trkpt><trkpt lat="41.5356495" lon="0.8385991"><ele>256.5</ele><time>2026-05-04T14:26:39.546Z</time></trkpt><trkpt lat="41.5355793" lon="0.8387288"><ele>257.25</ele><time>2026-05-04T14:26:40.542Z</time></trkpt><trkpt lat="41.5355095" lon="0.8388521"><ele>258.0</ele><time>2026-05-04T14:26:41.541Z</time></trkpt><trkpt lat="41.5354402" lon="0.8389841"><ele>258.0</ele><time>2026-05-04T14:26:42.543Z</time></trkpt><trkpt lat="41.5353705" lon="0.839114"><ele>258.0</ele><time>2026-05-04T14:26:43.56Z</time></trkpt><trkpt lat="41.5353022" lon="0.8392469"><ele>258.0</ele><time>2026-05-04T14:26:44.543Z</time></trkpt><trkpt lat="41.5352309" lon="0.8393761"><ele>258.0</ele><time>2026-05-04T14:26:45.545Z</time></trkpt><trkpt lat="41.5351544" lon="0.8395038"><ele>258.0</ele><time>2026-05-04T14:26:46.546Z</time></trkpt><trkpt lat="41.5350849" lon="0.8396317"><ele>258.0</ele><time>2026-05-04T14:26:47.547Z</time></trkpt><trkpt lat="41.5350123" lon="0.8397565"><ele>258.0</ele><time>2026-05-04T14:26:48.547Z</time></trkpt><trkpt lat="41.5349426" lon="0.8398858"><ele>258.0</ele><time>2026-05-04T14:26:49.545Z</time></trkpt><trkpt lat="41.5348762" lon="0.8400128"><ele>257.25</ele><time>2026-05-04T14:26:50.542Z</time></trkpt><trkpt lat="41.5348076" lon="0.8401408"><ele>256.5</ele><time>2026-05-04T14:26:51.544Z</time></trkpt><trkpt lat="41.5347366" lon="0.8402649"><ele>255.75</ele><time>2026-05-04T14:26:52.546Z</time></trkpt><trkpt lat="41.5346628" lon="0.8403838"><ele>255.0</ele><time>2026-05-04T14:26:53.546Z</time></trkpt><trkpt lat="41.5345876" lon="0.8405044"><ele>255.0</ele><time>2026-05-04T14:26:54.553Z</time></trkpt><trkpt lat="41.5345209" lon="0.8406244"><ele>255.0</ele><time>2026-05-04T14:26:55.553Z</time></trkpt><trkpt lat="41.5344552" lon="0.8407405"><ele>255.0</ele><time>2026-05-04T14:26:56.554Z</time></trkpt><trkpt lat="41.5343911" lon="0.840857"><ele>255.0</ele><time>2026-05-04T14:26:57.553Z</time></trkpt><trkpt lat="41.5343283" lon="0.8409721"><ele>255.0</ele><time>2026-05-04T14:26:58.556Z</time></trkpt><trkpt lat="41.5342711" lon="0.8410822"><ele>255.0</ele><time>2026-05-04T14:26:59.553Z</time></trkpt><trkpt lat="41.5342079" lon="0.8411913"><ele>255.0</ele><time>2026-05-04T14:27:00.555Z</time></trkpt><trkpt lat="41.5341461" lon="0.8412984"><ele>255.0</ele><time>2026-05-04T14:27:01.55Z</time></trkpt><trkpt lat="41.5340855" lon="0.8414048"><ele>255.0</ele><time>2026-05-04T14:27:02.555Z</time></trkpt><trkpt lat="41.5340259" lon="0.841516"><ele>255.0</ele><time>2026-05-04T14:27:03.547Z</time></trkpt><trkpt lat="41.5339659" lon="0.8416363"><ele>255.0</ele><time>2026-05-04T14:27:04.552Z</time></trkpt><trkpt lat="41.5339061" lon="0.8417536"><ele>255.0</ele><time>2026-05-04T14:27:05.548Z</time></trkpt><trkpt lat="41.5338404" lon="0.8419006"><ele>255.0</ele><time>2026-05-04T14:27:06.537Z</time></trkpt><trkpt lat="41.5337771" lon="0.842025"><ele>255.0</ele><time>2026-05-04T14:27:07.533Z</time></trkpt><trkpt lat="41.5337078" lon="0.8421558"><ele>255.25</ele><time>2026-05-04T14:27:08.546Z</time></trkpt><trkpt lat="41.5336061" lon="0.8423228"><ele>255.5</ele><time>2026-05-04T14:27:09.543Z</time></trkpt><trkpt lat="41.5335205" lon="0.8424617"><ele>255.75</ele><time>2026-05-04T14:27:10.53Z</time></trkpt><trkpt lat="41.533436" lon="0.8426037"><ele>256.0</ele><time>2026-05-04T14:27:11.537Z</time></trkpt><trkpt lat="41.5333681" lon="0.8427304"><ele>256.25</ele><time>2026-05-04T14:27:12.531Z</time></trkpt><trkpt lat="41.5333011" lon="0.8428563"><ele>256.5</ele><time>2026-05-04T14:27:13.532Z</time></trkpt><trkpt lat="41.5332278" lon="0.8429953"><ele>256.75</ele><time>2026-05-04T14:27:14.566Z</time></trkpt><trkpt lat="41.5331588" lon="0.8431211"><ele>257.0</ele><time>2026-05-04T14:27:15.546Z</time></trkpt><trkpt lat="41.5330827" lon="0.8432544"><ele>257.0</ele><time>2026-05-04T14:27:16.546Z</time></trkpt><trkpt lat="41.5330095" lon="0.8433889"><ele>257.0</ele><time>2026-05-04T14:27:17.544Z</time></trkpt><trkpt lat="41.5329351" lon="0.8435252"><ele>257.0</ele><time>2026-05-04T14:27:18.548Z</time></trkpt><trkpt lat="41.5328595" lon="0.8436654"><ele>257.0</ele><time>2026-05-04T14:27:19.546Z</time></trkpt><trkpt lat="41.5327804" lon="0.8438039"><ele>258.0</ele><time>2026-05-04T14:27:20.542Z</time></trkpt><trkpt lat="41.5327018" lon="0.8439435"><ele>259.0</ele><time>2026-05-04T14:27:21.545Z</time></trkpt><trkpt lat="41.5326239" lon="0.8440753"><ele>260.0</ele><time>2026-05-04T14:27:22.545Z</time></trkpt><trkpt lat="41.5325504" lon="0.8442099"><ele>261.0</ele><time>2026-05-04T14:27:23.547Z</time></trkpt><trkpt lat="41.5324774" lon="0.844342"><ele>261.0</ele><time>2026-05-04T14:27:24.544Z</time></trkpt><trkpt lat="41.5324075" lon="0.8444763"><ele>261.0</ele><time>2026-05-04T14:27:25.543Z</time></trkpt><trkpt lat="41.5323347" lon="0.844605"><ele>261.0</ele><time>2026-05-04T14:27:26.546Z</time></trkpt><trkpt lat="41.5322576" lon="0.8447322"><ele>261.0</ele><time>2026-05-04T14:27:27.546Z</time></trkpt><trkpt lat="41.532178" lon="0.8448548"><ele>261.0</ele><time>2026-05-04T14:27:28.547Z</time></trkpt><trkpt lat="41.5321012" lon="0.844976"><ele>261.0</ele><time>2026-05-04T14:27:29.544Z</time></trkpt><trkpt lat="41.5320228" lon="0.8450974"><ele>261.0</ele><time>2026-05-04T14:27:30.548Z</time></trkpt><trkpt lat="41.5319497" lon="0.8452143"><ele>261.0</ele><time>2026-05-04T14:27:31.545Z</time></trkpt><trkpt lat="41.5318786" lon="0.8453378"><ele>262.5</ele><time>2026-05-04T14:27:32.547Z</time></trkpt><trkpt lat="41.5318127" lon="0.8454552"><ele>264.0</ele><time>2026-05-04T14:27:33.545Z</time></trkpt><trkpt lat="41.5317449" lon="0.8455811"><ele>265.5</ele><time>2026-05-04T14:27:34.546Z</time></trkpt><trkpt lat="41.5316667" lon="0.8457161"><ele>267.0</ele><time>2026-05-04T14:27:35.534Z</time></trkpt><trkpt lat="41.5315993" lon="0.8458334"><ele>267.0</ele><time>2026-05-04T14:27:36.534Z</time></trkpt><trkpt lat="41.5315387" lon="0.845954"><ele>267.0</ele><time>2026-05-04T14:27:37.548Z</time></trkpt><trkpt lat="41.5314904" lon="0.8460646"><ele>267.0</ele><time>2026-05-04T14:27:38.535Z</time></trkpt><trkpt lat="41.531443" lon="0.8461693"><ele>267.0</ele><time>2026-05-04T14:27:39.54Z</time></trkpt><trkpt lat="41.5313878" lon="0.8462787"><ele>267.0</ele><time>2026-05-04T14:27:40.538Z</time></trkpt><trkpt lat="41.5313268" lon="0.8463898"><ele>267.4</ele><time>2026-05-04T14:27:41.545Z</time></trkpt><trkpt lat="41.5312661" lon="0.8465043"><ele>267.79999999999995</ele><time>2026-05-04T14:27:42.551Z</time></trkpt><trkpt lat="41.5312075" lon="0.8466222"><ele>268.2</ele><time>2026-05-04T14:27:43.546Z</time></trkpt><trkpt lat="41.53114" lon="0.8467386"><ele>268.59999999999997</ele><time>2026-05-04T14:27:44.561Z</time></trkpt><trkpt lat="41.5310747" lon="0.8468526"><ele>269.0</ele><time>2026-05-04T14:27:45.545Z</time></trkpt><trkpt lat="41.5310088" lon="0.8469683"><ele>269.8</ele><time>2026-05-04T14:27:46.545Z</time></trkpt><trkpt lat="41.5309494" lon="0.8470843"><ele>270.59999999999997</ele><time>2026-05-04T14:27:47.542Z</time></trkpt><trkpt lat="41.5308872" lon="0.847202"><ele>271.4</ele><time>2026-05-04T14:27:48.549Z</time></trkpt><trkpt lat="41.5308279" lon="0.8473223"><ele>272.2</ele><time>2026-05-04T14:27:49.55Z</time></trkpt><trkpt lat="41.530778" lon="0.8474339"><ele>273.0</ele><time>2026-05-04T14:27:50.548Z</time></trkpt><trkpt lat="41.5307277" lon="0.847544"><ele>273.5</ele><time>2026-05-04T14:27:51.548Z</time></trkpt><trkpt lat="41.5306819" lon="0.8476319"><ele>274.0</ele><time>2026-05-04T14:27:52.538Z</time></trkpt><trkpt lat="41.5305919" lon="0.8477424"><ele>274.5</ele><time>2026-05-04T14:27:53.545Z</time></trkpt><trkpt lat="41.5304845" lon="0.8478534"><ele>275.0</ele><time>2026-05-04T14:27:54.532Z</time></trkpt><trkpt lat="41.5304138" lon="0.8480009"><ele>275.0</ele><time>2026-05-04T14:27:55.538Z</time></trkpt><trkpt lat="41.5303425" lon="0.8481381"><ele>275.0</ele><time>2026-05-04T14:27:56.538Z</time></trkpt><trkpt lat="41.5302688" lon="0.8482708"><ele>275.0</ele><time>2026-05-04T14:27:57.536Z</time></trkpt><trkpt lat="41.5301973" lon="0.8484119"><ele>275.0</ele><time>2026-05-04T14:27:58.541Z</time></trkpt><trkpt lat="41.5301311" lon="0.8485484"><ele>275.0</ele><time>2026-05-04T14:27:59.542Z</time></trkpt><trkpt lat="41.5300607" lon="0.8486847"><ele>275.0</ele><time>2026-05-04T14:28:00.545Z</time></trkpt><trkpt lat="41.5299889" lon="0.8488075"><ele>275.0</ele><time>2026-05-04T14:28:01.54Z</time></trkpt><trkpt lat="41.5299146" lon="0.848932"><ele>275.0</ele><time>2026-05-04T14:28:02.54Z</time></trkpt><trkpt lat="41.5298446" lon="0.8490558"><ele>275.0</ele><time>2026-05-04T14:28:03.54Z</time></trkpt><trkpt lat="41.529775" lon="0.8491805"><ele>275.0</ele><time>2026-05-04T14:28:04.544Z</time></trkpt><trkpt lat="41.5297044" lon="0.8492997"><ele>275.0</ele><time>2026-05-04T14:28:05.543Z</time></trkpt><trkpt lat="41.5296388" lon="0.849428"><ele>275.0</ele><time>2026-05-04T14:28:06.544Z</time></trkpt><trkpt lat="41.5295785" lon="0.8495518"><ele>274.75</ele><time>2026-05-04T14:28:07.54Z</time></trkpt><trkpt lat="41.5295174" lon="0.8496769"><ele>274.5</ele><time>2026-05-04T14:28:08.539Z</time></trkpt><trkpt lat="41.5294562" lon="0.8498038"><ele>274.25</ele><time>2026-05-04T14:28:09.541Z</time></trkpt><trkpt lat="41.5293936" lon="0.8499315"><ele>274.0</ele><time>2026-05-04T14:28:10.542Z</time></trkpt><trkpt lat="41.5293308" lon="0.8500555"><ele>274.25</ele><time>2026-05-04T14:28:11.54Z</time></trkpt><trkpt lat="41.5292663" lon="0.8501836"><ele>274.5</ele><time>2026-05-04T14:28:12.544Z</time></trkpt><trkpt lat="41.5292045" lon="0.8503093"><ele>274.75</ele><time>2026-05-04T14:28:13.546Z</time></trkpt><trkpt lat="41.5291389" lon="0.8504344"><ele>275.0</ele><time>2026-05-04T14:28:14.543Z</time></trkpt><trkpt lat="41.5290745" lon="0.8505558"><ele>275.0</ele><time>2026-05-04T14:28:15.556Z</time></trkpt><trkpt lat="41.5290142" lon="0.8506773"><ele>275.0</ele><time>2026-05-04T14:28:16.542Z</time></trkpt><trkpt lat="41.5289532" lon="0.8507962"><ele>275.0</ele><time>2026-05-04T14:28:17.543Z</time></trkpt><trkpt lat="41.5289018" lon="0.8509163"><ele>275.0</ele><time>2026-05-04T14:28:18.549Z</time></trkpt><trkpt lat="41.5288616" lon="0.8510152"><ele>275.0</ele><time>2026-05-04T14:28:19.549Z</time></trkpt><trkpt lat="41.528801" lon="0.8511738"><ele>275.5</ele><time>2026-05-04T14:28:21.535Z</time></trkpt><trkpt lat="41.5287411" lon="0.8513067"><ele>276.0</ele><time>2026-05-04T14:28:22.539Z</time></trkpt><trkpt lat="41.5286604" lon="0.8514399"><ele>276.5</ele><time>2026-05-04T14:28:23.554Z</time></trkpt><trkpt lat="41.5285815" lon="0.8515783"><ele>277.0</ele><time>2026-05-04T14:28:24.539Z</time></trkpt><trkpt lat="41.528497" lon="0.8517182"><ele>276.0</ele><time>2026-05-04T14:28:25.545Z</time></trkpt><trkpt lat="41.5284224" lon="0.8518678"><ele>275.0</ele><time>2026-05-04T14:28:26.539Z</time></trkpt><trkpt lat="41.5283559" lon="0.8520141"><ele>274.0</ele><time>2026-05-04T14:28:27.542Z</time></trkpt><trkpt lat="41.5282855" lon="0.85216"><ele>273.0</ele><time>2026-05-04T14:28:28.545Z</time></trkpt><trkpt lat="41.5282135" lon="0.852304"><ele>273.0</ele><time>2026-05-04T14:28:29.541Z</time></trkpt><trkpt lat="41.5281426" lon="0.8524547"><ele>273.0</ele><time>2026-05-04T14:28:30.545Z</time></trkpt><trkpt lat="41.5280731" lon="0.8526047"><ele>273.0</ele><time>2026-05-04T14:28:31.54Z</time></trkpt><trkpt lat="41.5279988" lon="0.852747"><ele>273.0</ele><time>2026-05-04T14:28:32.545Z</time></trkpt><trkpt lat="41.5279239" lon="0.8528903"><ele>273.0</ele><time>2026-05-04T14:28:33.545Z</time></trkpt><trkpt lat="41.5278511" lon="0.8530288"><ele>273.0</ele><time>2026-05-04T14:28:34.544Z</time></trkpt><trkpt lat="41.5277825" lon="0.8531714"><ele>273.0</ele><time>2026-05-04T14:28:35.547Z</time></trkpt><trkpt lat="41.5277113" lon="0.853311"><ele>273.0</ele><time>2026-05-04T14:28:36.54Z</time></trkpt><trkpt lat="41.5276359" lon="0.8534492"><ele>272.75</ele><time>2026-05-04T14:28:37.545Z</time></trkpt><trkpt lat="41.5275588" lon="0.8535858"><ele>272.5</ele><time>2026-05-04T14:28:38.545Z</time></trkpt><trkpt lat="41.5274804" lon="0.8537252"><ele>272.25</ele><time>2026-05-04T14:28:39.547Z</time></trkpt><trkpt lat="41.5274018" lon="0.8538671"><ele>272.0</ele><time>2026-05-04T14:28:40.543Z</time></trkpt><trkpt lat="41.5273268" lon="0.8540081"><ele>272.0</ele><time>2026-05-04T14:28:41.546Z</time></trkpt><trkpt lat="41.5272563" lon="0.8541513"><ele>272.0</ele><time>2026-05-04T14:28:42.544Z</time></trkpt><trkpt lat="41.5271874" lon="0.8542954"><ele>272.0</ele><time>2026-05-04T14:28:43.552Z</time></trkpt><trkpt lat="41.5271251" lon="0.8544385"><ele>272.0</ele><time>2026-05-04T14:28:44.548Z</time></trkpt><trkpt lat="41.5270648" lon="0.8545856"><ele>272.25</ele><time>2026-05-04T14:28:45.541Z</time></trkpt><trkpt lat="41.5270051" lon="0.854731"><ele>272.5</ele><time>2026-05-04T14:28:46.553Z</time></trkpt><trkpt lat="41.5269356" lon="0.8548838"><ele>272.75</ele><time>2026-05-04T14:28:47.542Z</time></trkpt><trkpt lat="41.5268748" lon="0.855043"><ele>273.0</ele><time>2026-05-04T14:28:48.549Z</time></trkpt><trkpt lat="41.5268306" lon="0.8552042"><ele>273.0</ele><time>2026-05-04T14:28:49.548Z</time></trkpt><trkpt lat="41.5267941" lon="0.8553759"><ele>273.0</ele><time>2026-05-04T14:28:50.546Z</time></trkpt><trkpt lat="41.5267018" lon="0.8555194"><ele>273.0</ele><time>2026-05-04T14:28:51.548Z</time></trkpt><trkpt lat="41.5265983" lon="0.8556296"><ele>273.0</ele><time>2026-05-04T14:28:52.536Z</time></trkpt><trkpt lat="41.5265185" lon="0.8557441"><ele>273.0</ele><time>2026-05-04T14:28:53.544Z</time></trkpt><trkpt lat="41.5264416" lon="0.8558735"><ele>273.0</ele><time>2026-05-04T14:28:54.536Z</time></trkpt><trkpt lat="41.5263479" lon="0.8560199"><ele>273.0</ele><time>2026-05-04T14:28:55.538Z</time></trkpt><trkpt lat="41.5262614" lon="0.856152"><ele>273.0</ele><time>2026-05-04T14:28:56.54Z</time></trkpt><trkpt lat="41.52618" lon="0.8563042"><ele>272.75</ele><time>2026-05-04T14:28:57.547Z</time></trkpt><trkpt lat="41.5260976" lon="0.8564512"><ele>272.5</ele><time>2026-05-04T14:28:58.545Z</time></trkpt><trkpt lat="41.526014" lon="0.8565672"><ele>272.25</ele><time>2026-05-04T14:28:59.546Z</time></trkpt><trkpt lat="41.5259306" lon="0.8566802"><ele>272.0</ele><time>2026-05-04T14:29:00.545Z</time></trkpt><trkpt lat="41.5258479" lon="0.8567811"><ele>271.6</ele><time>2026-05-04T14:29:01.544Z</time></trkpt><trkpt lat="41.5257684" lon="0.8568791"><ele>271.2</ele><time>2026-05-04T14:29:02.543Z</time></trkpt><trkpt lat="41.5256922" lon="0.8569761"><ele>270.8</ele><time>2026-05-04T14:29:03.547Z</time></trkpt><trkpt lat="41.5256139" lon="0.8570704"><ele>270.4</ele><time>2026-05-04T14:29:04.543Z</time></trkpt><trkpt lat="41.5255303" lon="0.8571534"><ele>270.0</ele><time>2026-05-04T14:29:05.541Z</time></trkpt><trkpt lat="41.5254523" lon="0.8572361"><ele>270.2</ele><time>2026-05-04T14:29:06.554Z</time></trkpt><trkpt lat="41.525381" lon="0.8573171"><ele>270.4</ele><time>2026-05-04T14:29:07.55Z</time></trkpt><trkpt lat="41.5253166" lon="0.8574016"><ele>270.6</ele><time>2026-05-04T14:29:08.552Z</time></trkpt><trkpt lat="41.5252213" lon="0.8574724"><ele>270.8</ele><time>2026-05-04T14:29:09.543Z</time></trkpt><trkpt lat="41.5251283" lon="0.8575453"><ele>271.0</ele><time>2026-05-04T14:29:10.542Z</time></trkpt><trkpt lat="41.5250512" lon="0.857624"><ele>271.0</ele><time>2026-05-04T14:29:11.553Z</time></trkpt><trkpt lat="41.5249709" lon="0.857702"><ele>271.0</ele><time>2026-05-04T14:29:12.555Z</time></trkpt><trkpt lat="41.5248976" lon="0.8577836"><ele>271.0</ele><time>2026-05-04T14:29:13.557Z</time></trkpt><trkpt lat="41.5248265" lon="0.8578685"><ele>271.0</ele><time>2026-05-04T14:29:14.551Z</time></trkpt><trkpt lat="41.5247271" lon="0.8579354"><ele>271.0</ele><time>2026-05-04T14:29:15.55Z</time></trkpt><trkpt lat="41.5246059" lon="0.8579976"><ele>271.5</ele><time>2026-05-04T14:29:16.553Z</time></trkpt><trkpt lat="41.5244923" lon="0.8580632"><ele>272.0</ele><time>2026-05-04T14:29:17.552Z</time></trkpt><trkpt lat="41.5243836" lon="0.8581147"><ele>272.5</ele><time>2026-05-04T14:29:18.544Z</time></trkpt><trkpt lat="41.5242713" lon="0.8581662"><ele>273.0</ele><time>2026-05-04T14:29:19.541Z</time></trkpt><trkpt lat="41.5241577" lon="0.8582214"><ele>273.0</ele><time>2026-05-04T14:29:20.541Z</time></trkpt><trkpt lat="41.5240412" lon="0.8582705"><ele>273.0</ele><time>2026-05-04T14:29:21.545Z</time></trkpt><trkpt lat="41.5239277" lon="0.8583159"><ele>273.0</ele><time>2026-05-04T14:29:22.546Z</time></trkpt><trkpt lat="41.5238088" lon="0.8583506"><ele>273.0</ele><time>2026-05-04T14:29:23.547Z</time></trkpt><trkpt lat="41.5236905" lon="0.8583913"><ele>273.25</ele><time>2026-05-04T14:29:24.55Z</time></trkpt><trkpt lat="41.5235735" lon="0.8584214"><ele>273.5</ele><time>2026-05-04T14:29:25.547Z</time></trkpt><trkpt lat="41.5234517" lon="0.8584566"><ele>273.75</ele><time>2026-05-04T14:29:26.545Z</time></trkpt><trkpt lat="41.52333" lon="0.8584829"><ele>274.0</ele><time>2026-05-04T14:29:27.547Z</time></trkpt><trkpt lat="41.5232052" lon="0.8585102"><ele>274.5</ele><time>2026-05-04T14:29:28.546Z</time></trkpt><trkpt lat="41.5230814" lon="0.8585299"><ele>275.0</ele><time>2026-05-04T14:29:29.547Z</time></trkpt><trkpt lat="41.5229553" lon="0.858548"><ele>275.5</ele><time>2026-05-04T14:29:30.544Z</time></trkpt><trkpt lat="41.5228302" lon="0.8585602"><ele>276.0</ele><time>2026-05-04T14:29:31.549Z</time></trkpt><trkpt lat="41.5226988" lon="0.8585633"><ele>276.0</ele><time>2026-05-04T14:29:32.544Z</time></trkpt><trkpt lat="41.5225741" lon="0.8585652"><ele>276.0</ele><time>2026-05-04T14:29:33.546Z</time></trkpt><trkpt lat="41.5224497" lon="0.8585622"><ele>276.0</ele><time>2026-05-04T14:29:34.545Z</time></trkpt><trkpt lat="41.5223221" lon="0.8585558"><ele>276.0</ele><time>2026-05-04T14:29:35.544Z</time></trkpt><trkpt lat="41.5221935" lon="0.8585444"><ele>276.0</ele><time>2026-05-04T14:29:36.541Z</time></trkpt><trkpt lat="41.5220638" lon="0.8585267"><ele>276.0</ele><time>2026-05-04T14:29:37.541Z</time></trkpt><trkpt lat="41.521931" lon="0.858499"><ele>276.0</ele><time>2026-05-04T14:29:38.547Z</time></trkpt><trkpt lat="41.5217937" lon="0.8584675"><ele>276.0</ele><time>2026-05-04T14:29:39.548Z</time></trkpt><trkpt lat="41.52166" lon="0.8584328"><ele>276.0</ele><time>2026-05-04T14:29:40.547Z</time></trkpt><trkpt lat="41.5215262" lon="0.8584034"><ele>276.0</ele><time>2026-05-04T14:29:41.55Z</time></trkpt><trkpt lat="41.5213909" lon="0.8583684"><ele>276.0</ele><time>2026-05-04T14:29:42.551Z</time></trkpt><trkpt lat="41.5212594" lon="0.8583343"><ele>276.0</ele><time>2026-05-04T14:29:43.553Z</time></trkpt><trkpt lat="41.5211294" lon="0.8583024"><ele>277.3333333333333</ele><time>2026-05-04T14:29:44.548Z</time></trkpt><trkpt lat="41.5208657" lon="0.8582501"><ele>278.66666666666663</ele><time>2026-05-04T14:29:46.55Z</time></trkpt><trkpt lat="41.5207287" lon="0.8582271"><ele>280.0</ele><time>2026-05-04T14:29:47.546Z</time></trkpt><trkpt lat="41.5205888" lon="0.8582078"><ele>280.0</ele><time>2026-05-04T14:29:48.567Z</time></trkpt><trkpt lat="41.5204472" lon="0.8581896"><ele>280.0</ele><time>2026-05-04T14:29:49.549Z</time></trkpt><trkpt lat="41.5203161" lon="0.8581764"><ele>280.0</ele><time>2026-05-04T14:29:50.548Z</time></trkpt><trkpt lat="41.5202147" lon="0.8581755"><ele>280.0</ele><time>2026-05-04T14:29:51.553Z</time></trkpt><trkpt lat="41.5201206" lon="0.8581757"><ele>280.5</ele><time>2026-05-04T14:29:52.552Z</time></trkpt><trkpt lat="41.519984" lon="0.8581766"><ele>281.0</ele><time>2026-05-04T14:29:53.549Z</time></trkpt><trkpt lat="41.5198353" lon="0.8581682"><ele>281.5</ele><time>2026-05-04T14:29:54.519Z</time></trkpt><trkpt lat="41.5197051" lon="0.8581882"><ele>282.0</ele><time>2026-05-04T14:29:55.539Z</time></trkpt><trkpt lat="41.5195823" lon="0.8581902"><ele>281.0</ele><time>2026-05-04T14:29:56.534Z</time></trkpt><trkpt lat="41.5194653" lon="0.8581929"><ele>280.0</ele><time>2026-05-04T14:29:57.535Z</time></trkpt><trkpt lat="41.5193472" lon="0.8581957"><ele>279.0</ele><time>2026-05-04T14:29:58.545Z</time></trkpt><trkpt lat="41.5192238" lon="0.8582054"><ele>278.0</ele><time>2026-05-04T14:29:59.535Z</time></trkpt><trkpt lat="41.5191096" lon="0.8582175"><ele>278.0</ele><time>2026-05-04T14:30:00.531Z</time></trkpt><trkpt lat="41.518993" lon="0.8582297"><ele>278.0</ele><time>2026-05-04T14:30:01.532Z</time></trkpt><trkpt lat="41.5188764" lon="0.8582434"><ele>278.0</ele><time>2026-05-04T14:30:02.535Z</time></trkpt><trkpt lat="41.5187586" lon="0.8582579"><ele>278.0</ele><time>2026-05-04T14:30:03.537Z</time></trkpt><trkpt lat="41.5186391" lon="0.8582767"><ele>279.0</ele><time>2026-05-04T14:30:04.537Z</time></trkpt><trkpt lat="41.5185203" lon="0.8582984"><ele>280.0</ele><time>2026-05-04T14:30:05.538Z</time></trkpt><trkpt lat="41.5183991" lon="0.8583147"><ele>281.0</ele><time>2026-05-04T14:30:06.542Z</time></trkpt><trkpt lat="41.5182794" lon="0.8583416"><ele>282.0</ele><time>2026-05-04T14:30:07.537Z</time></trkpt><trkpt lat="41.5181622" lon="0.8583725"><ele>282.0</ele><time>2026-05-04T14:30:08.553Z</time></trkpt><trkpt lat="41.5180451" lon="0.8583996"><ele>282.0</ele><time>2026-05-04T14:30:09.536Z</time></trkpt><trkpt lat="41.5179245" lon="0.8584307"><ele>282.0</ele><time>2026-05-04T14:30:10.537Z</time></trkpt><trkpt lat="41.5178029" lon="0.8584681"><ele>282.0</ele><time>2026-05-04T14:30:11.539Z</time></trkpt><trkpt lat="41.5176786" lon="0.858509"><ele>282.5</ele><time>2026-05-04T14:30:12.537Z</time></trkpt><trkpt lat="41.5175525" lon="0.858552"><ele>283.0</ele><time>2026-05-04T14:30:13.54Z</time></trkpt><trkpt lat="41.5174252" lon="0.8586051"><ele>283.5</ele><time>2026-05-04T14:30:14.541Z</time></trkpt><trkpt lat="41.5172979" lon="0.8586575"><ele>284.0</ele><time>2026-05-04T14:30:15.537Z</time></trkpt><trkpt lat="41.5171703" lon="0.8587122"><ele>285.5</ele><time>2026-05-04T14:30:16.538Z</time></trkpt><trkpt lat="41.5170461" lon="0.8587697"><ele>287.0</ele><time>2026-05-04T14:30:17.537Z</time></trkpt><trkpt lat="41.5169227" lon="0.8588295"><ele>288.5</ele><time>2026-05-04T14:30:18.547Z</time></trkpt><trkpt lat="41.5168079" lon="0.8588931"><ele>290.0</ele><time>2026-05-04T14:30:19.553Z</time></trkpt><trkpt lat="41.5166955" lon="0.8589573"><ele>290.0</ele><time>2026-05-04T14:30:20.535Z</time></trkpt><trkpt lat="41.5165781" lon="0.8590243"><ele>290.0</ele><time>2026-05-04T14:30:21.534Z</time></trkpt><trkpt lat="41.5164531" lon="0.8590908"><ele>290.0</ele><time>2026-05-04T14:30:22.536Z</time></trkpt><trkpt lat="41.5163334" lon="0.8591605"><ele>290.0</ele><time>2026-05-04T14:30:23.537Z</time></trkpt><trkpt lat="41.5162133" lon="0.8592304"><ele>289.5</ele><time>2026-05-04T14:30:24.538Z</time></trkpt><trkpt lat="41.5160969" lon="0.8592988"><ele>289.0</ele><time>2026-05-04T14:30:25.532Z</time></trkpt><trkpt lat="41.5159851" lon="0.8593665"><ele>288.5</ele><time>2026-05-04T14:30:26.537Z</time></trkpt><trkpt lat="41.515881" lon="0.8594414"><ele>288.0</ele><time>2026-05-04T14:30:27.542Z</time></trkpt><trkpt lat="41.5157848" lon="0.8595196"><ele>288.0</ele><time>2026-05-04T14:30:28.535Z</time></trkpt><trkpt lat="41.5156864" lon="0.859596"><ele>288.0</ele><time>2026-05-04T14:30:29.54Z</time></trkpt><trkpt lat="41.5155875" lon="0.8596705"><ele>288.0</ele><time>2026-05-04T14:30:30.538Z</time></trkpt><trkpt lat="41.5154887" lon="0.8597518"><ele>288.0</ele><time>2026-05-04T14:30:31.543Z</time></trkpt><trkpt lat="41.5153905" lon="0.8598381"><ele>287.75</ele><time>2026-05-04T14:30:32.538Z</time></trkpt><trkpt lat="41.5152908" lon="0.8599196"><ele>287.5</ele><time>2026-05-04T14:30:33.535Z</time></trkpt><trkpt lat="41.5151918" lon="0.8600033"><ele>287.25</ele><time>2026-05-04T14:30:34.537Z</time></trkpt><trkpt lat="41.5150937" lon="0.8600963"><ele>287.0</ele><time>2026-05-04T14:30:35.54Z</time></trkpt><trkpt lat="41.5149957" lon="0.8601904"><ele>287.0</ele><time>2026-05-04T14:30:36.538Z</time></trkpt><trkpt lat="41.5148977" lon="0.8602852"><ele>287.0</ele><time>2026-05-04T14:30:37.536Z</time></trkpt><trkpt lat="41.514802" lon="0.8603842"><ele>287.0</ele><time>2026-05-04T14:30:38.543Z</time></trkpt><trkpt lat="41.5147071" lon="0.8604851"><ele>287.0</ele><time>2026-05-04T14:30:39.537Z</time></trkpt><trkpt lat="41.5146097" lon="0.8605849"><ele>287.5</ele><time>2026-05-04T14:30:40.537Z</time></trkpt><trkpt lat="41.514514" lon="0.8606894"><ele>288.0</ele><time>2026-05-04T14:30:41.54Z</time></trkpt><trkpt lat="41.5144187" lon="0.8607952"><ele>288.5</ele><time>2026-05-04T14:30:42.536Z</time></trkpt><trkpt lat="41.5143284" lon="0.8608996"><ele>289.0</ele><time>2026-05-04T14:30:43.538Z</time></trkpt><trkpt lat="41.5142334" lon="0.8610051"><ele>290.0</ele><time>2026-05-04T14:30:44.539Z</time></trkpt><trkpt lat="41.5141474" lon="0.8611149"><ele>291.0</ele><time>2026-05-04T14:30:45.537Z</time></trkpt><trkpt lat="41.5140654" lon="0.8612293"><ele>292.0</ele><time>2026-05-04T14:30:46.536Z</time></trkpt><trkpt lat="41.5139856" lon="0.8613426"><ele>293.0</ele><time>2026-05-04T14:30:47.536Z</time></trkpt><trkpt lat="41.5139087" lon="0.8614517"><ele>293.0</ele><time>2026-05-04T14:30:48.548Z</time></trkpt><trkpt lat="41.5138355" lon="0.8615668"><ele>293.0</ele><time>2026-05-04T14:30:49.54Z</time></trkpt><trkpt lat="41.5137631" lon="0.8616932"><ele>293.0</ele><time>2026-05-04T14:30:50.557Z</time></trkpt><trkpt lat="41.513704" lon="0.8618013"><ele>293.0</ele><time>2026-05-04T14:30:51.533Z</time></trkpt><trkpt lat="41.5136385" lon="0.8619105"><ele>293.0</ele><time>2026-05-04T14:30:52.532Z</time></trkpt><trkpt lat="41.5135741" lon="0.8620255"><ele>293.75</ele><time>2026-05-04T14:30:53.534Z</time></trkpt><trkpt lat="41.513501" lon="0.8621512"><ele>294.5</ele><time>2026-05-04T14:30:54.528Z</time></trkpt><trkpt lat="41.513434" lon="0.862268"><ele>295.25</ele><time>2026-05-04T14:30:55.526Z</time></trkpt><trkpt lat="41.5133501" lon="0.8623873"><ele>296.0</ele><time>2026-05-04T14:30:56.523Z</time></trkpt><trkpt lat="41.5132767" lon="0.8625216"><ele>296.0</ele><time>2026-05-04T14:30:57.521Z</time></trkpt><trkpt lat="41.5131988" lon="0.8626478"><ele>296.0</ele><time>2026-05-04T14:30:58.538Z</time></trkpt><trkpt lat="41.5131215" lon="0.8627701"><ele>296.0</ele><time>2026-05-04T14:30:59.536Z</time></trkpt><trkpt lat="41.513045" lon="0.8628875"><ele>296.0</ele><time>2026-05-04T14:31:00.541Z</time></trkpt><trkpt lat="41.512973" lon="0.86301"><ele>296.5</ele><time>2026-05-04T14:31:01.536Z</time></trkpt><trkpt lat="41.512902" lon="0.8631446"><ele>297.0</ele><time>2026-05-04T14:31:02.535Z</time></trkpt><trkpt lat="41.512835" lon="0.8632821"><ele>297.5</ele><time>2026-05-04T14:31:03.542Z</time></trkpt><trkpt lat="41.5127704" lon="0.8634195"><ele>298.0</ele><time>2026-05-04T14:31:04.539Z</time></trkpt><trkpt lat="41.512709" lon="0.8635571"><ele>297.0</ele><time>2026-05-04T14:31:05.541Z</time></trkpt><trkpt lat="41.5126578" lon="0.8636939"><ele>296.0</ele><time>2026-05-04T14:31:06.539Z</time></trkpt><trkpt lat="41.5126045" lon="0.8638348"><ele>295.0</ele><time>2026-05-04T14:31:07.536Z</time></trkpt><trkpt lat="41.512548" lon="0.8639741"><ele>294.0</ele><time>2026-05-04T14:31:08.536Z</time></trkpt><trkpt lat="41.5124908" lon="0.8641156"><ele>294.0</ele><time>2026-05-04T14:31:09.538Z</time></trkpt><trkpt lat="41.5124383" lon="0.8642594"><ele>294.0</ele><time>2026-05-04T14:31:10.536Z</time></trkpt><trkpt lat="41.5123858" lon="0.8643971"><ele>294.0</ele><time>2026-05-04T14:31:11.536Z</time></trkpt><trkpt lat="41.5123377" lon="0.8645435"><ele>294.0</ele><time>2026-05-04T14:31:12.537Z</time></trkpt><trkpt lat="41.512287" lon="0.8646918"><ele>293.75</ele><time>2026-05-04T14:31:13.541Z</time></trkpt><trkpt lat="41.5122363" lon="0.8648384"><ele>293.5</ele><time>2026-05-04T14:31:14.539Z</time></trkpt><trkpt lat="41.5121872" lon="0.8649859"><ele>293.25</ele><time>2026-05-04T14:31:15.539Z</time></trkpt><trkpt lat="41.5121409" lon="0.8651353"><ele>293.0</ele><time>2026-05-04T14:31:16.537Z</time></trkpt><trkpt lat="41.5120939" lon="0.865286"><ele>293.5</ele><time>2026-05-04T14:31:17.537Z</time></trkpt><trkpt lat="41.5120517" lon="0.8654342"><ele>294.0</ele><time>2026-05-04T14:31:18.539Z</time></trkpt><trkpt lat="41.51201" lon="0.8655805"><ele>294.5</ele><time>2026-05-04T14:31:19.544Z</time></trkpt><trkpt lat="41.5119692" lon="0.8657277"><ele>295.0</ele><time>2026-05-04T14:31:20.538Z</time></trkpt><trkpt lat="41.5119308" lon="0.8658644"><ele>295.2</ele><time>2026-05-04T14:31:21.555Z</time></trkpt><trkpt lat="41.5118947" lon="0.8659872"><ele>295.4</ele><time>2026-05-04T14:31:22.536Z</time></trkpt><trkpt lat="41.5118575" lon="0.8661142"><ele>295.6</ele><time>2026-05-04T14:31:23.541Z</time></trkpt><trkpt lat="41.5118205" lon="0.8662446"><ele>295.8</ele><time>2026-05-04T14:31:24.543Z</time></trkpt><trkpt lat="41.5117842" lon="0.8663734"><ele>296.0</ele><time>2026-05-04T14:31:25.539Z</time></trkpt><trkpt lat="41.5117472" lon="0.866504"><ele>296.0</ele><time>2026-05-04T14:31:26.536Z</time></trkpt><trkpt lat="41.5117075" lon="0.8666442"><ele>296.0</ele><time>2026-05-04T14:31:27.544Z</time></trkpt><trkpt lat="41.5116682" lon="0.8667859"><ele>296.0</ele><time>2026-05-04T14:31:28.538Z</time></trkpt><trkpt lat="41.511629" lon="0.8669234"><ele>296.0</ele><time>2026-05-04T14:31:29.54Z</time></trkpt><trkpt lat="41.5115877" lon="0.8670622"><ele>296.0</ele><time>2026-05-04T14:31:30.537Z</time></trkpt><trkpt lat="41.5115466" lon="0.8671993"><ele>296.0</ele><time>2026-05-04T14:31:31.536Z</time></trkpt><trkpt lat="41.5115041" lon="0.8673406"><ele>296.0</ele><time>2026-05-04T14:31:32.536Z</time></trkpt><trkpt lat="41.5114588" lon="0.867481"><ele>296.0</ele><time>2026-05-04T14:31:33.535Z</time></trkpt><trkpt lat="41.5114168" lon="0.8676263"><ele>296.0</ele><time>2026-05-04T14:31:34.535Z</time></trkpt><trkpt lat="41.511375" lon="0.8677732"><ele>296.0</ele><time>2026-05-04T14:31:35.54Z</time></trkpt><trkpt lat="41.511333" lon="0.8679238"><ele>296.0</ele><time>2026-05-04T14:31:36.539Z</time></trkpt><trkpt lat="41.5112924" lon="0.868076"><ele>296.0</ele><time>2026-05-04T14:31:37.536Z</time></trkpt><trkpt lat="41.5112497" lon="0.8682331"><ele>296.0</ele><time>2026-05-04T14:31:38.55Z</time></trkpt><trkpt lat="41.5112083" lon="0.8683917"><ele>297.0</ele><time>2026-05-04T14:31:39.542Z</time></trkpt><trkpt lat="41.5111694" lon="0.868553"><ele>298.0</ele><time>2026-05-04T14:31:40.548Z</time></trkpt><trkpt lat="41.511132" lon="0.8687141"><ele>299.0</ele><time>2026-05-04T14:31:41.541Z</time></trkpt><trkpt lat="41.5110957" lon="0.8688695"><ele>300.0</ele><time>2026-05-04T14:31:42.542Z</time></trkpt><trkpt lat="41.5110626" lon="0.8690118"><ele>300.0</ele><time>2026-05-04T14:31:43.548Z</time></trkpt><trkpt lat="41.5110227" lon="0.8691451"><ele>300.0</ele><time>2026-05-04T14:31:44.547Z</time></trkpt><trkpt lat="41.5109864" lon="0.8692653"><ele>300.0</ele><time>2026-05-04T14:31:45.545Z</time></trkpt><trkpt lat="41.5109506" lon="0.8693872"><ele>300.0</ele><time>2026-05-04T14:31:46.543Z</time></trkpt><trkpt lat="41.5109195" lon="0.8695157"><ele>300.0</ele><time>2026-05-04T14:31:47.539Z</time></trkpt><trkpt lat="41.5108856" lon="0.8696474"><ele>299.8</ele><time>2026-05-04T14:31:48.55Z</time></trkpt><trkpt lat="41.5108457" lon="0.8697803"><ele>299.6</ele><time>2026-05-04T14:31:49.55Z</time></trkpt><trkpt lat="41.5108117" lon="0.8699171"><ele>299.4</ele><time>2026-05-04T14:31:50.547Z</time></trkpt><trkpt lat="41.5107833" lon="0.8700435"><ele>299.2</ele><time>2026-05-04T14:31:51.547Z</time></trkpt><trkpt lat="41.5107549" lon="0.8701707"><ele>299.0</ele><time>2026-05-04T14:31:52.562Z</time></trkpt><trkpt lat="41.5107157" lon="0.8703258"><ele>299.5</ele><time>2026-05-04T14:31:53.537Z</time></trkpt><trkpt lat="41.5106727" lon="0.8704499"><ele>300.0</ele><time>2026-05-04T14:31:54.545Z</time></trkpt><trkpt lat="41.5106345" lon="0.87059"><ele>300.5</ele><time>2026-05-04T14:31:55.547Z</time></trkpt><trkpt lat="41.5106244" lon="0.8707472"><ele>301.0</ele><time>2026-05-04T14:31:56.544Z</time></trkpt><trkpt lat="41.5106003" lon="0.8709323"><ele>301.75</ele><time>2026-05-04T14:31:57.55Z</time></trkpt><trkpt lat="41.5105644" lon="0.8710952"><ele>302.5</ele><time>2026-05-04T14:31:58.55Z</time></trkpt><trkpt lat="41.5105408" lon="0.8712835"><ele>303.25</ele><time>2026-05-04T14:31:59.551Z</time></trkpt><trkpt lat="41.5105066" lon="0.8714668"><ele>304.0</ele><time>2026-05-04T14:32:00.546Z</time></trkpt><trkpt lat="41.5104287" lon="0.8716691"><ele>305.0</ele><time>2026-05-04T14:32:01.545Z</time></trkpt><trkpt lat="41.5103553" lon="0.871878"><ele>306.0</ele><time>2026-05-04T14:32:02.542Z</time></trkpt><trkpt lat="41.51029" lon="0.8720902"><ele>307.0</ele><time>2026-05-04T14:32:03.544Z</time></trkpt><trkpt lat="41.5102282" lon="0.8722659"><ele>307.0</ele><time>2026-05-04T14:32:04.545Z</time></trkpt><trkpt lat="41.5101827" lon="0.8724557"><ele>307.0</ele><time>2026-05-04T14:32:05.542Z</time></trkpt><trkpt lat="41.510135" lon="0.8726408"><ele>307.0</ele><time>2026-05-04T14:32:06.537Z</time></trkpt><trkpt lat="41.5100854" lon="0.8728186"><ele>307.0</ele><time>2026-05-04T14:32:07.536Z</time></trkpt><trkpt lat="41.5100366" lon="0.8729932"><ele>307.0</ele><time>2026-05-04T14:32:08.54Z</time></trkpt><trkpt lat="41.5099908" lon="0.873174"><ele>307.0</ele><time>2026-05-04T14:32:09.539Z</time></trkpt><trkpt lat="41.509947" lon="0.8733499"><ele>307.0</ele><time>2026-05-04T14:32:10.54Z</time></trkpt><trkpt lat="41.5099086" lon="0.8735298"><ele>307.0</ele><time>2026-05-04T14:32:11.543Z</time></trkpt><trkpt lat="41.5098695" lon="0.8737042"><ele>307.0</ele><time>2026-05-04T14:32:12.545Z</time></trkpt><trkpt lat="41.5098269" lon="0.8738786"><ele>307.0</ele><time>2026-05-04T14:32:13.546Z</time></trkpt><trkpt lat="41.5097771" lon="0.8740427"><ele>307.0</ele><time>2026-05-04T14:32:14.53Z</time></trkpt><trkpt lat="41.5097409" lon="0.8742168"><ele>307.0</ele><time>2026-05-04T14:32:15.544Z</time></trkpt><trkpt lat="41.5097133" lon="0.874389"><ele>308.0</ele><time>2026-05-04T14:32:16.55Z</time></trkpt><trkpt lat="41.5097357" lon="0.8745819"><ele>309.0</ele><time>2026-05-04T14:32:17.543Z</time></trkpt><trkpt lat="41.5097434" lon="0.8747411"><ele>310.0</ele><time>2026-05-04T14:32:18.544Z</time></trkpt><trkpt lat="41.5097347" lon="0.8748828"><ele>311.0</ele><time>2026-05-04T14:32:19.54Z</time></trkpt><trkpt lat="41.5096947" lon="0.8750308"><ele>311.6666666666667</ele><time>2026-05-04T14:32:20.54Z</time></trkpt><trkpt lat="41.5096013" lon="0.8752132"><ele>312.3333333333333</ele><time>2026-05-04T14:32:21.533Z</time></trkpt><trkpt lat="41.5095255" lon="0.875416"><ele>313.0</ele><time>2026-05-04T14:32:22.545Z</time></trkpt><trkpt lat="41.5094665" lon="0.8755924"><ele>313.75</ele><time>2026-05-04T14:32:23.529Z</time></trkpt><trkpt lat="41.5094122" lon="0.8757775"><ele>314.5</ele><time>2026-05-04T14:32:24.536Z</time></trkpt><trkpt lat="41.5093616" lon="0.8759621"><ele>315.25</ele><time>2026-05-04T14:32:25.535Z</time></trkpt><trkpt lat="41.5093191" lon="0.8761264"><ele>316.0</ele><time>2026-05-04T14:32:26.535Z</time></trkpt><trkpt lat="41.5092796" lon="0.8762944"><ele>316.75</ele><time>2026-05-04T14:32:27.536Z</time></trkpt><trkpt lat="41.5092466" lon="0.8764642"><ele>317.5</ele><time>2026-05-04T14:32:28.535Z</time></trkpt><trkpt lat="41.5092096" lon="0.8766369"><ele>318.25</ele><time>2026-05-04T14:32:29.536Z</time></trkpt><trkpt lat="41.5091763" lon="0.8768082"><ele>319.0</ele><time>2026-05-04T14:32:30.538Z</time></trkpt><trkpt lat="41.509146" lon="0.8769854"><ele>319.5</ele><time>2026-05-04T14:32:31.538Z</time></trkpt><trkpt lat="41.5091174" lon="0.8771556"><ele>320.0</ele><time>2026-05-04T14:32:32.538Z</time></trkpt><trkpt lat="41.509092" lon="0.8773165"><ele>320.5</ele><time>2026-05-04T14:32:33.54Z</time></trkpt><trkpt lat="41.5090666" lon="0.877472"><ele>321.0</ele><time>2026-05-04T14:32:34.538Z</time></trkpt><trkpt lat="41.5090428" lon="0.8776259"><ele>321.25</ele><time>2026-05-04T14:32:35.537Z</time></trkpt><trkpt lat="41.5090213" lon="0.8777864"><ele>321.5</ele><time>2026-05-04T14:32:36.539Z</time></trkpt><trkpt lat="41.5089989" lon="0.8779469"><ele>321.75</ele><time>2026-05-04T14:32:37.536Z</time></trkpt><trkpt lat="41.5089829" lon="0.8781077"><ele>322.0</ele><time>2026-05-04T14:32:38.536Z</time></trkpt><trkpt lat="41.5089662" lon="0.8782736"><ele>322.5</ele><time>2026-05-04T14:32:39.538Z</time></trkpt><trkpt lat="41.5089517" lon="0.8784411"><ele>323.0</ele><time>2026-05-04T14:32:40.537Z</time></trkpt><trkpt lat="41.5089401" lon="0.8786143"><ele>323.5</ele><time>2026-05-04T14:32:41.536Z</time></trkpt><trkpt lat="41.5089275" lon="0.8787881"><ele>324.0</ele><time>2026-05-04T14:32:42.54Z</time></trkpt><trkpt lat="41.5089137" lon="0.8789666"><ele>324.0</ele><time>2026-05-04T14:32:43.542Z</time></trkpt><trkpt lat="41.5089015" lon="0.8791468"><ele>324.0</ele><time>2026-05-04T14:32:44.539Z</time></trkpt><trkpt lat="41.5088896" lon="0.8793314"><ele>324.0</ele><time>2026-05-04T14:32:45.539Z</time></trkpt><trkpt lat="41.5088808" lon="0.8795231"><ele>324.0</ele><time>2026-05-04T14:32:46.529Z</time></trkpt><trkpt lat="41.5088679" lon="0.879725"><ele>324.5</ele><time>2026-05-04T14:32:47.532Z</time></trkpt><trkpt lat="41.5088581" lon="0.8799244"><ele>325.0</ele><time>2026-05-04T14:32:48.548Z</time></trkpt><trkpt lat="41.5088492" lon="0.8801083"><ele>325.5</ele><time>2026-05-04T14:32:49.533Z</time></trkpt><trkpt lat="41.5088326" lon="0.8803013"><ele>326.0</ele><time>2026-05-04T14:32:50.543Z</time></trkpt><trkpt lat="41.5088219" lon="0.8804713"><ele>326.75</ele><time>2026-05-04T14:32:51.539Z</time></trkpt><trkpt lat="41.5088182" lon="0.8806428"><ele>327.5</ele><time>2026-05-04T14:32:52.539Z</time></trkpt><trkpt lat="41.5088313" lon="0.8808443"><ele>328.25</ele><time>2026-05-04T14:32:53.54Z</time></trkpt><trkpt lat="41.5088099" lon="0.8810349"><ele>329.0</ele><time>2026-05-04T14:32:54.534Z</time></trkpt><trkpt lat="41.5087781" lon="0.88123"><ele>330.6666666666667</ele><time>2026-05-04T14:32:55.542Z</time></trkpt><trkpt lat="41.5087679" lon="0.8814407"><ele>332.3333333333333</ele><time>2026-05-04T14:32:56.541Z</time></trkpt><trkpt lat="41.5087906" lon="0.8816391"><ele>334.0</ele><time>2026-05-04T14:32:57.534Z</time></trkpt><trkpt lat="41.5087943" lon="0.8818322"><ele>334.75</ele><time>2026-05-04T14:32:58.532Z</time></trkpt><trkpt lat="41.5087701" lon="0.8820281"><ele>335.5</ele><time>2026-05-04T14:32:59.523Z</time></trkpt><trkpt lat="41.5087455" lon="0.8822173"><ele>336.25</ele><time>2026-05-04T14:33:00.523Z</time></trkpt><trkpt lat="41.5087053" lon="0.8823999"><ele>337.0</ele><time>2026-05-04T14:33:01.52Z</time></trkpt><trkpt lat="41.5086565" lon="0.8825771"><ele>338.0</ele><time>2026-05-04T14:33:02.531Z</time></trkpt><trkpt lat="41.5086119" lon="0.8827701"><ele>339.0</ele><time>2026-05-04T14:33:03.52Z</time></trkpt><trkpt lat="41.5085712" lon="0.8829365"><ele>340.0</ele><time>2026-05-04T14:33:04.525Z</time></trkpt><trkpt lat="41.5085454" lon="0.8831138"><ele>341.0</ele><time>2026-05-04T14:33:05.523Z</time></trkpt><trkpt lat="41.5085166" lon="0.8832981"><ele>340.25</ele><time>2026-05-04T14:33:06.529Z</time></trkpt><trkpt lat="41.5084811" lon="0.8834915"><ele>339.5</ele><time>2026-05-04T14:33:07.525Z</time></trkpt><trkpt lat="41.5084566" lon="0.8836796"><ele>338.75</ele><time>2026-05-04T14:33:08.527Z</time></trkpt><trkpt lat="41.5084202" lon="0.8838611"><ele>338.0</ele><time>2026-05-04T14:33:09.529Z</time></trkpt><trkpt lat="41.5083806" lon="0.8840207"><ele>338.0</ele><time>2026-05-04T14:33:10.525Z</time></trkpt><trkpt lat="41.5083461" lon="0.8841917"><ele>338.0</ele><time>2026-05-04T14:33:11.529Z</time></trkpt><trkpt lat="41.5083128" lon="0.884366"><ele>338.0</ele><time>2026-05-04T14:33:12.535Z</time></trkpt><trkpt lat="41.508277" lon="0.884546"><ele>338.0</ele><time>2026-05-04T14:33:13.535Z</time></trkpt><trkpt lat="41.5082371" lon="0.8847285"><ele>337.75</ele><time>2026-05-04T14:33:14.535Z</time></trkpt><trkpt lat="41.5081856" lon="0.8848996"><ele>337.5</ele><time>2026-05-04T14:33:15.536Z</time></trkpt><trkpt lat="41.5081382" lon="0.8850672"><ele>337.25</ele><time>2026-05-04T14:33:16.539Z</time></trkpt><trkpt lat="41.5080931" lon="0.8852347"><ele>337.0</ele><time>2026-05-04T14:33:17.526Z</time></trkpt><trkpt lat="41.5080416" lon="0.8854269"><ele>336.75</ele><time>2026-05-04T14:33:18.531Z</time></trkpt><trkpt lat="41.5079915" lon="0.8856009"><ele>336.5</ele><time>2026-05-04T14:33:19.528Z</time></trkpt><trkpt lat="41.5079493" lon="0.8857747"><ele>336.25</ele><time>2026-05-04T14:33:20.529Z</time></trkpt><trkpt lat="41.5078946" lon="0.8859454"><ele>336.0</ele><time>2026-05-04T14:33:21.531Z</time></trkpt><trkpt lat="41.5078323" lon="0.8861122"><ele>336.0</ele><time>2026-05-04T14:33:22.534Z</time></trkpt><trkpt lat="41.5077789" lon="0.8862882"><ele>336.0</ele><time>2026-05-04T14:33:23.535Z</time></trkpt><trkpt lat="41.5077198" lon="0.886455"><ele>336.0</ele><time>2026-05-04T14:33:24.551Z</time></trkpt><trkpt lat="41.5076663" lon="0.8866276"><ele>336.0</ele><time>2026-05-04T14:33:25.533Z</time></trkpt><trkpt lat="41.5076161" lon="0.8867994"><ele>335.5</ele><time>2026-05-04T14:33:26.529Z</time></trkpt><trkpt lat="41.5075531" lon="0.8869651"><ele>335.0</ele><time>2026-05-04T14:33:27.534Z</time></trkpt><trkpt lat="41.5074896" lon="0.8871389"><ele>334.5</ele><time>2026-05-04T14:33:28.533Z</time></trkpt><trkpt lat="41.5074251" lon="0.8873109"><ele>334.0</ele><time>2026-05-04T14:33:29.535Z</time></trkpt><trkpt lat="41.5073506" lon="0.8874797"><ele>333.75</ele><time>2026-05-04T14:33:30.539Z</time></trkpt><trkpt lat="41.5072877" lon="0.8876411"><ele>333.5</ele><time>2026-05-04T14:33:31.537Z</time></trkpt><trkpt lat="41.5072143" lon="0.8878065"><ele>333.25</ele><time>2026-05-04T14:33:32.54Z</time></trkpt><trkpt lat="41.5071591" lon="0.8879708"><ele>333.0</ele><time>2026-05-04T14:33:33.541Z</time></trkpt><trkpt lat="41.5070987" lon="0.8881434"><ele>332.25</ele><time>2026-05-04T14:33:34.542Z</time></trkpt><trkpt lat="41.5070213" lon="0.8883125"><ele>331.5</ele><time>2026-05-04T14:33:35.542Z</time></trkpt><trkpt lat="41.5069444" lon="0.8884723"><ele>330.75</ele><time>2026-05-04T14:33:36.536Z</time></trkpt><trkpt lat="41.5068739" lon="0.8886335"><ele>330.0</ele><time>2026-05-04T14:33:37.532Z</time></trkpt><trkpt lat="41.5067996" lon="0.8888"><ele>330.0</ele><time>2026-05-04T14:33:38.539Z</time></trkpt><trkpt lat="41.5067237" lon="0.8889592"><ele>330.0</ele><time>2026-05-04T14:33:39.539Z</time></trkpt><trkpt lat="41.5066441" lon="0.8891207"><ele>330.0</ele><time>2026-05-04T14:33:40.538Z</time></trkpt><trkpt lat="41.5065585" lon="0.8892769"><ele>330.0</ele><time>2026-05-04T14:33:41.538Z</time></trkpt><trkpt lat="41.5064784" lon="0.8894304"><ele>329.75</ele><time>2026-05-04T14:33:42.543Z</time></trkpt><trkpt lat="41.5064029" lon="0.8895811"><ele>329.5</ele><time>2026-05-04T14:33:43.54Z</time></trkpt><trkpt lat="41.506323" lon="0.8897394"><ele>329.25</ele><time>2026-05-04T14:33:44.537Z</time></trkpt><trkpt lat="41.5062341" lon="0.8898939"><ele>329.0</ele><time>2026-05-04T14:33:45.536Z</time></trkpt><trkpt lat="41.5061512" lon="0.8900504"><ele>329.25</ele><time>2026-05-04T14:33:46.537Z</time></trkpt><trkpt lat="41.506059" lon="0.8902012"><ele>329.5</ele><time>2026-05-04T14:33:47.541Z</time></trkpt><trkpt lat="41.5059741" lon="0.8903518"><ele>329.75</ele><time>2026-05-04T14:33:48.544Z</time></trkpt><trkpt lat="41.5058833" lon="0.8904994"><ele>330.0</ele><time>2026-05-04T14:33:49.541Z</time></trkpt><trkpt lat="41.5057932" lon="0.8906511"><ele>330.0</ele><time>2026-05-04T14:33:50.54Z</time></trkpt><trkpt lat="41.5056983" lon="0.8907957"><ele>330.0</ele><time>2026-05-04T14:33:51.549Z</time></trkpt><trkpt lat="41.5056005" lon="0.8909391"><ele>330.0</ele><time>2026-05-04T14:33:52.539Z</time></trkpt><trkpt lat="41.5055067" lon="0.8910829"><ele>330.0</ele><time>2026-05-04T14:33:53.542Z</time></trkpt><trkpt lat="41.5054013" lon="0.8912256"><ele>330.0</ele><time>2026-05-04T14:33:54.541Z</time></trkpt><trkpt lat="41.5052862" lon="0.8913568"><ele>330.0</ele><time>2026-05-04T14:33:55.558Z</time></trkpt><trkpt lat="41.5051756" lon="0.8914771"><ele>330.0</ele><time>2026-05-04T14:33:56.544Z</time></trkpt><trkpt lat="41.5050779" lon="0.8915878"><ele>330.0</ele><time>2026-05-04T14:33:57.542Z</time></trkpt><trkpt lat="41.5049735" lon="0.8917077"><ele>330.25</ele><time>2026-05-04T14:33:58.533Z</time></trkpt><trkpt lat="41.5048737" lon="0.891822"><ele>330.5</ele><time>2026-05-04T14:33:59.545Z</time></trkpt><trkpt lat="41.5047547" lon="0.891956"><ele>330.75</ele><time>2026-05-04T14:34:00.547Z</time></trkpt><trkpt lat="41.5046442" lon="0.892053"><ele>331.0</ele><time>2026-05-04T14:34:01.533Z</time></trkpt><trkpt lat="41.5045131" lon="0.8921646"><ele>331.75</ele><time>2026-05-04T14:34:02.547Z</time></trkpt><trkpt lat="41.5044015" lon="0.8922733"><ele>332.5</ele><time>2026-05-04T14:34:03.532Z</time></trkpt><trkpt lat="41.5042724" lon="0.8923784"><ele>333.25</ele><time>2026-05-04T14:34:04.532Z</time></trkpt><trkpt lat="41.5041402" lon="0.8924827"><ele>334.0</ele><time>2026-05-04T14:34:05.535Z</time></trkpt><trkpt lat="41.5040177" lon="0.8925869"><ele>333.75</ele><time>2026-05-04T14:34:06.536Z</time></trkpt><trkpt lat="41.5039172" lon="0.8926865"><ele>333.5</ele><time>2026-05-04T14:34:07.535Z</time></trkpt><trkpt lat="41.5038165" lon="0.892791"><ele>333.25</ele><time>2026-05-04T14:34:08.542Z</time></trkpt><trkpt lat="41.5037119" lon="0.8928915"><ele>333.0</ele><time>2026-05-04T14:34:09.54Z</time></trkpt><trkpt lat="41.5036066" lon="0.8930006"><ele>333.5</ele><time>2026-05-04T14:34:10.542Z</time></trkpt><trkpt lat="41.5035009" lon="0.8931135"><ele>334.0</ele><time>2026-05-04T14:34:11.54Z</time></trkpt><trkpt lat="41.5034089" lon="0.8932265"><ele>334.5</ele><time>2026-05-04T14:34:12.541Z</time></trkpt><trkpt lat="41.5033263" lon="0.8933508"><ele>335.0</ele><time>2026-05-04T14:34:13.543Z</time></trkpt><trkpt lat="41.5032308" lon="0.8934616"><ele>335.0</ele><time>2026-05-04T14:34:14.543Z</time></trkpt><trkpt lat="41.5031358" lon="0.8935865"><ele>335.0</ele><time>2026-05-04T14:34:15.545Z</time></trkpt><trkpt lat="41.5030464" lon="0.8937138"><ele>335.0</ele><time>2026-05-04T14:34:16.542Z</time></trkpt><trkpt lat="41.5029486" lon="0.8938405"><ele>335.0</ele><time>2026-05-04T14:34:17.549Z</time></trkpt><trkpt lat="41.5028544" lon="0.8939777"><ele>335.5</ele><time>2026-05-04T14:34:18.542Z</time></trkpt><trkpt lat="41.5027639" lon="0.8941076"><ele>336.0</ele><time>2026-05-04T14:34:19.544Z</time></trkpt><trkpt lat="41.5026775" lon="0.8942396"><ele>336.5</ele><time>2026-05-04T14:34:20.527Z</time></trkpt><trkpt lat="41.5026053" lon="0.8943797"><ele>337.0</ele><time>2026-05-04T14:34:21.551Z</time></trkpt><trkpt lat="41.5025136" lon="0.8945525"><ele>337.0</ele><time>2026-05-04T14:34:22.533Z</time></trkpt><trkpt lat="41.5024104" lon="0.8946593"><ele>337.0</ele><time>2026-05-04T14:34:23.539Z</time></trkpt><trkpt lat="41.5023059" lon="0.8947904"><ele>337.0</ele><time>2026-05-04T14:34:24.535Z</time></trkpt><trkpt lat="41.5021991" lon="0.8949285"><ele>337.0</ele><time>2026-05-04T14:34:25.544Z</time></trkpt><trkpt lat="41.5021126" lon="0.8950718"><ele>337.5</ele><time>2026-05-04T14:34:26.549Z</time></trkpt><trkpt lat="41.5020163" lon="0.8952063"><ele>338.0</ele><time>2026-05-04T14:34:27.539Z</time></trkpt><trkpt lat="41.5019205" lon="0.8953412"><ele>338.5</ele><time>2026-05-04T14:34:28.544Z</time></trkpt><trkpt lat="41.5018253" lon="0.8954764"><ele>339.0</ele><time>2026-05-04T14:34:29.539Z</time></trkpt><trkpt lat="41.5017367" lon="0.8955998"><ele>339.0</ele><time>2026-05-04T14:34:30.547Z</time></trkpt><trkpt lat="41.5016455" lon="0.8957254"><ele>339.0</ele><time>2026-05-04T14:34:31.542Z</time></trkpt><trkpt lat="41.5015513" lon="0.8958504"><ele>339.0</ele><time>2026-05-04T14:34:32.544Z</time></trkpt><trkpt lat="41.5014569" lon="0.8959687"><ele>339.0</ele><time>2026-05-04T14:34:33.542Z</time></trkpt><trkpt lat="41.5013646" lon="0.8960843"><ele>340.25</ele><time>2026-05-04T14:34:34.542Z</time></trkpt><trkpt lat="41.5012636" lon="0.8961917"><ele>341.5</ele><time>2026-05-04T14:34:35.546Z</time></trkpt><trkpt lat="41.5011639" lon="0.8962934"><ele>342.75</ele><time>2026-05-04T14:34:36.54Z</time></trkpt><trkpt lat="41.5010608" lon="0.8963936"><ele>344.0</ele><time>2026-05-04T14:34:37.543Z</time></trkpt><trkpt lat="41.5009507" lon="0.8964877"><ele>344.25</ele><time>2026-05-04T14:34:38.542Z</time></trkpt><trkpt lat="41.500841" lon="0.8965791"><ele>344.5</ele><time>2026-05-04T14:34:39.542Z</time></trkpt><trkpt lat="41.5007292" lon="0.8966656"><ele>344.75</ele><time>2026-05-04T14:34:40.536Z</time></trkpt><trkpt lat="41.5006154" lon="0.8967476"><ele>345.0</ele><time>2026-05-04T14:34:41.542Z</time></trkpt><trkpt lat="41.5004968" lon="0.8968313"><ele>345.5</ele><time>2026-05-04T14:34:42.545Z</time></trkpt><trkpt lat="41.5003773" lon="0.8969135"><ele>346.0</ele><time>2026-05-04T14:34:43.551Z</time></trkpt><trkpt lat="41.500259" lon="0.8969933"><ele>346.5</ele><time>2026-05-04T14:34:44.55Z</time></trkpt><trkpt lat="41.5001444" lon="0.8970803"><ele>347.0</ele><time>2026-05-04T14:34:45.554Z</time></trkpt><trkpt lat="41.5000344" lon="0.8971664"><ele>347.0</ele><time>2026-05-04T14:34:46.555Z</time></trkpt><trkpt lat="41.4999368" lon="0.8972385"><ele>347.0</ele><time>2026-05-04T14:34:47.552Z</time></trkpt><trkpt lat="41.4998363" lon="0.8973063"><ele>347.0</ele><time>2026-05-04T14:34:48.535Z</time></trkpt><trkpt lat="41.4997275" lon="0.8973936"><ele>347.0</ele><time>2026-05-04T14:34:49.535Z</time></trkpt><trkpt lat="41.4996106" lon="0.8974713"><ele>347.75</ele><time>2026-05-04T14:34:50.552Z</time></trkpt><trkpt lat="41.4994987" lon="0.8975446"><ele>348.5</ele><time>2026-05-04T14:34:51.543Z</time></trkpt><trkpt lat="41.4993891" lon="0.897626"><ele>349.25</ele><time>2026-05-04T14:34:52.536Z</time></trkpt><trkpt lat="41.4992779" lon="0.8977113"><ele>350.0</ele><time>2026-05-04T14:34:53.554Z</time></trkpt><trkpt lat="41.4991685" lon="0.8978089"><ele>350.5</ele><time>2026-05-04T14:34:54.552Z</time></trkpt><trkpt lat="41.4990624" lon="0.8979089"><ele>351.0</ele><time>2026-05-04T14:34:55.558Z</time></trkpt><trkpt lat="41.4989554" lon="0.8979884"><ele>351.5</ele><time>2026-05-04T14:34:56.552Z</time></trkpt><trkpt lat="41.4988376" lon="0.8980848"><ele>352.0</ele><time>2026-05-04T14:34:57.568Z</time></trkpt><trkpt lat="41.4987124" lon="0.8981732"><ele>353.0</ele><time>2026-05-04T14:34:58.557Z</time></trkpt><trkpt lat="41.4985922" lon="0.8982678"><ele>354.0</ele><time>2026-05-04T14:34:59.541Z</time></trkpt><trkpt lat="41.4984804" lon="0.8983527"><ele>355.0</ele><time>2026-05-04T14:35:00.554Z</time></trkpt><trkpt lat="41.4983565" lon="0.8984507"><ele>356.0</ele><time>2026-05-04T14:35:01.552Z</time></trkpt><trkpt lat="41.4982359" lon="0.8985525"><ele>356.0</ele><time>2026-05-04T14:35:02.54Z</time></trkpt><trkpt lat="41.4981214" lon="0.8986618"><ele>356.0</ele><time>2026-05-04T14:35:03.541Z</time></trkpt><trkpt lat="41.4980117" lon="0.8987445"><ele>356.0</ele><time>2026-05-04T14:35:04.544Z</time></trkpt><trkpt lat="41.4978981" lon="0.8988185"><ele>356.0</ele><time>2026-05-04T14:35:05.542Z</time></trkpt><trkpt lat="41.4977836" lon="0.898899"><ele>357.0</ele><time>2026-05-04T14:35:06.541Z</time></trkpt><trkpt lat="41.4976682" lon="0.8989713"><ele>358.0</ele><time>2026-05-04T14:35:07.545Z</time></trkpt><trkpt lat="41.4975517" lon="0.8990493"><ele>359.0</ele><time>2026-05-04T14:35:08.542Z</time></trkpt><trkpt lat="41.4974342" lon="0.8991266"><ele>360.0</ele><time>2026-05-04T14:35:09.545Z</time></trkpt><trkpt lat="41.4973132" lon="0.8992045"><ele>359.75</ele><time>2026-05-04T14:35:10.549Z</time></trkpt><trkpt lat="41.4971914" lon="0.8992801"><ele>359.5</ele><time>2026-05-04T14:35:11.548Z</time></trkpt><trkpt lat="41.497071" lon="0.8993548"><ele>359.25</ele><time>2026-05-04T14:35:12.551Z</time></trkpt><trkpt lat="41.4969546" lon="0.8994246"><ele>359.0</ele><time>2026-05-04T14:35:13.544Z</time></trkpt><trkpt lat="41.4968294" lon="0.899489"><ele>359.0</ele><time>2026-05-04T14:35:14.544Z</time></trkpt><trkpt lat="41.4967056" lon="0.8995525"><ele>359.0</ele><time>2026-05-04T14:35:15.545Z</time></trkpt><trkpt lat="41.4965796" lon="0.8996144"><ele>359.0</ele><time>2026-05-04T14:35:16.543Z</time></trkpt><trkpt lat="41.4964581" lon="0.8996794"><ele>359.0</ele><time>2026-05-04T14:35:17.552Z</time></trkpt><trkpt lat="41.4963314" lon="0.8997411"><ele>360.0</ele><time>2026-05-04T14:35:18.547Z</time></trkpt><trkpt lat="41.4962006" lon="0.8998044"><ele>361.0</ele><time>2026-05-04T14:35:19.549Z</time></trkpt><trkpt lat="41.4960713" lon="0.8998691"><ele>362.0</ele><time>2026-05-04T14:35:20.548Z</time></trkpt><trkpt lat="41.4959423" lon="0.8999378"><ele>363.0</ele><time>2026-05-04T14:35:21.55Z</time></trkpt><trkpt lat="41.4958141" lon="0.9000073"><ele>363.0</ele><time>2026-05-04T14:35:22.549Z</time></trkpt><trkpt lat="41.495692" lon="0.9000778"><ele>363.0</ele><time>2026-05-04T14:35:23.547Z</time></trkpt><trkpt lat="41.4955599" lon="0.9001437"><ele>363.0</ele><time>2026-05-04T14:35:24.546Z</time></trkpt><trkpt lat="41.495423" lon="0.9002096"><ele>363.0</ele><time>2026-05-04T14:35:25.549Z</time></trkpt><trkpt lat="41.4952802" lon="0.9002791"><ele>363.0</ele><time>2026-05-04T14:35:26.554Z</time></trkpt><trkpt lat="41.4951443" lon="0.9003443"><ele>363.0</ele><time>2026-05-04T14:35:27.55Z</time></trkpt><trkpt lat="41.495012" lon="0.9004124"><ele>363.0</ele><time>2026-05-04T14:35:28.564Z</time></trkpt><trkpt lat="41.4948766" lon="0.900481"><ele>363.0</ele><time>2026-05-04T14:35:29.55Z</time></trkpt><trkpt lat="41.4947471" lon="0.9005453"><ele>363.0</ele><time>2026-05-04T14:35:30.553Z</time></trkpt><trkpt lat="41.4946129" lon="0.9006178"><ele>363.0</ele><time>2026-05-04T14:35:31.55Z</time></trkpt><trkpt lat="41.4944834" lon="0.9006922"><ele>363.0</ele><time>2026-05-04T14:35:32.555Z</time></trkpt><trkpt lat="41.494361" lon="0.9007801"><ele>363.0</ele><time>2026-05-04T14:35:33.558Z</time></trkpt><trkpt lat="41.4942671" lon="0.9008708"><ele>362.75</ele><time>2026-05-04T14:35:34.558Z</time></trkpt><trkpt lat="41.4941747" lon="0.9009654"><ele>362.5</ele><time>2026-05-04T14:35:35.555Z</time></trkpt><trkpt lat="41.4940719" lon="0.9010559"><ele>362.25</ele><time>2026-05-04T14:35:36.545Z</time></trkpt><trkpt lat="41.4939507" lon="0.9011776"><ele>362.0</ele><time>2026-05-04T14:35:37.554Z</time></trkpt><trkpt lat="41.4938248" lon="0.9013047"><ele>362.6666666666667</ele><time>2026-05-04T14:35:38.552Z</time></trkpt><trkpt lat="41.4937125" lon="0.9014478"><ele>363.3333333333333</ele><time>2026-05-04T14:35:39.544Z</time></trkpt><trkpt lat="41.4936024" lon="0.9015712"><ele>364.0</ele><time>2026-05-04T14:35:40.539Z</time></trkpt><trkpt lat="41.4934861" lon="0.9017079"><ele>364.5</ele><time>2026-05-04T14:35:41.552Z</time></trkpt><trkpt lat="41.4933745" lon="0.9018227"><ele>365.0</ele><time>2026-05-04T14:35:42.552Z</time></trkpt><trkpt lat="41.4932747" lon="0.9019604"><ele>365.5</ele><time>2026-05-04T14:35:43.549Z</time></trkpt><trkpt lat="41.493158" lon="0.9020918"><ele>366.0</ele><time>2026-05-04T14:35:44.55Z</time></trkpt><trkpt lat="41.4930541" lon="0.9022237"><ele>366.0</ele><time>2026-05-04T14:35:45.546Z</time></trkpt><trkpt lat="41.4929503" lon="0.9023502"><ele>366.0</ele><time>2026-05-04T14:35:46.547Z</time></trkpt><trkpt lat="41.4928563" lon="0.9024666"><ele>366.0</ele><time>2026-05-04T14:35:47.546Z</time></trkpt><trkpt lat="41.4927581" lon="0.9025794"><ele>366.0</ele><time>2026-05-04T14:35:48.553Z</time></trkpt><trkpt lat="41.4926674" lon="0.9026902"><ele>366.25</ele><time>2026-05-04T14:35:49.555Z</time></trkpt><trkpt lat="41.4925699" lon="0.9028058"><ele>366.5</ele><time>2026-05-04T14:35:50.543Z</time></trkpt><trkpt lat="41.4924792" lon="0.9029207"><ele>366.75</ele><time>2026-05-04T14:35:51.548Z</time></trkpt><trkpt lat="41.4923843" lon="0.9030343"><ele>367.0</ele><time>2026-05-04T14:35:52.545Z</time></trkpt><trkpt lat="41.4922886" lon="0.9031488"><ele>367.0</ele><time>2026-05-04T14:35:53.552Z</time></trkpt><trkpt lat="41.4921929" lon="0.9032615"><ele>367.0</ele><time>2026-05-04T14:35:54.547Z</time></trkpt><trkpt lat="41.4920991" lon="0.9033714"><ele>367.0</ele><time>2026-05-04T14:35:55.546Z</time></trkpt><trkpt lat="41.4920053" lon="0.9034829"><ele>367.0</ele><time>2026-05-04T14:35:56.543Z</time></trkpt><trkpt lat="41.491908" lon="0.9035951"><ele>368.25</ele><time>2026-05-04T14:35:57.547Z</time></trkpt><trkpt lat="41.4918024" lon="0.9037032"><ele>369.5</ele><time>2026-05-04T14:35:58.549Z</time></trkpt><trkpt lat="41.4916946" lon="0.9038127"><ele>370.75</ele><time>2026-05-04T14:35:59.566Z</time></trkpt><trkpt lat="41.491587" lon="0.9039177"><ele>372.0</ele><time>2026-05-04T14:36:00.557Z</time></trkpt><trkpt lat="41.4914941" lon="0.9040213"><ele>372.0</ele><time>2026-05-04T14:36:01.556Z</time></trkpt><trkpt lat="41.4914236" lon="0.9041159"><ele>372.0</ele><time>2026-05-04T14:36:02.563Z</time></trkpt><trkpt lat="41.491365" lon="0.9042088"><ele>372.0</ele><time>2026-05-04T14:36:03.554Z</time></trkpt><trkpt lat="41.4912851" lon="0.9042673"><ele>372.0</ele><time>2026-05-04T14:36:04.551Z</time></trkpt><trkpt lat="41.4911969" lon="0.9043267"><ele>372.0</ele><time>2026-05-04T14:36:05.539Z</time></trkpt><trkpt lat="41.491095" lon="0.9043777"><ele>372.0</ele><time>2026-05-04T14:36:06.549Z</time></trkpt><trkpt lat="41.490966" lon="0.9044501"><ele>372.0</ele><time>2026-05-04T14:36:07.55Z</time></trkpt><trkpt lat="41.4908421" lon="0.9045333"><ele>372.0</ele><time>2026-05-04T14:36:08.551Z</time></trkpt><trkpt lat="41.490702" lon="0.9046433"><ele>372.0</ele><time>2026-05-04T14:36:09.541Z</time></trkpt><trkpt lat="41.4905636" lon="0.9047233"><ele>374.3333333333333</ele><time>2026-05-04T14:36:10.538Z</time></trkpt><trkpt lat="41.4904182" lon="0.9048051"><ele>376.66666666666663</ele><time>2026-05-04T14:36:11.549Z</time></trkpt><trkpt lat="41.4902707" lon="0.9048996"><ele>379.0</ele><time>2026-05-04T14:36:12.547Z</time></trkpt><trkpt lat="41.4901236" lon="0.9049792"><ele>379.0</ele><time>2026-05-04T14:36:13.551Z</time></trkpt><trkpt lat="41.4899805" lon="0.9050645"><ele>379.0</ele><time>2026-05-04T14:36:14.547Z</time></trkpt><trkpt lat="41.4898414" lon="0.9051552"><ele>379.0</ele><time>2026-05-04T14:36:15.55Z</time></trkpt><trkpt lat="41.489708" lon="0.9052376"><ele>379.75</ele><time>2026-05-04T14:36:16.55Z</time></trkpt><trkpt lat="41.4895787" lon="0.9053106"><ele>380.5</ele><time>2026-05-04T14:36:17.545Z</time></trkpt><trkpt lat="41.4894539" lon="0.9053881"><ele>381.25</ele><time>2026-05-04T14:36:18.558Z</time></trkpt><trkpt lat="41.4893363" lon="0.9054612"><ele>382.0</ele><time>2026-05-04T14:36:19.546Z</time></trkpt><trkpt lat="41.4892183" lon="0.9055396"><ele>382.0</ele><time>2026-05-04T14:36:20.554Z</time></trkpt><trkpt lat="41.4891216" lon="0.9056003"><ele>382.0</ele><time>2026-05-04T14:36:21.557Z</time></trkpt><trkpt lat="41.4890066" lon="0.9056625"><ele>382.0</ele><time>2026-05-04T14:36:22.55Z</time></trkpt><trkpt lat="41.4888995" lon="0.9057284"><ele>382.0</ele><time>2026-05-04T14:36:23.552Z</time></trkpt><trkpt lat="41.4888022" lon="0.9057932"><ele>382.25</ele><time>2026-05-04T14:36:24.557Z</time></trkpt><trkpt lat="41.4886888" lon="0.9058789"><ele>382.5</ele><time>2026-05-04T14:36:25.548Z</time></trkpt><trkpt lat="41.4885518" lon="0.9059577"><ele>382.75</ele><time>2026-05-04T14:36:26.533Z</time></trkpt><trkpt lat="41.4884242" lon="0.9060488"><ele>383.0</ele><time>2026-05-04T14:36:27.548Z</time></trkpt><trkpt lat="41.4883024" lon="0.9061373"><ele>383.0</ele><time>2026-05-04T14:36:28.542Z</time></trkpt><trkpt lat="41.4881801" lon="0.9062197"><ele>383.0</ele><time>2026-05-04T14:36:29.531Z</time></trkpt><trkpt lat="41.4880605" lon="0.9063004"><ele>383.0</ele><time>2026-05-04T14:36:30.577Z</time></trkpt><trkpt lat="41.4879436" lon="0.9063782"><ele>383.0</ele><time>2026-05-04T14:36:31.543Z</time></trkpt><trkpt lat="41.4878202" lon="0.9064636"><ele>383.0</ele><time>2026-05-04T14:36:32.545Z</time></trkpt><trkpt lat="41.4876956" lon="0.9065484"><ele>383.0</ele><time>2026-05-04T14:36:33.547Z</time></trkpt><trkpt lat="41.4875709" lon="0.906632"><ele>383.0</ele><time>2026-05-04T14:36:34.546Z</time></trkpt><trkpt lat="41.4874386" lon="0.9067193"><ele>383.0</ele><time>2026-05-04T14:36:35.551Z</time></trkpt><trkpt lat="41.4873105" lon="0.90681"><ele>382.33333333333337</ele><time>2026-05-04T14:36:36.545Z</time></trkpt><trkpt lat="41.4871765" lon="0.9068959"><ele>381.6666666666667</ele><time>2026-05-04T14:36:37.545Z</time></trkpt><trkpt lat="41.4870446" lon="0.9069835"><ele>381.0</ele><time>2026-05-04T14:36:38.54Z</time></trkpt><trkpt lat="41.4869047" lon="0.9070696"><ele>381.0</ele><time>2026-05-04T14:36:39.549Z</time></trkpt><trkpt lat="41.4867627" lon="0.9071654"><ele>381.0</ele><time>2026-05-04T14:36:40.544Z</time></trkpt><trkpt lat="41.4866274" lon="0.9072595"><ele>381.0</ele><time>2026-05-04T14:36:41.545Z</time></trkpt><trkpt lat="41.4864996" lon="0.9073423"><ele>381.0</ele><time>2026-05-04T14:36:42.548Z</time></trkpt><trkpt lat="41.4863629" lon="0.9074279"><ele>381.0</ele><time>2026-05-04T14:36:43.55Z</time></trkpt><trkpt lat="41.4862244" lon="0.9075168"><ele>381.0</ele><time>2026-05-04T14:36:44.544Z</time></trkpt><trkpt lat="41.4860924" lon="0.9076046"><ele>381.0</ele><time>2026-05-04T14:36:45.55Z</time></trkpt><trkpt lat="41.4859659" lon="0.9076872"><ele>381.0</ele><time>2026-05-04T14:36:46.546Z</time></trkpt><trkpt lat="41.4858438" lon="0.9077693"><ele>381.0</ele><time>2026-05-04T14:36:47.555Z</time></trkpt><trkpt lat="41.4857218" lon="0.9078562"><ele>381.0</ele><time>2026-05-04T14:36:48.547Z</time></trkpt><trkpt lat="41.485599" lon="0.9079469"><ele>381.0</ele><time>2026-05-04T14:36:49.555Z</time></trkpt><trkpt lat="41.4854845" lon="0.9080298"><ele>381.0</ele><time>2026-05-04T14:36:50.552Z</time></trkpt><trkpt lat="41.4853906" lon="0.9080636"><ele>381.0</ele><time>2026-05-04T14:36:51.554Z</time></trkpt><trkpt lat="41.4853152" lon="0.9081282"><ele>381.0</ele><time>2026-05-04T14:36:52.55Z</time></trkpt><trkpt lat="41.4852353" lon="0.9082128"><ele>381.0</ele><time>2026-05-04T14:36:53.537Z</time></trkpt><trkpt lat="41.4851295" lon="0.9082544"><ele>382.0</ele><time>2026-05-04T14:36:54.549Z</time></trkpt><trkpt lat="41.4850522" lon="0.9083307"><ele>383.0</ele><time>2026-05-04T14:36:55.553Z</time></trkpt><trkpt lat="41.4849103" lon="0.9083783"><ele>384.0</ele><time>2026-05-04T14:36:56.555Z</time></trkpt><trkpt lat="41.4847841" lon="0.9085155"><ele>385.0</ele><time>2026-05-04T14:36:57.549Z</time></trkpt><trkpt lat="41.4846612" lon="0.9085852"><ele>386.0</ele><time>2026-05-04T14:36:58.552Z</time></trkpt><trkpt lat="41.4845269" lon="0.9086568"><ele>387.0</ele><time>2026-05-04T14:36:59.537Z</time></trkpt><trkpt lat="41.4844126" lon="0.908727"><ele>388.0</ele><time>2026-05-04T14:37:00.567Z</time></trkpt><trkpt lat="41.4843084" lon="0.9088001"><ele>389.0</ele><time>2026-05-04T14:37:01.55Z</time></trkpt><trkpt lat="41.4841949" lon="0.9088643"><ele>389.0</ele><time>2026-05-04T14:37:02.551Z</time></trkpt><trkpt lat="41.4840983" lon="0.9089297"><ele>389.0</ele><time>2026-05-04T14:37:03.541Z</time></trkpt><trkpt lat="41.4839891" lon="0.9089965"><ele>389.0</ele><time>2026-05-04T14:37:04.541Z</time></trkpt><trkpt lat="41.4838827" lon="0.9090694"><ele>389.0</ele><time>2026-05-04T14:37:05.542Z</time></trkpt><trkpt lat="41.4837702" lon="0.9091502"><ele>390.0</ele><time>2026-05-04T14:37:06.55Z</time></trkpt><trkpt lat="41.4836637" lon="0.9092242"><ele>391.0</ele><time>2026-05-04T14:37:07.547Z</time></trkpt><trkpt lat="41.4835503" lon="0.9093076"><ele>392.0</ele><time>2026-05-04T14:37:08.559Z</time></trkpt><trkpt lat="41.4834238" lon="0.9093932"><ele>393.0</ele><time>2026-05-04T14:37:09.538Z</time></trkpt><trkpt lat="41.4832962" lon="0.9094862"><ele>393.0</ele><time>2026-05-04T14:37:10.557Z</time></trkpt><trkpt lat="41.4831452" lon="0.9095825"><ele>393.0</ele><time>2026-05-04T14:37:11.559Z</time></trkpt><trkpt lat="41.4829553" lon="0.9097436"><ele>393.0</ele><time>2026-05-04T14:37:12.553Z</time></trkpt><trkpt lat="41.4828236" lon="0.9098734"><ele>393.75</ele><time>2026-05-04T14:37:13.554Z</time></trkpt><trkpt lat="41.4826953" lon="0.9099524"><ele>394.5</ele><time>2026-05-04T14:37:14.546Z</time></trkpt><trkpt lat="41.4825744" lon="0.910008"><ele>395.25</ele><time>2026-05-04T14:37:15.543Z</time></trkpt><trkpt lat="41.4824631" lon="0.9100578"><ele>396.0</ele><time>2026-05-04T14:37:16.54Z</time></trkpt><trkpt lat="41.4823674" lon="0.9101263"><ele>396.25</ele><time>2026-05-04T14:37:17.532Z</time></trkpt><trkpt lat="41.4822651" lon="0.9101876"><ele>396.5</ele><time>2026-05-04T14:37:18.541Z</time></trkpt><trkpt lat="41.4821568" lon="0.9102351"><ele>396.75</ele><time>2026-05-04T14:37:19.542Z</time></trkpt><trkpt lat="41.4820399" lon="0.9103022"><ele>397.0</ele><time>2026-05-04T14:37:20.543Z</time></trkpt><trkpt lat="41.4819286" lon="0.910376"><ele>397.5</ele><time>2026-05-04T14:37:21.543Z</time></trkpt><trkpt lat="41.4818104" lon="0.910458"><ele>398.0</ele><time>2026-05-04T14:37:22.537Z</time></trkpt><trkpt lat="41.481695" lon="0.9105324"><ele>398.5</ele><time>2026-05-04T14:37:23.542Z</time></trkpt><trkpt lat="41.4815815" lon="0.9106059"><ele>399.0</ele><time>2026-05-04T14:37:24.543Z</time></trkpt><trkpt lat="41.481466" lon="0.9106828"><ele>399.0</ele><time>2026-05-04T14:37:25.544Z</time></trkpt><trkpt lat="41.4813437" lon="0.910764"><ele>399.0</ele><time>2026-05-04T14:37:26.543Z</time></trkpt><trkpt lat="41.4812234" lon="0.9108451"><ele>399.0</ele><time>2026-05-04T14:37:27.541Z</time></trkpt><trkpt lat="41.4811049" lon="0.9109231"><ele>399.0</ele><time>2026-05-04T14:37:28.541Z</time></trkpt><trkpt lat="41.48098" lon="0.9110025"><ele>399.5</ele><time>2026-05-04T14:37:29.542Z</time></trkpt><trkpt lat="41.4808626" lon="0.9110846"><ele>400.0</ele><time>2026-05-04T14:37:30.545Z</time></trkpt><trkpt lat="41.4807506" lon="0.911172"><ele>400.5</ele><time>2026-05-04T14:37:31.556Z</time></trkpt><trkpt lat="41.480629" lon="0.9112531"><ele>401.0</ele><time>2026-05-04T14:37:32.543Z</time></trkpt><trkpt lat="41.4805132" lon="0.9113317"><ele>401.0</ele><time>2026-05-04T14:37:33.55Z</time></trkpt><trkpt lat="41.4804344" lon="0.9113947"><ele>401.0</ele><time>2026-05-04T14:37:34.55Z</time></trkpt><trkpt lat="41.4803458" lon="0.911437"><ele>401.0</ele><time>2026-05-04T14:37:35.544Z</time></trkpt><trkpt lat="41.4802118" lon="0.9115601"><ele>401.0</ele><time>2026-05-04T14:37:36.546Z</time></trkpt><trkpt lat="41.4800719" lon="0.9116648"><ele>401.25</ele><time>2026-05-04T14:37:37.551Z</time></trkpt><trkpt lat="41.4799468" lon="0.9117211"><ele>401.5</ele><time>2026-05-04T14:37:38.537Z</time></trkpt><trkpt lat="41.4798112" lon="0.9117813"><ele>401.75</ele><time>2026-05-04T14:37:39.538Z</time></trkpt><trkpt lat="41.4796847" lon="0.9118404"><ele>402.0</ele><time>2026-05-04T14:37:40.534Z</time></trkpt><trkpt lat="41.4795573" lon="0.9119295"><ele>402.75</ele><time>2026-05-04T14:37:41.534Z</time></trkpt><trkpt lat="41.4794276" lon="0.9120195"><ele>403.5</ele><time>2026-05-04T14:37:42.542Z</time></trkpt><trkpt lat="41.4792987" lon="0.9121198"><ele>404.25</ele><time>2026-05-04T14:37:43.544Z</time></trkpt><trkpt lat="41.4791711" lon="0.9122109"><ele>405.0</ele><time>2026-05-04T14:37:44.542Z</time></trkpt><trkpt lat="41.4790453" lon="0.9122998"><ele>405.0</ele><time>2026-05-04T14:37:45.544Z</time></trkpt><trkpt lat="41.4789315" lon="0.912375"><ele>405.0</ele><time>2026-05-04T14:37:46.547Z</time></trkpt><trkpt lat="41.4788108" lon="0.9124515"><ele>405.0</ele><time>2026-05-04T14:37:47.547Z</time></trkpt><trkpt lat="41.4787006" lon="0.9125253"><ele>405.0</ele><time>2026-05-04T14:37:48.549Z</time></trkpt><trkpt lat="41.4785819" lon="0.9125976"><ele>406.25</ele><time>2026-05-04T14:37:49.546Z</time></trkpt><trkpt lat="41.4784653" lon="0.9126785"><ele>407.5</ele><time>2026-05-04T14:37:50.55Z</time></trkpt><trkpt lat="41.4783486" lon="0.9127532"><ele>408.75</ele><time>2026-05-04T14:37:51.55Z</time></trkpt><trkpt lat="41.4782404" lon="0.9128282"><ele>410.0</ele><time>2026-05-04T14:37:52.55Z</time></trkpt><trkpt lat="41.4781292" lon="0.9129116"><ele>410.0</ele><time>2026-05-04T14:37:53.553Z</time></trkpt><trkpt lat="41.4780163" lon="0.913009"><ele>410.0</ele><time>2026-05-04T14:37:54.549Z</time></trkpt><trkpt lat="41.477905" lon="0.9130931"><ele>410.0</ele><time>2026-05-04T14:37:55.545Z</time></trkpt><trkpt lat="41.4778044" lon="0.9131327"><ele>410.0</ele><time>2026-05-04T14:37:56.551Z</time></trkpt><trkpt lat="41.4777012" lon="0.9132102"><ele>410.5</ele><time>2026-05-04T14:37:57.542Z</time></trkpt><trkpt lat="41.4775855" lon="0.9132855"><ele>411.0</ele><time>2026-05-04T14:37:58.543Z</time></trkpt><trkpt lat="41.4774748" lon="0.9133696"><ele>411.5</ele><time>2026-05-04T14:37:59.54Z</time></trkpt><trkpt lat="41.4773656" lon="0.9134658"><ele>412.0</ele><time>2026-05-04T14:38:00.545Z</time></trkpt><trkpt lat="41.4772602" lon="0.9135678"><ele>412.0</ele><time>2026-05-04T14:38:01.545Z</time></trkpt><trkpt lat="41.477157" lon="0.9136868"><ele>412.0</ele><time>2026-05-04T14:38:02.558Z</time></trkpt><trkpt lat="41.4770578" lon="0.9138198"><ele>412.0</ele><time>2026-05-04T14:38:03.54Z</time></trkpt><trkpt lat="41.4769681" lon="0.9139553"><ele>412.0</ele><time>2026-05-04T14:38:04.539Z</time></trkpt><trkpt lat="41.47688" lon="0.9140962"><ele>412.25</ele><time>2026-05-04T14:38:05.544Z</time></trkpt><trkpt lat="41.4768032" lon="0.9142367"><ele>412.5</ele><time>2026-05-04T14:38:06.546Z</time></trkpt><trkpt lat="41.476728" lon="0.9143739"><ele>412.75</ele><time>2026-05-04T14:38:07.547Z</time></trkpt><trkpt lat="41.4766608" lon="0.9145328"><ele>413.0</ele><time>2026-05-04T14:38:08.536Z</time></trkpt><trkpt lat="41.4765888" lon="0.9146802"><ele>413.25</ele><time>2026-05-04T14:38:09.536Z</time></trkpt><trkpt lat="41.4765227" lon="0.9148251"><ele>413.5</ele><time>2026-05-04T14:38:10.537Z</time></trkpt><trkpt lat="41.4764521" lon="0.9149781"><ele>413.75</ele><time>2026-05-04T14:38:11.537Z</time></trkpt><trkpt lat="41.4763816" lon="0.9151271"><ele>414.0</ele><time>2026-05-04T14:38:12.538Z</time></trkpt><trkpt lat="41.4763082" lon="0.9152659"><ele>416.25</ele><time>2026-05-04T14:38:13.538Z</time></trkpt><trkpt lat="41.4762319" lon="0.9154129"><ele>418.5</ele><time>2026-05-04T14:38:14.536Z</time></trkpt><trkpt lat="41.476163" lon="0.915558"><ele>420.75</ele><time>2026-05-04T14:38:15.541Z</time></trkpt><trkpt lat="41.4760913" lon="0.9157025"><ele>423.0</ele><time>2026-05-04T14:38:16.542Z</time></trkpt><trkpt lat="41.4760245" lon="0.9158429"><ele>422.75</ele><time>2026-05-04T14:38:17.539Z</time></trkpt><trkpt lat="41.4759584" lon="0.9159838"><ele>422.5</ele><time>2026-05-04T14:38:18.542Z</time></trkpt><trkpt lat="41.4758914" lon="0.9161166"><ele>422.25</ele><time>2026-05-04T14:38:19.545Z</time></trkpt><trkpt lat="41.4758185" lon="0.9162547"><ele>422.0</ele><time>2026-05-04T14:38:20.543Z</time></trkpt><trkpt lat="41.475748" lon="0.9163886"><ele>422.0</ele><time>2026-05-04T14:38:21.544Z</time></trkpt><trkpt lat="41.4756784" lon="0.9165202"><ele>422.0</ele><time>2026-05-04T14:38:22.548Z</time></trkpt><trkpt lat="41.4756107" lon="0.9166544"><ele>422.0</ele><time>2026-05-04T14:38:23.549Z</time></trkpt><trkpt lat="41.4755426" lon="0.9167918"><ele>422.0</ele><time>2026-05-04T14:38:24.549Z</time></trkpt><trkpt lat="41.4754731" lon="0.9169335"><ele>423.25</ele><time>2026-05-04T14:38:25.552Z</time></trkpt><trkpt lat="41.4754073" lon="0.917066"><ele>424.5</ele><time>2026-05-04T14:38:26.55Z</time></trkpt><trkpt lat="41.4753367" lon="0.9172035"><ele>425.75</ele><time>2026-05-04T14:38:27.549Z</time></trkpt><trkpt lat="41.4752689" lon="0.9173425"><ele>427.0</ele><time>2026-05-04T14:38:28.547Z</time></trkpt><trkpt lat="41.4751971" lon="0.9174796"><ele>426.75</ele><time>2026-05-04T14:38:29.547Z</time></trkpt><trkpt lat="41.4751202" lon="0.9176151"><ele>426.5</ele><time>2026-05-04T14:38:30.553Z</time></trkpt><trkpt lat="41.4750506" lon="0.9177493"><ele>426.25</ele><time>2026-05-04T14:38:31.548Z</time></trkpt><trkpt lat="41.4749794" lon="0.917882"><ele>426.0</ele><time>2026-05-04T14:38:32.552Z</time></trkpt><trkpt lat="41.4749135" lon="0.9180161"><ele>426.0</ele><time>2026-05-04T14:38:33.564Z</time></trkpt><trkpt lat="41.4748401" lon="0.918145"><ele>426.0</ele><time>2026-05-04T14:38:34.549Z</time></trkpt><trkpt lat="41.4747692" lon="0.9182751"><ele>426.0</ele><time>2026-05-04T14:38:35.55Z</time></trkpt><trkpt lat="41.4746977" lon="0.9184086"><ele>426.0</ele><time>2026-05-04T14:38:36.55Z</time></trkpt><trkpt lat="41.4746253" lon="0.9185399"><ele>427.25</ele><time>2026-05-04T14:38:37.549Z</time></trkpt><trkpt lat="41.474556" lon="0.9186712"><ele>428.5</ele><time>2026-05-04T14:38:38.549Z</time></trkpt><trkpt lat="41.4744892" lon="0.9187982"><ele>429.75</ele><time>2026-05-04T14:38:39.55Z</time></trkpt><trkpt lat="41.474424" lon="0.9189206"><ele>431.0</ele><time>2026-05-04T14:38:40.549Z</time></trkpt><trkpt lat="41.4743624" lon="0.9190465"><ele>431.0</ele><time>2026-05-04T14:38:41.549Z</time></trkpt><trkpt lat="41.4742972" lon="0.9191751"><ele>431.0</ele><time>2026-05-04T14:38:42.547Z</time></trkpt><trkpt lat="41.4742334" lon="0.9193034"><ele>431.0</ele><time>2026-05-04T14:38:43.554Z</time></trkpt><trkpt lat="41.4741721" lon="0.9194383"><ele>431.0</ele><time>2026-05-04T14:38:44.548Z</time></trkpt><trkpt lat="41.474109" lon="0.9195674"><ele>432.0</ele><time>2026-05-04T14:38:45.55Z</time></trkpt><trkpt lat="41.4740415" lon="0.919702"><ele>433.0</ele><time>2026-05-04T14:38:46.549Z</time></trkpt><trkpt lat="41.473977" lon="0.9198322"><ele>434.0</ele><time>2026-05-04T14:38:47.549Z</time></trkpt><trkpt lat="41.4739057" lon="0.9199542"><ele>435.0</ele><time>2026-05-04T14:38:48.552Z</time></trkpt><trkpt lat="41.4738408" lon="0.9200823"><ele>435.6</ele><time>2026-05-04T14:38:49.55Z</time></trkpt><trkpt lat="41.4737783" lon="0.9202063"><ele>436.2</ele><time>2026-05-04T14:38:50.545Z</time></trkpt><trkpt lat="41.4737171" lon="0.920333"><ele>436.79999999999995</ele><time>2026-05-04T14:38:51.554Z</time></trkpt><trkpt lat="41.4736523" lon="0.9204558"><ele>437.4</ele><time>2026-05-04T14:38:52.553Z</time></trkpt><trkpt lat="41.4735925" lon="0.9205737"><ele>438.0</ele><time>2026-05-04T14:38:53.558Z</time></trkpt><trkpt lat="41.4735325" lon="0.9206988"><ele>438.0</ele><time>2026-05-04T14:38:54.555Z</time></trkpt><trkpt lat="41.4734652" lon="0.9208138"><ele>437.99999999999994</ele><time>2026-05-04T14:38:55.556Z</time></trkpt><trkpt lat="41.4734112" lon="0.9209109"><ele>437.99999999999994</ele><time>2026-05-04T14:38:56.551Z</time></trkpt><trkpt lat="41.4733548" lon="0.9209981"><ele>438.0</ele><time>2026-05-04T14:38:57.546Z</time></trkpt><trkpt lat="41.4733036" lon="0.9210899"><ele>438.0</ele><time>2026-05-04T14:38:58.541Z</time></trkpt><trkpt lat="41.4732444" lon="0.9212077"><ele>439.0</ele><time>2026-05-04T14:38:59.557Z</time></trkpt><trkpt lat="41.4731891" lon="0.9213213"><ele>440.0</ele><time>2026-05-04T14:39:00.555Z</time></trkpt><trkpt lat="41.4731197" lon="0.9214547"><ele>441.0</ele><time>2026-05-04T14:39:01.565Z</time></trkpt><trkpt lat="41.4730642" lon="0.9215936"><ele>442.0</ele><time>2026-05-04T14:39:02.554Z</time></trkpt><trkpt lat="41.4729895" lon="0.9217562"><ele>444.5</ele><time>2026-05-04T14:39:03.556Z</time></trkpt><trkpt lat="41.4729041" lon="0.9219138"><ele>447.0</ele><time>2026-05-04T14:39:04.564Z</time></trkpt><trkpt lat="41.4728287" lon="0.9220441"><ele>449.5</ele><time>2026-05-04T14:39:05.549Z</time></trkpt><trkpt lat="41.472754" lon="0.9221602"><ele>452.0</ele><time>2026-05-04T14:39:06.543Z</time></trkpt><trkpt lat="41.472692" lon="0.9222638"><ele>452.0</ele><time>2026-05-04T14:39:07.557Z</time></trkpt><trkpt lat="41.4726386" lon="0.9223803"><ele>452.00000000000006</ele><time>2026-05-04T14:39:08.553Z</time></trkpt><trkpt lat="41.4725864" lon="0.9224956"><ele>452.00000000000006</ele><time>2026-05-04T14:39:09.554Z</time></trkpt><trkpt lat="41.4725247" lon="0.9226212"><ele>452.0</ele><time>2026-05-04T14:39:10.549Z</time></trkpt><trkpt lat="41.4724558" lon="0.9227484"><ele>452.0</ele><time>2026-05-04T14:39:11.554Z</time></trkpt><trkpt lat="41.4723909" lon="0.9228775"><ele>453.5</ele><time>2026-05-04T14:39:12.543Z</time></trkpt><trkpt lat="41.4723371" lon="0.9230061"><ele>455.0</ele><time>2026-05-04T14:39:13.544Z</time></trkpt><trkpt lat="41.4722758" lon="0.9231301"><ele>456.5</ele><time>2026-05-04T14:39:14.543Z</time></trkpt><trkpt lat="41.4722094" lon="0.9232656"><ele>458.0</ele><time>2026-05-04T14:39:15.539Z</time></trkpt><trkpt lat="41.4721446" lon="0.9233933"><ele>460.5</ele><time>2026-05-04T14:39:16.552Z</time></trkpt><trkpt lat="41.4720726" lon="0.9235227"><ele>463.0</ele><time>2026-05-04T14:39:17.541Z</time></trkpt><trkpt lat="41.4720056" lon="0.9236442"><ele>465.5</ele><time>2026-05-04T14:39:18.543Z</time></trkpt><trkpt lat="41.4719417" lon="0.923767"><ele>468.0</ele><time>2026-05-04T14:39:19.539Z</time></trkpt><trkpt lat="41.4718749" lon="0.923883"><ele>468.0</ele><time>2026-05-04T14:39:20.542Z</time></trkpt><trkpt lat="41.4718042" lon="0.9239921"><ele>468.0</ele><time>2026-05-04T14:39:21.541Z</time></trkpt><trkpt lat="41.4717232" lon="0.9240965"><ele>468.0</ele><time>2026-05-04T14:39:22.544Z</time></trkpt><trkpt lat="41.4716407" lon="0.924197"><ele>468.0</ele><time>2026-05-04T14:39:23.546Z</time></trkpt><trkpt lat="41.4715524" lon="0.9243069"><ele>468.5</ele><time>2026-05-04T14:39:24.544Z</time></trkpt><trkpt lat="41.4714711" lon="0.9244042"><ele>469.0</ele><time>2026-05-04T14:39:25.551Z</time></trkpt><trkpt lat="41.4713794" lon="0.9245068"><ele>469.5</ele><time>2026-05-04T14:39:26.545Z</time></trkpt><trkpt lat="41.4712807" lon="0.9246033"><ele>470.0</ele><time>2026-05-04T14:39:27.546Z</time></trkpt><trkpt lat="41.4711799" lon="0.9246986"><ele>470.25</ele><time>2026-05-04T14:39:28.546Z</time></trkpt><trkpt lat="41.4710818" lon="0.9247933"><ele>470.5</ele><time>2026-05-04T14:39:29.545Z</time></trkpt><trkpt lat="41.4709832" lon="0.9248878"><ele>470.75</ele><time>2026-05-04T14:39:30.552Z</time></trkpt><trkpt lat="41.4708878" lon="0.9249823"><ele>471.0</ele><time>2026-05-04T14:39:31.554Z</time></trkpt><trkpt lat="41.4708051" lon="0.9250523"><ele>470.75</ele><time>2026-05-04T14:39:32.552Z</time></trkpt><trkpt lat="41.4707436" lon="0.9251434"><ele>470.5</ele><time>2026-05-04T14:39:33.555Z</time></trkpt><trkpt lat="41.4706724" lon="0.9252382"><ele>470.25</ele><time>2026-05-04T14:39:34.538Z</time></trkpt><trkpt lat="41.4705776" lon="0.9253573"><ele>470.0</ele><time>2026-05-04T14:39:35.559Z</time></trkpt><trkpt lat="41.470475" lon="0.9254595"><ele>471.0</ele><time>2026-05-04T14:39:36.535Z</time></trkpt><trkpt lat="41.4703513" lon="0.9255659"><ele>472.0</ele><time>2026-05-04T14:39:37.556Z</time></trkpt><trkpt lat="41.4702329" lon="0.9256601"><ele>473.0</ele><time>2026-05-04T14:39:38.545Z</time></trkpt><trkpt lat="41.4701113" lon="0.9257502"><ele>474.0</ele><time>2026-05-04T14:39:39.553Z</time></trkpt><trkpt lat="41.4699892" lon="0.9258509"><ele>473.66666666666663</ele><time>2026-05-04T14:39:40.549Z</time></trkpt><trkpt lat="41.4697682" lon="0.9261072"><ele>473.3333333333333</ele><time>2026-05-04T14:39:42.542Z</time></trkpt><trkpt lat="41.469659" lon="0.9262311"><ele>473.0</ele><time>2026-05-04T14:39:43.546Z</time></trkpt><trkpt lat="41.469544" lon="0.9263601"><ele>473.75</ele><time>2026-05-04T14:39:44.543Z</time></trkpt><trkpt lat="41.4694245" lon="0.9264866"><ele>474.5</ele><time>2026-05-04T14:39:45.542Z</time></trkpt><trkpt lat="41.4693162" lon="0.9265963"><ele>475.25</ele><time>2026-05-04T14:39:46.544Z</time></trkpt><trkpt lat="41.469199" lon="0.9267257"><ele>476.0</ele><time>2026-05-04T14:39:47.543Z</time></trkpt><trkpt lat="41.4690895" lon="0.9268656"><ele>476.0</ele><time>2026-05-04T14:39:48.549Z</time></trkpt><trkpt lat="41.4689825" lon="0.9270026"><ele>476.0</ele><time>2026-05-04T14:39:49.549Z</time></trkpt><trkpt lat="41.4688772" lon="0.927136"><ele>476.0</ele><time>2026-05-04T14:39:50.546Z</time></trkpt><trkpt lat="41.4687799" lon="0.9272686"><ele>476.0</ele><time>2026-05-04T14:39:51.546Z</time></trkpt><trkpt lat="41.4686786" lon="0.9274051"><ele>477.0</ele><time>2026-05-04T14:39:52.548Z</time></trkpt><trkpt lat="41.4685782" lon="0.9275479"><ele>478.0</ele><time>2026-05-04T14:39:53.549Z</time></trkpt><trkpt lat="41.4684735" lon="0.9276835"><ele>479.0</ele><time>2026-05-04T14:39:54.545Z</time></trkpt><trkpt lat="41.4683806" lon="0.9278222"><ele>480.0</ele><time>2026-05-04T14:39:55.55Z</time></trkpt><trkpt lat="41.4682881" lon="0.9279646"><ele>480.4</ele><time>2026-05-04T14:39:56.551Z</time></trkpt><trkpt lat="41.4681975" lon="0.9281033"><ele>480.8</ele><time>2026-05-04T14:39:57.549Z</time></trkpt><trkpt lat="41.468118" lon="0.9282171"><ele>481.20000000000005</ele><time>2026-05-04T14:39:58.551Z</time></trkpt><trkpt lat="41.4680598" lon="0.9283203"><ele>481.6</ele><time>2026-05-04T14:39:59.549Z</time></trkpt><trkpt lat="41.4680117" lon="0.9284307"><ele>482.0</ele><time>2026-05-04T14:40:00.55Z</time></trkpt><trkpt lat="41.4679138" lon="0.9285944"><ele>483.0</ele><time>2026-05-04T14:40:01.532Z</time></trkpt><trkpt lat="41.4677911" lon="0.9287543"><ele>484.0</ele><time>2026-05-04T14:40:02.547Z</time></trkpt><trkpt lat="41.4676745" lon="0.9289213"><ele>485.0</ele><time>2026-05-04T14:40:03.531Z</time></trkpt><trkpt lat="41.4675669" lon="0.9290684"><ele>485.0</ele><time>2026-05-04T14:40:04.549Z</time></trkpt><trkpt lat="41.4674563" lon="0.9292119"><ele>485.0</ele><time>2026-05-04T14:40:05.552Z</time></trkpt><trkpt lat="41.4673676" lon="0.9293474"><ele>485.0</ele><time>2026-05-04T14:40:06.561Z</time></trkpt><trkpt lat="41.4672681" lon="0.9294849"><ele>485.0</ele><time>2026-05-04T14:40:07.542Z</time></trkpt><trkpt lat="41.4671653" lon="0.9296268"><ele>485.75</ele><time>2026-05-04T14:40:08.545Z</time></trkpt><trkpt lat="41.4670721" lon="0.9297713"><ele>486.5</ele><time>2026-05-04T14:40:09.547Z</time></trkpt><trkpt lat="41.4669653" lon="0.929919"><ele>487.25</ele><time>2026-05-04T14:40:10.547Z</time></trkpt><trkpt lat="41.4668619" lon="0.9300678"><ele>488.0</ele><time>2026-05-04T14:40:11.548Z</time></trkpt><trkpt lat="41.4667643" lon="0.9301994"><ele>488.5</ele><time>2026-05-04T14:40:12.544Z</time></trkpt><trkpt lat="41.4666815" lon="0.9303461"><ele>489.0</ele><time>2026-05-04T14:40:13.548Z</time></trkpt><trkpt lat="41.4665959" lon="0.9304973"><ele>489.5</ele><time>2026-05-04T14:40:14.542Z</time></trkpt><trkpt lat="41.4665164" lon="0.9306407"><ele>490.0</ele><time>2026-05-04T14:40:15.543Z</time></trkpt><trkpt lat="41.4664274" lon="0.9307952"><ele>490.25</ele><time>2026-05-04T14:40:16.544Z</time></trkpt><trkpt lat="41.466339" lon="0.930938"><ele>490.5</ele><time>2026-05-04T14:40:17.545Z</time></trkpt><trkpt lat="41.4662541" lon="0.9310923"><ele>490.75</ele><time>2026-05-04T14:40:18.546Z</time></trkpt><trkpt lat="41.4661608" lon="0.9312418"><ele>491.0</ele><time>2026-05-04T14:40:19.545Z</time></trkpt><trkpt lat="41.466075" lon="0.9313944"><ele>491.0</ele><time>2026-05-04T14:40:20.544Z</time></trkpt><trkpt lat="41.4659971" lon="0.93156"><ele>491.0</ele><time>2026-05-04T14:40:21.544Z</time></trkpt><trkpt lat="41.4659136" lon="0.9317168"><ele>491.0</ele><time>2026-05-04T14:40:22.545Z</time></trkpt><trkpt lat="41.4658317" lon="0.931873"><ele>491.0</ele><time>2026-05-04T14:40:23.547Z</time></trkpt><trkpt lat="41.4657376" lon="0.932023"><ele>491.5</ele><time>2026-05-04T14:40:24.54Z</time></trkpt><trkpt lat="41.4656625" lon="0.9321813"><ele>492.0</ele><time>2026-05-04T14:40:25.542Z</time></trkpt><trkpt lat="41.4655915" lon="0.9323337"><ele>492.5</ele><time>2026-05-04T14:40:26.545Z</time></trkpt><trkpt lat="41.465515" lon="0.9324871"><ele>493.0</ele><time>2026-05-04T14:40:27.546Z</time></trkpt><trkpt lat="41.4654466" lon="0.9326418"><ele>493.75</ele><time>2026-05-04T14:40:28.546Z</time></trkpt><trkpt lat="41.4653683" lon="0.9327996"><ele>494.5</ele><time>2026-05-04T14:40:29.545Z</time></trkpt><trkpt lat="41.4652945" lon="0.9329643"><ele>495.25</ele><time>2026-05-04T14:40:30.551Z</time></trkpt><trkpt lat="41.4652126" lon="0.9331247"><ele>496.0</ele><time>2026-05-04T14:40:31.549Z</time></trkpt><trkpt lat="41.4651284" lon="0.9332941"><ele>497.25</ele><time>2026-05-04T14:40:32.545Z</time></trkpt><trkpt lat="41.4650516" lon="0.93346"><ele>498.5</ele><time>2026-05-04T14:40:33.546Z</time></trkpt><trkpt lat="41.4649743" lon="0.9336158"><ele>499.75</ele><time>2026-05-04T14:40:34.545Z</time></trkpt><trkpt lat="41.4649007" lon="0.9337789"><ele>501.0</ele><time>2026-05-04T14:40:35.54Z</time></trkpt><trkpt lat="41.4648305" lon="0.933929"><ele>501.0</ele><time>2026-05-04T14:40:36.547Z</time></trkpt><trkpt lat="41.4647595" lon="0.9340892"><ele>501.0</ele><time>2026-05-04T14:40:37.563Z</time></trkpt><trkpt lat="41.4646847" lon="0.9342381"><ele>501.0</ele><time>2026-05-04T14:40:38.552Z</time></trkpt><trkpt lat="41.4646093" lon="0.9343901"><ele>501.0</ele><time>2026-05-04T14:40:39.551Z</time></trkpt><trkpt lat="41.4645297" lon="0.9345407"><ele>501.25</ele><time>2026-05-04T14:40:40.545Z</time></trkpt><trkpt lat="41.4644512" lon="0.9346876"><ele>501.5</ele><time>2026-05-04T14:40:41.545Z</time></trkpt><trkpt lat="41.4643641" lon="0.9348377"><ele>501.75</ele><time>2026-05-04T14:40:42.549Z</time></trkpt><trkpt lat="41.4642807" lon="0.9349743"><ele>502.0</ele><time>2026-05-04T14:40:43.55Z</time></trkpt><trkpt lat="41.4641823" lon="0.9351139"><ele>502.5</ele><time>2026-05-04T14:40:44.546Z</time></trkpt><trkpt lat="41.4640766" lon="0.9352529"><ele>503.0</ele><time>2026-05-04T14:40:45.553Z</time></trkpt><trkpt lat="41.4639696" lon="0.9353714"><ele>503.5</ele><time>2026-05-04T14:40:46.545Z</time></trkpt><trkpt lat="41.46386" lon="0.9354957"><ele>504.0</ele><time>2026-05-04T14:40:47.547Z</time></trkpt><trkpt lat="41.4637438" lon="0.9356224"><ele>504.0</ele><time>2026-05-04T14:40:48.547Z</time></trkpt><trkpt lat="41.4636167" lon="0.9357294"><ele>504.0</ele><time>2026-05-04T14:40:49.553Z</time></trkpt><trkpt lat="41.4635046" lon="0.9358379"><ele>504.0</ele><time>2026-05-04T14:40:50.549Z</time></trkpt><trkpt lat="41.4633893" lon="0.9359369"><ele>504.0</ele><time>2026-05-04T14:40:51.555Z</time></trkpt><trkpt lat="41.4632645" lon="0.9360389"><ele>504.0</ele><time>2026-05-04T14:40:52.55Z</time></trkpt><trkpt lat="41.4631453" lon="0.9361356"><ele>504.0</ele><time>2026-05-04T14:40:53.552Z</time></trkpt><trkpt lat="41.4630143" lon="0.9362433"><ele>504.0</ele><time>2026-05-04T14:40:54.552Z</time></trkpt><trkpt lat="41.4628866" lon="0.9363529"><ele>504.0</ele><time>2026-05-04T14:40:55.548Z</time></trkpt><trkpt lat="41.462762" lon="0.9364618"><ele>504.75</ele><time>2026-05-04T14:40:56.546Z</time></trkpt><trkpt lat="41.4626384" lon="0.9365639"><ele>505.5</ele><time>2026-05-04T14:40:57.554Z</time></trkpt><trkpt lat="41.4625228" lon="0.9366712"><ele>506.25</ele><time>2026-05-04T14:40:58.555Z</time></trkpt><trkpt lat="41.4624414" lon="0.936754"><ele>507.0</ele><time>2026-05-04T14:40:59.553Z</time></trkpt><trkpt lat="41.4623627" lon="0.936821"><ele>507.25</ele><time>2026-05-04T14:41:00.547Z</time></trkpt><trkpt lat="41.4623069" lon="0.9368937"><ele>507.5</ele><time>2026-05-04T14:41:01.551Z</time></trkpt><trkpt lat="41.4621979" lon="0.9369814"><ele>507.75</ele><time>2026-05-04T14:41:02.539Z</time></trkpt><trkpt lat="41.4620976" lon="0.9370463"><ele>508.0</ele><time>2026-05-04T14:41:03.545Z</time></trkpt><trkpt lat="41.4619508" lon="0.9371617"><ele>509.0</ele><time>2026-05-04T14:41:04.547Z</time></trkpt><trkpt lat="41.4618353" lon="0.937251"><ele>510.0</ele><time>2026-05-04T14:41:05.546Z</time></trkpt><trkpt lat="41.4617171" lon="0.9373674"><ele>511.0</ele><time>2026-05-04T14:41:06.529Z</time></trkpt><trkpt lat="41.4615887" lon="0.937493"><ele>512.0</ele><time>2026-05-04T14:41:07.546Z</time></trkpt><trkpt lat="41.4614712" lon="0.9376337"><ele>512.0</ele><time>2026-05-04T14:41:08.567Z</time></trkpt><trkpt lat="41.4613074" lon="0.9377899"><ele>512.0</ele><time>2026-05-04T14:41:09.549Z</time></trkpt><trkpt lat="41.4612003" lon="0.9379109"><ele>512.0</ele><time>2026-05-04T14:41:10.556Z</time></trkpt><trkpt lat="41.4610738" lon="0.938003"><ele>513.0</ele><time>2026-05-04T14:41:11.552Z</time></trkpt><trkpt lat="41.4609359" lon="0.9380821"><ele>514.0</ele><time>2026-05-04T14:41:12.551Z</time></trkpt><trkpt lat="41.460816" lon="0.9382249"><ele>515.0</ele><time>2026-05-04T14:41:13.553Z</time></trkpt><trkpt lat="41.4607299" lon="0.9383224"><ele>516.0</ele><time>2026-05-04T14:41:14.55Z</time></trkpt><trkpt lat="41.4606201" lon="0.9384546"><ele>516.0</ele><time>2026-05-04T14:41:15.55Z</time></trkpt><trkpt lat="41.4604918" lon="0.9385965"><ele>516.0</ele><time>2026-05-04T14:41:16.541Z</time></trkpt><trkpt lat="41.4603687" lon="0.9387059"><ele>516.0</ele><time>2026-05-04T14:41:17.533Z</time></trkpt><trkpt lat="41.4602644" lon="0.9388185"><ele>516.0</ele><time>2026-05-04T14:41:18.538Z</time></trkpt><trkpt lat="41.4601489" lon="0.9389521"><ele>516.25</ele><time>2026-05-04T14:41:19.54Z</time></trkpt><trkpt lat="41.4600457" lon="0.9390853"><ele>516.5</ele><time>2026-05-04T14:41:20.538Z</time></trkpt><trkpt lat="41.4599395" lon="0.9392088"><ele>516.75</ele><time>2026-05-04T14:41:21.544Z</time></trkpt><trkpt lat="41.4598227" lon="0.9393489"><ele>517.0</ele><time>2026-05-04T14:41:22.542Z</time></trkpt><trkpt lat="41.4597045" lon="0.9394967"><ele>517.75</ele><time>2026-05-04T14:41:23.544Z</time></trkpt><trkpt lat="41.4595863" lon="0.9396193"><ele>518.5</ele><time>2026-05-04T14:41:24.546Z</time></trkpt><trkpt lat="41.4594719" lon="0.9397303"><ele>519.25</ele><time>2026-05-04T14:41:25.549Z</time></trkpt><trkpt lat="41.459356" lon="0.9398442"><ele>520.0</ele><time>2026-05-04T14:41:26.548Z</time></trkpt><trkpt lat="41.4592373" lon="0.9399682"><ele>520.3333333333334</ele><time>2026-05-04T14:41:27.549Z</time></trkpt><trkpt lat="41.4591091" lon="0.9400991"><ele>520.6666666666666</ele><time>2026-05-04T14:41:28.549Z</time></trkpt><trkpt lat="41.4589924" lon="0.9402274"><ele>521.0</ele><time>2026-05-04T14:41:29.546Z</time></trkpt><trkpt lat="41.4588741" lon="0.9403572"><ele>521.3333333333333</ele><time>2026-05-04T14:41:30.553Z</time></trkpt><trkpt lat="41.4587596" lon="0.9404833"><ele>521.6666666666666</ele><time>2026-05-04T14:41:31.547Z</time></trkpt><trkpt lat="41.4586461" lon="0.9406154"><ele>522.0</ele><time>2026-05-04T14:41:32.549Z</time></trkpt><trkpt lat="41.4585241" lon="0.9407483"><ele>522.6666666666666</ele><time>2026-05-04T14:41:33.551Z</time></trkpt><trkpt lat="41.4584025" lon="0.9408844"><ele>523.3333333333333</ele><time>2026-05-04T14:41:34.549Z</time></trkpt><trkpt lat="41.4582806" lon="0.9410158"><ele>524.0</ele><time>2026-05-04T14:41:35.551Z</time></trkpt><trkpt lat="41.4581637" lon="0.9411386"><ele>524.0</ele><time>2026-05-04T14:41:36.551Z</time></trkpt><trkpt lat="41.4580357" lon="0.9412536"><ele>524.0</ele><time>2026-05-04T14:41:37.553Z</time></trkpt><trkpt lat="41.4579204" lon="0.9413375"><ele>524.0</ele><time>2026-05-04T14:41:38.547Z</time></trkpt><trkpt lat="41.4577916" lon="0.9414381"><ele>524.0</ele><time>2026-05-04T14:41:39.566Z</time></trkpt><trkpt lat="41.4576609" lon="0.9415697"><ele>524.5</ele><time>2026-05-04T14:41:40.53Z</time></trkpt><trkpt lat="41.4575313" lon="0.9416805"><ele>525.0</ele><time>2026-05-04T14:41:41.544Z</time></trkpt><trkpt lat="41.4574107" lon="0.9417793"><ele>525.5</ele><time>2026-05-04T14:41:42.54Z</time></trkpt><trkpt lat="41.4572853" lon="0.9418656"><ele>526.0</ele><time>2026-05-04T14:41:43.548Z</time></trkpt><trkpt lat="41.4571485" lon="0.9419537"><ele>527.0</ele><time>2026-05-04T14:41:44.54Z</time></trkpt><trkpt lat="41.4570098" lon="0.942035"><ele>528.0</ele><time>2026-05-04T14:41:45.544Z</time></trkpt><trkpt lat="41.4568709" lon="0.9421076"><ele>529.0</ele><time>2026-05-04T14:41:46.543Z</time></trkpt><trkpt lat="41.4567248" lon="0.9421706"><ele>529.0</ele><time>2026-05-04T14:41:47.543Z</time></trkpt><trkpt lat="41.4565775" lon="0.9422398"><ele>529.0</ele><time>2026-05-04T14:41:48.548Z</time></trkpt><trkpt lat="41.45643" lon="0.9422952"><ele>529.0</ele><time>2026-05-04T14:41:49.549Z</time></trkpt><trkpt lat="41.4562914" lon="0.9423562"><ele>530.0</ele><time>2026-05-04T14:41:50.545Z</time></trkpt><trkpt lat="41.4561409" lon="0.9424135"><ele>531.0</ele><time>2026-05-04T14:41:51.548Z</time></trkpt><trkpt lat="41.4559972" lon="0.942476"><ele>532.0</ele><time>2026-05-04T14:41:52.544Z</time></trkpt><trkpt lat="41.4558515" lon="0.9425283"><ele>531.3333333333334</ele><time>2026-05-04T14:41:53.547Z</time></trkpt><trkpt lat="41.4557125" lon="0.9425858"><ele>530.6666666666666</ele><time>2026-05-04T14:41:54.549Z</time></trkpt><trkpt lat="41.4555648" lon="0.9426414"><ele>530.0</ele><time>2026-05-04T14:41:55.546Z</time></trkpt><trkpt lat="41.4554113" lon="0.9427022"><ele>531.5</ele><time>2026-05-04T14:41:56.543Z</time></trkpt><trkpt lat="41.4552661" lon="0.942767"><ele>533.0</ele><time>2026-05-04T14:41:57.543Z</time></trkpt><trkpt lat="41.4551402" lon="0.9428197"><ele>534.5</ele><time>2026-05-04T14:41:58.549Z</time></trkpt><trkpt lat="41.4550144" lon="0.9428652"><ele>536.0</ele><time>2026-05-04T14:41:59.545Z</time></trkpt><trkpt lat="41.4548857" lon="0.9429129"><ele>536.0</ele><time>2026-05-04T14:42:00.556Z</time></trkpt><trkpt lat="41.4547626" lon="0.9429553"><ele>536.0</ele><time>2026-05-04T14:42:01.549Z</time></trkpt><trkpt lat="41.4546387" lon="0.9430081"><ele>536.0</ele><time>2026-05-04T14:42:02.54Z</time></trkpt><trkpt lat="41.4545148" lon="0.9430693"><ele>536.0</ele><time>2026-05-04T14:42:03.54Z</time></trkpt><trkpt lat="41.4543889" lon="0.9431181"><ele>535.6666666666666</ele><time>2026-05-04T14:42:04.545Z</time></trkpt><trkpt lat="41.4542492" lon="0.9431702"><ele>535.3333333333334</ele><time>2026-05-04T14:42:05.545Z</time></trkpt><trkpt lat="41.4541004" lon="0.9432276"><ele>535.0</ele><time>2026-05-04T14:42:06.548Z</time></trkpt><trkpt lat="41.453955" lon="0.9432793"><ele>535.0</ele><time>2026-05-04T14:42:07.542Z</time></trkpt><trkpt lat="41.4538098" lon="0.9433383"><ele>535.0</ele><time>2026-05-04T14:42:08.546Z</time></trkpt><trkpt lat="41.453519" lon="0.9434545"><ele>535.6666666666667</ele><time>2026-05-04T14:42:10.554Z</time></trkpt><trkpt lat="41.4533671" lon="0.9435124"><ele>536.3333333333334</ele><time>2026-05-04T14:42:11.537Z</time></trkpt><trkpt lat="41.4532086" lon="0.9435728"><ele>537.0</ele><time>2026-05-04T14:42:12.542Z</time></trkpt><trkpt lat="41.4530505" lon="0.943642"><ele>536.0</ele><time>2026-05-04T14:42:13.544Z</time></trkpt><trkpt lat="41.4528941" lon="0.9437201"><ele>535.0</ele><time>2026-05-04T14:42:14.545Z</time></trkpt><trkpt lat="41.4527296" lon="0.9437937"><ele>534.0</ele><time>2026-05-04T14:42:15.546Z</time></trkpt><trkpt lat="41.4525687" lon="0.9438631"><ele>534.0</ele><time>2026-05-04T14:42:16.548Z</time></trkpt><trkpt lat="41.4523989" lon="0.9439275"><ele>534.0</ele><time>2026-05-04T14:42:17.546Z</time></trkpt><trkpt lat="41.4522324" lon="0.9439938"><ele>534.0</ele><time>2026-05-04T14:42:18.554Z</time></trkpt><trkpt lat="41.4520669" lon="0.9440694"><ele>534.3333333333334</ele><time>2026-05-04T14:42:19.557Z</time></trkpt><trkpt lat="41.451897" lon="0.944145"><ele>534.6666666666667</ele><time>2026-05-04T14:42:20.542Z</time></trkpt><trkpt lat="41.4517247" lon="0.9442144"><ele>535.0</ele><time>2026-05-04T14:42:21.545Z</time></trkpt><trkpt lat="41.4515542" lon="0.9442744"><ele>535.0</ele><time>2026-05-04T14:42:22.546Z</time></trkpt><trkpt lat="41.4513783" lon="0.9443411"><ele>535.0</ele><time>2026-05-04T14:42:23.546Z</time></trkpt><trkpt lat="41.451194" lon="0.9444009"><ele>535.0</ele><time>2026-05-04T14:42:24.542Z</time></trkpt><trkpt lat="41.4510151" lon="0.944468"><ele>537.6666666666667</ele><time>2026-05-04T14:42:25.549Z</time></trkpt><trkpt lat="41.4508289" lon="0.9445412"><ele>540.3333333333334</ele><time>2026-05-04T14:42:26.541Z</time></trkpt><trkpt lat="41.4506405" lon="0.9446127"><ele>543.0</ele><time>2026-05-04T14:42:27.543Z</time></trkpt><trkpt lat="41.4504498" lon="0.9446927"><ele>543.0</ele><time>2026-05-04T14:42:28.542Z</time></trkpt><trkpt lat="41.450272" lon="0.9447641"><ele>543.0</ele><time>2026-05-04T14:42:29.542Z</time></trkpt><trkpt lat="41.4500907" lon="0.9448413"><ele>543.0</ele><time>2026-05-04T14:42:30.551Z</time></trkpt><trkpt lat="41.4499098" lon="0.9449205"><ele>543.0</ele><time>2026-05-04T14:42:31.547Z</time></trkpt><trkpt lat="41.4497312" lon="0.9449992"><ele>543.0</ele><time>2026-05-04T14:42:32.548Z</time></trkpt><trkpt lat="41.4495696" lon="0.9450879"><ele>543.0</ele><time>2026-05-04T14:42:33.546Z</time></trkpt><trkpt lat="41.4493987" lon="0.945183"><ele>544.0</ele><time>2026-05-04T14:42:34.547Z</time></trkpt><trkpt lat="41.4492449" lon="0.9453022"><ele>545.0</ele><time>2026-05-04T14:42:35.549Z</time></trkpt><trkpt lat="41.4490854" lon="0.9454383"><ele>546.0</ele><time>2026-05-04T14:42:36.549Z</time></trkpt><trkpt lat="41.4489374" lon="0.9455836"><ele>546.0</ele><time>2026-05-04T14:42:37.546Z</time></trkpt><trkpt lat="41.4487931" lon="0.9457405"><ele>546.0</ele><time>2026-05-04T14:42:38.544Z</time></trkpt><trkpt lat="41.4486407" lon="0.9458963"><ele>546.0</ele><time>2026-05-04T14:42:39.547Z</time></trkpt><trkpt lat="41.4485044" lon="0.9460611"><ele>547.3333333333334</ele><time>2026-05-04T14:42:40.548Z</time></trkpt><trkpt lat="41.4483661" lon="0.9462381"><ele>548.6666666666667</ele><time>2026-05-04T14:42:41.561Z</time></trkpt><trkpt lat="41.4482336" lon="0.9464085"><ele>550.0</ele><time>2026-05-04T14:42:42.543Z</time></trkpt><trkpt lat="41.4481112" lon="0.9465842"><ele>550.3333333333334</ele><time>2026-05-04T14:42:43.544Z</time></trkpt><trkpt lat="41.4479835" lon="0.9467612"><ele>550.6666666666666</ele><time>2026-05-04T14:42:44.541Z</time></trkpt><trkpt lat="41.4478589" lon="0.9469274"><ele>551.0</ele><time>2026-05-04T14:42:45.544Z</time></trkpt><trkpt lat="41.4477354" lon="0.9470964"><ele>553.0</ele><time>2026-05-04T14:42:46.544Z</time></trkpt><trkpt lat="41.4476443" lon="0.9472362"><ele>555.0</ele><time>2026-05-04T14:42:47.542Z</time></trkpt><trkpt lat="41.4475522" lon="0.9474023"><ele>557.0</ele><time>2026-05-04T14:42:48.549Z</time></trkpt><trkpt lat="41.4474689" lon="0.947583"><ele>557.3333333333333</ele><time>2026-05-04T14:42:49.54Z</time></trkpt><trkpt lat="41.4473366" lon="0.9477508"><ele>557.6666666666666</ele><time>2026-05-04T14:42:50.528Z</time></trkpt><trkpt lat="41.4471756" lon="0.947932"><ele>558.0</ele><time>2026-05-04T14:42:51.536Z</time></trkpt><trkpt lat="41.4470259" lon="0.9481165"><ele>558.0</ele><time>2026-05-04T14:42:52.533Z</time></trkpt><trkpt lat="41.4468819" lon="0.9483089"><ele>558.0</ele><time>2026-05-04T14:42:53.535Z</time></trkpt><trkpt lat="41.4467405" lon="0.9484819"><ele>558.0</ele><time>2026-05-04T14:42:54.532Z</time></trkpt><trkpt lat="41.4465992" lon="0.9486553"><ele>558.0</ele><time>2026-05-04T14:42:55.537Z</time></trkpt><trkpt lat="41.4464546" lon="0.9488317"><ele>558.0</ele><time>2026-05-04T14:42:56.542Z</time></trkpt><trkpt lat="41.4463131" lon="0.9490123"><ele>558.0</ele><time>2026-05-04T14:42:57.547Z</time></trkpt><trkpt lat="41.446175" lon="0.949192"><ele>559.0</ele><time>2026-05-04T14:42:58.549Z</time></trkpt><trkpt lat="41.4460301" lon="0.9493679"><ele>560.0</ele><time>2026-05-04T14:42:59.544Z</time></trkpt><trkpt lat="41.4458976" lon="0.949547"><ele>561.0</ele><time>2026-05-04T14:43:00.553Z</time></trkpt><trkpt lat="41.4457702" lon="0.9497164"><ele>561.0</ele><time>2026-05-04T14:43:01.549Z</time></trkpt><trkpt lat="41.4456466" lon="0.9498801"><ele>561.0</ele><time>2026-05-04T14:43:02.553Z</time></trkpt><trkpt lat="41.4455413" lon="0.9500562"><ele>561.0</ele><time>2026-05-04T14:43:03.552Z</time></trkpt><trkpt lat="41.4454532" lon="0.9502197"><ele>562.0</ele><time>2026-05-04T14:43:04.542Z</time></trkpt><trkpt lat="41.4453572" lon="0.9503615"><ele>563.0</ele><time>2026-05-04T14:43:05.524Z</time></trkpt><trkpt lat="41.4452649" lon="0.9505538"><ele>564.0</ele><time>2026-05-04T14:43:06.531Z</time></trkpt><trkpt lat="41.4451267" lon="0.950723"><ele>564.0</ele><time>2026-05-04T14:43:07.534Z</time></trkpt><trkpt lat="41.4449862" lon="0.9508412"><ele>564.0</ele><time>2026-05-04T14:43:08.524Z</time></trkpt><trkpt lat="41.4448225" lon="0.9510155"><ele>564.0</ele><time>2026-05-04T14:43:09.537Z</time></trkpt><trkpt lat="41.4446313" lon="0.9511846"><ele>564.3333333333334</ele><time>2026-05-04T14:43:10.546Z</time></trkpt><trkpt lat="41.444477" lon="0.9513994"><ele>564.6666666666667</ele><time>2026-05-04T14:43:11.529Z</time></trkpt><trkpt lat="41.4443409" lon="0.9515864"><ele>565.0</ele><time>2026-05-04T14:43:12.554Z</time></trkpt><trkpt lat="41.4442372" lon="0.9517435"><ele>566.6666666666667</ele><time>2026-05-04T14:43:13.528Z</time></trkpt><trkpt lat="41.4440897" lon="0.9519203"><ele>568.3333333333334</ele><time>2026-05-04T14:43:14.527Z</time></trkpt><trkpt lat="41.4439647" lon="0.9521023"><ele>570.0</ele><time>2026-05-04T14:43:15.539Z</time></trkpt><trkpt lat="41.4438343" lon="0.9522539"><ele>569.3333333333334</ele><time>2026-05-04T14:43:16.545Z</time></trkpt><trkpt lat="41.4436926" lon="0.9524074"><ele>568.6666666666667</ele><time>2026-05-04T14:43:17.547Z</time></trkpt><trkpt lat="41.4435296" lon="0.9525775"><ele>568.0</ele><time>2026-05-04T14:43:18.551Z</time></trkpt><trkpt lat="41.4433859" lon="0.9527462"><ele>569.3333333333334</ele><time>2026-05-04T14:43:19.538Z</time></trkpt><trkpt lat="41.4432649" lon="0.9529127"><ele>570.6666666666666</ele><time>2026-05-04T14:43:20.539Z</time></trkpt><trkpt lat="41.443112" lon="0.9530634"><ele>572.0</ele><time>2026-05-04T14:43:21.544Z</time></trkpt><trkpt lat="41.4429744" lon="0.9532088"><ele>573.0</ele><time>2026-05-04T14:43:22.54Z</time></trkpt><trkpt lat="41.442833" lon="0.9533433"><ele>574.0</ele><time>2026-05-04T14:43:23.529Z</time></trkpt><trkpt lat="41.4427006" lon="0.9535019"><ele>575.0</ele><time>2026-05-04T14:43:24.529Z</time></trkpt><trkpt lat="41.4425608" lon="0.9536505"><ele>576.0</ele><time>2026-05-04T14:43:25.527Z</time></trkpt><trkpt lat="41.4424244" lon="0.9538007"><ele>577.0</ele><time>2026-05-04T14:43:26.533Z</time></trkpt><trkpt lat="41.442292" lon="0.9539502"><ele>578.0</ele><time>2026-05-04T14:43:27.536Z</time></trkpt><trkpt lat="41.4421627" lon="0.9541049"><ele>578.3333333333333</ele><time>2026-05-04T14:43:28.532Z</time></trkpt><trkpt lat="41.4420399" lon="0.9542527"><ele>578.6666666666666</ele><time>2026-05-04T14:43:29.536Z</time></trkpt><trkpt lat="41.4419242" lon="0.9543913"><ele>579.0</ele><time>2026-05-04T14:43:30.539Z</time></trkpt><trkpt lat="41.4418018" lon="0.9545265"><ele>579.0</ele><time>2026-05-04T14:43:31.536Z</time></trkpt><trkpt lat="41.4416724" lon="0.9546639"><ele>579.0</ele><time>2026-05-04T14:43:32.537Z</time></trkpt><trkpt lat="41.441564" lon="0.9547927"><ele>579.0</ele><time>2026-05-04T14:43:33.532Z</time></trkpt><trkpt lat="41.4414568" lon="0.9549181"><ele>579.0</ele><time>2026-05-04T14:43:34.536Z</time></trkpt><trkpt lat="41.4413656" lon="0.9550366"><ele>579.0</ele><time>2026-05-04T14:43:35.535Z</time></trkpt><trkpt lat="41.4412861" lon="0.9551128"><ele>579.0</ele><time>2026-05-04T14:43:36.531Z</time></trkpt><trkpt lat="41.4412329" lon="0.9551688"><ele>579.0</ele><time>2026-05-04T14:43:37.531Z</time></trkpt><trkpt lat="41.4411682" lon="0.9552176"><ele>579.0</ele><time>2026-05-04T14:43:39.531Z</time></trkpt><trkpt lat="41.4412336" lon="0.9551288"><ele>579.3333333333334</ele><time>2026-05-04T14:43:52.536Z</time></trkpt><trkpt lat="41.4411688" lon="0.9551578"><ele>579.6666666666666</ele><time>2026-05-04T14:44:10.536Z</time></trkpt><trkpt lat="41.4411007" lon="0.9552236"><ele>580.0</ele><time>2026-05-04T14:44:12.54Z</time></trkpt><trkpt lat="41.4410536" lon="0.9552842"><ele>580.3333333333333</ele><time>2026-05-04T14:44:13.532Z</time></trkpt><trkpt lat="41.4410409" lon="0.9554122"><ele>580.6666666666666</ele><time>2026-05-04T14:44:15.541Z</time></trkpt><trkpt lat="41.4410988" lon="0.9553035"><ele>581.0</ele><time>2026-05-04T14:45:08.544Z</time></trkpt><trkpt lat="41.4411263" lon="0.9552201"><ele>581.0</ele><time>2026-05-04T14:45:10.55Z</time></trkpt><trkpt lat="41.441169" lon="0.955138"><ele>581.0</ele><time>2026-05-04T14:45:12.531Z</time></trkpt><trkpt lat="41.4412018" lon="0.9550564"><ele>581.0</ele><time>2026-05-04T14:45:13.525Z</time></trkpt><trkpt lat="41.4412396" lon="0.9549647"><ele>581.0</ele><time>2026-05-04T14:45:14.525Z</time></trkpt><trkpt lat="41.4411741" lon="0.9550526"><ele>581.0</ele><time>2026-05-04T14:45:16.539Z</time></trkpt><trkpt lat="41.4411098" lon="0.9551802"><ele>581.0</ele><time>2026-05-04T14:45:17.523Z</time></trkpt><trkpt lat="41.4410349" lon="0.9552454"><ele>581.0</ele><time>2026-05-04T14:45:19.538Z</time></trkpt><trkpt lat="41.4409414" lon="0.9553875"><ele>581.0</ele><time>2026-05-04T14:45:21.529Z</time></trkpt><trkpt lat="41.4408545" lon="0.9554919"><ele>581.0</ele><time>2026-05-04T14:45:22.551Z</time></trkpt><trkpt lat="41.4407699" lon="0.9556177"><ele>581.0</ele><time>2026-05-04T14:45:23.548Z</time></trkpt><trkpt lat="41.4406929" lon="0.9557298"><ele>581.0</ele><time>2026-05-04T14:45:24.529Z</time></trkpt><trkpt lat="41.4406148" lon="0.9558418"><ele>581.0</ele><time>2026-05-04T14:45:25.535Z</time></trkpt><trkpt lat="41.4405333" lon="0.9559526"><ele>581.0</ele><time>2026-05-04T14:45:26.534Z</time></trkpt><trkpt lat="41.4404491" lon="0.9560543"><ele>581.0</ele><time>2026-05-04T14:45:27.532Z</time></trkpt><trkpt lat="41.4403585" lon="0.9561545"><ele>581.5</ele><time>2026-05-04T14:45:28.538Z</time></trkpt><trkpt lat="41.4402662" lon="0.9562534"><ele>582.0</ele><time>2026-05-04T14:45:29.526Z</time></trkpt><trkpt lat="41.4401662" lon="0.9563512"><ele>582.5</ele><time>2026-05-04T14:45:30.529Z</time></trkpt><trkpt lat="41.44006" lon="0.9564429"><ele>583.0</ele><time>2026-05-04T14:45:31.521Z</time></trkpt><trkpt lat="41.4399492" lon="0.9565243"><ele>583.0</ele><time>2026-05-04T14:45:32.535Z</time></trkpt><trkpt lat="41.4398252" lon="0.9566023"><ele>583.0</ele><time>2026-05-04T14:45:33.529Z</time></trkpt><trkpt lat="41.439698" lon="0.9566709"><ele>583.0</ele><time>2026-05-04T14:45:34.541Z</time></trkpt><trkpt lat="41.439563" lon="0.9567306"><ele>583.0</ele><time>2026-05-04T14:45:35.532Z</time></trkpt><trkpt lat="41.4394253" lon="0.9567946"><ele>577.6666666666667</ele><time>2026-05-04T14:45:36.536Z</time></trkpt><trkpt lat="41.4392818" lon="0.9568562"><ele>572.3333333333334</ele><time>2026-05-04T14:45:37.532Z</time></trkpt><trkpt lat="41.43913" lon="0.9569155"><ele>567.0</ele><time>2026-05-04T14:45:38.533Z</time></trkpt><trkpt lat="41.4389812" lon="0.9569843"><ele>567.0</ele><time>2026-05-04T14:45:39.534Z</time></trkpt><trkpt lat="41.4388429" lon="0.9570538"><ele>567.0</ele><time>2026-05-04T14:45:40.53Z</time></trkpt><trkpt lat="41.4387091" lon="0.9571408"><ele>567.0</ele><time>2026-05-04T14:45:41.522Z</time></trkpt><trkpt lat="41.4385735" lon="0.9572421"><ele>569.6666666666666</ele><time>2026-05-04T14:45:42.524Z</time></trkpt><trkpt lat="41.4384486" lon="0.9573591"><ele>572.3333333333333</ele><time>2026-05-04T14:45:43.527Z</time></trkpt><trkpt lat="41.4383301" lon="0.9575024"><ele>575.0</ele><time>2026-05-04T14:45:44.522Z</time></trkpt><trkpt lat="41.4382177" lon="0.9576549"><ele>576.3333333333333</ele><time>2026-05-04T14:45:45.526Z</time></trkpt><trkpt lat="41.4381056" lon="0.9578144"><ele>577.6666666666666</ele><time>2026-05-04T14:45:46.527Z</time></trkpt><trkpt lat="41.4379969" lon="0.9579737"><ele>579.0</ele><time>2026-05-04T14:45:47.555Z</time></trkpt><trkpt lat="41.4378969" lon="0.9581398"><ele>579.0</ele><time>2026-05-04T14:45:48.534Z</time></trkpt><trkpt lat="41.4378158" lon="0.9583097"><ele>579.0</ele><time>2026-05-04T14:45:49.53Z</time></trkpt><trkpt lat="41.4377265" lon="0.9584932"><ele>579.0</ele><time>2026-05-04T14:45:50.53Z</time></trkpt><trkpt lat="41.4376612" lon="0.9586409"><ele>579.0</ele><time>2026-05-04T14:45:51.525Z</time></trkpt><trkpt lat="41.4375848" lon="0.9587458"><ele>572.0</ele><time>2026-05-04T14:45:52.517Z</time></trkpt><trkpt lat="41.4374782" lon="0.958886"><ele>565.0</ele><time>2026-05-04T14:45:53.522Z</time></trkpt><trkpt lat="41.4373831" lon="0.9590593"><ele>558.0</ele><time>2026-05-04T14:45:54.514Z</time></trkpt><trkpt lat="41.4372801" lon="0.9592915"><ele>553.0</ele><time>2026-05-04T14:45:55.531Z</time></trkpt><trkpt lat="41.4371685" lon="0.9595409"><ele>548.0</ele><time>2026-05-04T14:45:56.521Z</time></trkpt><trkpt lat="41.4370727" lon="0.9597708"><ele>543.0</ele><time>2026-05-04T14:45:57.535Z</time></trkpt><trkpt lat="41.4369707" lon="0.9599769"><ele>544.0</ele><time>2026-05-04T14:45:58.533Z</time></trkpt><trkpt lat="41.4368685" lon="0.9601817"><ele>545.0</ele><time>2026-05-04T14:45:59.537Z</time></trkpt><trkpt lat="41.4367657" lon="0.9603791"><ele>546.0</ele><time>2026-05-04T14:46:00.539Z</time></trkpt><trkpt lat="41.4366631" lon="0.9605834"><ele>546.0</ele><time>2026-05-04T14:46:01.539Z</time></trkpt><trkpt lat="41.4365563" lon="0.9608048"><ele>546.0</ele><time>2026-05-04T14:46:02.539Z</time></trkpt><trkpt lat="41.4364576" lon="0.9610143"><ele>546.0</ele><time>2026-05-04T14:46:03.533Z</time></trkpt><trkpt lat="41.4363654" lon="0.9612408"><ele>541.0</ele><time>2026-05-04T14:46:04.536Z</time></trkpt><trkpt lat="41.4362779" lon="0.9614788"><ele>536.0</ele><time>2026-05-04T14:46:05.541Z</time></trkpt><trkpt lat="41.4361955" lon="0.9617233"><ele>531.0</ele><time>2026-05-04T14:46:06.535Z</time></trkpt><trkpt lat="41.436123" lon="0.9619727"><ele>530.0</ele><time>2026-05-04T14:46:07.541Z</time></trkpt><trkpt lat="41.4360528" lon="0.9622229"><ele>529.0</ele><time>2026-05-04T14:46:08.542Z</time></trkpt><trkpt lat="41.4359823" lon="0.962463"><ele>528.0</ele><time>2026-05-04T14:46:09.537Z</time></trkpt><trkpt lat="41.4359008" lon="0.962709"><ele>526.0</ele><time>2026-05-04T14:46:10.548Z</time></trkpt><trkpt lat="41.4358287" lon="0.9629372"><ele>524.0</ele><time>2026-05-04T14:46:11.553Z</time></trkpt><trkpt lat="41.4357453" lon="0.9631758"><ele>522.0</ele><time>2026-05-04T14:46:12.547Z</time></trkpt><trkpt lat="41.4356252" lon="0.9633611"><ele>519.5</ele><time>2026-05-04T14:46:13.541Z</time></trkpt><trkpt lat="41.4355385" lon="0.9636345"><ele>517.0</ele><time>2026-05-04T14:46:14.546Z</time></trkpt><trkpt lat="41.4354785" lon="0.9639567"><ele>517.3333333333334</ele><time>2026-05-04T14:46:15.538Z</time></trkpt><trkpt lat="41.4354099" lon="0.9642601"><ele>517.6666666666666</ele><time>2026-05-04T14:46:16.546Z</time></trkpt><trkpt lat="41.4353496" lon="0.9645286"><ele>518.0</ele><time>2026-05-04T14:46:17.545Z</time></trkpt><trkpt lat="41.4352865" lon="0.9647718"><ele>517.0</ele><time>2026-05-04T14:46:18.548Z</time></trkpt><trkpt lat="41.4351847" lon="0.9650414"><ele>516.0</ele><time>2026-05-04T14:46:19.551Z</time></trkpt><trkpt lat="41.4350981" lon="0.9652396"><ele>515.0</ele><time>2026-05-04T14:46:20.542Z</time></trkpt><trkpt lat="41.4349692" lon="0.9654251"><ele>515.0</ele><time>2026-05-04T14:46:21.542Z</time></trkpt><trkpt lat="41.4348211" lon="0.9656028"><ele>515.0</ele><time>2026-05-04T14:46:22.541Z</time></trkpt><trkpt lat="41.4346734" lon="0.9657574"><ele>515.0</ele><time>2026-05-04T14:46:23.548Z</time></trkpt><trkpt lat="41.4345265" lon="0.9659014"><ele>517.3333333333333</ele><time>2026-05-04T14:46:24.544Z</time></trkpt><trkpt lat="41.4343721" lon="0.966034"><ele>519.6666666666666</ele><time>2026-05-04T14:46:25.543Z</time></trkpt><trkpt lat="41.4342214" lon="0.9661567"><ele>522.0</ele><time>2026-05-04T14:46:26.538Z</time></trkpt><trkpt lat="41.4340667" lon="0.9662862"><ele>522.0</ele><time>2026-05-04T14:46:27.546Z</time></trkpt><trkpt lat="41.4339184" lon="0.9664069"><ele>522.0</ele><time>2026-05-04T14:46:28.542Z</time></trkpt><trkpt lat="41.4337695" lon="0.9665417"><ele>522.0</ele><time>2026-05-04T14:46:29.538Z</time></trkpt><trkpt lat="41.433629" lon="0.966688"><ele>521.3333333333334</ele><time>2026-05-04T14:46:30.543Z</time></trkpt><trkpt lat="41.4334882" lon="0.9668342"><ele>520.6666666666667</ele><time>2026-05-04T14:46:31.54Z</time></trkpt><trkpt lat="41.433357" lon="0.9669898"><ele>520.0</ele><time>2026-05-04T14:46:32.54Z</time></trkpt><trkpt lat="41.4332314" lon="0.9671642"><ele>520.0</ele><time>2026-05-04T14:46:33.539Z</time></trkpt><trkpt lat="41.4331104" lon="0.9673533"><ele>520.0</ele><time>2026-05-04T14:46:34.538Z</time></trkpt><trkpt lat="41.4329975" lon="0.9675402"><ele>520.0</ele><time>2026-05-04T14:46:35.534Z</time></trkpt><trkpt lat="41.4329083" lon="0.9677299"><ele>518.6666666666667</ele><time>2026-05-04T14:46:36.542Z</time></trkpt><trkpt lat="41.4328346" lon="0.9679246"><ele>517.3333333333334</ele><time>2026-05-04T14:46:37.543Z</time></trkpt><trkpt lat="41.4327728" lon="0.968129"><ele>516.0</ele><time>2026-05-04T14:46:38.538Z</time></trkpt><trkpt lat="41.4327115" lon="0.9683343"><ele>516.3333333333334</ele><time>2026-05-04T14:46:39.543Z</time></trkpt><trkpt lat="41.4326511" lon="0.9685509"><ele>516.6666666666667</ele><time>2026-05-04T14:46:40.543Z</time></trkpt><trkpt lat="41.4326033" lon="0.9687676"><ele>517.0</ele><time>2026-05-04T14:46:41.542Z</time></trkpt><trkpt lat="41.432556" lon="0.9689826"><ele>517.0</ele><time>2026-05-04T14:46:42.544Z</time></trkpt><trkpt lat="41.4325141" lon="0.9691849"><ele>517.0</ele><time>2026-05-04T14:46:43.548Z</time></trkpt><trkpt lat="41.4324689" lon="0.9693877"><ele>517.0</ele><time>2026-05-04T14:46:44.542Z</time></trkpt><trkpt lat="41.4324293" lon="0.9695758"><ele>517.0</ele><time>2026-05-04T14:46:45.543Z</time></trkpt><trkpt lat="41.432383" lon="0.9697697"><ele>517.0</ele><time>2026-05-04T14:46:46.546Z</time></trkpt><trkpt lat="41.4323407" lon="0.9699604"><ele>517.0</ele><time>2026-05-04T14:46:47.546Z</time></trkpt><trkpt lat="41.4323023" lon="0.9701697"><ele>516.75</ele><time>2026-05-04T14:46:48.561Z</time></trkpt><trkpt lat="41.432263" lon="0.9703686"><ele>516.5</ele><time>2026-05-04T14:46:49.551Z</time></trkpt><trkpt lat="41.4322247" lon="0.9705604"><ele>516.25</ele><time>2026-05-04T14:46:50.547Z</time></trkpt><trkpt lat="41.4321984" lon="0.9707495"><ele>516.0</ele><time>2026-05-04T14:46:51.548Z</time></trkpt><trkpt lat="41.4321611" lon="0.9709441"><ele>512.0</ele><time>2026-05-04T14:46:52.543Z</time></trkpt><trkpt lat="41.4321236" lon="0.9711446"><ele>508.0</ele><time>2026-05-04T14:46:53.549Z</time></trkpt><trkpt lat="41.4320923" lon="0.9713361"><ele>504.0</ele><time>2026-05-04T14:46:54.529Z</time></trkpt><trkpt lat="41.4320741" lon="0.9715324"><ele>503.66666666666663</ele><time>2026-05-04T14:46:55.544Z</time></trkpt><trkpt lat="41.4320268" lon="0.9717347"><ele>503.3333333333333</ele><time>2026-05-04T14:46:56.533Z</time></trkpt><trkpt lat="41.4320015" lon="0.9719183"><ele>503.0</ele><time>2026-05-04T14:46:57.536Z</time></trkpt><trkpt lat="41.4319632" lon="0.9721175"><ele>503.0</ele><time>2026-05-04T14:46:58.538Z</time></trkpt><trkpt lat="41.4319264" lon="0.9723124"><ele>503.0</ele><time>2026-05-04T14:46:59.543Z</time></trkpt><trkpt lat="41.4318834" lon="0.9725057"><ele>503.0</ele><time>2026-05-04T14:47:00.537Z</time></trkpt><trkpt lat="41.4318458" lon="0.9726882"><ele>503.0</ele><time>2026-05-04T14:47:01.536Z</time></trkpt><trkpt lat="41.4318096" lon="0.9728734"><ele>502.25</ele><time>2026-05-04T14:47:02.535Z</time></trkpt><trkpt lat="41.4317755" lon="0.9730634"><ele>501.5</ele><time>2026-05-04T14:47:03.529Z</time></trkpt><trkpt lat="41.4317432" lon="0.9732561"><ele>500.75</ele><time>2026-05-04T14:47:04.534Z</time></trkpt><trkpt lat="41.4317137" lon="0.9734494"><ele>500.0</ele><time>2026-05-04T14:47:05.538Z</time></trkpt><trkpt lat="41.4316801" lon="0.9736433"><ele>497.3333333333333</ele><time>2026-05-04T14:47:06.539Z</time></trkpt><trkpt lat="41.4316434" lon="0.9738391"><ele>494.66666666666663</ele><time>2026-05-04T14:47:07.539Z</time></trkpt><trkpt lat="41.4316088" lon="0.9740458"><ele>492.0</ele><time>2026-05-04T14:47:08.54Z</time></trkpt><trkpt lat="41.4315702" lon="0.97424"><ele>489.66666666666663</ele><time>2026-05-04T14:47:09.536Z</time></trkpt><trkpt lat="41.4315322" lon="0.9744335"><ele>487.3333333333333</ele><time>2026-05-04T14:47:10.539Z</time></trkpt><trkpt lat="41.4314992" lon="0.974632"><ele>485.0</ele><time>2026-05-04T14:47:11.536Z</time></trkpt><trkpt lat="41.431461" lon="0.9748282"><ele>485.0</ele><time>2026-05-04T14:47:12.544Z</time></trkpt><trkpt lat="41.4314138" lon="0.9750208"><ele>485.0</ele><time>2026-05-04T14:47:13.543Z</time></trkpt><trkpt lat="41.4313743" lon="0.9752182"><ele>485.0</ele><time>2026-05-04T14:47:14.543Z</time></trkpt><trkpt lat="41.4313329" lon="0.9754161"><ele>484.25</ele><time>2026-05-04T14:47:15.541Z</time></trkpt><trkpt lat="41.4313003" lon="0.9756103"><ele>483.5</ele><time>2026-05-04T14:47:16.542Z</time></trkpt><trkpt lat="41.4312631" lon="0.9757999"><ele>482.75</ele><time>2026-05-04T14:47:17.542Z</time></trkpt><trkpt lat="41.4312275" lon="0.9759948"><ele>482.0</ele><time>2026-05-04T14:47:18.551Z</time></trkpt><trkpt lat="41.4311819" lon="0.9761808"><ele>482.0</ele><time>2026-05-04T14:47:19.565Z</time></trkpt><trkpt lat="41.4311406" lon="0.9763645"><ele>482.0</ele><time>2026-05-04T14:47:20.545Z</time></trkpt><trkpt lat="41.4310962" lon="0.9765483"><ele>482.0</ele><time>2026-05-04T14:47:21.552Z</time></trkpt><trkpt lat="41.4310439" lon="0.9767309"><ele>482.0</ele><time>2026-05-04T14:47:22.546Z</time></trkpt><trkpt lat="41.4309912" lon="0.976912"><ele>480.5</ele><time>2026-05-04T14:47:23.555Z</time></trkpt><trkpt lat="41.4309271" lon="0.9770855"><ele>479.0</ele><time>2026-05-04T14:47:24.548Z</time></trkpt><trkpt lat="41.4308568" lon="0.9772524"><ele>477.5</ele><time>2026-05-04T14:47:25.554Z</time></trkpt><trkpt lat="41.4307801" lon="0.9774194"><ele>476.0</ele><time>2026-05-04T14:47:26.558Z</time></trkpt><trkpt lat="41.4306985" lon="0.9775715"><ele>475.0</ele><time>2026-05-04T14:47:27.548Z</time></trkpt><trkpt lat="41.4306181" lon="0.9777239"><ele>474.0</ele><time>2026-05-04T14:47:28.551Z</time></trkpt><trkpt lat="41.4305311" lon="0.9778809"><ele>473.0</ele><time>2026-05-04T14:47:29.538Z</time></trkpt><trkpt lat="41.4304367" lon="0.9780366"><ele>472.0</ele><time>2026-05-04T14:47:30.543Z</time></trkpt><trkpt lat="41.4303347" lon="0.9781836"><ele>472.0</ele><time>2026-05-04T14:47:31.546Z</time></trkpt><trkpt lat="41.4302349" lon="0.9783223"><ele>472.0</ele><time>2026-05-04T14:47:32.541Z</time></trkpt><trkpt lat="41.4301226" lon="0.978448"><ele>472.0</ele><time>2026-05-04T14:47:33.539Z</time></trkpt><trkpt lat="41.4300086" lon="0.9785727"><ele>472.0</ele><time>2026-05-04T14:47:34.545Z</time></trkpt><trkpt lat="41.4298963" lon="0.9786906"><ele>472.5</ele><time>2026-05-04T14:47:35.544Z</time></trkpt><trkpt lat="41.4297833" lon="0.9788051"><ele>473.0</ele><time>2026-05-04T14:47:36.544Z</time></trkpt><trkpt lat="41.4296689" lon="0.9789263"><ele>473.5</ele><time>2026-05-04T14:47:37.542Z</time></trkpt><trkpt lat="41.4295616" lon="0.9790475"><ele>474.0</ele><time>2026-05-04T14:47:38.54Z</time></trkpt><trkpt lat="41.4294525" lon="0.9791558"><ele>475.25</ele><time>2026-05-04T14:47:39.535Z</time></trkpt><trkpt lat="41.4293445" lon="0.9792603"><ele>476.5</ele><time>2026-05-04T14:47:40.536Z</time></trkpt><trkpt lat="41.4292327" lon="0.9793714"><ele>477.75</ele><time>2026-05-04T14:47:41.534Z</time></trkpt><trkpt lat="41.4291347" lon="0.9794828"><ele>479.0</ele><time>2026-05-04T14:47:42.539Z</time></trkpt><trkpt lat="41.4290354" lon="0.9795916"><ele>479.0</ele><time>2026-05-04T14:47:43.541Z</time></trkpt><trkpt lat="41.4289426" lon="0.9797002"><ele>479.0</ele><time>2026-05-04T14:47:44.544Z</time></trkpt><trkpt lat="41.4288223" lon="0.9798003"><ele>479.0</ele><time>2026-05-04T14:47:45.545Z</time></trkpt><trkpt lat="41.4287159" lon="0.9799085"><ele>479.0</ele><time>2026-05-04T14:47:46.542Z</time></trkpt><trkpt lat="41.4286192" lon="0.9800164"><ele>478.75</ele><time>2026-05-04T14:47:47.54Z</time></trkpt><trkpt lat="41.4285236" lon="0.9801192"><ele>478.5</ele><time>2026-05-04T14:47:48.539Z</time></trkpt><trkpt lat="41.4284268" lon="0.9802222"><ele>478.25</ele><time>2026-05-04T14:47:49.54Z</time></trkpt><trkpt lat="41.4283328" lon="0.9803311"><ele>478.0</ele><time>2026-05-04T14:47:50.552Z</time></trkpt><trkpt lat="41.4282377" lon="0.980445"><ele>478.0</ele><time>2026-05-04T14:47:51.552Z</time></trkpt><trkpt lat="41.4281451" lon="0.9805606"><ele>478.0</ele><time>2026-05-04T14:47:52.539Z</time></trkpt><trkpt lat="41.4280562" lon="0.9806735"><ele>478.0</ele><time>2026-05-04T14:47:53.548Z</time></trkpt><trkpt lat="41.4279709" lon="0.9807944"><ele>478.0</ele><time>2026-05-04T14:47:54.536Z</time></trkpt><trkpt lat="41.4278891" lon="0.9809073"><ele>479.0</ele><time>2026-05-04T14:47:55.548Z</time></trkpt><trkpt lat="41.4278079" lon="0.9810096"><ele>480.0</ele><time>2026-05-04T14:47:56.538Z</time></trkpt><trkpt lat="41.4277566" lon="0.9811202"><ele>481.0</ele><time>2026-05-04T14:47:57.531Z</time></trkpt><trkpt lat="41.4276866" lon="0.9812768"><ele>482.0</ele><time>2026-05-04T14:47:58.539Z</time></trkpt><trkpt lat="41.4276139" lon="0.9814443"><ele>482.0</ele><time>2026-05-04T14:47:59.531Z</time></trkpt><trkpt lat="41.4275503" lon="0.9815952"><ele>482.0</ele><time>2026-05-04T14:48:00.53Z</time></trkpt><trkpt lat="41.4274839" lon="0.9817433"><ele>482.0</ele><time>2026-05-04T14:48:01.531Z</time></trkpt><trkpt lat="41.4274291" lon="0.9819015"><ele>482.0</ele><time>2026-05-04T14:48:02.537Z</time></trkpt><trkpt lat="41.427375" lon="0.9820641"><ele>482.25</ele><time>2026-05-04T14:48:03.53Z</time></trkpt><trkpt lat="41.4273224" lon="0.9822268"><ele>482.5</ele><time>2026-05-04T14:48:04.529Z</time></trkpt><trkpt lat="41.4272757" lon="0.9823762"><ele>482.75</ele><time>2026-05-04T14:48:05.534Z</time></trkpt><trkpt lat="41.427232" lon="0.9825318"><ele>483.0</ele><time>2026-05-04T14:48:06.539Z</time></trkpt><trkpt lat="41.4271885" lon="0.9826876"><ele>485.25</ele><time>2026-05-04T14:48:07.536Z</time></trkpt><trkpt lat="41.4271437" lon="0.982849"><ele>487.5</ele><time>2026-05-04T14:48:08.541Z</time></trkpt><trkpt lat="41.4270956" lon="0.9830054"><ele>489.75</ele><time>2026-05-04T14:48:09.536Z</time></trkpt><trkpt lat="41.4270457" lon="0.9831596"><ele>492.0</ele><time>2026-05-04T14:48:10.541Z</time></trkpt><trkpt lat="41.4269938" lon="0.9833136"><ele>492.25</ele><time>2026-05-04T14:48:11.539Z</time></trkpt><trkpt lat="41.4269387" lon="0.9834694"><ele>492.5</ele><time>2026-05-04T14:48:12.547Z</time></trkpt><trkpt lat="41.4268824" lon="0.9836304"><ele>492.75</ele><time>2026-05-04T14:48:13.543Z</time></trkpt><trkpt lat="41.4268323" lon="0.9837909"><ele>493.0</ele><time>2026-05-04T14:48:14.543Z</time></trkpt><trkpt lat="41.4267742" lon="0.9839448"><ele>493.0</ele><time>2026-05-04T14:48:15.546Z</time></trkpt><trkpt lat="41.426722" lon="0.9840932"><ele>493.0</ele><time>2026-05-04T14:48:16.542Z</time></trkpt><trkpt lat="41.426665" lon="0.9842435"><ele>493.0</ele><time>2026-05-04T14:48:17.54Z</time></trkpt><trkpt lat="41.4266013" lon="0.9843831"><ele>493.0</ele><time>2026-05-04T14:48:18.544Z</time></trkpt><trkpt lat="41.4265328" lon="0.9845184"><ele>493.0</ele><time>2026-05-04T14:48:19.54Z</time></trkpt><trkpt lat="41.4264552" lon="0.9846378"><ele>493.0</ele><time>2026-05-04T14:48:20.542Z</time></trkpt><trkpt lat="41.4263666" lon="0.9847596"><ele>493.0</ele><time>2026-05-04T14:48:21.558Z</time></trkpt><trkpt lat="41.426277" lon="0.9848766"><ele>493.0</ele><time>2026-05-04T14:48:22.539Z</time></trkpt><trkpt lat="41.4261852" lon="0.9849913"><ele>493.0</ele><time>2026-05-04T14:48:23.546Z</time></trkpt><trkpt lat="41.4260928" lon="0.9851054"><ele>493.0</ele><time>2026-05-04T14:48:24.542Z</time></trkpt><trkpt lat="41.4259957" lon="0.9852181"><ele>493.0</ele><time>2026-05-04T14:48:25.545Z</time></trkpt><trkpt lat="41.4259012" lon="0.9853329"><ele>493.0</ele><time>2026-05-04T14:48:26.543Z</time></trkpt><trkpt lat="41.4258058" lon="0.9854465"><ele>493.0</ele><time>2026-05-04T14:48:27.545Z</time></trkpt><trkpt lat="41.4257115" lon="0.9855569"><ele>493.0</ele><time>2026-05-04T14:48:28.545Z</time></trkpt><trkpt lat="41.4256128" lon="0.98567"><ele>493.0</ele><time>2026-05-04T14:48:29.541Z</time></trkpt><trkpt lat="41.4255174" lon="0.9857801"><ele>493.0</ele><time>2026-05-04T14:48:30.54Z</time></trkpt><trkpt lat="41.4254266" lon="0.9858883"><ele>494.25</ele><time>2026-05-04T14:48:31.541Z</time></trkpt><trkpt lat="41.4253292" lon="0.9860031"><ele>495.5</ele><time>2026-05-04T14:48:32.537Z</time></trkpt><trkpt lat="41.4252339" lon="0.98611"><ele>496.75</ele><time>2026-05-04T14:48:33.543Z</time></trkpt><trkpt lat="41.4251405" lon="0.9862175"><ele>498.0</ele><time>2026-05-04T14:48:34.539Z</time></trkpt><trkpt lat="41.4250555" lon="0.9863262"><ele>498.0</ele><time>2026-05-04T14:48:35.544Z</time></trkpt><trkpt lat="41.4249709" lon="0.9864338"><ele>498.0</ele><time>2026-05-04T14:48:36.539Z</time></trkpt><trkpt lat="41.4248873" lon="0.9865317"><ele>498.0</ele><time>2026-05-04T14:48:37.54Z</time></trkpt><trkpt lat="41.4248032" lon="0.9866359"><ele>498.0</ele><time>2026-05-04T14:48:38.539Z</time></trkpt><trkpt lat="41.4247181" lon="0.9867339"><ele>499.59999999999997</ele><time>2026-05-04T14:48:39.538Z</time></trkpt><trkpt lat="41.424631" lon="0.9868303"><ele>501.19999999999993</ele><time>2026-05-04T14:48:40.54Z</time></trkpt><trkpt lat="41.4245506" lon="0.986925"><ele>502.8</ele><time>2026-05-04T14:48:41.54Z</time></trkpt><trkpt lat="41.4244733" lon="0.987011"><ele>504.4</ele><time>2026-05-04T14:48:42.541Z</time></trkpt><trkpt lat="41.4243975" lon="0.9871001"><ele>506.0</ele><time>2026-05-04T14:48:43.544Z</time></trkpt><trkpt lat="41.4243148" lon="0.9871855"><ele>506.0</ele><time>2026-05-04T14:48:44.542Z</time></trkpt><trkpt lat="41.424234" lon="0.9872659"><ele>506.0</ele><time>2026-05-04T14:48:45.535Z</time></trkpt><trkpt lat="41.4241622" lon="0.9873476"><ele>506.0</ele><time>2026-05-04T14:48:46.546Z</time></trkpt><trkpt lat="41.4240867" lon="0.9874212"><ele>506.0</ele><time>2026-05-04T14:48:47.534Z</time></trkpt><trkpt lat="41.4240069" lon="0.9874879"><ele>506.0</ele><time>2026-05-04T14:48:48.535Z</time></trkpt><trkpt lat="41.4239232" lon="0.9875528"><ele>507.20000000000005</ele><time>2026-05-04T14:48:49.542Z</time></trkpt><trkpt lat="41.4238407" lon="0.9876113"><ele>508.40000000000003</ele><time>2026-05-04T14:48:50.532Z</time></trkpt><trkpt lat="41.4237622" lon="0.9876693"><ele>509.6</ele><time>2026-05-04T14:48:51.538Z</time></trkpt><trkpt lat="41.4236819" lon="0.9877218"><ele>510.8</ele><time>2026-05-04T14:48:52.548Z</time></trkpt><trkpt lat="41.4235997" lon="0.9877759"><ele>512.0</ele><time>2026-05-04T14:48:53.536Z</time></trkpt><trkpt lat="41.4235092" lon="0.9878279"><ele>514.4</ele><time>2026-05-04T14:48:54.528Z</time></trkpt><trkpt lat="41.4234261" lon="0.9878867"><ele>516.8000000000001</ele><time>2026-05-04T14:48:55.536Z</time></trkpt><trkpt lat="41.423337" lon="0.9879487"><ele>519.2</ele><time>2026-05-04T14:48:56.536Z</time></trkpt><trkpt lat="41.4232505" lon="0.9880037"><ele>521.6</ele><time>2026-05-04T14:48:57.536Z</time></trkpt><trkpt lat="41.4231654" lon="0.9880482"><ele>524.0</ele><time>2026-05-04T14:48:58.533Z</time></trkpt><trkpt lat="41.4230771" lon="0.9880922"><ele>524.0</ele><time>2026-05-04T14:48:59.533Z</time></trkpt><trkpt lat="41.4229896" lon="0.9881464"><ele>524.0</ele><time>2026-05-04T14:49:00.524Z</time></trkpt><trkpt lat="41.4229005" lon="0.9881972"><ele>524.0</ele><time>2026-05-04T14:49:01.532Z</time></trkpt><trkpt lat="41.4227978" lon="0.9882507"><ele>524.0</ele><time>2026-05-04T14:49:02.534Z</time></trkpt><trkpt lat="41.4226991" lon="0.9883063"><ele>524.0</ele><time>2026-05-04T14:49:03.535Z</time></trkpt><trkpt lat="41.4226058" lon="0.9883629"><ele>525.2</ele><time>2026-05-04T14:49:04.53Z</time></trkpt><trkpt lat="41.4225156" lon="0.9884232"><ele>526.4</ele><time>2026-05-04T14:49:05.532Z</time></trkpt><trkpt lat="41.4224344" lon="0.9884913"><ele>527.6</ele><time>2026-05-04T14:49:06.535Z</time></trkpt><trkpt lat="41.4223587" lon="0.9885636"><ele>528.8</ele><time>2026-05-04T14:49:07.535Z</time></trkpt><trkpt lat="41.4222758" lon="0.9886447"><ele>530.0</ele><time>2026-05-04T14:49:08.538Z</time></trkpt><trkpt lat="41.4222" lon="0.9887323"><ele>529.4</ele><time>2026-05-04T14:49:09.534Z</time></trkpt><trkpt lat="41.422127" lon="0.9888272"><ele>528.8</ele><time>2026-05-04T14:49:10.536Z</time></trkpt><trkpt lat="41.4220504" lon="0.9889284"><ele>528.2</ele><time>2026-05-04T14:49:11.533Z</time></trkpt><trkpt lat="41.4219839" lon="0.9890341"><ele>527.6</ele><time>2026-05-04T14:49:12.533Z</time></trkpt><trkpt lat="41.4219154" lon="0.989148"><ele>527.0</ele><time>2026-05-04T14:49:13.532Z</time></trkpt><trkpt lat="41.4218483" lon="0.9892663"><ele>527.0</ele><time>2026-05-04T14:49:14.533Z</time></trkpt><trkpt lat="41.4217856" lon="0.989392"><ele>527.0</ele><time>2026-05-04T14:49:15.528Z</time></trkpt><trkpt lat="41.4217311" lon="0.9895226"><ele>527.0</ele><time>2026-05-04T14:49:16.53Z</time></trkpt><trkpt lat="41.4216776" lon="0.9896558"><ele>527.0</ele><time>2026-05-04T14:49:17.526Z</time></trkpt><trkpt lat="41.4216272" lon="0.989792"><ele>527.0</ele><time>2026-05-04T14:49:18.53Z</time></trkpt><trkpt lat="41.4215872" lon="0.9899332"><ele>527.0</ele><time>2026-05-04T14:49:19.544Z</time></trkpt><trkpt lat="41.4215526" lon="0.9900735"><ele>527.0</ele><time>2026-05-04T14:49:20.53Z</time></trkpt><trkpt lat="41.4215241" lon="0.9902156"><ele>527.0</ele><time>2026-05-04T14:49:21.538Z</time></trkpt><trkpt lat="41.4215" lon="0.9903734"><ele>527.8000000000001</ele><time>2026-05-04T14:49:22.529Z</time></trkpt><trkpt lat="41.4214804" lon="0.990526"><ele>528.6</ele><time>2026-05-04T14:49:23.547Z</time></trkpt><trkpt lat="41.4214668" lon="0.9906765"><ele>529.4000000000001</ele><time>2026-05-04T14:49:24.528Z</time></trkpt><trkpt lat="41.4214511" lon="0.9908247"><ele>530.2</ele><time>2026-05-04T14:49:25.538Z</time></trkpt><trkpt lat="41.4214384" lon="0.9909652"><ele>531.0</ele><time>2026-05-04T14:49:26.537Z</time></trkpt><trkpt lat="41.4214298" lon="0.9911045"><ele>531.0</ele><time>2026-05-04T14:49:27.541Z</time></trkpt><trkpt lat="41.4214194" lon="0.9912474"><ele>531.0</ele><time>2026-05-04T14:49:28.538Z</time></trkpt><trkpt lat="41.4214077" lon="0.9913944"><ele>531.0</ele><time>2026-05-04T14:49:29.538Z</time></trkpt><trkpt lat="41.4214" lon="0.9915442"><ele>531.0</ele><time>2026-05-04T14:49:30.537Z</time></trkpt><trkpt lat="41.4213935" lon="0.9916929"><ele>531.0</ele><time>2026-05-04T14:49:31.538Z</time></trkpt><trkpt lat="41.4213853" lon="0.9918425"><ele>531.0</ele><time>2026-05-04T14:49:32.535Z</time></trkpt><trkpt lat="41.4213794" lon="0.9919889"><ele>531.0</ele><time>2026-05-04T14:49:33.536Z</time></trkpt><trkpt lat="41.4213724" lon="0.9921386"><ele>531.0</ele><time>2026-05-04T14:49:34.531Z</time></trkpt><trkpt lat="41.4213553" lon="0.992285"><ele>531.0</ele><time>2026-05-04T14:49:35.537Z</time></trkpt><trkpt lat="41.4213352" lon="0.9924336"><ele>531.0</ele><time>2026-05-04T14:49:36.535Z</time></trkpt><trkpt lat="41.4213159" lon="0.9925822"><ele>532.6</ele><time>2026-05-04T14:49:37.537Z</time></trkpt><trkpt lat="41.421292" lon="0.9927338"><ele>534.2</ele><time>2026-05-04T14:49:38.541Z</time></trkpt><trkpt lat="41.4212653" lon="0.9928777"><ele>535.8</ele><time>2026-05-04T14:49:39.536Z</time></trkpt><trkpt lat="41.4212405" lon="0.9930158"><ele>537.4</ele><time>2026-05-04T14:49:40.532Z</time></trkpt><trkpt lat="41.4212104" lon="0.9931478"><ele>539.0</ele><time>2026-05-04T14:49:41.541Z</time></trkpt><trkpt lat="41.4211807" lon="0.993277"><ele>538.8</ele><time>2026-05-04T14:49:42.532Z</time></trkpt><trkpt lat="41.4211462" lon="0.9934108"><ele>538.5999999999999</ele><time>2026-05-04T14:49:43.542Z</time></trkpt><trkpt lat="41.4211013" lon="0.9935404"><ele>538.4</ele><time>2026-05-04T14:49:44.538Z</time></trkpt><trkpt lat="41.4210536" lon="0.9936638"><ele>538.1999999999999</ele><time>2026-05-04T14:49:45.539Z</time></trkpt><trkpt lat="41.4210105" lon="0.9937896"><ele>538.0</ele><time>2026-05-04T14:49:46.54Z</time></trkpt><trkpt lat="41.4209604" lon="0.993913"><ele>538.0</ele><time>2026-05-04T14:49:47.537Z</time></trkpt><trkpt lat="41.4209047" lon="0.9940353"><ele>538.0</ele><time>2026-05-04T14:49:48.537Z</time></trkpt><trkpt lat="41.4208458" lon="0.9941656"><ele>538.0</ele><time>2026-05-04T14:49:49.536Z</time></trkpt><trkpt lat="41.420782" lon="0.9943001"><ele>538.0</ele><time>2026-05-04T14:49:50.537Z</time></trkpt><trkpt lat="41.4207175" lon="0.9944285"><ele>537.25</ele><time>2026-05-04T14:49:51.542Z</time></trkpt><trkpt lat="41.420647" lon="0.994547"><ele>536.5</ele><time>2026-05-04T14:49:52.534Z</time></trkpt><trkpt lat="41.4205775" lon="0.9946664"><ele>535.75</ele><time>2026-05-04T14:49:53.536Z</time></trkpt><trkpt lat="41.4205063" lon="0.9947836"><ele>535.0</ele><time>2026-05-04T14:49:54.553Z</time></trkpt><trkpt lat="41.4204379" lon="0.9949041"><ele>535.4</ele><time>2026-05-04T14:49:55.537Z</time></trkpt><trkpt lat="41.4203742" lon="0.9950215"><ele>535.8</ele><time>2026-05-04T14:49:56.539Z</time></trkpt><trkpt lat="41.4203092" lon="0.9951377"><ele>536.2</ele><time>2026-05-04T14:49:57.527Z</time></trkpt><trkpt lat="41.4202443" lon="0.9952541"><ele>536.6</ele><time>2026-05-04T14:49:58.535Z</time></trkpt><trkpt lat="41.4201799" lon="0.9953711"><ele>537.0</ele><time>2026-05-04T14:49:59.544Z</time></trkpt><trkpt lat="41.4201154" lon="0.9954933"><ele>537.0</ele><time>2026-05-04T14:50:00.543Z</time></trkpt><trkpt lat="41.4200603" lon="0.9956026"><ele>537.0</ele><time>2026-05-04T14:50:01.544Z</time></trkpt><trkpt lat="41.4200134" lon="0.995691"><ele>537.0</ele><time>2026-05-04T14:50:02.535Z</time></trkpt><trkpt lat="41.4199742" lon="0.995785"><ele>537.0</ele><time>2026-05-04T14:50:03.525Z</time></trkpt><trkpt lat="41.4199087" lon="0.9959289"><ele>537.0</ele><time>2026-05-04T14:50:04.527Z</time></trkpt><trkpt lat="41.4198482" lon="0.9960849"><ele>537.0</ele><time>2026-05-04T14:50:05.525Z</time></trkpt><trkpt lat="41.4197979" lon="0.9962416"><ele>537.0</ele><time>2026-05-04T14:50:06.529Z</time></trkpt><trkpt lat="41.419748" lon="0.996392"><ele>537.0</ele><time>2026-05-04T14:50:07.533Z</time></trkpt><trkpt lat="41.4197032" lon="0.9965419"><ele>537.0</ele><time>2026-05-04T14:50:08.533Z</time></trkpt><trkpt lat="41.4196604" lon="0.9966924"><ele>542.0</ele><time>2026-05-04T14:50:09.535Z</time></trkpt><trkpt lat="41.4196189" lon="0.9968414"><ele>547.0</ele><time>2026-05-04T14:50:10.534Z</time></trkpt><trkpt lat="41.4195832" lon="0.9969932"><ele>552.0</ele><time>2026-05-04T14:50:11.535Z</time></trkpt><trkpt lat="41.4195495" lon="0.9971485"><ele>557.0</ele><time>2026-05-04T14:50:12.537Z</time></trkpt><trkpt lat="41.4195223" lon="0.9973028"><ele>557.0</ele><time>2026-05-04T14:50:13.54Z</time></trkpt><trkpt lat="41.4194958" lon="0.9974367"><ele>557.0</ele><time>2026-05-04T14:50:14.535Z</time></trkpt><trkpt lat="41.4194553" lon="0.9975695"><ele>557.0</ele><time>2026-05-04T14:50:15.535Z</time></trkpt><trkpt lat="41.4194255" lon="0.9976882"><ele>557.0</ele><time>2026-05-04T14:50:16.515Z</time></trkpt><trkpt lat="41.4193769" lon="0.9978068"><ele>557.0</ele><time>2026-05-04T14:50:17.527Z</time></trkpt><trkpt lat="41.4193444" lon="0.9979406"><ele>556.0</ele><time>2026-05-04T14:50:18.525Z</time></trkpt><trkpt lat="41.4193125" lon="0.9980863"><ele>555.0</ele><time>2026-05-04T14:50:19.526Z</time></trkpt><trkpt lat="41.4192838" lon="0.9982434"><ele>554.0</ele><time>2026-05-04T14:50:20.52Z</time></trkpt><trkpt lat="41.4192358" lon="0.9984118"><ele>553.0</ele><time>2026-05-04T14:50:21.525Z</time></trkpt><trkpt lat="41.4191986" lon="0.9985669"><ele>550.75</ele><time>2026-05-04T14:50:22.521Z</time></trkpt><trkpt lat="41.4191711" lon="0.9987244"><ele>548.5</ele><time>2026-05-04T14:50:23.529Z</time></trkpt><trkpt lat="41.4191499" lon="0.9988819"><ele>546.25</ele><time>2026-05-04T14:50:24.522Z</time></trkpt><trkpt lat="41.4191143" lon="0.9990445"><ele>544.0</ele><time>2026-05-04T14:50:25.567Z</time></trkpt><trkpt lat="41.4190881" lon="0.9991996"><ele>544.0</ele><time>2026-05-04T14:50:26.533Z</time></trkpt><trkpt lat="41.419067" lon="0.9993581"><ele>544.0</ele><time>2026-05-04T14:50:27.528Z</time></trkpt><trkpt lat="41.4190537" lon="0.9995262"><ele>544.0</ele><time>2026-05-04T14:50:28.534Z</time></trkpt><trkpt lat="41.4190315" lon="0.9996917"><ele>544.0</ele><time>2026-05-04T14:50:29.532Z</time></trkpt><trkpt lat="41.4190059" lon="0.9998498"><ele>544.0</ele><time>2026-05-04T14:50:30.533Z</time></trkpt><trkpt lat="41.4189835" lon="1.0000059"><ele>544.0</ele><time>2026-05-04T14:50:31.535Z</time></trkpt><trkpt lat="41.4189653" lon="1.0001667"><ele>544.0</ele><time>2026-05-04T14:50:32.537Z</time></trkpt><trkpt lat="41.4189479" lon="1.0003198"><ele>544.0</ele><time>2026-05-04T14:50:33.534Z</time></trkpt><trkpt lat="41.4189366" lon="1.0004683"><ele>544.0</ele><time>2026-05-04T14:50:34.534Z</time></trkpt><trkpt lat="41.4189289" lon="1.0006165"><ele>544.0</ele><time>2026-05-04T14:50:35.533Z</time></trkpt><trkpt lat="41.4189262" lon="1.0007672"><ele>544.0</ele><time>2026-05-04T14:50:36.534Z</time></trkpt><trkpt lat="41.4189313" lon="1.0009188"><ele>544.0</ele><time>2026-05-04T14:50:37.532Z</time></trkpt><trkpt lat="41.4189351" lon="1.0010722"><ele>545.5</ele><time>2026-05-04T14:50:38.535Z</time></trkpt><trkpt lat="41.4189447" lon="1.0012245"><ele>547.0</ele><time>2026-05-04T14:50:39.534Z</time></trkpt><trkpt lat="41.4189605" lon="1.0013748"><ele>548.5</ele><time>2026-05-04T14:50:40.533Z</time></trkpt><trkpt lat="41.4189839" lon="1.0015286"><ele>550.0</ele><time>2026-05-04T14:50:41.535Z</time></trkpt><trkpt lat="41.4190052" lon="1.0016821"><ele>550.75</ele><time>2026-05-04T14:50:42.539Z</time></trkpt><trkpt lat="41.419029" lon="1.0018326"><ele>551.5</ele><time>2026-05-04T14:50:43.542Z</time></trkpt><trkpt lat="41.4190532" lon="1.0019783"><ele>552.25</ele><time>2026-05-04T14:50:44.539Z</time></trkpt><trkpt lat="41.4190768" lon="1.0021262"><ele>553.0</ele><time>2026-05-04T14:50:45.54Z</time></trkpt><trkpt lat="41.4190967" lon="1.0022746"><ele>553.0</ele><time>2026-05-04T14:50:46.544Z</time></trkpt><trkpt lat="41.4191233" lon="1.0024198"><ele>553.0</ele><time>2026-05-04T14:50:47.529Z</time></trkpt><trkpt lat="41.4191602" lon="1.0025559"><ele>553.0</ele><time>2026-05-04T14:50:48.536Z</time></trkpt><trkpt lat="41.4191863" lon="1.0026999"><ele>553.0</ele><time>2026-05-04T14:50:49.525Z</time></trkpt><trkpt lat="41.4192073" lon="1.0028523"><ele>553.0</ele><time>2026-05-04T14:50:50.545Z</time></trkpt><trkpt lat="41.4192261" lon="1.0029874"><ele>554.1999999999999</ele><time>2026-05-04T14:50:51.539Z</time></trkpt><trkpt lat="41.41924" lon="1.0031311"><ele>555.4</ele><time>2026-05-04T14:50:52.535Z</time></trkpt><trkpt lat="41.4192495" lon="1.003278"><ele>556.5999999999999</ele><time>2026-05-04T14:50:53.535Z</time></trkpt><trkpt lat="41.4192535" lon="1.0034269"><ele>557.8</ele><time>2026-05-04T14:50:54.54Z</time></trkpt><trkpt lat="41.4192611" lon="1.0035817"><ele>559.0</ele><time>2026-05-04T14:50:55.553Z</time></trkpt><trkpt lat="41.4192616" lon="1.0037296"><ele>559.6</ele><time>2026-05-04T14:50:56.534Z</time></trkpt><trkpt lat="41.4192574" lon="1.0038741"><ele>560.2</ele><time>2026-05-04T14:50:57.537Z</time></trkpt><trkpt lat="41.4192553" lon="1.0040209"><ele>560.8000000000001</ele><time>2026-05-04T14:50:58.546Z</time></trkpt><trkpt lat="41.4192434" lon="1.0041699"><ele>561.4</ele><time>2026-05-04T14:50:59.545Z</time></trkpt><trkpt lat="41.4192189" lon="1.0043126"><ele>562.0</ele><time>2026-05-04T14:51:00.538Z</time></trkpt><trkpt lat="41.4191884" lon="1.0044544"><ele>562.75</ele><time>2026-05-04T14:51:01.535Z</time></trkpt><trkpt lat="41.4191541" lon="1.0045977"><ele>563.5</ele><time>2026-05-04T14:51:02.537Z</time></trkpt><trkpt lat="41.4191169" lon="1.0047394"><ele>564.25</ele><time>2026-05-04T14:51:03.534Z</time></trkpt><trkpt lat="41.4190756" lon="1.0048789"><ele>565.0</ele><time>2026-05-04T14:51:04.541Z</time></trkpt><trkpt lat="41.4190274" lon="1.0050227"><ele>565.0</ele><time>2026-05-04T14:51:05.532Z</time></trkpt><trkpt lat="41.4189829" lon="1.0051691"><ele>565.0</ele><time>2026-05-04T14:51:06.525Z</time></trkpt><trkpt lat="41.4189251" lon="1.005311"><ele>565.0</ele><time>2026-05-04T14:51:07.531Z</time></trkpt><trkpt lat="41.4188655" lon="1.0054473"><ele>565.0</ele><time>2026-05-04T14:51:08.534Z</time></trkpt><trkpt lat="41.4188111" lon="1.0055814"><ele>567.5</ele><time>2026-05-04T14:51:09.53Z</time></trkpt><trkpt lat="41.4187551" lon="1.0057141"><ele>570.0</ele><time>2026-05-04T14:51:10.532Z</time></trkpt><trkpt lat="41.418695" lon="1.0058487"><ele>572.5</ele><time>2026-05-04T14:51:11.536Z</time></trkpt><trkpt lat="41.4186345" lon="1.0059794"><ele>575.0</ele><time>2026-05-04T14:51:12.535Z</time></trkpt><trkpt lat="41.4185768" lon="1.0061095"><ele>575.2</ele><time>2026-05-04T14:51:13.536Z</time></trkpt><trkpt lat="41.4185253" lon="1.0062418"><ele>575.4</ele><time>2026-05-04T14:51:14.535Z</time></trkpt><trkpt lat="41.4184721" lon="1.0063673"><ele>575.6</ele><time>2026-05-04T14:51:15.539Z</time></trkpt><trkpt lat="41.4184219" lon="1.0064971"><ele>575.8</ele><time>2026-05-04T14:51:16.536Z</time></trkpt><trkpt lat="41.4183794" lon="1.0066284"><ele>576.0</ele><time>2026-05-04T14:51:17.535Z</time></trkpt><trkpt lat="41.4183388" lon="1.006765"><ele>576.4</ele><time>2026-05-04T14:51:18.538Z</time></trkpt><trkpt lat="41.4182962" lon="1.0068975"><ele>576.8</ele><time>2026-05-04T14:51:19.536Z</time></trkpt><trkpt lat="41.4182542" lon="1.0070332"><ele>577.1999999999999</ele><time>2026-05-04T14:51:20.538Z</time></trkpt><trkpt lat="41.4182145" lon="1.0071749"><ele>577.6</ele><time>2026-05-04T14:51:21.545Z</time></trkpt><trkpt lat="41.4181832" lon="1.0073224"><ele>578.0</ele><time>2026-05-04T14:51:22.538Z</time></trkpt><trkpt lat="41.4181567" lon="1.0074739"><ele>579.25</ele><time>2026-05-04T14:51:23.541Z</time></trkpt><trkpt lat="41.4181313" lon="1.0076212"><ele>580.5</ele><time>2026-05-04T14:51:24.537Z</time></trkpt><trkpt lat="41.4181139" lon="1.0077737"><ele>581.75</ele><time>2026-05-04T14:51:25.538Z</time></trkpt><trkpt lat="41.4181004" lon="1.0079284"><ele>583.0</ele><time>2026-05-04T14:51:26.548Z</time></trkpt><trkpt lat="41.4180888" lon="1.0080848"><ele>583.0</ele><time>2026-05-04T14:51:27.534Z</time></trkpt><trkpt lat="41.4180829" lon="1.0082482"><ele>583.0</ele><time>2026-05-04T14:51:28.544Z</time></trkpt><trkpt lat="41.4180717" lon="1.0084089"><ele>583.0</ele><time>2026-05-04T14:51:29.53Z</time></trkpt><trkpt lat="41.4180651" lon="1.0085693"><ele>583.0</ele><time>2026-05-04T14:51:30.542Z</time></trkpt><trkpt lat="41.4180547" lon="1.0087329"><ele>583.25</ele><time>2026-05-04T14:51:31.537Z</time></trkpt><trkpt lat="41.4180474" lon="1.0089023"><ele>583.5</ele><time>2026-05-04T14:51:32.538Z</time></trkpt><trkpt lat="41.4180402" lon="1.0090678"><ele>583.75</ele><time>2026-05-04T14:51:33.539Z</time></trkpt><trkpt lat="41.4180277" lon="1.0092298"><ele>584.0</ele><time>2026-05-04T14:51:34.538Z</time></trkpt><trkpt lat="41.4180156" lon="1.0093964"><ele>583.0</ele><time>2026-05-04T14:51:35.534Z</time></trkpt><trkpt lat="41.4180045" lon="1.0095713"><ele>582.0</ele><time>2026-05-04T14:51:36.539Z</time></trkpt><trkpt lat="41.4179978" lon="1.0097552"><ele>581.0</ele><time>2026-05-04T14:51:37.534Z</time></trkpt><trkpt lat="41.4179834" lon="1.0099344"><ele>580.0</ele><time>2026-05-04T14:51:38.54Z</time></trkpt><trkpt lat="41.4179619" lon="1.0101179"><ele>578.25</ele><time>2026-05-04T14:51:39.541Z</time></trkpt><trkpt lat="41.4179437" lon="1.0103019"><ele>576.5</ele><time>2026-05-04T14:51:40.534Z</time></trkpt><trkpt lat="41.4179295" lon="1.0104873"><ele>574.75</ele><time>2026-05-04T14:51:41.537Z</time></trkpt><trkpt lat="41.4179206" lon="1.0106824"><ele>573.0</ele><time>2026-05-04T14:51:42.535Z</time></trkpt><trkpt lat="41.4179059" lon="1.0108734"><ele>572.5</ele><time>2026-05-04T14:51:43.54Z</time></trkpt><trkpt lat="41.4178954" lon="1.0110672"><ele>572.0</ele><time>2026-05-04T14:51:44.538Z</time></trkpt><trkpt lat="41.4178827" lon="1.0112653"><ele>571.5</ele><time>2026-05-04T14:51:45.537Z</time></trkpt><trkpt lat="41.4178757" lon="1.0114561"><ele>571.0</ele><time>2026-05-04T14:51:46.54Z</time></trkpt><trkpt lat="41.4178655" lon="1.0116536"><ele>569.75</ele><time>2026-05-04T14:51:47.542Z</time></trkpt><trkpt lat="41.4178605" lon="1.011841"><ele>568.5</ele><time>2026-05-04T14:51:48.545Z</time></trkpt><trkpt lat="41.4178631" lon="1.0120385"><ele>567.25</ele><time>2026-05-04T14:51:49.546Z</time></trkpt><trkpt lat="41.4178567" lon="1.0122263"><ele>566.0</ele><time>2026-05-04T14:51:50.543Z</time></trkpt><trkpt lat="41.4178608" lon="1.0124164"><ele>566.25</ele><time>2026-05-04T14:51:51.547Z</time></trkpt><trkpt lat="41.4178546" lon="1.0126131"><ele>566.5</ele><time>2026-05-04T14:51:52.54Z</time></trkpt><trkpt lat="41.4178512" lon="1.0127953"><ele>566.75</ele><time>2026-05-04T14:51:53.541Z</time></trkpt><trkpt lat="41.4178431" lon="1.0129706"><ele>567.0</ele><time>2026-05-04T14:51:54.538Z</time></trkpt><trkpt lat="41.4178447" lon="1.0133054"><ele>567.5</ele><time>2026-05-04T14:51:56.537Z</time></trkpt><trkpt lat="41.4178414" lon="1.0134641"><ele>568.0</ele><time>2026-05-04T14:51:57.554Z</time></trkpt><trkpt lat="41.4178504" lon="1.0136408"><ele>568.5</ele><time>2026-05-04T14:51:58.535Z</time></trkpt><trkpt lat="41.4178499" lon="1.0138144"><ele>569.0</ele><time>2026-05-04T14:51:59.534Z</time></trkpt><trkpt lat="41.4178516" lon="1.0139925"><ele>569.25</ele><time>2026-05-04T14:52:00.535Z</time></trkpt><trkpt lat="41.4178528" lon="1.0141713"><ele>569.5</ele><time>2026-05-04T14:52:01.538Z</time></trkpt><trkpt lat="41.4178515" lon="1.0143535"><ele>569.75</ele><time>2026-05-04T14:52:02.538Z</time></trkpt><trkpt lat="41.417851" lon="1.01454"><ele>570.0</ele><time>2026-05-04T14:52:03.539Z</time></trkpt><trkpt lat="41.4178463" lon="1.0147196"><ele>570.0</ele><time>2026-05-04T14:52:04.536Z</time></trkpt><trkpt lat="41.4178428" lon="1.0149097"><ele>570.0</ele><time>2026-05-04T14:52:05.536Z</time></trkpt><trkpt lat="41.4178315" lon="1.0151074"><ele>570.0</ele><time>2026-05-04T14:52:06.545Z</time></trkpt><trkpt lat="41.4178216" lon="1.0153048"><ele>570.0</ele><time>2026-05-04T14:52:07.539Z</time></trkpt><trkpt lat="41.4177956" lon="1.015493"><ele>570.0</ele><time>2026-05-04T14:52:08.537Z</time></trkpt><trkpt lat="41.4177692" lon="1.0156936"><ele>570.0</ele><time>2026-05-04T14:52:09.541Z</time></trkpt><trkpt lat="41.4177375" lon="1.0158827"><ele>570.0</ele><time>2026-05-04T14:52:10.534Z</time></trkpt><trkpt lat="41.4176939" lon="1.0160743"><ele>570.0</ele><time>2026-05-04T14:52:11.531Z</time></trkpt><trkpt lat="41.4176485" lon="1.016262"><ele>570.0</ele><time>2026-05-04T14:52:12.531Z</time></trkpt><trkpt lat="41.4176054" lon="1.0164529"><ele>570.0</ele><time>2026-05-04T14:52:13.532Z</time></trkpt><trkpt lat="41.4175528" lon="1.0166233"><ele>570.0</ele><time>2026-05-04T14:52:14.529Z</time></trkpt><trkpt lat="41.4175015" lon="1.0168002"><ele>570.0</ele><time>2026-05-04T14:52:15.521Z</time></trkpt><trkpt lat="41.4174402" lon="1.0169665"><ele>567.5</ele><time>2026-05-04T14:52:16.529Z</time></trkpt><trkpt lat="41.4173779" lon="1.0171319"><ele>565.0</ele><time>2026-05-04T14:52:17.533Z</time></trkpt><trkpt lat="41.4173081" lon="1.0172983"><ele>562.5</ele><time>2026-05-04T14:52:18.529Z</time></trkpt><trkpt lat="41.417232" lon="1.0174521"><ele>560.0</ele><time>2026-05-04T14:52:19.53Z</time></trkpt><trkpt lat="41.4171641" lon="1.0176232"><ele>559.3333333333333</ele><time>2026-05-04T14:52:20.537Z</time></trkpt><trkpt lat="41.417097" lon="1.0178124"><ele>558.6666666666666</ele><time>2026-05-04T14:52:21.536Z</time></trkpt><trkpt lat="41.4170338" lon="1.0180032"><ele>558.0</ele><time>2026-05-04T14:52:22.528Z</time></trkpt><trkpt lat="41.4169634" lon="1.0181775"><ele>555.0</ele><time>2026-05-04T14:52:23.538Z</time></trkpt><trkpt lat="41.416882" lon="1.0183573"><ele>552.0</ele><time>2026-05-04T14:52:24.533Z</time></trkpt><trkpt lat="41.4167963" lon="1.0185369"><ele>549.0</ele><time>2026-05-04T14:52:25.54Z</time></trkpt><trkpt lat="41.4167155" lon="1.0187176"><ele>549.0</ele><time>2026-05-04T14:52:26.536Z</time></trkpt><trkpt lat="41.4166389" lon="1.0188983"><ele>549.0</ele><time>2026-05-04T14:52:27.541Z</time></trkpt><trkpt lat="41.4165546" lon="1.0190803"><ele>549.0</ele><time>2026-05-04T14:52:28.55Z</time></trkpt><trkpt lat="41.4164671" lon="1.0192656"><ele>548.6666666666666</ele><time>2026-05-04T14:52:29.537Z</time></trkpt><trkpt lat="41.4163905" lon="1.0194613"><ele>548.3333333333333</ele><time>2026-05-04T14:52:30.536Z</time></trkpt><trkpt lat="41.4163063" lon="1.0196573"><ele>548.0</ele><time>2026-05-04T14:52:31.536Z</time></trkpt><trkpt lat="41.4162296" lon="1.0198493"><ele>544.6666666666666</ele><time>2026-05-04T14:52:32.536Z</time></trkpt><trkpt lat="41.4161591" lon="1.0200391"><ele>541.3333333333334</ele><time>2026-05-04T14:52:33.534Z</time></trkpt><trkpt lat="41.4160826" lon="1.0202267"><ele>538.0</ele><time>2026-05-04T14:52:34.531Z</time></trkpt><trkpt lat="41.4160097" lon="1.0204083"><ele>538.0</ele><time>2026-05-04T14:52:35.535Z</time></trkpt><trkpt lat="41.4159326" lon="1.0205753"><ele>538.0</ele><time>2026-05-04T14:52:36.539Z</time></trkpt><trkpt lat="41.4158625" lon="1.0207477"><ele>538.0</ele><time>2026-05-04T14:52:37.534Z</time></trkpt><trkpt lat="41.4157898" lon="1.0209067"><ele>538.0</ele><time>2026-05-04T14:52:38.534Z</time></trkpt><trkpt lat="41.4157138" lon="1.0210785"><ele>539.6666666666667</ele><time>2026-05-04T14:52:39.536Z</time></trkpt><trkpt lat="41.4156396" lon="1.021241"><ele>541.3333333333334</ele><time>2026-05-04T14:52:40.531Z</time></trkpt><trkpt lat="41.4155628" lon="1.0214176"><ele>543.0</ele><time>2026-05-04T14:52:41.538Z</time></trkpt><trkpt lat="41.4154853" lon="1.0215949"><ele>540.6666666666666</ele><time>2026-05-04T14:52:42.53Z</time></trkpt><trkpt lat="41.4154028" lon="1.021765"><ele>538.3333333333333</ele><time>2026-05-04T14:52:43.535Z</time></trkpt><trkpt lat="41.4153207" lon="1.0219336"><ele>536.0</ele><time>2026-05-04T14:52:44.53Z</time></trkpt><trkpt lat="41.4152259" lon="1.0221075"><ele>536.0</ele><time>2026-05-04T14:52:45.535Z</time></trkpt><trkpt lat="41.4151317" lon="1.0222796"><ele>536.0</ele><time>2026-05-04T14:52:46.532Z</time></trkpt><trkpt lat="41.4150486" lon="1.0224382"><ele>536.0</ele><time>2026-05-04T14:52:47.536Z</time></trkpt><trkpt lat="41.4149614" lon="1.0225858"><ele>536.0</ele><time>2026-05-04T14:52:48.531Z</time></trkpt><trkpt lat="41.4148593" lon="1.0227362"><ele>535.5</ele><time>2026-05-04T14:52:49.537Z</time></trkpt><trkpt lat="41.4147762" lon="1.022882"><ele>535.0</ele><time>2026-05-04T14:52:50.537Z</time></trkpt><trkpt lat="41.414691" lon="1.0230293"><ele>534.5</ele><time>2026-05-04T14:52:51.54Z</time></trkpt><trkpt lat="41.4146006" lon="1.0231942"><ele>534.0</ele><time>2026-05-04T14:52:52.532Z</time></trkpt><trkpt lat="41.4145045" lon="1.0233568"><ele>534.0</ele><time>2026-05-04T14:52:53.537Z</time></trkpt><trkpt lat="41.4144214" lon="1.0235117"><ele>534.0</ele><time>2026-05-04T14:52:54.535Z</time></trkpt><trkpt lat="41.4143351" lon="1.0236772"><ele>534.0</ele><time>2026-05-04T14:52:55.533Z</time></trkpt><trkpt lat="41.4142391" lon="1.0238424"><ele>534.0</ele><time>2026-05-04T14:52:56.529Z</time></trkpt><trkpt lat="41.4141601" lon="1.0239908"><ele>534.0</ele><time>2026-05-04T14:52:57.53Z</time></trkpt><trkpt lat="41.4140697" lon="1.0241576"><ele>534.0</ele><time>2026-05-04T14:52:58.527Z</time></trkpt><trkpt lat="41.4139749" lon="1.0243189"><ele>534.0</ele><time>2026-05-04T14:52:59.542Z</time></trkpt><trkpt lat="41.4138907" lon="1.0244845"><ele>534.3333333333334</ele><time>2026-05-04T14:53:00.524Z</time></trkpt><trkpt lat="41.4138113" lon="1.0246466"><ele>534.6666666666667</ele><time>2026-05-04T14:53:01.53Z</time></trkpt><trkpt lat="41.4137192" lon="1.0248094"><ele>535.0</ele><time>2026-05-04T14:53:02.523Z</time></trkpt><trkpt lat="41.413625" lon="1.0249866"><ele>535.0</ele><time>2026-05-04T14:53:03.522Z</time></trkpt><trkpt lat="41.4135256" lon="1.0251596"><ele>535.0</ele><time>2026-05-04T14:53:04.517Z</time></trkpt><trkpt lat="41.4134267" lon="1.0253284"><ele>535.0</ele><time>2026-05-04T14:53:05.509Z</time></trkpt><trkpt lat="41.4133397" lon="1.0255034"><ele>535.0</ele><time>2026-05-04T14:53:06.516Z</time></trkpt><trkpt lat="41.413256" lon="1.0256588"><ele>535.0</ele><time>2026-05-04T14:53:07.518Z</time></trkpt><trkpt lat="41.4131684" lon="1.0258194"><ele>535.0</ele><time>2026-05-04T14:53:08.514Z</time></trkpt><trkpt lat="41.4130763" lon="1.0259789"><ele>535.0</ele><time>2026-05-04T14:53:09.52Z</time></trkpt><trkpt lat="41.4129887" lon="1.026137"><ele>531.25</ele><time>2026-05-04T14:53:10.523Z</time></trkpt><trkpt lat="41.4128946" lon="1.0262909"><ele>527.5</ele><time>2026-05-04T14:53:11.527Z</time></trkpt><trkpt lat="41.412801" lon="1.026445"><ele>523.75</ele><time>2026-05-04T14:53:12.532Z</time></trkpt><trkpt lat="41.4127067" lon="1.0266031"><ele>520.0</ele><time>2026-05-04T14:53:13.539Z</time></trkpt><trkpt lat="41.4126042" lon="1.0267454"><ele>518.25</ele><time>2026-05-04T14:53:14.537Z</time></trkpt><trkpt lat="41.4125161" lon="1.0268913"><ele>516.5</ele><time>2026-05-04T14:53:15.539Z</time></trkpt><trkpt lat="41.4124242" lon="1.0270261"><ele>514.75</ele><time>2026-05-04T14:53:16.537Z</time></trkpt><trkpt lat="41.4123262" lon="1.027173"><ele>513.0</ele><time>2026-05-04T14:53:17.538Z</time></trkpt><trkpt lat="41.412221" lon="1.0273124"><ele>512.0</ele><time>2026-05-04T14:53:18.538Z</time></trkpt><trkpt lat="41.4121228" lon="1.0274406"><ele>511.0</ele><time>2026-05-04T14:53:19.535Z</time></trkpt><trkpt lat="41.4120239" lon="1.0275719"><ele>510.0</ele><time>2026-05-04T14:53:20.536Z</time></trkpt><trkpt lat="41.4119262" lon="1.0276995"><ele>509.0</ele><time>2026-05-04T14:53:21.54Z</time></trkpt><trkpt lat="41.4118257" lon="1.027835"><ele>509.0</ele><time>2026-05-04T14:53:22.533Z</time></trkpt><trkpt lat="41.4117223" lon="1.0279767"><ele>509.0</ele><time>2026-05-04T14:53:23.534Z</time></trkpt><trkpt lat="41.4116138" lon="1.0281247"><ele>509.0</ele><time>2026-05-04T14:53:24.53Z</time></trkpt><trkpt lat="41.4115114" lon="1.0282641"><ele>509.0</ele><time>2026-05-04T14:53:25.539Z</time></trkpt><trkpt lat="41.4114147" lon="1.028413"><ele>509.0</ele><time>2026-05-04T14:53:26.528Z</time></trkpt><trkpt lat="41.411328" lon="1.0285678"><ele>509.0</ele><time>2026-05-04T14:53:27.53Z</time></trkpt><trkpt lat="41.4112393" lon="1.0287218"><ele>509.0</ele><time>2026-05-04T14:53:28.53Z</time></trkpt><trkpt lat="41.411156" lon="1.028882"><ele>509.0</ele><time>2026-05-04T14:53:29.529Z</time></trkpt><trkpt lat="41.4110741" lon="1.0290426"><ele>509.0</ele><time>2026-05-04T14:53:30.543Z</time></trkpt><trkpt lat="41.410996" lon="1.0292122"><ele>509.0</ele><time>2026-05-04T14:53:31.532Z</time></trkpt><trkpt lat="41.4109217" lon="1.0293796"><ele>509.0</ele><time>2026-05-04T14:53:32.532Z</time></trkpt><trkpt lat="41.4108403" lon="1.0295596"><ele>509.0</ele><time>2026-05-04T14:53:33.531Z</time></trkpt><trkpt lat="41.4107626" lon="1.0297204"><ele>509.0</ele><time>2026-05-04T14:53:34.536Z</time></trkpt><trkpt lat="41.4106759" lon="1.029883"><ele>509.0</ele><time>2026-05-04T14:53:35.533Z</time></trkpt><trkpt lat="41.4105884" lon="1.0300464"><ele>509.0</ele><time>2026-05-04T14:53:36.536Z</time></trkpt><trkpt lat="41.4105091" lon="1.0302018"><ele>508.75</ele><time>2026-05-04T14:53:37.533Z</time></trkpt><trkpt lat="41.4104277" lon="1.030368"><ele>508.5</ele><time>2026-05-04T14:53:38.529Z</time></trkpt><trkpt lat="41.4103516" lon="1.0305259"><ele>508.25</ele><time>2026-05-04T14:53:39.52Z</time></trkpt><trkpt lat="41.4102836" lon="1.0306758"><ele>508.0</ele><time>2026-05-04T14:53:40.518Z</time></trkpt><trkpt lat="41.4102122" lon="1.0308261"><ele>507.25</ele><time>2026-05-04T14:53:41.521Z</time></trkpt><trkpt lat="41.4101291" lon="1.0309702"><ele>506.5</ele><time>2026-05-04T14:53:42.514Z</time></trkpt><trkpt lat="41.4100331" lon="1.0311462"><ele>505.75</ele><time>2026-05-04T14:53:43.513Z</time></trkpt><trkpt lat="41.4099507" lon="1.0312987"><ele>505.0</ele><time>2026-05-04T14:53:44.519Z</time></trkpt><trkpt lat="41.4098666" lon="1.0314294"><ele>505.0</ele><time>2026-05-04T14:53:45.529Z</time></trkpt><trkpt lat="41.4097901" lon="1.0315667"><ele>505.0</ele><time>2026-05-04T14:53:46.533Z</time></trkpt><trkpt lat="41.4097186" lon="1.0316931"><ele>505.0</ele><time>2026-05-04T14:53:47.534Z</time></trkpt><trkpt lat="41.409636" lon="1.0318295"><ele>505.0</ele><time>2026-05-04T14:53:48.537Z</time></trkpt><trkpt lat="41.4095465" lon="1.0319574"><ele>504.5</ele><time>2026-05-04T14:53:49.538Z</time></trkpt><trkpt lat="41.4094601" lon="1.0320814"><ele>504.0</ele><time>2026-05-04T14:53:50.536Z</time></trkpt><trkpt lat="41.4093766" lon="1.0322149"><ele>503.5</ele><time>2026-05-04T14:53:51.531Z</time></trkpt><trkpt lat="41.4092929" lon="1.0323472"><ele>503.0</ele><time>2026-05-04T14:53:52.535Z</time></trkpt><trkpt lat="41.4092017" lon="1.0324842"><ele>503.0</ele><time>2026-05-04T14:53:53.535Z</time></trkpt><trkpt lat="41.409103" lon="1.0326127"><ele>503.0</ele><time>2026-05-04T14:53:54.532Z</time></trkpt><trkpt lat="41.409009" lon="1.0327468"><ele>503.0</ele><time>2026-05-04T14:53:55.539Z</time></trkpt><trkpt lat="41.4089306" lon="1.0328912"><ele>503.0</ele><time>2026-05-04T14:53:56.527Z</time></trkpt><trkpt lat="41.4088404" lon="1.0330337"><ele>502.75</ele><time>2026-05-04T14:53:57.528Z</time></trkpt><trkpt lat="41.4087472" lon="1.033178"><ele>502.5</ele><time>2026-05-04T14:53:58.517Z</time></trkpt><trkpt lat="41.408654" lon="1.0333231"><ele>502.25</ele><time>2026-05-04T14:53:59.516Z</time></trkpt><trkpt lat="41.408564" lon="1.0334586"><ele>502.0</ele><time>2026-05-04T14:54:00.496Z</time></trkpt><trkpt lat="41.4084644" lon="1.0335597"><ele>502.0</ele><time>2026-05-04T14:54:01.519Z</time></trkpt><trkpt lat="41.4083651" lon="1.0337156"><ele>502.0</ele><time>2026-05-04T14:54:02.517Z</time></trkpt><trkpt lat="41.4082857" lon="1.0338542"><ele>502.0</ele><time>2026-05-04T14:54:03.523Z</time></trkpt><trkpt lat="41.4082197" lon="1.0339863"><ele>502.0</ele><time>2026-05-04T14:54:04.535Z</time></trkpt><trkpt lat="41.4081475" lon="1.0341436"><ele>502.25</ele><time>2026-05-04T14:54:05.528Z</time></trkpt><trkpt lat="41.4080727" lon="1.0342922"><ele>502.5</ele><time>2026-05-04T14:54:06.534Z</time></trkpt><trkpt lat="41.407991" lon="1.0344354"><ele>502.75</ele><time>2026-05-04T14:54:07.532Z</time></trkpt><trkpt lat="41.4079211" lon="1.0345737"><ele>503.0</ele><time>2026-05-04T14:54:08.536Z</time></trkpt><trkpt lat="41.4078516" lon="1.0347082"><ele>502.25</ele><time>2026-05-04T14:54:09.531Z</time></trkpt><trkpt lat="41.4077754" lon="1.0348492"><ele>501.5</ele><time>2026-05-04T14:54:10.537Z</time></trkpt><trkpt lat="41.4077071" lon="1.0349896"><ele>500.75</ele><time>2026-05-04T14:54:11.537Z</time></trkpt><trkpt lat="41.4076376" lon="1.0351355"><ele>500.0</ele><time>2026-05-04T14:54:12.537Z</time></trkpt><trkpt lat="41.4075715" lon="1.0352738"><ele>500.0</ele><time>2026-05-04T14:54:13.537Z</time></trkpt><trkpt lat="41.4075057" lon="1.0354218"><ele>500.0</ele><time>2026-05-04T14:54:14.533Z</time></trkpt><trkpt lat="41.4074387" lon="1.0355752"><ele>500.0</ele><time>2026-05-04T14:54:15.537Z</time></trkpt><trkpt lat="41.4073739" lon="1.0357273"><ele>500.0</ele><time>2026-05-04T14:54:16.536Z</time></trkpt><trkpt lat="41.4073049" lon="1.0358828"><ele>500.0</ele><time>2026-05-04T14:54:17.541Z</time></trkpt><trkpt lat="41.4072468" lon="1.0360338"><ele>500.0</ele><time>2026-05-04T14:54:18.535Z</time></trkpt><trkpt lat="41.4071884" lon="1.0361872"><ele>500.0</ele><time>2026-05-04T14:54:19.537Z</time></trkpt><trkpt lat="41.4071288" lon="1.036342"><ele>500.0</ele><time>2026-05-04T14:54:20.534Z</time></trkpt><trkpt lat="41.4070708" lon="1.0364973"><ele>499.25</ele><time>2026-05-04T14:54:21.54Z</time></trkpt><trkpt lat="41.4070087" lon="1.0366553"><ele>498.5</ele><time>2026-05-04T14:54:22.53Z</time></trkpt><trkpt lat="41.406944" lon="1.0368113"><ele>497.75</ele><time>2026-05-04T14:54:23.538Z</time></trkpt><trkpt lat="41.4068815" lon="1.036971"><ele>497.0</ele><time>2026-05-04T14:54:24.541Z</time></trkpt><trkpt lat="41.4068213" lon="1.0371317"><ele>497.0</ele><time>2026-05-04T14:54:25.535Z</time></trkpt><trkpt lat="41.4067631" lon="1.0372879"><ele>497.0</ele><time>2026-05-04T14:54:26.542Z</time></trkpt><trkpt lat="41.4067092" lon="1.0374401"><ele>497.0</ele><time>2026-05-04T14:54:27.537Z</time></trkpt><trkpt lat="41.4066496" lon="1.0375889"><ele>497.0</ele><time>2026-05-04T14:54:28.532Z</time></trkpt><trkpt lat="41.4065913" lon="1.0377413"><ele>498.5</ele><time>2026-05-04T14:54:29.532Z</time></trkpt><trkpt lat="41.4065364" lon="1.037888"><ele>500.0</ele><time>2026-05-04T14:54:30.536Z</time></trkpt><trkpt lat="41.4064854" lon="1.0380381"><ele>501.5</ele><time>2026-05-04T14:54:31.535Z</time></trkpt><trkpt lat="41.4064309" lon="1.0381857"><ele>503.0</ele><time>2026-05-04T14:54:32.548Z</time></trkpt><trkpt lat="41.4063742" lon="1.0383324"><ele>499.75</ele><time>2026-05-04T14:54:33.533Z</time></trkpt><trkpt lat="41.4063141" lon="1.038485"><ele>496.5</ele><time>2026-05-04T14:54:34.534Z</time></trkpt><trkpt lat="41.4062552" lon="1.0386361"><ele>493.25</ele><time>2026-05-04T14:54:35.537Z</time></trkpt><trkpt lat="41.4061922" lon="1.038795"><ele>490.0</ele><time>2026-05-04T14:54:36.538Z</time></trkpt><trkpt lat="41.406132" lon="1.0389488"><ele>490.0</ele><time>2026-05-04T14:54:37.536Z</time></trkpt><trkpt lat="41.4060747" lon="1.0391061"><ele>490.0</ele><time>2026-05-04T14:54:38.539Z</time></trkpt><trkpt lat="41.4060159" lon="1.0392657"><ele>490.0</ele><time>2026-05-04T14:54:39.537Z</time></trkpt><trkpt lat="41.4059557" lon="1.0394242"><ele>490.0</ele><time>2026-05-04T14:54:40.537Z</time></trkpt><trkpt lat="41.4058943" lon="1.0395856"><ele>490.0</ele><time>2026-05-04T14:54:41.536Z</time></trkpt><trkpt lat="41.4058285" lon="1.0397575"><ele>490.0</ele><time>2026-05-04T14:54:42.541Z</time></trkpt><trkpt lat="41.4057711" lon="1.0399124"><ele>490.0</ele><time>2026-05-04T14:54:43.539Z</time></trkpt><trkpt lat="41.4057225" lon="1.0400776"><ele>490.0</ele><time>2026-05-04T14:54:44.538Z</time></trkpt><trkpt lat="41.4056678" lon="1.0402307"><ele>489.75</ele><time>2026-05-04T14:54:45.538Z</time></trkpt><trkpt lat="41.40561" lon="1.040392"><ele>489.5</ele><time>2026-05-04T14:54:46.532Z</time></trkpt><trkpt lat="41.4055458" lon="1.0405552"><ele>489.25</ele><time>2026-05-04T14:54:47.538Z</time></trkpt><trkpt lat="41.4054812" lon="1.0407216"><ele>489.0</ele><time>2026-05-04T14:54:48.537Z</time></trkpt><trkpt lat="41.4054292" lon="1.0408802"><ele>489.0</ele><time>2026-05-04T14:54:49.536Z</time></trkpt><trkpt lat="41.4053681" lon="1.041023"><ele>489.0</ele><time>2026-05-04T14:54:50.534Z</time></trkpt><trkpt lat="41.4053061" lon="1.0411825"><ele>489.0</ele><time>2026-05-04T14:54:51.541Z</time></trkpt><trkpt lat="41.4052382" lon="1.041331"><ele>489.0</ele><time>2026-05-04T14:54:52.537Z</time></trkpt><trkpt lat="41.4051679" lon="1.0414942"><ele>489.75</ele><time>2026-05-04T14:54:53.541Z</time></trkpt><trkpt lat="41.4050997" lon="1.0416457"><ele>490.5</ele><time>2026-05-04T14:54:54.539Z</time></trkpt><trkpt lat="41.4050314" lon="1.0417948"><ele>491.25</ele><time>2026-05-04T14:54:55.545Z</time></trkpt><trkpt lat="41.404963" lon="1.0419414"><ele>492.0</ele><time>2026-05-04T14:54:56.536Z</time></trkpt><trkpt lat="41.4048915" lon="1.0420848"><ele>492.0</ele><time>2026-05-04T14:54:57.542Z</time></trkpt><trkpt lat="41.4048131" lon="1.0422202"><ele>492.0</ele><time>2026-05-04T14:54:58.543Z</time></trkpt><trkpt lat="41.4047368" lon="1.0423593"><ele>492.0</ele><time>2026-05-04T14:54:59.541Z</time></trkpt><trkpt lat="41.4046579" lon="1.0424931"><ele>492.0</ele><time>2026-05-04T14:55:00.54Z</time></trkpt><trkpt lat="41.4045696" lon="1.042629"><ele>493.25</ele><time>2026-05-04T14:55:01.534Z</time></trkpt><trkpt lat="41.4044821" lon="1.042762"><ele>494.5</ele><time>2026-05-04T14:55:02.533Z</time></trkpt><trkpt lat="41.4043935" lon="1.0428965"><ele>495.75</ele><time>2026-05-04T14:55:03.562Z</time></trkpt><trkpt lat="41.4043119" lon="1.0430279"><ele>497.0</ele><time>2026-05-04T14:55:04.527Z</time></trkpt><trkpt lat="41.4042302" lon="1.0431538"><ele>497.0</ele><time>2026-05-04T14:55:05.534Z</time></trkpt><trkpt lat="41.4041517" lon="1.0432821"><ele>497.0</ele><time>2026-05-04T14:55:06.531Z</time></trkpt><trkpt lat="41.4040751" lon="1.0434072"><ele>497.0</ele><time>2026-05-04T14:55:07.529Z</time></trkpt><trkpt lat="41.4040079" lon="1.0435238"><ele>497.0</ele><time>2026-05-04T14:55:08.527Z</time></trkpt><trkpt lat="41.4039499" lon="1.0436413"><ele>497.6</ele><time>2026-05-04T14:55:09.528Z</time></trkpt><trkpt lat="41.4038996" lon="1.0437519"><ele>498.20000000000005</ele><time>2026-05-04T14:55:10.53Z</time></trkpt><trkpt lat="41.403855" lon="1.0438562"><ele>498.8</ele><time>2026-05-04T14:55:11.527Z</time></trkpt><trkpt lat="41.4038156" lon="1.0439613"><ele>499.4</ele><time>2026-05-04T14:55:12.52Z</time></trkpt><trkpt lat="41.4037829" lon="1.0440701"><ele>500.0</ele><time>2026-05-04T14:55:13.523Z</time></trkpt><trkpt lat="41.4037502" lon="1.0441798"><ele>500.0</ele><time>2026-05-04T14:55:14.524Z</time></trkpt><trkpt lat="41.4037218" lon="1.0442953"><ele>500.0</ele><time>2026-05-04T14:55:15.521Z</time></trkpt><trkpt lat="41.4036935" lon="1.0444133"><ele>500.0</ele><time>2026-05-04T14:55:16.526Z</time></trkpt><trkpt lat="41.403668" lon="1.0445392"><ele>500.0</ele><time>2026-05-04T14:55:17.525Z</time></trkpt><trkpt lat="41.4036401" lon="1.0446667"><ele>500.0</ele><time>2026-05-04T14:55:18.526Z</time></trkpt><trkpt lat="41.4036199" lon="1.0448051"><ele>500.0</ele><time>2026-05-04T14:55:19.532Z</time></trkpt><trkpt lat="41.4036043" lon="1.0449539"><ele>500.0</ele><time>2026-05-04T14:55:20.534Z</time></trkpt><trkpt lat="41.4035917" lon="1.0451049"><ele>500.0</ele><time>2026-05-04T14:55:21.536Z</time></trkpt><trkpt lat="41.4035792" lon="1.0452638"><ele>500.0</ele><time>2026-05-04T14:55:22.525Z</time></trkpt><trkpt lat="41.4035652" lon="1.0454284"><ele>499.75</ele><time>2026-05-04T14:55:23.529Z</time></trkpt><trkpt lat="41.4035563" lon="1.0455994"><ele>499.5</ele><time>2026-05-04T14:55:24.528Z</time></trkpt><trkpt lat="41.4035514" lon="1.0457821"><ele>499.25</ele><time>2026-05-04T14:55:25.532Z</time></trkpt><trkpt lat="41.4035459" lon="1.0459732"><ele>499.0</ele><time>2026-05-04T14:55:26.523Z</time></trkpt><trkpt lat="41.403542" lon="1.0461638"><ele>499.0</ele><time>2026-05-04T14:55:27.522Z</time></trkpt><trkpt lat="41.4035381" lon="1.0463607"><ele>499.0</ele><time>2026-05-04T14:55:28.523Z</time></trkpt><trkpt lat="41.4035274" lon="1.0465504"><ele>499.0</ele><time>2026-05-04T14:55:29.523Z</time></trkpt><trkpt lat="41.4035217" lon="1.0467466"><ele>499.0</ele><time>2026-05-04T14:55:30.525Z</time></trkpt><trkpt lat="41.4035133" lon="1.046935"><ele>498.75</ele><time>2026-05-04T14:55:31.521Z</time></trkpt><trkpt lat="41.403518" lon="1.0471242"><ele>498.5</ele><time>2026-05-04T14:55:32.523Z</time></trkpt><trkpt lat="41.4035065" lon="1.0473044"><ele>498.25</ele><time>2026-05-04T14:55:33.535Z</time></trkpt><trkpt lat="41.4035023" lon="1.0474824"><ele>498.0</ele><time>2026-05-04T14:55:34.523Z</time></trkpt><trkpt lat="41.4034997" lon="1.04767"><ele>497.75</ele><time>2026-05-04T14:55:35.523Z</time></trkpt><trkpt lat="41.4034898" lon="1.0478492"><ele>497.5</ele><time>2026-05-04T14:55:36.527Z</time></trkpt><trkpt lat="41.4034814" lon="1.0480338"><ele>497.25</ele><time>2026-05-04T14:55:37.532Z</time></trkpt><trkpt lat="41.4034787" lon="1.0482198"><ele>497.0</ele><time>2026-05-04T14:55:38.529Z</time></trkpt><trkpt lat="41.4034751" lon="1.0484109"><ele>496.5</ele><time>2026-05-04T14:55:39.529Z</time></trkpt><trkpt lat="41.4034675" lon="1.048606"><ele>496.0</ele><time>2026-05-04T14:55:40.527Z</time></trkpt><trkpt lat="41.4034601" lon="1.0488023"><ele>495.5</ele><time>2026-05-04T14:55:41.531Z</time></trkpt><trkpt lat="41.4034533" lon="1.0489965"><ele>495.0</ele><time>2026-05-04T14:55:42.529Z</time></trkpt><trkpt lat="41.403444" lon="1.0491839"><ele>494.75</ele><time>2026-05-04T14:55:43.529Z</time></trkpt><trkpt lat="41.4034388" lon="1.0493729"><ele>494.5</ele><time>2026-05-04T14:55:44.528Z</time></trkpt><trkpt lat="41.4034277" lon="1.049573"><ele>494.25</ele><time>2026-05-04T14:55:45.527Z</time></trkpt><trkpt lat="41.4034075" lon="1.0497524"><ele>494.0</ele><time>2026-05-04T14:55:46.528Z</time></trkpt><trkpt lat="41.4033884" lon="1.0499328"><ele>493.75</ele><time>2026-05-04T14:55:47.535Z</time></trkpt><trkpt lat="41.4033572" lon="1.0501279"><ele>493.5</ele><time>2026-05-04T14:55:48.535Z</time></trkpt><trkpt lat="41.4033308" lon="1.0503126"><ele>493.25</ele><time>2026-05-04T14:55:49.534Z</time></trkpt><trkpt lat="41.4033031" lon="1.0505076"><ele>493.0</ele><time>2026-05-04T14:55:50.533Z</time></trkpt><trkpt lat="41.4032762" lon="1.0507036"><ele>492.25</ele><time>2026-05-04T14:55:51.542Z</time></trkpt><trkpt lat="41.4032464" lon="1.0508935"><ele>491.5</ele><time>2026-05-04T14:55:52.54Z</time></trkpt><trkpt lat="41.4032215" lon="1.0510854"><ele>490.75</ele><time>2026-05-04T14:55:53.547Z</time></trkpt><trkpt lat="41.403197" lon="1.0512854"><ele>490.0</ele><time>2026-05-04T14:55:54.542Z</time></trkpt><trkpt lat="41.4031678" lon="1.0514872"><ele>489.33333333333337</ele><time>2026-05-04T14:55:55.548Z</time></trkpt><trkpt lat="41.4031345" lon="1.0516851"><ele>488.66666666666663</ele><time>2026-05-04T14:55:56.543Z</time></trkpt><trkpt lat="41.4031016" lon="1.0518867"><ele>488.0</ele><time>2026-05-04T14:55:57.547Z</time></trkpt><trkpt lat="41.4030707" lon="1.0520856"><ele>488.0</ele><time>2026-05-04T14:55:58.552Z</time></trkpt><trkpt lat="41.4030557" lon="1.0522954"><ele>488.0</ele><time>2026-05-04T14:55:59.537Z</time></trkpt><trkpt lat="41.4030371" lon="1.0524974"><ele>488.0</ele><time>2026-05-04T14:56:00.55Z</time></trkpt><trkpt lat="41.4030083" lon="1.0526944"><ele>486.75</ele><time>2026-05-04T14:56:01.542Z</time></trkpt><trkpt lat="41.4029776" lon="1.0528963"><ele>485.5</ele><time>2026-05-04T14:56:02.542Z</time></trkpt><trkpt lat="41.4029491" lon="1.0530877"><ele>484.25</ele><time>2026-05-04T14:56:03.539Z</time></trkpt><trkpt lat="41.4029298" lon="1.053284"><ele>483.0</ele><time>2026-05-04T14:56:04.555Z</time></trkpt><trkpt lat="41.4029048" lon="1.0534692"><ele>482.75</ele><time>2026-05-04T14:56:05.539Z</time></trkpt><trkpt lat="41.4028794" lon="1.0536601"><ele>482.5</ele><time>2026-05-04T14:56:06.54Z</time></trkpt><trkpt lat="41.4028567" lon="1.0538477"><ele>482.25</ele><time>2026-05-04T14:56:07.54Z</time></trkpt><trkpt lat="41.402833" lon="1.0540269"><ele>482.0</ele><time>2026-05-04T14:56:08.539Z</time></trkpt><trkpt lat="41.4028042" lon="1.0542063"><ele>483.25</ele><time>2026-05-04T14:56:09.537Z</time></trkpt><trkpt lat="41.4027787" lon="1.0543862"><ele>484.5</ele><time>2026-05-04T14:56:10.539Z</time></trkpt><trkpt lat="41.4027545" lon="1.0545667"><ele>485.75</ele><time>2026-05-04T14:56:11.537Z</time></trkpt><trkpt lat="41.4027277" lon="1.0547414"><ele>487.0</ele><time>2026-05-04T14:56:12.541Z</time></trkpt><trkpt lat="41.4027023" lon="1.0549194"><ele>487.5</ele><time>2026-05-04T14:56:13.545Z</time></trkpt><trkpt lat="41.4026807" lon="1.0550925"><ele>488.0</ele><time>2026-05-04T14:56:14.543Z</time></trkpt><trkpt lat="41.4026656" lon="1.05527"><ele>488.5</ele><time>2026-05-04T14:56:15.544Z</time></trkpt><trkpt lat="41.4026434" lon="1.0554506"><ele>489.0</ele><time>2026-05-04T14:56:16.54Z</time></trkpt><trkpt lat="41.402626" lon="1.0556275"><ele>488.5</ele><time>2026-05-04T14:56:17.541Z</time></trkpt><trkpt lat="41.4026108" lon="1.0558146"><ele>488.0</ele><time>2026-05-04T14:56:18.542Z</time></trkpt><trkpt lat="41.402611" lon="1.0560025"><ele>487.5</ele><time>2026-05-04T14:56:19.544Z</time></trkpt><trkpt lat="41.4026179" lon="1.0561888"><ele>487.0</ele><time>2026-05-04T14:56:20.539Z</time></trkpt><trkpt lat="41.4026335" lon="1.0563828"><ele>487.0</ele><time>2026-05-04T14:56:21.544Z</time></trkpt><trkpt lat="41.4026442" lon="1.0565672"><ele>487.0</ele><time>2026-05-04T14:56:22.538Z</time></trkpt><trkpt lat="41.4026565" lon="1.0567661"><ele>487.0</ele><time>2026-05-04T14:56:23.544Z</time></trkpt><trkpt lat="41.4026623" lon="1.0569482"><ele>487.0</ele><time>2026-05-04T14:56:24.54Z</time></trkpt><trkpt lat="41.4026677" lon="1.057137"><ele>485.5</ele><time>2026-05-04T14:56:25.547Z</time></trkpt><trkpt lat="41.4026778" lon="1.0573365"><ele>484.0</ele><time>2026-05-04T14:56:26.542Z</time></trkpt><trkpt lat="41.4026842" lon="1.057532"><ele>482.5</ele><time>2026-05-04T14:56:27.543Z</time></trkpt><trkpt lat="41.4026868" lon="1.0577236"><ele>481.0</ele><time>2026-05-04T14:56:28.543Z</time></trkpt><trkpt lat="41.4026907" lon="1.0579219"><ele>481.0</ele><time>2026-05-04T14:56:29.545Z</time></trkpt><trkpt lat="41.4026915" lon="1.0581199"><ele>481.0</ele><time>2026-05-04T14:56:30.547Z</time></trkpt><trkpt lat="41.4026987" lon="1.0583139"><ele>481.0</ele><time>2026-05-04T14:56:31.545Z</time></trkpt><trkpt lat="41.4026998" lon="1.0585075"><ele>481.0</ele><time>2026-05-04T14:56:32.541Z</time></trkpt><trkpt lat="41.4026973" lon="1.0586952"><ele>481.0</ele><time>2026-05-04T14:56:33.544Z</time></trkpt><trkpt lat="41.4026925" lon="1.0588937"><ele>481.0</ele><time>2026-05-04T14:56:34.543Z</time></trkpt><trkpt lat="41.4026863" lon="1.0590814"><ele>481.0</ele><time>2026-05-04T14:56:35.555Z</time></trkpt><trkpt lat="41.4026752" lon="1.0592648"><ele>481.0</ele><time>2026-05-04T14:56:36.543Z</time></trkpt><trkpt lat="41.4026607" lon="1.0594465"><ele>481.5</ele><time>2026-05-04T14:56:37.543Z</time></trkpt><trkpt lat="41.4026506" lon="1.059618"><ele>482.0</ele><time>2026-05-04T14:56:38.543Z</time></trkpt><trkpt lat="41.4026378" lon="1.0597983"><ele>482.5</ele><time>2026-05-04T14:56:39.543Z</time></trkpt><trkpt lat="41.4026297" lon="1.0599732"><ele>483.0</ele><time>2026-05-04T14:56:40.537Z</time></trkpt><trkpt lat="41.4026168" lon="1.0601512"><ele>483.75</ele><time>2026-05-04T14:56:41.542Z</time></trkpt><trkpt lat="41.4026015" lon="1.0603271"><ele>484.5</ele><time>2026-05-04T14:56:42.54Z</time></trkpt><trkpt lat="41.4025912" lon="1.0605024"><ele>485.25</ele><time>2026-05-04T14:56:43.549Z</time></trkpt><trkpt lat="41.4025866" lon="1.060677"><ele>486.0</ele><time>2026-05-04T14:56:44.542Z</time></trkpt><trkpt lat="41.4025639" lon="1.0608603"><ele>486.0</ele><time>2026-05-04T14:56:45.543Z</time></trkpt><trkpt lat="41.4025343" lon="1.0610443"><ele>486.0</ele><time>2026-05-04T14:56:46.539Z</time></trkpt><trkpt lat="41.4025049" lon="1.0612295"><ele>486.0</ele><time>2026-05-04T14:56:47.542Z</time></trkpt><trkpt lat="41.4024827" lon="1.061416"><ele>486.0</ele><time>2026-05-04T14:56:48.542Z</time></trkpt><trkpt lat="41.4024596" lon="1.0616005"><ele>486.0</ele><time>2026-05-04T14:56:49.537Z</time></trkpt><trkpt lat="41.4024395" lon="1.0617868"><ele>486.0</ele><time>2026-05-04T14:56:50.544Z</time></trkpt><trkpt lat="41.4024152" lon="1.0619732"><ele>486.0</ele><time>2026-05-04T14:56:51.54Z</time></trkpt><trkpt lat="41.4023972" lon="1.0621718"><ele>486.0</ele><time>2026-05-04T14:56:52.541Z</time></trkpt><trkpt lat="41.4023904" lon="1.0623595"><ele>486.0</ele><time>2026-05-04T14:56:53.55Z</time></trkpt><trkpt lat="41.4023766" lon="1.0625543"><ele>486.0</ele><time>2026-05-04T14:56:54.54Z</time></trkpt><trkpt lat="41.4023616" lon="1.0627499"><ele>486.0</ele><time>2026-05-04T14:56:55.547Z</time></trkpt><trkpt lat="41.4023451" lon="1.0629373"><ele>486.0</ele><time>2026-05-04T14:56:56.541Z</time></trkpt><trkpt lat="41.4023341" lon="1.0631372"><ele>485.66666666666663</ele><time>2026-05-04T14:56:57.541Z</time></trkpt><trkpt lat="41.4023211" lon="1.0633336"><ele>485.3333333333333</ele><time>2026-05-04T14:56:58.536Z</time></trkpt><trkpt lat="41.4023121" lon="1.0635323"><ele>485.0</ele><time>2026-05-04T14:56:59.543Z</time></trkpt><trkpt lat="41.4023081" lon="1.0637399"><ele>485.0</ele><time>2026-05-04T14:57:00.544Z</time></trkpt><trkpt lat="41.402302" lon="1.06394"><ele>485.0</ele><time>2026-05-04T14:57:01.552Z</time></trkpt><trkpt lat="41.4022922" lon="1.0641478"><ele>485.0</ele><time>2026-05-04T14:57:02.545Z</time></trkpt><trkpt lat="41.4022771" lon="1.064348"><ele>485.0</ele><time>2026-05-04T14:57:03.547Z</time></trkpt><trkpt lat="41.4022656" lon="1.0645638"><ele>485.0</ele><time>2026-05-04T14:57:04.54Z</time></trkpt><trkpt lat="41.4022618" lon="1.0647595"><ele>485.0</ele><time>2026-05-04T14:57:05.542Z</time></trkpt><trkpt lat="41.4022593" lon="1.0649658"><ele>484.0</ele><time>2026-05-04T14:57:06.556Z</time></trkpt><trkpt lat="41.4022676" lon="1.0651706"><ele>483.0</ele><time>2026-05-04T14:57:07.542Z</time></trkpt><trkpt lat="41.4022754" lon="1.0653801"><ele>482.0</ele><time>2026-05-04T14:57:08.545Z</time></trkpt><trkpt lat="41.4022843" lon="1.0655844"><ele>480.0</ele><time>2026-05-04T14:57:09.545Z</time></trkpt><trkpt lat="41.4023078" lon="1.0657916"><ele>478.0</ele><time>2026-05-04T14:57:10.543Z</time></trkpt><trkpt lat="41.4023256" lon="1.0659955"><ele>476.0</ele><time>2026-05-04T14:57:11.539Z</time></trkpt><trkpt lat="41.4023584" lon="1.0662009"><ele>476.0</ele><time>2026-05-04T14:57:12.539Z</time></trkpt><trkpt lat="41.4023984" lon="1.0664126"><ele>476.0</ele><time>2026-05-04T14:57:13.549Z</time></trkpt><trkpt lat="41.4024452" lon="1.0666224"><ele>476.0</ele><time>2026-05-04T14:57:14.541Z</time></trkpt><trkpt lat="41.4024841" lon="1.0668206"><ele>474.66666666666663</ele><time>2026-05-04T14:57:15.544Z</time></trkpt><trkpt lat="41.402536" lon="1.067032"><ele>473.33333333333337</ele><time>2026-05-04T14:57:16.539Z</time></trkpt><trkpt lat="41.4025842" lon="1.0672438"><ele>472.0</ele><time>2026-05-04T14:57:17.539Z</time></trkpt><trkpt lat="41.4026364" lon="1.067452"><ele>471.33333333333337</ele><time>2026-05-04T14:57:18.541Z</time></trkpt><trkpt lat="41.4026926" lon="1.0676558"><ele>470.66666666666663</ele><time>2026-05-04T14:57:19.546Z</time></trkpt><trkpt lat="41.4027584" lon="1.0678495"><ele>470.0</ele><time>2026-05-04T14:57:20.539Z</time></trkpt><trkpt lat="41.4028271" lon="1.0680375"><ele>470.0</ele><time>2026-05-04T14:57:21.54Z</time></trkpt><trkpt lat="41.4029033" lon="1.0682203"><ele>470.0</ele><time>2026-05-04T14:57:22.536Z</time></trkpt><trkpt lat="41.4029832" lon="1.0684156"><ele>470.0</ele><time>2026-05-04T14:57:23.533Z</time></trkpt><trkpt lat="41.4030629" lon="1.0686083"><ele>470.66666666666663</ele><time>2026-05-04T14:57:24.527Z</time></trkpt><trkpt lat="41.4031382" lon="1.0687915"><ele>471.33333333333337</ele><time>2026-05-04T14:57:25.53Z</time></trkpt><trkpt lat="41.4032086" lon="1.0689731"><ele>472.0</ele><time>2026-05-04T14:57:26.529Z</time></trkpt><trkpt lat="41.4032789" lon="1.0691472"><ele>469.0</ele><time>2026-05-04T14:57:27.529Z</time></trkpt><trkpt lat="41.4033489" lon="1.0693285"><ele>466.0</ele><time>2026-05-04T14:57:28.537Z</time></trkpt><trkpt lat="41.4034107" lon="1.0695173"><ele>463.0</ele><time>2026-05-04T14:57:29.535Z</time></trkpt><trkpt lat="41.403476" lon="1.0697096"><ele>463.0</ele><time>2026-05-04T14:57:30.545Z</time></trkpt><trkpt lat="41.4035397" lon="1.069899"><ele>463.0</ele><time>2026-05-04T14:57:31.542Z</time></trkpt><trkpt lat="41.403598" lon="1.0700882"><ele>463.0</ele><time>2026-05-04T14:57:32.549Z</time></trkpt><trkpt lat="41.4036587" lon="1.07028"><ele>461.0</ele><time>2026-05-04T14:57:33.544Z</time></trkpt><trkpt lat="41.403719" lon="1.0704754"><ele>459.0</ele><time>2026-05-04T14:57:34.545Z</time></trkpt><trkpt lat="41.403772" lon="1.0706661"><ele>457.0</ele><time>2026-05-04T14:57:35.543Z</time></trkpt><trkpt lat="41.403819" lon="1.0708574"><ele>453.5</ele><time>2026-05-04T14:57:36.545Z</time></trkpt><trkpt lat="41.40386" lon="1.0710509"><ele>450.0</ele><time>2026-05-04T14:57:37.563Z</time></trkpt><trkpt lat="41.4039393" lon="1.0714455"><ele>450.0</ele><time>2026-05-04T14:57:39.547Z</time></trkpt><trkpt lat="41.4039753" lon="1.0716485"><ele>450.0</ele><time>2026-05-04T14:57:40.546Z</time></trkpt><trkpt lat="41.4040012" lon="1.0718452"><ele>450.0</ele><time>2026-05-04T14:57:41.542Z</time></trkpt><trkpt lat="41.404034" lon="1.0720531"><ele>450.0</ele><time>2026-05-04T14:57:42.542Z</time></trkpt><trkpt lat="41.4040571" lon="1.0722509"><ele>450.0</ele><time>2026-05-04T14:57:43.546Z</time></trkpt><trkpt lat="41.4040704" lon="1.0724439"><ele>450.0</ele><time>2026-05-04T14:57:44.541Z</time></trkpt><trkpt lat="41.4040876" lon="1.0726454"><ele>450.0</ele><time>2026-05-04T14:57:45.539Z</time></trkpt><trkpt lat="41.4040962" lon="1.0728436"><ele>450.33333333333337</ele><time>2026-05-04T14:57:46.539Z</time></trkpt><trkpt lat="41.4041009" lon="1.0730418"><ele>450.6666666666667</ele><time>2026-05-04T14:57:47.54Z</time></trkpt><trkpt lat="41.4041072" lon="1.0732488"><ele>451.0</ele><time>2026-05-04T14:57:48.546Z</time></trkpt><trkpt lat="41.4041028" lon="1.0734483"><ele>451.25</ele><time>2026-05-04T14:57:49.542Z</time></trkpt><trkpt lat="41.4041021" lon="1.0736465"><ele>451.5</ele><time>2026-05-04T14:57:50.54Z</time></trkpt><trkpt lat="41.4040962" lon="1.0738424"><ele>451.75</ele><time>2026-05-04T14:57:51.54Z</time></trkpt><trkpt lat="41.4040827" lon="1.0740365"><ele>452.0</ele><time>2026-05-04T14:57:52.534Z</time></trkpt><trkpt lat="41.4040668" lon="1.0742399"><ele>452.25</ele><time>2026-05-04T14:57:53.541Z</time></trkpt><trkpt lat="41.4040483" lon="1.0744371"><ele>452.5</ele><time>2026-05-04T14:57:54.541Z</time></trkpt><trkpt lat="41.4040286" lon="1.0746293"><ele>452.75</ele><time>2026-05-04T14:57:55.542Z</time></trkpt><trkpt lat="41.403998" lon="1.0748229"><ele>453.0</ele><time>2026-05-04T14:57:56.541Z</time></trkpt><trkpt lat="41.4039635" lon="1.0750097"><ele>452.5</ele><time>2026-05-04T14:57:57.545Z</time></trkpt><trkpt lat="41.4039259" lon="1.0751976"><ele>452.0</ele><time>2026-05-04T14:57:58.542Z</time></trkpt><trkpt lat="41.4038818" lon="1.0753743"><ele>451.5</ele><time>2026-05-04T14:57:59.542Z</time></trkpt><trkpt lat="41.4038323" lon="1.075562"><ele>451.0</ele><time>2026-05-04T14:58:00.548Z</time></trkpt><trkpt lat="41.4037791" lon="1.0757383"><ele>450.0</ele><time>2026-05-04T14:58:01.543Z</time></trkpt><trkpt lat="41.4037328" lon="1.075915"><ele>449.0</ele><time>2026-05-04T14:58:02.545Z</time></trkpt><trkpt lat="41.403684" lon="1.0760982"><ele>448.0</ele><time>2026-05-04T14:58:03.541Z</time></trkpt><trkpt lat="41.4036394" lon="1.0762846"><ele>447.0</ele><time>2026-05-04T14:58:04.541Z</time></trkpt><trkpt lat="41.4036012" lon="1.076466"><ele>446.25</ele><time>2026-05-04T14:58:05.547Z</time></trkpt><trkpt lat="41.4035526" lon="1.076648"><ele>445.5</ele><time>2026-05-04T14:58:06.544Z</time></trkpt><trkpt lat="41.403494" lon="1.0768286"><ele>444.75</ele><time>2026-05-04T14:58:07.539Z</time></trkpt><trkpt lat="41.4034482" lon="1.0770031"><ele>444.0</ele><time>2026-05-04T14:58:08.557Z</time></trkpt><trkpt lat="41.4034107" lon="1.0771848"><ele>444.0</ele><time>2026-05-04T14:58:09.538Z</time></trkpt><trkpt lat="41.4033703" lon="1.0773637"><ele>444.0</ele><time>2026-05-04T14:58:10.543Z</time></trkpt><trkpt lat="41.4033363" lon="1.0775448"><ele>444.0</ele><time>2026-05-04T14:58:11.538Z</time></trkpt><trkpt lat="41.4033074" lon="1.0777315"><ele>444.0</ele><time>2026-05-04T14:58:12.533Z</time></trkpt><trkpt lat="41.4032788" lon="1.0779173"><ele>444.75</ele><time>2026-05-04T14:58:13.543Z</time></trkpt><trkpt lat="41.4032394" lon="1.0780961"><ele>445.5</ele><time>2026-05-04T14:58:14.543Z</time></trkpt><trkpt lat="41.4032068" lon="1.07828"><ele>446.25</ele><time>2026-05-04T14:58:15.543Z</time></trkpt><trkpt lat="41.4031796" lon="1.0784539"><ele>447.0</ele><time>2026-05-04T14:58:16.55Z</time></trkpt><trkpt lat="41.4031541" lon="1.0786267"><ele>447.75</ele><time>2026-05-04T14:58:17.537Z</time></trkpt><trkpt lat="41.4031379" lon="1.0787964"><ele>448.5</ele><time>2026-05-04T14:58:18.548Z</time></trkpt><trkpt lat="41.4031221" lon="1.078965"><ele>449.25</ele><time>2026-05-04T14:58:19.543Z</time></trkpt><trkpt lat="41.4031139" lon="1.0791325"><ele>450.0</ele><time>2026-05-04T14:58:20.54Z</time></trkpt><trkpt lat="41.4031102" lon="1.0793056"><ele>451.5</ele><time>2026-05-04T14:58:21.541Z</time></trkpt><trkpt lat="41.4031082" lon="1.0794667"><ele>453.0</ele><time>2026-05-04T14:58:22.535Z</time></trkpt><trkpt lat="41.4031065" lon="1.0796364"><ele>454.5</ele><time>2026-05-04T14:58:23.545Z</time></trkpt><trkpt lat="41.4031051" lon="1.0798062"><ele>456.0</ele><time>2026-05-04T14:58:24.536Z</time></trkpt><trkpt lat="41.4031113" lon="1.0799755"><ele>456.25</ele><time>2026-05-04T14:58:25.539Z</time></trkpt><trkpt lat="41.4031291" lon="1.0801522"><ele>456.5</ele><time>2026-05-04T14:58:26.538Z</time></trkpt><trkpt lat="41.4031486" lon="1.0803255"><ele>456.75</ele><time>2026-05-04T14:58:27.538Z</time></trkpt><trkpt lat="41.4031692" lon="1.080507"><ele>457.0</ele><time>2026-05-04T14:58:28.541Z</time></trkpt><trkpt lat="41.4031827" lon="1.0806859"><ele>455.0</ele><time>2026-05-04T14:58:29.535Z</time></trkpt><trkpt lat="41.4032058" lon="1.0808676"><ele>453.0</ele><time>2026-05-04T14:58:30.534Z</time></trkpt><trkpt lat="41.4032401" lon="1.081051"><ele>451.0</ele><time>2026-05-04T14:58:31.54Z</time></trkpt><trkpt lat="41.4032842" lon="1.081232"><ele>449.0</ele><time>2026-05-04T14:58:32.541Z</time></trkpt><trkpt lat="41.4033139" lon="1.0814126"><ele>449.0</ele><time>2026-05-04T14:58:33.543Z</time></trkpt><trkpt lat="41.4033445" lon="1.0815858"><ele>449.0</ele><time>2026-05-04T14:58:34.54Z</time></trkpt><trkpt lat="41.4033791" lon="1.0817706"><ele>449.0</ele><time>2026-05-04T14:58:35.542Z</time></trkpt><trkpt lat="41.4034001" lon="1.081942"><ele>449.0</ele><time>2026-05-04T14:58:36.544Z</time></trkpt><trkpt lat="41.4034286" lon="1.0821247"><ele>447.75</ele><time>2026-05-04T14:58:37.547Z</time></trkpt><trkpt lat="41.4034674" lon="1.0823151"><ele>446.5</ele><time>2026-05-04T14:58:38.546Z</time></trkpt><trkpt lat="41.4035096" lon="1.0824988"><ele>445.25</ele><time>2026-05-04T14:58:39.56Z</time></trkpt><trkpt lat="41.4035467" lon="1.0826791"><ele>444.0</ele><time>2026-05-04T14:58:40.541Z</time></trkpt><trkpt lat="41.403594" lon="1.0828739"><ele>443.25</ele><time>2026-05-04T14:58:41.544Z</time></trkpt><trkpt lat="41.4036242" lon="1.0830624"><ele>442.5</ele><time>2026-05-04T14:58:42.544Z</time></trkpt><trkpt lat="41.4036549" lon="1.0832495"><ele>441.75</ele><time>2026-05-04T14:58:43.549Z</time></trkpt><trkpt lat="41.4036824" lon="1.0834426"><ele>441.0</ele><time>2026-05-04T14:58:44.549Z</time></trkpt><trkpt lat="41.4037045" lon="1.0836317"><ele>440.5</ele><time>2026-05-04T14:58:45.549Z</time></trkpt><trkpt lat="41.4037303" lon="1.0838197"><ele>440.0</ele><time>2026-05-04T14:58:46.55Z</time></trkpt><trkpt lat="41.403743" lon="1.0840045"><ele>439.5</ele><time>2026-05-04T14:58:47.549Z</time></trkpt><trkpt lat="41.4037577" lon="1.0841972"><ele>439.0</ele><time>2026-05-04T14:58:48.552Z</time></trkpt><trkpt lat="41.4037735" lon="1.0843913"><ele>439.0</ele><time>2026-05-04T14:58:49.548Z</time></trkpt><trkpt lat="41.403792" lon="1.0845763"><ele>439.0</ele><time>2026-05-04T14:58:50.546Z</time></trkpt><trkpt lat="41.40381" lon="1.0847686"><ele>439.0</ele><time>2026-05-04T14:58:51.548Z</time></trkpt><trkpt lat="41.4038244" lon="1.0849569"><ele>439.0</ele><time>2026-05-04T14:58:52.543Z</time></trkpt><trkpt lat="41.4038382" lon="1.0851478"><ele>439.25</ele><time>2026-05-04T14:58:53.548Z</time></trkpt><trkpt lat="41.4038439" lon="1.0853363"><ele>439.5</ele><time>2026-05-04T14:58:54.544Z</time></trkpt><trkpt lat="41.4038518" lon="1.0855312"><ele>439.75</ele><time>2026-05-04T14:58:55.545Z</time></trkpt><trkpt lat="41.4038519" lon="1.085732"><ele>440.0</ele><time>2026-05-04T14:58:56.543Z</time></trkpt><trkpt lat="41.4038544" lon="1.0859277"><ele>440.0</ele><time>2026-05-04T14:58:57.543Z</time></trkpt><trkpt lat="41.4038537" lon="1.0861266"><ele>440.0</ele><time>2026-05-04T14:58:58.545Z</time></trkpt><trkpt lat="41.4038404" lon="1.0863166"><ele>440.0</ele><time>2026-05-04T14:58:59.544Z</time></trkpt><trkpt lat="41.4038241" lon="1.0865064"><ele>440.0</ele><time>2026-05-04T14:59:00.551Z</time></trkpt><trkpt lat="41.40381" lon="1.0866891"><ele>438.75</ele><time>2026-05-04T14:59:01.546Z</time></trkpt><trkpt lat="41.4038003" lon="1.0868803"><ele>437.5</ele><time>2026-05-04T14:59:02.544Z</time></trkpt><trkpt lat="41.4037811" lon="1.0870724"><ele>436.25</ele><time>2026-05-04T14:59:03.541Z</time></trkpt><trkpt lat="41.4037661" lon="1.0872595"><ele>435.0</ele><time>2026-05-04T14:59:04.541Z</time></trkpt><trkpt lat="41.4037497" lon="1.0874381"><ele>434.75</ele><time>2026-05-04T14:59:05.536Z</time></trkpt><trkpt lat="41.4037319" lon="1.087628"><ele>434.5</ele><time>2026-05-04T14:59:06.539Z</time></trkpt><trkpt lat="41.4036974" lon="1.0878052"><ele>434.25</ele><time>2026-05-04T14:59:07.534Z</time></trkpt><trkpt lat="41.4036712" lon="1.0879921"><ele>434.0</ele><time>2026-05-04T14:59:08.537Z</time></trkpt><trkpt lat="41.4036513" lon="1.0881813"><ele>434.25</ele><time>2026-05-04T14:59:09.53Z</time></trkpt><trkpt lat="41.4036341" lon="1.0883679"><ele>434.5</ele><time>2026-05-04T14:59:10.55Z</time></trkpt><trkpt lat="41.4036082" lon="1.088546"><ele>434.75</ele><time>2026-05-04T14:59:11.54Z</time></trkpt><trkpt lat="41.4035842" lon="1.0887368"><ele>435.0</ele><time>2026-05-04T14:59:12.539Z</time></trkpt><trkpt lat="41.4035576" lon="1.0889238"><ele>435.0</ele><time>2026-05-04T14:59:13.545Z</time></trkpt><trkpt lat="41.4035376" lon="1.0891139"><ele>435.0</ele><time>2026-05-04T14:59:14.539Z</time></trkpt><trkpt lat="41.4035177" lon="1.0893061"><ele>435.0</ele><time>2026-05-04T14:59:15.543Z</time></trkpt><trkpt lat="41.403498" lon="1.0895025"><ele>435.0</ele><time>2026-05-04T14:59:16.542Z</time></trkpt><trkpt lat="41.4034739" lon="1.0897021"><ele>435.0</ele><time>2026-05-04T14:59:17.547Z</time></trkpt><trkpt lat="41.4034514" lon="1.0898936"><ele>435.0</ele><time>2026-05-04T14:59:18.546Z</time></trkpt><trkpt lat="41.4034307" lon="1.090093"><ele>435.0</ele><time>2026-05-04T14:59:19.545Z</time></trkpt><trkpt lat="41.403409" lon="1.0902974"><ele>435.0</ele><time>2026-05-04T14:59:20.536Z</time></trkpt><trkpt lat="41.4033833" lon="1.0904874"><ele>435.0</ele><time>2026-05-04T14:59:21.544Z</time></trkpt><trkpt lat="41.4033654" lon="1.0906728"><ele>435.0</ele><time>2026-05-04T14:59:22.541Z</time></trkpt><trkpt lat="41.4033438" lon="1.0908688"><ele>435.0</ele><time>2026-05-04T14:59:23.544Z</time></trkpt><trkpt lat="41.4033076" lon="1.0910689"><ele>434.75</ele><time>2026-05-04T14:59:24.543Z</time></trkpt><trkpt lat="41.4032943" lon="1.091266"><ele>434.5</ele><time>2026-05-04T14:59:25.547Z</time></trkpt><trkpt lat="41.403279" lon="1.0914666"><ele>434.25</ele><time>2026-05-04T14:59:26.545Z</time></trkpt><trkpt lat="41.4032604" lon="1.0916607"><ele>434.0</ele><time>2026-05-04T14:59:27.542Z</time></trkpt><trkpt lat="41.4032419" lon="1.0918514"><ele>433.0</ele><time>2026-05-04T14:59:28.547Z</time></trkpt><trkpt lat="41.4032224" lon="1.0920533"><ele>432.0</ele><time>2026-05-04T14:59:29.542Z</time></trkpt><trkpt lat="41.4032052" lon="1.0922561"><ele>431.0</ele><time>2026-05-04T14:59:30.548Z</time></trkpt><trkpt lat="41.4031865" lon="1.0924546"><ele>430.3333333333333</ele><time>2026-05-04T14:59:31.543Z</time></trkpt><trkpt lat="41.4031637" lon="1.0926553"><ele>429.66666666666663</ele><time>2026-05-04T14:59:32.544Z</time></trkpt><trkpt lat="41.4031433" lon="1.0928629"><ele>429.0</ele><time>2026-05-04T14:59:33.547Z</time></trkpt><trkpt lat="41.4031166" lon="1.0930706"><ele>428.66666666666663</ele><time>2026-05-04T14:59:34.547Z</time></trkpt><trkpt lat="41.4030949" lon="1.0932786"><ele>428.3333333333333</ele><time>2026-05-04T14:59:35.543Z</time></trkpt><trkpt lat="41.4030777" lon="1.093482"><ele>428.0</ele><time>2026-05-04T14:59:36.542Z</time></trkpt><trkpt lat="41.403056" lon="1.0936756"><ele>428.0</ele><time>2026-05-04T14:59:37.536Z</time></trkpt><trkpt lat="41.4030378" lon="1.0938598"><ele>428.0</ele><time>2026-05-04T14:59:38.538Z</time></trkpt><trkpt lat="41.4030232" lon="1.0940457"><ele>428.0</ele><time>2026-05-04T14:59:39.544Z</time></trkpt><trkpt lat="41.4030107" lon="1.0942292"><ele>428.0</ele><time>2026-05-04T14:59:40.538Z</time></trkpt><trkpt lat="41.4029906" lon="1.0944181"><ele>427.75</ele><time>2026-05-04T14:59:41.557Z</time></trkpt><trkpt lat="41.4029642" lon="1.0946065"><ele>427.5</ele><time>2026-05-04T14:59:42.538Z</time></trkpt><trkpt lat="41.4029423" lon="1.0948072"><ele>427.25</ele><time>2026-05-04T14:59:43.548Z</time></trkpt><trkpt lat="41.4029242" lon="1.0950014"><ele>427.0</ele><time>2026-05-04T14:59:44.54Z</time></trkpt><trkpt lat="41.4029093" lon="1.0952013"><ele>426.5</ele><time>2026-05-04T14:59:45.546Z</time></trkpt><trkpt lat="41.4028921" lon="1.0954024"><ele>426.0</ele><time>2026-05-04T14:59:46.539Z</time></trkpt><trkpt lat="41.4028751" lon="1.0955997"><ele>425.5</ele><time>2026-05-04T14:59:47.539Z</time></trkpt><trkpt lat="41.4028497" lon="1.0957936"><ele>425.0</ele><time>2026-05-04T14:59:48.551Z</time></trkpt><trkpt lat="41.402831" lon="1.095982"><ele>425.0</ele><time>2026-05-04T14:59:49.544Z</time></trkpt><trkpt lat="41.4028209" lon="1.0961838"><ele>425.0</ele><time>2026-05-04T14:59:50.542Z</time></trkpt><trkpt lat="41.4028049" lon="1.0963774"><ele>425.0</ele><time>2026-05-04T14:59:51.541Z</time></trkpt><trkpt lat="41.4027865" lon="1.0965702"><ele>425.0</ele><time>2026-05-04T14:59:52.542Z</time></trkpt><trkpt lat="41.4027657" lon="1.0967628"><ele>424.75</ele><time>2026-05-04T14:59:53.544Z</time></trkpt><trkpt lat="41.4027428" lon="1.0969523"><ele>424.5</ele><time>2026-05-04T14:59:54.548Z</time></trkpt><trkpt lat="41.402729" lon="1.0971379"><ele>424.25</ele><time>2026-05-04T14:59:55.546Z</time></trkpt><trkpt lat="41.4027027" lon="1.0973198"><ele>424.0</ele><time>2026-05-04T14:59:56.54Z</time></trkpt><trkpt lat="41.4026831" lon="1.097501"><ele>424.0</ele><time>2026-05-04T14:59:57.539Z</time></trkpt><trkpt lat="41.402667" lon="1.0976726"><ele>424.0</ele><time>2026-05-04T14:59:58.545Z</time></trkpt><trkpt lat="41.4026529" lon="1.0978503"><ele>424.0</ele><time>2026-05-04T14:59:59.542Z</time></trkpt><trkpt lat="41.4026312" lon="1.0980221"><ele>424.0</ele><time>2026-05-04T15:00:00.543Z</time></trkpt><trkpt lat="41.4026235" lon="1.0981912"><ele>425.25</ele><time>2026-05-04T15:00:01.542Z</time></trkpt><trkpt lat="41.4026072" lon="1.0983587"><ele>426.5</ele><time>2026-05-04T15:00:02.538Z</time></trkpt><trkpt lat="41.4025911" lon="1.0985251"><ele>427.75</ele><time>2026-05-04T15:00:03.544Z</time></trkpt><trkpt lat="41.4025668" lon="1.0986788"><ele>429.0</ele><time>2026-05-04T15:00:04.532Z</time></trkpt><trkpt lat="41.402556" lon="1.0988451"><ele>429.0</ele><time>2026-05-04T15:00:05.539Z</time></trkpt><trkpt lat="41.4025418" lon="1.0990104"><ele>429.0</ele><time>2026-05-04T15:00:06.54Z</time></trkpt><trkpt lat="41.4025234" lon="1.0991675"><ele>429.0</ele><time>2026-05-04T15:00:07.542Z</time></trkpt><trkpt lat="41.4025044" lon="1.0993177"><ele>429.0</ele><time>2026-05-04T15:00:08.54Z</time></trkpt><trkpt lat="41.4024918" lon="1.0994683"><ele>429.25</ele><time>2026-05-04T15:00:09.543Z</time></trkpt><trkpt lat="41.4024759" lon="1.0996199"><ele>429.5</ele><time>2026-05-04T15:00:10.54Z</time></trkpt><trkpt lat="41.4024637" lon="1.0997722"><ele>429.75</ele><time>2026-05-04T15:00:11.541Z</time></trkpt><trkpt lat="41.402446" lon="1.0999264"><ele>430.0</ele><time>2026-05-04T15:00:12.552Z</time></trkpt><trkpt lat="41.4024309" lon="1.1000852"><ele>430.5</ele><time>2026-05-04T15:00:13.548Z</time></trkpt><trkpt lat="41.4024152" lon="1.1002396"><ele>431.0</ele><time>2026-05-04T15:00:14.541Z</time></trkpt><trkpt lat="41.4023984" lon="1.1003979"><ele>431.5</ele><time>2026-05-04T15:00:15.546Z</time></trkpt><trkpt lat="41.4023825" lon="1.1005612"><ele>432.0</ele><time>2026-05-04T15:00:16.54Z</time></trkpt><trkpt lat="41.4023661" lon="1.1007263"><ele>432.25</ele><time>2026-05-04T15:00:17.545Z</time></trkpt><trkpt lat="41.4023529" lon="1.1008906"><ele>432.5</ele><time>2026-05-04T15:00:18.55Z</time></trkpt><trkpt lat="41.4023387" lon="1.1010576"><ele>432.75</ele><time>2026-05-04T15:00:19.547Z</time></trkpt><trkpt lat="41.4023247" lon="1.1012258"><ele>433.0</ele><time>2026-05-04T15:00:20.54Z</time></trkpt><trkpt lat="41.4023075" lon="1.1013925"><ele>433.0</ele><time>2026-05-04T15:00:21.551Z</time></trkpt><trkpt lat="41.4022932" lon="1.1015614"><ele>433.0</ele><time>2026-05-04T15:00:22.541Z</time></trkpt><trkpt lat="41.4022743" lon="1.101731"><ele>433.0</ele><time>2026-05-04T15:00:23.542Z</time></trkpt><trkpt lat="41.4022569" lon="1.1019066"><ele>433.0</ele><time>2026-05-04T15:00:24.547Z</time></trkpt><trkpt lat="41.4022379" lon="1.1020809"><ele>433.0</ele><time>2026-05-04T15:00:25.548Z</time></trkpt><trkpt lat="41.4022165" lon="1.1022582"><ele>433.0</ele><time>2026-05-04T15:00:26.539Z</time></trkpt><trkpt lat="41.4021958" lon="1.1024412"><ele>433.0</ele><time>2026-05-04T15:00:27.546Z</time></trkpt><trkpt lat="41.4021747" lon="1.1026223"><ele>433.0</ele><time>2026-05-04T15:00:28.547Z</time></trkpt><trkpt lat="41.4021574" lon="1.1028093"><ele>430.75</ele><time>2026-05-04T15:00:29.535Z</time></trkpt><trkpt lat="41.4021404" lon="1.1030034"><ele>428.5</ele><time>2026-05-04T15:00:30.542Z</time></trkpt><trkpt lat="41.4021225" lon="1.1031977"><ele>426.25</ele><time>2026-05-04T15:00:31.541Z</time></trkpt><trkpt lat="41.4021061" lon="1.1033839"><ele>424.0</ele><time>2026-05-04T15:00:32.542Z</time></trkpt><trkpt lat="41.4020873" lon="1.1035678"><ele>423.5</ele><time>2026-05-04T15:00:33.545Z</time></trkpt><trkpt lat="41.4020626" lon="1.1037524"><ele>423.0</ele><time>2026-05-04T15:00:34.537Z</time></trkpt><trkpt lat="41.4020243" lon="1.1039466"><ele>422.5</ele><time>2026-05-04T15:00:35.541Z</time></trkpt><trkpt lat="41.4019951" lon="1.1041407"><ele>422.0</ele><time>2026-05-04T15:00:36.54Z</time></trkpt><trkpt lat="41.4019501" lon="1.1043315"><ele>421.5</ele><time>2026-05-04T15:00:37.543Z</time></trkpt><trkpt lat="41.4018996" lon="1.1045149"><ele>421.0</ele><time>2026-05-04T15:00:38.548Z</time></trkpt><trkpt lat="41.4018581" lon="1.1046703"><ele>420.5</ele><time>2026-05-04T15:00:39.534Z</time></trkpt><trkpt lat="41.4017961" lon="1.1047928"><ele>420.0</ele><time>2026-05-04T15:00:40.543Z</time></trkpt><trkpt lat="41.401734" lon="1.1049081"><ele>419.6666666666667</ele><time>2026-05-04T15:00:41.532Z</time></trkpt><trkpt lat="41.4016803" lon="1.1049994"><ele>419.33333333333337</ele><time>2026-05-04T15:00:42.541Z</time></trkpt><trkpt lat="41.4016234" lon="1.1050699"><ele>419.0</ele><time>2026-05-04T15:00:43.548Z</time></trkpt><trkpt lat="41.401558" lon="1.1051312"><ele>418.6666666666667</ele><time>2026-05-04T15:00:44.532Z</time></trkpt><trkpt lat="41.4014869" lon="1.1051733"><ele>418.33333333333337</ele><time>2026-05-04T15:00:45.536Z</time></trkpt><trkpt lat="41.4014026" lon="1.1051946"><ele>418.0</ele><time>2026-05-04T15:00:46.534Z</time></trkpt><trkpt lat="41.4013193" lon="1.1052005"><ele>418.00000000000006</ele><time>2026-05-04T15:00:47.545Z</time></trkpt><trkpt lat="41.4012433" lon="1.1052072"><ele>418.0</ele><time>2026-05-04T15:00:48.54Z</time></trkpt><trkpt lat="41.4011571" lon="1.1052111"><ele>418.0</ele><time>2026-05-04T15:00:49.538Z</time></trkpt><trkpt lat="41.4010795" lon="1.1052125"><ele>418.0</ele><time>2026-05-04T15:00:50.538Z</time></trkpt><trkpt lat="41.4010052" lon="1.1052159"><ele>418.00000000000006</ele><time>2026-05-04T15:00:51.537Z</time></trkpt><trkpt lat="41.4009379" lon="1.1052153"><ele>418.0</ele><time>2026-05-04T15:00:52.529Z</time></trkpt><trkpt lat="41.4008283" lon="1.1051705"><ele>418.00000000000006</ele><time>2026-05-04T15:00:54.54Z</time></trkpt><trkpt lat="41.400798" lon="1.1050969"><ele>418.0</ele><time>2026-05-04T15:00:55.539Z</time></trkpt><trkpt lat="41.4007893" lon="1.104993"><ele>418.0</ele><time>2026-05-04T15:00:56.537Z</time></trkpt><trkpt lat="41.4008097" lon="1.1048975"><ele>418.0</ele><time>2026-05-04T15:00:57.533Z</time></trkpt><trkpt lat="41.400861" lon="1.1048037"><ele>418.00000000000006</ele><time>2026-05-04T15:00:58.529Z</time></trkpt><trkpt lat="41.4009287" lon="1.1047423"><ele>418.0</ele><time>2026-05-04T15:00:59.533Z</time></trkpt><trkpt lat="41.4010016" lon="1.1046913"><ele>418.4</ele><time>2026-05-04T15:01:00.531Z</time></trkpt><trkpt lat="41.4010847" lon="1.1046343"><ele>418.79999999999995</ele><time>2026-05-04T15:01:01.527Z</time></trkpt><trkpt lat="41.4011697" lon="1.1045743"><ele>419.2</ele><time>2026-05-04T15:01:02.526Z</time></trkpt><trkpt lat="41.4012534" lon="1.104515"><ele>419.6</ele><time>2026-05-04T15:01:03.53Z</time></trkpt><trkpt lat="41.4013448" lon="1.1044559"><ele>420.0</ele><time>2026-05-04T15:01:04.531Z</time></trkpt><trkpt lat="41.4014408" lon="1.1043932"><ele>420.0</ele><time>2026-05-04T15:01:05.534Z</time></trkpt><trkpt lat="41.4015416" lon="1.1043261"><ele>420.0</ele><time>2026-05-04T15:01:06.54Z</time></trkpt><trkpt lat="41.4016575" lon="1.1042826"><ele>420.0</ele><time>2026-05-04T15:01:07.538Z</time></trkpt><trkpt lat="41.4017868" lon="1.1042494"><ele>420.0</ele><time>2026-05-04T15:01:08.538Z</time></trkpt><trkpt lat="41.4019121" lon="1.1042344"><ele>420.0</ele><time>2026-05-04T15:01:09.53Z</time></trkpt><trkpt lat="41.4020347" lon="1.1042119"><ele>420.0</ele><time>2026-05-04T15:01:10.524Z</time></trkpt><trkpt lat="41.4021598" lon="1.1041944"><ele>420.0</ele><time>2026-05-04T15:01:11.523Z</time></trkpt><trkpt lat="41.4022842" lon="1.1041728"><ele>420.0</ele><time>2026-05-04T15:01:12.528Z</time></trkpt><trkpt lat="41.4023993" lon="1.1041511"><ele>419.4</ele><time>2026-05-04T15:01:13.527Z</time></trkpt><trkpt lat="41.4024994" lon="1.1041242"><ele>418.8</ele><time>2026-05-04T15:01:14.556Z</time></trkpt><trkpt lat="41.4025962" lon="1.104113"><ele>418.20000000000005</ele><time>2026-05-04T15:01:15.533Z</time></trkpt><trkpt lat="41.402678" lon="1.1041008"><ele>417.6</ele><time>2026-05-04T15:01:16.544Z</time></trkpt><trkpt lat="41.4027425" lon="1.1040923"><ele>417.0</ele><time>2026-05-04T15:01:17.541Z</time></trkpt><trkpt lat="41.40286" lon="1.1041071"><ele>417.0</ele><time>2026-05-04T15:01:19.538Z</time></trkpt><trkpt lat="41.4029417" lon="1.104182"><ele>417.0</ele><time>2026-05-04T15:01:21.549Z</time></trkpt><trkpt lat="41.4029562" lon="1.1043285"><ele>417.0</ele><time>2026-05-04T15:01:23.54Z</time></trkpt><trkpt lat="41.4029715" lon="1.1044891"><ele>417.0</ele><time>2026-05-04T15:01:25.53Z</time></trkpt><trkpt lat="41.4030147" lon="1.1045998"><ele>417.0</ele><time>2026-05-04T15:01:27.54Z</time></trkpt><trkpt lat="41.4030673" lon="1.1047059"><ele>416.8571428571429</ele><time>2026-05-04T15:01:30.539Z</time></trkpt><trkpt lat="41.4030958" lon="1.10479"><ele>416.71428571428567</ele><time>2026-05-04T15:01:32.537Z</time></trkpt><trkpt lat="41.4031594" lon="1.104842"><ele>416.57142857142856</ele><time>2026-05-04T15:01:37.534Z</time></trkpt><trkpt lat="41.4032272" lon="1.1048374"><ele>416.42857142857144</ele><time>2026-05-04T15:12:47.54Z</time></trkpt><trkpt lat="41.4032875" lon="1.1048624"><ele>416.28571428571433</ele><time>2026-05-04T15:13:47.538Z</time></trkpt><trkpt lat="41.4032682" lon="1.1049672"><ele>416.1428571428571</ele><time>2026-05-04T15:14:35.536Z</time></trkpt><trkpt lat="41.4032237" lon="1.1050446"><ele>416.0</ele><time>2026-05-04T15:14:37.552Z</time></trkpt><trkpt lat="41.4031877" lon="1.1051346"><ele>416.0</ele><time>2026-05-04T15:14:40.539Z</time></trkpt><trkpt lat="41.4031071" lon="1.105149"><ele>416.0</ele><time>2026-05-04T15:16:48.549Z</time></trkpt><trkpt lat="41.4030261" lon="1.1050888"><ele>416.0</ele><time>2026-05-04T15:16:51.534Z</time></trkpt><trkpt lat="41.4029583" lon="1.105118"><ele>416.0</ele><time>2026-05-04T15:17:34.545Z</time></trkpt><trkpt lat="41.4029605" lon="1.1052594"><ele>416.0</ele><time>2026-05-04T15:17:36.537Z</time></trkpt><trkpt lat="41.4029676" lon="1.1054055"><ele>415.8</ele><time>2026-05-04T15:17:38.537Z</time></trkpt><trkpt lat="41.4029564" lon="1.1055481"><ele>415.6</ele><time>2026-05-04T15:17:40.535Z</time></trkpt><trkpt lat="41.402934" lon="1.1056926"><ele>415.4</ele><time>2026-05-04T15:17:42.536Z</time></trkpt><trkpt lat="41.4028863" lon="1.1058321"><ele>415.2</ele><time>2026-05-04T15:17:44.537Z</time></trkpt><trkpt lat="41.4028541" lon="1.1059116"><ele>415.0</ele><time>2026-05-04T15:17:45.537Z</time></trkpt><trkpt lat="41.4028181" lon="1.1060007"><ele>415.33333333333337</ele><time>2026-05-04T15:17:46.534Z</time></trkpt><trkpt lat="41.4027763" lon="1.1060915"><ele>415.6666666666667</ele><time>2026-05-04T15:17:47.535Z</time></trkpt><trkpt lat="41.4027299" lon="1.1061835"><ele>416.0</ele><time>2026-05-04T15:17:48.541Z</time></trkpt><trkpt lat="41.402685" lon="1.1062699"><ele>416.33333333333337</ele><time>2026-05-04T15:17:49.537Z</time></trkpt><trkpt lat="41.4026422" lon="1.1063566"><ele>416.6666666666667</ele><time>2026-05-04T15:17:50.544Z</time></trkpt><trkpt lat="41.4025956" lon="1.1064398"><ele>417.0</ele><time>2026-05-04T15:17:51.538Z</time></trkpt><trkpt lat="41.4025509" lon="1.1065257"><ele>417.3333333333333</ele><time>2026-05-04T15:17:52.535Z</time></trkpt><trkpt lat="41.4025066" lon="1.1066126"><ele>417.66666666666663</ele><time>2026-05-04T15:17:53.541Z</time></trkpt><trkpt lat="41.4024615" lon="1.1067014"><ele>418.0</ele><time>2026-05-04T15:17:54.546Z</time></trkpt><trkpt lat="41.4024161" lon="1.1067913"><ele>418.3333333333333</ele><time>2026-05-04T15:17:55.546Z</time></trkpt><trkpt lat="41.4023696" lon="1.1068797"><ele>418.66666666666663</ele><time>2026-05-04T15:17:56.548Z</time></trkpt><trkpt lat="41.4023223" lon="1.1069702"><ele>419.0</ele><time>2026-05-04T15:17:57.545Z</time></trkpt><trkpt lat="41.402274" lon="1.1070597"><ele>418.99999999999994</ele><time>2026-05-04T15:17:58.545Z</time></trkpt><trkpt lat="41.4022233" lon="1.1071479"><ele>419.0</ele><time>2026-05-04T15:17:59.546Z</time></trkpt><trkpt lat="41.4021816" lon="1.1072369"><ele>419.0</ele><time>2026-05-04T15:18:00.545Z</time></trkpt><trkpt lat="41.4021389" lon="1.1073246"><ele>419.0</ele><time>2026-05-04T15:18:01.545Z</time></trkpt><trkpt lat="41.4020942" lon="1.1074062"><ele>418.99999999999994</ele><time>2026-05-04T15:18:02.542Z</time></trkpt><trkpt lat="41.4020491" lon="1.1074853"><ele>419.0</ele><time>2026-05-04T15:18:03.544Z</time></trkpt><trkpt lat="41.4019972" lon="1.1075544"><ele>419.66666666666663</ele><time>2026-05-04T15:18:04.542Z</time></trkpt><trkpt lat="41.4019399" lon="1.1076052"><ele>420.3333333333333</ele><time>2026-05-04T15:18:05.527Z</time></trkpt><trkpt lat="41.4018771" lon="1.1076408"><ele>421.0</ele><time>2026-05-04T15:18:06.528Z</time></trkpt><trkpt lat="41.4018047" lon="1.107654"><ele>421.66666666666663</ele><time>2026-05-04T15:18:07.533Z</time></trkpt><trkpt lat="41.4017284" lon="1.1076487"><ele>422.3333333333333</ele><time>2026-05-04T15:18:08.531Z</time></trkpt><trkpt lat="41.4016473" lon="1.1076304"><ele>423.0</ele><time>2026-05-04T15:18:09.533Z</time></trkpt><trkpt lat="41.4015637" lon="1.1075997"><ele>423.0</ele><time>2026-05-04T15:18:10.531Z</time></trkpt><trkpt lat="41.4014787" lon="1.1075631"><ele>423.0</ele><time>2026-05-04T15:18:11.536Z</time></trkpt><trkpt lat="41.4013929" lon="1.1075221"><ele>423.0</ele><time>2026-05-04T15:18:12.536Z</time></trkpt><trkpt lat="41.4013056" lon="1.1074786"><ele>423.0</ele><time>2026-05-04T15:18:13.539Z</time></trkpt><trkpt lat="41.401225" lon="1.1074441"><ele>423.0</ele><time>2026-05-04T15:18:14.563Z</time></trkpt><trkpt lat="41.4011478" lon="1.1074101"><ele>423.0</ele><time>2026-05-04T15:18:15.537Z</time></trkpt><trkpt lat="41.4010779" lon="1.1073748"><ele>423.0</ele><time>2026-05-04T15:18:16.532Z</time></trkpt><trkpt lat="41.4010137" lon="1.1073415"><ele>423.0</ele><time>2026-05-04T15:18:17.534Z</time></trkpt><trkpt lat="41.4009533" lon="1.1073099"><ele>423.0</ele><time>2026-05-04T15:18:18.535Z</time></trkpt><trkpt lat="41.4008721" lon="1.1072619"><ele>423.0</ele><time>2026-05-04T15:18:20.532Z</time></trkpt><trkpt lat="41.4008067" lon="1.1072382"><ele>423.0</ele><time>2026-05-04T15:18:24.539Z</time></trkpt><trkpt lat="41.4007627" lon="1.1073113"><ele>423.0</ele><time>2026-05-04T15:18:27.533Z</time></trkpt><trkpt lat="41.4007245" lon="1.1074326"><ele>423.59999999999997</ele><time>2026-05-04T15:18:29.541Z</time></trkpt><trkpt lat="41.4007005" lon="1.1075158"><ele>424.2</ele><time>2026-05-04T15:18:30.537Z</time></trkpt><trkpt lat="41.4006372" lon="1.1076868"><ele>424.8</ele><time>2026-05-04T15:18:32.538Z</time></trkpt><trkpt lat="41.4005969" lon="1.1077844"><ele>425.4</ele><time>2026-05-04T15:18:33.536Z</time></trkpt><trkpt lat="41.4005517" lon="1.1078845"><ele>426.0</ele><time>2026-05-04T15:18:34.534Z</time></trkpt><trkpt lat="41.4005075" lon="1.107994"><ele>427.0</ele><time>2026-05-04T15:18:35.539Z</time></trkpt><trkpt lat="41.4004592" lon="1.1081138"><ele>428.0</ele><time>2026-05-04T15:18:36.539Z</time></trkpt><trkpt lat="41.4004058" lon="1.1082384"><ele>429.0</ele><time>2026-05-04T15:18:37.54Z</time></trkpt><trkpt lat="41.4003521" lon="1.1083622"><ele>430.0</ele><time>2026-05-04T15:18:38.54Z</time></trkpt><trkpt lat="41.4003029" lon="1.1084877"><ele>431.0</ele><time>2026-05-04T15:18:39.539Z</time></trkpt><trkpt lat="41.4002509" lon="1.1086127"><ele>431.20000000000005</ele><time>2026-05-04T15:18:40.539Z</time></trkpt><trkpt lat="41.4001962" lon="1.1087378"><ele>431.40000000000003</ele><time>2026-05-04T15:18:41.541Z</time></trkpt><trkpt lat="41.4001393" lon="1.1088652"><ele>431.6</ele><time>2026-05-04T15:18:42.54Z</time></trkpt><trkpt lat="41.4000898" lon="1.1089919"><ele>431.8</ele><time>2026-05-04T15:18:43.543Z</time></trkpt><trkpt lat="41.400034" lon="1.1091231"><ele>432.0</ele><time>2026-05-04T15:18:44.546Z</time></trkpt><trkpt lat="41.3999774" lon="1.1092619"><ele>432.5</ele><time>2026-05-04T15:18:45.536Z</time></trkpt><trkpt lat="41.399923" lon="1.1094105"><ele>433.0</ele><time>2026-05-04T15:18:46.538Z</time></trkpt><trkpt lat="41.39986" lon="1.1095613"><ele>433.5</ele><time>2026-05-04T15:18:47.541Z</time></trkpt><trkpt lat="41.399796" lon="1.1097137"><ele>434.0</ele><time>2026-05-04T15:18:48.541Z</time></trkpt><trkpt lat="41.399733" lon="1.1098553"><ele>434.75</ele><time>2026-05-04T15:18:49.542Z</time></trkpt><trkpt lat="41.3996748" lon="1.1099963"><ele>435.5</ele><time>2026-05-04T15:18:50.542Z</time></trkpt><trkpt lat="41.3996171" lon="1.1101333"><ele>436.25</ele><time>2026-05-04T15:18:51.543Z</time></trkpt><trkpt lat="41.3995613" lon="1.1102716"><ele>437.0</ele><time>2026-05-04T15:18:52.545Z</time></trkpt><trkpt lat="41.3995059" lon="1.1104123"><ele>437.5</ele><time>2026-05-04T15:18:53.541Z</time></trkpt><trkpt lat="41.3994516" lon="1.110547"><ele>438.0</ele><time>2026-05-04T15:18:54.537Z</time></trkpt><trkpt lat="41.3993943" lon="1.1106806"><ele>438.5</ele><time>2026-05-04T15:18:55.544Z</time></trkpt><trkpt lat="41.3993402" lon="1.1108194"><ele>439.0</ele><time>2026-05-04T15:18:56.536Z</time></trkpt><trkpt lat="41.3992873" lon="1.1109615"><ele>439.0</ele><time>2026-05-04T15:18:57.533Z</time></trkpt><trkpt lat="41.3992371" lon="1.1111033"><ele>439.0</ele><time>2026-05-04T15:18:58.541Z</time></trkpt><trkpt lat="41.3991857" lon="1.1112506"><ele>439.0</ele><time>2026-05-04T15:18:59.539Z</time></trkpt><trkpt lat="41.3991339" lon="1.1114006"><ele>439.0</ele><time>2026-05-04T15:19:00.538Z</time></trkpt><trkpt lat="41.3990816" lon="1.1115521"><ele>438.0</ele><time>2026-05-04T15:19:01.538Z</time></trkpt><trkpt lat="41.3990302" lon="1.1117091"><ele>437.0</ele><time>2026-05-04T15:19:02.539Z</time></trkpt><trkpt lat="41.3989786" lon="1.1118685"><ele>436.0</ele><time>2026-05-04T15:19:03.54Z</time></trkpt><trkpt lat="41.3989306" lon="1.1120362"><ele>435.0</ele><time>2026-05-04T15:19:04.541Z</time></trkpt><trkpt lat="41.3988821" lon="1.1122106"><ele>435.0</ele><time>2026-05-04T15:19:05.547Z</time></trkpt><trkpt lat="41.3988371" lon="1.1123956"><ele>435.0</ele><time>2026-05-04T15:19:06.532Z</time></trkpt><trkpt lat="41.3987854" lon="1.1125894"><ele>435.0</ele><time>2026-05-04T15:19:07.538Z</time></trkpt><trkpt lat="41.3987435" lon="1.1127773"><ele>435.0</ele><time>2026-05-04T15:19:08.538Z</time></trkpt><trkpt lat="41.3987013" lon="1.1129682"><ele>434.75</ele><time>2026-05-04T15:19:09.532Z</time></trkpt><trkpt lat="41.3986581" lon="1.1131557"><ele>434.5</ele><time>2026-05-04T15:19:10.538Z</time></trkpt><trkpt lat="41.3986192" lon="1.1133402"><ele>434.25</ele><time>2026-05-04T15:19:11.535Z</time></trkpt><trkpt lat="41.398584" lon="1.1135278"><ele>434.0</ele><time>2026-05-04T15:19:12.532Z</time></trkpt><trkpt lat="41.3985611" lon="1.1137128"><ele>434.0</ele><time>2026-05-04T15:19:13.533Z</time></trkpt><trkpt lat="41.3985276" lon="1.1138992"><ele>434.0</ele><time>2026-05-04T15:19:14.534Z</time></trkpt><trkpt lat="41.398508" lon="1.114084"><ele>434.0</ele><time>2026-05-04T15:19:15.547Z</time></trkpt><trkpt lat="41.3984882" lon="1.1142713"><ele>434.0</ele><time>2026-05-04T15:19:16.535Z</time></trkpt><trkpt lat="41.398465" lon="1.1144587"><ele>432.5</ele><time>2026-05-04T15:19:17.536Z</time></trkpt><trkpt lat="41.39844" lon="1.1146363"><ele>431.0</ele><time>2026-05-04T15:19:18.539Z</time></trkpt><trkpt lat="41.3984278" lon="1.1148153"><ele>429.5</ele><time>2026-05-04T15:19:19.535Z</time></trkpt><trkpt lat="41.398413" lon="1.1149955"><ele>428.0</ele><time>2026-05-04T15:19:20.537Z</time></trkpt><trkpt lat="41.3983943" lon="1.1151784"><ele>427.25</ele><time>2026-05-04T15:19:21.542Z</time></trkpt><trkpt lat="41.3983813" lon="1.1153575"><ele>426.5</ele><time>2026-05-04T15:19:22.539Z</time></trkpt><trkpt lat="41.3983732" lon="1.1155424"><ele>425.75</ele><time>2026-05-04T15:19:23.542Z</time></trkpt><trkpt lat="41.3983682" lon="1.1157236"><ele>425.0</ele><time>2026-05-04T15:19:24.541Z</time></trkpt><trkpt lat="41.3983623" lon="1.115899"><ele>424.75</ele><time>2026-05-04T15:19:25.542Z</time></trkpt><trkpt lat="41.3983597" lon="1.1160743"><ele>424.5</ele><time>2026-05-04T15:19:26.537Z</time></trkpt><trkpt lat="41.3983584" lon="1.1162474"><ele>424.25</ele><time>2026-05-04T15:19:27.538Z</time></trkpt><trkpt lat="41.3983578" lon="1.1164189"><ele>424.0</ele><time>2026-05-04T15:19:28.54Z</time></trkpt><trkpt lat="41.3983599" lon="1.1165788"><ele>423.79999999999995</ele><time>2026-05-04T15:19:29.538Z</time></trkpt><trkpt lat="41.3983631" lon="1.1167383"><ele>423.59999999999997</ele><time>2026-05-04T15:19:30.539Z</time></trkpt><trkpt lat="41.3983707" lon="1.116896"><ele>423.4</ele><time>2026-05-04T15:19:31.535Z</time></trkpt><trkpt lat="41.3983715" lon="1.117033"><ele>423.2</ele><time>2026-05-04T15:19:32.531Z</time></trkpt><trkpt lat="41.3983775" lon="1.1171633"><ele>423.0</ele><time>2026-05-04T15:19:33.527Z</time></trkpt><trkpt lat="41.398379" lon="1.1172807"><ele>423.0</ele><time>2026-05-04T15:19:34.543Z</time></trkpt><trkpt lat="41.3983809" lon="1.1173674"><ele>423.0</ele><time>2026-05-04T15:19:35.537Z</time></trkpt><trkpt lat="41.3983977" lon="1.1174694"><ele>423.0</ele><time>2026-05-04T15:19:37.531Z</time></trkpt><trkpt lat="41.398401" lon="1.1175782"><ele>423.0</ele><time>2026-05-04T15:20:11.527Z</time></trkpt><trkpt lat="41.3984229" lon="1.1177431"><ele>423.0</ele><time>2026-05-04T15:20:13.529Z</time></trkpt><trkpt lat="41.3984393" lon="1.1178516"><ele>423.0</ele><time>2026-05-04T15:20:14.524Z</time></trkpt><trkpt lat="41.3984543" lon="1.1179813"><ele>421.0</ele><time>2026-05-04T15:20:15.529Z</time></trkpt><trkpt lat="41.3984769" lon="1.118131"><ele>419.0</ele><time>2026-05-04T15:20:16.525Z</time></trkpt><trkpt lat="41.3985003" lon="1.118289"><ele>417.0</ele><time>2026-05-04T15:20:17.548Z</time></trkpt><trkpt lat="41.3985162" lon="1.1184548"><ele>415.0</ele><time>2026-05-04T15:20:18.539Z</time></trkpt><trkpt lat="41.3985394" lon="1.1186339"><ele>413.33333333333337</ele><time>2026-05-04T15:20:19.535Z</time></trkpt><trkpt lat="41.3985656" lon="1.1188282"><ele>411.66666666666663</ele><time>2026-05-04T15:20:20.533Z</time></trkpt><trkpt lat="41.3986002" lon="1.1190472"><ele>410.0</ele><time>2026-05-04T15:20:21.535Z</time></trkpt><trkpt lat="41.3986348" lon="1.1192734"><ele>408.3333333333333</ele><time>2026-05-04T15:20:22.537Z</time></trkpt><trkpt lat="41.3986686" lon="1.1195027"><ele>406.66666666666663</ele><time>2026-05-04T15:20:23.539Z</time></trkpt><trkpt lat="41.3987003" lon="1.119734"><ele>405.0</ele><time>2026-05-04T15:20:24.541Z</time></trkpt><trkpt lat="41.3987406" lon="1.1199749"><ele>405.33333333333337</ele><time>2026-05-04T15:20:25.543Z</time></trkpt><trkpt lat="41.3987741" lon="1.12021"><ele>405.6666666666667</ele><time>2026-05-04T15:20:26.53Z</time></trkpt><trkpt lat="41.398816" lon="1.1204507"><ele>406.0</ele><time>2026-05-04T15:20:27.527Z</time></trkpt><trkpt lat="41.3988549" lon="1.1206806"><ele>404.6666666666667</ele><time>2026-05-04T15:20:28.541Z</time></trkpt><trkpt lat="41.3988931" lon="1.1209137"><ele>403.33333333333337</ele><time>2026-05-04T15:20:29.534Z</time></trkpt><trkpt lat="41.3989223" lon="1.1211536"><ele>402.0</ele><time>2026-05-04T15:20:30.535Z</time></trkpt><trkpt lat="41.3989505" lon="1.121388"><ele>400.33333333333337</ele><time>2026-05-04T15:20:31.534Z</time></trkpt><trkpt lat="41.3989727" lon="1.1216098"><ele>398.6666666666667</ele><time>2026-05-04T15:20:32.53Z</time></trkpt><trkpt lat="41.3989943" lon="1.12183"><ele>397.0</ele><time>2026-05-04T15:20:33.536Z</time></trkpt><trkpt lat="41.3990112" lon="1.122051"><ele>397.0</ele><time>2026-05-04T15:20:34.528Z</time></trkpt><trkpt lat="41.3990168" lon="1.1222864"><ele>397.0</ele><time>2026-05-04T15:20:35.535Z</time></trkpt><trkpt lat="41.3990085" lon="1.1225161"><ele>397.0</ele><time>2026-05-04T15:20:36.529Z</time></trkpt><trkpt lat="41.3989803" lon="1.1227454"><ele>396.33333333333337</ele><time>2026-05-04T15:20:37.529Z</time></trkpt><trkpt lat="41.3989422" lon="1.122969"><ele>395.66666666666663</ele><time>2026-05-04T15:20:38.536Z</time></trkpt><trkpt lat="41.3988821" lon="1.1231879"><ele>395.0</ele><time>2026-05-04T15:20:39.532Z</time></trkpt><trkpt lat="41.3988172" lon="1.1234114"><ele>395.0</ele><time>2026-05-04T15:20:40.53Z</time></trkpt><trkpt lat="41.3987349" lon="1.1236197"><ele>395.0</ele><time>2026-05-04T15:20:41.531Z</time></trkpt><trkpt lat="41.3986409" lon="1.1238249"><ele>395.0</ele><time>2026-05-04T15:20:42.531Z</time></trkpt><trkpt lat="41.3985317" lon="1.1240205"><ele>395.0</ele><time>2026-05-04T15:20:43.534Z</time></trkpt><trkpt lat="41.3984095" lon="1.1241994"><ele>395.0</ele><time>2026-05-04T15:20:44.529Z</time></trkpt><trkpt lat="41.39828" lon="1.1243798"><ele>395.0</ele><time>2026-05-04T15:20:45.532Z</time></trkpt><trkpt lat="41.3981494" lon="1.1245581"><ele>395.0</ele><time>2026-05-04T15:20:46.528Z</time></trkpt><trkpt lat="41.398013" lon="1.1247231"><ele>395.0</ele><time>2026-05-04T15:20:47.537Z</time></trkpt><trkpt lat="41.397884" lon="1.1248994"><ele>395.0</ele><time>2026-05-04T15:20:48.547Z</time></trkpt><trkpt lat="41.3977565" lon="1.1250816"><ele>395.3333333333333</ele><time>2026-05-04T15:20:49.534Z</time></trkpt><trkpt lat="41.3976205" lon="1.1252543"><ele>395.66666666666663</ele><time>2026-05-04T15:20:50.532Z</time></trkpt><trkpt lat="41.3974804" lon="1.1254249"><ele>396.0</ele><time>2026-05-04T15:20:51.537Z</time></trkpt><trkpt lat="41.3973514" lon="1.1255948"><ele>395.33333333333337</ele><time>2026-05-04T15:20:52.535Z</time></trkpt><trkpt lat="41.3972159" lon="1.125772"><ele>394.6666666666667</ele><time>2026-05-04T15:20:53.531Z</time></trkpt><trkpt lat="41.397075" lon="1.1259497"><ele>394.0</ele><time>2026-05-04T15:20:54.528Z</time></trkpt><trkpt lat="41.396933" lon="1.1261279"><ele>393.6666666666667</ele><time>2026-05-04T15:20:55.537Z</time></trkpt><trkpt lat="41.3967892" lon="1.1263133"><ele>393.33333333333337</ele><time>2026-05-04T15:20:56.526Z</time></trkpt><trkpt lat="41.3966537" lon="1.1264905"><ele>393.0</ele><time>2026-05-04T15:20:57.528Z</time></trkpt><trkpt lat="41.3965161" lon="1.126666"><ele>393.0</ele><time>2026-05-04T15:20:58.534Z</time></trkpt><trkpt lat="41.3963821" lon="1.126856"><ele>393.0</ele><time>2026-05-04T15:20:59.529Z</time></trkpt><trkpt lat="41.3962434" lon="1.1270472"><ele>393.0</ele><time>2026-05-04T15:21:00.536Z</time></trkpt><trkpt lat="41.3961147" lon="1.1272366"><ele>390.66666666666663</ele><time>2026-05-04T15:21:01.533Z</time></trkpt><trkpt lat="41.3959877" lon="1.1274356"><ele>388.3333333333333</ele><time>2026-05-04T15:21:02.532Z</time></trkpt><trkpt lat="41.3958538" lon="1.1276405"><ele>386.0</ele><time>2026-05-04T15:21:03.53Z</time></trkpt><trkpt lat="41.3957293" lon="1.1278392"><ele>386.0</ele><time>2026-05-04T15:21:04.53Z</time></trkpt><trkpt lat="41.3956065" lon="1.1280503"><ele>386.0</ele><time>2026-05-04T15:21:05.534Z</time></trkpt><trkpt lat="41.3954805" lon="1.1282559"><ele>386.0</ele><time>2026-05-04T15:21:06.534Z</time></trkpt><trkpt lat="41.3953508" lon="1.1284526"><ele>384.0</ele><time>2026-05-04T15:21:07.534Z</time></trkpt><trkpt lat="41.3952271" lon="1.1286523"><ele>382.0</ele><time>2026-05-04T15:21:08.534Z</time></trkpt><trkpt lat="41.3951088" lon="1.1288551"><ele>380.0</ele><time>2026-05-04T15:21:09.535Z</time></trkpt><trkpt lat="41.3949905" lon="1.1290627"><ele>380.0</ele><time>2026-05-04T15:21:10.534Z</time></trkpt><trkpt lat="41.3948718" lon="1.1292755"><ele>380.0</ele><time>2026-05-04T15:21:11.533Z</time></trkpt><trkpt lat="41.3947481" lon="1.1294822"><ele>380.0</ele><time>2026-05-04T15:21:12.531Z</time></trkpt><trkpt lat="41.3946266" lon="1.1296908"><ele>378.6666666666667</ele><time>2026-05-04T15:21:13.536Z</time></trkpt><trkpt lat="41.3945098" lon="1.1298928"><ele>377.3333333333333</ele><time>2026-05-04T15:21:14.537Z</time></trkpt><trkpt lat="41.394383" lon="1.1301016"><ele>376.0</ele><time>2026-05-04T15:21:15.54Z</time></trkpt><trkpt lat="41.3942595" lon="1.1303085"><ele>376.0</ele><time>2026-05-04T15:21:16.534Z</time></trkpt><trkpt lat="41.3941336" lon="1.1305105"><ele>376.0</ele><time>2026-05-04T15:21:17.535Z</time></trkpt><trkpt lat="41.3940016" lon="1.1307101"><ele>376.0</ele><time>2026-05-04T15:21:18.534Z</time></trkpt><trkpt lat="41.3938721" lon="1.1309032"><ele>375.0</ele><time>2026-05-04T15:21:19.548Z</time></trkpt><trkpt lat="41.3937447" lon="1.1311011"><ele>374.0</ele><time>2026-05-04T15:21:20.536Z</time></trkpt><trkpt lat="41.393607" lon="1.1313069"><ele>373.0</ele><time>2026-05-04T15:21:21.537Z</time></trkpt><trkpt lat="41.3934775" lon="1.1314949"><ele>373.3333333333333</ele><time>2026-05-04T15:21:22.537Z</time></trkpt><trkpt lat="41.39335" lon="1.1316727"><ele>373.6666666666667</ele><time>2026-05-04T15:21:23.529Z</time></trkpt><trkpt lat="41.393233" lon="1.1318449"><ele>374.0</ele><time>2026-05-04T15:21:24.534Z</time></trkpt><trkpt lat="41.3931163" lon="1.1320031"><ele>373.0</ele><time>2026-05-04T15:21:25.535Z</time></trkpt><trkpt lat="41.3930018" lon="1.1321617"><ele>372.0</ele><time>2026-05-04T15:21:26.534Z</time></trkpt><trkpt lat="41.3928883" lon="1.1323333"><ele>371.0</ele><time>2026-05-04T15:21:27.534Z</time></trkpt><trkpt lat="41.3927795" lon="1.1325094"><ele>371.0</ele><time>2026-05-04T15:21:28.528Z</time></trkpt><trkpt lat="41.3926835" lon="1.13269"><ele>371.0</ele><time>2026-05-04T15:21:29.529Z</time></trkpt><trkpt lat="41.3925942" lon="1.132884"><ele>371.0</ele><time>2026-05-04T15:21:30.531Z</time></trkpt><trkpt lat="41.3925109" lon="1.1330879"><ele>371.33333333333337</ele><time>2026-05-04T15:21:31.529Z</time></trkpt><trkpt lat="41.3924406" lon="1.1333022"><ele>371.6666666666667</ele><time>2026-05-04T15:21:32.534Z</time></trkpt><trkpt lat="41.3923751" lon="1.1335204"><ele>372.0</ele><time>2026-05-04T15:21:33.527Z</time></trkpt><trkpt lat="41.3923248" lon="1.1337423"><ele>372.0</ele><time>2026-05-04T15:21:34.534Z</time></trkpt><trkpt lat="41.3922823" lon="1.1339704"><ele>372.0</ele><time>2026-05-04T15:21:35.535Z</time></trkpt><trkpt lat="41.392238" lon="1.1342023"><ele>372.0</ele><time>2026-05-04T15:21:36.536Z</time></trkpt><trkpt lat="41.3922025" lon="1.1344416"><ele>370.3333333333333</ele><time>2026-05-04T15:21:37.535Z</time></trkpt><trkpt lat="41.3921618" lon="1.1346809"><ele>368.66666666666663</ele><time>2026-05-04T15:21:38.539Z</time></trkpt><trkpt lat="41.3921169" lon="1.1349161"><ele>367.0</ele><time>2026-05-04T15:21:39.529Z</time></trkpt><trkpt lat="41.392066" lon="1.1351466"><ele>367.0</ele><time>2026-05-04T15:21:40.53Z</time></trkpt><trkpt lat="41.3920265" lon="1.1353721"><ele>367.0</ele><time>2026-05-04T15:21:41.531Z</time></trkpt><trkpt lat="41.3919841" lon="1.1356039"><ele>367.0</ele><time>2026-05-04T15:21:42.53Z</time></trkpt><trkpt lat="41.3919405" lon="1.1358446"><ele>367.3333333333333</ele><time>2026-05-04T15:21:43.534Z</time></trkpt><trkpt lat="41.3918993" lon="1.1360836"><ele>367.6666666666667</ele><time>2026-05-04T15:21:44.532Z</time></trkpt><trkpt lat="41.3918564" lon="1.1363196"><ele>368.0</ele><time>2026-05-04T15:21:45.532Z</time></trkpt><trkpt lat="41.3918101" lon="1.1365526"><ele>368.0</ele><time>2026-05-04T15:21:46.532Z</time></trkpt><trkpt lat="41.3917652" lon="1.1367939"><ele>368.0</ele><time>2026-05-04T15:21:47.533Z</time></trkpt><trkpt lat="41.3917231" lon="1.1370302"><ele>368.0</ele><time>2026-05-04T15:21:48.531Z</time></trkpt><trkpt lat="41.3916831" lon="1.1372636"><ele>368.0</ele><time>2026-05-04T15:21:49.532Z</time></trkpt><trkpt lat="41.3916357" lon="1.1374971"><ele>368.0</ele><time>2026-05-04T15:21:50.544Z</time></trkpt><trkpt lat="41.3915974" lon="1.1377305"><ele>368.0</ele><time>2026-05-04T15:21:51.532Z</time></trkpt><trkpt lat="41.3915573" lon="1.1379602"><ele>368.0</ele><time>2026-05-04T15:21:52.536Z</time></trkpt><trkpt lat="41.3915115" lon="1.1381855"><ele>368.0</ele><time>2026-05-04T15:21:53.537Z</time></trkpt><trkpt lat="41.3914595" lon="1.1384131"><ele>368.0</ele><time>2026-05-04T15:21:54.538Z</time></trkpt><trkpt lat="41.391416" lon="1.1386415"><ele>368.0</ele><time>2026-05-04T15:21:55.54Z</time></trkpt><trkpt lat="41.3913753" lon="1.1388787"><ele>368.0</ele><time>2026-05-04T15:21:56.538Z</time></trkpt><trkpt lat="41.3913416" lon="1.1391086"><ele>368.0</ele><time>2026-05-04T15:21:57.541Z</time></trkpt><trkpt lat="41.3913019" lon="1.1393379"><ele>366.6666666666667</ele><time>2026-05-04T15:21:58.541Z</time></trkpt><trkpt lat="41.3912583" lon="1.1395704"><ele>365.3333333333333</ele><time>2026-05-04T15:21:59.537Z</time></trkpt><trkpt lat="41.3912129" lon="1.1397955"><ele>364.0</ele><time>2026-05-04T15:22:00.537Z</time></trkpt><trkpt lat="41.3911699" lon="1.1400202"><ele>364.0</ele><time>2026-05-04T15:22:01.535Z</time></trkpt><trkpt lat="41.3911305" lon="1.1402578"><ele>364.0</ele><time>2026-05-04T15:22:02.529Z</time></trkpt><trkpt lat="41.391092" lon="1.1404907"><ele>364.0</ele><time>2026-05-04T15:22:03.531Z</time></trkpt><trkpt lat="41.391053" lon="1.1407143"><ele>363.0</ele><time>2026-05-04T15:22:04.528Z</time></trkpt><trkpt lat="41.391005" lon="1.1409315"><ele>362.0</ele><time>2026-05-04T15:22:05.534Z</time></trkpt><trkpt lat="41.3909593" lon="1.1411497"><ele>361.0</ele><time>2026-05-04T15:22:06.533Z</time></trkpt><trkpt lat="41.3909158" lon="1.1413773"><ele>360.66666666666663</ele><time>2026-05-04T15:22:07.54Z</time></trkpt><trkpt lat="41.3908673" lon="1.141604"><ele>360.3333333333333</ele><time>2026-05-04T15:22:08.531Z</time></trkpt><trkpt lat="41.3908225" lon="1.1418345"><ele>360.0</ele><time>2026-05-04T15:22:09.534Z</time></trkpt><trkpt lat="41.3907792" lon="1.1420597"><ele>360.0</ele><time>2026-05-04T15:22:10.532Z</time></trkpt><trkpt lat="41.39074" lon="1.1422849"><ele>360.0</ele><time>2026-05-04T15:22:11.537Z</time></trkpt><trkpt lat="41.3907004" lon="1.1425122"><ele>360.0</ele><time>2026-05-04T15:22:12.535Z</time></trkpt><trkpt lat="41.390665" lon="1.1427385"><ele>360.0</ele><time>2026-05-04T15:22:13.539Z</time></trkpt><trkpt lat="41.3906276" lon="1.1429583"><ele>360.0</ele><time>2026-05-04T15:22:14.529Z</time></trkpt><trkpt lat="41.3905815" lon="1.1431679"><ele>360.0</ele><time>2026-05-04T15:22:15.538Z</time></trkpt><trkpt lat="41.3905334" lon="1.1433843"><ele>359.3333333333333</ele><time>2026-05-04T15:22:16.527Z</time></trkpt><trkpt lat="41.3904925" lon="1.1435985"><ele>358.66666666666663</ele><time>2026-05-04T15:22:17.533Z</time></trkpt><trkpt lat="41.3904503" lon="1.1438169"><ele>358.0</ele><time>2026-05-04T15:22:18.533Z</time></trkpt><trkpt lat="41.3904097" lon="1.1440271"><ele>358.3333333333333</ele><time>2026-05-04T15:22:19.535Z</time></trkpt><trkpt lat="41.3903779" lon="1.1442316"><ele>358.6666666666667</ele><time>2026-05-04T15:22:20.537Z</time></trkpt><trkpt lat="41.3903466" lon="1.1444288"><ele>359.0</ele><time>2026-05-04T15:22:21.554Z</time></trkpt><trkpt lat="41.3903101" lon="1.1446147"><ele>359.0</ele><time>2026-05-04T15:22:22.537Z</time></trkpt><trkpt lat="41.390278" lon="1.1447972"><ele>359.0</ele><time>2026-05-04T15:22:23.537Z</time></trkpt><trkpt lat="41.3902443" lon="1.1449742"><ele>359.0</ele><time>2026-05-04T15:22:24.537Z</time></trkpt><trkpt lat="41.3902107" lon="1.1451508"><ele>359.0</ele><time>2026-05-04T15:22:25.539Z</time></trkpt><trkpt lat="41.3901794" lon="1.1453334"><ele>359.0</ele><time>2026-05-04T15:22:26.54Z</time></trkpt><trkpt lat="41.3901429" lon="1.1455219"><ele>359.0</ele><time>2026-05-04T15:22:27.535Z</time></trkpt><trkpt lat="41.3901026" lon="1.1457119"><ele>359.0</ele><time>2026-05-04T15:22:28.537Z</time></trkpt><trkpt lat="41.3900656" lon="1.1459108"><ele>359.0</ele><time>2026-05-04T15:22:29.533Z</time></trkpt><trkpt lat="41.3900311" lon="1.1461114"><ele>359.0</ele><time>2026-05-04T15:22:30.541Z</time></trkpt><trkpt lat="41.389997" lon="1.1463158"><ele>359.0</ele><time>2026-05-04T15:22:31.533Z</time></trkpt><trkpt lat="41.3899603" lon="1.1465172"><ele>359.0</ele><time>2026-05-04T15:22:32.529Z</time></trkpt><trkpt lat="41.3899204" lon="1.1467246"><ele>359.0</ele><time>2026-05-04T15:22:33.531Z</time></trkpt><trkpt lat="41.389881" lon="1.1469295"><ele>359.0</ele><time>2026-05-04T15:22:34.532Z</time></trkpt><trkpt lat="41.3898367" lon="1.1471346"><ele>359.0</ele><time>2026-05-04T15:22:35.532Z</time></trkpt><trkpt lat="41.389797" lon="1.147341"><ele>359.0</ele><time>2026-05-04T15:22:36.54Z</time></trkpt><trkpt lat="41.3897604" lon="1.1475362"><ele>359.0</ele><time>2026-05-04T15:22:37.532Z</time></trkpt><trkpt lat="41.3897243" lon="1.1477193"><ele>359.0</ele><time>2026-05-04T15:22:38.531Z</time></trkpt><trkpt lat="41.3896852" lon="1.1478959"><ele>359.0</ele><time>2026-05-04T15:22:39.532Z</time></trkpt><trkpt lat="41.389658" lon="1.1480618"><ele>358.5</ele><time>2026-05-04T15:22:40.534Z</time></trkpt><trkpt lat="41.3896313" lon="1.1482265"><ele>358.0</ele><time>2026-05-04T15:22:41.541Z</time></trkpt><trkpt lat="41.3896017" lon="1.1483943"><ele>357.5</ele><time>2026-05-04T15:22:42.53Z</time></trkpt><trkpt lat="41.3895748" lon="1.1485649"><ele>357.0</ele><time>2026-05-04T15:22:43.537Z</time></trkpt><trkpt lat="41.3895485" lon="1.148744"><ele>357.0</ele><time>2026-05-04T15:22:44.534Z</time></trkpt><trkpt lat="41.389512" lon="1.1489228"><ele>357.0</ele><time>2026-05-04T15:22:45.534Z</time></trkpt><trkpt lat="41.3894786" lon="1.1491025"><ele>357.0</ele><time>2026-05-04T15:22:46.536Z</time></trkpt><trkpt lat="41.3894446" lon="1.1492933"><ele>357.0</ele><time>2026-05-04T15:22:47.534Z</time></trkpt><trkpt lat="41.3894088" lon="1.1494726"><ele>356.5</ele><time>2026-05-04T15:22:48.534Z</time></trkpt><trkpt lat="41.3893751" lon="1.1496563"><ele>356.0</ele><time>2026-05-04T15:22:49.533Z</time></trkpt><trkpt lat="41.3893437" lon="1.1498322"><ele>355.5</ele><time>2026-05-04T15:22:50.533Z</time></trkpt><trkpt lat="41.3893099" lon="1.1500194"><ele>355.0</ele><time>2026-05-04T15:22:51.536Z</time></trkpt><trkpt lat="41.3892752" lon="1.150202"><ele>354.75</ele><time>2026-05-04T15:22:52.545Z</time></trkpt><trkpt lat="41.3892373" lon="1.1503896"><ele>354.5</ele><time>2026-05-04T15:22:53.532Z</time></trkpt><trkpt lat="41.3892035" lon="1.1505842"><ele>354.25</ele><time>2026-05-04T15:22:54.537Z</time></trkpt><trkpt lat="41.3891687" lon="1.1507771"><ele>354.0</ele><time>2026-05-04T15:22:55.537Z</time></trkpt><trkpt lat="41.3891309" lon="1.15098"><ele>354.0</ele><time>2026-05-04T15:22:56.534Z</time></trkpt><trkpt lat="41.389088" lon="1.1511787"><ele>354.0</ele><time>2026-05-04T15:22:57.532Z</time></trkpt><trkpt lat="41.389053" lon="1.1513765"><ele>354.0</ele><time>2026-05-04T15:22:58.534Z</time></trkpt><trkpt lat="41.3890142" lon="1.1515765"><ele>353.3333333333333</ele><time>2026-05-04T15:22:59.537Z</time></trkpt><trkpt lat="41.3889733" lon="1.1517769"><ele>352.66666666666663</ele><time>2026-05-04T15:23:00.544Z</time></trkpt><trkpt lat="41.388933" lon="1.1519813"><ele>352.0</ele><time>2026-05-04T15:23:01.536Z</time></trkpt><trkpt lat="41.3888974" lon="1.152176"><ele>352.0</ele><time>2026-05-04T15:23:02.532Z</time></trkpt><trkpt lat="41.3888578" lon="1.1523798"><ele>352.0</ele><time>2026-05-04T15:23:03.534Z</time></trkpt><trkpt lat="41.38882" lon="1.152581"><ele>352.0</ele><time>2026-05-04T15:23:04.532Z</time></trkpt><trkpt lat="41.3887821" lon="1.1527736"><ele>350.66666666666663</ele><time>2026-05-04T15:23:05.537Z</time></trkpt><trkpt lat="41.3887507" lon="1.1529746"><ele>349.3333333333333</ele><time>2026-05-04T15:23:06.537Z</time></trkpt><trkpt lat="41.3887115" lon="1.1531626"><ele>348.0</ele><time>2026-05-04T15:23:07.535Z</time></trkpt><trkpt lat="41.3886823" lon="1.1533596"><ele>347.75</ele><time>2026-05-04T15:23:08.537Z</time></trkpt><trkpt lat="41.3886417" lon="1.1535402"><ele>347.5</ele><time>2026-05-04T15:23:09.536Z</time></trkpt><trkpt lat="41.3886093" lon="1.1537242"><ele>347.25</ele><time>2026-05-04T15:23:10.536Z</time></trkpt><trkpt lat="41.3885775" lon="1.1539111"><ele>347.0</ele><time>2026-05-04T15:23:11.538Z</time></trkpt><trkpt lat="41.3885465" lon="1.1540922"><ele>347.5</ele><time>2026-05-04T15:23:12.538Z</time></trkpt><trkpt lat="41.3885106" lon="1.1542752"><ele>348.0</ele><time>2026-05-04T15:23:13.54Z</time></trkpt><trkpt lat="41.388476" lon="1.1544486"><ele>348.5</ele><time>2026-05-04T15:23:14.53Z</time></trkpt><trkpt lat="41.3884401" lon="1.1546244"><ele>349.0</ele><time>2026-05-04T15:23:15.533Z</time></trkpt><trkpt lat="41.3884075" lon="1.1548037"><ele>349.0</ele><time>2026-05-04T15:23:16.532Z</time></trkpt><trkpt lat="41.3883769" lon="1.1549834"><ele>349.0</ele><time>2026-05-04T15:23:17.536Z</time></trkpt><trkpt lat="41.3883468" lon="1.1551626"><ele>349.0</ele><time>2026-05-04T15:23:18.533Z</time></trkpt><trkpt lat="41.388318" lon="1.1553344"><ele>349.0</ele><time>2026-05-04T15:23:19.534Z</time></trkpt><trkpt lat="41.3882887" lon="1.1555005"><ele>349.0</ele><time>2026-05-04T15:23:20.534Z</time></trkpt><trkpt lat="41.3882626" lon="1.1556677"><ele>349.0</ele><time>2026-05-04T15:23:21.537Z</time></trkpt><trkpt lat="41.3882259" lon="1.1558277"><ele>349.0</ele><time>2026-05-04T15:23:22.533Z</time></trkpt><trkpt lat="41.3881988" lon="1.1559931"><ele>349.0</ele><time>2026-05-04T15:23:23.549Z</time></trkpt><trkpt lat="41.3881642" lon="1.1561548"><ele>349.0</ele><time>2026-05-04T15:23:24.535Z</time></trkpt><trkpt lat="41.388128" lon="1.156308"><ele>349.0</ele><time>2026-05-04T15:23:25.54Z</time></trkpt><trkpt lat="41.3880962" lon="1.1564681"><ele>349.0</ele><time>2026-05-04T15:23:26.538Z</time></trkpt><trkpt lat="41.3880679" lon="1.1566168"><ele>349.0</ele><time>2026-05-04T15:23:27.534Z</time></trkpt><trkpt lat="41.3880387" lon="1.1567673"><ele>348.6</ele><time>2026-05-04T15:23:28.536Z</time></trkpt><trkpt lat="41.3880149" lon="1.1569085"><ele>348.2</ele><time>2026-05-04T15:23:29.537Z</time></trkpt><trkpt lat="41.3879891" lon="1.1570463"><ele>347.8</ele><time>2026-05-04T15:23:30.533Z</time></trkpt><trkpt lat="41.3879645" lon="1.1571868"><ele>347.40000000000003</ele><time>2026-05-04T15:23:31.535Z</time></trkpt><trkpt lat="41.3879395" lon="1.157326"><ele>347.0</ele><time>2026-05-04T15:23:32.534Z</time></trkpt><trkpt lat="41.3879124" lon="1.1574717"><ele>346.25</ele><time>2026-05-04T15:23:33.533Z</time></trkpt><trkpt lat="41.3878859" lon="1.1576191"><ele>345.5</ele><time>2026-05-04T15:23:34.531Z</time></trkpt><trkpt lat="41.3878583" lon="1.1577773"><ele>344.75</ele><time>2026-05-04T15:23:35.531Z</time></trkpt><trkpt lat="41.3878305" lon="1.1579369"><ele>344.0</ele><time>2026-05-04T15:23:36.536Z</time></trkpt><trkpt lat="41.3878013" lon="1.1581018"><ele>344.25</ele><time>2026-05-04T15:23:37.534Z</time></trkpt><trkpt lat="41.3877687" lon="1.1582725"><ele>344.5</ele><time>2026-05-04T15:23:38.532Z</time></trkpt><trkpt lat="41.3877329" lon="1.1584477"><ele>344.75</ele><time>2026-05-04T15:23:39.532Z</time></trkpt><trkpt lat="41.3876956" lon="1.1586238"><ele>345.0</ele><time>2026-05-04T15:23:40.532Z</time></trkpt><trkpt lat="41.3876643" lon="1.1588031"><ele>345.0</ele><time>2026-05-04T15:23:41.533Z</time></trkpt><trkpt lat="41.3876305" lon="1.1589837"><ele>345.0</ele><time>2026-05-04T15:23:42.536Z</time></trkpt><trkpt lat="41.3875933" lon="1.1591646"><ele>345.0</ele><time>2026-05-04T15:23:43.547Z</time></trkpt><trkpt lat="41.3875574" lon="1.159346"><ele>345.0</ele><time>2026-05-04T15:23:44.534Z</time></trkpt><trkpt lat="41.3875165" lon="1.1595311"><ele>344.0</ele><time>2026-05-04T15:23:45.534Z</time></trkpt><trkpt lat="41.3874765" lon="1.1597184"><ele>343.0</ele><time>2026-05-04T15:23:46.539Z</time></trkpt><trkpt lat="41.3874306" lon="1.159909"><ele>342.0</ele><time>2026-05-04T15:23:47.532Z</time></trkpt><trkpt lat="41.3873831" lon="1.1600944"><ele>341.0</ele><time>2026-05-04T15:23:48.536Z</time></trkpt><trkpt lat="41.3873364" lon="1.1602917"><ele>341.0</ele><time>2026-05-04T15:23:49.532Z</time></trkpt><trkpt lat="41.3872914" lon="1.1604918"><ele>341.0</ele><time>2026-05-04T15:23:50.535Z</time></trkpt><trkpt lat="41.3872398" lon="1.1606865"><ele>341.0</ele><time>2026-05-04T15:23:51.535Z</time></trkpt><trkpt lat="41.387184" lon="1.160884"><ele>340.6666666666667</ele><time>2026-05-04T15:23:52.534Z</time></trkpt><trkpt lat="41.387126" lon="1.1610864"><ele>340.3333333333333</ele><time>2026-05-04T15:23:53.532Z</time></trkpt><trkpt lat="41.3870673" lon="1.1612863"><ele>340.0</ele><time>2026-05-04T15:23:54.549Z</time></trkpt><trkpt lat="41.3870082" lon="1.1614828"><ele>339.0</ele><time>2026-05-04T15:23:55.536Z</time></trkpt><trkpt lat="41.3869456" lon="1.161677"><ele>338.0</ele><time>2026-05-04T15:23:56.535Z</time></trkpt><trkpt lat="41.3868815" lon="1.1618775"><ele>337.0</ele><time>2026-05-04T15:23:57.535Z</time></trkpt><trkpt lat="41.3868184" lon="1.1620808"><ele>337.0</ele><time>2026-05-04T15:23:58.546Z</time></trkpt><trkpt lat="41.3867509" lon="1.1622841"><ele>337.0</ele><time>2026-05-04T15:23:59.537Z</time></trkpt><trkpt lat="41.3866855" lon="1.1624871"><ele>337.0</ele><time>2026-05-04T15:24:00.54Z</time></trkpt><trkpt lat="41.3866128" lon="1.1626957"><ele>337.0</ele><time>2026-05-04T15:24:01.542Z</time></trkpt><trkpt lat="41.386533" lon="1.1628909"><ele>337.0</ele><time>2026-05-04T15:24:02.54Z</time></trkpt><trkpt lat="41.3864575" lon="1.1630937"><ele>337.0</ele><time>2026-05-04T15:24:03.539Z</time></trkpt><trkpt lat="41.3863848" lon="1.1632916"><ele>336.66666666666663</ele><time>2026-05-04T15:24:04.544Z</time></trkpt><trkpt lat="41.386308" lon="1.1634886"><ele>336.3333333333333</ele><time>2026-05-04T15:24:05.541Z</time></trkpt><trkpt lat="41.3862287" lon="1.1636867"><ele>336.0</ele><time>2026-05-04T15:24:06.537Z</time></trkpt><trkpt lat="41.3861425" lon="1.1638772"><ele>336.0</ele><time>2026-05-04T15:24:07.535Z</time></trkpt><trkpt lat="41.3860525" lon="1.1640778"><ele>336.0</ele><time>2026-05-04T15:24:08.529Z</time></trkpt><trkpt lat="41.3859645" lon="1.1642677"><ele>336.0</ele><time>2026-05-04T15:24:09.53Z</time></trkpt><trkpt lat="41.3858816" lon="1.1644533"><ele>336.0</ele><time>2026-05-04T15:24:10.524Z</time></trkpt><trkpt lat="41.3857997" lon="1.1646278"><ele>336.0</ele><time>2026-05-04T15:24:11.523Z</time></trkpt><trkpt lat="41.3857106" lon="1.1648167"><ele>336.0</ele><time>2026-05-04T15:24:12.52Z</time></trkpt><trkpt lat="41.3856163" lon="1.1649924"><ele>336.0</ele><time>2026-05-04T15:24:13.527Z</time></trkpt><trkpt lat="41.3855254" lon="1.1651715"><ele>336.0</ele><time>2026-05-04T15:24:14.517Z</time></trkpt><trkpt lat="41.3854322" lon="1.1653558"><ele>336.0</ele><time>2026-05-04T15:24:15.526Z</time></trkpt><trkpt lat="41.3853317" lon="1.1655424"><ele>335.0</ele><time>2026-05-04T15:24:16.525Z</time></trkpt><trkpt lat="41.385225" lon="1.1657193"><ele>334.0</ele><time>2026-05-04T15:24:17.524Z</time></trkpt><trkpt lat="41.3851242" lon="1.165894"><ele>333.0</ele><time>2026-05-04T15:24:18.523Z</time></trkpt><trkpt lat="41.3850253" lon="1.1660567"><ele>333.0</ele><time>2026-05-04T15:24:19.534Z</time></trkpt><trkpt lat="41.3849301" lon="1.1662195"><ele>333.0</ele><time>2026-05-04T15:24:20.528Z</time></trkpt><trkpt lat="41.3848342" lon="1.1663836"><ele>333.0</ele><time>2026-05-04T15:24:21.539Z</time></trkpt><trkpt lat="41.384737" lon="1.1665522"><ele>332.6666666666667</ele><time>2026-05-04T15:24:22.533Z</time></trkpt><trkpt lat="41.3846345" lon="1.1667135"><ele>332.33333333333337</ele><time>2026-05-04T15:24:23.533Z</time></trkpt><trkpt lat="41.3845275" lon="1.1668652"><ele>332.0</ele><time>2026-05-04T15:24:24.531Z</time></trkpt><trkpt lat="41.3844231" lon="1.1670161"><ele>332.0</ele><time>2026-05-04T15:24:25.555Z</time></trkpt><trkpt lat="41.3843208" lon="1.1671619"><ele>332.0</ele><time>2026-05-04T15:24:26.535Z</time></trkpt><trkpt lat="41.384206" lon="1.1672987"><ele>332.0</ele><time>2026-05-04T15:24:27.537Z</time></trkpt><trkpt lat="41.3840997" lon="1.1674481"><ele>332.0</ele><time>2026-05-04T15:24:28.536Z</time></trkpt><trkpt lat="41.3839821" lon="1.1676006"><ele>332.0</ele><time>2026-05-04T15:24:29.535Z</time></trkpt><trkpt lat="41.3838734" lon="1.1677517"><ele>332.0</ele><time>2026-05-04T15:24:30.539Z</time></trkpt><trkpt lat="41.3837529" lon="1.1678968"><ele>332.0</ele><time>2026-05-04T15:24:31.537Z</time></trkpt><trkpt lat="41.3836362" lon="1.1680453"><ele>332.0</ele><time>2026-05-04T15:24:32.537Z</time></trkpt><trkpt lat="41.3835229" lon="1.1681885"><ele>332.0</ele><time>2026-05-04T15:24:33.536Z</time></trkpt><trkpt lat="41.3834019" lon="1.1683209"><ele>331.0</ele><time>2026-05-04T15:24:34.536Z</time></trkpt><trkpt lat="41.3832823" lon="1.1684658"><ele>330.0</ele><time>2026-05-04T15:24:35.534Z</time></trkpt><trkpt lat="41.3831707" lon="1.1686062"><ele>329.0</ele><time>2026-05-04T15:24:36.536Z</time></trkpt><trkpt lat="41.383047" lon="1.1687465"><ele>328.6666666666667</ele><time>2026-05-04T15:24:37.535Z</time></trkpt><trkpt lat="41.3829202" lon="1.1688779"><ele>328.3333333333333</ele><time>2026-05-04T15:24:38.535Z</time></trkpt><trkpt lat="41.3827965" lon="1.1690147"><ele>328.0</ele><time>2026-05-04T15:24:39.532Z</time></trkpt><trkpt lat="41.3826754" lon="1.1691516"><ele>327.3333333333333</ele><time>2026-05-04T15:24:40.534Z</time></trkpt><trkpt lat="41.3825506" lon="1.1692867"><ele>326.6666666666667</ele><time>2026-05-04T15:24:41.533Z</time></trkpt><trkpt lat="41.3824242" lon="1.169424"><ele>326.0</ele><time>2026-05-04T15:24:42.534Z</time></trkpt><trkpt lat="41.3822945" lon="1.1695526"><ele>326.33333333333337</ele><time>2026-05-04T15:24:43.542Z</time></trkpt><trkpt lat="41.3821665" lon="1.1696822"><ele>326.6666666666667</ele><time>2026-05-04T15:24:44.536Z</time></trkpt><trkpt lat="41.3820391" lon="1.1698089"><ele>327.0</ele><time>2026-05-04T15:24:45.541Z</time></trkpt><trkpt lat="41.3819064" lon="1.169938"><ele>326.0</ele><time>2026-05-04T15:24:46.542Z</time></trkpt><trkpt lat="41.3817732" lon="1.170051"><ele>325.0</ele><time>2026-05-04T15:24:47.532Z</time></trkpt><trkpt lat="41.3816494" lon="1.1701736"><ele>324.0</ele><time>2026-05-04T15:24:48.537Z</time></trkpt><trkpt lat="41.3815149" lon="1.1702904"><ele>324.0</ele><time>2026-05-04T15:24:49.533Z</time></trkpt><trkpt lat="41.381378" lon="1.1704019"><ele>324.0</ele><time>2026-05-04T15:24:50.537Z</time></trkpt><trkpt lat="41.3812497" lon="1.1705187"><ele>324.0</ele><time>2026-05-04T15:24:51.537Z</time></trkpt><trkpt lat="41.3811149" lon="1.1706332"><ele>323.6666666666667</ele><time>2026-05-04T15:24:52.539Z</time></trkpt><trkpt lat="41.3809804" lon="1.1707466"><ele>323.33333333333337</ele><time>2026-05-04T15:24:53.536Z</time></trkpt><trkpt lat="41.380842" lon="1.1708555"><ele>323.0</ele><time>2026-05-04T15:24:54.54Z</time></trkpt><trkpt lat="41.3807098" lon="1.1709637"><ele>323.0</ele><time>2026-05-04T15:24:55.537Z</time></trkpt><trkpt lat="41.3805764" lon="1.1710646"><ele>323.0</ele><time>2026-05-04T15:24:56.549Z</time></trkpt><trkpt lat="41.3804426" lon="1.1711706"><ele>323.0</ele><time>2026-05-04T15:24:57.534Z</time></trkpt><trkpt lat="41.3803078" lon="1.1712792"><ele>323.33333333333337</ele><time>2026-05-04T15:24:58.547Z</time></trkpt><trkpt lat="41.3801668" lon="1.1713901"><ele>323.6666666666667</ele><time>2026-05-04T15:24:59.537Z</time></trkpt><trkpt lat="41.3800286" lon="1.1715035"><ele>324.0</ele><time>2026-05-04T15:25:00.536Z</time></trkpt><trkpt lat="41.3798906" lon="1.1716103"><ele>323.6666666666667</ele><time>2026-05-04T15:25:01.532Z</time></trkpt><trkpt lat="41.3797543" lon="1.1717229"><ele>323.33333333333337</ele><time>2026-05-04T15:25:02.534Z</time></trkpt><trkpt lat="41.3796172" lon="1.1718371"><ele>323.0</ele><time>2026-05-04T15:25:03.531Z</time></trkpt><trkpt lat="41.3794807" lon="1.1719459"><ele>323.0</ele><time>2026-05-04T15:25:04.531Z</time></trkpt><trkpt lat="41.3793406" lon="1.1720555"><ele>323.0</ele><time>2026-05-04T15:25:05.532Z</time></trkpt><trkpt lat="41.3792074" lon="1.1721615"><ele>323.0</ele><time>2026-05-04T15:25:06.535Z</time></trkpt><trkpt lat="41.3790798" lon="1.1722599"><ele>322.0</ele><time>2026-05-04T15:25:07.534Z</time></trkpt><trkpt lat="41.3789454" lon="1.1723666"><ele>321.0</ele><time>2026-05-04T15:25:08.535Z</time></trkpt><trkpt lat="41.3788087" lon="1.1724839"><ele>320.0</ele><time>2026-05-04T15:25:09.533Z</time></trkpt><trkpt lat="41.3786658" lon="1.1726008"><ele>320.0</ele><time>2026-05-04T15:25:10.533Z</time></trkpt><trkpt lat="41.3785262" lon="1.1727179"><ele>320.0</ele><time>2026-05-04T15:25:11.537Z</time></trkpt><trkpt lat="41.3783888" lon="1.1728311"><ele>320.0</ele><time>2026-05-04T15:25:12.533Z</time></trkpt><trkpt lat="41.3782483" lon="1.1729413"><ele>320.0</ele><time>2026-05-04T15:25:13.534Z</time></trkpt><trkpt lat="41.3781074" lon="1.1730547"><ele>320.0</ele><time>2026-05-04T15:25:14.534Z</time></trkpt><trkpt lat="41.3779661" lon="1.1731675"><ele>320.0</ele><time>2026-05-04T15:25:15.539Z</time></trkpt><trkpt lat="41.3778241" lon="1.1732789"><ele>319.33333333333337</ele><time>2026-05-04T15:25:16.537Z</time></trkpt><trkpt lat="41.3776813" lon="1.1733959"><ele>318.6666666666667</ele><time>2026-05-04T15:25:17.547Z</time></trkpt><trkpt lat="41.3775407" lon="1.1735174"><ele>318.0</ele><time>2026-05-04T15:25:18.529Z</time></trkpt><trkpt lat="41.3774156" lon="1.1736151"><ele>318.0</ele><time>2026-05-04T15:25:19.533Z</time></trkpt><trkpt lat="41.3772922" lon="1.1737154"><ele>318.0</ele><time>2026-05-04T15:25:20.533Z</time></trkpt><trkpt lat="41.3771699" lon="1.1738183"><ele>318.0</ele><time>2026-05-04T15:25:21.539Z</time></trkpt><trkpt lat="41.3770519" lon="1.1739149"><ele>318.0</ele><time>2026-05-04T15:25:22.535Z</time></trkpt><trkpt lat="41.3769294" lon="1.1740094"><ele>318.0</ele><time>2026-05-04T15:25:23.53Z</time></trkpt><trkpt lat="41.3768021" lon="1.1741194"><ele>318.0</ele><time>2026-05-04T15:25:24.537Z</time></trkpt><trkpt lat="41.3766776" lon="1.1742352"><ele>318.0</ele><time>2026-05-04T15:25:25.537Z</time></trkpt><trkpt lat="41.3765518" lon="1.1743421"><ele>318.0</ele><time>2026-05-04T15:25:26.533Z</time></trkpt><trkpt lat="41.3764226" lon="1.174448"><ele>318.0</ele><time>2026-05-04T15:25:27.549Z</time></trkpt><trkpt lat="41.3762985" lon="1.1745513"><ele>318.0</ele><time>2026-05-04T15:25:28.539Z</time></trkpt><trkpt lat="41.3761697" lon="1.1746467"><ele>318.0</ele><time>2026-05-04T15:25:29.537Z</time></trkpt><trkpt lat="41.3760517" lon="1.1747428"><ele>318.5</ele><time>2026-05-04T15:25:30.54Z</time></trkpt><trkpt lat="41.3759303" lon="1.1748429"><ele>319.0</ele><time>2026-05-04T15:25:31.534Z</time></trkpt><trkpt lat="41.3758094" lon="1.1749471"><ele>319.5</ele><time>2026-05-04T15:25:32.534Z</time></trkpt><trkpt lat="41.3756882" lon="1.1750504"><ele>320.0</ele><time>2026-05-04T15:25:33.534Z</time></trkpt><trkpt lat="41.3755676" lon="1.1751665"><ele>319.5</ele><time>2026-05-04T15:25:34.535Z</time></trkpt><trkpt lat="41.3754473" lon="1.1752798"><ele>319.0</ele><time>2026-05-04T15:25:35.534Z</time></trkpt><trkpt lat="41.3753288" lon="1.1753939"><ele>318.5</ele><time>2026-05-04T15:25:36.531Z</time></trkpt><trkpt lat="41.3752049" lon="1.1755071"><ele>318.0</ele><time>2026-05-04T15:25:37.537Z</time></trkpt><trkpt lat="41.3750842" lon="1.1756235"><ele>317.25</ele><time>2026-05-04T15:25:38.531Z</time></trkpt><trkpt lat="41.3749729" lon="1.1757383"><ele>316.5</ele><time>2026-05-04T15:25:39.529Z</time></trkpt><trkpt lat="41.3748603" lon="1.1758555"><ele>315.75</ele><time>2026-05-04T15:25:40.534Z</time></trkpt><trkpt lat="41.3747548" lon="1.1759612"><ele>315.0</ele><time>2026-05-04T15:25:41.538Z</time></trkpt><trkpt lat="41.3746499" lon="1.176058"><ele>315.0</ele><time>2026-05-04T15:25:42.532Z</time></trkpt><trkpt lat="41.3745524" lon="1.1761655"><ele>315.0</ele><time>2026-05-04T15:25:43.533Z</time></trkpt><trkpt lat="41.3744596" lon="1.1762827"><ele>315.0</ele><time>2026-05-04T15:25:44.533Z</time></trkpt><trkpt lat="41.374365" lon="1.1763891"><ele>315.0</ele><time>2026-05-04T15:25:45.532Z</time></trkpt><trkpt lat="41.3742734" lon="1.1764925"><ele>314.75</ele><time>2026-05-04T15:25:46.531Z</time></trkpt><trkpt lat="41.3741851" lon="1.1765969"><ele>314.5</ele><time>2026-05-04T15:25:47.533Z</time></trkpt><trkpt lat="41.3740949" lon="1.1766973"><ele>314.25</ele><time>2026-05-04T15:25:48.537Z</time></trkpt><trkpt lat="41.3740049" lon="1.1768007"><ele>314.0</ele><time>2026-05-04T15:25:49.534Z</time></trkpt><trkpt lat="41.3739147" lon="1.176905"><ele>313.0</ele><time>2026-05-04T15:25:50.537Z</time></trkpt><trkpt lat="41.373827" lon="1.1770123"><ele>312.0</ele><time>2026-05-04T15:25:51.538Z</time></trkpt><trkpt lat="41.3737379" lon="1.1771224"><ele>311.0</ele><time>2026-05-04T15:25:52.537Z</time></trkpt><trkpt lat="41.3736481" lon="1.1772317"><ele>310.0</ele><time>2026-05-04T15:25:53.537Z</time></trkpt><trkpt lat="41.3735584" lon="1.1773361"><ele>309.0</ele><time>2026-05-04T15:25:54.54Z</time></trkpt><trkpt lat="41.3734718" lon="1.1774436"><ele>308.0</ele><time>2026-05-04T15:25:55.538Z</time></trkpt><trkpt lat="41.3733848" lon="1.1775559"><ele>307.0</ele><time>2026-05-04T15:25:56.534Z</time></trkpt><trkpt lat="41.3732952" lon="1.1776652"><ele>306.0</ele><time>2026-05-04T15:25:57.537Z</time></trkpt><trkpt lat="41.3732047" lon="1.1777749"><ele>306.0</ele><time>2026-05-04T15:25:58.552Z</time></trkpt><trkpt lat="41.3731129" lon="1.177889"><ele>306.0</ele><time>2026-05-04T15:25:59.533Z</time></trkpt><trkpt lat="41.3730207" lon="1.1780077"><ele>306.0</ele><time>2026-05-04T15:26:00.536Z</time></trkpt><trkpt lat="41.3729261" lon="1.1781271"><ele>306.0</ele><time>2026-05-04T15:26:01.535Z</time></trkpt><trkpt lat="41.3728262" lon="1.1782508"><ele>306.0</ele><time>2026-05-04T15:26:02.537Z</time></trkpt><trkpt lat="41.372726" lon="1.1783766"><ele>306.0</ele><time>2026-05-04T15:26:03.536Z</time></trkpt><trkpt lat="41.372627" lon="1.1785019"><ele>306.0</ele><time>2026-05-04T15:26:04.535Z</time></trkpt><trkpt lat="41.3725261" lon="1.1786299"><ele>306.0</ele><time>2026-05-04T15:26:05.539Z</time></trkpt><trkpt lat="41.3724243" lon="1.1787564"><ele>306.0</ele><time>2026-05-04T15:26:06.535Z</time></trkpt><trkpt lat="41.3723252" lon="1.1788852"><ele>306.0</ele><time>2026-05-04T15:26:07.537Z</time></trkpt><trkpt lat="41.372232" lon="1.1790051"><ele>306.0</ele><time>2026-05-04T15:26:08.538Z</time></trkpt><trkpt lat="41.3721396" lon="1.1791229"><ele>306.0</ele><time>2026-05-04T15:26:09.54Z</time></trkpt><trkpt lat="41.3720524" lon="1.1792368"><ele>305.75</ele><time>2026-05-04T15:26:10.538Z</time></trkpt><trkpt lat="41.3719622" lon="1.1793468"><ele>305.5</ele><time>2026-05-04T15:26:11.54Z</time></trkpt><trkpt lat="41.3718773" lon="1.1794591"><ele>305.25</ele><time>2026-05-04T15:26:12.535Z</time></trkpt><trkpt lat="41.3717873" lon="1.1795737"><ele>305.0</ele><time>2026-05-04T15:26:13.537Z</time></trkpt><trkpt lat="41.3716976" lon="1.1796891"><ele>305.0</ele><time>2026-05-04T15:26:14.532Z</time></trkpt><trkpt lat="41.3716006" lon="1.1798065"><ele>305.0</ele><time>2026-05-04T15:26:15.531Z</time></trkpt><trkpt lat="41.3715028" lon="1.1799282"><ele>305.0</ele><time>2026-05-04T15:26:16.531Z</time></trkpt><trkpt lat="41.3714079" lon="1.1800483"><ele>305.0</ele><time>2026-05-04T15:26:17.533Z</time></trkpt><trkpt lat="41.3713112" lon="1.1801725"><ele>304.25</ele><time>2026-05-04T15:26:18.533Z</time></trkpt><trkpt lat="41.3712149" lon="1.1803002"><ele>303.5</ele><time>2026-05-04T15:26:19.532Z</time></trkpt><trkpt lat="41.3711171" lon="1.1804275"><ele>302.75</ele><time>2026-05-04T15:26:20.536Z</time></trkpt><trkpt lat="41.3710147" lon="1.180557"><ele>302.0</ele><time>2026-05-04T15:26:21.528Z</time></trkpt><trkpt lat="41.3709134" lon="1.1806867"><ele>301.75</ele><time>2026-05-04T15:26:22.533Z</time></trkpt><trkpt lat="41.3708154" lon="1.1808118"><ele>301.5</ele><time>2026-05-04T15:26:23.533Z</time></trkpt><trkpt lat="41.3707098" lon="1.1809326"><ele>301.25</ele><time>2026-05-04T15:26:24.536Z</time></trkpt><trkpt lat="41.3706029" lon="1.1810548"><ele>301.0</ele><time>2026-05-04T15:26:25.54Z</time></trkpt><trkpt lat="41.3704977" lon="1.1811787"><ele>301.0</ele><time>2026-05-04T15:26:26.536Z</time></trkpt><trkpt lat="41.3703907" lon="1.1813019"><ele>301.0</ele><time>2026-05-04T15:26:27.542Z</time></trkpt><trkpt lat="41.3702829" lon="1.1814179"><ele>301.0</ele><time>2026-05-04T15:26:28.537Z</time></trkpt><trkpt lat="41.3701673" lon="1.181531"><ele>301.0</ele><time>2026-05-04T15:26:29.545Z</time></trkpt><trkpt lat="41.3700515" lon="1.1816352"><ele>301.0</ele><time>2026-05-04T15:26:30.54Z</time></trkpt><trkpt lat="41.369936" lon="1.1817404"><ele>301.0</ele><time>2026-05-04T15:26:31.53Z</time></trkpt><trkpt lat="41.3698153" lon="1.1818508"><ele>301.0</ele><time>2026-05-04T15:26:32.524Z</time></trkpt><trkpt lat="41.3696915" lon="1.1819435"><ele>301.0</ele><time>2026-05-04T15:26:33.535Z</time></trkpt><trkpt lat="41.3695688" lon="1.1820384"><ele>300.75</ele><time>2026-05-04T15:26:34.53Z</time></trkpt><trkpt lat="41.369434" lon="1.1821251"><ele>300.5</ele><time>2026-05-04T15:26:35.538Z</time></trkpt><trkpt lat="41.3693061" lon="1.1822062"><ele>300.25</ele><time>2026-05-04T15:26:36.533Z</time></trkpt><trkpt lat="41.3691792" lon="1.1822784"><ele>300.0</ele><time>2026-05-04T15:26:37.536Z</time></trkpt><trkpt lat="41.3690465" lon="1.1823543"><ele>300.0</ele><time>2026-05-04T15:26:38.533Z</time></trkpt><trkpt lat="41.3689139" lon="1.1824263"><ele>300.0</ele><time>2026-05-04T15:26:39.544Z</time></trkpt><trkpt lat="41.3687818" lon="1.1824927"><ele>300.0</ele><time>2026-05-04T15:26:40.535Z</time></trkpt><trkpt lat="41.3686469" lon="1.1825542"><ele>300.0</ele><time>2026-05-04T15:26:41.536Z</time></trkpt><trkpt lat="41.36851" lon="1.182608"><ele>300.0</ele><time>2026-05-04T15:26:42.533Z</time></trkpt><trkpt lat="41.3683786" lon="1.1826562"><ele>300.0</ele><time>2026-05-04T15:26:43.543Z</time></trkpt><trkpt lat="41.3682475" lon="1.1826979"><ele>300.0</ele><time>2026-05-04T15:26:44.54Z</time></trkpt><trkpt lat="41.3681057" lon="1.182743"><ele>300.0</ele><time>2026-05-04T15:26:45.541Z</time></trkpt><trkpt lat="41.3679726" lon="1.1827811"><ele>300.75</ele><time>2026-05-04T15:26:46.541Z</time></trkpt><trkpt lat="41.3678367" lon="1.1828192"><ele>301.5</ele><time>2026-05-04T15:26:47.544Z</time></trkpt><trkpt lat="41.3676998" lon="1.1828581"><ele>302.25</ele><time>2026-05-04T15:26:48.527Z</time></trkpt><trkpt lat="41.3675622" lon="1.182884"><ele>303.0</ele><time>2026-05-04T15:26:49.537Z</time></trkpt><trkpt lat="41.367431" lon="1.1829047"><ele>303.0</ele><time>2026-05-04T15:26:50.538Z</time></trkpt><trkpt lat="41.3672986" lon="1.1829265"><ele>303.0</ele><time>2026-05-04T15:26:51.533Z</time></trkpt><trkpt lat="41.3671698" lon="1.1829539"><ele>303.0</ele><time>2026-05-04T15:26:52.536Z</time></trkpt><trkpt lat="41.3670398" lon="1.182989"><ele>303.0</ele><time>2026-05-04T15:26:53.534Z</time></trkpt><trkpt lat="41.3669207" lon="1.1830258"><ele>302.25</ele><time>2026-05-04T15:26:54.539Z</time></trkpt><trkpt lat="41.3667937" lon="1.1830504"><ele>301.5</ele><time>2026-05-04T15:26:55.542Z</time></trkpt><trkpt lat="41.3666752" lon="1.1830771"><ele>300.75</ele><time>2026-05-04T15:26:56.536Z</time></trkpt><trkpt lat="41.3665564" lon="1.1831066"><ele>300.0</ele><time>2026-05-04T15:26:57.535Z</time></trkpt><trkpt lat="41.366437" lon="1.1831398"><ele>300.75</ele><time>2026-05-04T15:26:58.539Z</time></trkpt><trkpt lat="41.366319" lon="1.1831771"><ele>301.5</ele><time>2026-05-04T15:26:59.533Z</time></trkpt><trkpt lat="41.366197" lon="1.1832202"><ele>302.25</ele><time>2026-05-04T15:27:00.548Z</time></trkpt><trkpt lat="41.3660773" lon="1.1832712"><ele>303.0</ele><time>2026-05-04T15:27:01.537Z</time></trkpt><trkpt lat="41.3659587" lon="1.183326"><ele>303.75</ele><time>2026-05-04T15:27:02.533Z</time></trkpt><trkpt lat="41.3658322" lon="1.1833854"><ele>304.5</ele><time>2026-05-04T15:27:03.533Z</time></trkpt><trkpt lat="41.3657084" lon="1.1834522"><ele>305.25</ele><time>2026-05-04T15:27:04.533Z</time></trkpt><trkpt lat="41.3655827" lon="1.1835246"><ele>306.0</ele><time>2026-05-04T15:27:05.536Z</time></trkpt><trkpt lat="41.3654585" lon="1.183603"><ele>307.75</ele><time>2026-05-04T15:27:06.546Z</time></trkpt><trkpt lat="41.3653314" lon="1.183692"><ele>309.5</ele><time>2026-05-04T15:27:07.544Z</time></trkpt><trkpt lat="41.3652051" lon="1.1837851"><ele>311.25</ele><time>2026-05-04T15:27:08.541Z</time></trkpt><trkpt lat="41.3650826" lon="1.1838861"><ele>313.0</ele><time>2026-05-04T15:27:09.54Z</time></trkpt><trkpt lat="41.3649552" lon="1.1839773"><ele>313.0</ele><time>2026-05-04T15:27:10.533Z</time></trkpt><trkpt lat="41.3648291" lon="1.1840822"><ele>313.0</ele><time>2026-05-04T15:27:11.536Z</time></trkpt><trkpt lat="41.3647186" lon="1.184184"><ele>313.0</ele><time>2026-05-04T15:27:12.547Z</time></trkpt><trkpt lat="41.3646007" lon="1.1842856"><ele>313.0</ele><time>2026-05-04T15:27:13.544Z</time></trkpt><trkpt lat="41.364503" lon="1.1843893"><ele>314.0</ele><time>2026-05-04T15:27:14.541Z</time></trkpt><trkpt lat="41.3643993" lon="1.1845051"><ele>315.0</ele><time>2026-05-04T15:27:15.541Z</time></trkpt><trkpt lat="41.3642907" lon="1.1846289"><ele>316.0</ele><time>2026-05-04T15:27:16.544Z</time></trkpt><trkpt lat="41.364187" lon="1.1847489"><ele>317.0</ele><time>2026-05-04T15:27:17.532Z</time></trkpt><trkpt lat="41.3640965" lon="1.1848807"><ele>317.0</ele><time>2026-05-04T15:27:18.533Z</time></trkpt><trkpt lat="41.364" lon="1.184994"><ele>317.0</ele><time>2026-05-04T15:27:19.535Z</time></trkpt><trkpt lat="41.3639096" lon="1.1851176"><ele>317.0</ele><time>2026-05-04T15:27:20.534Z</time></trkpt><trkpt lat="41.3638191" lon="1.185242"><ele>317.0</ele><time>2026-05-04T15:27:21.534Z</time></trkpt><trkpt lat="41.3637323" lon="1.1853739"><ele>317.75</ele><time>2026-05-04T15:27:22.534Z</time></trkpt><trkpt lat="41.3636449" lon="1.185505"><ele>318.5</ele><time>2026-05-04T15:27:23.533Z</time></trkpt><trkpt lat="41.3635605" lon="1.1856422"><ele>319.25</ele><time>2026-05-04T15:27:24.544Z</time></trkpt><trkpt lat="41.3634749" lon="1.1857853"><ele>320.0</ele><time>2026-05-04T15:27:25.537Z</time></trkpt><trkpt lat="41.3633927" lon="1.1859313"><ele>320.0</ele><time>2026-05-04T15:27:26.536Z</time></trkpt><trkpt lat="41.3633128" lon="1.1860838"><ele>320.0</ele><time>2026-05-04T15:27:27.534Z</time></trkpt><trkpt lat="41.3632385" lon="1.1862441"><ele>320.0</ele><time>2026-05-04T15:27:28.538Z</time></trkpt><trkpt lat="41.3631645" lon="1.1864172"><ele>320.0</ele><time>2026-05-04T15:27:29.535Z</time></trkpt><trkpt lat="41.3630946" lon="1.1865749"><ele>320.75</ele><time>2026-05-04T15:27:30.534Z</time></trkpt><trkpt lat="41.3630153" lon="1.1867337"><ele>321.5</ele><time>2026-05-04T15:27:31.561Z</time></trkpt><trkpt lat="41.3629471" lon="1.1869007"><ele>322.25</ele><time>2026-05-04T15:27:32.533Z</time></trkpt><trkpt lat="41.362872" lon="1.1870758"><ele>323.0</ele><time>2026-05-04T15:27:33.54Z</time></trkpt><trkpt lat="41.3627977" lon="1.1872503"><ele>323.25</ele><time>2026-05-04T15:27:34.538Z</time></trkpt><trkpt lat="41.3627202" lon="1.1874014"><ele>323.5</ele><time>2026-05-04T15:27:35.54Z</time></trkpt><trkpt lat="41.3626491" lon="1.1875539"><ele>323.75</ele><time>2026-05-04T15:27:36.531Z</time></trkpt><trkpt lat="41.3625786" lon="1.1877039"><ele>324.0</ele><time>2026-05-04T15:27:37.522Z</time></trkpt><trkpt lat="41.3625159" lon="1.1878511"><ele>324.0</ele><time>2026-05-04T15:27:38.536Z</time></trkpt><trkpt lat="41.3624487" lon="1.1880061"><ele>324.0</ele><time>2026-05-04T15:27:39.535Z</time></trkpt><trkpt lat="41.3623775" lon="1.1881614"><ele>324.0</ele><time>2026-05-04T15:27:40.533Z</time></trkpt><trkpt lat="41.362312" lon="1.188311"><ele>324.0</ele><time>2026-05-04T15:27:41.538Z</time></trkpt><trkpt lat="41.3622449" lon="1.1884592"><ele>324.25</ele><time>2026-05-04T15:27:42.537Z</time></trkpt><trkpt lat="41.3621763" lon="1.1886056"><ele>324.5</ele><time>2026-05-04T15:27:43.538Z</time></trkpt><trkpt lat="41.3621089" lon="1.1887533"><ele>324.75</ele><time>2026-05-04T15:27:44.531Z</time></trkpt><trkpt lat="41.362041" lon="1.1889002"><ele>325.0</ele><time>2026-05-04T15:27:45.535Z</time></trkpt><trkpt lat="41.3619757" lon="1.1890445"><ele>325.75</ele><time>2026-05-04T15:27:46.55Z</time></trkpt><trkpt lat="41.3619098" lon="1.1891871"><ele>326.5</ele><time>2026-05-04T15:27:47.535Z</time></trkpt><trkpt lat="41.3618434" lon="1.1893315"><ele>327.25</ele><time>2026-05-04T15:27:48.534Z</time></trkpt><trkpt lat="41.3617751" lon="1.1894762"><ele>328.0</ele><time>2026-05-04T15:27:49.536Z</time></trkpt><trkpt lat="41.3617096" lon="1.189621"><ele>328.0</ele><time>2026-05-04T15:27:50.531Z</time></trkpt><trkpt lat="41.3616457" lon="1.1897737"><ele>328.0</ele><time>2026-05-04T15:27:51.54Z</time></trkpt><trkpt lat="41.3615861" lon="1.1899161"><ele>328.0</ele><time>2026-05-04T15:27:52.534Z</time></trkpt><trkpt lat="41.3615258" lon="1.1900553"><ele>328.0</ele><time>2026-05-04T15:27:53.537Z</time></trkpt><trkpt lat="41.3614648" lon="1.1901962"><ele>329.5</ele><time>2026-05-04T15:27:54.54Z</time></trkpt><trkpt lat="41.3614061" lon="1.1903386"><ele>331.0</ele><time>2026-05-04T15:27:55.536Z</time></trkpt><trkpt lat="41.3613446" lon="1.1904834"><ele>332.5</ele><time>2026-05-04T15:27:56.541Z</time></trkpt><trkpt lat="41.3612813" lon="1.1906302"><ele>334.0</ele><time>2026-05-04T15:27:57.539Z</time></trkpt><trkpt lat="41.3612248" lon="1.1907647"><ele>337.25</ele><time>2026-05-04T15:27:58.54Z</time></trkpt><trkpt lat="41.3611698" lon="1.1908959"><ele>340.5</ele><time>2026-05-04T15:27:59.534Z</time></trkpt><trkpt lat="41.3611163" lon="1.1910311"><ele>343.75</ele><time>2026-05-04T15:28:00.537Z</time></trkpt><trkpt lat="41.3610591" lon="1.1911642"><ele>347.0</ele><time>2026-05-04T15:28:01.55Z</time></trkpt><trkpt lat="41.3610034" lon="1.1912959"><ele>347.0</ele><time>2026-05-04T15:28:02.533Z</time></trkpt><trkpt lat="41.3609444" lon="1.1914287"><ele>347.0</ele><time>2026-05-04T15:28:03.531Z</time></trkpt><trkpt lat="41.3608866" lon="1.1915649"><ele>347.0</ele><time>2026-05-04T15:28:04.525Z</time></trkpt><trkpt lat="41.36083" lon="1.1916986"><ele>347.0</ele><time>2026-05-04T15:28:05.533Z</time></trkpt><trkpt lat="41.3607727" lon="1.191837"><ele>346.75</ele><time>2026-05-04T15:28:06.541Z</time></trkpt><trkpt lat="41.3607102" lon="1.1919743"><ele>346.5</ele><time>2026-05-04T15:28:07.532Z</time></trkpt><trkpt lat="41.3606486" lon="1.192109"><ele>346.25</ele><time>2026-05-04T15:28:08.537Z</time></trkpt><trkpt lat="41.360589" lon="1.1922417"><ele>346.0</ele><time>2026-05-04T15:28:09.54Z</time></trkpt><trkpt lat="41.360531" lon="1.1923757"><ele>348.8</ele><time>2026-05-04T15:28:10.532Z</time></trkpt><trkpt lat="41.3604749" lon="1.1925076"><ele>351.6</ele><time>2026-05-04T15:28:11.528Z</time></trkpt><trkpt lat="41.3604204" lon="1.1926373"><ele>354.4</ele><time>2026-05-04T15:28:12.532Z</time></trkpt><trkpt lat="41.3603642" lon="1.1927667"><ele>357.2</ele><time>2026-05-04T15:28:13.535Z</time></trkpt><trkpt lat="41.3603092" lon="1.1928927"><ele>360.0</ele><time>2026-05-04T15:28:14.53Z</time></trkpt><trkpt lat="41.3602552" lon="1.1930186"><ele>360.0</ele><time>2026-05-04T15:28:15.528Z</time></trkpt><trkpt lat="41.360199" lon="1.1931451"><ele>360.0</ele><time>2026-05-04T15:28:16.529Z</time></trkpt><trkpt lat="41.3601437" lon="1.1932688"><ele>360.0</ele><time>2026-05-04T15:28:17.531Z</time></trkpt><trkpt lat="41.3600897" lon="1.1933932"><ele>360.0</ele><time>2026-05-04T15:28:18.528Z</time></trkpt><trkpt lat="41.3600333" lon="1.1935147"><ele>360.0</ele><time>2026-05-04T15:28:19.529Z</time></trkpt><trkpt lat="41.3599828" lon="1.1936422"><ele>359.8</ele><time>2026-05-04T15:28:20.534Z</time></trkpt><trkpt lat="41.3599323" lon="1.1937674"><ele>359.6</ele><time>2026-05-04T15:28:21.535Z</time></trkpt><trkpt lat="41.3598795" lon="1.1938911"><ele>359.4</ele><time>2026-05-04T15:28:22.532Z</time></trkpt><trkpt lat="41.3598254" lon="1.1940174"><ele>359.2</ele><time>2026-05-04T15:28:23.535Z</time></trkpt><trkpt lat="41.3597713" lon="1.1941454"><ele>359.0</ele><time>2026-05-04T15:28:24.537Z</time></trkpt><trkpt lat="41.3597182" lon="1.1942722"><ele>360.75</ele><time>2026-05-04T15:28:25.54Z</time></trkpt><trkpt lat="41.3596657" lon="1.1944032"><ele>362.5</ele><time>2026-05-04T15:28:26.534Z</time></trkpt><trkpt lat="41.3596115" lon="1.1945365"><ele>364.25</ele><time>2026-05-04T15:28:27.537Z</time></trkpt><trkpt lat="41.3595536" lon="1.1946665"><ele>366.0</ele><time>2026-05-04T15:28:28.538Z</time></trkpt><trkpt lat="41.3594967" lon="1.1947979"><ele>366.5</ele><time>2026-05-04T15:28:29.542Z</time></trkpt><trkpt lat="41.3594401" lon="1.1949317"><ele>367.0</ele><time>2026-05-04T15:28:30.539Z</time></trkpt><trkpt lat="41.3593808" lon="1.1950687"><ele>367.5</ele><time>2026-05-04T15:28:31.534Z</time></trkpt><trkpt lat="41.3593252" lon="1.1952094"><ele>368.0</ele><time>2026-05-04T15:28:32.539Z</time></trkpt><trkpt lat="41.3592167" lon="1.1954867"><ele>368.0</ele><time>2026-05-04T15:28:34.534Z</time></trkpt><trkpt lat="41.3591574" lon="1.1956214"><ele>368.0</ele><time>2026-05-04T15:28:35.535Z</time></trkpt><trkpt lat="41.3591002" lon="1.1957614"><ele>368.0</ele><time>2026-05-04T15:28:36.537Z</time></trkpt><trkpt lat="41.3590428" lon="1.1958995"><ele>368.0</ele><time>2026-05-04T15:28:37.538Z</time></trkpt><trkpt lat="41.3589833" lon="1.196035"><ele>368.0</ele><time>2026-05-04T15:28:38.535Z</time></trkpt><trkpt lat="41.3589286" lon="1.1961685"><ele>368.0</ele><time>2026-05-04T15:28:39.536Z</time></trkpt><trkpt lat="41.358874" lon="1.1963034"><ele>368.0</ele><time>2026-05-04T15:28:40.538Z</time></trkpt><trkpt lat="41.3588189" lon="1.1964411"><ele>368.0</ele><time>2026-05-04T15:28:41.537Z</time></trkpt><trkpt lat="41.3587618" lon="1.1965789"><ele>368.0</ele><time>2026-05-04T15:28:42.536Z</time></trkpt><trkpt lat="41.3587043" lon="1.1967191"><ele>368.0</ele><time>2026-05-04T15:28:43.541Z</time></trkpt><trkpt lat="41.358649" lon="1.1968611"><ele>368.0</ele><time>2026-05-04T15:28:44.536Z</time></trkpt><trkpt lat="41.3585934" lon="1.1969982"><ele>368.0</ele><time>2026-05-04T15:28:45.538Z</time></trkpt><trkpt lat="41.3585404" lon="1.197134"><ele>368.0</ele><time>2026-05-04T15:28:46.541Z</time></trkpt><trkpt lat="41.3584861" lon="1.1972695"><ele>368.0</ele><time>2026-05-04T15:28:47.531Z</time></trkpt><trkpt lat="41.3584314" lon="1.197404"><ele>368.0</ele><time>2026-05-04T15:28:48.532Z</time></trkpt><trkpt lat="41.3583757" lon="1.1975372"><ele>368.0</ele><time>2026-05-04T15:28:49.529Z</time></trkpt><trkpt lat="41.3583167" lon="1.1976742"><ele>369.0</ele><time>2026-05-04T15:28:50.531Z</time></trkpt><trkpt lat="41.3582578" lon="1.197807"><ele>370.0</ele><time>2026-05-04T15:28:51.538Z</time></trkpt><trkpt lat="41.3582013" lon="1.1979335"><ele>371.0</ele><time>2026-05-04T15:28:52.538Z</time></trkpt><trkpt lat="41.3581452" lon="1.1980661"><ele>372.0</ele><time>2026-05-04T15:28:53.535Z</time></trkpt><trkpt lat="41.3580781" lon="1.198193"><ele>376.0</ele><time>2026-05-04T15:28:54.539Z</time></trkpt><trkpt lat="41.3580019" lon="1.1983099"><ele>380.0</ele><time>2026-05-04T15:28:55.539Z</time></trkpt><trkpt lat="41.3579173" lon="1.1984187"><ele>384.0</ele><time>2026-05-04T15:28:56.53Z</time></trkpt><trkpt lat="41.3578286" lon="1.1985158"><ele>388.0</ele><time>2026-05-04T15:28:57.529Z</time></trkpt><trkpt lat="41.3577371" lon="1.1986108"><ele>388.0</ele><time>2026-05-04T15:28:58.528Z</time></trkpt><trkpt lat="41.3576436" lon="1.1987071"><ele>388.0</ele><time>2026-05-04T15:28:59.525Z</time></trkpt><trkpt lat="41.3575521" lon="1.1988057"><ele>388.0</ele><time>2026-05-04T15:29:00.525Z</time></trkpt><trkpt lat="41.3574577" lon="1.1989085"><ele>388.0</ele><time>2026-05-04T15:29:01.523Z</time></trkpt><trkpt lat="41.3573681" lon="1.1990079"><ele>387.0</ele><time>2026-05-04T15:29:02.526Z</time></trkpt><trkpt lat="41.3572785" lon="1.199104"><ele>386.0</ele><time>2026-05-04T15:29:03.542Z</time></trkpt><trkpt lat="41.3571893" lon="1.1992084"><ele>385.0</ele><time>2026-05-04T15:29:04.525Z</time></trkpt><trkpt lat="41.3571106" lon="1.1993219"><ele>384.0</ele><time>2026-05-04T15:29:05.521Z</time></trkpt><trkpt lat="41.3570381" lon="1.1994399"><ele>385.5</ele><time>2026-05-04T15:29:06.525Z</time></trkpt><trkpt lat="41.3569647" lon="1.1995588"><ele>387.0</ele><time>2026-05-04T15:29:07.526Z</time></trkpt><trkpt lat="41.3569008" lon="1.1996852"><ele>388.5</ele><time>2026-05-04T15:29:08.525Z</time></trkpt><trkpt lat="41.3568402" lon="1.1998144"><ele>390.0</ele><time>2026-05-04T15:29:09.531Z</time></trkpt><trkpt lat="41.3567865" lon="1.1999469"><ele>390.0</ele><time>2026-05-04T15:29:10.528Z</time></trkpt><trkpt lat="41.3567391" lon="1.2000816"><ele>390.0</ele><time>2026-05-04T15:29:11.531Z</time></trkpt><trkpt lat="41.3566927" lon="1.2002078"><ele>390.0</ele><time>2026-05-04T15:29:12.526Z</time></trkpt><trkpt lat="41.3566571" lon="1.2003189"><ele>390.0</ele><time>2026-05-04T15:29:13.526Z</time></trkpt><trkpt lat="41.3566215" lon="1.200409"><ele>390.0</ele><time>2026-05-04T15:29:14.527Z</time></trkpt><trkpt lat="41.3565838" lon="1.2005241"><ele>390.0</ele><time>2026-05-04T15:29:16.528Z</time></trkpt><trkpt lat="41.356561" lon="1.2006137"><ele>390.0</ele><time>2026-05-04T15:29:19.524Z</time></trkpt><trkpt lat="41.3565499" lon="1.200702"><ele>390.0</ele><time>2026-05-04T15:29:49.517Z</time></trkpt><trkpt lat="41.3565262" lon="1.200852"><ele>390.0</ele><time>2026-05-04T15:29:51.523Z</time></trkpt><trkpt lat="41.3565122" lon="1.2009367"><ele>390.0</ele><time>2026-05-04T15:29:52.524Z</time></trkpt><trkpt lat="41.3564898" lon="1.2010231"><ele>390.0</ele><time>2026-05-04T15:29:53.52Z</time></trkpt><trkpt lat="41.3564683" lon="1.2011174"><ele>390.5</ele><time>2026-05-04T15:29:54.521Z</time></trkpt><trkpt lat="41.3564443" lon="1.2012178"><ele>391.0</ele><time>2026-05-04T15:29:55.522Z</time></trkpt><trkpt lat="41.3564268" lon="1.2013265"><ele>391.5</ele><time>2026-05-04T15:29:56.517Z</time></trkpt><trkpt lat="41.3564065" lon="1.2014376"><ele>392.0</ele><time>2026-05-04T15:29:57.522Z</time></trkpt><trkpt lat="41.3563824" lon="1.2015605"><ele>392.5</ele><time>2026-05-04T15:29:58.518Z</time></trkpt><trkpt lat="41.3563573" lon="1.2016811"><ele>393.0</ele><time>2026-05-04T15:29:59.521Z</time></trkpt><trkpt lat="41.3563214" lon="1.2018023"><ele>394.79999999999995</ele><time>2026-05-04T15:30:00.521Z</time></trkpt><trkpt lat="41.3562866" lon="1.2019229"><ele>396.6</ele><time>2026-05-04T15:30:01.521Z</time></trkpt><trkpt lat="41.3562515" lon="1.2020488"><ele>398.4</ele><time>2026-05-04T15:30:02.521Z</time></trkpt><trkpt lat="41.3562116" lon="1.2021715"><ele>400.20000000000005</ele><time>2026-05-04T15:30:03.516Z</time></trkpt><trkpt lat="41.3561713" lon="1.2022997"><ele>402.0</ele><time>2026-05-04T15:30:04.52Z</time></trkpt><trkpt lat="41.3561264" lon="1.2024256"><ele>402.8</ele><time>2026-05-04T15:30:05.534Z</time></trkpt><trkpt lat="41.3560754" lon="1.2025494"><ele>403.6</ele><time>2026-05-04T15:30:06.521Z</time></trkpt><trkpt lat="41.3560188" lon="1.202671"><ele>404.40000000000003</ele><time>2026-05-04T15:30:07.519Z</time></trkpt><trkpt lat="41.3559584" lon="1.2027931"><ele>405.20000000000005</ele><time>2026-05-04T15:30:08.528Z</time></trkpt><trkpt lat="41.3558997" lon="1.2029173"><ele>406.0</ele><time>2026-05-04T15:30:09.523Z</time></trkpt><trkpt lat="41.3558444" lon="1.2030444"><ele>407.0</ele><time>2026-05-04T15:30:10.522Z</time></trkpt><trkpt lat="41.355793" lon="1.2031771"><ele>408.0</ele><time>2026-05-04T15:30:11.524Z</time></trkpt><trkpt lat="41.3557446" lon="1.2033138"><ele>409.0</ele><time>2026-05-04T15:30:12.523Z</time></trkpt><trkpt lat="41.355693" lon="1.2034511"><ele>410.0</ele><time>2026-05-04T15:30:13.525Z</time></trkpt><trkpt lat="41.3556444" lon="1.2035897"><ele>410.0</ele><time>2026-05-04T15:30:14.527Z</time></trkpt><trkpt lat="41.3555966" lon="1.2037302"><ele>410.0</ele><time>2026-05-04T15:30:15.525Z</time></trkpt><trkpt lat="41.3555507" lon="1.2038721"><ele>410.0</ele><time>2026-05-04T15:30:16.524Z</time></trkpt><trkpt lat="41.3555005" lon="1.2040163"><ele>410.0</ele><time>2026-05-04T15:30:17.523Z</time></trkpt><trkpt lat="41.3554571" lon="1.20416"><ele>410.8</ele><time>2026-05-04T15:30:18.523Z</time></trkpt><trkpt lat="41.3554165" lon="1.2043019"><ele>411.6</ele><time>2026-05-04T15:30:19.523Z</time></trkpt><trkpt lat="41.3553787" lon="1.2044422"><ele>412.4</ele><time>2026-05-04T15:30:20.522Z</time></trkpt><trkpt lat="41.3553423" lon="1.2045795"><ele>413.2</ele><time>2026-05-04T15:30:21.524Z</time></trkpt><trkpt lat="41.3553048" lon="1.2047149"><ele>414.0</ele><time>2026-05-04T15:30:22.528Z</time></trkpt><trkpt lat="41.3552638" lon="1.2048542"><ele>415.0</ele><time>2026-05-04T15:30:23.527Z</time></trkpt><trkpt lat="41.3552189" lon="1.204995"><ele>416.0</ele><time>2026-05-04T15:30:24.543Z</time></trkpt><trkpt lat="41.3551741" lon="1.205137"><ele>417.0</ele><time>2026-05-04T15:30:25.53Z</time></trkpt><trkpt lat="41.3551252" lon="1.2052809"><ele>418.0</ele><time>2026-05-04T15:30:26.529Z</time></trkpt><trkpt lat="41.3550698" lon="1.2054278"><ele>418.0</ele><time>2026-05-04T15:30:27.531Z</time></trkpt><trkpt lat="41.355005" lon="1.2055749"><ele>418.0</ele><time>2026-05-04T15:30:28.532Z</time></trkpt><trkpt lat="41.3549357" lon="1.2057268"><ele>418.0</ele><time>2026-05-04T15:30:29.529Z</time></trkpt><trkpt lat="41.3548632" lon="1.2058746"><ele>418.0</ele><time>2026-05-04T15:30:30.527Z</time></trkpt><trkpt lat="41.3547876" lon="1.2060164"><ele>419.25</ele><time>2026-05-04T15:30:31.529Z</time></trkpt><trkpt lat="41.3547064" lon="1.2061539"><ele>420.5</ele><time>2026-05-04T15:30:32.526Z</time></trkpt><trkpt lat="41.3546191" lon="1.2062899"><ele>421.75</ele><time>2026-05-04T15:30:33.525Z</time></trkpt><trkpt lat="41.354528" lon="1.206423"><ele>423.0</ele><time>2026-05-04T15:30:34.522Z</time></trkpt><trkpt lat="41.3544294" lon="1.2065507"><ele>424.25</ele><time>2026-05-04T15:30:35.523Z</time></trkpt><trkpt lat="41.3543139" lon="1.2066669"><ele>425.5</ele><time>2026-05-04T15:30:36.533Z</time></trkpt><trkpt lat="41.3542072" lon="1.2067824"><ele>426.75</ele><time>2026-05-04T15:30:37.521Z</time></trkpt><trkpt lat="41.3540882" lon="1.2069032"><ele>428.0</ele><time>2026-05-04T15:30:38.522Z</time></trkpt><trkpt lat="41.3539688" lon="1.2070166"><ele>429.0</ele><time>2026-05-04T15:30:39.52Z</time></trkpt><trkpt lat="41.3538534" lon="1.2071198"><ele>430.0</ele><time>2026-05-04T15:30:40.54Z</time></trkpt><trkpt lat="41.353737" lon="1.2072254"><ele>431.0</ele><time>2026-05-04T15:30:41.524Z</time></trkpt><trkpt lat="41.3536243" lon="1.2073185"><ele>432.0</ele><time>2026-05-04T15:30:42.526Z</time></trkpt><trkpt lat="41.3535158" lon="1.2074092"><ele>433.20000000000005</ele><time>2026-05-04T15:30:43.532Z</time></trkpt><trkpt lat="41.353421" lon="1.207494"><ele>434.40000000000003</ele><time>2026-05-04T15:30:44.528Z</time></trkpt><trkpt lat="41.3533334" lon="1.2075684"><ele>435.59999999999997</ele><time>2026-05-04T15:30:45.529Z</time></trkpt><trkpt lat="41.3532431" lon="1.2076451"><ele>436.79999999999995</ele><time>2026-05-04T15:30:46.531Z</time></trkpt><trkpt lat="41.3531558" lon="1.2077136"><ele>438.0</ele><time>2026-05-04T15:30:47.526Z</time></trkpt><trkpt lat="41.3530736" lon="1.2077707"><ele>438.6666666666667</ele><time>2026-05-04T15:30:48.523Z</time></trkpt><trkpt lat="41.3530065" lon="1.2078172"><ele>439.33333333333337</ele><time>2026-05-04T15:30:49.523Z</time></trkpt><trkpt lat="41.3529436" lon="1.2078562"><ele>440.0</ele><time>2026-05-04T15:30:50.524Z</time></trkpt><trkpt lat="41.3528471" lon="1.2079181"><ele>440.6666666666667</ele><time>2026-05-04T15:30:52.526Z</time></trkpt><trkpt lat="41.3527779" lon="1.2079574"><ele>441.33333333333337</ele><time>2026-05-04T15:30:54.525Z</time></trkpt><trkpt lat="41.352708" lon="1.2080016"><ele>442.0</ele><time>2026-05-04T15:30:57.523Z</time></trkpt><trkpt lat="41.352638" lon="1.2080242"><ele>442.0</ele><time>2026-05-04T15:31:28.524Z</time></trkpt><trkpt lat="41.3525611" lon="1.2080766"><ele>442.0</ele><time>2026-05-04T15:31:30.517Z</time></trkpt><trkpt lat="41.3524529" lon="1.2081246"><ele>442.0</ele><time>2026-05-04T15:31:32.517Z</time></trkpt><trkpt lat="41.352334" lon="1.2081802"><ele>442.0</ele><time>2026-05-04T15:31:34.515Z</time></trkpt><trkpt lat="41.3522101" lon="1.2082331"><ele>441.28571428571433</ele><time>2026-05-04T15:31:36.526Z</time></trkpt><trkpt lat="41.3521441" lon="1.2082543"><ele>440.57142857142856</ele><time>2026-05-04T15:31:37.521Z</time></trkpt><trkpt lat="41.3520781" lon="1.2082762"><ele>439.8571428571429</ele><time>2026-05-04T15:31:38.544Z</time></trkpt><trkpt lat="41.3520126" lon="1.2083024"><ele>439.14285714285717</ele><time>2026-05-04T15:31:39.52Z</time></trkpt><trkpt lat="41.3519446" lon="1.2083342"><ele>438.42857142857144</ele><time>2026-05-04T15:31:40.513Z</time></trkpt><trkpt lat="41.3518724" lon="1.208369"><ele>437.7142857142857</ele><time>2026-05-04T15:31:41.513Z</time></trkpt><trkpt lat="41.3518018" lon="1.2083961"><ele>437.0</ele><time>2026-05-04T15:31:42.503Z</time></trkpt><trkpt lat="41.3517307" lon="1.2084116"><ele>436.99999999999994</ele><time>2026-05-04T15:31:43.521Z</time></trkpt><trkpt lat="41.3516543" lon="1.2084374"><ele>437.0</ele><time>2026-05-04T15:31:44.512Z</time></trkpt><trkpt lat="41.3515713" lon="1.208467"><ele>437.0</ele><time>2026-05-04T15:31:45.513Z</time></trkpt><trkpt lat="41.3514966" lon="1.208498"><ele>437.0</ele><time>2026-05-04T15:31:46.516Z</time></trkpt><trkpt lat="41.3514212" lon="1.2085244"><ele>436.99999999999994</ele><time>2026-05-04T15:31:47.52Z</time></trkpt><trkpt lat="41.3513455" lon="1.2085498"><ele>437.0</ele><time>2026-05-04T15:31:48.524Z</time></trkpt><trkpt lat="41.3512615" lon="1.2085753"><ele>437.8333333333333</ele><time>2026-05-04T15:31:49.517Z</time></trkpt><trkpt lat="41.3511755" lon="1.2085992"><ele>438.66666666666663</ele><time>2026-05-04T15:31:50.523Z</time></trkpt><trkpt lat="41.3510889" lon="1.208621"><ele>439.5</ele><time>2026-05-04T15:31:51.525Z</time></trkpt><trkpt lat="41.3510026" lon="1.2086362"><ele>440.33333333333337</ele><time>2026-05-04T15:31:52.528Z</time></trkpt><trkpt lat="41.3509159" lon="1.2086549"><ele>441.1666666666667</ele><time>2026-05-04T15:31:53.531Z</time></trkpt><trkpt lat="41.3508277" lon="1.2086696"><ele>442.0</ele><time>2026-05-04T15:31:54.541Z</time></trkpt><trkpt lat="41.3507345" lon="1.2086814"><ele>442.0</ele><time>2026-05-04T15:31:55.534Z</time></trkpt><trkpt lat="41.3506391" lon="1.2086915"><ele>442.00000000000006</ele><time>2026-05-04T15:31:56.533Z</time></trkpt><trkpt lat="41.3505392" lon="1.2087004"><ele>442.00000000000006</ele><time>2026-05-04T15:31:57.53Z</time></trkpt><trkpt lat="41.3504376" lon="1.2087039"><ele>442.0</ele><time>2026-05-04T15:31:58.533Z</time></trkpt><trkpt lat="41.3503382" lon="1.2087035"><ele>442.0</ele><time>2026-05-04T15:31:59.532Z</time></trkpt><trkpt lat="41.3502355" lon="1.2087021"><ele>442.8</ele><time>2026-05-04T15:32:00.529Z</time></trkpt><trkpt lat="41.3501276" lon="1.2087029"><ele>443.6</ele><time>2026-05-04T15:32:01.523Z</time></trkpt><trkpt lat="41.3500201" lon="1.2087068"><ele>444.40000000000003</ele><time>2026-05-04T15:32:02.519Z</time></trkpt><trkpt lat="41.349911" lon="1.2087041"><ele>445.20000000000005</ele><time>2026-05-04T15:32:03.52Z</time></trkpt><trkpt lat="41.3498031" lon="1.2087056"><ele>446.0</ele><time>2026-05-04T15:32:04.515Z</time></trkpt><trkpt lat="41.3496951" lon="1.2087031"><ele>446.8</ele><time>2026-05-04T15:32:05.513Z</time></trkpt><trkpt lat="41.3495852" lon="1.2087012"><ele>447.6</ele><time>2026-05-04T15:32:06.512Z</time></trkpt><trkpt lat="41.3494728" lon="1.2086982"><ele>448.4</ele><time>2026-05-04T15:32:07.515Z</time></trkpt><trkpt lat="41.3493659" lon="1.2086967"><ele>449.2</ele><time>2026-05-04T15:32:08.522Z</time></trkpt><trkpt lat="41.3492591" lon="1.2086964"><ele>450.0</ele><time>2026-05-04T15:32:09.549Z</time></trkpt><trkpt lat="41.3491554" lon="1.208697"><ele>450.0</ele><time>2026-05-04T15:32:10.522Z</time></trkpt><trkpt lat="41.3490485" lon="1.2086946"><ele>450.0</ele><time>2026-05-04T15:32:11.518Z</time></trkpt><trkpt lat="41.3489412" lon="1.2086951"><ele>450.0</ele><time>2026-05-04T15:32:12.519Z</time></trkpt><trkpt lat="41.3488317" lon="1.2086926"><ele>450.0</ele><time>2026-05-04T15:32:13.521Z</time></trkpt><trkpt lat="41.34872" lon="1.2086886"><ele>450.0</ele><time>2026-05-04T15:32:14.518Z</time></trkpt><trkpt lat="41.3486047" lon="1.2086876"><ele>451.5</ele><time>2026-05-04T15:32:15.518Z</time></trkpt><trkpt lat="41.348487" lon="1.2086873"><ele>453.0</ele><time>2026-05-04T15:32:16.523Z</time></trkpt><trkpt lat="41.3483696" lon="1.2086902"><ele>454.5</ele><time>2026-05-04T15:32:17.517Z</time></trkpt><trkpt lat="41.3482521" lon="1.2086959"><ele>456.0</ele><time>2026-05-04T15:32:18.518Z</time></trkpt><trkpt lat="41.3481364" lon="1.2087017"><ele>454.20000000000005</ele><time>2026-05-04T15:32:19.514Z</time></trkpt><trkpt lat="41.3480219" lon="1.2087058"><ele>452.40000000000003</ele><time>2026-05-04T15:32:20.515Z</time></trkpt><trkpt lat="41.3479113" lon="1.2087133"><ele>450.6</ele><time>2026-05-04T15:32:21.514Z</time></trkpt><trkpt lat="41.3478023" lon="1.2087221"><ele>448.8</ele><time>2026-05-04T15:32:22.52Z</time></trkpt><trkpt lat="41.3476915" lon="1.2087316"><ele>447.0</ele><time>2026-05-04T15:32:23.518Z</time></trkpt><trkpt lat="41.3475852" lon="1.2087389"><ele>447.0</ele><time>2026-05-04T15:32:24.526Z</time></trkpt><trkpt lat="41.3474738" lon="1.2087493"><ele>447.0</ele><time>2026-05-04T15:32:25.531Z</time></trkpt><trkpt lat="41.347361" lon="1.2087628"><ele>447.0</ele><time>2026-05-04T15:32:26.532Z</time></trkpt><trkpt lat="41.3472482" lon="1.2087765"><ele>447.0</ele><time>2026-05-04T15:32:27.529Z</time></trkpt><trkpt lat="41.3471346" lon="1.2087944"><ele>441.5</ele><time>2026-05-04T15:32:28.532Z</time></trkpt><trkpt lat="41.347017" lon="1.2088148"><ele>436.0</ele><time>2026-05-04T15:32:29.529Z</time></trkpt><trkpt lat="41.3468954" lon="1.2088353"><ele>430.5</ele><time>2026-05-04T15:32:30.531Z</time></trkpt><trkpt lat="41.3467748" lon="1.2088548"><ele>425.0</ele><time>2026-05-04T15:32:31.529Z</time></trkpt><trkpt lat="41.3466545" lon="1.2088801"><ele>425.0</ele><time>2026-05-04T15:32:32.529Z</time></trkpt><trkpt lat="41.3465332" lon="1.2089055"><ele>425.0</ele><time>2026-05-04T15:32:33.53Z</time></trkpt><trkpt lat="41.3464098" lon="1.2089323"><ele>425.0</ele><time>2026-05-04T15:32:34.532Z</time></trkpt><trkpt lat="41.3462853" lon="1.2089614"><ele>425.0</ele><time>2026-05-04T15:32:35.528Z</time></trkpt><trkpt lat="41.346165" lon="1.208993"><ele>426.0</ele><time>2026-05-04T15:32:36.535Z</time></trkpt><trkpt lat="41.3460447" lon="1.2090237"><ele>427.0</ele><time>2026-05-04T15:32:37.53Z</time></trkpt><trkpt lat="41.3459252" lon="1.2090585"><ele>428.0</ele><time>2026-05-04T15:32:38.53Z</time></trkpt><trkpt lat="41.345808" lon="1.2090952"><ele>429.0</ele><time>2026-05-04T15:32:39.545Z</time></trkpt><trkpt lat="41.3456919" lon="1.2091281"><ele>429.0</ele><time>2026-05-04T15:32:40.531Z</time></trkpt><trkpt lat="41.3455779" lon="1.2091623"><ele>429.0</ele><time>2026-05-04T15:32:41.531Z</time></trkpt><trkpt lat="41.3454679" lon="1.2092018"><ele>429.0</ele><time>2026-05-04T15:32:42.532Z</time></trkpt><trkpt lat="41.3453592" lon="1.2092419"><ele>429.0</ele><time>2026-05-04T15:32:43.539Z</time></trkpt><trkpt lat="41.3452481" lon="1.2092777"><ele>433.0</ele><time>2026-05-04T15:32:44.534Z</time></trkpt><trkpt lat="41.345142" lon="1.2093183"><ele>437.0</ele><time>2026-05-04T15:32:45.537Z</time></trkpt><trkpt lat="41.3450362" lon="1.209361"><ele>441.0</ele><time>2026-05-04T15:32:46.523Z</time></trkpt><trkpt lat="41.3449285" lon="1.2094065"><ele>445.0</ele><time>2026-05-04T15:32:47.528Z</time></trkpt><trkpt lat="41.3448206" lon="1.209455"><ele>449.0</ele><time>2026-05-04T15:32:48.532Z</time></trkpt><trkpt lat="41.3447178" lon="1.2095037"><ele>450.4</ele><time>2026-05-04T15:32:49.527Z</time></trkpt><trkpt lat="41.3446105" lon="1.2095503"><ele>451.79999999999995</ele><time>2026-05-04T15:32:50.524Z</time></trkpt><trkpt lat="41.3445094" lon="1.2096046"><ele>453.20000000000005</ele><time>2026-05-04T15:32:51.511Z</time></trkpt><trkpt lat="41.3444045" lon="1.2096611"><ele>454.6</ele><time>2026-05-04T15:32:52.517Z</time></trkpt><trkpt lat="41.3442971" lon="1.2097106"><ele>456.0</ele><time>2026-05-04T15:32:53.512Z</time></trkpt><trkpt lat="41.3441898" lon="1.209763"><ele>456.0</ele><time>2026-05-04T15:32:54.514Z</time></trkpt><trkpt lat="41.3440853" lon="1.2098179"><ele>456.0</ele><time>2026-05-04T15:32:55.512Z</time></trkpt><trkpt lat="41.3439798" lon="1.2098754"><ele>456.0</ele><time>2026-05-04T15:32:56.503Z</time></trkpt><trkpt lat="41.3438743" lon="1.2099346"><ele>456.0</ele><time>2026-05-04T15:32:57.504Z</time></trkpt><trkpt lat="41.343767" lon="1.2099915"><ele>452.0</ele><time>2026-05-04T15:32:58.509Z</time></trkpt><trkpt lat="41.3436554" lon="1.2100483"><ele>448.0</ele><time>2026-05-04T15:32:59.515Z</time></trkpt><trkpt lat="41.3435467" lon="1.2101073"><ele>444.0</ele><time>2026-05-04T15:33:00.516Z</time></trkpt><trkpt lat="41.3433388" lon="1.2102362"><ele>444.0</ele><time>2026-05-04T15:33:02.517Z</time></trkpt><trkpt lat="41.3432337" lon="1.2103003"><ele>444.0</ele><time>2026-05-04T15:33:03.516Z</time></trkpt><trkpt lat="41.343127" lon="1.2103659"><ele>444.0</ele><time>2026-05-04T15:33:04.518Z</time></trkpt><trkpt lat="41.3430227" lon="1.2104368"><ele>444.0</ele><time>2026-05-04T15:33:05.517Z</time></trkpt><trkpt lat="41.3429169" lon="1.2105082"><ele>443.75</ele><time>2026-05-04T15:33:06.513Z</time></trkpt><trkpt lat="41.3428129" lon="1.2105802"><ele>443.5</ele><time>2026-05-04T15:33:07.511Z</time></trkpt><trkpt lat="41.3427041" lon="1.2106529"><ele>443.25</ele><time>2026-05-04T15:33:08.506Z</time></trkpt><trkpt lat="41.3425921" lon="1.210733"><ele>443.0</ele><time>2026-05-04T15:33:09.511Z</time></trkpt><trkpt lat="41.3424841" lon="1.21081"><ele>443.0</ele><time>2026-05-04T15:33:10.524Z</time></trkpt><trkpt lat="41.3423754" lon="1.2108905"><ele>443.0</ele><time>2026-05-04T15:33:11.513Z</time></trkpt><trkpt lat="41.3422646" lon="1.2109726"><ele>443.0</ele><time>2026-05-04T15:33:12.509Z</time></trkpt><trkpt lat="41.3421568" lon="1.2110548"><ele>443.0</ele><time>2026-05-04T15:33:13.511Z</time></trkpt><trkpt lat="41.3420433" lon="1.211138"><ele>443.5</ele><time>2026-05-04T15:33:14.508Z</time></trkpt><trkpt lat="41.3419295" lon="1.2112187"><ele>444.0</ele><time>2026-05-04T15:33:15.507Z</time></trkpt><trkpt lat="41.3418199" lon="1.2113011"><ele>444.5</ele><time>2026-05-04T15:33:16.511Z</time></trkpt><trkpt lat="41.3417083" lon="1.2113881"><ele>445.0</ele><time>2026-05-04T15:33:17.506Z</time></trkpt><trkpt lat="41.3416006" lon="1.2114761"><ele>449.5</ele><time>2026-05-04T15:33:18.503Z</time></trkpt><trkpt lat="41.341492" lon="1.2115644"><ele>454.0</ele><time>2026-05-04T15:33:19.494Z</time></trkpt><trkpt lat="41.3413778" lon="1.2116588"><ele>458.5</ele><time>2026-05-04T15:33:20.492Z</time></trkpt><trkpt lat="41.3412627" lon="1.2117526"><ele>463.0</ele><time>2026-05-04T15:33:21.487Z</time></trkpt><trkpt lat="41.3411493" lon="1.2118499"><ele>467.75</ele><time>2026-05-04T15:33:22.475Z</time></trkpt><trkpt lat="41.3410396" lon="1.2119414"><ele>472.5</ele><time>2026-05-04T15:33:23.46Z</time></trkpt><trkpt lat="41.3409325" lon="1.2120248"><ele>477.25</ele><time>2026-05-04T15:33:24.461Z</time></trkpt><trkpt lat="41.3408051" lon="1.2121466"><ele>482.0</ele><time>2026-05-04T15:33:25.444Z</time></trkpt><trkpt lat="41.3406776" lon="1.2122684"><ele>398.0</ele><time>2026-05-04T15:33:26.419Z</time></trkpt><trkpt lat="41.3328054" lon="1.2258026"><ele>399.5</ele><time>2026-05-04T15:34:53.487Z</time></trkpt><trkpt lat="41.3330092" lon="1.225421"><ele>401.0</ele><time>2026-05-04T15:34:54.5Z</time></trkpt><trkpt lat="41.3328556" lon="1.2255373"><ele>400.0</ele><time>2026-05-04T15:34:56.515Z</time></trkpt><trkpt lat="41.3327468" lon="1.2256796"><ele>399.0</ele><time>2026-05-04T15:34:57.52Z</time></trkpt><trkpt lat="41.332632" lon="1.2258127"><ele>398.0</ele><time>2026-05-04T15:34:58.516Z</time></trkpt><trkpt lat="41.3325131" lon="1.2259383"><ele>398.0</ele><time>2026-05-04T15:34:59.517Z</time></trkpt><trkpt lat="41.3323797" lon="1.2260659"><ele>398.0</ele><time>2026-05-04T15:35:00.524Z</time></trkpt><trkpt lat="41.3322434" lon="1.2261822"><ele>398.0</ele><time>2026-05-04T15:35:01.533Z</time></trkpt><trkpt lat="41.3321082" lon="1.2263"><ele>396.0</ele><time>2026-05-04T15:35:02.516Z</time></trkpt><trkpt lat="41.3319683" lon="1.2264162"><ele>394.0</ele><time>2026-05-04T15:35:03.526Z</time></trkpt><trkpt lat="41.3318274" lon="1.2265204"><ele>392.0</ele><time>2026-05-04T15:35:04.525Z</time></trkpt><trkpt lat="41.3316891" lon="1.226626"><ele>391.0</ele><time>2026-05-04T15:35:05.525Z</time></trkpt><trkpt lat="41.3315435" lon="1.2267253"><ele>390.0</ele><time>2026-05-04T15:35:06.528Z</time></trkpt><trkpt lat="41.331396" lon="1.2268295"><ele>389.0</ele><time>2026-05-04T15:35:07.526Z</time></trkpt><trkpt lat="41.3312417" lon="1.2269253"><ele>387.3333333333333</ele><time>2026-05-04T15:35:08.543Z</time></trkpt><trkpt lat="41.3310891" lon="1.2270213"><ele>385.66666666666663</ele><time>2026-05-04T15:35:09.528Z</time></trkpt><trkpt lat="41.3309367" lon="1.2271031"><ele>384.0</ele><time>2026-05-04T15:35:10.526Z</time></trkpt><trkpt lat="41.3307837" lon="1.2271909"><ele>384.0</ele><time>2026-05-04T15:35:11.53Z</time></trkpt><trkpt lat="41.3306322" lon="1.2272778"><ele>384.0</ele><time>2026-05-04T15:35:12.529Z</time></trkpt><trkpt lat="41.3304795" lon="1.2273573"><ele>384.0</ele><time>2026-05-04T15:35:13.534Z</time></trkpt><trkpt lat="41.3303258" lon="1.2274376"><ele>383.6666666666667</ele><time>2026-05-04T15:35:14.541Z</time></trkpt><trkpt lat="41.3301722" lon="1.227521"><ele>383.33333333333337</ele><time>2026-05-04T15:35:15.53Z</time></trkpt><trkpt lat="41.3300145" lon="1.2275965"><ele>383.0</ele><time>2026-05-04T15:35:16.528Z</time></trkpt><trkpt lat="41.3298593" lon="1.2276696"><ele>382.33333333333337</ele><time>2026-05-04T15:35:17.529Z</time></trkpt><trkpt lat="41.3296962" lon="1.2277345"><ele>381.6666666666667</ele><time>2026-05-04T15:35:18.52Z</time></trkpt><trkpt lat="41.3295413" lon="1.2278115"><ele>381.0</ele><time>2026-05-04T15:35:19.522Z</time></trkpt><trkpt lat="41.3293769" lon="1.2278664"><ele>381.0</ele><time>2026-05-04T15:35:20.534Z</time></trkpt><trkpt lat="41.3292146" lon="1.2279204"><ele>381.0</ele><time>2026-05-04T15:35:21.532Z</time></trkpt><trkpt lat="41.3290501" lon="1.227975"><ele>381.0</ele><time>2026-05-04T15:35:22.537Z</time></trkpt><trkpt lat="41.3288881" lon="1.2280257"><ele>378.6666666666667</ele><time>2026-05-04T15:35:23.534Z</time></trkpt><trkpt lat="41.3287281" lon="1.2280754"><ele>376.33333333333337</ele><time>2026-05-04T15:35:24.534Z</time></trkpt><trkpt lat="41.3285659" lon="1.2281245"><ele>374.0</ele><time>2026-05-04T15:35:25.538Z</time></trkpt><trkpt lat="41.3283973" lon="1.2281732"><ele>374.0</ele><time>2026-05-04T15:35:26.533Z</time></trkpt><trkpt lat="41.3282298" lon="1.228225"><ele>374.0</ele><time>2026-05-04T15:35:27.534Z</time></trkpt><trkpt lat="41.3280626" lon="1.2282761"><ele>374.0</ele><time>2026-05-04T15:35:28.537Z</time></trkpt><trkpt lat="41.3278938" lon="1.228329"><ele>371.6666666666667</ele><time>2026-05-04T15:35:29.534Z</time></trkpt><trkpt lat="41.3277241" lon="1.2283812"><ele>369.3333333333333</ele><time>2026-05-04T15:35:30.528Z</time></trkpt><trkpt lat="41.3275571" lon="1.2284365"><ele>367.0</ele><time>2026-05-04T15:35:31.531Z</time></trkpt><trkpt lat="41.327386" lon="1.2284956"><ele>366.3333333333333</ele><time>2026-05-04T15:35:32.531Z</time></trkpt><trkpt lat="41.3272162" lon="1.2285498"><ele>365.6666666666667</ele><time>2026-05-04T15:35:33.536Z</time></trkpt><trkpt lat="41.327047" lon="1.2286114"><ele>365.0</ele><time>2026-05-04T15:35:34.531Z</time></trkpt><trkpt lat="41.3268731" lon="1.2286795"><ele>365.0</ele><time>2026-05-04T15:35:35.534Z</time></trkpt><trkpt lat="41.3267044" lon="1.2287436"><ele>365.0</ele><time>2026-05-04T15:35:36.535Z</time></trkpt><trkpt lat="41.3265302" lon="1.228809"><ele>365.0</ele><time>2026-05-04T15:35:37.533Z</time></trkpt><trkpt lat="41.3263591" lon="1.2288792"><ele>363.0</ele><time>2026-05-04T15:35:38.535Z</time></trkpt><trkpt lat="41.3261929" lon="1.2289525"><ele>361.0</ele><time>2026-05-04T15:35:39.538Z</time></trkpt><trkpt lat="41.3260194" lon="1.2290265"><ele>359.0</ele><time>2026-05-04T15:35:40.535Z</time></trkpt><trkpt lat="41.3258469" lon="1.2291052"><ele>357.0</ele><time>2026-05-04T15:35:41.535Z</time></trkpt><trkpt lat="41.325676" lon="1.2291881"><ele>355.0</ele><time>2026-05-04T15:35:42.535Z</time></trkpt><trkpt lat="41.3254952" lon="1.2292744"><ele>353.0</ele><time>2026-05-04T15:35:43.539Z</time></trkpt><trkpt lat="41.3253192" lon="1.229362"><ele>349.6666666666667</ele><time>2026-05-04T15:35:44.536Z</time></trkpt><trkpt lat="41.3251411" lon="1.2294501"><ele>346.3333333333333</ele><time>2026-05-04T15:35:45.545Z</time></trkpt><trkpt lat="41.3249661" lon="1.2295499"><ele>343.0</ele><time>2026-05-04T15:35:46.533Z</time></trkpt><trkpt lat="41.3247921" lon="1.2296519"><ele>342.66666666666663</ele><time>2026-05-04T15:35:47.531Z</time></trkpt><trkpt lat="41.3246177" lon="1.2297583"><ele>342.3333333333333</ele><time>2026-05-04T15:35:48.536Z</time></trkpt><trkpt lat="41.3244468" lon="1.229869"><ele>342.0</ele><time>2026-05-04T15:35:49.541Z</time></trkpt><trkpt lat="41.324275" lon="1.2299842"><ele>342.0</ele><time>2026-05-04T15:35:50.534Z</time></trkpt><trkpt lat="41.3241026" lon="1.2300966"><ele>342.0</ele><time>2026-05-04T15:35:51.532Z</time></trkpt><trkpt lat="41.3239267" lon="1.2302076"><ele>342.0</ele><time>2026-05-04T15:35:52.534Z</time></trkpt><trkpt lat="41.323762" lon="1.2303238"><ele>340.3333333333333</ele><time>2026-05-04T15:35:53.535Z</time></trkpt><trkpt lat="41.3235914" lon="1.2304407"><ele>338.66666666666663</ele><time>2026-05-04T15:35:54.534Z</time></trkpt><trkpt lat="41.3234237" lon="1.2305539"><ele>337.0</ele><time>2026-05-04T15:35:55.541Z</time></trkpt><trkpt lat="41.3232485" lon="1.2306825"><ele>337.0</ele><time>2026-05-04T15:35:56.536Z</time></trkpt><trkpt lat="41.3230744" lon="1.2308128"><ele>337.0</ele><time>2026-05-04T15:35:57.535Z</time></trkpt><trkpt lat="41.3229037" lon="1.2309364"><ele>337.0</ele><time>2026-05-04T15:35:58.531Z</time></trkpt><trkpt lat="41.3227391" lon="1.2310602"><ele>335.66666666666663</ele><time>2026-05-04T15:35:59.533Z</time></trkpt><trkpt lat="41.3225672" lon="1.2311828"><ele>334.3333333333333</ele><time>2026-05-04T15:36:00.534Z</time></trkpt><trkpt lat="41.3223999" lon="1.2313031"><ele>333.0</ele><time>2026-05-04T15:36:01.53Z</time></trkpt><trkpt lat="41.3222339" lon="1.231425"><ele>332.0</ele><time>2026-05-04T15:36:02.531Z</time></trkpt><trkpt lat="41.3220676" lon="1.2315317"><ele>331.0</ele><time>2026-05-04T15:36:03.534Z</time></trkpt><trkpt lat="41.3218934" lon="1.2316483"><ele>330.0</ele><time>2026-05-04T15:36:04.535Z</time></trkpt><trkpt lat="41.3217251" lon="1.2317711"><ele>330.0</ele><time>2026-05-04T15:36:05.532Z</time></trkpt><trkpt lat="41.3215509" lon="1.2318892"><ele>330.0</ele><time>2026-05-04T15:36:06.537Z</time></trkpt><trkpt lat="41.3213709" lon="1.2320122"><ele>330.0</ele><time>2026-05-04T15:36:07.534Z</time></trkpt><trkpt lat="41.3211968" lon="1.2321185"><ele>328.3333333333333</ele><time>2026-05-04T15:36:08.537Z</time></trkpt><trkpt lat="41.321036" lon="1.2322252"><ele>326.66666666666663</ele><time>2026-05-04T15:36:09.531Z</time></trkpt><trkpt lat="41.3208771" lon="1.2323303"><ele>325.0</ele><time>2026-05-04T15:36:10.532Z</time></trkpt><trkpt lat="41.3207125" lon="1.2324327"><ele>323.3333333333333</ele><time>2026-05-04T15:36:11.536Z</time></trkpt><trkpt lat="41.3205475" lon="1.2325366"><ele>321.6666666666667</ele><time>2026-05-04T15:36:12.534Z</time></trkpt><trkpt lat="41.3203828" lon="1.2326445"><ele>320.0</ele><time>2026-05-04T15:36:13.536Z</time></trkpt><trkpt lat="41.3202181" lon="1.2327408"><ele>320.0</ele><time>2026-05-04T15:36:14.533Z</time></trkpt><trkpt lat="41.3200544" lon="1.2328349"><ele>320.0</ele><time>2026-05-04T15:36:15.532Z</time></trkpt><trkpt lat="41.319894" lon="1.2329245"><ele>320.0</ele><time>2026-05-04T15:36:16.552Z</time></trkpt><trkpt lat="41.3197396" lon="1.233013"><ele>318.6666666666667</ele><time>2026-05-04T15:36:17.532Z</time></trkpt><trkpt lat="41.3195794" lon="1.2331062"><ele>317.3333333333333</ele><time>2026-05-04T15:36:18.532Z</time></trkpt><trkpt lat="41.319417" lon="1.2331943"><ele>316.0</ele><time>2026-05-04T15:36:19.536Z</time></trkpt><trkpt lat="41.3192583" lon="1.2332774"><ele>315.3333333333333</ele><time>2026-05-04T15:36:20.534Z</time></trkpt><trkpt lat="41.3190969" lon="1.2333617"><ele>314.6666666666667</ele><time>2026-05-04T15:36:21.532Z</time></trkpt><trkpt lat="41.3189419" lon="1.2334438"><ele>314.0</ele><time>2026-05-04T15:36:22.532Z</time></trkpt><trkpt lat="41.3187876" lon="1.2335286"><ele>313.33333333333337</ele><time>2026-05-04T15:36:23.534Z</time></trkpt><trkpt lat="41.3186261" lon="1.2336143"><ele>312.6666666666667</ele><time>2026-05-04T15:36:24.538Z</time></trkpt><trkpt lat="41.3184715" lon="1.2336963"><ele>312.0</ele><time>2026-05-04T15:36:25.534Z</time></trkpt><trkpt lat="41.3183092" lon="1.2337744"><ele>312.0</ele><time>2026-05-04T15:36:26.533Z</time></trkpt><trkpt lat="41.3181504" lon="1.2338543"><ele>312.0</ele><time>2026-05-04T15:36:27.538Z</time></trkpt><trkpt lat="41.3179907" lon="1.2339365"><ele>312.0</ele><time>2026-05-04T15:36:28.535Z</time></trkpt><trkpt lat="41.3178289" lon="1.234009"><ele>311.0</ele><time>2026-05-04T15:36:29.532Z</time></trkpt><trkpt lat="41.3176666" lon="1.2340823"><ele>310.0</ele><time>2026-05-04T15:36:30.531Z</time></trkpt><trkpt lat="41.3175038" lon="1.2341492"><ele>309.0</ele><time>2026-05-04T15:36:31.528Z</time></trkpt><trkpt lat="41.3173436" lon="1.234212"><ele>309.3333333333333</ele><time>2026-05-04T15:36:32.528Z</time></trkpt><trkpt lat="41.3171846" lon="1.2342742"><ele>309.66666666666663</ele><time>2026-05-04T15:36:33.528Z</time></trkpt><trkpt lat="41.3170282" lon="1.2343356"><ele>310.0</ele><time>2026-05-04T15:36:34.531Z</time></trkpt><trkpt lat="41.3168671" lon="1.2343965"><ele>310.0</ele><time>2026-05-04T15:36:35.527Z</time></trkpt><trkpt lat="41.3167028" lon="1.234462"><ele>310.0</ele><time>2026-05-04T15:36:36.524Z</time></trkpt><trkpt lat="41.3165485" lon="1.2345191"><ele>310.0</ele><time>2026-05-04T15:36:37.528Z</time></trkpt><trkpt lat="41.3163964" lon="1.2345773"><ele>308.66666666666663</ele><time>2026-05-04T15:36:38.527Z</time></trkpt><trkpt lat="41.3162361" lon="1.2346289"><ele>307.3333333333333</ele><time>2026-05-04T15:36:39.537Z</time></trkpt><trkpt lat="41.3160893" lon="1.2346807"><ele>306.0</ele><time>2026-05-04T15:36:40.535Z</time></trkpt><trkpt lat="41.31594" lon="1.2347323"><ele>306.0</ele><time>2026-05-04T15:36:41.542Z</time></trkpt><trkpt lat="41.3157965" lon="1.2347848"><ele>306.0</ele><time>2026-05-04T15:36:42.537Z</time></trkpt><trkpt lat="41.3156559" lon="1.2348341"><ele>306.0</ele><time>2026-05-04T15:36:43.544Z</time></trkpt><trkpt lat="41.3155132" lon="1.2348796"><ele>306.0</ele><time>2026-05-04T15:36:44.54Z</time></trkpt><trkpt lat="41.3153669" lon="1.2349238"><ele>304.75</ele><time>2026-05-04T15:36:45.535Z</time></trkpt><trkpt lat="41.315222" lon="1.2349594"><ele>303.5</ele><time>2026-05-04T15:36:46.534Z</time></trkpt><trkpt lat="41.3150747" lon="1.2349982"><ele>302.25</ele><time>2026-05-04T15:36:47.565Z</time></trkpt><trkpt lat="41.3149274" lon="1.2350274"><ele>301.0</ele><time>2026-05-04T15:36:48.533Z</time></trkpt><trkpt lat="41.3147817" lon="1.2350582"><ele>300.25</ele><time>2026-05-04T15:36:49.545Z</time></trkpt><trkpt lat="41.3146404" lon="1.235081"><ele>299.5</ele><time>2026-05-04T15:36:50.538Z</time></trkpt><trkpt lat="41.3144853" lon="1.2351173"><ele>298.75</ele><time>2026-05-04T15:36:51.523Z</time></trkpt><trkpt lat="41.3143381" lon="1.2351382"><ele>298.0</ele><time>2026-05-04T15:36:52.547Z</time></trkpt><trkpt lat="41.3141928" lon="1.2351557"><ele>298.0</ele><time>2026-05-04T15:36:53.537Z</time></trkpt><trkpt lat="41.3140509" lon="1.2351722"><ele>298.0</ele><time>2026-05-04T15:36:54.538Z</time></trkpt><trkpt lat="41.3139108" lon="1.235193"><ele>298.0</ele><time>2026-05-04T15:36:55.538Z</time></trkpt><trkpt lat="41.3137692" lon="1.235211"><ele>298.0</ele><time>2026-05-04T15:36:56.543Z</time></trkpt><trkpt lat="41.3136354" lon="1.2352152"><ele>297.75</ele><time>2026-05-04T15:36:57.544Z</time></trkpt><trkpt lat="41.3134967" lon="1.2352111"><ele>297.5</ele><time>2026-05-04T15:36:58.542Z</time></trkpt><trkpt lat="41.3133619" lon="1.2351952"><ele>297.25</ele><time>2026-05-04T15:36:59.541Z</time></trkpt><trkpt lat="41.3132362" lon="1.2351745"><ele>297.0</ele><time>2026-05-04T15:37:00.541Z</time></trkpt><trkpt lat="41.3131096" lon="1.2351475"><ele>296.75</ele><time>2026-05-04T15:37:01.536Z</time></trkpt><trkpt lat="41.3129814" lon="1.2351276"><ele>296.5</ele><time>2026-05-04T15:37:02.539Z</time></trkpt><trkpt lat="41.3128488" lon="1.2351056"><ele>296.25</ele><time>2026-05-04T15:37:03.539Z</time></trkpt><trkpt lat="41.3127118" lon="1.2350729"><ele>296.0</ele><time>2026-05-04T15:37:04.541Z</time></trkpt><trkpt lat="41.31258" lon="1.2350435"><ele>296.0</ele><time>2026-05-04T15:37:05.54Z</time></trkpt><trkpt lat="41.3124495" lon="1.2350186"><ele>296.0</ele><time>2026-05-04T15:37:06.541Z</time></trkpt><trkpt lat="41.3123209" lon="1.2349983"><ele>296.0</ele><time>2026-05-04T15:37:07.539Z</time></trkpt><trkpt lat="41.3121936" lon="1.2349749"><ele>296.0</ele><time>2026-05-04T15:37:08.54Z</time></trkpt><trkpt lat="41.31206" lon="1.2349523"><ele>295.2</ele><time>2026-05-04T15:37:09.541Z</time></trkpt><trkpt lat="41.3119389" lon="1.2349229"><ele>294.40000000000003</ele><time>2026-05-04T15:37:10.541Z</time></trkpt><trkpt lat="41.311827" lon="1.2348865"><ele>293.6</ele><time>2026-05-04T15:37:11.536Z</time></trkpt><trkpt lat="41.3117235" lon="1.2348383"><ele>292.8</ele><time>2026-05-04T15:37:12.543Z</time></trkpt><trkpt lat="41.3116362" lon="1.234771"><ele>292.0</ele><time>2026-05-04T15:37:13.533Z</time></trkpt><trkpt lat="41.3115546" lon="1.2346932"><ele>292.0</ele><time>2026-05-04T15:37:14.533Z</time></trkpt><trkpt lat="41.311511" lon="1.2345983"><ele>292.0</ele><time>2026-05-04T15:37:15.531Z</time></trkpt><trkpt lat="41.311493" lon="1.2345102"><ele>292.0</ele><time>2026-05-04T15:37:16.52Z</time></trkpt><trkpt lat="41.3115068" lon="1.2343656"><ele>292.0</ele><time>2026-05-04T15:37:18.525Z</time></trkpt><trkpt lat="41.3115611" lon="1.2343231"><ele>292.0</ele><time>2026-05-04T15:37:28.532Z</time></trkpt><trkpt lat="41.3115806" lon="1.2341944"><ele>292.0</ele><time>2026-05-04T15:37:31.528Z</time></trkpt><trkpt lat="41.3116232" lon="1.2340504"><ele>292.2857142857143</ele><time>2026-05-04T15:37:33.531Z</time></trkpt><trkpt lat="41.3116379" lon="1.2339589"><ele>292.57142857142856</ele><time>2026-05-04T15:37:34.529Z</time></trkpt><trkpt lat="41.3116399" lon="1.2338641"><ele>292.8571428571429</ele><time>2026-05-04T15:37:35.531Z</time></trkpt><trkpt lat="41.3116244" lon="1.2337724"><ele>293.1428571428571</ele><time>2026-05-04T15:37:36.527Z</time></trkpt><trkpt lat="41.3115864" lon="1.2336949"><ele>293.42857142857144</ele><time>2026-05-04T15:37:37.526Z</time></trkpt><trkpt lat="41.3115337" lon="1.2336336"><ele>293.7142857142857</ele><time>2026-05-04T15:37:38.531Z</time></trkpt><trkpt lat="41.3114623" lon="1.2335907"><ele>294.0</ele><time>2026-05-04T15:37:39.532Z</time></trkpt><trkpt lat="41.3113813" lon="1.2335743"><ele>293.1666666666667</ele><time>2026-05-04T15:37:40.533Z</time></trkpt><trkpt lat="41.3113006" lon="1.2335891"><ele>292.3333333333333</ele><time>2026-05-04T15:37:41.533Z</time></trkpt><trkpt lat="41.3112194" lon="1.2336273"><ele>291.5</ele><time>2026-05-04T15:37:42.534Z</time></trkpt><trkpt lat="41.3111424" lon="1.2336818"><ele>290.66666666666663</ele><time>2026-05-04T15:37:43.538Z</time></trkpt><trkpt lat="41.3110793" lon="1.2337564"><ele>289.8333333333333</ele><time>2026-05-04T15:37:44.529Z</time></trkpt><trkpt lat="41.3110301" lon="1.2338551"><ele>289.0</ele><time>2026-05-04T15:37:45.527Z</time></trkpt><trkpt lat="41.3109955" lon="1.2339627"><ele>288.8333333333333</ele><time>2026-05-04T15:37:46.536Z</time></trkpt><trkpt lat="41.3109973" lon="1.234077"><ele>288.66666666666663</ele><time>2026-05-04T15:37:47.528Z</time></trkpt><trkpt lat="41.3110124" lon="1.2341868"><ele>288.5</ele><time>2026-05-04T15:37:48.545Z</time></trkpt><trkpt lat="41.3110363" lon="1.2342962"><ele>288.3333333333333</ele><time>2026-05-04T15:37:49.534Z</time></trkpt><trkpt lat="41.3110541" lon="1.2343976"><ele>288.1666666666667</ele><time>2026-05-04T15:37:50.527Z</time></trkpt><trkpt lat="41.3110504" lon="1.2344991"><ele>288.0</ele><time>2026-05-04T15:37:51.531Z</time></trkpt><trkpt lat="41.3110339" lon="1.2346035"><ele>288.0</ele><time>2026-05-04T15:37:52.531Z</time></trkpt><trkpt lat="41.3110127" lon="1.2347043"><ele>288.0</ele><time>2026-05-04T15:37:53.533Z</time></trkpt><trkpt lat="41.3109891" lon="1.2348066"><ele>288.0</ele><time>2026-05-04T15:37:54.531Z</time></trkpt><trkpt lat="41.3109613" lon="1.2348981"><ele>288.0</ele><time>2026-05-04T15:37:55.526Z</time></trkpt><trkpt lat="41.3109384" lon="1.2349848"><ele>288.0</ele><time>2026-05-04T15:37:56.523Z</time></trkpt><trkpt lat="41.3109139" lon="1.2350819"><ele>288.0</ele><time>2026-05-04T15:37:57.512Z</time></trkpt><trkpt lat="41.310899" lon="1.2351736"><ele>288.0</ele><time>2026-05-04T15:37:58.517Z</time></trkpt><trkpt lat="41.3108898" lon="1.2352741"><ele>288.0</ele><time>2026-05-04T15:37:59.514Z</time></trkpt><trkpt lat="41.3108661" lon="1.2353955"><ele>288.0</ele><time>2026-05-04T15:38:00.502Z</time></trkpt><trkpt lat="41.3108339" lon="1.2355074"><ele>288.0</ele><time>2026-05-04T15:38:01.507Z</time></trkpt><trkpt lat="41.3107861" lon="1.2356248"><ele>288.0</ele><time>2026-05-04T15:38:02.515Z</time></trkpt><trkpt lat="41.3107284" lon="1.2357259"><ele>288.2</ele><time>2026-05-04T15:38:03.52Z</time></trkpt><trkpt lat="41.3106584" lon="1.235822"><ele>288.4</ele><time>2026-05-04T15:38:04.526Z</time></trkpt><trkpt lat="41.3105775" lon="1.2358774"><ele>288.59999999999997</ele><time>2026-05-04T15:38:05.52Z</time></trkpt><trkpt lat="41.3104934" lon="1.2359245"><ele>288.8</ele><time>2026-05-04T15:38:06.525Z</time></trkpt><trkpt lat="41.3104125" lon="1.2359746"><ele>289.0</ele><time>2026-05-04T15:38:07.521Z</time></trkpt><trkpt lat="41.3103468" lon="1.2360356"><ele>288.3333333333333</ele><time>2026-05-04T15:38:08.521Z</time></trkpt><trkpt lat="41.3102915" lon="1.2361034"><ele>287.66666666666663</ele><time>2026-05-04T15:38:09.525Z</time></trkpt><trkpt lat="41.310259" lon="1.2361814"><ele>287.0</ele><time>2026-05-04T15:38:10.523Z</time></trkpt><trkpt lat="41.3102247" lon="1.2362606"><ele>286.3333333333333</ele><time>2026-05-04T15:38:11.524Z</time></trkpt><trkpt lat="41.3101548" lon="1.2363793"><ele>285.6666666666667</ele><time>2026-05-04T15:38:13.521Z</time></trkpt><trkpt lat="41.3102178" lon="1.2364297"><ele>285.0</ele><time>2026-05-04T15:38:54.529Z</time></trkpt><trkpt lat="41.3102898" lon="1.2363677"><ele>285.0</ele><time>2026-05-04T15:38:57.524Z</time></trkpt><trkpt lat="41.310176" lon="1.2363661"><ele>285.0</ele><time>2026-05-04T15:39:08.533Z</time></trkpt><trkpt lat="41.3101023" lon="1.2364123"><ele>285.0</ele><time>2026-05-04T15:39:09.524Z</time></trkpt><trkpt lat="41.3100347" lon="1.2364624"><ele>285.0</ele><time>2026-05-04T15:39:10.523Z</time></trkpt><trkpt lat="41.3099512" lon="1.2365202"><ele>285.0</ele><time>2026-05-04T15:39:11.523Z</time></trkpt><trkpt lat="41.3098627" lon="1.2365789"><ele>285.0</ele><time>2026-05-04T15:39:12.522Z</time></trkpt><trkpt lat="41.3097566" lon="1.2366279"><ele>285.0</ele><time>2026-05-04T15:39:13.517Z</time></trkpt><trkpt lat="41.3096406" lon="1.236686"><ele>285.0</ele><time>2026-05-04T15:39:14.524Z</time></trkpt><trkpt lat="41.3095146" lon="1.236746"><ele>285.0</ele><time>2026-05-04T15:39:15.525Z</time></trkpt><trkpt lat="41.3093789" lon="1.2368142"><ele>285.0</ele><time>2026-05-04T15:39:16.527Z</time></trkpt><trkpt lat="41.3092407" lon="1.2368872"><ele>285.0</ele><time>2026-05-04T15:39:17.524Z</time></trkpt><trkpt lat="41.3090997" lon="1.2369618"><ele>285.0</ele><time>2026-05-04T15:39:18.526Z</time></trkpt><trkpt lat="41.3089461" lon="1.237046"><ele>285.0</ele><time>2026-05-04T15:39:19.521Z</time></trkpt><trkpt lat="41.308786" lon="1.237125"><ele>285.0</ele><time>2026-05-04T15:39:20.527Z</time></trkpt><trkpt lat="41.3086416" lon="1.2372058"><ele>285.0</ele><time>2026-05-04T15:39:21.534Z</time></trkpt><trkpt lat="41.3084845" lon="1.2372881"><ele>284.3333333333333</ele><time>2026-05-04T15:39:22.531Z</time></trkpt><trkpt lat="41.3083244" lon="1.2373706"><ele>283.66666666666663</ele><time>2026-05-04T15:39:23.524Z</time></trkpt><trkpt lat="41.3081688" lon="1.2374421"><ele>283.0</ele><time>2026-05-04T15:39:24.529Z</time></trkpt><trkpt lat="41.3080099" lon="1.2375168"><ele>281.3333333333333</ele><time>2026-05-04T15:39:25.532Z</time></trkpt><trkpt lat="41.3078571" lon="1.2376023"><ele>279.6666666666667</ele><time>2026-05-04T15:39:26.528Z</time></trkpt><trkpt lat="41.3077035" lon="1.2377004"><ele>278.0</ele><time>2026-05-04T15:39:27.524Z</time></trkpt><trkpt lat="41.3075407" lon="1.2377862"><ele>278.0</ele><time>2026-05-04T15:39:28.529Z</time></trkpt><trkpt lat="41.3073743" lon="1.2378706"><ele>278.0</ele><time>2026-05-04T15:39:29.529Z</time></trkpt><trkpt lat="41.3072132" lon="1.2379573"><ele>278.0</ele><time>2026-05-04T15:39:30.531Z</time></trkpt><trkpt lat="41.30705" lon="1.2380449"><ele>277.0</ele><time>2026-05-04T15:39:31.531Z</time></trkpt><trkpt lat="41.3068817" lon="1.2381242"><ele>276.0</ele><time>2026-05-04T15:39:32.534Z</time></trkpt><trkpt lat="41.3067172" lon="1.2382091"><ele>275.0</ele><time>2026-05-04T15:39:33.533Z</time></trkpt><trkpt lat="41.3065479" lon="1.238291"><ele>274.0</ele><time>2026-05-04T15:39:34.531Z</time></trkpt><trkpt lat="41.3063915" lon="1.2383702"><ele>273.0</ele><time>2026-05-04T15:39:35.529Z</time></trkpt><trkpt lat="41.3062344" lon="1.2384632"><ele>272.0</ele><time>2026-05-04T15:39:36.534Z</time></trkpt><trkpt lat="41.3060797" lon="1.2385575"><ele>272.0</ele><time>2026-05-04T15:39:37.53Z</time></trkpt><trkpt lat="41.3059197" lon="1.2386481"><ele>272.0</ele><time>2026-05-04T15:39:38.532Z</time></trkpt><trkpt lat="41.3057611" lon="1.2387453"><ele>272.0</ele><time>2026-05-04T15:39:39.528Z</time></trkpt><trkpt lat="41.3056091" lon="1.2388387"><ele>271.0</ele><time>2026-05-04T15:39:40.531Z</time></trkpt><trkpt lat="41.305459" lon="1.2389411"><ele>270.0</ele><time>2026-05-04T15:39:41.532Z</time></trkpt><trkpt lat="41.30531" lon="1.2390405"><ele>269.0</ele><time>2026-05-04T15:39:42.532Z</time></trkpt><trkpt lat="41.305169" lon="1.2391349"><ele>268.0</ele><time>2026-05-04T15:39:43.534Z</time></trkpt><trkpt lat="41.3050311" lon="1.2392332"><ele>267.0</ele><time>2026-05-04T15:39:44.531Z</time></trkpt><trkpt lat="41.3048947" lon="1.239323"><ele>266.0</ele><time>2026-05-04T15:39:45.531Z</time></trkpt><trkpt lat="41.3047676" lon="1.23941"><ele>265.6</ele><time>2026-05-04T15:39:46.529Z</time></trkpt><trkpt lat="41.3046487" lon="1.2394857"><ele>265.20000000000005</ele><time>2026-05-04T15:39:47.529Z</time></trkpt><trkpt lat="41.3045536" lon="1.2395558"><ele>264.79999999999995</ele><time>2026-05-04T15:39:48.529Z</time></trkpt><trkpt lat="41.304466" lon="1.2396142"><ele>264.4</ele><time>2026-05-04T15:39:49.538Z</time></trkpt><trkpt lat="41.3043649" lon="1.2396621"><ele>264.0</ele><time>2026-05-04T15:39:50.532Z</time></trkpt><trkpt lat="41.3042665" lon="1.2396984"><ele>264.0</ele><time>2026-05-04T15:39:51.536Z</time></trkpt><trkpt lat="41.3041561" lon="1.2397197"><ele>264.0</ele><time>2026-05-04T15:39:52.541Z</time></trkpt><trkpt lat="41.3040682" lon="1.2397502"><ele>264.0</ele><time>2026-05-04T15:39:53.529Z</time></trkpt><trkpt lat="41.303996" lon="1.2398052"><ele>264.0</ele><time>2026-05-04T15:39:54.525Z</time></trkpt><trkpt lat="41.3039353" lon="1.2398806"><ele>264.0</ele><time>2026-05-04T15:39:55.522Z</time></trkpt><trkpt lat="41.3038922" lon="1.2399643"><ele>264.0</ele><time>2026-05-04T15:39:56.53Z</time></trkpt><trkpt lat="41.3038777" lon="1.2400534"><ele>263.5</ele><time>2026-05-04T15:39:57.526Z</time></trkpt><trkpt lat="41.3038939" lon="1.2401445"><ele>263.0</ele><time>2026-05-04T15:39:58.519Z</time></trkpt><trkpt lat="41.3039287" lon="1.2402347"><ele>262.5</ele><time>2026-05-04T15:39:59.524Z</time></trkpt><trkpt lat="41.3039776" lon="1.2403289"><ele>262.0</ele><time>2026-05-04T15:40:00.526Z</time></trkpt><trkpt lat="41.3040196" lon="1.2404392"><ele>261.5</ele><time>2026-05-04T15:40:01.522Z</time></trkpt><trkpt lat="41.3040359" lon="1.2405605"><ele>261.0</ele><time>2026-05-04T15:40:02.528Z</time></trkpt><trkpt lat="41.3040303" lon="1.2406969"><ele>260.25</ele><time>2026-05-04T15:40:03.518Z</time></trkpt><trkpt lat="41.3040116" lon="1.2408467"><ele>259.5</ele><time>2026-05-04T15:40:04.518Z</time></trkpt><trkpt lat="41.303989" lon="1.241002"><ele>258.75</ele><time>2026-05-04T15:40:05.519Z</time></trkpt><trkpt lat="41.3039656" lon="1.2411714"><ele>258.0</ele><time>2026-05-04T15:40:06.527Z</time></trkpt><trkpt lat="41.3039487" lon="1.2413521"><ele>257.3333333333333</ele><time>2026-05-04T15:40:07.523Z</time></trkpt><trkpt lat="41.3039401" lon="1.2415416"><ele>256.66666666666663</ele><time>2026-05-04T15:40:08.526Z</time></trkpt><trkpt lat="41.303942" lon="1.2417389"><ele>256.0</ele><time>2026-05-04T15:40:09.525Z</time></trkpt><trkpt lat="41.3039525" lon="1.2419507"><ele>256.0</ele><time>2026-05-04T15:40:10.525Z</time></trkpt><trkpt lat="41.3039729" lon="1.2421577"><ele>256.0</ele><time>2026-05-04T15:40:11.525Z</time></trkpt><trkpt lat="41.3039909" lon="1.2423594"><ele>256.0</ele><time>2026-05-04T15:40:12.526Z</time></trkpt><trkpt lat="41.3040019" lon="1.2425763"><ele>256.0</ele><time>2026-05-04T15:40:13.529Z</time></trkpt><trkpt lat="41.3040154" lon="1.2427946"><ele>256.0</ele><time>2026-05-04T15:40:14.528Z</time></trkpt><trkpt lat="41.3040265" lon="1.2430108"><ele>256.0</ele><time>2026-05-04T15:40:15.527Z</time></trkpt><trkpt lat="41.3040387" lon="1.2432313"><ele>256.3333333333333</ele><time>2026-05-04T15:40:16.525Z</time></trkpt><trkpt lat="41.3040537" lon="1.2434535"><ele>256.6666666666667</ele><time>2026-05-04T15:40:17.525Z</time></trkpt><trkpt lat="41.3040679" lon="1.2436764"><ele>257.0</ele><time>2026-05-04T15:40:18.526Z</time></trkpt><trkpt lat="41.3040796" lon="1.2438996"><ele>257.0</ele><time>2026-05-04T15:40:19.527Z</time></trkpt><trkpt lat="41.3040898" lon="1.2441303"><ele>257.0</ele><time>2026-05-04T15:40:20.531Z</time></trkpt><trkpt lat="41.3041042" lon="1.2443634"><ele>257.0</ele><time>2026-05-04T15:40:21.529Z</time></trkpt><trkpt lat="41.3041217" lon="1.2445919"><ele>257.6666666666667</ele><time>2026-05-04T15:40:22.529Z</time></trkpt><trkpt lat="41.3041399" lon="1.2448275"><ele>258.3333333333333</ele><time>2026-05-04T15:40:23.536Z</time></trkpt><trkpt lat="41.3041596" lon="1.2450659"><ele>259.0</ele><time>2026-05-04T15:40:24.526Z</time></trkpt><trkpt lat="41.3041715" lon="1.2453028"><ele>259.0</ele><time>2026-05-04T15:40:25.525Z</time></trkpt><trkpt lat="41.3041851" lon="1.2455437"><ele>259.0</ele><time>2026-05-04T15:40:26.52Z</time></trkpt><trkpt lat="41.3041977" lon="1.2457837"><ele>259.0</ele><time>2026-05-04T15:40:27.523Z</time></trkpt><trkpt lat="41.3042072" lon="1.2460283"><ele>258.66666666666663</ele><time>2026-05-04T15:40:28.523Z</time></trkpt><trkpt lat="41.3042206" lon="1.2462764"><ele>258.3333333333333</ele><time>2026-05-04T15:40:29.521Z</time></trkpt><trkpt lat="41.3042364" lon="1.2465187"><ele>258.0</ele><time>2026-05-04T15:40:30.529Z</time></trkpt><trkpt lat="41.3042519" lon="1.2467624"><ele>257.0</ele><time>2026-05-04T15:40:31.523Z</time></trkpt><trkpt lat="41.3042642" lon="1.2470121"><ele>256.0</ele><time>2026-05-04T15:40:32.524Z</time></trkpt><trkpt lat="41.304265" lon="1.2472591"><ele>255.0</ele><time>2026-05-04T15:40:33.52Z</time></trkpt><trkpt lat="41.3042574" lon="1.2475136"><ele>254.33333333333331</ele><time>2026-05-04T15:40:34.522Z</time></trkpt><trkpt lat="41.3042428" lon="1.247771"><ele>253.66666666666666</ele><time>2026-05-04T15:40:35.517Z</time></trkpt><trkpt lat="41.3042173" lon="1.2480286"><ele>253.0</ele><time>2026-05-04T15:40:36.521Z</time></trkpt><trkpt lat="41.3041833" lon="1.2482787"><ele>252.33333333333331</ele><time>2026-05-04T15:40:37.518Z</time></trkpt><trkpt lat="41.3041459" lon="1.2485219"><ele>251.66666666666669</ele><time>2026-05-04T15:40:38.523Z</time></trkpt><trkpt lat="41.3040925" lon="1.2487678"><ele>251.0</ele><time>2026-05-04T15:40:39.524Z</time></trkpt><trkpt lat="41.304039" lon="1.2490122"><ele>250.0</ele><time>2026-05-04T15:40:40.526Z</time></trkpt><trkpt lat="41.3039856" lon="1.2492566"><ele>249.0</ele><time>2026-05-04T15:40:41.526Z</time></trkpt><trkpt lat="41.3039236" lon="1.2494989"><ele>248.0</ele><time>2026-05-04T15:40:42.531Z</time></trkpt><trkpt lat="41.3038618" lon="1.2497407"><ele>248.0</ele><time>2026-05-04T15:40:43.534Z</time></trkpt><trkpt lat="41.3038099" lon="1.2499851"><ele>248.0</ele><time>2026-05-04T15:40:44.528Z</time></trkpt><trkpt lat="41.3037589" lon="1.2502315"><ele>248.0</ele><time>2026-05-04T15:40:45.526Z</time></trkpt><trkpt lat="41.3037041" lon="1.2504744"><ele>249.33333333333334</ele><time>2026-05-04T15:40:46.532Z</time></trkpt><trkpt lat="41.3036417" lon="1.2507084"><ele>250.66666666666669</ele><time>2026-05-04T15:40:47.521Z</time></trkpt><trkpt lat="41.3035857" lon="1.2509419"><ele>252.0</ele><time>2026-05-04T15:40:48.533Z</time></trkpt><trkpt lat="41.3035334" lon="1.2511722"><ele>252.0</ele><time>2026-05-04T15:40:49.525Z</time></trkpt><trkpt lat="41.3034763" lon="1.2513992"><ele>252.0</ele><time>2026-05-04T15:40:50.527Z</time></trkpt><trkpt lat="41.3034126" lon="1.2516322"><ele>252.0</ele><time>2026-05-04T15:40:51.53Z</time></trkpt><trkpt lat="41.3033448" lon="1.2518703"><ele>252.0</ele><time>2026-05-04T15:40:52.527Z</time></trkpt><trkpt lat="41.3032873" lon="1.2520994"><ele>252.0</ele><time>2026-05-04T15:40:53.53Z</time></trkpt><trkpt lat="41.3032324" lon="1.252333"><ele>252.0</ele><time>2026-05-04T15:40:54.539Z</time></trkpt><trkpt lat="41.3031638" lon="1.2525661"><ele>252.0</ele><time>2026-05-04T15:40:55.524Z</time></trkpt><trkpt lat="41.3030939" lon="1.2527837"><ele>252.0</ele><time>2026-05-04T15:40:56.522Z</time></trkpt><trkpt lat="41.3030272" lon="1.2530092"><ele>252.0</ele><time>2026-05-04T15:40:57.518Z</time></trkpt><trkpt lat="41.3029546" lon="1.2532332"><ele>252.66666666666669</ele><time>2026-05-04T15:40:58.518Z</time></trkpt><trkpt lat="41.3028823" lon="1.2534545"><ele>253.33333333333334</ele><time>2026-05-04T15:40:59.513Z</time></trkpt><trkpt lat="41.3028134" lon="1.2536744"><ele>254.0</ele><time>2026-05-04T15:41:00.516Z</time></trkpt><trkpt lat="41.3027442" lon="1.2538879"><ele>253.66666666666669</ele><time>2026-05-04T15:41:01.518Z</time></trkpt><trkpt lat="41.3026781" lon="1.2540924"><ele>253.33333333333331</ele><time>2026-05-04T15:41:02.516Z</time></trkpt><trkpt lat="41.3026149" lon="1.2543019"><ele>253.0</ele><time>2026-05-04T15:41:03.517Z</time></trkpt><trkpt lat="41.3025474" lon="1.2545124"><ele>253.0</ele><time>2026-05-04T15:41:04.519Z</time></trkpt><trkpt lat="41.3024799" lon="1.2547293"><ele>253.0</ele><time>2026-05-04T15:41:05.516Z</time></trkpt><trkpt lat="41.3024161" lon="1.2549471"><ele>253.0</ele><time>2026-05-04T15:41:06.521Z</time></trkpt><trkpt lat="41.302353" lon="1.2551588"><ele>251.33333333333331</ele><time>2026-05-04T15:41:07.517Z</time></trkpt><trkpt lat="41.3022857" lon="1.2553725"><ele>249.66666666666669</ele><time>2026-05-04T15:41:08.522Z</time></trkpt><trkpt lat="41.3022204" lon="1.2555721"><ele>248.0</ele><time>2026-05-04T15:41:09.522Z</time></trkpt><trkpt lat="41.3021602" lon="1.2557556"><ele>246.5</ele><time>2026-05-04T15:41:10.525Z</time></trkpt><trkpt lat="41.3021029" lon="1.2559241"><ele>245.0</ele><time>2026-05-04T15:41:11.523Z</time></trkpt><trkpt lat="41.3020535" lon="1.256083"><ele>243.5</ele><time>2026-05-04T15:41:12.525Z</time></trkpt><trkpt lat="41.3019992" lon="1.2562498"><ele>242.0</ele><time>2026-05-04T15:41:13.528Z</time></trkpt><trkpt lat="41.3019381" lon="1.2564103"><ele>241.5</ele><time>2026-05-04T15:41:14.525Z</time></trkpt><trkpt lat="41.3018828" lon="1.2565792"><ele>241.0</ele><time>2026-05-04T15:41:15.526Z</time></trkpt><trkpt lat="41.3018248" lon="1.2567534"><ele>240.5</ele><time>2026-05-04T15:41:16.51Z</time></trkpt><trkpt lat="41.301752" lon="1.2569422"><ele>240.0</ele><time>2026-05-04T15:41:17.531Z</time></trkpt><trkpt lat="41.3016759" lon="1.2571316"><ele>241.66666666666669</ele><time>2026-05-04T15:41:18.528Z</time></trkpt><trkpt lat="41.3015996" lon="1.2573252"><ele>243.33333333333334</ele><time>2026-05-04T15:41:19.527Z</time></trkpt><trkpt lat="41.3015284" lon="1.2575175"><ele>245.0</ele><time>2026-05-04T15:41:20.528Z</time></trkpt><trkpt lat="41.3014555" lon="1.2577236"><ele>244.0</ele><time>2026-05-04T15:41:21.525Z</time></trkpt><trkpt lat="41.301383" lon="1.2579317"><ele>243.0</ele><time>2026-05-04T15:41:22.521Z</time></trkpt><trkpt lat="41.3013005" lon="1.2581298"><ele>242.0</ele><time>2026-05-04T15:41:23.521Z</time></trkpt><trkpt lat="41.3012201" lon="1.2583396"><ele>244.33333333333334</ele><time>2026-05-04T15:41:24.524Z</time></trkpt><trkpt lat="41.3011471" lon="1.258544"><ele>246.66666666666669</ele><time>2026-05-04T15:41:25.542Z</time></trkpt><trkpt lat="41.3010763" lon="1.2587471"><ele>249.0</ele><time>2026-05-04T15:41:26.521Z</time></trkpt><trkpt lat="41.3010054" lon="1.2589594"><ele>250.66666666666669</ele><time>2026-05-04T15:41:27.52Z</time></trkpt><trkpt lat="41.3009301" lon="1.2591695"><ele>252.33333333333334</ele><time>2026-05-04T15:41:28.523Z</time></trkpt><trkpt lat="41.3008471" lon="1.2593801"><ele>254.0</ele><time>2026-05-04T15:41:29.526Z</time></trkpt><trkpt lat="41.3007694" lon="1.2595915"><ele>254.0</ele><time>2026-05-04T15:41:30.525Z</time></trkpt><trkpt lat="41.300688" lon="1.2598092"><ele>254.0</ele><time>2026-05-04T15:41:31.519Z</time></trkpt><trkpt lat="41.3006161" lon="1.2600147"><ele>254.0</ele><time>2026-05-04T15:41:32.521Z</time></trkpt><trkpt lat="41.3005397" lon="1.2602283"><ele>253.0</ele><time>2026-05-04T15:41:33.517Z</time></trkpt><trkpt lat="41.3004644" lon="1.2604356"><ele>252.0</ele><time>2026-05-04T15:41:34.516Z</time></trkpt><trkpt lat="41.3003802" lon="1.260629"><ele>251.0</ele><time>2026-05-04T15:41:35.522Z</time></trkpt><trkpt lat="41.3003091" lon="1.2608328"><ele>250.66666666666669</ele><time>2026-05-04T15:41:36.518Z</time></trkpt><trkpt lat="41.30024" lon="1.2610363"><ele>250.33333333333331</ele><time>2026-05-04T15:41:37.52Z</time></trkpt><trkpt lat="41.300167" lon="1.2612349"><ele>250.0</ele><time>2026-05-04T15:41:38.517Z</time></trkpt><trkpt lat="41.300099" lon="1.2614138"><ele>249.5</ele><time>2026-05-04T15:41:39.523Z</time></trkpt><trkpt lat="41.3000379" lon="1.2615826"><ele>249.0</ele><time>2026-05-04T15:41:40.518Z</time></trkpt><trkpt lat="41.2999766" lon="1.2617484"><ele>248.5</ele><time>2026-05-04T15:41:41.521Z</time></trkpt><trkpt lat="41.299912" lon="1.2619047"><ele>248.0</ele><time>2026-05-04T15:41:42.52Z</time></trkpt><trkpt lat="41.2998498" lon="1.2620494"><ele>248.0</ele><time>2026-05-04T15:41:43.526Z</time></trkpt><trkpt lat="41.2997812" lon="1.2622192"><ele>248.0</ele><time>2026-05-04T15:41:44.518Z</time></trkpt><trkpt lat="41.2997148" lon="1.2623838"><ele>248.0</ele><time>2026-05-04T15:41:45.52Z</time></trkpt><trkpt lat="41.2996496" lon="1.2625504"><ele>248.0</ele><time>2026-05-04T15:41:46.531Z</time></trkpt><trkpt lat="41.2995823" lon="1.2627216"><ele>248.0</ele><time>2026-05-04T15:41:47.524Z</time></trkpt><trkpt lat="41.299518" lon="1.2628917"><ele>248.0</ele><time>2026-05-04T15:41:48.524Z</time></trkpt><trkpt lat="41.2994501" lon="1.2630553"><ele>248.0</ele><time>2026-05-04T15:41:49.528Z</time></trkpt><trkpt lat="41.2993786" lon="1.2632196"><ele>248.0</ele><time>2026-05-04T15:41:50.529Z</time></trkpt><trkpt lat="41.2993045" lon="1.2633841"><ele>248.5</ele><time>2026-05-04T15:41:51.536Z</time></trkpt><trkpt lat="41.2992262" lon="1.2635568"><ele>249.0</ele><time>2026-05-04T15:41:52.534Z</time></trkpt><trkpt lat="41.2991486" lon="1.263714"><ele>249.5</ele><time>2026-05-04T15:41:53.52Z</time></trkpt><trkpt lat="41.2990697" lon="1.2638814"><ele>250.0</ele><time>2026-05-04T15:41:54.527Z</time></trkpt><trkpt lat="41.2989871" lon="1.2640314"><ele>250.0</ele><time>2026-05-04T15:41:55.522Z</time></trkpt><trkpt lat="41.2989041" lon="1.2641937"><ele>250.0</ele><time>2026-05-04T15:41:56.532Z</time></trkpt><trkpt lat="41.2988317" lon="1.2643457"><ele>250.0</ele><time>2026-05-04T15:41:57.509Z</time></trkpt><trkpt lat="41.2987446" lon="1.2644914"><ele>250.0</ele><time>2026-05-04T15:41:58.517Z</time></trkpt><trkpt lat="41.2986478" lon="1.2646389"><ele>250.25</ele><time>2026-05-04T15:41:59.519Z</time></trkpt><trkpt lat="41.2985531" lon="1.2647908"><ele>250.5</ele><time>2026-05-04T15:42:00.524Z</time></trkpt><trkpt lat="41.2984562" lon="1.2649324"><ele>250.75</ele><time>2026-05-04T15:42:01.521Z</time></trkpt><trkpt lat="41.2983528" lon="1.2650715"><ele>251.0</ele><time>2026-05-04T15:42:02.52Z</time></trkpt><trkpt lat="41.2982481" lon="1.2652053"><ele>251.0</ele><time>2026-05-04T15:42:03.522Z</time></trkpt><trkpt lat="41.2981386" lon="1.2653417"><ele>251.0</ele><time>2026-05-04T15:42:04.521Z</time></trkpt><trkpt lat="41.2980293" lon="1.2654656"><ele>251.0</ele><time>2026-05-04T15:42:05.522Z</time></trkpt><trkpt lat="41.2979222" lon="1.2655878"><ele>251.0</ele><time>2026-05-04T15:42:06.519Z</time></trkpt><trkpt lat="41.2978117" lon="1.2657098"><ele>249.75</ele><time>2026-05-04T15:42:07.517Z</time></trkpt><trkpt lat="41.2976971" lon="1.2658223"><ele>248.5</ele><time>2026-05-04T15:42:08.519Z</time></trkpt><trkpt lat="41.2975811" lon="1.2659366"><ele>247.25</ele><time>2026-05-04T15:42:09.518Z</time></trkpt><trkpt lat="41.2974569" lon="1.2660491"><ele>246.0</ele><time>2026-05-04T15:42:10.526Z</time></trkpt><trkpt lat="41.2973261" lon="1.2661458"><ele>245.25</ele><time>2026-05-04T15:42:11.526Z</time></trkpt><trkpt lat="41.2971965" lon="1.2662359"><ele>244.5</ele><time>2026-05-04T15:42:12.53Z</time></trkpt><trkpt lat="41.2970627" lon="1.2663237"><ele>243.75</ele><time>2026-05-04T15:42:13.531Z</time></trkpt><trkpt lat="41.2969235" lon="1.2664044"><ele>243.0</ele><time>2026-05-04T15:42:14.533Z</time></trkpt><trkpt lat="41.296791" lon="1.2664698"><ele>242.0</ele><time>2026-05-04T15:42:15.538Z</time></trkpt><trkpt lat="41.2966504" lon="1.2665348"><ele>241.0</ele><time>2026-05-04T15:42:16.536Z</time></trkpt><trkpt lat="41.2965156" lon="1.2666021"><ele>240.0</ele><time>2026-05-04T15:42:17.529Z</time></trkpt><trkpt lat="41.2963822" lon="1.2666674"><ele>239.0</ele><time>2026-05-04T15:42:18.53Z</time></trkpt><trkpt lat="41.2962472" lon="1.2667395"><ele>239.0</ele><time>2026-05-04T15:42:19.528Z</time></trkpt><trkpt lat="41.2961109" lon="1.2668054"><ele>239.0</ele><time>2026-05-04T15:42:20.53Z</time></trkpt><trkpt lat="41.2959734" lon="1.266879"><ele>239.0</ele><time>2026-05-04T15:42:21.534Z</time></trkpt><trkpt lat="41.295826" lon="1.2669465"><ele>239.0</ele><time>2026-05-04T15:42:22.528Z</time></trkpt><trkpt lat="41.2956854" lon="1.2670191"><ele>238.5</ele><time>2026-05-04T15:42:23.529Z</time></trkpt><trkpt lat="41.2955456" lon="1.2670864"><ele>238.0</ele><time>2026-05-04T15:42:24.529Z</time></trkpt><trkpt lat="41.295408" lon="1.2671591"><ele>237.5</ele><time>2026-05-04T15:42:25.532Z</time></trkpt><trkpt lat="41.2952759" lon="1.2672227"><ele>237.0</ele><time>2026-05-04T15:42:26.531Z</time></trkpt><trkpt lat="41.2951484" lon="1.2672843"><ele>236.0</ele><time>2026-05-04T15:42:27.543Z</time></trkpt><trkpt lat="41.2950177" lon="1.2673522"><ele>235.0</ele><time>2026-05-04T15:42:28.53Z</time></trkpt><trkpt lat="41.2948828" lon="1.2674205"><ele>234.0</ele><time>2026-05-04T15:42:29.531Z</time></trkpt><trkpt lat="41.2947425" lon="1.267489"><ele>233.0</ele><time>2026-05-04T15:42:30.534Z</time></trkpt><trkpt lat="41.2946029" lon="1.2675517"><ele>233.0</ele><time>2026-05-04T15:42:31.529Z</time></trkpt><trkpt lat="41.2944663" lon="1.2676177"><ele>233.0</ele><time>2026-05-04T15:42:32.529Z</time></trkpt><trkpt lat="41.2943325" lon="1.267683"><ele>233.0</ele><time>2026-05-04T15:42:33.53Z</time></trkpt><trkpt lat="41.2941975" lon="1.2677523"><ele>233.0</ele><time>2026-05-04T15:42:34.533Z</time></trkpt><trkpt lat="41.2940608" lon="1.2678241"><ele>233.0</ele><time>2026-05-04T15:42:35.534Z</time></trkpt><trkpt lat="41.2939278" lon="1.2679028"><ele>233.0</ele><time>2026-05-04T15:42:36.528Z</time></trkpt><trkpt lat="41.2938016" lon="1.2679889"><ele>233.0</ele><time>2026-05-04T15:42:37.528Z</time></trkpt><trkpt lat="41.2936799" lon="1.2680745"><ele>233.0</ele><time>2026-05-04T15:42:38.53Z</time></trkpt><trkpt lat="41.2935571" lon="1.2681693"><ele>233.5</ele><time>2026-05-04T15:42:39.529Z</time></trkpt><trkpt lat="41.2934394" lon="1.2682615"><ele>234.0</ele><time>2026-05-04T15:42:40.528Z</time></trkpt><trkpt lat="41.2933227" lon="1.2683601"><ele>234.5</ele><time>2026-05-04T15:42:41.536Z</time></trkpt><trkpt lat="41.2932073" lon="1.2684744"><ele>235.0</ele><time>2026-05-04T15:42:42.53Z</time></trkpt><trkpt lat="41.2930941" lon="1.2685926"><ele>235.25</ele><time>2026-05-04T15:42:43.535Z</time></trkpt><trkpt lat="41.2929897" lon="1.2687122"><ele>235.5</ele><time>2026-05-04T15:42:44.532Z</time></trkpt><trkpt lat="41.2928851" lon="1.2688358"><ele>235.75</ele><time>2026-05-04T15:42:45.535Z</time></trkpt><trkpt lat="41.292786" lon="1.2689588"><ele>236.0</ele><time>2026-05-04T15:42:46.541Z</time></trkpt><trkpt lat="41.2926902" lon="1.2690852"><ele>236.75</ele><time>2026-05-04T15:42:47.54Z</time></trkpt><trkpt lat="41.2925956" lon="1.2692293"><ele>237.5</ele><time>2026-05-04T15:42:48.538Z</time></trkpt><trkpt lat="41.292503" lon="1.2693748"><ele>238.25</ele><time>2026-05-04T15:42:49.536Z</time></trkpt><trkpt lat="41.2924175" lon="1.26952"><ele>239.0</ele><time>2026-05-04T15:42:50.536Z</time></trkpt><trkpt lat="41.2923276" lon="1.2696567"><ele>239.75</ele><time>2026-05-04T15:42:51.527Z</time></trkpt><trkpt lat="41.2922284" lon="1.2698177"><ele>240.5</ele><time>2026-05-04T15:42:52.519Z</time></trkpt><trkpt lat="41.2921451" lon="1.2699593"><ele>241.25</ele><time>2026-05-04T15:42:53.521Z</time></trkpt><trkpt lat="41.2920639" lon="1.2700923"><ele>242.0</ele><time>2026-05-04T15:42:54.518Z</time></trkpt><trkpt lat="41.2919825" lon="1.2702168"><ele>242.0</ele><time>2026-05-04T15:42:55.518Z</time></trkpt><trkpt lat="41.2919201" lon="1.2703282"><ele>242.0</ele><time>2026-05-04T15:42:56.521Z</time></trkpt><trkpt lat="41.2918488" lon="1.2704278"><ele>242.0</ele><time>2026-05-04T15:42:57.518Z</time></trkpt><trkpt lat="41.2917709" lon="1.2705338"><ele>242.0</ele><time>2026-05-04T15:42:58.534Z</time></trkpt><trkpt lat="41.2916914" lon="1.2706336"><ele>242.0</ele><time>2026-05-04T15:42:59.527Z</time></trkpt><trkpt lat="41.2916043" lon="1.2707299"><ele>242.25</ele><time>2026-05-04T15:43:00.529Z</time></trkpt><trkpt lat="41.2915127" lon="1.2708234"><ele>242.5</ele><time>2026-05-04T15:43:01.529Z</time></trkpt><trkpt lat="41.2914122" lon="1.2709128"><ele>242.75</ele><time>2026-05-04T15:43:02.531Z</time></trkpt><trkpt lat="41.2913077" lon="1.2710006"><ele>243.0</ele><time>2026-05-04T15:43:03.531Z</time></trkpt><trkpt lat="41.2912012" lon="1.2710834"><ele>243.25</ele><time>2026-05-04T15:43:04.533Z</time></trkpt><trkpt lat="41.2910906" lon="1.2711508"><ele>243.5</ele><time>2026-05-04T15:43:05.532Z</time></trkpt><trkpt lat="41.290975" lon="1.2712104"><ele>243.75</ele><time>2026-05-04T15:43:06.534Z</time></trkpt><trkpt lat="41.2908536" lon="1.2712617"><ele>244.0</ele><time>2026-05-04T15:43:07.53Z</time></trkpt><trkpt lat="41.2907321" lon="1.2713041"><ele>244.0</ele><time>2026-05-04T15:43:08.53Z</time></trkpt><trkpt lat="41.290488" lon="1.2713661"><ele>244.0</ele><time>2026-05-04T15:43:10.533Z</time></trkpt><trkpt lat="41.2903638" lon="1.2713976"><ele>244.0</ele><time>2026-05-04T15:43:11.529Z</time></trkpt><trkpt lat="41.290247" lon="1.2714255"><ele>244.0</ele><time>2026-05-04T15:43:12.53Z</time></trkpt><trkpt lat="41.2901381" lon="1.271451"><ele>243.99999999999997</ele><time>2026-05-04T15:43:13.534Z</time></trkpt><trkpt lat="41.2900407" lon="1.2714635"><ele>243.99999999999997</ele><time>2026-05-04T15:43:14.531Z</time></trkpt><trkpt lat="41.289953" lon="1.2714616"><ele>244.0</ele><time>2026-05-04T15:43:15.528Z</time></trkpt><trkpt lat="41.2898694" lon="1.2714399"><ele>244.0</ele><time>2026-05-04T15:43:16.528Z</time></trkpt><trkpt lat="41.2897903" lon="1.2714029"><ele>243.83333333333331</ele><time>2026-05-04T15:43:17.529Z</time></trkpt><trkpt lat="41.289715" lon="1.2713615"><ele>243.66666666666666</ele><time>2026-05-04T15:43:18.532Z</time></trkpt><trkpt lat="41.2896412" lon="1.2713305"><ele>243.5</ele><time>2026-05-04T15:43:19.525Z</time></trkpt><trkpt lat="41.2895677" lon="1.2713209"><ele>243.33333333333331</ele><time>2026-05-04T15:43:20.531Z</time></trkpt><trkpt lat="41.289498" lon="1.2713451"><ele>243.16666666666666</ele><time>2026-05-04T15:43:21.532Z</time></trkpt><trkpt lat="41.2894428" lon="1.2714065"><ele>243.0</ele><time>2026-05-04T15:43:22.535Z</time></trkpt><trkpt lat="41.2894117" lon="1.271508"><ele>243.0</ele><time>2026-05-04T15:43:23.526Z</time></trkpt><trkpt lat="41.2894021" lon="1.2716133"><ele>243.0</ele><time>2026-05-04T15:43:24.526Z</time></trkpt><trkpt lat="41.2894195" lon="1.2717207"><ele>243.0</ele><time>2026-05-04T15:43:25.531Z</time></trkpt><trkpt lat="41.2894596" lon="1.2718206"><ele>243.0</ele><time>2026-05-04T15:43:26.529Z</time></trkpt><trkpt lat="41.289514" lon="1.2719097"><ele>243.0</ele><time>2026-05-04T15:43:27.528Z</time></trkpt><trkpt lat="41.2895734" lon="1.2720078"><ele>243.0</ele><time>2026-05-04T15:43:28.532Z</time></trkpt><trkpt lat="41.2896287" lon="1.2721136"><ele>243.0</ele><time>2026-05-04T15:43:29.544Z</time></trkpt><trkpt lat="41.2896816" lon="1.2722309"><ele>243.0</ele><time>2026-05-04T15:43:30.532Z</time></trkpt><trkpt lat="41.2897294" lon="1.272355"><ele>243.0</ele><time>2026-05-04T15:43:31.532Z</time></trkpt><trkpt lat="41.289771" lon="1.2724853"><ele>243.0</ele><time>2026-05-04T15:43:32.529Z</time></trkpt><trkpt lat="41.2898469" lon="1.272746"><ele>242.8</ele><time>2026-05-04T15:43:34.532Z</time></trkpt><trkpt lat="41.2898843" lon="1.2728791"><ele>242.60000000000002</ele><time>2026-05-04T15:43:35.53Z</time></trkpt><trkpt lat="41.2899259" lon="1.2730151"><ele>242.39999999999998</ele><time>2026-05-04T15:43:36.535Z</time></trkpt><trkpt lat="41.2899679" lon="1.2731505"><ele>242.2</ele><time>2026-05-04T15:43:37.521Z</time></trkpt><trkpt lat="41.2900068" lon="1.2732906"><ele>242.0</ele><time>2026-05-04T15:43:38.536Z</time></trkpt><trkpt lat="41.2900465" lon="1.2734337"><ele>242.0</ele><time>2026-05-04T15:43:39.53Z</time></trkpt><trkpt lat="41.2900871" lon="1.2735793"><ele>242.0</ele><time>2026-05-04T15:43:40.53Z</time></trkpt><trkpt lat="41.2901282" lon="1.2737254"><ele>242.0</ele><time>2026-05-04T15:43:41.529Z</time></trkpt><trkpt lat="41.2901715" lon="1.2738707"><ele>242.0</ele><time>2026-05-04T15:43:42.529Z</time></trkpt><trkpt lat="41.2902132" lon="1.2740151"><ele>242.25</ele><time>2026-05-04T15:43:43.53Z</time></trkpt><trkpt lat="41.2902588" lon="1.2741553"><ele>242.5</ele><time>2026-05-04T15:43:44.533Z</time></trkpt><trkpt lat="41.2903037" lon="1.2742915"><ele>242.75</ele><time>2026-05-04T15:43:45.532Z</time></trkpt><trkpt lat="41.2903499" lon="1.2744295"><ele>243.0</ele><time>2026-05-04T15:43:46.532Z</time></trkpt><trkpt lat="41.2903925" lon="1.2745692"><ele>243.0</ele><time>2026-05-04T15:43:47.533Z</time></trkpt><trkpt lat="41.2904419" lon="1.2747131"><ele>243.0</ele><time>2026-05-04T15:43:48.533Z</time></trkpt><trkpt lat="41.2904845" lon="1.2748619"><ele>243.0</ele><time>2026-05-04T15:43:49.534Z</time></trkpt><trkpt lat="41.2905258" lon="1.2750125"><ele>243.0</ele><time>2026-05-04T15:43:50.534Z</time></trkpt><trkpt lat="41.2905685" lon="1.2751643"><ele>243.25</ele><time>2026-05-04T15:43:51.535Z</time></trkpt><trkpt lat="41.2906114" lon="1.2753193"><ele>243.5</ele><time>2026-05-04T15:43:52.536Z</time></trkpt><trkpt lat="41.2906553" lon="1.2754748"><ele>243.75</ele><time>2026-05-04T15:43:53.533Z</time></trkpt><trkpt lat="41.2907024" lon="1.2756304"><ele>244.0</ele><time>2026-05-04T15:43:54.54Z</time></trkpt><trkpt lat="41.2907493" lon="1.275791"><ele>244.25</ele><time>2026-05-04T15:43:55.536Z</time></trkpt><trkpt lat="41.2907983" lon="1.2759503"><ele>244.5</ele><time>2026-05-04T15:43:56.535Z</time></trkpt><trkpt lat="41.2908514" lon="1.276112"><ele>244.75</ele><time>2026-05-04T15:43:57.536Z</time></trkpt><trkpt lat="41.2908974" lon="1.2762734"><ele>245.0</ele><time>2026-05-04T15:43:58.537Z</time></trkpt><trkpt lat="41.2909436" lon="1.2764376"><ele>244.5</ele><time>2026-05-04T15:43:59.534Z</time></trkpt><trkpt lat="41.2909903" lon="1.2766015"><ele>244.0</ele><time>2026-05-04T15:44:00.55Z</time></trkpt><trkpt lat="41.2910373" lon="1.2767613"><ele>243.5</ele><time>2026-05-04T15:44:01.532Z</time></trkpt><trkpt lat="41.2910804" lon="1.2769205"><ele>243.0</ele><time>2026-05-04T15:44:02.529Z</time></trkpt><trkpt lat="41.2911305" lon="1.2770736"><ele>243.0</ele><time>2026-05-04T15:44:03.531Z</time></trkpt><trkpt lat="41.2911774" lon="1.2772236"><ele>243.0</ele><time>2026-05-04T15:44:04.531Z</time></trkpt><trkpt lat="41.2912276" lon="1.2773712"><ele>243.0</ele><time>2026-05-04T15:44:05.532Z</time></trkpt><trkpt lat="41.291273" lon="1.2775159"><ele>243.0</ele><time>2026-05-04T15:44:06.535Z</time></trkpt><trkpt lat="41.2913186" lon="1.27766"><ele>243.5</ele><time>2026-05-04T15:44:07.532Z</time></trkpt><trkpt lat="41.2913614" lon="1.2778057"><ele>244.0</ele><time>2026-05-04T15:44:08.536Z</time></trkpt><trkpt lat="41.291403" lon="1.2779535"><ele>244.5</ele><time>2026-05-04T15:44:09.532Z</time></trkpt><trkpt lat="41.2914455" lon="1.2781055"><ele>245.0</ele><time>2026-05-04T15:44:10.532Z</time></trkpt><trkpt lat="41.2914872" lon="1.2782557"><ele>245.0</ele><time>2026-05-04T15:44:11.532Z</time></trkpt><trkpt lat="41.2915295" lon="1.2784025"><ele>245.0</ele><time>2026-05-04T15:44:12.534Z</time></trkpt><trkpt lat="41.2915735" lon="1.2785515"><ele>245.0</ele><time>2026-05-04T15:44:13.539Z</time></trkpt><trkpt lat="41.2916198" lon="1.2786993"><ele>245.0</ele><time>2026-05-04T15:44:14.537Z</time></trkpt><trkpt lat="41.2916706" lon="1.2788488"><ele>245.5</ele><time>2026-05-04T15:44:15.535Z</time></trkpt><trkpt lat="41.2917157" lon="1.2790043"><ele>246.0</ele><time>2026-05-04T15:44:16.533Z</time></trkpt><trkpt lat="41.291761" lon="1.2791613"><ele>246.5</ele><time>2026-05-04T15:44:17.536Z</time></trkpt><trkpt lat="41.2918093" lon="1.2793182"><ele>247.0</ele><time>2026-05-04T15:44:18.537Z</time></trkpt><trkpt lat="41.2918556" lon="1.2794766"><ele>247.0</ele><time>2026-05-04T15:44:19.54Z</time></trkpt><trkpt lat="41.2918994" lon="1.2796395"><ele>247.0</ele><time>2026-05-04T15:44:20.539Z</time></trkpt><trkpt lat="41.2919426" lon="1.2798013"><ele>247.0</ele><time>2026-05-04T15:44:21.537Z</time></trkpt><trkpt lat="41.2919907" lon="1.2799653"><ele>247.0</ele><time>2026-05-04T15:44:22.533Z</time></trkpt><trkpt lat="41.2920424" lon="1.2801304"><ele>247.25</ele><time>2026-05-04T15:44:23.534Z</time></trkpt><trkpt lat="41.2920944" lon="1.2803014"><ele>247.5</ele><time>2026-05-04T15:44:24.537Z</time></trkpt><trkpt lat="41.2921505" lon="1.2804781"><ele>247.75</ele><time>2026-05-04T15:44:25.541Z</time></trkpt><trkpt lat="41.2922054" lon="1.2806511"><ele>248.0</ele><time>2026-05-04T15:44:26.537Z</time></trkpt><trkpt lat="41.292252" lon="1.2808329"><ele>248.0</ele><time>2026-05-04T15:44:27.538Z</time></trkpt><trkpt lat="41.2923013" lon="1.2810171"><ele>248.0</ele><time>2026-05-04T15:44:28.538Z</time></trkpt><trkpt lat="41.2923465" lon="1.2812072"><ele>248.0</ele><time>2026-05-04T15:44:29.539Z</time></trkpt><trkpt lat="41.2923891" lon="1.2813928"><ele>248.0</ele><time>2026-05-04T15:44:30.541Z</time></trkpt><trkpt lat="41.2924277" lon="1.281589"><ele>247.75</ele><time>2026-05-04T15:44:31.553Z</time></trkpt><trkpt lat="41.2924625" lon="1.2817777"><ele>247.5</ele><time>2026-05-04T15:44:32.536Z</time></trkpt><trkpt lat="41.2924988" lon="1.2819697"><ele>247.25</ele><time>2026-05-04T15:44:33.538Z</time></trkpt><trkpt lat="41.2925331" lon="1.2821606"><ele>247.0</ele><time>2026-05-04T15:44:34.539Z</time></trkpt><trkpt lat="41.2925643" lon="1.2823497"><ele>247.0</ele><time>2026-05-04T15:44:35.537Z</time></trkpt><trkpt lat="41.2925937" lon="1.2825427"><ele>247.0</ele><time>2026-05-04T15:44:36.537Z</time></trkpt><trkpt lat="41.292622" lon="1.2827395"><ele>247.0</ele><time>2026-05-04T15:44:37.539Z</time></trkpt><trkpt lat="41.2926501" lon="1.2829348"><ele>247.0</ele><time>2026-05-04T15:44:38.536Z</time></trkpt><trkpt lat="41.2926681" lon="1.2831366"><ele>247.0</ele><time>2026-05-04T15:44:39.538Z</time></trkpt><trkpt lat="41.2926825" lon="1.283337"><ele>247.0</ele><time>2026-05-04T15:44:40.535Z</time></trkpt><trkpt lat="41.2927061" lon="1.2835436"><ele>247.0</ele><time>2026-05-04T15:44:41.535Z</time></trkpt><trkpt lat="41.2927206" lon="1.2837475"><ele>247.5</ele><time>2026-05-04T15:44:42.537Z</time></trkpt><trkpt lat="41.2927313" lon="1.2839477"><ele>248.0</ele><time>2026-05-04T15:44:43.541Z</time></trkpt><trkpt lat="41.2927402" lon="1.2841425"><ele>248.5</ele><time>2026-05-04T15:44:44.538Z</time></trkpt><trkpt lat="41.2927494" lon="1.2843394"><ele>249.0</ele><time>2026-05-04T15:44:45.538Z</time></trkpt><trkpt lat="41.2927536" lon="1.2845392"><ele>249.0</ele><time>2026-05-04T15:44:46.543Z</time></trkpt><trkpt lat="41.2927549" lon="1.2847425"><ele>249.0</ele><time>2026-05-04T15:44:47.539Z</time></trkpt><trkpt lat="41.2927542" lon="1.2849422"><ele>249.0</ele><time>2026-05-04T15:44:48.542Z</time></trkpt><trkpt lat="41.2927515" lon="1.2851427"><ele>249.0</ele><time>2026-05-04T15:44:49.538Z</time></trkpt><trkpt lat="41.2927404" lon="1.2853411"><ele>249.0</ele><time>2026-05-04T15:44:50.541Z</time></trkpt><trkpt lat="41.292736" lon="1.2855499"><ele>249.0</ele><time>2026-05-04T15:44:51.535Z</time></trkpt><trkpt lat="41.2927347" lon="1.2857505"><ele>248.33333333333331</ele><time>2026-05-04T15:44:52.54Z</time></trkpt><trkpt lat="41.292728" lon="1.2859479"><ele>247.66666666666666</ele><time>2026-05-04T15:44:53.536Z</time></trkpt><trkpt lat="41.2927193" lon="1.2861533"><ele>247.0</ele><time>2026-05-04T15:44:54.548Z</time></trkpt><trkpt lat="41.2927177" lon="1.2863624"><ele>246.66666666666666</ele><time>2026-05-04T15:44:55.53Z</time></trkpt><trkpt lat="41.2927154" lon="1.2865684"><ele>246.33333333333331</ele><time>2026-05-04T15:44:56.522Z</time></trkpt><trkpt lat="41.2927084" lon="1.2867624"><ele>246.0</ele><time>2026-05-04T15:44:57.532Z</time></trkpt><trkpt lat="41.2926946" lon="1.286961"><ele>246.0</ele><time>2026-05-04T15:44:58.533Z</time></trkpt><trkpt lat="41.2926807" lon="1.2871515"><ele>246.0</ele><time>2026-05-04T15:44:59.525Z</time></trkpt><trkpt lat="41.2926846" lon="1.28734"><ele>246.0</ele><time>2026-05-04T15:45:00.529Z</time></trkpt><trkpt lat="41.2926819" lon="1.2875336"><ele>246.0</ele><time>2026-05-04T15:45:01.528Z</time></trkpt><trkpt lat="41.2926746" lon="1.2877337"><ele>246.0</ele><time>2026-05-04T15:45:02.544Z</time></trkpt><trkpt lat="41.2926689" lon="1.2879284"><ele>246.0</ele><time>2026-05-04T15:45:03.528Z</time></trkpt><trkpt lat="41.2926698" lon="1.2881237"><ele>246.0</ele><time>2026-05-04T15:45:04.528Z</time></trkpt><trkpt lat="41.2926663" lon="1.2883163"><ele>246.0</ele><time>2026-05-04T15:45:05.528Z</time></trkpt><trkpt lat="41.2926554" lon="1.2885052"><ele>246.0</ele><time>2026-05-04T15:45:06.53Z</time></trkpt><trkpt lat="41.2926478" lon="1.2887003"><ele>246.0</ele><time>2026-05-04T15:45:07.533Z</time></trkpt><trkpt lat="41.2926387" lon="1.2888989"><ele>246.0</ele><time>2026-05-04T15:45:08.535Z</time></trkpt><trkpt lat="41.292625" lon="1.2890913"><ele>246.0</ele><time>2026-05-04T15:45:09.527Z</time></trkpt><trkpt lat="41.2926101" lon="1.2892771"><ele>246.33333333333331</ele><time>2026-05-04T15:45:10.527Z</time></trkpt><trkpt lat="41.2925885" lon="1.2894761"><ele>246.66666666666666</ele><time>2026-05-04T15:45:11.527Z</time></trkpt><trkpt lat="41.2925645" lon="1.289678"><ele>247.0</ele><time>2026-05-04T15:45:12.529Z</time></trkpt><trkpt lat="41.2925254" lon="1.2898687"><ele>247.66666666666666</ele><time>2026-05-04T15:45:13.522Z</time></trkpt><trkpt lat="41.2924851" lon="1.2900658"><ele>248.33333333333331</ele><time>2026-05-04T15:45:14.53Z</time></trkpt><trkpt lat="41.2924485" lon="1.2902552"><ele>249.0</ele><time>2026-05-04T15:45:15.534Z</time></trkpt><trkpt lat="41.2924049" lon="1.2904465"><ele>248.5</ele><time>2026-05-04T15:45:16.534Z</time></trkpt><trkpt lat="41.2923501" lon="1.2906317"><ele>248.0</ele><time>2026-05-04T15:45:17.532Z</time></trkpt><trkpt lat="41.2922961" lon="1.2908072"><ele>247.5</ele><time>2026-05-04T15:45:18.536Z</time></trkpt><trkpt lat="41.2922392" lon="1.2909791"><ele>247.0</ele><time>2026-05-04T15:45:19.532Z</time></trkpt><trkpt lat="41.2921808" lon="1.2911463"><ele>247.0</ele><time>2026-05-04T15:45:20.533Z</time></trkpt><trkpt lat="41.2921196" lon="1.2912972"><ele>247.0</ele><time>2026-05-04T15:45:21.534Z</time></trkpt><trkpt lat="41.29206" lon="1.2914284"><ele>247.0</ele><time>2026-05-04T15:45:22.539Z</time></trkpt><trkpt lat="41.2920029" lon="1.2915542"><ele>247.0</ele><time>2026-05-04T15:45:23.532Z</time></trkpt><trkpt lat="41.2919489" lon="1.2916693"><ele>247.0</ele><time>2026-05-04T15:45:24.536Z</time></trkpt><trkpt lat="41.2918924" lon="1.2917856"><ele>247.0</ele><time>2026-05-04T15:45:25.529Z</time></trkpt><trkpt lat="41.2918376" lon="1.2918989"><ele>247.0</ele><time>2026-05-04T15:45:26.528Z</time></trkpt><trkpt lat="41.2917827" lon="1.2920012"><ele>247.0</ele><time>2026-05-04T15:45:27.528Z</time></trkpt><trkpt lat="41.291728" lon="1.292099"><ele>247.0</ele><time>2026-05-04T15:45:28.519Z</time></trkpt><trkpt lat="41.2916796" lon="1.2921924"><ele>246.83333333333331</ele><time>2026-05-04T15:45:29.528Z</time></trkpt><trkpt lat="41.2916334" lon="1.2922569"><ele>246.66666666666666</ele><time>2026-05-04T15:45:30.519Z</time></trkpt><trkpt lat="41.2915288" lon="1.2923447"><ele>246.5</ele><time>2026-05-04T15:45:32.53Z</time></trkpt><trkpt lat="41.2914648" lon="1.2923633"><ele>246.33333333333331</ele><time>2026-05-04T15:45:33.538Z</time></trkpt><trkpt lat="41.2913879" lon="1.2923799"><ele>246.16666666666666</ele><time>2026-05-04T15:45:34.527Z</time></trkpt><trkpt lat="41.2913128" lon="1.2923947"><ele>246.0</ele><time>2026-05-04T15:45:35.521Z</time></trkpt><trkpt lat="41.2912405" lon="1.2924225"><ele>245.66666666666666</ele><time>2026-05-04T15:45:36.518Z</time></trkpt><trkpt lat="41.2911742" lon="1.2924753"><ele>245.33333333333331</ele><time>2026-05-04T15:45:37.526Z</time></trkpt><trkpt lat="41.2911171" lon="1.2925583"><ele>245.0</ele><time>2026-05-04T15:45:38.525Z</time></trkpt><trkpt lat="41.2910806" lon="1.2926653"><ele>244.66666666666666</ele><time>2026-05-04T15:45:39.521Z</time></trkpt><trkpt lat="41.2910653" lon="1.2927824"><ele>244.33333333333331</ele><time>2026-05-04T15:45:40.524Z</time></trkpt><trkpt lat="41.2910789" lon="1.2929062"><ele>244.0</ele><time>2026-05-04T15:45:41.519Z</time></trkpt><trkpt lat="41.291103" lon="1.2930388"><ele>243.79999999999998</ele><time>2026-05-04T15:45:42.522Z</time></trkpt><trkpt lat="41.2911276" lon="1.2931783"><ele>243.59999999999997</ele><time>2026-05-04T15:45:43.527Z</time></trkpt><trkpt lat="41.2911396" lon="1.2933229"><ele>243.4</ele><time>2026-05-04T15:45:44.526Z</time></trkpt><trkpt lat="41.2911292" lon="1.2934718"><ele>243.2</ele><time>2026-05-04T15:45:45.527Z</time></trkpt><trkpt lat="41.2910906" lon="1.2936211"><ele>243.0</ele><time>2026-05-04T15:45:46.527Z</time></trkpt><trkpt lat="41.2910399" lon="1.2937653"><ele>243.0</ele><time>2026-05-04T15:45:47.528Z</time></trkpt><trkpt lat="41.2909911" lon="1.2939172"><ele>243.0</ele><time>2026-05-04T15:45:48.531Z</time></trkpt><trkpt lat="41.2909442" lon="1.2940706"><ele>243.0</ele><time>2026-05-04T15:45:49.533Z</time></trkpt><trkpt lat="41.2909047" lon="1.2942268"><ele>243.0</ele><time>2026-05-04T15:45:50.527Z</time></trkpt><trkpt lat="41.2908699" lon="1.2943848"><ele>243.0</ele><time>2026-05-04T15:45:51.532Z</time></trkpt><trkpt lat="41.2908411" lon="1.2945435"><ele>243.0</ele><time>2026-05-04T15:45:52.527Z</time></trkpt><trkpt lat="41.2908222" lon="1.2947069"><ele>243.0</ele><time>2026-05-04T15:45:53.532Z</time></trkpt><trkpt lat="41.2908054" lon="1.2948706"><ele>243.0</ele><time>2026-05-04T15:45:54.53Z</time></trkpt><trkpt lat="41.2907938" lon="1.2950384"><ele>243.5</ele><time>2026-05-04T15:45:55.528Z</time></trkpt><trkpt lat="41.2907878" lon="1.2952142"><ele>244.0</ele><time>2026-05-04T15:45:56.527Z</time></trkpt><trkpt lat="41.2907893" lon="1.2953852"><ele>244.5</ele><time>2026-05-04T15:45:57.53Z</time></trkpt><trkpt lat="41.2907986" lon="1.2955548"><ele>245.0</ele><time>2026-05-04T15:45:58.533Z</time></trkpt><trkpt lat="41.2908111" lon="1.2957192"><ele>245.5</ele><time>2026-05-04T15:45:59.527Z</time></trkpt><trkpt lat="41.2908243" lon="1.2958823"><ele>246.0</ele><time>2026-05-04T15:46:00.534Z</time></trkpt><trkpt lat="41.2908414" lon="1.2960508"><ele>246.5</ele><time>2026-05-04T15:46:01.525Z</time></trkpt><trkpt lat="41.290857" lon="1.2962212"><ele>247.0</ele><time>2026-05-04T15:46:02.527Z</time></trkpt><trkpt lat="41.2908727" lon="1.2963877"><ele>247.5</ele><time>2026-05-04T15:46:03.528Z</time></trkpt><trkpt lat="41.2908859" lon="1.2965585"><ele>248.0</ele><time>2026-05-04T15:46:04.555Z</time></trkpt><trkpt lat="41.2908983" lon="1.2967304"><ele>248.5</ele><time>2026-05-04T15:46:05.529Z</time></trkpt><trkpt lat="41.2909076" lon="1.2969056"><ele>249.0</ele><time>2026-05-04T15:46:06.529Z</time></trkpt><trkpt lat="41.2909175" lon="1.2970834"><ele>249.25</ele><time>2026-05-04T15:46:07.528Z</time></trkpt><trkpt lat="41.2909187" lon="1.2972653"><ele>249.5</ele><time>2026-05-04T15:46:08.528Z</time></trkpt><trkpt lat="41.2909157" lon="1.2974456"><ele>249.75</ele><time>2026-05-04T15:46:09.529Z</time></trkpt><trkpt lat="41.2909104" lon="1.2976253"><ele>250.0</ele><time>2026-05-04T15:46:10.528Z</time></trkpt><trkpt lat="41.2909013" lon="1.2978051"><ele>250.0</ele><time>2026-05-04T15:46:11.528Z</time></trkpt><trkpt lat="41.2908862" lon="1.2979787"><ele>250.0</ele><time>2026-05-04T15:46:12.528Z</time></trkpt><trkpt lat="41.2908669" lon="1.2981548"><ele>250.0</ele><time>2026-05-04T15:46:13.532Z</time></trkpt><trkpt lat="41.2908417" lon="1.2983331"><ele>250.0</ele><time>2026-05-04T15:46:14.529Z</time></trkpt><trkpt lat="41.2908151" lon="1.2985083"><ele>249.75</ele><time>2026-05-04T15:46:15.531Z</time></trkpt><trkpt lat="41.2907867" lon="1.298684"><ele>249.5</ele><time>2026-05-04T15:46:16.533Z</time></trkpt><trkpt lat="41.2907579" lon="1.2988659"><ele>249.25</ele><time>2026-05-04T15:46:17.53Z</time></trkpt><trkpt lat="41.2907215" lon="1.2990449"><ele>249.0</ele><time>2026-05-04T15:46:18.528Z</time></trkpt><trkpt lat="41.2907041" lon="1.2992395"><ele>248.25</ele><time>2026-05-04T15:46:19.525Z</time></trkpt><trkpt lat="41.2906668" lon="1.2994253"><ele>247.5</ele><time>2026-05-04T15:46:20.531Z</time></trkpt><trkpt lat="41.2906333" lon="1.2995977"><ele>246.75</ele><time>2026-05-04T15:46:21.528Z</time></trkpt><trkpt lat="41.2906025" lon="1.2997809"><ele>246.0</ele><time>2026-05-04T15:46:22.531Z</time></trkpt><trkpt lat="41.290574" lon="1.2999581"><ele>245.0</ele><time>2026-05-04T15:46:23.53Z</time></trkpt><trkpt lat="41.2905539" lon="1.3001409"><ele>244.0</ele><time>2026-05-04T15:46:24.534Z</time></trkpt><trkpt lat="41.2905327" lon="1.3003271"><ele>243.0</ele><time>2026-05-04T15:46:25.538Z</time></trkpt><trkpt lat="41.2904959" lon="1.3005103"><ele>242.0</ele><time>2026-05-04T15:46:26.532Z</time></trkpt><trkpt lat="41.2904742" lon="1.3007054"><ele>241.75</ele><time>2026-05-04T15:46:27.532Z</time></trkpt><trkpt lat="41.2904474" lon="1.3008978"><ele>241.5</ele><time>2026-05-04T15:46:28.536Z</time></trkpt><trkpt lat="41.2904214" lon="1.3010997"><ele>241.25</ele><time>2026-05-04T15:46:29.537Z</time></trkpt><trkpt lat="41.2903932" lon="1.301292"><ele>241.0</ele><time>2026-05-04T15:46:30.535Z</time></trkpt><trkpt lat="41.2903657" lon="1.3014873"><ele>241.0</ele><time>2026-05-04T15:46:31.533Z</time></trkpt><trkpt lat="41.2903323" lon="1.3016795"><ele>241.0</ele><time>2026-05-04T15:46:32.531Z</time></trkpt><trkpt lat="41.290302" lon="1.3018738"><ele>241.0</ele><time>2026-05-04T15:46:33.529Z</time></trkpt><trkpt lat="41.2902793" lon="1.3020739"><ele>241.0</ele><time>2026-05-04T15:46:34.544Z</time></trkpt><trkpt lat="41.2902564" lon="1.3022747"><ele>241.0</ele><time>2026-05-04T15:46:35.531Z</time></trkpt><trkpt lat="41.290234" lon="1.3024762"><ele>241.0</ele><time>2026-05-04T15:46:36.529Z</time></trkpt><trkpt lat="41.2902112" lon="1.3026796"><ele>241.0</ele><time>2026-05-04T15:46:37.531Z</time></trkpt><trkpt lat="41.2901858" lon="1.3028733"><ele>241.0</ele><time>2026-05-04T15:46:38.53Z</time></trkpt><trkpt lat="41.2901577" lon="1.3030668"><ele>241.0</ele><time>2026-05-04T15:46:39.529Z</time></trkpt><trkpt lat="41.2901344" lon="1.3032557"><ele>241.0</ele><time>2026-05-04T15:46:40.531Z</time></trkpt><trkpt lat="41.2901139" lon="1.3034568"><ele>241.0</ele><time>2026-05-04T15:46:41.532Z</time></trkpt><trkpt lat="41.2900959" lon="1.3036574"><ele>241.25</ele><time>2026-05-04T15:46:42.531Z</time></trkpt><trkpt lat="41.2900818" lon="1.3038562"><ele>241.5</ele><time>2026-05-04T15:46:43.533Z</time></trkpt><trkpt lat="41.2900707" lon="1.3040508"><ele>241.75</ele><time>2026-05-04T15:46:44.531Z</time></trkpt><trkpt lat="41.2900595" lon="1.3042456"><ele>242.0</ele><time>2026-05-04T15:46:45.534Z</time></trkpt><trkpt lat="41.2900535" lon="1.3044457"><ele>242.0</ele><time>2026-05-04T15:46:46.533Z</time></trkpt><trkpt lat="41.2900494" lon="1.3046489"><ele>242.0</ele><time>2026-05-04T15:46:47.534Z</time></trkpt><trkpt lat="41.2900467" lon="1.3048515"><ele>242.0</ele><time>2026-05-04T15:46:48.531Z</time></trkpt><trkpt lat="41.2900451" lon="1.3050502"><ele>242.0</ele><time>2026-05-04T15:46:49.533Z</time></trkpt><trkpt lat="41.2900464" lon="1.3052473"><ele>242.0</ele><time>2026-05-04T15:46:50.53Z</time></trkpt><trkpt lat="41.2900586" lon="1.3054407"><ele>242.0</ele><time>2026-05-04T15:46:51.533Z</time></trkpt><trkpt lat="41.2900682" lon="1.3056365"><ele>242.0</ele><time>2026-05-04T15:46:52.528Z</time></trkpt><trkpt lat="41.2900834" lon="1.3058292"><ele>242.0</ele><time>2026-05-04T15:46:53.527Z</time></trkpt><trkpt lat="41.2901054" lon="1.3060289"><ele>242.0</ele><time>2026-05-04T15:46:54.53Z</time></trkpt><trkpt lat="41.2901275" lon="1.3062214"><ele>242.0</ele><time>2026-05-04T15:46:55.529Z</time></trkpt><trkpt lat="41.2901557" lon="1.3063974"><ele>242.0</ele><time>2026-05-04T15:46:56.533Z</time></trkpt><trkpt lat="41.2901756" lon="1.3065762"><ele>243.0</ele><time>2026-05-04T15:46:57.53Z</time></trkpt><trkpt lat="41.2902015" lon="1.3067547"><ele>244.0</ele><time>2026-05-04T15:46:58.532Z</time></trkpt><trkpt lat="41.2902411" lon="1.3069337"><ele>245.0</ele><time>2026-05-04T15:46:59.53Z</time></trkpt><trkpt lat="41.290278" lon="1.3071094"><ele>246.0</ele><time>2026-05-04T15:47:00.532Z</time></trkpt><trkpt lat="41.2903147" lon="1.3072681"><ele>248.0</ele><time>2026-05-04T15:47:01.527Z</time></trkpt><trkpt lat="41.2903661" lon="1.3074395"><ele>250.0</ele><time>2026-05-04T15:47:02.526Z</time></trkpt><trkpt lat="41.2904264" lon="1.3076173"><ele>252.0</ele><time>2026-05-04T15:47:03.525Z</time></trkpt><trkpt lat="41.2904857" lon="1.3077887"><ele>254.0</ele><time>2026-05-04T15:47:04.533Z</time></trkpt><trkpt lat="41.2905469" lon="1.3079482"><ele>252.25</ele><time>2026-05-04T15:47:05.539Z</time></trkpt><trkpt lat="41.2906154" lon="1.3081096"><ele>250.5</ele><time>2026-05-04T15:47:06.525Z</time></trkpt><trkpt lat="41.2906805" lon="1.30827"><ele>248.75</ele><time>2026-05-04T15:47:07.526Z</time></trkpt><trkpt lat="41.2907571" lon="1.308425"><ele>247.0</ele><time>2026-05-04T15:47:08.526Z</time></trkpt><trkpt lat="41.2908395" lon="1.3085783"><ele>247.0</ele><time>2026-05-04T15:47:09.525Z</time></trkpt><trkpt lat="41.2909209" lon="1.3087274"><ele>247.0</ele><time>2026-05-04T15:47:10.527Z</time></trkpt><trkpt lat="41.2910056" lon="1.3088692"><ele>247.0</ele><time>2026-05-04T15:47:11.528Z</time></trkpt><trkpt lat="41.2910902" lon="1.3090084"><ele>247.0</ele><time>2026-05-04T15:47:12.531Z</time></trkpt><trkpt lat="41.2911779" lon="1.309145"><ele>247.5</ele><time>2026-05-04T15:47:13.529Z</time></trkpt><trkpt lat="41.2912674" lon="1.3092715"><ele>248.0</ele><time>2026-05-04T15:47:14.524Z</time></trkpt><trkpt lat="41.291368" lon="1.3093986"><ele>248.5</ele><time>2026-05-04T15:47:15.525Z</time></trkpt><trkpt lat="41.2914685" lon="1.309523"><ele>249.0</ele><time>2026-05-04T15:47:16.528Z</time></trkpt><trkpt lat="41.2915699" lon="1.3096408"><ele>251.0</ele><time>2026-05-04T15:47:17.526Z</time></trkpt><trkpt lat="41.291672" lon="1.3097544"><ele>253.0</ele><time>2026-05-04T15:47:18.526Z</time></trkpt><trkpt lat="41.2917773" lon="1.3098658"><ele>255.0</ele><time>2026-05-04T15:47:19.522Z</time></trkpt><trkpt lat="41.2918851" lon="1.3099722"><ele>257.0</ele><time>2026-05-04T15:47:20.523Z</time></trkpt><trkpt lat="41.2920026" lon="1.3100712"><ele>257.0</ele><time>2026-05-04T15:47:21.524Z</time></trkpt><trkpt lat="41.2921154" lon="1.3101622"><ele>257.0</ele><time>2026-05-04T15:47:22.529Z</time></trkpt><trkpt lat="41.2922392" lon="1.3102494"><ele>257.0</ele><time>2026-05-04T15:47:23.524Z</time></trkpt><trkpt lat="41.2923551" lon="1.3103377"><ele>257.0</ele><time>2026-05-04T15:47:24.528Z</time></trkpt><trkpt lat="41.292494" lon="1.3104299"><ele>256.25</ele><time>2026-05-04T15:47:25.521Z</time></trkpt><trkpt lat="41.292608" lon="1.3105099"><ele>255.5</ele><time>2026-05-04T15:47:26.521Z</time></trkpt><trkpt lat="41.2927228" lon="1.3105884"><ele>254.75</ele><time>2026-05-04T15:47:27.517Z</time></trkpt><trkpt lat="41.2928464" lon="1.3106744"><ele>254.0</ele><time>2026-05-04T15:47:28.517Z</time></trkpt><trkpt lat="41.2929716" lon="1.3107594"><ele>256.0</ele><time>2026-05-04T15:47:29.508Z</time></trkpt><trkpt lat="41.2931003" lon="1.310849"><ele>258.0</ele><time>2026-05-04T15:47:30.511Z</time></trkpt><trkpt lat="41.2932112" lon="1.3109356"><ele>260.0</ele><time>2026-05-04T15:47:31.515Z</time></trkpt><trkpt lat="41.2933216" lon="1.311024"><ele>262.0</ele><time>2026-05-04T15:47:32.515Z</time></trkpt><trkpt lat="41.2934381" lon="1.3111169"><ele>262.0</ele><time>2026-05-04T15:47:33.513Z</time></trkpt><trkpt lat="41.2936575" lon="1.3113267"><ele>262.0</ele><time>2026-05-04T15:47:35.517Z</time></trkpt><trkpt lat="41.2937604" lon="1.3114384"><ele>262.0</ele><time>2026-05-04T15:47:36.531Z</time></trkpt><trkpt lat="41.2938639" lon="1.311553"><ele>262.75</ele><time>2026-05-04T15:47:37.516Z</time></trkpt><trkpt lat="41.2939657" lon="1.3116764"><ele>263.5</ele><time>2026-05-04T15:47:38.521Z</time></trkpt><trkpt lat="41.2940622" lon="1.3118017"><ele>264.25</ele><time>2026-05-04T15:47:39.518Z</time></trkpt><trkpt lat="41.294152" lon="1.3119254"><ele>265.0</ele><time>2026-05-04T15:47:40.517Z</time></trkpt><trkpt lat="41.2942361" lon="1.3120526"><ele>265.0</ele><time>2026-05-04T15:47:41.519Z</time></trkpt><trkpt lat="41.2943218" lon="1.3121851"><ele>265.0</ele><time>2026-05-04T15:47:42.52Z</time></trkpt><trkpt lat="41.2944069" lon="1.3123204"><ele>265.0</ele><time>2026-05-04T15:47:43.531Z</time></trkpt><trkpt lat="41.2944858" lon="1.3124512"><ele>265.0</ele><time>2026-05-04T15:47:44.521Z</time></trkpt><trkpt lat="41.2945599" lon="1.3125895"><ele>265.75</ele><time>2026-05-04T15:47:45.528Z</time></trkpt><trkpt lat="41.2946347" lon="1.3127294"><ele>266.5</ele><time>2026-05-04T15:47:46.52Z</time></trkpt><trkpt lat="41.2947053" lon="1.3128719"><ele>267.25</ele><time>2026-05-04T15:47:47.522Z</time></trkpt><trkpt lat="41.2947727" lon="1.3130187"><ele>268.0</ele><time>2026-05-04T15:47:48.529Z</time></trkpt><trkpt lat="41.294837" lon="1.3131688"><ele>268.75</ele><time>2026-05-04T15:47:49.522Z</time></trkpt><trkpt lat="41.2948956" lon="1.3133187"><ele>269.5</ele><time>2026-05-04T15:47:50.524Z</time></trkpt><trkpt lat="41.2949462" lon="1.3134735"><ele>270.25</ele><time>2026-05-04T15:47:51.528Z</time></trkpt><trkpt lat="41.2949982" lon="1.3136293"><ele>271.0</ele><time>2026-05-04T15:47:52.53Z</time></trkpt><trkpt lat="41.2950473" lon="1.3137898"><ele>271.25</ele><time>2026-05-04T15:47:53.525Z</time></trkpt><trkpt lat="41.2950938" lon="1.3139421"><ele>271.5</ele><time>2026-05-04T15:47:54.527Z</time></trkpt><trkpt lat="41.2951409" lon="1.3140985"><ele>271.75</ele><time>2026-05-04T15:47:55.528Z</time></trkpt><trkpt lat="41.2951855" lon="1.3142501"><ele>272.0</ele><time>2026-05-04T15:47:56.524Z</time></trkpt><trkpt lat="41.29522" lon="1.3144071"><ele>272.0</ele><time>2026-05-04T15:47:57.528Z</time></trkpt><trkpt lat="41.2952538" lon="1.3145646"><ele>272.0</ele><time>2026-05-04T15:47:58.524Z</time></trkpt><trkpt lat="41.295286" lon="1.3147259"><ele>272.0</ele><time>2026-05-04T15:47:59.517Z</time></trkpt><trkpt lat="41.2953107" lon="1.3148948"><ele>272.0</ele><time>2026-05-04T15:48:00.533Z</time></trkpt><trkpt lat="41.2953315" lon="1.3150612"><ele>272.0</ele><time>2026-05-04T15:48:01.524Z</time></trkpt><trkpt lat="41.2953492" lon="1.3152337"><ele>272.0</ele><time>2026-05-04T15:48:02.526Z</time></trkpt><trkpt lat="41.2953663" lon="1.3154063"><ele>272.0</ele><time>2026-05-04T15:48:03.524Z</time></trkpt><trkpt lat="41.2953807" lon="1.3155773"><ele>272.0</ele><time>2026-05-04T15:48:04.526Z</time></trkpt><trkpt lat="41.2953897" lon="1.3157522"><ele>272.25</ele><time>2026-05-04T15:48:05.528Z</time></trkpt><trkpt lat="41.2953938" lon="1.3159271"><ele>272.5</ele><time>2026-05-04T15:48:06.528Z</time></trkpt><trkpt lat="41.295394" lon="1.3161025"><ele>272.75</ele><time>2026-05-04T15:48:07.548Z</time></trkpt><trkpt lat="41.2953898" lon="1.3162776"><ele>273.0</ele><time>2026-05-04T15:48:08.528Z</time></trkpt><trkpt lat="41.2953805" lon="1.3164552"><ele>273.25</ele><time>2026-05-04T15:48:09.53Z</time></trkpt><trkpt lat="41.2953666" lon="1.3166345"><ele>273.5</ele><time>2026-05-04T15:48:10.529Z</time></trkpt><trkpt lat="41.2953502" lon="1.3168164"><ele>273.75</ele><time>2026-05-04T15:48:11.528Z</time></trkpt><trkpt lat="41.2953241" lon="1.3169945"><ele>274.0</ele><time>2026-05-04T15:48:12.527Z</time></trkpt><trkpt lat="41.2952897" lon="1.3171633"><ele>274.5</ele><time>2026-05-04T15:48:13.532Z</time></trkpt><trkpt lat="41.2952593" lon="1.3173408"><ele>275.0</ele><time>2026-05-04T15:48:14.532Z</time></trkpt><trkpt lat="41.2952268" lon="1.3175099"><ele>275.5</ele><time>2026-05-04T15:48:15.532Z</time></trkpt><trkpt lat="41.295199" lon="1.3176833"><ele>276.0</ele><time>2026-05-04T15:48:16.533Z</time></trkpt><trkpt lat="41.2951705" lon="1.317857"><ele>276.0</ele><time>2026-05-04T15:48:17.521Z</time></trkpt><trkpt lat="41.295152" lon="1.3180281"><ele>276.0</ele><time>2026-05-04T15:48:18.535Z</time></trkpt><trkpt lat="41.295133" lon="1.3181957"><ele>276.0</ele><time>2026-05-04T15:48:19.53Z</time></trkpt><trkpt lat="41.2951131" lon="1.3183603"><ele>276.0</ele><time>2026-05-04T15:48:20.53Z</time></trkpt><trkpt lat="41.2950921" lon="1.3185298"><ele>276.0</ele><time>2026-05-04T15:48:21.531Z</time></trkpt><trkpt lat="41.295073" lon="1.3187028"><ele>276.0</ele><time>2026-05-04T15:48:22.532Z</time></trkpt><trkpt lat="41.2950486" lon="1.3188805"><ele>276.0</ele><time>2026-05-04T15:48:23.527Z</time></trkpt><trkpt lat="41.2950248" lon="1.3190586"><ele>276.0</ele><time>2026-05-04T15:48:24.533Z</time></trkpt><trkpt lat="41.295" lon="1.3192386"><ele>276.0</ele><time>2026-05-04T15:48:25.53Z</time></trkpt><trkpt lat="41.2949785" lon="1.3194213"><ele>276.0</ele><time>2026-05-04T15:48:26.528Z</time></trkpt><trkpt lat="41.2949605" lon="1.3196065"><ele>276.0</ele><time>2026-05-04T15:48:27.527Z</time></trkpt><trkpt lat="41.2949393" lon="1.3197873"><ele>276.0</ele><time>2026-05-04T15:48:28.532Z</time></trkpt><trkpt lat="41.2949168" lon="1.3199636"><ele>276.0</ele><time>2026-05-04T15:48:29.528Z</time></trkpt><trkpt lat="41.2948919" lon="1.3201374"><ele>276.0</ele><time>2026-05-04T15:48:30.53Z</time></trkpt><trkpt lat="41.2948669" lon="1.3203124"><ele>276.0</ele><time>2026-05-04T15:48:31.53Z</time></trkpt><trkpt lat="41.2948381" lon="1.3204843"><ele>276.0</ele><time>2026-05-04T15:48:32.532Z</time></trkpt><trkpt lat="41.2948148" lon="1.3206648"><ele>276.25</ele><time>2026-05-04T15:48:33.53Z</time></trkpt><trkpt lat="41.2947878" lon="1.3208478"><ele>276.5</ele><time>2026-05-04T15:48:34.529Z</time></trkpt><trkpt lat="41.2947725" lon="1.3210351"><ele>276.75</ele><time>2026-05-04T15:48:35.527Z</time></trkpt><trkpt lat="41.294746" lon="1.3212162"><ele>277.0</ele><time>2026-05-04T15:48:36.527Z</time></trkpt><trkpt lat="41.2947152" lon="1.3213915"><ele>276.5</ele><time>2026-05-04T15:48:37.529Z</time></trkpt><trkpt lat="41.2946918" lon="1.3215728"><ele>276.0</ele><time>2026-05-04T15:48:38.54Z</time></trkpt><trkpt lat="41.2946685" lon="1.3217558"><ele>275.5</ele><time>2026-05-04T15:48:39.528Z</time></trkpt><trkpt lat="41.2946472" lon="1.3219418"><ele>275.0</ele><time>2026-05-04T15:48:40.528Z</time></trkpt><trkpt lat="41.2946266" lon="1.3221293"><ele>275.25</ele><time>2026-05-04T15:48:41.528Z</time></trkpt><trkpt lat="41.2945976" lon="1.3223153"><ele>275.5</ele><time>2026-05-04T15:48:42.527Z</time></trkpt><trkpt lat="41.2945716" lon="1.3225035"><ele>275.75</ele><time>2026-05-04T15:48:43.529Z</time></trkpt><trkpt lat="41.2945499" lon="1.3226951"><ele>276.0</ele><time>2026-05-04T15:48:44.522Z</time></trkpt><trkpt lat="41.2945266" lon="1.3228989"><ele>276.0</ele><time>2026-05-04T15:48:45.528Z</time></trkpt><trkpt lat="41.2944991" lon="1.3230885"><ele>276.0</ele><time>2026-05-04T15:48:46.525Z</time></trkpt><trkpt lat="41.294478" lon="1.3232781"><ele>276.0</ele><time>2026-05-04T15:48:47.527Z</time></trkpt><trkpt lat="41.2944616" lon="1.3234817"><ele>276.0</ele><time>2026-05-04T15:48:48.524Z</time></trkpt><trkpt lat="41.2944366" lon="1.3236673"><ele>276.0</ele><time>2026-05-04T15:48:49.531Z</time></trkpt><trkpt lat="41.2944099" lon="1.323849"><ele>276.0</ele><time>2026-05-04T15:48:50.527Z</time></trkpt><trkpt lat="41.2943786" lon="1.3240299"><ele>276.0</ele><time>2026-05-04T15:48:51.528Z</time></trkpt><trkpt lat="41.2943496" lon="1.3242071"><ele>276.0</ele><time>2026-05-04T15:48:52.53Z</time></trkpt><trkpt lat="41.2943247" lon="1.3243912"><ele>276.0</ele><time>2026-05-04T15:48:53.527Z</time></trkpt><trkpt lat="41.2942998" lon="1.3245901"><ele>276.0</ele><time>2026-05-04T15:48:54.533Z</time></trkpt><trkpt lat="41.2942817" lon="1.3247943"><ele>276.0</ele><time>2026-05-04T15:48:55.534Z</time></trkpt><trkpt lat="41.2942579" lon="1.3249844"><ele>276.0</ele><time>2026-05-04T15:48:56.527Z</time></trkpt><trkpt lat="41.2942366" lon="1.3251798"><ele>276.0</ele><time>2026-05-04T15:48:57.532Z</time></trkpt><trkpt lat="41.2942122" lon="1.3253726"><ele>276.0</ele><time>2026-05-04T15:48:58.53Z</time></trkpt><trkpt lat="41.2941838" lon="1.3255669"><ele>276.0</ele><time>2026-05-04T15:48:59.53Z</time></trkpt><trkpt lat="41.2941599" lon="1.3257567"><ele>276.0</ele><time>2026-05-04T15:49:00.531Z</time></trkpt><trkpt lat="41.2941366" lon="1.3259408"><ele>276.0</ele><time>2026-05-04T15:49:01.528Z</time></trkpt><trkpt lat="41.2941113" lon="1.3261354"><ele>276.0</ele><time>2026-05-04T15:49:02.528Z</time></trkpt><trkpt lat="41.2940873" lon="1.3263304"><ele>276.0</ele><time>2026-05-04T15:49:03.528Z</time></trkpt><trkpt lat="41.2940611" lon="1.3265269"><ele>276.0</ele><time>2026-05-04T15:49:04.532Z</time></trkpt><trkpt lat="41.2940361" lon="1.3267175"><ele>276.0</ele><time>2026-05-04T15:49:05.527Z</time></trkpt><trkpt lat="41.2940131" lon="1.32691"><ele>276.0</ele><time>2026-05-04T15:49:06.53Z</time></trkpt><trkpt lat="41.2939894" lon="1.3271061"><ele>276.0</ele><time>2026-05-04T15:49:07.531Z</time></trkpt><trkpt lat="41.2939635" lon="1.3272999"><ele>276.3333333333333</ele><time>2026-05-04T15:49:08.528Z</time></trkpt><trkpt lat="41.2939366" lon="1.3274974"><ele>276.66666666666663</ele><time>2026-05-04T15:49:09.545Z</time></trkpt><trkpt lat="41.2939147" lon="1.3277066"><ele>277.0</ele><time>2026-05-04T15:49:10.53Z</time></trkpt><trkpt lat="41.2938852" lon="1.3278989"><ele>277.66666666666663</ele><time>2026-05-04T15:49:11.53Z</time></trkpt><trkpt lat="41.2938627" lon="1.3280956"><ele>278.3333333333333</ele><time>2026-05-04T15:49:12.528Z</time></trkpt><trkpt lat="41.293833" lon="1.328291"><ele>279.0</ele><time>2026-05-04T15:49:13.529Z</time></trkpt><trkpt lat="41.2938032" lon="1.3284974"><ele>279.0</ele><time>2026-05-04T15:49:14.526Z</time></trkpt><trkpt lat="41.2937711" lon="1.3286917"><ele>279.0</ele><time>2026-05-04T15:49:15.529Z</time></trkpt><trkpt lat="41.2937517" lon="1.3288989"><ele>279.0</ele><time>2026-05-04T15:49:16.528Z</time></trkpt><trkpt lat="41.293729" lon="1.3291101"><ele>279.0</ele><time>2026-05-04T15:49:17.527Z</time></trkpt><trkpt lat="41.293708" lon="1.3293125"><ele>279.0</ele><time>2026-05-04T15:49:18.528Z</time></trkpt><trkpt lat="41.2936874" lon="1.3295099"><ele>279.0</ele><time>2026-05-04T15:49:19.529Z</time></trkpt><trkpt lat="41.293661" lon="1.3297082"><ele>279.0</ele><time>2026-05-04T15:49:20.53Z</time></trkpt><trkpt lat="41.2936356" lon="1.3298979"><ele>279.0</ele><time>2026-05-04T15:49:21.531Z</time></trkpt><trkpt lat="41.29361" lon="1.3300878"><ele>279.0</ele><time>2026-05-04T15:49:22.534Z</time></trkpt><trkpt lat="41.2935826" lon="1.3302762"><ele>279.0</ele><time>2026-05-04T15:49:23.53Z</time></trkpt><trkpt lat="41.2935524" lon="1.3304547"><ele>278.5</ele><time>2026-05-04T15:49:24.53Z</time></trkpt><trkpt lat="41.2935265" lon="1.330623"><ele>278.0</ele><time>2026-05-04T15:49:25.533Z</time></trkpt><trkpt lat="41.2935047" lon="1.3307971"><ele>277.5</ele><time>2026-05-04T15:49:26.533Z</time></trkpt><trkpt lat="41.2934854" lon="1.3309642"><ele>277.0</ele><time>2026-05-04T15:49:27.528Z</time></trkpt><trkpt lat="41.2934606" lon="1.3311225"><ele>277.0</ele><time>2026-05-04T15:49:28.531Z</time></trkpt><trkpt lat="41.2934299" lon="1.3312831"><ele>277.0</ele><time>2026-05-04T15:49:29.528Z</time></trkpt><trkpt lat="41.2934072" lon="1.3314424"><ele>277.0</ele><time>2026-05-04T15:49:30.527Z</time></trkpt><trkpt lat="41.2933846" lon="1.3316007"><ele>277.0</ele><time>2026-05-04T15:49:31.527Z</time></trkpt><trkpt lat="41.2933622" lon="1.3317653"><ele>277.0</ele><time>2026-05-04T15:49:32.53Z</time></trkpt><trkpt lat="41.2933386" lon="1.3319327"><ele>277.0</ele><time>2026-05-04T15:49:33.53Z</time></trkpt><trkpt lat="41.2933159" lon="1.3321022"><ele>277.0</ele><time>2026-05-04T15:49:34.528Z</time></trkpt><trkpt lat="41.2932923" lon="1.3322756"><ele>277.0</ele><time>2026-05-04T15:49:35.52Z</time></trkpt><trkpt lat="41.2932711" lon="1.3324617"><ele>277.0</ele><time>2026-05-04T15:49:36.526Z</time></trkpt><trkpt lat="41.2932465" lon="1.3326431"><ele>277.0</ele><time>2026-05-04T15:49:37.522Z</time></trkpt><trkpt lat="41.2932208" lon="1.3328253"><ele>277.0</ele><time>2026-05-04T15:49:38.52Z</time></trkpt><trkpt lat="41.2931934" lon="1.3330158"><ele>277.0</ele><time>2026-05-04T15:49:39.522Z</time></trkpt><trkpt lat="41.2931666" lon="1.3332109"><ele>276.25</ele><time>2026-05-04T15:49:40.536Z</time></trkpt><trkpt lat="41.2931428" lon="1.3333957"><ele>275.5</ele><time>2026-05-04T15:49:41.527Z</time></trkpt><trkpt lat="41.2931194" lon="1.3335788"><ele>274.75</ele><time>2026-05-04T15:49:42.527Z</time></trkpt><trkpt lat="41.2930919" lon="1.3337657"><ele>274.0</ele><time>2026-05-04T15:49:43.535Z</time></trkpt><trkpt lat="41.2930692" lon="1.3339547"><ele>272.75</ele><time>2026-05-04T15:49:44.528Z</time></trkpt><trkpt lat="41.2930453" lon="1.3341458"><ele>271.5</ele><time>2026-05-04T15:49:45.526Z</time></trkpt><trkpt lat="41.2930191" lon="1.3343391"><ele>270.25</ele><time>2026-05-04T15:49:46.532Z</time></trkpt><trkpt lat="41.2929916" lon="1.3345352"><ele>269.0</ele><time>2026-05-04T15:49:47.529Z</time></trkpt><trkpt lat="41.2929641" lon="1.334729"><ele>268.33333333333337</ele><time>2026-05-04T15:49:48.528Z</time></trkpt><trkpt lat="41.2929348" lon="1.3349231"><ele>267.6666666666667</ele><time>2026-05-04T15:49:49.526Z</time></trkpt><trkpt lat="41.2929116" lon="1.3351171"><ele>267.0</ele><time>2026-05-04T15:49:50.528Z</time></trkpt><trkpt lat="41.2928889" lon="1.3353223"><ele>267.0</ele><time>2026-05-04T15:49:51.529Z</time></trkpt><trkpt lat="41.2928638" lon="1.3355091"><ele>267.0</ele><time>2026-05-04T15:49:52.529Z</time></trkpt><trkpt lat="41.2928403" lon="1.3356909"><ele>267.0</ele><time>2026-05-04T15:49:53.526Z</time></trkpt><trkpt lat="41.2928156" lon="1.3358667"><ele>267.0</ele><time>2026-05-04T15:49:54.529Z</time></trkpt><trkpt lat="41.2927873" lon="1.3360382"><ele>266.75</ele><time>2026-05-04T15:49:55.543Z</time></trkpt><trkpt lat="41.2927643" lon="1.3362151"><ele>266.5</ele><time>2026-05-04T15:49:56.534Z</time></trkpt><trkpt lat="41.29274" lon="1.3363906"><ele>266.25</ele><time>2026-05-04T15:49:57.533Z</time></trkpt><trkpt lat="41.2927096" lon="1.336564"><ele>266.0</ele><time>2026-05-04T15:49:58.531Z</time></trkpt><trkpt lat="41.2926849" lon="1.3367413"><ele>266.5</ele><time>2026-05-04T15:49:59.531Z</time></trkpt><trkpt lat="41.2926601" lon="1.3369301"><ele>267.0</ele><time>2026-05-04T15:50:00.527Z</time></trkpt><trkpt lat="41.2926342" lon="1.3371141"><ele>267.5</ele><time>2026-05-04T15:50:01.526Z</time></trkpt><trkpt lat="41.2926075" lon="1.3372965"><ele>268.0</ele><time>2026-05-04T15:50:02.526Z</time></trkpt><trkpt lat="41.2925824" lon="1.3374726"><ele>268.25</ele><time>2026-05-04T15:50:03.524Z</time></trkpt><trkpt lat="41.2925596" lon="1.3376512"><ele>268.5</ele><time>2026-05-04T15:50:04.527Z</time></trkpt><trkpt lat="41.2925301" lon="1.3378334"><ele>268.75</ele><time>2026-05-04T15:50:05.529Z</time></trkpt><trkpt lat="41.2925075" lon="1.3380219"><ele>269.0</ele><time>2026-05-04T15:50:06.527Z</time></trkpt><trkpt lat="41.2924847" lon="1.3381964"><ele>269.0</ele><time>2026-05-04T15:50:07.522Z</time></trkpt><trkpt lat="41.2924641" lon="1.338374"><ele>269.0</ele><time>2026-05-04T15:50:08.524Z</time></trkpt><trkpt lat="41.2924383" lon="1.3385535"><ele>269.0</ele><time>2026-05-04T15:50:09.527Z</time></trkpt><trkpt lat="41.2924161" lon="1.3387355"><ele>269.0</ele><time>2026-05-04T15:50:10.527Z</time></trkpt><trkpt lat="41.2923915" lon="1.3389168"><ele>268.5</ele><time>2026-05-04T15:50:11.544Z</time></trkpt><trkpt lat="41.292365" lon="1.339101"><ele>268.0</ele><time>2026-05-04T15:50:12.531Z</time></trkpt><trkpt lat="41.2923403" lon="1.3392814"><ele>267.5</ele><time>2026-05-04T15:50:13.529Z</time></trkpt><trkpt lat="41.2923184" lon="1.3394553"><ele>267.0</ele><time>2026-05-04T15:50:14.526Z</time></trkpt><trkpt lat="41.2922916" lon="1.3396215"><ele>267.0</ele><time>2026-05-04T15:50:15.525Z</time></trkpt><trkpt lat="41.2922784" lon="1.3397946"><ele>267.0</ele><time>2026-05-04T15:50:16.53Z</time></trkpt><trkpt lat="41.292263" lon="1.3399392"><ele>267.0</ele><time>2026-05-04T15:50:17.519Z</time></trkpt><trkpt lat="41.2922416" lon="1.3400932"><ele>267.0</ele><time>2026-05-04T15:50:18.529Z</time></trkpt><trkpt lat="41.2922339" lon="1.3402516"><ele>267.0</ele><time>2026-05-04T15:50:19.526Z</time></trkpt><trkpt lat="41.2922201" lon="1.3403995"><ele>267.0</ele><time>2026-05-04T15:50:20.526Z</time></trkpt><trkpt lat="41.2922056" lon="1.3405462"><ele>267.0</ele><time>2026-05-04T15:50:21.528Z</time></trkpt><trkpt lat="41.2921915" lon="1.3406864"><ele>267.0</ele><time>2026-05-04T15:50:22.527Z</time></trkpt><trkpt lat="41.2921752" lon="1.3408172"><ele>267.0</ele><time>2026-05-04T15:50:23.522Z</time></trkpt><trkpt lat="41.2921583" lon="1.3409438"><ele>267.0</ele><time>2026-05-04T15:50:24.523Z</time></trkpt><trkpt lat="41.2921367" lon="1.3410664"><ele>267.0</ele><time>2026-05-04T15:50:25.526Z</time></trkpt><trkpt lat="41.2921035" lon="1.3411855"><ele>267.0</ele><time>2026-05-04T15:50:26.529Z</time></trkpt><trkpt lat="41.2920497" lon="1.3412835"><ele>267.0</ele><time>2026-05-04T15:50:27.528Z</time></trkpt><trkpt lat="41.2919726" lon="1.3413551"><ele>267.0</ele><time>2026-05-04T15:50:28.531Z</time></trkpt><trkpt lat="41.2918847" lon="1.3414159"><ele>267.0</ele><time>2026-05-04T15:50:29.527Z</time></trkpt><trkpt lat="41.2918072" lon="1.3414855"><ele>267.0</ele><time>2026-05-04T15:50:30.523Z</time></trkpt><trkpt lat="41.2917441" lon="1.3415787"><ele>267.0</ele><time>2026-05-04T15:50:31.52Z</time></trkpt><trkpt lat="41.291694" lon="1.3416939"><ele>267.0</ele><time>2026-05-04T15:50:32.519Z</time></trkpt><trkpt lat="41.2916643" lon="1.341819"><ele>267.0</ele><time>2026-05-04T15:50:33.517Z</time></trkpt><trkpt lat="41.2916571" lon="1.3419525"><ele>267.0</ele><time>2026-05-04T15:50:34.526Z</time></trkpt><trkpt lat="41.2916728" lon="1.3420898"><ele>267.0</ele><time>2026-05-04T15:50:35.519Z</time></trkpt><trkpt lat="41.2917008" lon="1.3422212"><ele>267.0</ele><time>2026-05-04T15:50:36.528Z</time></trkpt><trkpt lat="41.2917544" lon="1.3423456"><ele>267.0</ele><time>2026-05-04T15:50:37.519Z</time></trkpt><trkpt lat="41.2918148" lon="1.3424692"><ele>267.0</ele><time>2026-05-04T15:50:38.521Z</time></trkpt><trkpt lat="41.2918669" lon="1.3425989"><ele>266.8</ele><time>2026-05-04T15:50:39.517Z</time></trkpt><trkpt lat="41.2918953" lon="1.3427368"><ele>266.6</ele><time>2026-05-04T15:50:40.519Z</time></trkpt><trkpt lat="41.2919013" lon="1.3428783"><ele>266.40000000000003</ele><time>2026-05-04T15:50:41.515Z</time></trkpt><trkpt lat="41.291892" lon="1.3430216"><ele>266.2</ele><time>2026-05-04T15:50:42.545Z</time></trkpt><trkpt lat="41.2918747" lon="1.3431664"><ele>266.0</ele><time>2026-05-04T15:50:43.528Z</time></trkpt><trkpt lat="41.2918533" lon="1.3433092"><ele>266.0</ele><time>2026-05-04T15:50:44.529Z</time></trkpt><trkpt lat="41.2918275" lon="1.3434611"><ele>266.0</ele><time>2026-05-04T15:50:45.526Z</time></trkpt><trkpt lat="41.2918006" lon="1.3436094"><ele>266.0</ele><time>2026-05-04T15:50:46.529Z</time></trkpt><trkpt lat="41.2917778" lon="1.343758"><ele>266.0</ele><time>2026-05-04T15:50:47.524Z</time></trkpt><trkpt lat="41.291751" lon="1.3439084"><ele>265.75</ele><time>2026-05-04T15:50:48.527Z</time></trkpt><trkpt lat="41.291723" lon="1.3440603"><ele>265.5</ele><time>2026-05-04T15:50:49.53Z</time></trkpt><trkpt lat="41.2916978" lon="1.3442136"><ele>265.25</ele><time>2026-05-04T15:50:50.525Z</time></trkpt><trkpt lat="41.2916716" lon="1.3443685"><ele>265.0</ele><time>2026-05-04T15:50:51.523Z</time></trkpt><trkpt lat="41.2916455" lon="1.3445258"><ele>265.0</ele><time>2026-05-04T15:50:52.526Z</time></trkpt><trkpt lat="41.2916178" lon="1.3446741"><ele>265.0</ele><time>2026-05-04T15:50:53.519Z</time></trkpt><trkpt lat="41.2915963" lon="1.3448292"><ele>265.0</ele><time>2026-05-04T15:50:54.524Z</time></trkpt><trkpt lat="41.2915745" lon="1.3449852"><ele>265.0</ele><time>2026-05-04T15:50:55.524Z</time></trkpt><trkpt lat="41.2915509" lon="1.3451468"><ele>265.25</ele><time>2026-05-04T15:50:56.524Z</time></trkpt><trkpt lat="41.291529" lon="1.3453074"><ele>265.5</ele><time>2026-05-04T15:50:57.523Z</time></trkpt><trkpt lat="41.2915073" lon="1.345472"><ele>265.75</ele><time>2026-05-04T15:50:58.526Z</time></trkpt><trkpt lat="41.2914862" lon="1.3456386"><ele>266.0</ele><time>2026-05-04T15:50:59.525Z</time></trkpt><trkpt lat="41.291465" lon="1.345808"><ele>266.0</ele><time>2026-05-04T15:51:00.529Z</time></trkpt><trkpt lat="41.2914426" lon="1.3459796"><ele>266.0</ele><time>2026-05-04T15:51:01.525Z</time></trkpt><trkpt lat="41.2914206" lon="1.3461539"><ele>266.0</ele><time>2026-05-04T15:51:02.525Z</time></trkpt><trkpt lat="41.2913979" lon="1.3463275"><ele>266.0</ele><time>2026-05-04T15:51:03.525Z</time></trkpt><trkpt lat="41.2913782" lon="1.3465037"><ele>265.5</ele><time>2026-05-04T15:51:04.525Z</time></trkpt><trkpt lat="41.2913523" lon="1.3466805"><ele>265.0</ele><time>2026-05-04T15:51:05.524Z</time></trkpt><trkpt lat="41.2913277" lon="1.3468628"><ele>264.5</ele><time>2026-05-04T15:51:06.524Z</time></trkpt><trkpt lat="41.2913042" lon="1.3470388"><ele>264.0</ele><time>2026-05-04T15:51:07.527Z</time></trkpt><trkpt lat="41.2912847" lon="1.3472225"><ele>264.0</ele><time>2026-05-04T15:51:08.526Z</time></trkpt><trkpt lat="41.2912651" lon="1.3474054"><ele>264.0</ele><time>2026-05-04T15:51:09.526Z</time></trkpt><trkpt lat="41.2912451" lon="1.3475833"><ele>264.0</ele><time>2026-05-04T15:51:10.524Z</time></trkpt><trkpt lat="41.291222" lon="1.3477526"><ele>264.0</ele><time>2026-05-04T15:51:11.523Z</time></trkpt><trkpt lat="41.2911998" lon="1.3479026"><ele>264.0</ele><time>2026-05-04T15:51:12.532Z</time></trkpt><trkpt lat="41.2911778" lon="1.3480424"><ele>264.0</ele><time>2026-05-04T15:51:13.52Z</time></trkpt><trkpt lat="41.2911578" lon="1.3481792"><ele>264.0</ele><time>2026-05-04T15:51:14.514Z</time></trkpt><trkpt lat="41.291139" lon="1.3482977"><ele>264.0</ele><time>2026-05-04T15:51:15.513Z</time></trkpt><trkpt lat="41.2911237" lon="1.3484124"><ele>264.0</ele><time>2026-05-04T15:51:16.508Z</time></trkpt><trkpt lat="41.2911099" lon="1.3485071"><ele>263.8333333333333</ele><time>2026-05-04T15:51:17.52Z</time></trkpt><trkpt lat="41.2910974" lon="1.3486"><ele>263.6666666666667</ele><time>2026-05-04T15:51:18.516Z</time></trkpt><trkpt lat="41.2910813" lon="1.3487496"><ele>263.5</ele><time>2026-05-04T15:51:20.523Z</time></trkpt><trkpt lat="41.2910542" lon="1.3488705"><ele>263.33333333333337</ele><time>2026-05-04T15:51:22.52Z</time></trkpt><trkpt lat="41.2910267" lon="1.3489746"><ele>263.1666666666667</ele><time>2026-05-04T15:51:24.519Z</time></trkpt><trkpt lat="41.2909784" lon="1.3490685"><ele>263.0</ele><time>2026-05-04T15:51:26.521Z</time></trkpt><trkpt lat="41.2909003" lon="1.3491447"><ele>262.2</ele><time>2026-05-04T15:51:28.521Z</time></trkpt><trkpt lat="41.2908215" lon="1.3492231"><ele>261.4</ele><time>2026-05-04T15:51:30.513Z</time></trkpt><trkpt lat="41.2907534" lon="1.3493487"><ele>260.59999999999997</ele><time>2026-05-04T15:51:32.522Z</time></trkpt><trkpt lat="41.2907405" lon="1.3494468"><ele>259.8</ele><time>2026-05-04T15:51:33.522Z</time></trkpt><trkpt lat="41.2907515" lon="1.3495467"><ele>259.0</ele><time>2026-05-04T15:51:34.519Z</time></trkpt><trkpt lat="41.2907716" lon="1.3496565"><ele>258.0</ele><time>2026-05-04T15:51:35.525Z</time></trkpt><trkpt lat="41.2907882" lon="1.3497754"><ele>257.0</ele><time>2026-05-04T15:51:36.52Z</time></trkpt><trkpt lat="41.2907912" lon="1.3499032"><ele>255.99999999999997</ele><time>2026-05-04T15:51:37.523Z</time></trkpt><trkpt lat="41.2907758" lon="1.3500376"><ele>255.0</ele><time>2026-05-04T15:51:38.52Z</time></trkpt><trkpt lat="41.2907408" lon="1.3501723"><ele>254.0</ele><time>2026-05-04T15:51:39.516Z</time></trkpt><trkpt lat="41.2906881" lon="1.3503083"><ele>254.0</ele><time>2026-05-04T15:51:40.519Z</time></trkpt><trkpt lat="41.2906193" lon="1.3504286"><ele>254.0</ele><time>2026-05-04T15:51:41.527Z</time></trkpt><trkpt lat="41.2905443" lon="1.3505495"><ele>254.0</ele><time>2026-05-04T15:51:42.522Z</time></trkpt><trkpt lat="41.2904653" lon="1.3506733"><ele>254.0</ele><time>2026-05-04T15:51:43.544Z</time></trkpt><trkpt lat="41.2903858" lon="1.3508011"><ele>253.5</ele><time>2026-05-04T15:51:44.527Z</time></trkpt><trkpt lat="41.2903029" lon="1.3509328"><ele>253.0</ele><time>2026-05-04T15:51:45.523Z</time></trkpt><trkpt lat="41.2902131" lon="1.3510614"><ele>252.5</ele><time>2026-05-04T15:51:46.528Z</time></trkpt><trkpt lat="41.2901218" lon="1.3511874"><ele>252.0</ele><time>2026-05-04T15:51:47.529Z</time></trkpt><trkpt lat="41.2900295" lon="1.3513165"><ele>250.75</ele><time>2026-05-04T15:51:48.527Z</time></trkpt><trkpt lat="41.2899364" lon="1.3514419"><ele>249.5</ele><time>2026-05-04T15:51:49.528Z</time></trkpt><trkpt lat="41.2898393" lon="1.351568"><ele>248.25</ele><time>2026-05-04T15:51:50.527Z</time></trkpt><trkpt lat="41.2897471" lon="1.3517004"><ele>247.0</ele><time>2026-05-04T15:51:51.529Z</time></trkpt><trkpt lat="41.2896545" lon="1.3518267"><ele>246.75</ele><time>2026-05-04T15:51:52.525Z</time></trkpt><trkpt lat="41.2895605" lon="1.3519575"><ele>246.5</ele><time>2026-05-04T15:51:53.521Z</time></trkpt><trkpt lat="41.2894619" lon="1.3520878"><ele>246.25</ele><time>2026-05-04T15:51:54.522Z</time></trkpt><trkpt lat="41.2893667" lon="1.3522187"><ele>246.0</ele><time>2026-05-04T15:51:55.523Z</time></trkpt><trkpt lat="41.2892673" lon="1.3523461"><ele>244.5</ele><time>2026-05-04T15:51:56.521Z</time></trkpt><trkpt lat="41.2891707" lon="1.3524743"><ele>243.0</ele><time>2026-05-04T15:51:57.525Z</time></trkpt><trkpt lat="41.2890719" lon="1.3526072"><ele>241.5</ele><time>2026-05-04T15:51:58.525Z</time></trkpt><trkpt lat="41.2889742" lon="1.3527402"><ele>240.0</ele><time>2026-05-04T15:51:59.528Z</time></trkpt><trkpt lat="41.288881" lon="1.3528768"><ele>240.0</ele><time>2026-05-04T15:52:00.529Z</time></trkpt><trkpt lat="41.2887737" lon="1.353014"><ele>240.0</ele><time>2026-05-04T15:52:01.528Z</time></trkpt><trkpt lat="41.2886695" lon="1.3531499"><ele>240.0</ele><time>2026-05-04T15:52:02.524Z</time></trkpt><trkpt lat="41.288572" lon="1.3532812"><ele>240.0</ele><time>2026-05-04T15:52:03.515Z</time></trkpt><trkpt lat="41.2884768" lon="1.3534247"><ele>239.25</ele><time>2026-05-04T15:52:04.522Z</time></trkpt><trkpt lat="41.288379" lon="1.3535642"><ele>238.5</ele><time>2026-05-04T15:52:05.523Z</time></trkpt><trkpt lat="41.2882801" lon="1.3536972"><ele>237.75</ele><time>2026-05-04T15:52:06.523Z</time></trkpt><trkpt lat="41.2881791" lon="1.3538285"><ele>237.0</ele><time>2026-05-04T15:52:07.52Z</time></trkpt><trkpt lat="41.2880826" lon="1.3539626"><ele>236.0</ele><time>2026-05-04T15:52:08.522Z</time></trkpt><trkpt lat="41.2879887" lon="1.3540904"><ele>235.0</ele><time>2026-05-04T15:52:09.523Z</time></trkpt><trkpt lat="41.2878992" lon="1.354223"><ele>234.0</ele><time>2026-05-04T15:52:10.522Z</time></trkpt><trkpt lat="41.2878049" lon="1.3543594"><ele>233.0</ele><time>2026-05-04T15:52:11.522Z</time></trkpt><trkpt lat="41.2877108" lon="1.3544905"><ele>233.0</ele><time>2026-05-04T15:52:12.521Z</time></trkpt><trkpt lat="41.2876162" lon="1.3546219"><ele>233.0</ele><time>2026-05-04T15:52:13.526Z</time></trkpt><trkpt lat="41.2875232" lon="1.3547484"><ele>233.0</ele><time>2026-05-04T15:52:14.537Z</time></trkpt><trkpt lat="41.2874286" lon="1.3548731"><ele>233.0</ele><time>2026-05-04T15:52:15.526Z</time></trkpt><trkpt lat="41.2873334" lon="1.3549919"><ele>232.5</ele><time>2026-05-04T15:52:16.53Z</time></trkpt><trkpt lat="41.2872333" lon="1.3551111"><ele>232.0</ele><time>2026-05-04T15:52:17.527Z</time></trkpt><trkpt lat="41.28714" lon="1.3552371"><ele>231.5</ele><time>2026-05-04T15:52:18.527Z</time></trkpt><trkpt lat="41.2870503" lon="1.3553684"><ele>231.0</ele><time>2026-05-04T15:52:19.526Z</time></trkpt><trkpt lat="41.2869594" lon="1.3554944"><ele>230.33333333333331</ele><time>2026-05-04T15:52:20.526Z</time></trkpt><trkpt lat="41.2867636" lon="1.3557557"><ele>229.66666666666666</ele><time>2026-05-04T15:52:22.53Z</time></trkpt><trkpt lat="41.2866686" lon="1.3558932"><ele>229.0</ele><time>2026-05-04T15:52:23.527Z</time></trkpt><trkpt lat="41.2865777" lon="1.35604"><ele>229.0</ele><time>2026-05-04T15:52:24.529Z</time></trkpt><trkpt lat="41.2864926" lon="1.3561916"><ele>229.0</ele><time>2026-05-04T15:52:25.528Z</time></trkpt><trkpt lat="41.2864116" lon="1.3563455"><ele>229.0</ele><time>2026-05-04T15:52:26.526Z</time></trkpt><trkpt lat="41.286342" lon="1.3565043"><ele>229.0</ele><time>2026-05-04T15:52:27.524Z</time></trkpt><trkpt lat="41.2862738" lon="1.3566725"><ele>228.25</ele><time>2026-05-04T15:52:28.523Z</time></trkpt><trkpt lat="41.2862143" lon="1.35685"><ele>227.5</ele><time>2026-05-04T15:52:29.525Z</time></trkpt><trkpt lat="41.2861568" lon="1.3570304"><ele>226.75</ele><time>2026-05-04T15:52:30.528Z</time></trkpt><trkpt lat="41.2860982" lon="1.3572084"><ele>226.0</ele><time>2026-05-04T15:52:31.524Z</time></trkpt><trkpt lat="41.2860466" lon="1.3573811"><ele>225.0</ele><time>2026-05-04T15:52:32.523Z</time></trkpt><trkpt lat="41.2859973" lon="1.3575458"><ele>224.0</ele><time>2026-05-04T15:52:33.521Z</time></trkpt><trkpt lat="41.2859471" lon="1.3577055"><ele>223.0</ele><time>2026-05-04T15:52:34.524Z</time></trkpt><trkpt lat="41.2859002" lon="1.3578662"><ele>222.0</ele><time>2026-05-04T15:52:35.52Z</time></trkpt><trkpt lat="41.2858617" lon="1.3580268"><ele>221.75</ele><time>2026-05-04T15:52:36.521Z</time></trkpt><trkpt lat="41.2858217" lon="1.3581831"><ele>221.5</ele><time>2026-05-04T15:52:37.522Z</time></trkpt><trkpt lat="41.2857843" lon="1.3583422"><ele>221.25</ele><time>2026-05-04T15:52:38.521Z</time></trkpt><trkpt lat="41.2857435" lon="1.3585004"><ele>221.0</ele><time>2026-05-04T15:52:39.524Z</time></trkpt><trkpt lat="41.2856988" lon="1.3586573"><ele>221.0</ele><time>2026-05-04T15:52:40.533Z</time></trkpt><trkpt lat="41.2856529" lon="1.358812"><ele>221.0</ele><time>2026-05-04T15:52:41.526Z</time></trkpt><trkpt lat="41.2856081" lon="1.3589664"><ele>221.0</ele><time>2026-05-04T15:52:42.517Z</time></trkpt><trkpt lat="41.2855626" lon="1.3591223"><ele>221.0</ele><time>2026-05-04T15:52:43.536Z</time></trkpt><trkpt lat="41.2855182" lon="1.3592812"><ele>221.0</ele><time>2026-05-04T15:52:44.525Z</time></trkpt><trkpt lat="41.28547" lon="1.3594408"><ele>221.0</ele><time>2026-05-04T15:52:45.539Z</time></trkpt><trkpt lat="41.2854247" lon="1.3595994"><ele>221.0</ele><time>2026-05-04T15:52:46.527Z</time></trkpt><trkpt lat="41.2853815" lon="1.359759"><ele>221.0</ele><time>2026-05-04T15:52:47.528Z</time></trkpt><trkpt lat="41.2853377" lon="1.359912"><ele>221.25</ele><time>2026-05-04T15:52:48.525Z</time></trkpt><trkpt lat="41.2852894" lon="1.3600731"><ele>221.5</ele><time>2026-05-04T15:52:49.528Z</time></trkpt><trkpt lat="41.2852456" lon="1.360232"><ele>221.75</ele><time>2026-05-04T15:52:50.526Z</time></trkpt><trkpt lat="41.2852032" lon="1.3603877"><ele>222.0</ele><time>2026-05-04T15:52:51.525Z</time></trkpt><trkpt lat="41.2851645" lon="1.3605425"><ele>222.5</ele><time>2026-05-04T15:52:52.527Z</time></trkpt><trkpt lat="41.2851296" lon="1.3606981"><ele>223.0</ele><time>2026-05-04T15:52:53.532Z</time></trkpt><trkpt lat="41.285098" lon="1.3608574"><ele>223.5</ele><time>2026-05-04T15:52:54.53Z</time></trkpt><trkpt lat="41.2850763" lon="1.3610164"><ele>224.0</ele><time>2026-05-04T15:52:55.527Z</time></trkpt><trkpt lat="41.2850649" lon="1.361181"><ele>224.0</ele><time>2026-05-04T15:52:56.525Z</time></trkpt><trkpt lat="41.2850647" lon="1.3613466"><ele>224.0</ele><time>2026-05-04T15:52:57.53Z</time></trkpt><trkpt lat="41.2850723" lon="1.3615132"><ele>224.0</ele><time>2026-05-04T15:52:58.524Z</time></trkpt><trkpt lat="41.2850862" lon="1.3616818"><ele>224.0</ele><time>2026-05-04T15:52:59.525Z</time></trkpt><trkpt lat="41.2851016" lon="1.3618492"><ele>224.0</ele><time>2026-05-04T15:53:00.529Z</time></trkpt><trkpt lat="41.2851185" lon="1.3620163"><ele>224.0</ele><time>2026-05-04T15:53:01.526Z</time></trkpt><trkpt lat="41.285137" lon="1.3621762"><ele>224.0</ele><time>2026-05-04T15:53:02.527Z</time></trkpt><trkpt lat="41.2851547" lon="1.3623367"><ele>224.0</ele><time>2026-05-04T15:53:03.526Z</time></trkpt><trkpt lat="41.2851705" lon="1.3624967"><ele>224.5</ele><time>2026-05-04T15:53:04.526Z</time></trkpt><trkpt lat="41.2851854" lon="1.3626543"><ele>225.0</ele><time>2026-05-04T15:53:05.525Z</time></trkpt><trkpt lat="41.2851974" lon="1.3628097"><ele>225.5</ele><time>2026-05-04T15:53:06.527Z</time></trkpt><trkpt lat="41.2852126" lon="1.3629618"><ele>226.0</ele><time>2026-05-04T15:53:07.525Z</time></trkpt><trkpt lat="41.285227" lon="1.3631119"><ele>226.75</ele><time>2026-05-04T15:53:08.526Z</time></trkpt><trkpt lat="41.2852426" lon="1.363262"><ele>227.5</ele><time>2026-05-04T15:53:09.525Z</time></trkpt><trkpt lat="41.2852563" lon="1.3634125"><ele>228.25</ele><time>2026-05-04T15:53:10.527Z</time></trkpt><trkpt lat="41.2852734" lon="1.3635677"><ele>229.0</ele><time>2026-05-04T15:53:11.53Z</time></trkpt><trkpt lat="41.2852847" lon="1.3637256"><ele>229.75</ele><time>2026-05-04T15:53:12.528Z</time></trkpt><trkpt lat="41.2852956" lon="1.363884"><ele>230.5</ele><time>2026-05-04T15:53:13.533Z</time></trkpt><trkpt lat="41.2853061" lon="1.3640444"><ele>231.25</ele><time>2026-05-04T15:53:14.524Z</time></trkpt><trkpt lat="41.2853206" lon="1.3642097"><ele>232.0</ele><time>2026-05-04T15:53:15.524Z</time></trkpt><trkpt lat="41.2853318" lon="1.3643696"><ele>232.0</ele><time>2026-05-04T15:53:16.541Z</time></trkpt><trkpt lat="41.2853492" lon="1.3645215"><ele>232.0</ele><time>2026-05-04T15:53:17.526Z</time></trkpt><trkpt lat="41.2853706" lon="1.3646702"><ele>232.0</ele><time>2026-05-04T15:53:18.525Z</time></trkpt><trkpt lat="41.285403" lon="1.3648134"><ele>232.0</ele><time>2026-05-04T15:53:19.524Z</time></trkpt><trkpt lat="41.2854401" lon="1.3649516"><ele>232.75</ele><time>2026-05-04T15:53:20.522Z</time></trkpt><trkpt lat="41.2854862" lon="1.3650911"><ele>233.5</ele><time>2026-05-04T15:53:21.524Z</time></trkpt><trkpt lat="41.2855381" lon="1.3652302"><ele>234.25</ele><time>2026-05-04T15:53:22.523Z</time></trkpt><trkpt lat="41.2855975" lon="1.3653639"><ele>235.0</ele><time>2026-05-04T15:53:23.522Z</time></trkpt><trkpt lat="41.2856637" lon="1.3654892"><ele>237.25</ele><time>2026-05-04T15:53:24.524Z</time></trkpt><trkpt lat="41.2857384" lon="1.3656087"><ele>239.5</ele><time>2026-05-04T15:53:25.523Z</time></trkpt><trkpt lat="41.2858161" lon="1.3657242"><ele>241.75</ele><time>2026-05-04T15:53:26.526Z</time></trkpt><trkpt lat="41.285898" lon="1.3658317"><ele>244.0</ele><time>2026-05-04T15:53:27.526Z</time></trkpt><trkpt lat="41.2859888" lon="1.3659323"><ele>244.0</ele><time>2026-05-04T15:53:28.521Z</time></trkpt><trkpt lat="41.2860866" lon="1.3660291"><ele>244.0</ele><time>2026-05-04T15:53:29.52Z</time></trkpt><trkpt lat="41.286186" lon="1.3661262"><ele>244.0</ele><time>2026-05-04T15:53:30.522Z</time></trkpt><trkpt lat="41.2862821" lon="1.3662239"><ele>244.0</ele><time>2026-05-04T15:53:31.52Z</time></trkpt><trkpt lat="41.2863808" lon="1.366324"><ele>246.5</ele><time>2026-05-04T15:53:32.522Z</time></trkpt><trkpt lat="41.2864755" lon="1.3664216"><ele>249.0</ele><time>2026-05-04T15:53:33.521Z</time></trkpt><trkpt lat="41.2865727" lon="1.3665175"><ele>251.5</ele><time>2026-05-04T15:53:34.519Z</time></trkpt><trkpt lat="41.2866658" lon="1.366613"><ele>254.0</ele><time>2026-05-04T15:53:35.52Z</time></trkpt><trkpt lat="41.2867569" lon="1.3667044"><ele>254.0</ele><time>2026-05-04T15:53:36.519Z</time></trkpt><trkpt lat="41.2868463" lon="1.3667963"><ele>253.99999999999997</ele><time>2026-05-04T15:53:37.52Z</time></trkpt><trkpt lat="41.286935" lon="1.3668933"><ele>253.99999999999997</ele><time>2026-05-04T15:53:38.519Z</time></trkpt><trkpt lat="41.2870214" lon="1.3669837"><ele>254.0</ele><time>2026-05-04T15:53:39.518Z</time></trkpt><trkpt lat="41.2871069" lon="1.3670739"><ele>254.0</ele><time>2026-05-04T15:53:40.521Z</time></trkpt><trkpt lat="41.2871934" lon="1.3671688"><ele>254.75</ele><time>2026-05-04T15:53:41.517Z</time></trkpt><trkpt lat="41.2872799" lon="1.3672642"><ele>255.5</ele><time>2026-05-04T15:53:42.523Z</time></trkpt><trkpt lat="41.2873678" lon="1.3673578"><ele>256.25</ele><time>2026-05-04T15:53:43.526Z</time></trkpt><trkpt lat="41.28746" lon="1.3674487"><ele>257.0</ele><time>2026-05-04T15:53:44.517Z</time></trkpt><trkpt lat="41.2875548" lon="1.3675381"><ele>257.0</ele><time>2026-05-04T15:53:45.517Z</time></trkpt><trkpt lat="41.2876497" lon="1.3676203"><ele>257.0</ele><time>2026-05-04T15:53:46.518Z</time></trkpt><trkpt lat="41.2877441" lon="1.3677063"><ele>257.0</ele><time>2026-05-04T15:53:47.532Z</time></trkpt><trkpt lat="41.2878482" lon="1.3677807"><ele>257.0</ele><time>2026-05-04T15:53:48.52Z</time></trkpt><trkpt lat="41.2879532" lon="1.3678516"><ele>257.0</ele><time>2026-05-04T15:53:49.52Z</time></trkpt><trkpt lat="41.2880553" lon="1.3679145"><ele>257.0</ele><time>2026-05-04T15:53:50.522Z</time></trkpt><trkpt lat="41.288163" lon="1.3679714"><ele>257.0</ele><time>2026-05-04T15:53:51.522Z</time></trkpt><trkpt lat="41.2882717" lon="1.3680208"><ele>257.0</ele><time>2026-05-04T15:53:52.521Z</time></trkpt><trkpt lat="41.2883826" lon="1.3680659"><ele>259.25</ele><time>2026-05-04T15:53:53.523Z</time></trkpt><trkpt lat="41.2884934" lon="1.3681104"><ele>261.5</ele><time>2026-05-04T15:53:54.527Z</time></trkpt><trkpt lat="41.288606" lon="1.3681526"><ele>263.75</ele><time>2026-05-04T15:53:55.524Z</time></trkpt><trkpt lat="41.288718" lon="1.3681917"><ele>266.0</ele><time>2026-05-04T15:53:56.522Z</time></trkpt><trkpt lat="41.2888319" lon="1.3682266"><ele>266.75</ele><time>2026-05-04T15:53:57.523Z</time></trkpt><trkpt lat="41.288946" lon="1.368261"><ele>267.5</ele><time>2026-05-04T15:53:58.526Z</time></trkpt><trkpt lat="41.2890576" lon="1.3683008"><ele>268.25</ele><time>2026-05-04T15:53:59.523Z</time></trkpt><trkpt lat="41.2891707" lon="1.3683471"><ele>269.0</ele><time>2026-05-04T15:54:00.524Z</time></trkpt><trkpt lat="41.2892837" lon="1.3683968"><ele>269.0</ele><time>2026-05-04T15:54:01.522Z</time></trkpt><trkpt lat="41.2893913" lon="1.3684525"><ele>269.0</ele><time>2026-05-04T15:54:02.522Z</time></trkpt><trkpt lat="41.2894985" lon="1.3685184"><ele>269.0</ele><time>2026-05-04T15:54:03.519Z</time></trkpt><trkpt lat="41.2896041" lon="1.3685945"><ele>269.0</ele><time>2026-05-04T15:54:04.52Z</time></trkpt><trkpt lat="41.2896992" lon="1.368679"><ele>269.59999999999997</ele><time>2026-05-04T15:54:05.521Z</time></trkpt><trkpt lat="41.289789" lon="1.3687706"><ele>270.2</ele><time>2026-05-04T15:54:06.524Z</time></trkpt><trkpt lat="41.2898724" lon="1.3688657"><ele>270.79999999999995</ele><time>2026-05-04T15:54:07.523Z</time></trkpt><trkpt lat="41.2899521" lon="1.3689663"><ele>271.4</ele><time>2026-05-04T15:54:08.521Z</time></trkpt><trkpt lat="41.2900235" lon="1.3690694"><ele>272.0</ele><time>2026-05-04T15:54:09.52Z</time></trkpt><trkpt lat="41.2900893" lon="1.3691803"><ele>272.0</ele><time>2026-05-04T15:54:10.529Z</time></trkpt><trkpt lat="41.290149" lon="1.3692958"><ele>272.0</ele><time>2026-05-04T15:54:11.52Z</time></trkpt><trkpt lat="41.290207" lon="1.3694166"><ele>272.0</ele><time>2026-05-04T15:54:12.525Z</time></trkpt><trkpt lat="41.2902638" lon="1.3695412"><ele>272.0</ele><time>2026-05-04T15:54:13.524Z</time></trkpt><trkpt lat="41.2903154" lon="1.3696703"><ele>272.0</ele><time>2026-05-04T15:54:14.522Z</time></trkpt><trkpt lat="41.2903599" lon="1.3698034"><ele>273.4</ele><time>2026-05-04T15:54:15.52Z</time></trkpt><trkpt lat="41.2904005" lon="1.3699385"><ele>274.79999999999995</ele><time>2026-05-04T15:54:16.523Z</time></trkpt><trkpt lat="41.2904341" lon="1.3700753"><ele>276.2</ele><time>2026-05-04T15:54:17.521Z</time></trkpt><trkpt lat="41.2904601" lon="1.3702154"><ele>277.59999999999997</ele><time>2026-05-04T15:54:18.542Z</time></trkpt><trkpt lat="41.2904838" lon="1.3703602"><ele>279.0</ele><time>2026-05-04T15:54:19.523Z</time></trkpt><trkpt lat="41.2905091" lon="1.3705105"><ele>279.75</ele><time>2026-05-04T15:54:20.525Z</time></trkpt><trkpt lat="41.2905345" lon="1.3706618"><ele>280.5</ele><time>2026-05-04T15:54:21.524Z</time></trkpt><trkpt lat="41.2905584" lon="1.3708099"><ele>281.25</ele><time>2026-05-04T15:54:22.52Z</time></trkpt><trkpt lat="41.2905818" lon="1.3709589"><ele>282.0</ele><time>2026-05-04T15:54:23.532Z</time></trkpt><trkpt lat="41.2906046" lon="1.3711051"><ele>282.0</ele><time>2026-05-04T15:54:24.524Z</time></trkpt><trkpt lat="41.2906248" lon="1.3712548"><ele>282.0</ele><time>2026-05-04T15:54:25.528Z</time></trkpt><trkpt lat="41.2906461" lon="1.3714061"><ele>282.0</ele><time>2026-05-04T15:54:26.523Z</time></trkpt><trkpt lat="41.2906714" lon="1.3715596"><ele>282.0</ele><time>2026-05-04T15:54:27.525Z</time></trkpt><trkpt lat="41.2906989" lon="1.3717144"><ele>282.0</ele><time>2026-05-04T15:54:28.525Z</time></trkpt><trkpt lat="41.2907247" lon="1.3718704"><ele>282.0</ele><time>2026-05-04T15:54:29.524Z</time></trkpt><trkpt lat="41.2907488" lon="1.3720275"><ele>282.0</ele><time>2026-05-04T15:54:30.522Z</time></trkpt><trkpt lat="41.2907743" lon="1.3721874"><ele>282.0</ele><time>2026-05-04T15:54:31.522Z</time></trkpt><trkpt lat="41.2908016" lon="1.3723465"><ele>282.25</ele><time>2026-05-04T15:54:32.522Z</time></trkpt><trkpt lat="41.290828" lon="1.3725059"><ele>282.5</ele><time>2026-05-04T15:54:33.527Z</time></trkpt><trkpt lat="41.2908587" lon="1.3726668"><ele>282.75</ele><time>2026-05-04T15:54:34.524Z</time></trkpt><trkpt lat="41.2908925" lon="1.3728273"><ele>283.0</ele><time>2026-05-04T15:54:35.523Z</time></trkpt><trkpt lat="41.2909326" lon="1.3729838"><ele>283.0</ele><time>2026-05-04T15:54:36.525Z</time></trkpt><trkpt lat="41.2909745" lon="1.3731454"><ele>283.0</ele><time>2026-05-04T15:54:37.527Z</time></trkpt><trkpt lat="41.2910157" lon="1.3733127"><ele>283.0</ele><time>2026-05-04T15:54:38.525Z</time></trkpt><trkpt lat="41.2910575" lon="1.3734824"><ele>283.0</ele><time>2026-05-04T15:54:39.524Z</time></trkpt><trkpt lat="41.2911019" lon="1.3736544"><ele>283.0</ele><time>2026-05-04T15:54:40.525Z</time></trkpt><trkpt lat="41.2911489" lon="1.3738316"><ele>283.0</ele><time>2026-05-04T15:54:41.523Z</time></trkpt><trkpt lat="41.2911971" lon="1.3740118"><ele>283.0</ele><time>2026-05-04T15:54:42.526Z</time></trkpt><trkpt lat="41.2912342" lon="1.3741928"><ele>283.0</ele><time>2026-05-04T15:54:43.533Z</time></trkpt><trkpt lat="41.2912726" lon="1.3743562"><ele>282.5</ele><time>2026-05-04T15:54:44.529Z</time></trkpt><trkpt lat="41.2913096" lon="1.3745193"><ele>282.0</ele><time>2026-05-04T15:54:45.527Z</time></trkpt><trkpt lat="41.291338" lon="1.3746755"><ele>281.5</ele><time>2026-05-04T15:54:46.528Z</time></trkpt><trkpt lat="41.2913668" lon="1.3748191"><ele>281.0</ele><time>2026-05-04T15:54:47.528Z</time></trkpt><trkpt lat="41.2913864" lon="1.3749746"><ele>282.25</ele><time>2026-05-04T15:54:48.518Z</time></trkpt><trkpt lat="41.2914324" lon="1.3752349"><ele>283.5</ele><time>2026-05-04T15:54:50.528Z</time></trkpt><trkpt lat="41.2914542" lon="1.3753652"><ele>284.75</ele><time>2026-05-04T15:54:51.532Z</time></trkpt><trkpt lat="41.2914771" lon="1.375498"><ele>286.0</ele><time>2026-05-04T15:54:52.533Z</time></trkpt><trkpt lat="41.2915037" lon="1.3756293"><ele>286.40000000000003</ele><time>2026-05-04T15:54:53.531Z</time></trkpt><trkpt lat="41.2915274" lon="1.3757566"><ele>286.8</ele><time>2026-05-04T15:54:54.532Z</time></trkpt><trkpt lat="41.291552" lon="1.3758916"><ele>287.20000000000005</ele><time>2026-05-04T15:54:55.529Z</time></trkpt><trkpt lat="41.2915708" lon="1.3760178"><ele>287.6</ele><time>2026-05-04T15:54:56.528Z</time></trkpt><trkpt lat="41.2915931" lon="1.37614"><ele>288.0</ele><time>2026-05-04T15:54:57.527Z</time></trkpt><trkpt lat="41.2916171" lon="1.3762707"><ele>287.8</ele><time>2026-05-04T15:54:58.528Z</time></trkpt><trkpt lat="41.2916396" lon="1.3763934"><ele>287.6</ele><time>2026-05-04T15:54:59.527Z</time></trkpt><trkpt lat="41.2916612" lon="1.3765151"><ele>287.4</ele><time>2026-05-04T15:55:00.526Z</time></trkpt><trkpt lat="41.2916793" lon="1.3766408"><ele>287.2</ele><time>2026-05-04T15:55:01.528Z</time></trkpt><trkpt lat="41.2916991" lon="1.3767687"><ele>287.0</ele><time>2026-05-04T15:55:02.527Z</time></trkpt><trkpt lat="41.2917154" lon="1.376896"><ele>287.0</ele><time>2026-05-04T15:55:03.525Z</time></trkpt><trkpt lat="41.2917311" lon="1.377025"><ele>287.0</ele><time>2026-05-04T15:55:04.527Z</time></trkpt><trkpt lat="41.2917474" lon="1.3771587"><ele>287.0</ele><time>2026-05-04T15:55:05.53Z</time></trkpt><trkpt lat="41.2917639" lon="1.3772922"><ele>287.0</ele><time>2026-05-04T15:55:06.528Z</time></trkpt><trkpt lat="41.2917806" lon="1.377427"><ele>287.0</ele><time>2026-05-04T15:55:07.527Z</time></trkpt><trkpt lat="41.2917939" lon="1.3775645"><ele>287.0</ele><time>2026-05-04T15:55:08.527Z</time></trkpt><trkpt lat="41.2918065" lon="1.377697"><ele>287.0</ele><time>2026-05-04T15:55:09.527Z</time></trkpt><trkpt lat="41.2918148" lon="1.377827"><ele>287.0</ele><time>2026-05-04T15:55:10.531Z</time></trkpt><trkpt lat="41.2918223" lon="1.3779575"><ele>287.0</ele><time>2026-05-04T15:55:11.53Z</time></trkpt><trkpt lat="41.2918219" lon="1.378081"><ele>287.0</ele><time>2026-05-04T15:55:12.526Z</time></trkpt><trkpt lat="41.2918198" lon="1.3782004"><ele>287.0</ele><time>2026-05-04T15:55:13.533Z</time></trkpt><trkpt lat="41.2918157" lon="1.3783177"><ele>287.0</ele><time>2026-05-04T15:55:14.523Z</time></trkpt><trkpt lat="41.2918095" lon="1.3784296"><ele>287.0</ele><time>2026-05-04T15:55:15.533Z</time></trkpt><trkpt lat="41.2918013" lon="1.3785429"><ele>287.0</ele><time>2026-05-04T15:55:16.517Z</time></trkpt><trkpt lat="41.2917863" lon="1.3786475"><ele>287.0</ele><time>2026-05-04T15:55:17.524Z</time></trkpt><trkpt lat="41.291768" lon="1.3787527"><ele>287.0</ele><time>2026-05-04T15:55:18.521Z</time></trkpt><trkpt lat="41.2917538" lon="1.3788647"><ele>286.83333333333337</ele><time>2026-05-04T15:55:19.523Z</time></trkpt><trkpt lat="41.2917353" lon="1.3789759"><ele>286.6666666666667</ele><time>2026-05-04T15:55:20.552Z</time></trkpt><trkpt lat="41.2917201" lon="1.3790826"><ele>286.5</ele><time>2026-05-04T15:55:21.526Z</time></trkpt><trkpt lat="41.2916998" lon="1.3791873"><ele>286.3333333333333</ele><time>2026-05-04T15:55:22.527Z</time></trkpt><trkpt lat="41.2916784" lon="1.3792951"><ele>286.16666666666663</ele><time>2026-05-04T15:55:23.524Z</time></trkpt><trkpt lat="41.2916518" lon="1.3794012"><ele>286.0</ele><time>2026-05-04T15:55:24.528Z</time></trkpt><trkpt lat="41.2916218" lon="1.3795016"><ele>286.0</ele><time>2026-05-04T15:55:25.528Z</time></trkpt><trkpt lat="41.2915957" lon="1.3795993"><ele>286.0</ele><time>2026-05-04T15:55:26.532Z</time></trkpt><trkpt lat="41.2915678" lon="1.3796972"><ele>286.0</ele><time>2026-05-04T15:55:27.536Z</time></trkpt><trkpt lat="41.2915398" lon="1.379797"><ele>286.0</ele><time>2026-05-04T15:55:28.534Z</time></trkpt><trkpt lat="41.2915077" lon="1.3798938"><ele>286.0</ele><time>2026-05-04T15:55:29.535Z</time></trkpt><trkpt lat="41.2914746" lon="1.3799913"><ele>286.0</ele><time>2026-05-04T15:55:30.534Z</time></trkpt><trkpt lat="41.2914414" lon="1.3800859"><ele>287.0</ele><time>2026-05-04T15:55:31.536Z</time></trkpt><trkpt lat="41.2914063" lon="1.3801823"><ele>288.0</ele><time>2026-05-04T15:55:32.534Z</time></trkpt><trkpt lat="41.291372" lon="1.3802804"><ele>289.0</ele><time>2026-05-04T15:55:33.534Z</time></trkpt><trkpt lat="41.2913418" lon="1.3803769"><ele>290.0</ele><time>2026-05-04T15:55:34.537Z</time></trkpt><trkpt lat="41.2913107" lon="1.3804753"><ele>291.0</ele><time>2026-05-04T15:55:35.536Z</time></trkpt><trkpt lat="41.2912805" lon="1.3805729"><ele>292.0</ele><time>2026-05-04T15:55:36.533Z</time></trkpt><trkpt lat="41.2912539" lon="1.3806714"><ele>292.66666666666663</ele><time>2026-05-04T15:55:37.527Z</time></trkpt><trkpt lat="41.2912201" lon="1.3807685"><ele>293.3333333333333</ele><time>2026-05-04T15:55:38.527Z</time></trkpt><trkpt lat="41.2911906" lon="1.3808651"><ele>294.0</ele><time>2026-05-04T15:55:39.526Z</time></trkpt><trkpt lat="41.2911626" lon="1.3809627"><ele>294.6666666666667</ele><time>2026-05-04T15:55:40.528Z</time></trkpt><trkpt lat="41.2911358" lon="1.3810593"><ele>295.33333333333337</ele><time>2026-05-04T15:55:41.527Z</time></trkpt><trkpt lat="41.2911082" lon="1.3811609"><ele>296.0</ele><time>2026-05-04T15:55:42.526Z</time></trkpt><trkpt lat="41.2910807" lon="1.3812634"><ele>296.83333333333337</ele><time>2026-05-04T15:55:43.532Z</time></trkpt><trkpt lat="41.2910533" lon="1.3813628"><ele>297.6666666666667</ele><time>2026-05-04T15:55:44.526Z</time></trkpt><trkpt lat="41.2910229" lon="1.3814623"><ele>298.5</ele><time>2026-05-04T15:55:45.529Z</time></trkpt><trkpt lat="41.2909903" lon="1.3815674"><ele>299.3333333333333</ele><time>2026-05-04T15:55:46.529Z</time></trkpt><trkpt lat="41.2909583" lon="1.3816703"><ele>300.16666666666663</ele><time>2026-05-04T15:55:47.528Z</time></trkpt><trkpt lat="41.2909261" lon="1.3817721"><ele>301.0</ele><time>2026-05-04T15:55:48.53Z</time></trkpt><trkpt lat="41.2908957" lon="1.3818727"><ele>301.0</ele><time>2026-05-04T15:55:49.528Z</time></trkpt><trkpt lat="41.2908663" lon="1.381973"><ele>301.0</ele><time>2026-05-04T15:55:50.541Z</time></trkpt><trkpt lat="41.2908382" lon="1.3820754"><ele>301.0</ele><time>2026-05-04T15:55:51.529Z</time></trkpt><trkpt lat="41.2908058" lon="1.3821801"><ele>301.0</ele><time>2026-05-04T15:55:52.529Z</time></trkpt><trkpt lat="41.2907729" lon="1.3822819"><ele>301.0</ele><time>2026-05-04T15:55:53.528Z</time></trkpt><trkpt lat="41.2907423" lon="1.3823823"><ele>301.0</ele><time>2026-05-04T15:55:54.531Z</time></trkpt><trkpt lat="41.2907121" lon="1.3824825"><ele>301.8</ele><time>2026-05-04T15:55:55.528Z</time></trkpt><trkpt lat="41.290682" lon="1.3825826"><ele>302.6</ele><time>2026-05-04T15:55:56.527Z</time></trkpt><trkpt lat="41.2906538" lon="1.3826889"><ele>303.4</ele><time>2026-05-04T15:55:57.526Z</time></trkpt><trkpt lat="41.2906244" lon="1.3827922"><ele>304.2</ele><time>2026-05-04T15:55:58.532Z</time></trkpt><trkpt lat="41.2905583" lon="1.3829983"><ele>305.0</ele><time>2026-05-04T15:56:00.53Z</time></trkpt><trkpt lat="41.290527" lon="1.383102"><ele>306.0</ele><time>2026-05-04T15:56:01.528Z</time></trkpt><trkpt lat="41.2904942" lon="1.3832066"><ele>307.0</ele><time>2026-05-04T15:56:02.527Z</time></trkpt><trkpt lat="41.2904629" lon="1.3833143"><ele>308.0</ele><time>2026-05-04T15:56:03.527Z</time></trkpt><trkpt lat="41.2904285" lon="1.3834257"><ele>309.0</ele><time>2026-05-04T15:56:04.53Z</time></trkpt><trkpt lat="41.2903942" lon="1.3835353"><ele>310.0</ele><time>2026-05-04T15:56:05.526Z</time></trkpt><trkpt lat="41.2903606" lon="1.3836452"><ele>311.0</ele><time>2026-05-04T15:56:06.527Z</time></trkpt><trkpt lat="41.2903306" lon="1.3837597"><ele>310.6</ele><time>2026-05-04T15:56:07.527Z</time></trkpt><trkpt lat="41.2903" lon="1.3838751"><ele>310.20000000000005</ele><time>2026-05-04T15:56:08.527Z</time></trkpt><trkpt lat="41.2902674" lon="1.3839939"><ele>309.79999999999995</ele><time>2026-05-04T15:56:09.534Z</time></trkpt><trkpt lat="41.2902302" lon="1.3841135"><ele>309.4</ele><time>2026-05-04T15:56:10.529Z</time></trkpt><trkpt lat="41.2901937" lon="1.3842375"><ele>309.0</ele><time>2026-05-04T15:56:11.529Z</time></trkpt><trkpt lat="41.2901525" lon="1.3843669"><ele>309.0</ele><time>2026-05-04T15:56:12.528Z</time></trkpt><trkpt lat="41.2901146" lon="1.3844988"><ele>309.0</ele><time>2026-05-04T15:56:13.532Z</time></trkpt><trkpt lat="41.290073" lon="1.3846388"><ele>309.0</ele><time>2026-05-04T15:56:14.529Z</time></trkpt><trkpt lat="41.2900286" lon="1.3847881"><ele>309.0</ele><time>2026-05-04T15:56:15.524Z</time></trkpt><trkpt lat="41.2899824" lon="1.3849445"><ele>309.25</ele><time>2026-05-04T15:56:16.528Z</time></trkpt><trkpt lat="41.2899346" lon="1.3851038"><ele>309.5</ele><time>2026-05-04T15:56:17.533Z</time></trkpt><trkpt lat="41.2898888" lon="1.3852648"><ele>309.75</ele><time>2026-05-04T15:56:18.528Z</time></trkpt><trkpt lat="41.2898382" lon="1.385427"><ele>310.0</ele><time>2026-05-04T15:56:19.526Z</time></trkpt><trkpt lat="41.2897907" lon="1.3855871"><ele>309.5</ele><time>2026-05-04T15:56:20.531Z</time></trkpt><trkpt lat="41.2897412" lon="1.3857512"><ele>309.0</ele><time>2026-05-04T15:56:21.543Z</time></trkpt><trkpt lat="41.2896904" lon="1.3859117"><ele>308.5</ele><time>2026-05-04T15:56:22.53Z</time></trkpt><trkpt lat="41.2896405" lon="1.3860683"><ele>308.0</ele><time>2026-05-04T15:56:23.527Z</time></trkpt><trkpt lat="41.2895943" lon="1.3862278"><ele>307.6666666666667</ele><time>2026-05-04T15:56:24.528Z</time></trkpt><trkpt lat="41.2895496" lon="1.3863901"><ele>307.3333333333333</ele><time>2026-05-04T15:56:25.529Z</time></trkpt><trkpt lat="41.2895053" lon="1.3865456"><ele>307.0</ele><time>2026-05-04T15:56:26.531Z</time></trkpt><trkpt lat="41.2894154" lon="1.3868643"><ele>308.0</ele><time>2026-05-04T15:56:28.53Z</time></trkpt><trkpt lat="41.2893194" lon="1.3871891"><ele>309.0</ele><time>2026-05-04T15:56:30.529Z</time></trkpt><trkpt lat="41.2892715" lon="1.3873501"><ele>310.0</ele><time>2026-05-04T15:56:31.531Z</time></trkpt><trkpt lat="41.2892237" lon="1.3875118"><ele>310.0</ele><time>2026-05-04T15:56:32.532Z</time></trkpt><trkpt lat="41.2891759" lon="1.3876767"><ele>310.0</ele><time>2026-05-04T15:56:33.533Z</time></trkpt><trkpt lat="41.2891274" lon="1.3878391"><ele>310.0</ele><time>2026-05-04T15:56:34.531Z</time></trkpt><trkpt lat="41.2890801" lon="1.3880049"><ele>310.0</ele><time>2026-05-04T15:56:35.528Z</time></trkpt><trkpt lat="41.289032" lon="1.3881678"><ele>309.25</ele><time>2026-05-04T15:56:36.533Z</time></trkpt><trkpt lat="41.2889823" lon="1.3883341"><ele>308.5</ele><time>2026-05-04T15:56:37.532Z</time></trkpt><trkpt lat="41.2889362" lon="1.388502"><ele>307.75</ele><time>2026-05-04T15:56:38.531Z</time></trkpt><trkpt lat="41.2888891" lon="1.3886694"><ele>307.0</ele><time>2026-05-04T15:56:39.531Z</time></trkpt><trkpt lat="41.2888401" lon="1.3888404"><ele>307.75</ele><time>2026-05-04T15:56:40.532Z</time></trkpt><trkpt lat="41.2887906" lon="1.3890132"><ele>308.5</ele><time>2026-05-04T15:56:41.533Z</time></trkpt><trkpt lat="41.2887447" lon="1.3891855"><ele>309.25</ele><time>2026-05-04T15:56:42.531Z</time></trkpt><trkpt lat="41.2886971" lon="1.3893476"><ele>310.0</ele><time>2026-05-04T15:56:43.538Z</time></trkpt><trkpt lat="41.288655" lon="1.3895168"><ele>310.5</ele><time>2026-05-04T15:56:44.53Z</time></trkpt><trkpt lat="41.2886083" lon="1.3896799"><ele>311.0</ele><time>2026-05-04T15:56:45.53Z</time></trkpt><trkpt lat="41.28856" lon="1.3898508"><ele>311.5</ele><time>2026-05-04T15:56:46.529Z</time></trkpt><trkpt lat="41.2885087" lon="1.3900111"><ele>312.0</ele><time>2026-05-04T15:56:47.537Z</time></trkpt><trkpt lat="41.2884618" lon="1.3901768"><ele>312.0</ele><time>2026-05-04T15:56:48.534Z</time></trkpt><trkpt lat="41.2884145" lon="1.390343"><ele>312.0</ele><time>2026-05-04T15:56:49.532Z</time></trkpt><trkpt lat="41.2883655" lon="1.3905114"><ele>312.0</ele><time>2026-05-04T15:56:50.533Z</time></trkpt><trkpt lat="41.2883131" lon="1.3906765"><ele>312.0</ele><time>2026-05-04T15:56:51.53Z</time></trkpt><trkpt lat="41.2882646" lon="1.3908488"><ele>312.0</ele><time>2026-05-04T15:56:52.545Z</time></trkpt><trkpt lat="41.2882133" lon="1.3910134"><ele>312.0</ele><time>2026-05-04T15:56:53.532Z</time></trkpt><trkpt lat="41.2881627" lon="1.3911809"><ele>312.0</ele><time>2026-05-04T15:56:54.538Z</time></trkpt><trkpt lat="41.2881114" lon="1.3913468"><ele>312.0</ele><time>2026-05-04T15:56:55.539Z</time></trkpt><trkpt lat="41.2880633" lon="1.3915151"><ele>311.25</ele><time>2026-05-04T15:56:56.534Z</time></trkpt><trkpt lat="41.2880094" lon="1.3916802"><ele>310.5</ele><time>2026-05-04T15:56:57.536Z</time></trkpt><trkpt lat="41.2879606" lon="1.3918559"><ele>309.75</ele><time>2026-05-04T15:56:58.539Z</time></trkpt><trkpt lat="41.2879072" lon="1.3920236"><ele>309.0</ele><time>2026-05-04T15:56:59.533Z</time></trkpt><trkpt lat="41.2878567" lon="1.3921916"><ele>309.0</ele><time>2026-05-04T15:57:00.536Z</time></trkpt><trkpt lat="41.2878076" lon="1.392365"><ele>309.0</ele><time>2026-05-04T15:57:01.532Z</time></trkpt><trkpt lat="41.2877585" lon="1.3925418"><ele>309.0</ele><time>2026-05-04T15:57:02.533Z</time></trkpt><trkpt lat="41.2877048" lon="1.3927164"><ele>309.0</ele><time>2026-05-04T15:57:03.531Z</time></trkpt><trkpt lat="41.2876581" lon="1.39289"><ele>309.75</ele><time>2026-05-04T15:57:04.532Z</time></trkpt><trkpt lat="41.2876137" lon="1.393063"><ele>310.5</ele><time>2026-05-04T15:57:05.541Z</time></trkpt><trkpt lat="41.2875616" lon="1.3932322"><ele>311.25</ele><time>2026-05-04T15:57:06.523Z</time></trkpt><trkpt lat="41.2875069" lon="1.3934035"><ele>312.0</ele><time>2026-05-04T15:57:07.536Z</time></trkpt><trkpt lat="41.2874556" lon="1.3935775"><ele>312.0</ele><time>2026-05-04T15:57:08.532Z</time></trkpt><trkpt lat="41.2874068" lon="1.3937591"><ele>312.0</ele><time>2026-05-04T15:57:09.532Z</time></trkpt><trkpt lat="41.2873547" lon="1.3939318"><ele>312.0</ele><time>2026-05-04T15:57:10.531Z</time></trkpt><trkpt lat="41.287299" lon="1.394104"><ele>312.0</ele><time>2026-05-04T15:57:11.532Z</time></trkpt><trkpt lat="41.2872476" lon="1.3942781"><ele>312.75</ele><time>2026-05-04T15:57:12.532Z</time></trkpt><trkpt lat="41.2871981" lon="1.3944547"><ele>313.5</ele><time>2026-05-04T15:57:13.535Z</time></trkpt><trkpt lat="41.2871458" lon="1.394626"><ele>314.25</ele><time>2026-05-04T15:57:14.534Z</time></trkpt><trkpt lat="41.2870943" lon="1.3947963"><ele>315.0</ele><time>2026-05-04T15:57:15.536Z</time></trkpt><trkpt lat="41.2870371" lon="1.3949674"><ele>315.5</ele><time>2026-05-04T15:57:16.536Z</time></trkpt><trkpt lat="41.2869904" lon="1.3951455"><ele>316.0</ele><time>2026-05-04T15:57:17.541Z</time></trkpt><trkpt lat="41.2869433" lon="1.3953267"><ele>316.5</ele><time>2026-05-04T15:57:18.537Z</time></trkpt><trkpt lat="41.2868873" lon="1.3955007"><ele>317.0</ele><time>2026-05-04T15:57:19.536Z</time></trkpt><trkpt lat="41.2868282" lon="1.3956731"><ele>317.5</ele><time>2026-05-04T15:57:20.536Z</time></trkpt><trkpt lat="41.2867827" lon="1.3958489"><ele>318.0</ele><time>2026-05-04T15:57:21.537Z</time></trkpt><trkpt lat="41.2867308" lon="1.3960187"><ele>318.5</ele><time>2026-05-04T15:57:22.536Z</time></trkpt><trkpt lat="41.2866804" lon="1.3961902"><ele>319.0</ele><time>2026-05-04T15:57:23.549Z</time></trkpt><trkpt lat="41.2866258" lon="1.3963669"><ele>318.75</ele><time>2026-05-04T15:57:24.535Z</time></trkpt><trkpt lat="41.2865747" lon="1.396537"><ele>318.5</ele><time>2026-05-04T15:57:25.539Z</time></trkpt><trkpt lat="41.2865193" lon="1.3967099"><ele>318.25</ele><time>2026-05-04T15:57:26.536Z</time></trkpt><trkpt lat="41.2864676" lon="1.3968846"><ele>318.0</ele><time>2026-05-04T15:57:27.535Z</time></trkpt><trkpt lat="41.2864173" lon="1.3970515"><ele>318.25</ele><time>2026-05-04T15:57:28.537Z</time></trkpt><trkpt lat="41.2863722" lon="1.3972211"><ele>318.5</ele><time>2026-05-04T15:57:29.533Z</time></trkpt><trkpt lat="41.2863305" lon="1.3973852"><ele>318.75</ele><time>2026-05-04T15:57:30.536Z</time></trkpt><trkpt lat="41.2862827" lon="1.3975399"><ele>319.0</ele><time>2026-05-04T15:57:31.537Z</time></trkpt><trkpt lat="41.2862359" lon="1.397688"><ele>319.0</ele><time>2026-05-04T15:57:32.532Z</time></trkpt><trkpt lat="41.2861921" lon="1.3978299"><ele>319.0</ele><time>2026-05-04T15:57:33.531Z</time></trkpt><trkpt lat="41.2861579" lon="1.3979568"><ele>319.0</ele><time>2026-05-04T15:57:34.533Z</time></trkpt><trkpt lat="41.2861194" lon="1.3980739"><ele>319.0</ele><time>2026-05-04T15:57:35.532Z</time></trkpt><trkpt lat="41.2860755" lon="1.3981839"><ele>319.0</ele><time>2026-05-04T15:57:36.529Z</time></trkpt><trkpt lat="41.286021" lon="1.3982887"><ele>319.16666666666663</ele><time>2026-05-04T15:57:37.527Z</time></trkpt><trkpt lat="41.2859595" lon="1.398374"><ele>319.3333333333333</ele><time>2026-05-04T15:57:38.533Z</time></trkpt><trkpt lat="41.2858827" lon="1.3984355"><ele>319.5</ele><time>2026-05-04T15:57:39.522Z</time></trkpt><trkpt lat="41.2858047" lon="1.3984804"><ele>319.6666666666667</ele><time>2026-05-04T15:57:40.534Z</time></trkpt><trkpt lat="41.2857341" lon="1.3985271"><ele>319.83333333333337</ele><time>2026-05-04T15:57:41.522Z</time></trkpt><trkpt lat="41.2856789" lon="1.3985921"><ele>320.0</ele><time>2026-05-04T15:57:42.528Z</time></trkpt><trkpt lat="41.2856504" lon="1.398686"><ele>320.0</ele><time>2026-05-04T15:57:43.528Z</time></trkpt><trkpt lat="41.285641" lon="1.3988014"><ele>320.0</ele><time>2026-05-04T15:57:44.525Z</time></trkpt><trkpt lat="41.2856458" lon="1.3989304"><ele>320.0</ele><time>2026-05-04T15:57:45.527Z</time></trkpt><trkpt lat="41.2856577" lon="1.3990641"><ele>320.0</ele><time>2026-05-04T15:57:46.529Z</time></trkpt><trkpt lat="41.2856674" lon="1.399205"><ele>320.0</ele><time>2026-05-04T15:57:47.528Z</time></trkpt><trkpt lat="41.285668" lon="1.3993498"><ele>321.0</ele><time>2026-05-04T15:57:48.532Z</time></trkpt><trkpt lat="41.2856582" lon="1.3995037"><ele>322.0</ele><time>2026-05-04T15:57:49.532Z</time></trkpt><trkpt lat="41.2856338" lon="1.3996613"><ele>323.0</ele><time>2026-05-04T15:57:50.526Z</time></trkpt><trkpt lat="41.2855956" lon="1.3998197"><ele>324.0</ele><time>2026-05-04T15:57:51.53Z</time></trkpt><trkpt lat="41.2855463" lon="1.3999814"><ele>324.0</ele><time>2026-05-04T15:57:52.531Z</time></trkpt><trkpt lat="41.285493" lon="1.400144"><ele>324.0</ele><time>2026-05-04T15:57:53.53Z</time></trkpt><trkpt lat="41.2854406" lon="1.400304"><ele>324.0</ele><time>2026-05-04T15:57:54.547Z</time></trkpt><trkpt lat="41.2853852" lon="1.400464"><ele>324.0</ele><time>2026-05-04T15:57:55.534Z</time></trkpt><trkpt lat="41.285335" lon="1.4006219"><ele>324.5</ele><time>2026-05-04T15:57:56.534Z</time></trkpt><trkpt lat="41.2852883" lon="1.4007849"><ele>325.0</ele><time>2026-05-04T15:57:57.534Z</time></trkpt><trkpt lat="41.2852392" lon="1.400945"><ele>325.5</ele><time>2026-05-04T15:57:58.535Z</time></trkpt><trkpt lat="41.2851882" lon="1.4010968"><ele>326.0</ele><time>2026-05-04T15:57:59.533Z</time></trkpt><trkpt lat="41.285135" lon="1.4012489"><ele>326.0</ele><time>2026-05-04T15:58:00.534Z</time></trkpt><trkpt lat="41.2850814" lon="1.4013998"><ele>326.0</ele><time>2026-05-04T15:58:01.536Z</time></trkpt><trkpt lat="41.2850347" lon="1.4015517"><ele>326.0</ele><time>2026-05-04T15:58:02.524Z</time></trkpt><trkpt lat="41.2849907" lon="1.4017068"><ele>326.0</ele><time>2026-05-04T15:58:03.526Z</time></trkpt><trkpt lat="41.2849462" lon="1.4018622"><ele>326.0</ele><time>2026-05-04T15:58:04.526Z</time></trkpt><trkpt lat="41.2849005" lon="1.4020189"><ele>326.0</ele><time>2026-05-04T15:58:05.526Z</time></trkpt><trkpt lat="41.2848557" lon="1.4021773"><ele>326.0</ele><time>2026-05-04T15:58:06.527Z</time></trkpt><trkpt lat="41.2848081" lon="1.4023395"><ele>326.0</ele><time>2026-05-04T15:58:07.525Z</time></trkpt><trkpt lat="41.2847623" lon="1.4025026"><ele>325.5</ele><time>2026-05-04T15:58:08.525Z</time></trkpt><trkpt lat="41.284713" lon="1.4026654"><ele>325.0</ele><time>2026-05-04T15:58:09.525Z</time></trkpt><trkpt lat="41.2846625" lon="1.4028298"><ele>324.5</ele><time>2026-05-04T15:58:10.524Z</time></trkpt><trkpt lat="41.284611" lon="1.4029953"><ele>324.0</ele><time>2026-05-04T15:58:11.525Z</time></trkpt><trkpt lat="41.2845626" lon="1.4031604"><ele>324.0</ele><time>2026-05-04T15:58:12.522Z</time></trkpt><trkpt lat="41.2845135" lon="1.4033237"><ele>324.0</ele><time>2026-05-04T15:58:13.528Z</time></trkpt><trkpt lat="41.2844666" lon="1.403485"><ele>324.0</ele><time>2026-05-04T15:58:14.526Z</time></trkpt><trkpt lat="41.2844223" lon="1.4036463"><ele>324.0</ele><time>2026-05-04T15:58:15.53Z</time></trkpt><trkpt lat="41.2843774" lon="1.4038059"><ele>323.0</ele><time>2026-05-04T15:58:16.527Z</time></trkpt><trkpt lat="41.2843292" lon="1.4039631"><ele>322.0</ele><time>2026-05-04T15:58:17.532Z</time></trkpt><trkpt lat="41.2842766" lon="1.4041215"><ele>321.0</ele><time>2026-05-04T15:58:18.529Z</time></trkpt><trkpt lat="41.2842276" lon="1.4042831"><ele>320.0</ele><time>2026-05-04T15:58:19.527Z</time></trkpt><trkpt lat="41.2841816" lon="1.4044457"><ele>320.0</ele><time>2026-05-04T15:58:20.535Z</time></trkpt><trkpt lat="41.2841385" lon="1.4046059"><ele>320.0</ele><time>2026-05-04T15:58:21.529Z</time></trkpt><trkpt lat="41.2840937" lon="1.4047663"><ele>320.0</ele><time>2026-05-04T15:58:22.527Z</time></trkpt><trkpt lat="41.2840412" lon="1.4049252"><ele>320.0</ele><time>2026-05-04T15:58:23.527Z</time></trkpt><trkpt lat="41.2839878" lon="1.4050824"><ele>319.5</ele><time>2026-05-04T15:58:24.527Z</time></trkpt><trkpt lat="41.2839398" lon="1.4052396"><ele>319.0</ele><time>2026-05-04T15:58:25.542Z</time></trkpt><trkpt lat="41.2838936" lon="1.4054001"><ele>318.5</ele><time>2026-05-04T15:58:26.528Z</time></trkpt><trkpt lat="41.2838456" lon="1.4055625"><ele>318.0</ele><time>2026-05-04T15:58:27.527Z</time></trkpt><trkpt lat="41.2837973" lon="1.4057237"><ele>316.75</ele><time>2026-05-04T15:58:28.527Z</time></trkpt><trkpt lat="41.2837486" lon="1.4058831"><ele>315.5</ele><time>2026-05-04T15:58:29.528Z</time></trkpt><trkpt lat="41.2836981" lon="1.4060446"><ele>314.25</ele><time>2026-05-04T15:58:30.53Z</time></trkpt><trkpt lat="41.2836543" lon="1.4062105"><ele>313.0</ele><time>2026-05-04T15:58:31.528Z</time></trkpt><trkpt lat="41.283604" lon="1.4063771"><ele>312.5</ele><time>2026-05-04T15:58:32.532Z</time></trkpt><trkpt lat="41.283555" lon="1.4065405"><ele>312.0</ele><time>2026-05-04T15:58:33.53Z</time></trkpt><trkpt lat="41.2835084" lon="1.4067003"><ele>311.5</ele><time>2026-05-04T15:58:34.53Z</time></trkpt><trkpt lat="41.2834603" lon="1.4068605"><ele>311.0</ele><time>2026-05-04T15:58:35.537Z</time></trkpt><trkpt lat="41.2834107" lon="1.4070251"><ele>311.25</ele><time>2026-05-04T15:58:36.529Z</time></trkpt><trkpt lat="41.283364" lon="1.4071876"><ele>311.5</ele><time>2026-05-04T15:58:37.531Z</time></trkpt><trkpt lat="41.2833174" lon="1.4073466"><ele>311.75</ele><time>2026-05-04T15:58:38.534Z</time></trkpt><trkpt lat="41.283271" lon="1.4075067"><ele>312.0</ele><time>2026-05-04T15:58:39.531Z</time></trkpt><trkpt lat="41.2832232" lon="1.4076693"><ele>312.0</ele><time>2026-05-04T15:58:40.529Z</time></trkpt><trkpt lat="41.2831753" lon="1.4078298"><ele>312.0</ele><time>2026-05-04T15:58:41.529Z</time></trkpt><trkpt lat="41.283129" lon="1.4079897"><ele>312.0</ele><time>2026-05-04T15:58:42.529Z</time></trkpt><trkpt lat="41.2830832" lon="1.4081485"><ele>312.0</ele><time>2026-05-04T15:58:43.536Z</time></trkpt><trkpt lat="41.2830403" lon="1.4083094"><ele>311.0</ele><time>2026-05-04T15:58:44.532Z</time></trkpt><trkpt lat="41.2830002" lon="1.4084714"><ele>310.0</ele><time>2026-05-04T15:58:45.54Z</time></trkpt><trkpt lat="41.2829594" lon="1.4086341"><ele>309.0</ele><time>2026-05-04T15:58:46.532Z</time></trkpt><trkpt lat="41.2829211" lon="1.4087936"><ele>308.0</ele><time>2026-05-04T15:58:47.532Z</time></trkpt><trkpt lat="41.2828867" lon="1.4089577"><ele>307.75</ele><time>2026-05-04T15:58:48.53Z</time></trkpt><trkpt lat="41.2828522" lon="1.4091216"><ele>307.5</ele><time>2026-05-04T15:58:49.532Z</time></trkpt><trkpt lat="41.2828172" lon="1.409285"><ele>307.25</ele><time>2026-05-04T15:58:50.533Z</time></trkpt><trkpt lat="41.2827855" lon="1.409451"><ele>307.0</ele><time>2026-05-04T15:58:51.534Z</time></trkpt><trkpt lat="41.2827548" lon="1.4096211"><ele>307.0</ele><time>2026-05-04T15:58:52.531Z</time></trkpt><trkpt lat="41.282728" lon="1.4097953"><ele>307.0</ele><time>2026-05-04T15:58:53.533Z</time></trkpt><trkpt lat="41.2827022" lon="1.4099718"><ele>307.0</ele><time>2026-05-04T15:58:54.537Z</time></trkpt><trkpt lat="41.2826763" lon="1.4101457"><ele>307.0</ele><time>2026-05-04T15:58:55.537Z</time></trkpt><trkpt lat="41.2826521" lon="1.4103225"><ele>306.5</ele><time>2026-05-04T15:58:56.546Z</time></trkpt><trkpt lat="41.2826296" lon="1.4105008"><ele>306.0</ele><time>2026-05-04T15:58:57.526Z</time></trkpt><trkpt lat="41.2826051" lon="1.4106785"><ele>305.5</ele><time>2026-05-04T15:58:58.536Z</time></trkpt><trkpt lat="41.2825782" lon="1.410856"><ele>305.0</ele><time>2026-05-04T15:58:59.528Z</time></trkpt><trkpt lat="41.2825564" lon="1.4110358"><ele>305.0</ele><time>2026-05-04T15:59:00.527Z</time></trkpt><trkpt lat="41.2825402" lon="1.4112116"><ele>305.0</ele><time>2026-05-04T15:59:01.53Z</time></trkpt><trkpt lat="41.2825216" lon="1.41139"><ele>305.0</ele><time>2026-05-04T15:59:02.526Z</time></trkpt><trkpt lat="41.2825047" lon="1.4115677"><ele>305.0</ele><time>2026-05-04T15:59:03.528Z</time></trkpt><trkpt lat="41.2824926" lon="1.4117487"><ele>305.0</ele><time>2026-05-04T15:59:04.532Z</time></trkpt><trkpt lat="41.2824802" lon="1.4119333"><ele>305.0</ele><time>2026-05-04T15:59:05.529Z</time></trkpt><trkpt lat="41.2824778" lon="1.4121165"><ele>305.0</ele><time>2026-05-04T15:59:06.531Z</time></trkpt><trkpt lat="41.2824676" lon="1.412293"><ele>305.0</ele><time>2026-05-04T15:59:07.531Z</time></trkpt><trkpt lat="41.2824639" lon="1.412476"><ele>305.25</ele><time>2026-05-04T15:59:08.53Z</time></trkpt><trkpt lat="41.2824625" lon="1.4126624"><ele>305.5</ele><time>2026-05-04T15:59:09.532Z</time></trkpt><trkpt lat="41.2824608" lon="1.4128507"><ele>305.75</ele><time>2026-05-04T15:59:10.532Z</time></trkpt><trkpt lat="41.2824611" lon="1.4130404"><ele>306.0</ele><time>2026-05-04T15:59:11.533Z</time></trkpt><trkpt lat="41.2824654" lon="1.4132242"><ele>306.0</ele><time>2026-05-04T15:59:12.532Z</time></trkpt><trkpt lat="41.2824672" lon="1.4134074"><ele>306.0</ele><time>2026-05-04T15:59:13.541Z</time></trkpt><trkpt lat="41.2824671" lon="1.4135919"><ele>306.0</ele><time>2026-05-04T15:59:14.537Z</time></trkpt><trkpt lat="41.2824686" lon="1.4137758"><ele>306.0</ele><time>2026-05-04T15:59:15.539Z</time></trkpt><trkpt lat="41.2824677" lon="1.4139585"><ele>305.75</ele><time>2026-05-04T15:59:16.535Z</time></trkpt><trkpt lat="41.2824713" lon="1.4141435"><ele>305.5</ele><time>2026-05-04T15:59:17.54Z</time></trkpt><trkpt lat="41.2824765" lon="1.4143325"><ele>305.25</ele><time>2026-05-04T15:59:18.538Z</time></trkpt><trkpt lat="41.2824847" lon="1.4145084"><ele>305.0</ele><time>2026-05-04T15:59:19.536Z</time></trkpt><trkpt lat="41.28249" lon="1.4146842"><ele>305.0</ele><time>2026-05-04T15:59:20.538Z</time></trkpt><trkpt lat="41.2824952" lon="1.4148636"><ele>305.0</ele><time>2026-05-04T15:59:21.547Z</time></trkpt><trkpt lat="41.282499" lon="1.4150383"><ele>305.0</ele><time>2026-05-04T15:59:22.539Z</time></trkpt><trkpt lat="41.282506" lon="1.4152117"><ele>305.0</ele><time>2026-05-04T15:59:23.536Z</time></trkpt><trkpt lat="41.2825217" lon="1.4153875"><ele>305.25</ele><time>2026-05-04T15:59:24.54Z</time></trkpt><trkpt lat="41.2825228" lon="1.4155602"><ele>305.5</ele><time>2026-05-04T15:59:25.544Z</time></trkpt><trkpt lat="41.2825282" lon="1.4157427"><ele>305.75</ele><time>2026-05-04T15:59:26.539Z</time></trkpt><trkpt lat="41.2825308" lon="1.4159201"><ele>306.0</ele><time>2026-05-04T15:59:27.552Z</time></trkpt><trkpt lat="41.2825335" lon="1.4161094"><ele>306.0</ele><time>2026-05-04T15:59:28.545Z</time></trkpt><trkpt lat="41.2825419" lon="1.4162924"><ele>306.0</ele><time>2026-05-04T15:59:29.54Z</time></trkpt><trkpt lat="41.2825452" lon="1.4164691"><ele>306.0</ele><time>2026-05-04T15:59:30.542Z</time></trkpt><trkpt lat="41.2825523" lon="1.4166441"><ele>306.0</ele><time>2026-05-04T15:59:31.541Z</time></trkpt><trkpt lat="41.2825562" lon="1.4168184"><ele>305.75</ele><time>2026-05-04T15:59:32.536Z</time></trkpt><trkpt lat="41.282565" lon="1.4169943"><ele>305.5</ele><time>2026-05-04T15:59:33.538Z</time></trkpt><trkpt lat="41.2825744" lon="1.4171722"><ele>305.25</ele><time>2026-05-04T15:59:34.538Z</time></trkpt><trkpt lat="41.2825833" lon="1.417348"><ele>305.0</ele><time>2026-05-04T15:59:35.537Z</time></trkpt><trkpt lat="41.2825897" lon="1.4175261"><ele>305.0</ele><time>2026-05-04T15:59:36.536Z</time></trkpt><trkpt lat="41.2825989" lon="1.4177001"><ele>305.0</ele><time>2026-05-04T15:59:37.537Z</time></trkpt><trkpt lat="41.2826094" lon="1.4178733"><ele>305.0</ele><time>2026-05-04T15:59:38.534Z</time></trkpt><trkpt lat="41.2826186" lon="1.4180445"><ele>305.0</ele><time>2026-05-04T15:59:39.534Z</time></trkpt><trkpt lat="41.2826268" lon="1.4182168"><ele>305.0</ele><time>2026-05-04T15:59:40.534Z</time></trkpt><trkpt lat="41.2826313" lon="1.4183918"><ele>305.0</ele><time>2026-05-04T15:59:41.533Z</time></trkpt><trkpt lat="41.2826373" lon="1.418569"><ele>305.0</ele><time>2026-05-04T15:59:42.534Z</time></trkpt><trkpt lat="41.282641" lon="1.418747"><ele>305.0</ele><time>2026-05-04T15:59:43.544Z</time></trkpt><trkpt lat="41.2826442" lon="1.418922"><ele>305.75</ele><time>2026-05-04T15:59:44.535Z</time></trkpt><trkpt lat="41.282648" lon="1.4190928"><ele>306.5</ele><time>2026-05-04T15:59:45.536Z</time></trkpt><trkpt lat="41.2826517" lon="1.4192637"><ele>307.25</ele><time>2026-05-04T15:59:46.541Z</time></trkpt><trkpt lat="41.2826565" lon="1.4194342"><ele>308.0</ele><time>2026-05-04T15:59:47.534Z</time></trkpt><trkpt lat="41.2826626" lon="1.4196039"><ele>309.25</ele><time>2026-05-04T15:59:48.538Z</time></trkpt><trkpt lat="41.2826731" lon="1.4197751"><ele>310.5</ele><time>2026-05-04T15:59:49.534Z</time></trkpt><trkpt lat="41.2826804" lon="1.4199396"><ele>311.75</ele><time>2026-05-04T15:59:50.538Z</time></trkpt><trkpt lat="41.2826877" lon="1.4201077"><ele>313.0</ele><time>2026-05-04T15:59:51.539Z</time></trkpt><trkpt lat="41.2826906" lon="1.4202759"><ele>313.0</ele><time>2026-05-04T15:59:52.538Z</time></trkpt><trkpt lat="41.2826925" lon="1.4204447"><ele>313.0</ele><time>2026-05-04T15:59:53.535Z</time></trkpt><trkpt lat="41.2827" lon="1.4206039"><ele>313.0</ele><time>2026-05-04T15:59:54.534Z</time></trkpt><trkpt lat="41.2827077" lon="1.4208952"><ele>313.66666666666663</ele><time>2026-05-04T15:59:56.53Z</time></trkpt><trkpt lat="41.2827127" lon="1.4210276"><ele>314.3333333333333</ele><time>2026-05-04T15:59:57.528Z</time></trkpt><trkpt lat="41.2827115" lon="1.4211475"><ele>315.0</ele><time>2026-05-04T15:59:58.551Z</time></trkpt><trkpt lat="41.2827079" lon="1.4212568"><ele>315.6666666666667</ele><time>2026-05-04T15:59:59.52Z</time></trkpt><trkpt lat="41.2826949" lon="1.421356"><ele>316.33333333333337</ele><time>2026-05-04T16:00:00.533Z</time></trkpt><trkpt lat="41.2826641" lon="1.4214426"><ele>317.0</ele><time>2026-05-04T16:00:01.527Z</time></trkpt><trkpt lat="41.2826117" lon="1.4215005"><ele>317.14285714285717</ele><time>2026-05-04T16:00:02.526Z</time></trkpt><trkpt lat="41.2825423" lon="1.4215383"><ele>317.2857142857143</ele><time>2026-05-04T16:00:03.519Z</time></trkpt><trkpt lat="41.2824697" lon="1.4215745"><ele>317.42857142857144</ele><time>2026-05-04T16:00:04.524Z</time></trkpt><trkpt lat="41.2824038" lon="1.4216196"><ele>317.57142857142856</ele><time>2026-05-04T16:00:05.523Z</time></trkpt><trkpt lat="41.2823496" lon="1.4216782"><ele>317.7142857142857</ele><time>2026-05-04T16:00:06.519Z</time></trkpt><trkpt lat="41.2823154" lon="1.4217636"><ele>317.85714285714283</ele><time>2026-05-04T16:00:07.524Z</time></trkpt><trkpt lat="41.282308" lon="1.4218672"><ele>318.0</ele><time>2026-05-04T16:00:08.512Z</time></trkpt><trkpt lat="41.2823199" lon="1.4219728"><ele>318.0</ele><time>2026-05-04T16:00:09.513Z</time></trkpt><trkpt lat="41.2823426" lon="1.4220754"><ele>318.0</ele><time>2026-05-04T16:00:10.517Z</time></trkpt><trkpt lat="41.2823703" lon="1.4221788"><ele>318.0</ele><time>2026-05-04T16:00:11.514Z</time></trkpt><trkpt lat="41.2823941" lon="1.4222837"><ele>318.0</ele><time>2026-05-04T16:00:12.52Z</time></trkpt><trkpt lat="41.2824096" lon="1.4223905"><ele>318.0</ele><time>2026-05-04T16:00:13.528Z</time></trkpt><trkpt lat="41.2824115" lon="1.4224971"><ele>318.0</ele><time>2026-05-04T16:00:14.516Z</time></trkpt><trkpt lat="41.2824013" lon="1.422607"><ele>318.5</ele><time>2026-05-04T16:00:15.519Z</time></trkpt><trkpt lat="41.2823761" lon="1.4227202"><ele>319.0</ele><time>2026-05-04T16:00:16.523Z</time></trkpt><trkpt lat="41.2823477" lon="1.4228316"><ele>319.5</ele><time>2026-05-04T16:00:17.525Z</time></trkpt><trkpt lat="41.2823084" lon="1.4229465"><ele>320.0</ele><time>2026-05-04T16:00:18.526Z</time></trkpt><trkpt lat="41.2822674" lon="1.4230496"><ele>320.5</ele><time>2026-05-04T16:00:19.523Z</time></trkpt><trkpt lat="41.2822269" lon="1.4231553"><ele>321.0</ele><time>2026-05-04T16:00:20.524Z</time></trkpt><trkpt lat="41.2821859" lon="1.4232621"><ele>323.20000000000005</ele><time>2026-05-04T16:00:21.524Z</time></trkpt><trkpt lat="41.2821512" lon="1.4233703"><ele>325.40000000000003</ele><time>2026-05-04T16:00:22.529Z</time></trkpt><trkpt lat="41.2821253" lon="1.4234821"><ele>327.6</ele><time>2026-05-04T16:00:23.524Z</time></trkpt><trkpt lat="41.2821043" lon="1.4235998"><ele>329.8</ele><time>2026-05-04T16:00:24.529Z</time></trkpt><trkpt lat="41.2820832" lon="1.4237183"><ele>332.0</ele><time>2026-05-04T16:00:25.525Z</time></trkpt><trkpt lat="41.2820662" lon="1.4238414"><ele>332.6</ele><time>2026-05-04T16:00:26.521Z</time></trkpt><trkpt lat="41.2820505" lon="1.423965"><ele>333.20000000000005</ele><time>2026-05-04T16:00:27.517Z</time></trkpt><trkpt lat="41.2820377" lon="1.424088"><ele>333.8</ele><time>2026-05-04T16:00:28.533Z</time></trkpt><trkpt lat="41.2820242" lon="1.4242132"><ele>334.4</ele><time>2026-05-04T16:00:29.523Z</time></trkpt><trkpt lat="41.2820167" lon="1.4243426"><ele>335.0</ele><time>2026-05-04T16:00:30.528Z</time></trkpt><trkpt lat="41.2820096" lon="1.4244746"><ele>335.0</ele><time>2026-05-04T16:00:31.524Z</time></trkpt><trkpt lat="41.2820072" lon="1.4246055"><ele>335.0</ele><time>2026-05-04T16:00:32.521Z</time></trkpt><trkpt lat="41.282005" lon="1.424735"><ele>335.0</ele><time>2026-05-04T16:00:33.521Z</time></trkpt><trkpt lat="41.2820034" lon="1.4248678"><ele>335.0</ele><time>2026-05-04T16:00:34.523Z</time></trkpt><trkpt lat="41.2820009" lon="1.4250041"><ele>335.0</ele><time>2026-05-04T16:00:35.523Z</time></trkpt><trkpt lat="41.2820041" lon="1.4251441"><ele>336.2</ele><time>2026-05-04T16:00:36.523Z</time></trkpt><trkpt lat="41.282014" lon="1.4252828"><ele>337.4</ele><time>2026-05-04T16:00:37.526Z</time></trkpt><trkpt lat="41.2820215" lon="1.4254258"><ele>338.6</ele><time>2026-05-04T16:00:38.535Z</time></trkpt><trkpt lat="41.2820303" lon="1.4255682"><ele>339.8</ele><time>2026-05-04T16:00:39.524Z</time></trkpt><trkpt lat="41.2820423" lon="1.4257022"><ele>341.0</ele><time>2026-05-04T16:00:40.522Z</time></trkpt><trkpt lat="41.2820564" lon="1.4258418"><ele>341.20000000000005</ele><time>2026-05-04T16:00:41.521Z</time></trkpt><trkpt lat="41.2820713" lon="1.4259854"><ele>341.40000000000003</ele><time>2026-05-04T16:00:42.526Z</time></trkpt><trkpt lat="41.2820866" lon="1.4261289"><ele>341.6</ele><time>2026-05-04T16:00:43.527Z</time></trkpt><trkpt lat="41.2820972" lon="1.4262706"><ele>341.8</ele><time>2026-05-04T16:00:44.523Z</time></trkpt><trkpt lat="41.2821002" lon="1.4264141"><ele>342.0</ele><time>2026-05-04T16:00:45.521Z</time></trkpt><trkpt lat="41.2821003" lon="1.4265605"><ele>342.0</ele><time>2026-05-04T16:00:46.521Z</time></trkpt><trkpt lat="41.2820949" lon="1.4267092"><ele>342.0</ele><time>2026-05-04T16:00:47.524Z</time></trkpt><trkpt lat="41.2820859" lon="1.4268544"><ele>342.0</ele><time>2026-05-04T16:00:48.525Z</time></trkpt><trkpt lat="41.2820665" lon="1.4269997"><ele>342.0</ele><time>2026-05-04T16:00:49.528Z</time></trkpt><trkpt lat="41.2820451" lon="1.4271471"><ele>342.0</ele><time>2026-05-04T16:00:50.527Z</time></trkpt><trkpt lat="41.2820261" lon="1.4272978"><ele>343.5</ele><time>2026-05-04T16:00:51.537Z</time></trkpt><trkpt lat="41.282004" lon="1.4274535"><ele>345.0</ele><time>2026-05-04T16:00:52.531Z</time></trkpt><trkpt lat="41.2819784" lon="1.4276117"><ele>346.5</ele><time>2026-05-04T16:00:53.531Z</time></trkpt><trkpt lat="41.2819475" lon="1.4277686"><ele>348.0</ele><time>2026-05-04T16:00:54.528Z</time></trkpt><trkpt lat="41.281909" lon="1.4279283"><ele>349.0</ele><time>2026-05-04T16:00:55.527Z</time></trkpt><trkpt lat="41.2818679" lon="1.4280841"><ele>350.0</ele><time>2026-05-04T16:00:56.515Z</time></trkpt><trkpt lat="41.2818177" lon="1.4282379"><ele>351.0</ele><time>2026-05-04T16:00:57.516Z</time></trkpt><trkpt lat="41.2817659" lon="1.4283912"><ele>352.0</ele><time>2026-05-04T16:00:58.515Z</time></trkpt><trkpt lat="41.2817124" lon="1.4285396"><ele>352.0</ele><time>2026-05-04T16:00:59.522Z</time></trkpt><trkpt lat="41.2816595" lon="1.428682"><ele>352.0</ele><time>2026-05-04T16:01:00.522Z</time></trkpt><trkpt lat="41.2816012" lon="1.4288151"><ele>352.0</ele><time>2026-05-04T16:01:01.516Z</time></trkpt><trkpt lat="41.2815357" lon="1.4289481"><ele>352.0</ele><time>2026-05-04T16:01:02.51Z</time></trkpt><trkpt lat="41.2814677" lon="1.4290768"><ele>353.75</ele><time>2026-05-04T16:01:03.516Z</time></trkpt><trkpt lat="41.2814018" lon="1.4292036"><ele>355.5</ele><time>2026-05-04T16:01:04.509Z</time></trkpt><trkpt lat="41.2813352" lon="1.4293315"><ele>357.25</ele><time>2026-05-04T16:01:05.497Z</time></trkpt><trkpt lat="41.281253" lon="1.4294676"><ele>359.0</ele><time>2026-05-04T16:01:06.499Z</time></trkpt><trkpt lat="41.2811693" lon="1.429603"><ele>357.5</ele><time>2026-05-04T16:01:07.492Z</time></trkpt><trkpt lat="41.2810643" lon="1.4297312"><ele>356.0</ele><time>2026-05-04T16:01:08.499Z</time></trkpt><trkpt lat="41.2809573" lon="1.4298403"><ele>354.5</ele><time>2026-05-04T16:01:09.509Z</time></trkpt><trkpt lat="41.2808548" lon="1.4299478"><ele>353.0</ele><time>2026-05-04T16:01:10.503Z</time></trkpt><trkpt lat="41.2807556" lon="1.4300547"><ele>353.0</ele><time>2026-05-04T16:01:11.505Z</time></trkpt><trkpt lat="41.280652" lon="1.4301589"><ele>353.0</ele><time>2026-05-04T16:01:12.504Z</time></trkpt><trkpt lat="41.2805512" lon="1.4302554"><ele>353.0</ele><time>2026-05-04T16:01:13.502Z</time></trkpt><trkpt lat="41.2804458" lon="1.4303479"><ele>353.0</ele><time>2026-05-04T16:01:14.505Z</time></trkpt><trkpt lat="41.2803356" lon="1.4304339"><ele>353.25</ele><time>2026-05-04T16:01:15.51Z</time></trkpt><trkpt lat="41.2802261" lon="1.4305215"><ele>353.5</ele><time>2026-05-04T16:01:16.508Z</time></trkpt><trkpt lat="41.2801114" lon="1.4306037"><ele>353.75</ele><time>2026-05-04T16:01:17.506Z</time></trkpt><trkpt lat="41.2799925" lon="1.4306826"><ele>354.0</ele><time>2026-05-04T16:01:18.507Z</time></trkpt><trkpt lat="41.2798738" lon="1.4307603"><ele>354.0</ele><time>2026-05-04T16:01:19.503Z</time></trkpt><trkpt lat="41.2797542" lon="1.4308327"><ele>354.0</ele><time>2026-05-04T16:01:20.501Z</time></trkpt><trkpt lat="41.2796303" lon="1.4309046"><ele>354.0</ele><time>2026-05-04T16:01:21.501Z</time></trkpt><trkpt lat="41.279507" lon="1.4309821"><ele>354.0</ele><time>2026-05-04T16:01:22.507Z</time></trkpt><trkpt lat="41.2793843" lon="1.4310673"><ele>354.0</ele><time>2026-05-04T16:01:23.5Z</time></trkpt><trkpt lat="41.279261" lon="1.4311559"><ele>354.0</ele><time>2026-05-04T16:01:24.501Z</time></trkpt><trkpt lat="41.2791379" lon="1.4312469"><ele>354.0</ele><time>2026-05-04T16:01:25.503Z</time></trkpt><trkpt lat="41.2790308" lon="1.4313444"><ele>354.0</ele><time>2026-05-04T16:01:26.504Z</time></trkpt><trkpt lat="41.2789252" lon="1.4314497"><ele>349.25</ele><time>2026-05-04T16:01:27.507Z</time></trkpt><trkpt lat="41.2788161" lon="1.4315696"><ele>344.5</ele><time>2026-05-04T16:01:28.501Z</time></trkpt><trkpt lat="41.278713" lon="1.4317022"><ele>339.75</ele><time>2026-05-04T16:01:29.514Z</time></trkpt><trkpt lat="41.2786146" lon="1.4318414"><ele>335.0</ele><time>2026-05-04T16:01:30.525Z</time></trkpt><trkpt lat="41.2785218" lon="1.4319788"><ele>335.0</ele><time>2026-05-04T16:01:31.518Z</time></trkpt><trkpt lat="41.2784315" lon="1.4321308"><ele>335.0</ele><time>2026-05-04T16:01:32.516Z</time></trkpt><trkpt lat="41.2783418" lon="1.4322939"><ele>335.0</ele><time>2026-05-04T16:01:33.516Z</time></trkpt><trkpt lat="41.2782491" lon="1.4324639"><ele>337.33333333333337</ele><time>2026-05-04T16:01:34.523Z</time></trkpt><trkpt lat="41.2781612" lon="1.4326319"><ele>339.6666666666667</ele><time>2026-05-04T16:01:35.525Z</time></trkpt><trkpt lat="41.2780849" lon="1.4328024"><ele>342.0</ele><time>2026-05-04T16:01:36.521Z</time></trkpt><trkpt lat="41.278015" lon="1.4329808"><ele>342.0</ele><time>2026-05-04T16:01:37.528Z</time></trkpt><trkpt lat="41.277956" lon="1.4331535"><ele>342.0</ele><time>2026-05-04T16:01:38.545Z</time></trkpt><trkpt lat="41.2779043" lon="1.4333335"><ele>342.0</ele><time>2026-05-04T16:01:39.519Z</time></trkpt><trkpt lat="41.2778598" lon="1.4335143"><ele>342.0</ele><time>2026-05-04T16:01:40.524Z</time></trkpt><trkpt lat="41.2778141" lon="1.4337026"><ele>341.0</ele><time>2026-05-04T16:01:41.516Z</time></trkpt><trkpt lat="41.277772" lon="1.4339009"><ele>340.0</ele><time>2026-05-04T16:01:42.522Z</time></trkpt><trkpt lat="41.2777194" lon="1.4340897"><ele>339.0</ele><time>2026-05-04T16:01:43.519Z</time></trkpt><trkpt lat="41.2776662" lon="1.4342749"><ele>339.0</ele><time>2026-05-04T16:01:44.52Z</time></trkpt><trkpt lat="41.277615" lon="1.4344563"><ele>339.0</ele><time>2026-05-04T16:01:45.517Z</time></trkpt><trkpt lat="41.2775562" lon="1.4346435"><ele>339.0</ele><time>2026-05-04T16:01:46.512Z</time></trkpt><trkpt lat="41.2774896" lon="1.4348227"><ele>339.0</ele><time>2026-05-04T16:01:47.511Z</time></trkpt><trkpt lat="41.2774158" lon="1.4350088"><ele>342.6666666666667</ele><time>2026-05-04T16:01:48.519Z</time></trkpt><trkpt lat="41.2773288" lon="1.4351848"><ele>346.33333333333337</ele><time>2026-05-04T16:01:49.508Z</time></trkpt><trkpt lat="41.2772284" lon="1.4353444"><ele>350.0</ele><time>2026-05-04T16:01:50.517Z</time></trkpt><trkpt lat="41.2771342" lon="1.4355026"><ele>344.0</ele><time>2026-05-04T16:01:51.52Z</time></trkpt><trkpt lat="41.2770387" lon="1.4356472"><ele>338.0</ele><time>2026-05-04T16:01:52.515Z</time></trkpt><trkpt lat="41.2769365" lon="1.4357857"><ele>332.0</ele><time>2026-05-04T16:01:53.521Z</time></trkpt><trkpt lat="41.2768297" lon="1.4359265"><ele>326.0</ele><time>2026-05-04T16:01:54.522Z</time></trkpt><trkpt lat="41.2767166" lon="1.4360717"><ele>326.0</ele><time>2026-05-04T16:01:55.518Z</time></trkpt><trkpt lat="41.2766087" lon="1.4362188"><ele>326.0</ele><time>2026-05-04T16:01:56.519Z</time></trkpt><trkpt lat="41.2765059" lon="1.4363754"><ele>326.0</ele><time>2026-05-04T16:01:57.525Z</time></trkpt><trkpt lat="41.2764078" lon="1.4365414"><ele>323.0</ele><time>2026-05-04T16:01:58.52Z</time></trkpt><trkpt lat="41.2763078" lon="1.4367032"><ele>320.0</ele><time>2026-05-04T16:01:59.518Z</time></trkpt><trkpt lat="41.2762116" lon="1.4368712"><ele>317.0</ele><time>2026-05-04T16:02:00.523Z</time></trkpt><trkpt lat="41.2761248" lon="1.4370615"><ele>312.0</ele><time>2026-05-04T16:02:01.533Z</time></trkpt><trkpt lat="41.2760505" lon="1.4372617"><ele>307.0</ele><time>2026-05-04T16:02:02.514Z</time></trkpt><trkpt lat="41.2759873" lon="1.4374702"><ele>302.0</ele><time>2026-05-04T16:02:03.506Z</time></trkpt><trkpt lat="41.2759297" lon="1.4376715"><ele>302.0</ele><time>2026-05-04T16:02:04.511Z</time></trkpt><trkpt lat="41.275887" lon="1.4378778"><ele>302.0</ele><time>2026-05-04T16:02:05.517Z</time></trkpt><trkpt lat="41.2758496" lon="1.4380799"><ele>302.0</ele><time>2026-05-04T16:02:06.51Z</time></trkpt><trkpt lat="41.2758222" lon="1.4382854"><ele>300.33333333333337</ele><time>2026-05-04T16:02:07.511Z</time></trkpt><trkpt lat="41.2758043" lon="1.438494"><ele>298.6666666666667</ele><time>2026-05-04T16:02:08.515Z</time></trkpt><trkpt lat="41.2757908" lon="1.4386975"><ele>297.0</ele><time>2026-05-04T16:02:09.523Z</time></trkpt><trkpt lat="41.2757788" lon="1.4389034"><ele>295.0</ele><time>2026-05-04T16:02:10.517Z</time></trkpt><trkpt lat="41.2757675" lon="1.4391098"><ele>293.0</ele><time>2026-05-04T16:02:11.518Z</time></trkpt><trkpt lat="41.2757525" lon="1.4393111"><ele>291.0</ele><time>2026-05-04T16:02:12.515Z</time></trkpt><trkpt lat="41.2757303" lon="1.4395128"><ele>288.3333333333333</ele><time>2026-05-04T16:02:13.517Z</time></trkpt><trkpt lat="41.2757019" lon="1.4397162"><ele>285.66666666666663</ele><time>2026-05-04T16:02:14.517Z</time></trkpt><trkpt lat="41.2756634" lon="1.4399231"><ele>283.0</ele><time>2026-05-04T16:02:15.512Z</time></trkpt><trkpt lat="41.275625" lon="1.440125"><ele>285.0</ele><time>2026-05-04T16:02:16.522Z</time></trkpt><trkpt lat="41.2755765" lon="1.4403181"><ele>287.0</ele><time>2026-05-04T16:02:17.524Z</time></trkpt><trkpt lat="41.2755265" lon="1.4405088"><ele>289.0</ele><time>2026-05-04T16:02:18.519Z</time></trkpt><trkpt lat="41.2754672" lon="1.4406897"><ele>289.0</ele><time>2026-05-04T16:02:19.522Z</time></trkpt><trkpt lat="41.275401" lon="1.4408667"><ele>289.0</ele><time>2026-05-04T16:02:20.52Z</time></trkpt><trkpt lat="41.2753306" lon="1.4410464"><ele>289.0</ele><time>2026-05-04T16:02:21.52Z</time></trkpt><trkpt lat="41.2752555" lon="1.4412279"><ele>285.66666666666663</ele><time>2026-05-04T16:02:22.525Z</time></trkpt><trkpt lat="41.2751819" lon="1.441414"><ele>282.3333333333333</ele><time>2026-05-04T16:02:23.521Z</time></trkpt><trkpt lat="41.275104" lon="1.4415969"><ele>279.0</ele><time>2026-05-04T16:02:24.524Z</time></trkpt><trkpt lat="41.2750241" lon="1.4417787"><ele>279.0</ele><time>2026-05-04T16:02:25.522Z</time></trkpt><trkpt lat="41.2749433" lon="1.4419611"><ele>279.0</ele><time>2026-05-04T16:02:26.523Z</time></trkpt><trkpt lat="41.2748628" lon="1.4421465"><ele>279.0</ele><time>2026-05-04T16:02:27.527Z</time></trkpt><trkpt lat="41.2747845" lon="1.4423262"><ele>279.75</ele><time>2026-05-04T16:02:28.523Z</time></trkpt><trkpt lat="41.2747136" lon="1.442509"><ele>280.5</ele><time>2026-05-04T16:02:29.515Z</time></trkpt><trkpt lat="41.2746488" lon="1.4426815"><ele>281.25</ele><time>2026-05-04T16:02:30.517Z</time></trkpt><trkpt lat="41.2745941" lon="1.4428504"><ele>282.0</ele><time>2026-05-04T16:02:31.518Z</time></trkpt><trkpt lat="41.2745403" lon="1.4430132"><ele>282.0</ele><time>2026-05-04T16:02:32.53Z</time></trkpt><trkpt lat="41.2744852" lon="1.4431736"><ele>282.0</ele><time>2026-05-04T16:02:33.517Z</time></trkpt><trkpt lat="41.2744366" lon="1.4433283"><ele>282.0</ele><time>2026-05-04T16:02:34.52Z</time></trkpt><trkpt lat="41.2743917" lon="1.4434843"><ele>282.0</ele><time>2026-05-04T16:02:35.518Z</time></trkpt><trkpt lat="41.2743465" lon="1.4436474"><ele>281.0</ele><time>2026-05-04T16:02:36.521Z</time></trkpt><trkpt lat="41.2743096" lon="1.443813"><ele>280.0</ele><time>2026-05-04T16:02:37.521Z</time></trkpt><trkpt lat="41.274272" lon="1.4439847"><ele>279.0</ele><time>2026-05-04T16:02:38.518Z</time></trkpt><trkpt lat="41.274234" lon="1.4441588"><ele>278.0</ele><time>2026-05-04T16:02:39.514Z</time></trkpt><trkpt lat="41.2742003" lon="1.4443463"><ele>278.0</ele><time>2026-05-04T16:02:40.514Z</time></trkpt><trkpt lat="41.2741701" lon="1.4445531"><ele>278.0</ele><time>2026-05-04T16:02:41.512Z</time></trkpt><trkpt lat="41.2741473" lon="1.4447595"><ele>278.0</ele><time>2026-05-04T16:02:42.513Z</time></trkpt><trkpt lat="41.2741224" lon="1.4449657"><ele>276.0</ele><time>2026-05-04T16:02:43.52Z</time></trkpt><trkpt lat="41.2741051" lon="1.4451823"><ele>274.0</ele><time>2026-05-04T16:02:44.523Z</time></trkpt><trkpt lat="41.2740795" lon="1.4453917"><ele>272.0</ele><time>2026-05-04T16:02:45.522Z</time></trkpt><trkpt lat="41.2740627" lon="1.4455999"><ele>269.33333333333337</ele><time>2026-05-04T16:02:46.527Z</time></trkpt><trkpt lat="41.2740436" lon="1.4458056"><ele>266.6666666666667</ele><time>2026-05-04T16:02:47.523Z</time></trkpt><trkpt lat="41.2740342" lon="1.4460172"><ele>264.0</ele><time>2026-05-04T16:02:48.523Z</time></trkpt><trkpt lat="41.2740211" lon="1.4462168"><ele>262.0</ele><time>2026-05-04T16:02:49.52Z</time></trkpt><trkpt lat="41.2740131" lon="1.4464179"><ele>260.0</ele><time>2026-05-04T16:02:50.526Z</time></trkpt><trkpt lat="41.2740023" lon="1.4466173"><ele>258.0</ele><time>2026-05-04T16:02:51.529Z</time></trkpt><trkpt lat="41.2739909" lon="1.4468252"><ele>254.5</ele><time>2026-05-04T16:02:52.527Z</time></trkpt><trkpt lat="41.2739649" lon="1.4472402"><ele>251.0</ele><time>2026-05-04T16:02:54.52Z</time></trkpt><trkpt lat="41.2739501" lon="1.4474531"><ele>253.0</ele><time>2026-05-04T16:02:55.522Z</time></trkpt><trkpt lat="41.2739347" lon="1.4476596"><ele>255.0</ele><time>2026-05-04T16:02:56.52Z</time></trkpt><trkpt lat="41.2739278" lon="1.4478799"><ele>257.0</ele><time>2026-05-04T16:02:57.525Z</time></trkpt><trkpt lat="41.2739072" lon="1.4480889"><ele>257.6666666666667</ele><time>2026-05-04T16:02:58.533Z</time></trkpt><trkpt lat="41.2738937" lon="1.4482998"><ele>258.3333333333333</ele><time>2026-05-04T16:02:59.525Z</time></trkpt><trkpt lat="41.2738772" lon="1.4485083"><ele>259.0</ele><time>2026-05-04T16:03:00.529Z</time></trkpt><trkpt lat="41.2738592" lon="1.4487171"><ele>258.66666666666663</ele><time>2026-05-04T16:03:01.527Z</time></trkpt><trkpt lat="41.2738433" lon="1.4489316"><ele>258.3333333333333</ele><time>2026-05-04T16:03:02.525Z</time></trkpt><trkpt lat="41.2738228" lon="1.4491407"><ele>258.0</ele><time>2026-05-04T16:03:03.536Z</time></trkpt><trkpt lat="41.2738055" lon="1.4493551"><ele>258.0</ele><time>2026-05-04T16:03:04.524Z</time></trkpt><trkpt lat="41.2737829" lon="1.4495715"><ele>258.0</ele><time>2026-05-04T16:03:05.521Z</time></trkpt><trkpt lat="41.2737613" lon="1.4497883"><ele>258.0</ele><time>2026-05-04T16:03:06.525Z</time></trkpt><trkpt lat="41.2737467" lon="1.4500105"><ele>256.6666666666667</ele><time>2026-05-04T16:03:07.526Z</time></trkpt><trkpt lat="41.273735" lon="1.4502197"><ele>255.33333333333334</ele><time>2026-05-04T16:03:08.53Z</time></trkpt><trkpt lat="41.273724" lon="1.4504213"><ele>254.0</ele><time>2026-05-04T16:03:09.523Z</time></trkpt><trkpt lat="41.2737102" lon="1.4506212"><ele>251.33333333333334</ele><time>2026-05-04T16:03:10.524Z</time></trkpt><trkpt lat="41.2736956" lon="1.4508332"><ele>248.66666666666669</ele><time>2026-05-04T16:03:11.524Z</time></trkpt><trkpt lat="41.2736738" lon="1.4510479"><ele>246.0</ele><time>2026-05-04T16:03:12.526Z</time></trkpt><trkpt lat="41.2736534" lon="1.4512556"><ele>244.66666666666669</ele><time>2026-05-04T16:03:13.529Z</time></trkpt><trkpt lat="41.2736325" lon="1.4514621"><ele>243.33333333333334</ele><time>2026-05-04T16:03:14.527Z</time></trkpt><trkpt lat="41.2736159" lon="1.4516706"><ele>242.0</ele><time>2026-05-04T16:03:15.525Z</time></trkpt><trkpt lat="41.2736017" lon="1.4518754"><ele>242.0</ele><time>2026-05-04T16:03:16.533Z</time></trkpt><trkpt lat="41.2735882" lon="1.4520866"><ele>242.0</ele><time>2026-05-04T16:03:17.53Z</time></trkpt><trkpt lat="41.2735777" lon="1.4523035"><ele>242.0</ele><time>2026-05-04T16:03:18.518Z</time></trkpt><trkpt lat="41.2735631" lon="1.4525083"><ele>240.0</ele><time>2026-05-04T16:03:19.527Z</time></trkpt><trkpt lat="41.2735528" lon="1.4527123"><ele>238.0</ele><time>2026-05-04T16:03:20.527Z</time></trkpt><trkpt lat="41.273541" lon="1.4529147"><ele>236.0</ele><time>2026-05-04T16:03:21.529Z</time></trkpt><trkpt lat="41.2735276" lon="1.4531285"><ele>233.66666666666669</ele><time>2026-05-04T16:03:22.532Z</time></trkpt><trkpt lat="41.2735107" lon="1.4533404"><ele>231.33333333333331</ele><time>2026-05-04T16:03:23.525Z</time></trkpt><trkpt lat="41.2734909" lon="1.4535553"><ele>229.0</ele><time>2026-05-04T16:03:24.528Z</time></trkpt><trkpt lat="41.2734752" lon="1.4537745"><ele>227.66666666666666</ele><time>2026-05-04T16:03:25.532Z</time></trkpt><trkpt lat="41.2734603" lon="1.453989"><ele>226.33333333333331</ele><time>2026-05-04T16:03:26.524Z</time></trkpt><trkpt lat="41.2734443" lon="1.4542041"><ele>225.0</ele><time>2026-05-04T16:03:27.529Z</time></trkpt><trkpt lat="41.2734279" lon="1.4544156"><ele>225.0</ele><time>2026-05-04T16:03:28.529Z</time></trkpt><trkpt lat="41.2734088" lon="1.4546296"><ele>225.0</ele><time>2026-05-04T16:03:29.528Z</time></trkpt><trkpt lat="41.2733916" lon="1.4548385"><ele>225.0</ele><time>2026-05-04T16:03:30.526Z</time></trkpt><trkpt lat="41.2733703" lon="1.4550514"><ele>225.0</ele><time>2026-05-04T16:03:31.529Z</time></trkpt><trkpt lat="41.2733442" lon="1.4552674"><ele>225.0</ele><time>2026-05-04T16:03:32.527Z</time></trkpt><trkpt lat="41.2733085" lon="1.4554835"><ele>225.0</ele><time>2026-05-04T16:03:33.526Z</time></trkpt><trkpt lat="41.2732652" lon="1.4557007"><ele>223.66666666666669</ele><time>2026-05-04T16:03:34.537Z</time></trkpt><trkpt lat="41.273214" lon="1.455922"><ele>222.33333333333334</ele><time>2026-05-04T16:03:35.521Z</time></trkpt><trkpt lat="41.2731634" lon="1.4561463"><ele>221.0</ele><time>2026-05-04T16:03:36.512Z</time></trkpt><trkpt lat="41.273094" lon="1.4563619"><ele>221.0</ele><time>2026-05-04T16:03:37.516Z</time></trkpt><trkpt lat="41.2730258" lon="1.4565666"><ele>221.0</ele><time>2026-05-04T16:03:38.525Z</time></trkpt><trkpt lat="41.2729504" lon="1.456769"><ele>221.0</ele><time>2026-05-04T16:03:39.522Z</time></trkpt><trkpt lat="41.2728698" lon="1.4569748"><ele>217.0</ele><time>2026-05-04T16:03:40.526Z</time></trkpt><trkpt lat="41.2727831" lon="1.457178"><ele>213.0</ele><time>2026-05-04T16:03:41.523Z</time></trkpt><trkpt lat="41.2726807" lon="1.4573779"><ele>209.0</ele><time>2026-05-04T16:03:42.519Z</time></trkpt><trkpt lat="41.2725748" lon="1.4575668"><ele>209.0</ele><time>2026-05-04T16:03:43.524Z</time></trkpt><trkpt lat="41.2724613" lon="1.4577474"><ele>209.0</ele><time>2026-05-04T16:03:44.521Z</time></trkpt><trkpt lat="41.2723421" lon="1.4579103"><ele>209.0</ele><time>2026-05-04T16:03:45.522Z</time></trkpt><trkpt lat="41.2722153" lon="1.4580562"><ele>207.66666666666669</ele><time>2026-05-04T16:03:46.531Z</time></trkpt><trkpt lat="41.2720961" lon="1.4582038"><ele>206.33333333333331</ele><time>2026-05-04T16:03:47.524Z</time></trkpt><trkpt lat="41.271978" lon="1.4583544"><ele>205.0</ele><time>2026-05-04T16:03:48.53Z</time></trkpt><trkpt lat="41.2718586" lon="1.4584973"><ele>205.0</ele><time>2026-05-04T16:03:49.522Z</time></trkpt><trkpt lat="41.2717351" lon="1.4586277"><ele>205.0</ele><time>2026-05-04T16:03:50.532Z</time></trkpt><trkpt lat="41.2716112" lon="1.4587508"><ele>205.0</ele><time>2026-05-04T16:03:51.532Z</time></trkpt><trkpt lat="41.2714835" lon="1.4588642"><ele>204.0</ele><time>2026-05-04T16:03:52.529Z</time></trkpt><trkpt lat="41.2713559" lon="1.458976"><ele>203.0</ele><time>2026-05-04T16:03:53.532Z</time></trkpt><trkpt lat="41.2712284" lon="1.4590762"><ele>202.0</ele><time>2026-05-04T16:03:54.535Z</time></trkpt><trkpt lat="41.2711007" lon="1.459175"><ele>201.0</ele><time>2026-05-04T16:03:55.538Z</time></trkpt><trkpt lat="41.2709797" lon="1.4592877"><ele>201.0</ele><time>2026-05-04T16:03:56.532Z</time></trkpt><trkpt lat="41.2708622" lon="1.4594043"><ele>201.0</ele><time>2026-05-04T16:03:57.531Z</time></trkpt><trkpt lat="41.2707469" lon="1.4595219"><ele>201.0</ele><time>2026-05-04T16:03:58.534Z</time></trkpt><trkpt lat="41.2706402" lon="1.4596502"><ele>201.0</ele><time>2026-05-04T16:03:59.528Z</time></trkpt><trkpt lat="41.2705383" lon="1.4597744"><ele>199.75</ele><time>2026-05-04T16:04:00.536Z</time></trkpt><trkpt lat="41.2704344" lon="1.4599045"><ele>198.5</ele><time>2026-05-04T16:04:01.533Z</time></trkpt><trkpt lat="41.270332" lon="1.4600306"><ele>197.25</ele><time>2026-05-04T16:04:02.529Z</time></trkpt><trkpt lat="41.2702284" lon="1.4601761"><ele>196.0</ele><time>2026-05-04T16:04:03.53Z</time></trkpt><trkpt lat="41.2701355" lon="1.4603134"><ele>195.25</ele><time>2026-05-04T16:04:04.528Z</time></trkpt><trkpt lat="41.2700408" lon="1.4604543"><ele>194.5</ele><time>2026-05-04T16:04:05.535Z</time></trkpt><trkpt lat="41.2699443" lon="1.4605955"><ele>193.75</ele><time>2026-05-04T16:04:06.528Z</time></trkpt><trkpt lat="41.2698656" lon="1.4607384"><ele>193.0</ele><time>2026-05-04T16:04:07.532Z</time></trkpt><trkpt lat="41.2697925" lon="1.460886"><ele>192.75</ele><time>2026-05-04T16:04:08.528Z</time></trkpt><trkpt lat="41.2697198" lon="1.4610389"><ele>192.5</ele><time>2026-05-04T16:04:09.525Z</time></trkpt><trkpt lat="41.2696462" lon="1.4612021"><ele>192.25</ele><time>2026-05-04T16:04:10.531Z</time></trkpt><trkpt lat="41.2695725" lon="1.4613667"><ele>192.0</ele><time>2026-05-04T16:04:11.527Z</time></trkpt><trkpt lat="41.2695062" lon="1.4615318"><ele>192.0</ele><time>2026-05-04T16:04:12.528Z</time></trkpt><trkpt lat="41.2694453" lon="1.4617126"><ele>192.0</ele><time>2026-05-04T16:04:13.532Z</time></trkpt><trkpt lat="41.2693836" lon="1.4618996"><ele>192.0</ele><time>2026-05-04T16:04:14.528Z</time></trkpt><trkpt lat="41.2693317" lon="1.4620799"><ele>192.0</ele><time>2026-05-04T16:04:15.533Z</time></trkpt><trkpt lat="41.2692759" lon="1.4622566"><ele>190.75</ele><time>2026-05-04T16:04:16.527Z</time></trkpt><trkpt lat="41.2692247" lon="1.4624288"><ele>189.5</ele><time>2026-05-04T16:04:17.53Z</time></trkpt><trkpt lat="41.2691668" lon="1.4625976"><ele>188.25</ele><time>2026-05-04T16:04:18.525Z</time></trkpt><trkpt lat="41.2691087" lon="1.4627546"><ele>187.0</ele><time>2026-05-04T16:04:19.528Z</time></trkpt><trkpt lat="41.2690476" lon="1.462916"><ele>186.5</ele><time>2026-05-04T16:04:20.532Z</time></trkpt><trkpt lat="41.2689953" lon="1.4630761"><ele>186.0</ele><time>2026-05-04T16:04:21.531Z</time></trkpt><trkpt lat="41.2689426" lon="1.4632289"><ele>185.5</ele><time>2026-05-04T16:04:22.524Z</time></trkpt><trkpt lat="41.2688973" lon="1.4633566"><ele>185.0</ele><time>2026-05-04T16:04:23.525Z</time></trkpt><trkpt lat="41.2688589" lon="1.463471"><ele>185.0</ele><time>2026-05-04T16:04:24.527Z</time></trkpt><trkpt lat="41.268823" lon="1.463571"><ele>185.0</ele><time>2026-05-04T16:04:25.525Z</time></trkpt><trkpt lat="41.2687739" lon="1.4636468"><ele>185.0</ele><time>2026-05-04T16:04:26.525Z</time></trkpt><trkpt lat="41.2687137" lon="1.4636982"><ele>185.0</ele><time>2026-05-04T16:04:27.527Z</time></trkpt><trkpt lat="41.2686461" lon="1.4637262"><ele>185.0</ele><time>2026-05-04T16:04:28.535Z</time></trkpt><trkpt lat="41.2685842" lon="1.4637551"><ele>185.0</ele><time>2026-05-04T16:04:29.524Z</time></trkpt><trkpt lat="41.268493" lon="1.4638693"><ele>184.6</ele><time>2026-05-04T16:04:31.528Z</time></trkpt><trkpt lat="41.2684905" lon="1.4640326"><ele>184.2</ele><time>2026-05-04T16:04:33.523Z</time></trkpt><trkpt lat="41.2685166" lon="1.4641127"><ele>183.8</ele><time>2026-05-04T16:04:34.526Z</time></trkpt><trkpt lat="41.2686031" lon="1.4642403"><ele>183.4</ele><time>2026-05-04T16:04:36.54Z</time></trkpt><trkpt lat="41.2686691" lon="1.4642671"><ele>183.0</ele><time>2026-05-04T16:04:37.523Z</time></trkpt><trkpt lat="41.2687418" lon="1.4642608"><ele>183.0</ele><time>2026-05-04T16:04:38.528Z</time></trkpt><trkpt lat="41.268807" lon="1.4642277"><ele>183.0</ele><time>2026-05-04T16:04:39.52Z</time></trkpt><trkpt lat="41.2688701" lon="1.4641826"><ele>183.0</ele><time>2026-05-04T16:04:40.526Z</time></trkpt><trkpt lat="41.2689242" lon="1.4641343"><ele>183.0</ele><time>2026-05-04T16:04:41.52Z</time></trkpt><trkpt lat="41.2689731" lon="1.4640797"><ele>183.0</ele><time>2026-05-04T16:04:42.512Z</time></trkpt><trkpt lat="41.2690277" lon="1.4640018"><ele>183.0</ele><time>2026-05-04T16:04:44.515Z</time></trkpt><trkpt lat="41.2690789" lon="1.4639425"><ele>183.0</ele><time>2026-05-04T16:10:22.513Z</time></trkpt><trkpt lat="41.2691881" lon="1.4639222"><ele>182.85714285714286</ele><time>2026-05-04T16:10:24.51Z</time></trkpt><trkpt lat="41.2692547" lon="1.4639151"><ele>182.71428571428572</ele><time>2026-05-04T16:10:25.522Z</time></trkpt><trkpt lat="41.2693229" lon="1.4639099"><ele>182.57142857142856</ele><time>2026-05-04T16:10:26.519Z</time></trkpt><trkpt lat="41.2693983" lon="1.4639031"><ele>182.42857142857144</ele><time>2026-05-04T16:10:27.52Z</time></trkpt><trkpt lat="41.2694764" lon="1.4638977"><ele>182.28571428571428</ele><time>2026-05-04T16:10:28.518Z</time></trkpt><trkpt lat="41.269552" lon="1.4638898"><ele>182.14285714285714</ele><time>2026-05-04T16:10:29.52Z</time></trkpt><trkpt lat="41.2696285" lon="1.4638833"><ele>182.0</ele><time>2026-05-04T16:10:30.523Z</time></trkpt><trkpt lat="41.2697106" lon="1.4638809"><ele>182.16666666666666</ele><time>2026-05-04T16:10:31.521Z</time></trkpt><trkpt lat="41.2697952" lon="1.4638817"><ele>182.33333333333331</ele><time>2026-05-04T16:10:32.519Z</time></trkpt><trkpt lat="41.269882" lon="1.4638787"><ele>182.5</ele><time>2026-05-04T16:10:33.52Z</time></trkpt><trkpt lat="41.2699722" lon="1.4638725"><ele>182.66666666666666</ele><time>2026-05-04T16:10:34.519Z</time></trkpt><trkpt lat="41.270055" lon="1.4638577"><ele>182.83333333333334</ele><time>2026-05-04T16:10:35.519Z</time></trkpt><trkpt lat="41.2701364" lon="1.4638364"><ele>183.0</ele><time>2026-05-04T16:10:36.516Z</time></trkpt><trkpt lat="41.2702197" lon="1.4637975"><ele>183.4</ele><time>2026-05-04T16:10:37.517Z</time></trkpt><trkpt lat="41.2703059" lon="1.463743"><ele>183.8</ele><time>2026-05-04T16:10:38.517Z</time></trkpt><trkpt lat="41.2703861" lon="1.4636689"><ele>184.2</ele><time>2026-05-04T16:10:39.523Z</time></trkpt><trkpt lat="41.2704617" lon="1.4635709"><ele>184.6</ele><time>2026-05-04T16:10:40.52Z</time></trkpt><trkpt lat="41.2705331" lon="1.4634658"><ele>185.0</ele><time>2026-05-04T16:10:41.521Z</time></trkpt><trkpt lat="41.2706047" lon="1.4633544"><ele>184.75</ele><time>2026-05-04T16:10:42.525Z</time></trkpt><trkpt lat="41.2706818" lon="1.4632372"><ele>184.5</ele><time>2026-05-04T16:10:43.515Z</time></trkpt><trkpt lat="41.2707622" lon="1.4631277"><ele>184.25</ele><time>2026-05-04T16:10:44.521Z</time></trkpt><trkpt lat="41.270856" lon="1.4630338"><ele>184.0</ele><time>2026-05-04T16:10:45.515Z</time></trkpt><trkpt lat="41.2709684" lon="1.4629667"><ele>184.0</ele><time>2026-05-04T16:10:46.522Z</time></trkpt><trkpt lat="41.2710944" lon="1.46292"><ele>184.0</ele><time>2026-05-04T16:10:47.53Z</time></trkpt><trkpt lat="41.2712321" lon="1.4629113"><ele>184.0</ele><time>2026-05-04T16:10:48.521Z</time></trkpt><trkpt lat="41.2713663" lon="1.4629562"><ele>184.0</ele><time>2026-05-04T16:10:49.519Z</time></trkpt><trkpt lat="41.2714939" lon="1.4630373"><ele>184.33333333333334</ele><time>2026-05-04T16:10:50.517Z</time></trkpt><trkpt lat="41.2716148" lon="1.4631557"><ele>184.66666666666666</ele><time>2026-05-04T16:10:51.522Z</time></trkpt><trkpt lat="41.2717055" lon="1.4633326"><ele>185.0</ele><time>2026-05-04T16:10:52.517Z</time></trkpt><trkpt lat="41.2717885" lon="1.4635176"><ele>185.0</ele><time>2026-05-04T16:10:53.515Z</time></trkpt><trkpt lat="41.2718696" lon="1.4636954"><ele>185.0</ele><time>2026-05-04T16:10:54.521Z</time></trkpt><trkpt lat="41.2719498" lon="1.4638756"><ele>185.0</ele><time>2026-05-04T16:10:55.522Z</time></trkpt><trkpt lat="41.2720213" lon="1.4640676"><ele>184.66666666666666</ele><time>2026-05-04T16:10:56.52Z</time></trkpt><trkpt lat="41.2720913" lon="1.4642533"><ele>184.33333333333334</ele><time>2026-05-04T16:10:57.52Z</time></trkpt><trkpt lat="41.2721558" lon="1.464443"><ele>184.0</ele><time>2026-05-04T16:10:58.52Z</time></trkpt><trkpt lat="41.2722191" lon="1.4646412"><ele>186.33333333333334</ele><time>2026-05-04T16:10:59.521Z</time></trkpt><trkpt lat="41.2722804" lon="1.4648375"><ele>188.66666666666666</ele><time>2026-05-04T16:11:00.526Z</time></trkpt><trkpt lat="41.2723443" lon="1.4650354"><ele>191.0</ele><time>2026-05-04T16:11:01.52Z</time></trkpt><trkpt lat="41.2724043" lon="1.4652285"><ele>191.0</ele><time>2026-05-04T16:11:02.511Z</time></trkpt><trkpt lat="41.2724597" lon="1.4654219"><ele>191.0</ele><time>2026-05-04T16:11:03.519Z</time></trkpt><trkpt lat="41.2725215" lon="1.4656021"><ele>191.0</ele><time>2026-05-04T16:11:04.515Z</time></trkpt><trkpt lat="41.2725852" lon="1.4657751"><ele>191.0</ele><time>2026-05-04T16:11:05.519Z</time></trkpt><trkpt lat="41.2726494" lon="1.4659465"><ele>191.0</ele><time>2026-05-04T16:11:06.517Z</time></trkpt><trkpt lat="41.2727257" lon="1.4661125"><ele>191.0</ele><time>2026-05-04T16:11:07.518Z</time></trkpt><trkpt lat="41.272824" lon="1.4662773"><ele>191.0</ele><time>2026-05-04T16:11:08.519Z</time></trkpt><trkpt lat="41.272925" lon="1.4664391"><ele>190.66666666666666</ele><time>2026-05-04T16:11:09.519Z</time></trkpt><trkpt lat="41.2730361" lon="1.466619"><ele>190.33333333333334</ele><time>2026-05-04T16:11:10.52Z</time></trkpt><trkpt lat="41.2731474" lon="1.466802"><ele>190.0</ele><time>2026-05-04T16:11:11.521Z</time></trkpt><trkpt lat="41.2732516" lon="1.466994"><ele>188.33333333333334</ele><time>2026-05-04T16:11:12.52Z</time></trkpt><trkpt lat="41.2733539" lon="1.4671818"><ele>186.66666666666666</ele><time>2026-05-04T16:11:13.523Z</time></trkpt><trkpt lat="41.2734515" lon="1.4673645"><ele>185.0</ele><time>2026-05-04T16:11:14.52Z</time></trkpt><trkpt lat="41.2735546" lon="1.4675354"><ele>185.0</ele><time>2026-05-04T16:11:15.52Z</time></trkpt><trkpt lat="41.2736512" lon="1.4677097"><ele>185.0</ele><time>2026-05-04T16:11:16.52Z</time></trkpt><trkpt lat="41.273732" lon="1.4678928"><ele>185.0</ele><time>2026-05-04T16:11:17.52Z</time></trkpt><trkpt lat="41.273813" lon="1.4680893"><ele>184.0</ele><time>2026-05-04T16:11:18.525Z</time></trkpt><trkpt lat="41.2738865" lon="1.4682836"><ele>183.0</ele><time>2026-05-04T16:11:19.507Z</time></trkpt><trkpt lat="41.2739377" lon="1.4684864"><ele>182.0</ele><time>2026-05-04T16:11:20.518Z</time></trkpt><trkpt lat="41.2740056" lon="1.4687054"><ele>182.0</ele><time>2026-05-04T16:11:21.507Z</time></trkpt><trkpt lat="41.274057" lon="1.4689059"><ele>182.0</ele><time>2026-05-04T16:11:22.516Z</time></trkpt><trkpt lat="41.2741163" lon="1.4691091"><ele>182.0</ele><time>2026-05-04T16:11:23.521Z</time></trkpt><trkpt lat="41.2741714" lon="1.4693011"><ele>182.0</ele><time>2026-05-04T16:11:24.523Z</time></trkpt><trkpt lat="41.2742243" lon="1.4694977"><ele>182.0</ele><time>2026-05-04T16:11:25.525Z</time></trkpt><trkpt lat="41.2742762" lon="1.4696897"><ele>182.0</ele><time>2026-05-04T16:11:26.522Z</time></trkpt><trkpt lat="41.2743295" lon="1.4698876"><ele>181.66666666666666</ele><time>2026-05-04T16:11:27.523Z</time></trkpt><trkpt lat="41.2743905" lon="1.4700865"><ele>181.33333333333334</ele><time>2026-05-04T16:11:28.522Z</time></trkpt><trkpt lat="41.274443" lon="1.4702773"><ele>181.0</ele><time>2026-05-04T16:11:29.521Z</time></trkpt><trkpt lat="41.2744996" lon="1.470472"><ele>180.0</ele><time>2026-05-04T16:11:30.526Z</time></trkpt><trkpt lat="41.2745545" lon="1.4706618"><ele>179.0</ele><time>2026-05-04T16:11:31.52Z</time></trkpt><trkpt lat="41.2746139" lon="1.4708597"><ele>178.0</ele><time>2026-05-04T16:11:32.52Z</time></trkpt><trkpt lat="41.2746793" lon="1.4710539"><ele>178.0</ele><time>2026-05-04T16:11:33.527Z</time></trkpt><trkpt lat="41.2747302" lon="1.4712397"><ele>178.0</ele><time>2026-05-04T16:11:34.518Z</time></trkpt><trkpt lat="41.274784" lon="1.4714347"><ele>178.0</ele><time>2026-05-04T16:11:35.516Z</time></trkpt><trkpt lat="41.2748282" lon="1.4716226"><ele>178.25</ele><time>2026-05-04T16:11:36.518Z</time></trkpt><trkpt lat="41.2748764" lon="1.4717817"><ele>178.5</ele><time>2026-05-04T16:11:37.519Z</time></trkpt><trkpt lat="41.2749385" lon="1.4719409"><ele>178.75</ele><time>2026-05-04T16:11:38.519Z</time></trkpt><trkpt lat="41.2750203" lon="1.4720857"><ele>179.0</ele><time>2026-05-04T16:11:39.516Z</time></trkpt><trkpt lat="41.2751327" lon="1.4722134"><ele>180.25</ele><time>2026-05-04T16:11:40.512Z</time></trkpt><trkpt lat="41.2752568" lon="1.472309"><ele>181.5</ele><time>2026-05-04T16:11:41.512Z</time></trkpt><trkpt lat="41.2753781" lon="1.4723879"><ele>182.75</ele><time>2026-05-04T16:11:42.515Z</time></trkpt><trkpt lat="41.2755032" lon="1.4724813"><ele>184.0</ele><time>2026-05-04T16:11:43.518Z</time></trkpt><trkpt lat="41.2756256" lon="1.4725694"><ele>184.0</ele><time>2026-05-04T16:11:44.52Z</time></trkpt><trkpt lat="41.275746" lon="1.4726501"><ele>184.0</ele><time>2026-05-04T16:11:45.515Z</time></trkpt><trkpt lat="41.2758657" lon="1.472741"><ele>184.0</ele><time>2026-05-04T16:11:46.518Z</time></trkpt><trkpt lat="41.2759825" lon="1.4728308"><ele>184.0</ele><time>2026-05-04T16:11:47.514Z</time></trkpt><trkpt lat="41.2760999" lon="1.4729289"><ele>185.0</ele><time>2026-05-04T16:11:48.521Z</time></trkpt><trkpt lat="41.276221" lon="1.4730371"><ele>186.0</ele><time>2026-05-04T16:11:49.523Z</time></trkpt><trkpt lat="41.2763343" lon="1.473147"><ele>187.0</ele><time>2026-05-04T16:11:50.517Z</time></trkpt><trkpt lat="41.2764292" lon="1.4732852"><ele>188.0</ele><time>2026-05-04T16:11:51.512Z</time></trkpt><trkpt lat="41.2764934" lon="1.4734325"><ele>188.0</ele><time>2026-05-04T16:11:52.518Z</time></trkpt><trkpt lat="41.2765136" lon="1.4735984"><ele>188.0</ele><time>2026-05-04T16:11:53.518Z</time></trkpt><trkpt lat="41.2764963" lon="1.4737622"><ele>188.0</ele><time>2026-05-04T16:11:54.522Z</time></trkpt><trkpt lat="41.2764721" lon="1.4739235"><ele>188.0</ele><time>2026-05-04T16:11:55.518Z</time></trkpt><trkpt lat="41.2764584" lon="1.4740773"><ele>190.4</ele><time>2026-05-04T16:11:56.521Z</time></trkpt><trkpt lat="41.2764395" lon="1.4742319"><ele>192.8</ele><time>2026-05-04T16:11:57.519Z</time></trkpt><trkpt lat="41.2764198" lon="1.4743748"><ele>195.2</ele><time>2026-05-04T16:11:58.516Z</time></trkpt><trkpt lat="41.2764019" lon="1.4745192"><ele>197.6</ele><time>2026-05-04T16:11:59.514Z</time></trkpt><trkpt lat="41.2763921" lon="1.474657"><ele>200.0</ele><time>2026-05-04T16:12:00.519Z</time></trkpt><trkpt lat="41.2763915" lon="1.4747886"><ele>201.0</ele><time>2026-05-04T16:12:01.517Z</time></trkpt><trkpt lat="41.2764006" lon="1.47492"><ele>202.0</ele><time>2026-05-04T16:12:02.524Z</time></trkpt><trkpt lat="41.2764168" lon="1.4750456"><ele>203.0</ele><time>2026-05-04T16:12:03.518Z</time></trkpt><trkpt lat="41.2764311" lon="1.4751653"><ele>204.0</ele><time>2026-05-04T16:12:04.51Z</time></trkpt><trkpt lat="41.2764608" lon="1.4752855"><ele>205.0</ele><time>2026-05-04T16:12:05.514Z</time></trkpt><trkpt lat="41.2765012" lon="1.4754017"><ele>204.4</ele><time>2026-05-04T16:12:06.505Z</time></trkpt><trkpt lat="41.276548" lon="1.4755183"><ele>203.8</ele><time>2026-05-04T16:12:07.509Z</time></trkpt><trkpt lat="41.2765938" lon="1.4756403"><ele>203.2</ele><time>2026-05-04T16:12:08.517Z</time></trkpt><trkpt lat="41.276648" lon="1.4757655"><ele>202.6</ele><time>2026-05-04T16:12:09.521Z</time></trkpt><trkpt lat="41.2767003" lon="1.4758896"><ele>202.0</ele><time>2026-05-04T16:12:10.518Z</time></trkpt><trkpt lat="41.2767414" lon="1.4760154"><ele>202.0</ele><time>2026-05-04T16:12:11.518Z</time></trkpt><trkpt lat="41.2767895" lon="1.4761464"><ele>202.0</ele><time>2026-05-04T16:12:12.515Z</time></trkpt><trkpt lat="41.2768397" lon="1.4762783"><ele>202.0</ele><time>2026-05-04T16:12:13.521Z</time></trkpt><trkpt lat="41.2768899" lon="1.4764164"><ele>202.0</ele><time>2026-05-04T16:12:14.515Z</time></trkpt><trkpt lat="41.2769412" lon="1.4765531"><ele>202.0</ele><time>2026-05-04T16:12:15.525Z</time></trkpt><trkpt lat="41.2769944" lon="1.4767008"><ele>202.0</ele><time>2026-05-04T16:12:16.523Z</time></trkpt><trkpt lat="41.2770486" lon="1.4768474"><ele>202.0</ele><time>2026-05-04T16:12:17.525Z</time></trkpt><trkpt lat="41.277098" lon="1.4769977"><ele>202.0</ele><time>2026-05-04T16:12:18.521Z</time></trkpt><trkpt lat="41.2771505" lon="1.4771456"><ele>202.5</ele><time>2026-05-04T16:12:19.524Z</time></trkpt><trkpt lat="41.2772113" lon="1.477298"><ele>203.0</ele><time>2026-05-04T16:12:20.532Z</time></trkpt><trkpt lat="41.2772822" lon="1.4774403"><ele>203.5</ele><time>2026-05-04T16:12:21.525Z</time></trkpt><trkpt lat="41.2773677" lon="1.4775815"><ele>204.0</ele><time>2026-05-04T16:12:22.522Z</time></trkpt><trkpt lat="41.2774646" lon="1.4777209"><ele>204.66666666666669</ele><time>2026-05-04T16:12:23.519Z</time></trkpt><trkpt lat="41.2775744" lon="1.4778662"><ele>205.33333333333334</ele><time>2026-05-04T16:12:24.523Z</time></trkpt><trkpt lat="41.2776813" lon="1.4780144"><ele>206.0</ele><time>2026-05-04T16:12:25.525Z</time></trkpt><trkpt lat="41.2777866" lon="1.4781629"><ele>204.33333333333334</ele><time>2026-05-04T16:12:26.523Z</time></trkpt><trkpt lat="41.277885" lon="1.478322"><ele>202.66666666666669</ele><time>2026-05-04T16:12:27.525Z</time></trkpt><trkpt lat="41.2779727" lon="1.478495"><ele>201.0</ele><time>2026-05-04T16:12:28.521Z</time></trkpt><trkpt lat="41.278051" lon="1.4786749"><ele>200.0</ele><time>2026-05-04T16:12:29.523Z</time></trkpt><trkpt lat="41.2781268" lon="1.4788699"><ele>199.0</ele><time>2026-05-04T16:12:30.527Z</time></trkpt><trkpt lat="41.2782068" lon="1.4790621"><ele>198.0</ele><time>2026-05-04T16:12:31.523Z</time></trkpt><trkpt lat="41.2782867" lon="1.4792521"><ele>198.0</ele><time>2026-05-04T16:12:32.521Z</time></trkpt><trkpt lat="41.2783669" lon="1.4794374"><ele>198.0</ele><time>2026-05-04T16:12:33.52Z</time></trkpt><trkpt lat="41.2784463" lon="1.4796191"><ele>198.0</ele><time>2026-05-04T16:12:34.521Z</time></trkpt><trkpt lat="41.2785211" lon="1.4798102"><ele>197.33333333333331</ele><time>2026-05-04T16:12:35.518Z</time></trkpt><trkpt lat="41.2785963" lon="1.4799917"><ele>196.66666666666666</ele><time>2026-05-04T16:12:36.52Z</time></trkpt><trkpt lat="41.2786684" lon="1.4801699"><ele>196.0</ele><time>2026-05-04T16:12:37.516Z</time></trkpt><trkpt lat="41.2787388" lon="1.4803434"><ele>195.75</ele><time>2026-05-04T16:12:38.519Z</time></trkpt><trkpt lat="41.2788113" lon="1.4805092"><ele>195.5</ele><time>2026-05-04T16:12:39.518Z</time></trkpt><trkpt lat="41.2788795" lon="1.4806768"><ele>195.25</ele><time>2026-05-04T16:12:40.52Z</time></trkpt><trkpt lat="41.2789362" lon="1.4808504"><ele>195.0</ele><time>2026-05-04T16:12:41.52Z</time></trkpt><trkpt lat="41.2789717" lon="1.4810362"><ele>194.66666666666669</ele><time>2026-05-04T16:12:42.52Z</time></trkpt><trkpt lat="41.2789937" lon="1.4812375"><ele>194.33333333333334</ele><time>2026-05-04T16:12:43.523Z</time></trkpt><trkpt lat="41.2789906" lon="1.4814289"><ele>194.0</ele><time>2026-05-04T16:12:44.522Z</time></trkpt><trkpt lat="41.2789903" lon="1.4816326"><ele>193.33333333333334</ele><time>2026-05-04T16:12:45.52Z</time></trkpt><trkpt lat="41.2789819" lon="1.4818285"><ele>192.66666666666669</ele><time>2026-05-04T16:12:46.526Z</time></trkpt><trkpt lat="41.2789706" lon="1.4820299"><ele>192.0</ele><time>2026-05-04T16:12:47.525Z</time></trkpt><trkpt lat="41.2789564" lon="1.4822417"><ele>191.0</ele><time>2026-05-04T16:12:48.524Z</time></trkpt><trkpt lat="41.2789427" lon="1.4824553"><ele>190.0</ele><time>2026-05-04T16:12:49.525Z</time></trkpt><trkpt lat="41.2789363" lon="1.4826665"><ele>189.0</ele><time>2026-05-04T16:12:50.526Z</time></trkpt><trkpt lat="41.2789263" lon="1.4828907"><ele>187.0</ele><time>2026-05-04T16:12:51.538Z</time></trkpt><trkpt lat="41.2789173" lon="1.4831139"><ele>185.0</ele><time>2026-05-04T16:12:52.526Z</time></trkpt><trkpt lat="41.2789099" lon="1.4833258"><ele>183.0</ele><time>2026-05-04T16:12:53.525Z</time></trkpt><trkpt lat="41.2788978" lon="1.4835503"><ele>182.66666666666666</ele><time>2026-05-04T16:12:54.522Z</time></trkpt><trkpt lat="41.2788872" lon="1.4837756"><ele>182.33333333333331</ele><time>2026-05-04T16:12:55.522Z</time></trkpt><trkpt lat="41.2788764" lon="1.4839961"><ele>182.0</ele><time>2026-05-04T16:12:56.521Z</time></trkpt><trkpt lat="41.2788739" lon="1.4842073"><ele>182.0</ele><time>2026-05-04T16:12:57.522Z</time></trkpt><trkpt lat="41.2788695" lon="1.4844145"><ele>182.0</ele><time>2026-05-04T16:12:58.524Z</time></trkpt><trkpt lat="41.2788637" lon="1.4846141"><ele>182.0</ele><time>2026-05-04T16:12:59.52Z</time></trkpt><trkpt lat="41.2788532" lon="1.4848159"><ele>182.0</ele><time>2026-05-04T16:13:00.526Z</time></trkpt><trkpt lat="41.2788482" lon="1.485017"><ele>182.0</ele><time>2026-05-04T16:13:01.522Z</time></trkpt><trkpt lat="41.2788389" lon="1.4852255"><ele>182.0</ele><time>2026-05-04T16:13:02.522Z</time></trkpt><trkpt lat="41.2788315" lon="1.4854391"><ele>182.0</ele><time>2026-05-04T16:13:03.527Z</time></trkpt><trkpt lat="41.2788238" lon="1.4856518"><ele>182.0</ele><time>2026-05-04T16:13:04.521Z</time></trkpt><trkpt lat="41.2788161" lon="1.4858574"><ele>182.0</ele><time>2026-05-04T16:13:05.524Z</time></trkpt><trkpt lat="41.2788145" lon="1.4860672"><ele>182.0</ele><time>2026-05-04T16:13:06.522Z</time></trkpt><trkpt lat="41.2788055" lon="1.4862605"><ele>182.0</ele><time>2026-05-04T16:13:07.521Z</time></trkpt><trkpt lat="41.2788004" lon="1.4864558"><ele>182.0</ele><time>2026-05-04T16:13:08.52Z</time></trkpt><trkpt lat="41.278799" lon="1.486643"><ele>182.0</ele><time>2026-05-04T16:13:09.509Z</time></trkpt><trkpt lat="41.2787906" lon="1.4868235"><ele>182.0</ele><time>2026-05-04T16:13:10.517Z</time></trkpt><trkpt lat="41.2787763" lon="1.4869881"><ele>182.0</ele><time>2026-05-04T16:13:11.516Z</time></trkpt><trkpt lat="41.2787471" lon="1.4871527"><ele>182.0</ele><time>2026-05-04T16:13:12.516Z</time></trkpt><trkpt lat="41.278699" lon="1.4873056"><ele>182.0</ele><time>2026-05-04T16:13:13.516Z</time></trkpt><trkpt lat="41.2786238" lon="1.4874566"><ele>181.0</ele><time>2026-05-04T16:13:14.518Z</time></trkpt><trkpt lat="41.2785267" lon="1.487567"><ele>180.0</ele><time>2026-05-04T16:13:15.512Z</time></trkpt><trkpt lat="41.2784317" lon="1.4876673"><ele>179.0</ele><time>2026-05-04T16:13:16.514Z</time></trkpt><trkpt lat="41.2783594" lon="1.4877638"><ele>178.0</ele><time>2026-05-04T16:13:17.512Z</time></trkpt><trkpt lat="41.2783058" lon="1.4878789"><ele>177.2</ele><time>2026-05-04T16:13:18.513Z</time></trkpt><trkpt lat="41.2782664" lon="1.4880021"><ele>176.4</ele><time>2026-05-04T16:13:19.514Z</time></trkpt><trkpt lat="41.2782523" lon="1.4881289"><ele>175.6</ele><time>2026-05-04T16:13:20.517Z</time></trkpt><trkpt lat="41.2782521" lon="1.4882554"><ele>174.79999999999998</ele><time>2026-05-04T16:13:21.519Z</time></trkpt><trkpt lat="41.2782704" lon="1.4883869"><ele>174.0</ele><time>2026-05-04T16:13:22.522Z</time></trkpt><trkpt lat="41.2782936" lon="1.4885096"><ele>174.0</ele><time>2026-05-04T16:13:23.517Z</time></trkpt><trkpt lat="41.2783072" lon="1.4886288"><ele>174.0</ele><time>2026-05-04T16:13:24.516Z</time></trkpt><trkpt lat="41.2783022" lon="1.4887474"><ele>174.0</ele><time>2026-05-04T16:13:25.525Z</time></trkpt><trkpt lat="41.2782625" lon="1.4888526"><ele>174.0</ele><time>2026-05-04T16:13:26.514Z</time></trkpt><trkpt lat="41.27819" lon="1.4889261"><ele>174.0</ele><time>2026-05-04T16:13:27.517Z</time></trkpt><trkpt lat="41.2781055" lon="1.4889677"><ele>173.79999999999998</ele><time>2026-05-04T16:13:28.51Z</time></trkpt><trkpt lat="41.2780083" lon="1.4890143"><ele>173.6</ele><time>2026-05-04T16:13:29.512Z</time></trkpt><trkpt lat="41.277909" lon="1.4890703"><ele>173.4</ele><time>2026-05-04T16:13:30.51Z</time></trkpt><trkpt lat="41.2778129" lon="1.4891222"><ele>173.2</ele><time>2026-05-04T16:13:31.506Z</time></trkpt><trkpt lat="41.2777188" lon="1.4891777"><ele>173.0</ele><time>2026-05-04T16:13:32.505Z</time></trkpt><trkpt lat="41.2776298" lon="1.4892331"><ele>173.0</ele><time>2026-05-04T16:13:33.507Z</time></trkpt><trkpt lat="41.2775543" lon="1.4892806"><ele>173.0</ele><time>2026-05-04T16:13:34.503Z</time></trkpt><trkpt lat="41.2774914" lon="1.4893247"><ele>173.0</ele><time>2026-05-04T16:13:35.499Z</time></trkpt><trkpt lat="41.2773966" lon="1.489383"><ele>173.0</ele><time>2026-05-04T16:13:37.502Z</time></trkpt><trkpt lat="41.2773296" lon="1.4894028"><ele>173.0</ele><time>2026-05-04T16:13:39.504Z</time></trkpt><trkpt lat="41.2772711" lon="1.4894475"><ele>173.0</ele><time>2026-05-04T16:13:53.544Z</time></trkpt><trkpt lat="41.2772209" lon="1.4895261"><ele>173.60000000000002</ele><time>2026-05-04T16:13:55.516Z</time></trkpt><trkpt lat="41.277168" lon="1.4896402"><ele>174.20000000000002</ele><time>2026-05-04T16:13:57.514Z</time></trkpt><trkpt lat="41.2771434" lon="1.4897741"><ele>174.8</ele><time>2026-05-04T16:13:59.514Z</time></trkpt><trkpt lat="41.2771578" lon="1.4898999"><ele>175.4</ele><time>2026-05-04T16:14:01.517Z</time></trkpt><trkpt lat="41.2772013" lon="1.490047"><ele>176.0</ele><time>2026-05-04T16:14:03.513Z</time></trkpt><trkpt lat="41.2772281" lon="1.490134"><ele>176.0</ele><time>2026-05-04T16:14:04.517Z</time></trkpt><trkpt lat="41.2772557" lon="1.490231"><ele>176.0</ele><time>2026-05-04T16:14:05.521Z</time></trkpt><trkpt lat="41.2772828" lon="1.4903295"><ele>176.0</ele><time>2026-05-04T16:14:06.52Z</time></trkpt><trkpt lat="41.2773119" lon="1.4904312"><ele>176.0</ele><time>2026-05-04T16:14:07.518Z</time></trkpt><trkpt lat="41.2773452" lon="1.4905327"><ele>176.0</ele><time>2026-05-04T16:14:08.518Z</time></trkpt><trkpt lat="41.2773744" lon="1.4906347"><ele>176.0</ele><time>2026-05-04T16:14:09.526Z</time></trkpt><trkpt lat="41.2774046" lon="1.4907483"><ele>175.8</ele><time>2026-05-04T16:14:10.5Z</time></trkpt><trkpt lat="41.2774392" lon="1.4908609"><ele>175.60000000000002</ele><time>2026-05-04T16:14:11.521Z</time></trkpt><trkpt lat="41.2774708" lon="1.4909703"><ele>175.4</ele><time>2026-05-04T16:14:12.52Z</time></trkpt><trkpt lat="41.2775014" lon="1.4910795"><ele>175.2</ele><time>2026-05-04T16:14:13.521Z</time></trkpt><trkpt lat="41.2775317" lon="1.4911973"><ele>175.0</ele><time>2026-05-04T16:14:14.517Z</time></trkpt><trkpt lat="41.2775616" lon="1.4913149"><ele>175.0</ele><time>2026-05-04T16:14:15.519Z</time></trkpt><trkpt lat="41.2775934" lon="1.4914392"><ele>175.0</ele><time>2026-05-04T16:14:16.521Z</time></trkpt><trkpt lat="41.2776231" lon="1.4915678"><ele>175.0</ele><time>2026-05-04T16:14:17.52Z</time></trkpt><trkpt lat="41.2776952" lon="1.4918339"><ele>175.0</ele><time>2026-05-04T16:14:19.517Z</time></trkpt><trkpt lat="41.2777366" lon="1.4919808"><ele>174.0</ele><time>2026-05-04T16:14:20.513Z</time></trkpt><trkpt lat="41.2777753" lon="1.4921271"><ele>173.0</ele><time>2026-05-04T16:14:21.52Z</time></trkpt><trkpt lat="41.2778181" lon="1.492278"><ele>172.0</ele><time>2026-05-04T16:14:22.516Z</time></trkpt><trkpt lat="41.2778618" lon="1.4924378"><ele>171.0</ele><time>2026-05-04T16:14:23.529Z</time></trkpt><trkpt lat="41.277906" lon="1.4925969"><ele>171.0</ele><time>2026-05-04T16:14:24.524Z</time></trkpt><trkpt lat="41.2779466" lon="1.4927541"><ele>171.0</ele><time>2026-05-04T16:14:25.523Z</time></trkpt><trkpt lat="41.2779843" lon="1.4929085"><ele>171.0</ele><time>2026-05-04T16:14:26.522Z</time></trkpt><trkpt lat="41.2780201" lon="1.4930595"><ele>171.0</ele><time>2026-05-04T16:14:27.521Z</time></trkpt><trkpt lat="41.278056" lon="1.4932083"><ele>170.60000000000002</ele><time>2026-05-04T16:14:28.525Z</time></trkpt><trkpt lat="41.2780949" lon="1.4933552"><ele>170.2</ele><time>2026-05-04T16:14:29.524Z</time></trkpt><trkpt lat="41.2781359" lon="1.4934993"><ele>169.8</ele><time>2026-05-04T16:14:30.525Z</time></trkpt><trkpt lat="41.278174" lon="1.4936336"><ele>169.39999999999998</ele><time>2026-05-04T16:14:31.526Z</time></trkpt><trkpt lat="41.2782096" lon="1.4937616"><ele>169.0</ele><time>2026-05-04T16:14:32.521Z</time></trkpt><trkpt lat="41.2782409" lon="1.4938863"><ele>168.79999999999998</ele><time>2026-05-04T16:14:33.521Z</time></trkpt><trkpt lat="41.2782673" lon="1.4940073"><ele>168.6</ele><time>2026-05-04T16:14:34.521Z</time></trkpt><trkpt lat="41.278285" lon="1.4941316"><ele>168.4</ele><time>2026-05-04T16:14:35.518Z</time></trkpt><trkpt lat="41.2782876" lon="1.4942529"><ele>168.2</ele><time>2026-05-04T16:14:36.522Z</time></trkpt><trkpt lat="41.2782893" lon="1.4943787"><ele>168.0</ele><time>2026-05-04T16:14:37.517Z</time></trkpt><trkpt lat="41.2783118" lon="1.4944965"><ele>167.75</ele><time>2026-05-04T16:14:38.521Z</time></trkpt><trkpt lat="41.2783579" lon="1.4946129"><ele>167.5</ele><time>2026-05-04T16:14:39.519Z</time></trkpt><trkpt lat="41.2784192" lon="1.4947372"><ele>167.25</ele><time>2026-05-04T16:14:40.518Z</time></trkpt><trkpt lat="41.2784746" lon="1.4948835"><ele>167.0</ele><time>2026-05-04T16:14:41.519Z</time></trkpt><trkpt lat="41.2785283" lon="1.4950524"><ele>167.0</ele><time>2026-05-04T16:14:42.518Z</time></trkpt><trkpt lat="41.2785799" lon="1.4952264"><ele>167.0</ele><time>2026-05-04T16:14:43.521Z</time></trkpt><trkpt lat="41.2786342" lon="1.4954057"><ele>167.0</ele><time>2026-05-04T16:14:44.522Z</time></trkpt><trkpt lat="41.2786863" lon="1.4955855"><ele>167.0</ele><time>2026-05-04T16:14:45.522Z</time></trkpt><trkpt lat="41.2787271" lon="1.4957695"><ele>167.5</ele><time>2026-05-04T16:14:46.529Z</time></trkpt><trkpt lat="41.2787569" lon="1.4959616"><ele>168.0</ele><time>2026-05-04T16:14:47.522Z</time></trkpt><trkpt lat="41.2787871" lon="1.4961539"><ele>168.5</ele><time>2026-05-04T16:14:48.524Z</time></trkpt><trkpt lat="41.2788039" lon="1.4963409"><ele>169.0</ele><time>2026-05-04T16:14:49.526Z</time></trkpt><trkpt lat="41.2788182" lon="1.4965257"><ele>169.0</ele><time>2026-05-04T16:14:50.525Z</time></trkpt><trkpt lat="41.2788317" lon="1.4967132"><ele>169.0</ele><time>2026-05-04T16:14:51.534Z</time></trkpt><trkpt lat="41.2788492" lon="1.4968979"><ele>169.0</ele><time>2026-05-04T16:14:52.522Z</time></trkpt><trkpt lat="41.278861" lon="1.4970828"><ele>169.0</ele><time>2026-05-04T16:14:53.523Z</time></trkpt><trkpt lat="41.2788799" lon="1.4972636"><ele>169.0</ele><time>2026-05-04T16:14:54.534Z</time></trkpt><trkpt lat="41.2788982" lon="1.4974522"><ele>169.0</ele><time>2026-05-04T16:14:55.505Z</time></trkpt><trkpt lat="41.2789151" lon="1.497646"><ele>169.0</ele><time>2026-05-04T16:14:56.5Z</time></trkpt><trkpt lat="41.2789324" lon="1.4978307"><ele>169.0</ele><time>2026-05-04T16:14:57.503Z</time></trkpt><trkpt lat="41.2789508" lon="1.4980061"><ele>169.6</ele><time>2026-05-04T16:14:58.5Z</time></trkpt><trkpt lat="41.2789647" lon="1.4981611"><ele>170.2</ele><time>2026-05-04T16:14:59.506Z</time></trkpt><trkpt lat="41.2789712" lon="1.4983106"><ele>170.79999999999998</ele><time>2026-05-04T16:15:00.509Z</time></trkpt><trkpt lat="41.2789791" lon="1.4984528"><ele>171.39999999999998</ele><time>2026-05-04T16:15:01.503Z</time></trkpt><trkpt lat="41.2789883" lon="1.4985931"><ele>172.0</ele><time>2026-05-04T16:15:02.504Z</time></trkpt><trkpt lat="41.2789931" lon="1.4987247"><ele>171.6</ele><time>2026-05-04T16:15:03.502Z</time></trkpt><trkpt lat="41.278993" lon="1.498858"><ele>171.2</ele><time>2026-05-04T16:15:04.501Z</time></trkpt><trkpt lat="41.2789755" lon="1.498988"><ele>170.8</ele><time>2026-05-04T16:15:05.501Z</time></trkpt><trkpt lat="41.2789482" lon="1.4991166"><ele>170.4</ele><time>2026-05-04T16:15:06.499Z</time></trkpt><trkpt lat="41.2789165" lon="1.4992458"><ele>170.0</ele><time>2026-05-04T16:15:07.502Z</time></trkpt><trkpt lat="41.2789015" lon="1.4993804"><ele>169.75</ele><time>2026-05-04T16:15:08.496Z</time></trkpt><trkpt lat="41.2789134" lon="1.4995121"><ele>169.5</ele><time>2026-05-04T16:15:09.505Z</time></trkpt><trkpt lat="41.2789569" lon="1.4996497"><ele>169.25</ele><time>2026-05-04T16:15:10.502Z</time></trkpt><trkpt lat="41.2790131" lon="1.4997884"><ele>169.0</ele><time>2026-05-04T16:15:11.502Z</time></trkpt><trkpt lat="41.2790565" lon="1.4999426"><ele>169.0</ele><time>2026-05-04T16:15:12.51Z</time></trkpt><trkpt lat="41.2790836" lon="1.5001038"><ele>169.0</ele><time>2026-05-04T16:15:13.499Z</time></trkpt><trkpt lat="41.2791049" lon="1.5002786"><ele>169.0</ele><time>2026-05-04T16:15:14.507Z</time></trkpt><trkpt lat="41.2791231" lon="1.500455"><ele>169.0</ele><time>2026-05-04T16:15:15.488Z</time></trkpt><trkpt lat="41.2791421" lon="1.5006396"><ele>169.0</ele><time>2026-05-04T16:15:16.505Z</time></trkpt><trkpt lat="41.2791581" lon="1.5008322"><ele>169.0</ele><time>2026-05-04T16:15:17.502Z</time></trkpt><trkpt lat="41.2791768" lon="1.5010435"><ele>169.0</ele><time>2026-05-04T16:15:18.5Z</time></trkpt><trkpt lat="41.2791925" lon="1.501257"><ele>169.0</ele><time>2026-05-04T16:15:19.504Z</time></trkpt><trkpt lat="41.2792112" lon="1.5014788"><ele>169.0</ele><time>2026-05-04T16:15:20.504Z</time></trkpt><trkpt lat="41.2792299" lon="1.5016989"><ele>169.0</ele><time>2026-05-04T16:15:21.509Z</time></trkpt><trkpt lat="41.2792516" lon="1.5019252"><ele>168.33333333333334</ele><time>2026-05-04T16:15:22.508Z</time></trkpt><trkpt lat="41.2792709" lon="1.5021594"><ele>167.66666666666666</ele><time>2026-05-04T16:15:23.506Z</time></trkpt><trkpt lat="41.2792927" lon="1.5023896"><ele>167.0</ele><time>2026-05-04T16:15:24.508Z</time></trkpt><trkpt lat="41.2793123" lon="1.5026242"><ele>167.0</ele><time>2026-05-04T16:15:25.518Z</time></trkpt><trkpt lat="41.2793334" lon="1.5028488"><ele>167.0</ele><time>2026-05-04T16:15:26.504Z</time></trkpt><trkpt lat="41.2793553" lon="1.5030731"><ele>167.0</ele><time>2026-05-04T16:15:27.507Z</time></trkpt><trkpt lat="41.2793805" lon="1.5032982"><ele>166.66666666666666</ele><time>2026-05-04T16:15:28.508Z</time></trkpt><trkpt lat="41.2794113" lon="1.5035202"><ele>166.33333333333334</ele><time>2026-05-04T16:15:29.507Z</time></trkpt><trkpt lat="41.2794534" lon="1.5037425"><ele>166.0</ele><time>2026-05-04T16:15:30.509Z</time></trkpt><trkpt lat="41.2795041" lon="1.5039522"><ele>166.66666666666669</ele><time>2026-05-04T16:15:31.508Z</time></trkpt><trkpt lat="41.2795573" lon="1.5041671"><ele>167.33333333333334</ele><time>2026-05-04T16:15:32.507Z</time></trkpt><trkpt lat="41.2796028" lon="1.5043766"><ele>168.0</ele><time>2026-05-04T16:15:33.513Z</time></trkpt><trkpt lat="41.2796515" lon="1.5045882"><ele>168.0</ele><time>2026-05-04T16:15:34.506Z</time></trkpt><trkpt lat="41.2797002" lon="1.5048043"><ele>168.0</ele><time>2026-05-04T16:15:35.502Z</time></trkpt><trkpt lat="41.2797474" lon="1.5050177"><ele>168.0</ele><time>2026-05-04T16:15:36.498Z</time></trkpt><trkpt lat="41.2797936" lon="1.5052297"><ele>168.0</ele><time>2026-05-04T16:15:37.492Z</time></trkpt><trkpt lat="41.2798379" lon="1.5054391"><ele>168.0</ele><time>2026-05-04T16:15:38.498Z</time></trkpt><trkpt lat="41.2798851" lon="1.5056543"><ele>168.0</ele><time>2026-05-04T16:15:39.493Z</time></trkpt><trkpt lat="41.279935" lon="1.5058676"><ele>168.0</ele><time>2026-05-04T16:15:40.5Z</time></trkpt><trkpt lat="41.2799862" lon="1.506074"><ele>168.0</ele><time>2026-05-04T16:15:41.505Z</time></trkpt><trkpt lat="41.2800325" lon="1.5062736"><ele>168.0</ele><time>2026-05-04T16:15:42.507Z</time></trkpt><trkpt lat="41.2800784" lon="1.5064691"><ele>167.66666666666666</ele><time>2026-05-04T16:15:43.503Z</time></trkpt><trkpt lat="41.2801187" lon="1.5066687"><ele>167.33333333333331</ele><time>2026-05-04T16:15:44.504Z</time></trkpt><trkpt lat="41.2801667" lon="1.5068625"><ele>167.0</ele><time>2026-05-04T16:15:45.509Z</time></trkpt><trkpt lat="41.2802148" lon="1.5070538"><ele>167.33333333333331</ele><time>2026-05-04T16:15:46.505Z</time></trkpt><trkpt lat="41.2802598" lon="1.5072406"><ele>167.66666666666666</ele><time>2026-05-04T16:15:47.501Z</time></trkpt><trkpt lat="41.2803086" lon="1.5074322"><ele>168.0</ele><time>2026-05-04T16:15:48.509Z</time></trkpt><trkpt lat="41.2803528" lon="1.5076271"><ele>168.0</ele><time>2026-05-04T16:15:49.501Z</time></trkpt><trkpt lat="41.2804" lon="1.5078291"><ele>168.0</ele><time>2026-05-04T16:15:50.512Z</time></trkpt><trkpt lat="41.2804894" lon="1.5082356"><ele>168.0</ele><time>2026-05-04T16:15:52.505Z</time></trkpt><trkpt lat="41.2805273" lon="1.5084367"><ele>168.0</ele><time>2026-05-04T16:15:53.512Z</time></trkpt><trkpt lat="41.2805659" lon="1.5086366"><ele>168.0</ele><time>2026-05-04T16:15:54.511Z</time></trkpt><trkpt lat="41.2806222" lon="1.5088406"><ele>170.0</ele><time>2026-05-04T16:15:55.518Z</time></trkpt><trkpt lat="41.2806749" lon="1.5090469"><ele>172.0</ele><time>2026-05-04T16:15:56.526Z</time></trkpt><trkpt lat="41.2807291" lon="1.5092487"><ele>174.0</ele><time>2026-05-04T16:15:57.515Z</time></trkpt><trkpt lat="41.2807795" lon="1.5094564"><ele>174.0</ele><time>2026-05-04T16:15:58.515Z</time></trkpt><trkpt lat="41.2808234" lon="1.5096593"><ele>174.0</ele><time>2026-05-04T16:15:59.51Z</time></trkpt><trkpt lat="41.280868" lon="1.5098631"><ele>174.0</ele><time>2026-05-04T16:16:00.513Z</time></trkpt><trkpt lat="41.280915" lon="1.5100666"><ele>174.0</ele><time>2026-05-04T16:16:01.503Z</time></trkpt><trkpt lat="41.2809484" lon="1.5102667"><ele>174.0</ele><time>2026-05-04T16:16:02.503Z</time></trkpt><trkpt lat="41.280983" lon="1.5104634"><ele>174.0</ele><time>2026-05-04T16:16:03.502Z</time></trkpt><trkpt lat="41.2810137" lon="1.5106636"><ele>174.0</ele><time>2026-05-04T16:16:04.511Z</time></trkpt><trkpt lat="41.2810461" lon="1.510871"><ele>174.0</ele><time>2026-05-04T16:16:05.505Z</time></trkpt><trkpt lat="41.2810782" lon="1.5110767"><ele>174.0</ele><time>2026-05-04T16:16:06.509Z</time></trkpt><trkpt lat="41.2811087" lon="1.5112862"><ele>174.0</ele><time>2026-05-04T16:16:07.501Z</time></trkpt><trkpt lat="41.2811365" lon="1.5114939"><ele>174.0</ele><time>2026-05-04T16:16:08.503Z</time></trkpt><trkpt lat="41.2811713" lon="1.5117033"><ele>174.0</ele><time>2026-05-04T16:16:09.509Z</time></trkpt><trkpt lat="41.2812022" lon="1.5119103"><ele>174.66666666666666</ele><time>2026-05-04T16:16:10.508Z</time></trkpt><trkpt lat="41.2812387" lon="1.5121128"><ele>175.33333333333331</ele><time>2026-05-04T16:16:11.507Z</time></trkpt><trkpt lat="41.2812697" lon="1.5123266"><ele>176.0</ele><time>2026-05-04T16:16:12.508Z</time></trkpt><trkpt lat="41.2813092" lon="1.5125261"><ele>176.0</ele><time>2026-05-04T16:16:13.511Z</time></trkpt><trkpt lat="41.281349" lon="1.5127309"><ele>176.0</ele><time>2026-05-04T16:16:14.509Z</time></trkpt><trkpt lat="41.2813836" lon="1.5129436"><ele>176.0</ele><time>2026-05-04T16:16:15.507Z</time></trkpt><trkpt lat="41.2814201" lon="1.5131565"><ele>176.0</ele><time>2026-05-04T16:16:16.504Z</time></trkpt><trkpt lat="41.2814462" lon="1.5133532"><ele>176.0</ele><time>2026-05-04T16:16:17.508Z</time></trkpt><trkpt lat="41.2814821" lon="1.5135596"><ele>176.0</ele><time>2026-05-04T16:16:18.508Z</time></trkpt><trkpt lat="41.2815105" lon="1.5137621"><ele>175.33333333333331</ele><time>2026-05-04T16:16:19.507Z</time></trkpt><trkpt lat="41.281542" lon="1.5139577"><ele>174.66666666666666</ele><time>2026-05-04T16:16:20.511Z</time></trkpt><trkpt lat="41.2815802" lon="1.5141673"><ele>174.0</ele><time>2026-05-04T16:16:21.508Z</time></trkpt><trkpt lat="41.2816209" lon="1.514385"><ele>174.33333333333334</ele><time>2026-05-04T16:16:22.515Z</time></trkpt><trkpt lat="41.2816575" lon="1.514595"><ele>174.66666666666669</ele><time>2026-05-04T16:16:23.506Z</time></trkpt><trkpt lat="41.2816855" lon="1.5148032"><ele>175.0</ele><time>2026-05-04T16:16:24.509Z</time></trkpt><trkpt lat="41.2817112" lon="1.5150119"><ele>175.0</ele><time>2026-05-04T16:16:25.507Z</time></trkpt><trkpt lat="41.2817275" lon="1.515214"><ele>175.0</ele><time>2026-05-04T16:16:26.497Z</time></trkpt><trkpt lat="41.2817696" lon="1.5154122"><ele>175.0</ele><time>2026-05-04T16:16:27.51Z</time></trkpt><trkpt lat="41.2818166" lon="1.5156055"><ele>174.0</ele><time>2026-05-04T16:16:28.502Z</time></trkpt><trkpt lat="41.2818916" lon="1.5158077"><ele>173.0</ele><time>2026-05-04T16:16:29.505Z</time></trkpt><trkpt lat="41.2819831" lon="1.5159816"><ele>172.0</ele><time>2026-05-04T16:16:30.503Z</time></trkpt><trkpt lat="41.2820923" lon="1.5161421"><ele>171.0</ele><time>2026-05-04T16:16:31.503Z</time></trkpt><trkpt lat="41.2822024" lon="1.5162929"><ele>170.0</ele><time>2026-05-04T16:16:32.501Z</time></trkpt><trkpt lat="41.2823147" lon="1.5164462"><ele>169.0</ele><time>2026-05-04T16:16:33.51Z</time></trkpt><trkpt lat="41.2824258" lon="1.5166112"><ele>169.66666666666669</ele><time>2026-05-04T16:16:34.505Z</time></trkpt><trkpt lat="41.2825258" lon="1.5167858"><ele>170.33333333333334</ele><time>2026-05-04T16:16:35.502Z</time></trkpt><trkpt lat="41.2826268" lon="1.5169581"><ele>171.0</ele><time>2026-05-04T16:16:36.503Z</time></trkpt><trkpt lat="41.2827191" lon="1.5171429"><ele>171.0</ele><time>2026-05-04T16:16:37.5Z</time></trkpt><trkpt lat="41.2828086" lon="1.5173237"><ele>171.0</ele><time>2026-05-04T16:16:38.505Z</time></trkpt><trkpt lat="41.2828859" lon="1.517509"><ele>171.0</ele><time>2026-05-04T16:16:39.5Z</time></trkpt><trkpt lat="41.2829473" lon="1.5177059"><ele>171.0</ele><time>2026-05-04T16:16:40.501Z</time></trkpt><trkpt lat="41.283009" lon="1.5179017"><ele>171.0</ele><time>2026-05-04T16:16:41.504Z</time></trkpt><trkpt lat="41.283062" lon="1.5180923"><ele>171.0</ele><time>2026-05-04T16:16:42.504Z</time></trkpt><trkpt lat="41.2831144" lon="1.5182862"><ele>172.0</ele><time>2026-05-04T16:16:43.503Z</time></trkpt><trkpt lat="41.2831733" lon="1.5184853"><ele>173.0</ele><time>2026-05-04T16:16:44.507Z</time></trkpt><trkpt lat="41.2832264" lon="1.5186768"><ele>174.0</ele><time>2026-05-04T16:16:45.504Z</time></trkpt><trkpt lat="41.2832798" lon="1.5188588"><ele>174.0</ele><time>2026-05-04T16:16:46.505Z</time></trkpt><trkpt lat="41.2833406" lon="1.5190505"><ele>174.0</ele><time>2026-05-04T16:16:47.5Z</time></trkpt><trkpt lat="41.2833954" lon="1.5192554"><ele>174.0</ele><time>2026-05-04T16:16:48.509Z</time></trkpt><trkpt lat="41.2834398" lon="1.5194695"><ele>172.66666666666666</ele><time>2026-05-04T16:16:49.502Z</time></trkpt><trkpt lat="41.2834689" lon="1.5196804"><ele>171.33333333333331</ele><time>2026-05-04T16:16:50.505Z</time></trkpt><trkpt lat="41.2835001" lon="1.5199042"><ele>170.0</ele><time>2026-05-04T16:16:51.509Z</time></trkpt><trkpt lat="41.2835414" lon="1.5201286"><ele>170.0</ele><time>2026-05-04T16:16:52.51Z</time></trkpt><trkpt lat="41.2835785" lon="1.5203473"><ele>170.0</ele><time>2026-05-04T16:16:53.512Z</time></trkpt><trkpt lat="41.283618" lon="1.5205624"><ele>170.0</ele><time>2026-05-04T16:16:54.511Z</time></trkpt><trkpt lat="41.2836538" lon="1.5207695"><ele>169.33333333333331</ele><time>2026-05-04T16:16:55.51Z</time></trkpt><trkpt lat="41.2836864" lon="1.5209876"><ele>168.66666666666666</ele><time>2026-05-04T16:16:56.511Z</time></trkpt><trkpt lat="41.2837219" lon="1.5212026"><ele>168.0</ele><time>2026-05-04T16:16:57.509Z</time></trkpt><trkpt lat="41.283751" lon="1.5214133"><ele>167.66666666666666</ele><time>2026-05-04T16:16:58.521Z</time></trkpt><trkpt lat="41.2837841" lon="1.5216226"><ele>167.33333333333331</ele><time>2026-05-04T16:16:59.504Z</time></trkpt><trkpt lat="41.2838143" lon="1.5218269"><ele>167.0</ele><time>2026-05-04T16:17:00.508Z</time></trkpt><trkpt lat="41.283847" lon="1.5220385"><ele>167.0</ele><time>2026-05-04T16:17:01.508Z</time></trkpt><trkpt lat="41.2838742" lon="1.5222508"><ele>167.0</ele><time>2026-05-04T16:17:02.501Z</time></trkpt><trkpt lat="41.2838928" lon="1.5224719"><ele>167.0</ele><time>2026-05-04T16:17:03.499Z</time></trkpt><trkpt lat="41.2838933" lon="1.5226905"><ele>167.0</ele><time>2026-05-04T16:17:04.503Z</time></trkpt><trkpt lat="41.2838778" lon="1.522903"><ele>167.0</ele><time>2026-05-04T16:17:05.503Z</time></trkpt><trkpt lat="41.2838586" lon="1.5231142"><ele>167.0</ele><time>2026-05-04T16:17:06.506Z</time></trkpt><trkpt lat="41.2838414" lon="1.5233268"><ele>167.0</ele><time>2026-05-04T16:17:07.502Z</time></trkpt><trkpt lat="41.2838234" lon="1.5235266"><ele>167.0</ele><time>2026-05-04T16:17:08.503Z</time></trkpt><trkpt lat="41.2838275" lon="1.5237211"><ele>167.0</ele><time>2026-05-04T16:17:09.503Z</time></trkpt><trkpt lat="41.2838395" lon="1.5239212"><ele>167.0</ele><time>2026-05-04T16:17:10.505Z</time></trkpt><trkpt lat="41.283864" lon="1.5241206"><ele>168.0</ele><time>2026-05-04T16:17:11.502Z</time></trkpt><trkpt lat="41.2839004" lon="1.524313"><ele>169.0</ele><time>2026-05-04T16:17:12.502Z</time></trkpt><trkpt lat="41.283949" lon="1.524513"><ele>170.0</ele><time>2026-05-04T16:17:13.505Z</time></trkpt><trkpt lat="41.2840073" lon="1.5247078"><ele>170.66666666666666</ele><time>2026-05-04T16:17:14.506Z</time></trkpt><trkpt lat="41.2840595" lon="1.5249069"><ele>171.33333333333334</ele><time>2026-05-04T16:17:15.503Z</time></trkpt><trkpt lat="41.2841133" lon="1.5251041"><ele>172.0</ele><time>2026-05-04T16:17:16.501Z</time></trkpt><trkpt lat="41.284165" lon="1.525292"><ele>171.33333333333334</ele><time>2026-05-04T16:17:17.502Z</time></trkpt><trkpt lat="41.2842206" lon="1.5254882"><ele>170.66666666666666</ele><time>2026-05-04T16:17:18.513Z</time></trkpt><trkpt lat="41.2842758" lon="1.5256839"><ele>170.0</ele><time>2026-05-04T16:17:19.498Z</time></trkpt><trkpt lat="41.2843209" lon="1.5258642"><ele>170.0</ele><time>2026-05-04T16:17:20.509Z</time></trkpt><trkpt lat="41.2843631" lon="1.5260379"><ele>170.0</ele><time>2026-05-04T16:17:21.503Z</time></trkpt><trkpt lat="41.2844058" lon="1.5262023"><ele>170.0</ele><time>2026-05-04T16:17:22.502Z</time></trkpt><trkpt lat="41.2844402" lon="1.5263382"><ele>170.0</ele><time>2026-05-04T16:17:23.5Z</time></trkpt><trkpt lat="41.2844747" lon="1.5264599"><ele>170.0</ele><time>2026-05-04T16:17:24.506Z</time></trkpt><trkpt lat="41.2844952" lon="1.5265743"><ele>170.0</ele><time>2026-05-04T16:17:25.498Z</time></trkpt><trkpt lat="41.284517" lon="1.5266949"><ele>170.0</ele><time>2026-05-04T16:17:26.501Z</time></trkpt><trkpt lat="41.2845285" lon="1.5268206"><ele>170.0</ele><time>2026-05-04T16:17:27.507Z</time></trkpt><trkpt lat="41.2845308" lon="1.5269579"><ele>170.0</ele><time>2026-05-04T16:17:28.501Z</time></trkpt><trkpt lat="41.2845242" lon="1.5270969"><ele>169.8</ele><time>2026-05-04T16:17:29.509Z</time></trkpt><trkpt lat="41.2845037" lon="1.5272333"><ele>169.6</ele><time>2026-05-04T16:17:30.502Z</time></trkpt><trkpt lat="41.2844706" lon="1.5273554"><ele>169.39999999999998</ele><time>2026-05-04T16:17:31.502Z</time></trkpt><trkpt lat="41.2844254" lon="1.5274741"><ele>169.2</ele><time>2026-05-04T16:17:32.501Z</time></trkpt><trkpt lat="41.2843654" lon="1.5275894"><ele>169.0</ele><time>2026-05-04T16:17:33.507Z</time></trkpt><trkpt lat="41.2843119" lon="1.5277143"><ele>169.0</ele><time>2026-05-04T16:17:34.499Z</time></trkpt><trkpt lat="41.2842746" lon="1.5278618"><ele>169.0</ele><time>2026-05-04T16:17:35.5Z</time></trkpt><trkpt lat="41.2842265" lon="1.5280221"><ele>169.0</ele><time>2026-05-04T16:17:36.503Z</time></trkpt><trkpt lat="41.2841624" lon="1.5281907"><ele>169.0</ele><time>2026-05-04T16:17:37.496Z</time></trkpt><trkpt lat="41.2840992" lon="1.5283725"><ele>168.0</ele><time>2026-05-04T16:17:38.497Z</time></trkpt><trkpt lat="41.284043" lon="1.5285613"><ele>167.0</ele><time>2026-05-04T16:17:39.499Z</time></trkpt><trkpt lat="41.2839804" lon="1.5287547"><ele>166.0</ele><time>2026-05-04T16:17:40.507Z</time></trkpt><trkpt lat="41.2839247" lon="1.5289567"><ele>165.0</ele><time>2026-05-04T16:17:41.503Z</time></trkpt><trkpt lat="41.2838718" lon="1.5291566"><ele>164.0</ele><time>2026-05-04T16:17:42.503Z</time></trkpt><trkpt lat="41.283811" lon="1.5293607"><ele>163.0</ele><time>2026-05-04T16:17:43.503Z</time></trkpt><trkpt lat="41.2837494" lon="1.5295664"><ele>163.0</ele><time>2026-05-04T16:17:44.507Z</time></trkpt><trkpt lat="41.2836878" lon="1.5297757"><ele>163.0</ele><time>2026-05-04T16:17:45.503Z</time></trkpt><trkpt lat="41.2836272" lon="1.5299858"><ele>163.0</ele><time>2026-05-04T16:17:46.511Z</time></trkpt><trkpt lat="41.2835682" lon="1.5301957"><ele>162.33333333333334</ele><time>2026-05-04T16:17:47.505Z</time></trkpt><trkpt lat="41.2835049" lon="1.5304137"><ele>161.66666666666666</ele><time>2026-05-04T16:17:48.508Z</time></trkpt><trkpt lat="41.2834362" lon="1.5306268"><ele>161.0</ele><time>2026-05-04T16:17:49.506Z</time></trkpt><trkpt lat="41.2833698" lon="1.5308354"><ele>161.0</ele><time>2026-05-04T16:17:50.505Z</time></trkpt><trkpt lat="41.2833111" lon="1.5310392"><ele>161.0</ele><time>2026-05-04T16:17:51.508Z</time></trkpt><trkpt lat="41.283251" lon="1.5312417"><ele>161.0</ele><time>2026-05-04T16:17:52.504Z</time></trkpt><trkpt lat="41.2831938" lon="1.53144"><ele>160.0</ele><time>2026-05-04T16:17:53.507Z</time></trkpt><trkpt lat="41.2831236" lon="1.5316508"><ele>159.0</ele><time>2026-05-04T16:17:54.509Z</time></trkpt><trkpt lat="41.283058" lon="1.531856"><ele>158.0</ele><time>2026-05-04T16:17:55.511Z</time></trkpt><trkpt lat="41.2829886" lon="1.532056"><ele>159.0</ele><time>2026-05-04T16:17:56.505Z</time></trkpt><trkpt lat="41.2829296" lon="1.5322609"><ele>160.0</ele><time>2026-05-04T16:17:57.509Z</time></trkpt><trkpt lat="41.282875" lon="1.5324591"><ele>161.0</ele><time>2026-05-04T16:17:58.506Z</time></trkpt><trkpt lat="41.2828151" lon="1.5326623"><ele>161.0</ele><time>2026-05-04T16:17:59.507Z</time></trkpt><trkpt lat="41.2827585" lon="1.5328521"><ele>161.0</ele><time>2026-05-04T16:18:00.521Z</time></trkpt><trkpt lat="41.2827025" lon="1.533042"><ele>161.0</ele><time>2026-05-04T16:18:01.505Z</time></trkpt><trkpt lat="41.2826545" lon="1.5332269"><ele>161.66666666666666</ele><time>2026-05-04T16:18:02.505Z</time></trkpt><trkpt lat="41.28261" lon="1.5334099"><ele>162.33333333333334</ele><time>2026-05-04T16:18:03.507Z</time></trkpt><trkpt lat="41.2825747" lon="1.533607"><ele>163.0</ele><time>2026-05-04T16:18:04.501Z</time></trkpt><trkpt lat="41.2825558" lon="1.5338094"><ele>163.66666666666669</ele><time>2026-05-04T16:18:05.505Z</time></trkpt><trkpt lat="41.2825423" lon="1.5340172"><ele>164.33333333333334</ele><time>2026-05-04T16:18:06.502Z</time></trkpt><trkpt lat="41.2825308" lon="1.5342323"><ele>165.0</ele><time>2026-05-04T16:18:07.507Z</time></trkpt><trkpt lat="41.2825187" lon="1.5344516"><ele>164.66666666666666</ele><time>2026-05-04T16:18:08.503Z</time></trkpt><trkpt lat="41.2825037" lon="1.5346698"><ele>164.33333333333331</ele><time>2026-05-04T16:18:09.506Z</time></trkpt><trkpt lat="41.2824919" lon="1.5348876"><ele>164.0</ele><time>2026-05-04T16:18:10.512Z</time></trkpt><trkpt lat="41.2824763" lon="1.5350998"><ele>164.0</ele><time>2026-05-04T16:18:11.506Z</time></trkpt><trkpt lat="41.2824595" lon="1.5353143"><ele>164.0</ele><time>2026-05-04T16:18:12.507Z</time></trkpt><trkpt lat="41.2824469" lon="1.5355212"><ele>164.0</ele><time>2026-05-04T16:18:13.506Z</time></trkpt><trkpt lat="41.2824303" lon="1.5357405"><ele>164.0</ele><time>2026-05-04T16:18:14.505Z</time></trkpt><trkpt lat="41.2824124" lon="1.5359591"><ele>164.0</ele><time>2026-05-04T16:18:15.506Z</time></trkpt><trkpt lat="41.2823911" lon="1.536178"><ele>164.0</ele><time>2026-05-04T16:18:16.509Z</time></trkpt><trkpt lat="41.2823782" lon="1.5363991"><ele>164.0</ele><time>2026-05-04T16:18:17.51Z</time></trkpt><trkpt lat="41.282359" lon="1.5366196"><ele>164.0</ele><time>2026-05-04T16:18:18.507Z</time></trkpt><trkpt lat="41.2823388" lon="1.5368321"><ele>164.0</ele><time>2026-05-04T16:18:19.507Z</time></trkpt><trkpt lat="41.2823201" lon="1.5370544"><ele>164.33333333333331</ele><time>2026-05-04T16:18:20.507Z</time></trkpt><trkpt lat="41.2823071" lon="1.53728"><ele>164.66666666666666</ele><time>2026-05-04T16:18:21.516Z</time></trkpt><trkpt lat="41.2822864" lon="1.5375001"><ele>165.0</ele><time>2026-05-04T16:18:22.507Z</time></trkpt><trkpt lat="41.2822705" lon="1.5377165"><ele>164.0</ele><time>2026-05-04T16:18:23.506Z</time></trkpt><trkpt lat="41.2822574" lon="1.5379292"><ele>163.0</ele><time>2026-05-04T16:18:24.508Z</time></trkpt><trkpt lat="41.2822406" lon="1.5381527"><ele>162.0</ele><time>2026-05-04T16:18:25.509Z</time></trkpt><trkpt lat="41.2822288" lon="1.5383689"><ele>162.0</ele><time>2026-05-04T16:18:26.505Z</time></trkpt><trkpt lat="41.2822153" lon="1.5385897"><ele>162.0</ele><time>2026-05-04T16:18:27.508Z</time></trkpt><trkpt lat="41.2821979" lon="1.5388076"><ele>162.0</ele><time>2026-05-04T16:18:28.502Z</time></trkpt><trkpt lat="41.2821829" lon="1.5390201"><ele>162.33333333333334</ele><time>2026-05-04T16:18:29.508Z</time></trkpt><trkpt lat="41.2821687" lon="1.5392274"><ele>162.66666666666669</ele><time>2026-05-04T16:18:30.511Z</time></trkpt><trkpt lat="41.2821499" lon="1.5394428"><ele>163.0</ele><time>2026-05-04T16:18:31.527Z</time></trkpt><trkpt lat="41.2821334" lon="1.5396531"><ele>164.0</ele><time>2026-05-04T16:18:32.503Z</time></trkpt><trkpt lat="41.2821149" lon="1.5398613"><ele>165.0</ele><time>2026-05-04T16:18:33.507Z</time></trkpt><trkpt lat="41.2820959" lon="1.5400711"><ele>166.0</ele><time>2026-05-04T16:18:34.508Z</time></trkpt><trkpt lat="41.2820845" lon="1.5402729"><ele>167.0</ele><time>2026-05-04T16:18:35.507Z</time></trkpt><trkpt lat="41.2820705" lon="1.5404775"><ele>168.0</ele><time>2026-05-04T16:18:36.507Z</time></trkpt><trkpt lat="41.2820458" lon="1.5406823"><ele>169.0</ele><time>2026-05-04T16:18:37.511Z</time></trkpt><trkpt lat="41.2820254" lon="1.540889"><ele>169.0</ele><time>2026-05-04T16:18:38.511Z</time></trkpt><trkpt lat="41.2820176" lon="1.5410932"><ele>169.0</ele><time>2026-05-04T16:18:39.503Z</time></trkpt><trkpt lat="41.2820236" lon="1.5413043"><ele>169.0</ele><time>2026-05-04T16:18:40.499Z</time></trkpt><trkpt lat="41.282044" lon="1.5415215"><ele>168.0</ele><time>2026-05-04T16:18:41.497Z</time></trkpt><trkpt lat="41.2820637" lon="1.5417319"><ele>167.0</ele><time>2026-05-04T16:18:42.499Z</time></trkpt><trkpt lat="41.2821067" lon="1.5419314"><ele>166.0</ele><time>2026-05-04T16:18:43.504Z</time></trkpt><trkpt lat="41.2821653" lon="1.5421308"><ele>165.66666666666669</ele><time>2026-05-04T16:18:44.505Z</time></trkpt><trkpt lat="41.2822173" lon="1.5423305"><ele>165.33333333333334</ele><time>2026-05-04T16:18:45.503Z</time></trkpt><trkpt lat="41.2822697" lon="1.5425352"><ele>165.0</ele><time>2026-05-04T16:18:46.504Z</time></trkpt><trkpt lat="41.2823017" lon="1.54273"><ele>164.5</ele><time>2026-05-04T16:18:47.504Z</time></trkpt><trkpt lat="41.2823153" lon="1.5429236"><ele>164.0</ele><time>2026-05-04T16:18:48.498Z</time></trkpt><trkpt lat="41.2823085" lon="1.5431059"><ele>163.5</ele><time>2026-05-04T16:18:49.507Z</time></trkpt><trkpt lat="41.2822417" lon="1.5432605"><ele>163.0</ele><time>2026-05-04T16:18:50.503Z</time></trkpt><trkpt lat="41.2821455" lon="1.5434023"><ele>163.0</ele><time>2026-05-04T16:18:51.5Z</time></trkpt><trkpt lat="41.2820653" lon="1.5435599"><ele>163.0</ele><time>2026-05-04T16:18:52.502Z</time></trkpt><trkpt lat="41.2819888" lon="1.5437144"><ele>163.0</ele><time>2026-05-04T16:18:53.501Z</time></trkpt><trkpt lat="41.281923" lon="1.5438572"><ele>163.0</ele><time>2026-05-04T16:18:54.502Z</time></trkpt><trkpt lat="41.2818585" lon="1.5439921"><ele>163.0</ele><time>2026-05-04T16:18:55.508Z</time></trkpt><trkpt lat="41.2818108" lon="1.54413"><ele>163.0</ele><time>2026-05-04T16:18:56.505Z</time></trkpt><trkpt lat="41.2817783" lon="1.544269"><ele>163.0</ele><time>2026-05-04T16:18:57.505Z</time></trkpt><trkpt lat="41.2817548" lon="1.5443962"><ele>163.0</ele><time>2026-05-04T16:18:58.504Z</time></trkpt><trkpt lat="41.2817386" lon="1.5445197"><ele>163.0</ele><time>2026-05-04T16:18:59.502Z</time></trkpt><trkpt lat="41.2817211" lon="1.5446405"><ele>162.83333333333334</ele><time>2026-05-04T16:19:00.509Z</time></trkpt><trkpt lat="41.2816999" lon="1.5447434"><ele>162.66666666666669</ele><time>2026-05-04T16:19:01.512Z</time></trkpt><trkpt lat="41.28167" lon="1.5448359"><ele>162.5</ele><time>2026-05-04T16:19:02.505Z</time></trkpt><trkpt lat="41.2816494" lon="1.544931"><ele>162.33333333333334</ele><time>2026-05-04T16:19:03.5Z</time></trkpt><trkpt lat="41.2816436" lon="1.5450302"><ele>162.16666666666666</ele><time>2026-05-04T16:19:04.508Z</time></trkpt><trkpt lat="41.2816662" lon="1.5451372"><ele>162.0</ele><time>2026-05-04T16:19:05.502Z</time></trkpt><trkpt lat="41.2816813" lon="1.5452736"><ele>161.75</ele><time>2026-05-04T16:19:06.504Z</time></trkpt><trkpt lat="41.2816789" lon="1.5454169"><ele>161.5</ele><time>2026-05-04T16:19:07.505Z</time></trkpt><trkpt lat="41.281671" lon="1.5455709"><ele>161.25</ele><time>2026-05-04T16:19:08.498Z</time></trkpt><trkpt lat="41.2816569" lon="1.5457399"><ele>161.0</ele><time>2026-05-04T16:19:09.499Z</time></trkpt><trkpt lat="41.2816439" lon="1.5459212"><ele>161.0</ele><time>2026-05-04T16:19:10.506Z</time></trkpt><trkpt lat="41.2816289" lon="1.5461017"><ele>161.0</ele><time>2026-05-04T16:19:11.505Z</time></trkpt><trkpt lat="41.2816109" lon="1.5462858"><ele>161.0</ele><time>2026-05-04T16:19:12.505Z</time></trkpt><trkpt lat="41.2815961" lon="1.5464694"><ele>161.0</ele><time>2026-05-04T16:19:13.504Z</time></trkpt><trkpt lat="41.2815866" lon="1.5466577"><ele>161.0</ele><time>2026-05-04T16:19:14.501Z</time></trkpt><trkpt lat="41.2815733" lon="1.5468424"><ele>161.0</ele><time>2026-05-04T16:19:15.506Z</time></trkpt><trkpt lat="41.281551" lon="1.5470224"><ele>161.0</ele><time>2026-05-04T16:19:16.508Z</time></trkpt><trkpt lat="41.2815266" lon="1.5471899"><ele>161.0</ele><time>2026-05-04T16:19:17.506Z</time></trkpt><trkpt lat="41.2814946" lon="1.547359"><ele>160.33333333333331</ele><time>2026-05-04T16:19:18.509Z</time></trkpt><trkpt lat="41.2814074" lon="1.5476785"><ele>159.66666666666666</ele><time>2026-05-04T16:19:20.504Z</time></trkpt><trkpt lat="41.2813508" lon="1.5478241"><ele>159.0</ele><time>2026-05-04T16:19:21.508Z</time></trkpt><trkpt lat="41.2812276" lon="1.5480605"><ele>158.8</ele><time>2026-05-04T16:19:23.497Z</time></trkpt><trkpt lat="41.2811627" lon="1.5481473"><ele>158.60000000000002</ele><time>2026-05-04T16:19:24.497Z</time></trkpt><trkpt lat="41.2810922" lon="1.5482343"><ele>158.4</ele><time>2026-05-04T16:19:25.504Z</time></trkpt><trkpt lat="41.2810256" lon="1.5483225"><ele>158.20000000000002</ele><time>2026-05-04T16:19:26.496Z</time></trkpt><trkpt lat="41.2809806" lon="1.5484209"><ele>158.0</ele><time>2026-05-04T16:19:27.497Z</time></trkpt><trkpt lat="41.2809572" lon="1.5485396"><ele>158.0</ele><time>2026-05-04T16:19:28.502Z</time></trkpt><trkpt lat="41.2809497" lon="1.5486902"><ele>158.0</ele><time>2026-05-04T16:19:29.495Z</time></trkpt><trkpt lat="41.2809196" lon="1.5488352"><ele>158.0</ele><time>2026-05-04T16:19:30.509Z</time></trkpt><trkpt lat="41.2808777" lon="1.548986"><ele>158.0</ele><time>2026-05-04T16:19:31.496Z</time></trkpt><trkpt lat="41.2808328" lon="1.549141"><ele>157.75</ele><time>2026-05-04T16:19:32.506Z</time></trkpt><trkpt lat="41.2807754" lon="1.5493065"><ele>157.5</ele><time>2026-05-04T16:19:33.496Z</time></trkpt><trkpt lat="41.2807131" lon="1.5494707"><ele>157.25</ele><time>2026-05-04T16:19:34.494Z</time></trkpt><trkpt lat="41.2806536" lon="1.5496334"><ele>157.0</ele><time>2026-05-04T16:19:35.496Z</time></trkpt><trkpt lat="41.2805859" lon="1.5498102"><ele>156.0</ele><time>2026-05-04T16:19:36.499Z</time></trkpt><trkpt lat="41.2805137" lon="1.549988"><ele>155.0</ele><time>2026-05-04T16:19:37.505Z</time></trkpt><trkpt lat="41.280444" lon="1.5501587"><ele>154.0</ele><time>2026-05-04T16:19:38.5Z</time></trkpt><trkpt lat="41.280372" lon="1.5503353"><ele>153.0</ele><time>2026-05-04T16:19:39.503Z</time></trkpt><trkpt lat="41.2803076" lon="1.5505256"><ele>152.5</ele><time>2026-05-04T16:19:40.504Z</time></trkpt><trkpt lat="41.280251" lon="1.5507101"><ele>152.0</ele><time>2026-05-04T16:19:41.5Z</time></trkpt><trkpt lat="41.2802025" lon="1.5509041"><ele>151.5</ele><time>2026-05-04T16:19:42.497Z</time></trkpt><trkpt lat="41.28018" lon="1.551096"><ele>151.0</ele><time>2026-05-04T16:19:43.5Z</time></trkpt><trkpt lat="41.2801573" lon="1.5512956"><ele>150.0</ele><time>2026-05-04T16:19:44.502Z</time></trkpt><trkpt lat="41.2801392" lon="1.5514923"><ele>149.0</ele><time>2026-05-04T16:19:45.501Z</time></trkpt><trkpt lat="41.2801276" lon="1.5516699"><ele>148.0</ele><time>2026-05-04T16:19:46.501Z</time></trkpt><trkpt lat="41.2801098" lon="1.551843"><ele>147.0</ele><time>2026-05-04T16:19:47.509Z</time></trkpt><trkpt lat="41.280096" lon="1.5520039"><ele>147.2</ele><time>2026-05-04T16:19:48.509Z</time></trkpt><trkpt lat="41.280084" lon="1.5521479"><ele>147.39999999999998</ele><time>2026-05-04T16:19:49.507Z</time></trkpt><trkpt lat="41.2800762" lon="1.5522845"><ele>147.60000000000002</ele><time>2026-05-04T16:19:50.507Z</time></trkpt><trkpt lat="41.2800607" lon="1.5524179"><ele>147.8</ele><time>2026-05-04T16:19:51.507Z</time></trkpt><trkpt lat="41.2800409" lon="1.5525409"><ele>148.0</ele><time>2026-05-04T16:19:52.5Z</time></trkpt><trkpt lat="41.2800317" lon="1.5526496"><ele>148.0</ele><time>2026-05-04T16:19:53.506Z</time></trkpt><trkpt lat="41.2800238" lon="1.5527702"><ele>148.0</ele><time>2026-05-04T16:19:54.5Z</time></trkpt><trkpt lat="41.2800037" lon="1.5528919"><ele>148.0</ele><time>2026-05-04T16:19:55.509Z</time></trkpt><trkpt lat="41.2799895" lon="1.5530064"><ele>148.0</ele><time>2026-05-04T16:19:56.514Z</time></trkpt><trkpt lat="41.2799714" lon="1.553119"><ele>148.0</ele><time>2026-05-04T16:19:57.498Z</time></trkpt><trkpt lat="41.2799392" lon="1.553212"><ele>148.0</ele><time>2026-05-04T16:19:58.502Z</time></trkpt><trkpt lat="41.2799016" lon="1.5532981"><ele>148.5</ele><time>2026-05-04T16:19:59.495Z</time></trkpt><trkpt lat="41.2798634" lon="1.5533765"><ele>149.0</ele><time>2026-05-04T16:20:00.501Z</time></trkpt><trkpt lat="41.2798472" lon="1.5534653"><ele>149.5</ele><time>2026-05-04T16:20:01.508Z</time></trkpt><trkpt lat="41.2799204" lon="1.553618"><ele>150.0</ele><time>2026-05-04T16:20:03.514Z</time></trkpt><trkpt lat="41.2799885" lon="1.5536586"><ele>150.5</ele><time>2026-05-04T16:20:04.494Z</time></trkpt><trkpt lat="41.2800545" lon="1.5536343"><ele>151.0</ele><time>2026-05-04T16:20:05.505Z</time></trkpt><trkpt lat="41.280129" lon="1.5535584"><ele>151.0</ele><time>2026-05-04T16:20:06.5Z</time></trkpt><trkpt lat="41.2802059" lon="1.5534847"><ele>151.0</ele><time>2026-05-04T16:20:07.494Z</time></trkpt><trkpt lat="41.2802896" lon="1.5534383"><ele>151.0</ele><time>2026-05-04T16:20:08.49Z</time></trkpt><trkpt lat="41.2803845" lon="1.5534344"><ele>151.0</ele><time>2026-05-04T16:20:09.496Z</time></trkpt><trkpt lat="41.280485" lon="1.5534411"><ele>151.0</ele><time>2026-05-04T16:20:10.484Z</time></trkpt><trkpt lat="41.2805824" lon="1.5534575"><ele>151.8</ele><time>2026-05-04T16:20:11.5Z</time></trkpt><trkpt lat="41.2806803" lon="1.5534788"><ele>152.6</ele><time>2026-05-04T16:20:12.496Z</time></trkpt><trkpt lat="41.2807788" lon="1.553503"><ele>153.4</ele><time>2026-05-04T16:20:13.505Z</time></trkpt><trkpt lat="41.2808796" lon="1.5535252"><ele>154.2</ele><time>2026-05-04T16:20:14.504Z</time></trkpt><trkpt lat="41.2809799" lon="1.5535443"><ele>155.0</ele><time>2026-05-04T16:20:15.503Z</time></trkpt><trkpt lat="41.2810856" lon="1.5535644"><ele>155.0</ele><time>2026-05-04T16:20:16.499Z</time></trkpt><trkpt lat="41.2811895" lon="1.553583"><ele>155.0</ele><time>2026-05-04T16:20:17.498Z</time></trkpt><trkpt lat="41.2812988" lon="1.5536004"><ele>155.0</ele><time>2026-05-04T16:20:18.504Z</time></trkpt><trkpt lat="41.2814098" lon="1.5536163"><ele>155.0</ele><time>2026-05-04T16:20:19.5Z</time></trkpt><trkpt lat="41.2815232" lon="1.5536329"><ele>155.0</ele><time>2026-05-04T16:20:20.503Z</time></trkpt><trkpt lat="41.2816362" lon="1.5536614"><ele>156.25</ele><time>2026-05-04T16:20:21.505Z</time></trkpt><trkpt lat="41.2817484" lon="1.5536933"><ele>157.5</ele><time>2026-05-04T16:20:22.499Z</time></trkpt><trkpt lat="41.2818616" lon="1.5537275"><ele>158.75</ele><time>2026-05-04T16:20:23.494Z</time></trkpt><trkpt lat="41.2819741" lon="1.5537652"><ele>160.0</ele><time>2026-05-04T16:20:24.505Z</time></trkpt><trkpt lat="41.282087" lon="1.5538027"><ele>160.0</ele><time>2026-05-04T16:20:25.507Z</time></trkpt><trkpt lat="41.2821974" lon="1.5538419"><ele>160.0</ele><time>2026-05-04T16:20:26.495Z</time></trkpt><trkpt lat="41.2823056" lon="1.553881"><ele>160.0</ele><time>2026-05-04T16:20:27.497Z</time></trkpt><trkpt lat="41.2824192" lon="1.5539149"><ele>160.0</ele><time>2026-05-04T16:20:28.494Z</time></trkpt><trkpt lat="41.2825336" lon="1.5539479"><ele>160.5</ele><time>2026-05-04T16:20:29.498Z</time></trkpt><trkpt lat="41.2826497" lon="1.5539876"><ele>161.0</ele><time>2026-05-04T16:20:30.498Z</time></trkpt><trkpt lat="41.2827704" lon="1.5540332"><ele>161.5</ele><time>2026-05-04T16:20:31.494Z</time></trkpt><trkpt lat="41.2828958" lon="1.5540755"><ele>162.0</ele><time>2026-05-04T16:20:32.489Z</time></trkpt><trkpt lat="41.2830354" lon="1.5541136"><ele>160.66666666666666</ele><time>2026-05-04T16:20:33.489Z</time></trkpt><trkpt lat="41.2831796" lon="1.5541603"><ele>159.33333333333331</ele><time>2026-05-04T16:20:34.508Z</time></trkpt><trkpt lat="41.2833361" lon="1.5542105"><ele>158.0</ele><time>2026-05-04T16:20:35.498Z</time></trkpt><trkpt lat="41.2834975" lon="1.5542543"><ele>158.0</ele><time>2026-05-04T16:20:36.503Z</time></trkpt><trkpt lat="41.2836452" lon="1.5543003"><ele>158.0</ele><time>2026-05-04T16:20:37.501Z</time></trkpt><trkpt lat="41.283786" lon="1.554347"><ele>158.0</ele><time>2026-05-04T16:20:38.501Z</time></trkpt><trkpt lat="41.2839175" lon="1.554384"><ele>158.0</ele><time>2026-05-04T16:20:39.505Z</time></trkpt><trkpt lat="41.284048" lon="1.5544223"><ele>158.0</ele><time>2026-05-04T16:20:40.501Z</time></trkpt><trkpt lat="41.2841854" lon="1.5544614"><ele>158.0</ele><time>2026-05-04T16:20:41.506Z</time></trkpt><trkpt lat="41.284325" lon="1.5544988"><ele>158.0</ele><time>2026-05-04T16:20:42.508Z</time></trkpt><trkpt lat="41.2844633" lon="1.5545455"><ele>158.0</ele><time>2026-05-04T16:20:43.5Z</time></trkpt><trkpt lat="41.2846037" lon="1.5545916"><ele>157.75</ele><time>2026-05-04T16:20:44.499Z</time></trkpt><trkpt lat="41.2847445" lon="1.554639"><ele>157.5</ele><time>2026-05-04T16:20:45.498Z</time></trkpt><trkpt lat="41.2848807" lon="1.5546848"><ele>157.25</ele><time>2026-05-04T16:20:46.506Z</time></trkpt><trkpt lat="41.2850169" lon="1.5547255"><ele>157.0</ele><time>2026-05-04T16:20:47.499Z</time></trkpt><trkpt lat="41.2851544" lon="1.5547615"><ele>157.5</ele><time>2026-05-04T16:20:48.503Z</time></trkpt><trkpt lat="41.2852962" lon="1.5548043"><ele>158.0</ele><time>2026-05-04T16:20:49.501Z</time></trkpt><trkpt lat="41.2854277" lon="1.5548479"><ele>158.5</ele><time>2026-05-04T16:20:50.502Z</time></trkpt><trkpt lat="41.2855402" lon="1.5548928"><ele>159.0</ele><time>2026-05-04T16:20:51.51Z</time></trkpt><trkpt lat="41.2856371" lon="1.5549388"><ele>159.6</ele><time>2026-05-04T16:20:52.498Z</time></trkpt><trkpt lat="41.2857269" lon="1.5550062"><ele>160.2</ele><time>2026-05-04T16:20:53.497Z</time></trkpt><trkpt lat="41.2858135" lon="1.5550927"><ele>160.79999999999998</ele><time>2026-05-04T16:20:54.495Z</time></trkpt><trkpt lat="41.2858653" lon="1.5552074"><ele>161.4</ele><time>2026-05-04T16:20:55.497Z</time></trkpt><trkpt lat="41.2858921" lon="1.5553509"><ele>162.0</ele><time>2026-05-04T16:20:56.503Z</time></trkpt><trkpt lat="41.2858925" lon="1.5555207"><ele>162.0</ele><time>2026-05-04T16:20:57.509Z</time></trkpt><trkpt lat="41.2858681" lon="1.5556875"><ele>162.0</ele><time>2026-05-04T16:20:58.495Z</time></trkpt><trkpt lat="41.2858468" lon="1.555852"><ele>162.0</ele><time>2026-05-04T16:20:59.5Z</time></trkpt><trkpt lat="41.2858249" lon="1.556027"><ele>162.0</ele><time>2026-05-04T16:21:00.511Z</time></trkpt><trkpt lat="41.2857991" lon="1.5562086"><ele>162.25</ele><time>2026-05-04T16:21:01.503Z</time></trkpt><trkpt lat="41.2857724" lon="1.5563929"><ele>162.5</ele><time>2026-05-04T16:21:02.504Z</time></trkpt><trkpt lat="41.2857431" lon="1.5565813"><ele>162.75</ele><time>2026-05-04T16:21:03.509Z</time></trkpt><trkpt lat="41.2857189" lon="1.556766"><ele>163.0</ele><time>2026-05-04T16:21:04.503Z</time></trkpt><trkpt lat="41.2857023" lon="1.5569358"><ele>163.25</ele><time>2026-05-04T16:21:05.512Z</time></trkpt><trkpt lat="41.2856793" lon="1.5571089"><ele>163.5</ele><time>2026-05-04T16:21:06.501Z</time></trkpt><trkpt lat="41.2856609" lon="1.5572942"><ele>163.75</ele><time>2026-05-04T16:21:07.506Z</time></trkpt><trkpt lat="41.2856478" lon="1.5574789"><ele>164.0</ele><time>2026-05-04T16:21:08.503Z</time></trkpt><trkpt lat="41.2856291" lon="1.5576599"><ele>164.0</ele><time>2026-05-04T16:21:09.504Z</time></trkpt><trkpt lat="41.2856167" lon="1.5578462"><ele>164.0</ele><time>2026-05-04T16:21:10.51Z</time></trkpt><trkpt lat="41.2855952" lon="1.5580305"><ele>164.0</ele><time>2026-05-04T16:21:11.497Z</time></trkpt><trkpt lat="41.2855871" lon="1.5582146"><ele>164.0</ele><time>2026-05-04T16:21:12.503Z</time></trkpt><trkpt lat="41.2855753" lon="1.5584033"><ele>163.0</ele><time>2026-05-04T16:21:13.508Z</time></trkpt><trkpt lat="41.2855618" lon="1.5585937"><ele>162.0</ele><time>2026-05-04T16:21:14.501Z</time></trkpt><trkpt lat="41.2855476" lon="1.5587721"><ele>161.0</ele><time>2026-05-04T16:21:15.503Z</time></trkpt><trkpt lat="41.2855384" lon="1.5589517"><ele>160.0</ele><time>2026-05-04T16:21:16.507Z</time></trkpt><trkpt lat="41.2855235" lon="1.5591255"><ele>160.0</ele><time>2026-05-04T16:21:17.503Z</time></trkpt><trkpt lat="41.2855117" lon="1.559289"><ele>160.0</ele><time>2026-05-04T16:21:18.501Z</time></trkpt><trkpt lat="41.2854939" lon="1.55944"><ele>160.0</ele><time>2026-05-04T16:21:19.505Z</time></trkpt><trkpt lat="41.2854748" lon="1.5595858"><ele>160.0</ele><time>2026-05-04T16:21:20.502Z</time></trkpt><trkpt lat="41.2854652" lon="1.5597116"><ele>160.0</ele><time>2026-05-04T16:21:21.506Z</time></trkpt><trkpt lat="41.2854647" lon="1.5598351"><ele>160.6</ele><time>2026-05-04T16:21:22.505Z</time></trkpt><trkpt lat="41.2854608" lon="1.5599602"><ele>161.2</ele><time>2026-05-04T16:21:23.502Z</time></trkpt><trkpt lat="41.2854516" lon="1.5600878"><ele>161.8</ele><time>2026-05-04T16:21:24.505Z</time></trkpt><trkpt lat="41.2854419" lon="1.5602059"><ele>162.4</ele><time>2026-05-04T16:21:25.506Z</time></trkpt><trkpt lat="41.2854332" lon="1.5603266"><ele>163.0</ele><time>2026-05-04T16:21:26.499Z</time></trkpt><trkpt lat="41.2854161" lon="1.5604469"><ele>163.4</ele><time>2026-05-04T16:21:27.498Z</time></trkpt><trkpt lat="41.2853862" lon="1.5605624"><ele>163.8</ele><time>2026-05-04T16:21:28.499Z</time></trkpt><trkpt lat="41.2853455" lon="1.5606668"><ele>164.2</ele><time>2026-05-04T16:21:29.503Z</time></trkpt><trkpt lat="41.285318" lon="1.560779"><ele>164.6</ele><time>2026-05-04T16:21:30.498Z</time></trkpt><trkpt lat="41.285308" lon="1.5609002"><ele>165.0</ele><time>2026-05-04T16:21:31.506Z</time></trkpt><trkpt lat="41.2853248" lon="1.5610281"><ele>165.0</ele><time>2026-05-04T16:21:32.5Z</time></trkpt><trkpt lat="41.285368" lon="1.56117"><ele>165.0</ele><time>2026-05-04T16:21:33.502Z</time></trkpt><trkpt lat="41.2853883" lon="1.5613265"><ele>165.0</ele><time>2026-05-04T16:21:34.502Z</time></trkpt><trkpt lat="41.2853774" lon="1.5614942"><ele>165.0</ele><time>2026-05-04T16:21:35.503Z</time></trkpt><trkpt lat="41.2853473" lon="1.5616679"><ele>165.0</ele><time>2026-05-04T16:21:36.511Z</time></trkpt><trkpt lat="41.2853151" lon="1.5618527"><ele>165.0</ele><time>2026-05-04T16:21:37.502Z</time></trkpt><trkpt lat="41.2852885" lon="1.5620483"><ele>165.0</ele><time>2026-05-04T16:21:38.5Z</time></trkpt><trkpt lat="41.2852577" lon="1.5622482"><ele>165.0</ele><time>2026-05-04T16:21:39.504Z</time></trkpt><trkpt lat="41.2852251" lon="1.562445"><ele>165.0</ele><time>2026-05-04T16:21:40.503Z</time></trkpt><trkpt lat="41.285193" lon="1.5626395"><ele>165.0</ele><time>2026-05-04T16:21:41.504Z</time></trkpt><trkpt lat="41.2851579" lon="1.5628413"><ele>165.0</ele><time>2026-05-04T16:21:42.507Z</time></trkpt><trkpt lat="41.2851258" lon="1.5630341"><ele>165.66666666666666</ele><time>2026-05-04T16:21:43.506Z</time></trkpt><trkpt lat="41.2850887" lon="1.5632345"><ele>166.33333333333331</ele><time>2026-05-04T16:21:44.504Z</time></trkpt><trkpt lat="41.2850547" lon="1.5634351"><ele>167.0</ele><time>2026-05-04T16:21:45.504Z</time></trkpt><trkpt lat="41.285021" lon="1.563638"><ele>167.33333333333331</ele><time>2026-05-04T16:21:46.503Z</time></trkpt><trkpt lat="41.2849947" lon="1.5638377"><ele>167.66666666666666</ele><time>2026-05-04T16:21:47.501Z</time></trkpt><trkpt lat="41.2849751" lon="1.564033"><ele>168.0</ele><time>2026-05-04T16:21:48.502Z</time></trkpt><trkpt lat="41.2849576" lon="1.5642303"><ele>168.0</ele><time>2026-05-04T16:21:49.506Z</time></trkpt><trkpt lat="41.2849335" lon="1.5644392"><ele>168.0</ele><time>2026-05-04T16:21:50.501Z</time></trkpt><trkpt lat="41.2849106" lon="1.5646597"><ele>168.0</ele><time>2026-05-04T16:21:51.504Z</time></trkpt><trkpt lat="41.2848982" lon="1.5648825"><ele>168.0</ele><time>2026-05-04T16:21:52.503Z</time></trkpt><trkpt lat="41.2848784" lon="1.5651081"><ele>168.0</ele><time>2026-05-04T16:21:53.504Z</time></trkpt><trkpt lat="41.2848566" lon="1.5653201"><ele>168.0</ele><time>2026-05-04T16:21:54.506Z</time></trkpt><trkpt lat="41.2848376" lon="1.5655235"><ele>167.0</ele><time>2026-05-04T16:21:55.508Z</time></trkpt><trkpt lat="41.2848238" lon="1.5657348"><ele>166.0</ele><time>2026-05-04T16:21:56.503Z</time></trkpt><trkpt lat="41.2848108" lon="1.5659374"><ele>165.0</ele><time>2026-05-04T16:21:57.503Z</time></trkpt><trkpt lat="41.2847982" lon="1.56614"><ele>165.0</ele><time>2026-05-04T16:21:58.506Z</time></trkpt><trkpt lat="41.2847859" lon="1.5663387"><ele>165.0</ele><time>2026-05-04T16:21:59.504Z</time></trkpt><trkpt lat="41.2847765" lon="1.5665323"><ele>165.0</ele><time>2026-05-04T16:22:00.509Z</time></trkpt><trkpt lat="41.2847555" lon="1.5667213"><ele>165.0</ele><time>2026-05-04T16:22:01.509Z</time></trkpt><trkpt lat="41.2847397" lon="1.5669205"><ele>163.0</ele><time>2026-05-04T16:22:02.503Z</time></trkpt><trkpt lat="41.2847323" lon="1.5671251"><ele>161.0</ele><time>2026-05-04T16:22:03.505Z</time></trkpt><trkpt lat="41.2847132" lon="1.5673283"><ele>159.0</ele><time>2026-05-04T16:22:04.503Z</time></trkpt><trkpt lat="41.2846922" lon="1.5675186"><ele>159.0</ele><time>2026-05-04T16:22:05.505Z</time></trkpt><trkpt lat="41.2846743" lon="1.5677212"><ele>159.0</ele><time>2026-05-04T16:22:06.502Z</time></trkpt><trkpt lat="41.2846598" lon="1.5679208"><ele>159.0</ele><time>2026-05-04T16:22:07.514Z</time></trkpt><trkpt lat="41.2846379" lon="1.5681325"><ele>159.25</ele><time>2026-05-04T16:22:08.504Z</time></trkpt><trkpt lat="41.2846245" lon="1.5683179"><ele>159.5</ele><time>2026-05-04T16:22:09.504Z</time></trkpt><trkpt lat="41.284609" lon="1.5685121"><ele>159.75</ele><time>2026-05-04T16:22:10.504Z</time></trkpt><trkpt lat="41.2845938" lon="1.568681"><ele>160.0</ele><time>2026-05-04T16:22:11.504Z</time></trkpt><trkpt lat="41.2845781" lon="1.5688653"><ele>159.25</ele><time>2026-05-04T16:22:12.505Z</time></trkpt><trkpt lat="41.2845667" lon="1.5690479"><ele>158.5</ele><time>2026-05-04T16:22:13.504Z</time></trkpt><trkpt lat="41.2845543" lon="1.5692363"><ele>157.75</ele><time>2026-05-04T16:22:14.503Z</time></trkpt><trkpt lat="41.2845358" lon="1.5694296"><ele>157.0</ele><time>2026-05-04T16:22:15.5Z</time></trkpt><trkpt lat="41.284504" lon="1.5696334"><ele>156.33333333333334</ele><time>2026-05-04T16:22:16.503Z</time></trkpt><trkpt lat="41.2844754" lon="1.569843"><ele>155.66666666666666</ele><time>2026-05-04T16:22:17.504Z</time></trkpt><trkpt lat="41.2844528" lon="1.5700629"><ele>155.0</ele><time>2026-05-04T16:22:18.502Z</time></trkpt><trkpt lat="41.2844257" lon="1.5702886"><ele>154.66666666666666</ele><time>2026-05-04T16:22:19.506Z</time></trkpt><trkpt lat="41.2844031" lon="1.5705175"><ele>154.33333333333334</ele><time>2026-05-04T16:22:20.5Z</time></trkpt><trkpt lat="41.2843697" lon="1.5707532"><ele>154.0</ele><time>2026-05-04T16:22:21.502Z</time></trkpt><trkpt lat="41.2843414" lon="1.5709832"><ele>154.0</ele><time>2026-05-04T16:22:22.503Z</time></trkpt><trkpt lat="41.2843107" lon="1.571216"><ele>154.0</ele><time>2026-05-04T16:22:23.5Z</time></trkpt><trkpt lat="41.2842771" lon="1.571451"><ele>154.0</ele><time>2026-05-04T16:22:24.499Z</time></trkpt><trkpt lat="41.2842375" lon="1.5716967"><ele>154.0</ele><time>2026-05-04T16:22:25.502Z</time></trkpt><trkpt lat="41.2841933" lon="1.571939"><ele>154.0</ele><time>2026-05-04T16:22:26.499Z</time></trkpt><trkpt lat="41.2841509" lon="1.572178"><ele>154.0</ele><time>2026-05-04T16:22:27.497Z</time></trkpt><trkpt lat="41.2841072" lon="1.5724183"><ele>155.0</ele><time>2026-05-04T16:22:28.502Z</time></trkpt><trkpt lat="41.2840571" lon="1.5726642"><ele>156.0</ele><time>2026-05-04T16:22:29.498Z</time></trkpt><trkpt lat="41.2840082" lon="1.5729018"><ele>157.0</ele><time>2026-05-04T16:22:30.504Z</time></trkpt><trkpt lat="41.2839501" lon="1.5731358"><ele>156.66666666666669</ele><time>2026-05-04T16:22:31.497Z</time></trkpt><trkpt lat="41.2838887" lon="1.5733668"><ele>156.33333333333334</ele><time>2026-05-04T16:22:32.5Z</time></trkpt><trkpt lat="41.2838225" lon="1.5735965"><ele>156.0</ele><time>2026-05-04T16:22:33.499Z</time></trkpt><trkpt lat="41.2837558" lon="1.5738286"><ele>156.66666666666666</ele><time>2026-05-04T16:22:34.502Z</time></trkpt><trkpt lat="41.2836892" lon="1.5740576"><ele>157.33333333333331</ele><time>2026-05-04T16:22:35.499Z</time></trkpt><trkpt lat="41.2836201" lon="1.5742827"><ele>158.0</ele><time>2026-05-04T16:22:36.503Z</time></trkpt><trkpt lat="41.2835481" lon="1.574511"><ele>157.66666666666666</ele><time>2026-05-04T16:22:37.499Z</time></trkpt><trkpt lat="41.2834735" lon="1.5747347"><ele>157.33333333333334</ele><time>2026-05-04T16:22:38.509Z</time></trkpt><trkpt lat="41.2834026" lon="1.5749569"><ele>157.0</ele><time>2026-05-04T16:22:39.499Z</time></trkpt><trkpt lat="41.2833285" lon="1.5751782"><ele>157.33333333333334</ele><time>2026-05-04T16:22:40.502Z</time></trkpt><trkpt lat="41.2832502" lon="1.575405"><ele>157.66666666666666</ele><time>2026-05-04T16:22:41.499Z</time></trkpt><trkpt lat="41.2831724" lon="1.5756285"><ele>158.0</ele><time>2026-05-04T16:22:42.5Z</time></trkpt><trkpt lat="41.2830964" lon="1.5758412"><ele>158.0</ele><time>2026-05-04T16:22:43.502Z</time></trkpt><trkpt lat="41.283033" lon="1.5760686"><ele>158.0</ele><time>2026-05-04T16:22:44.497Z</time></trkpt><trkpt lat="41.2829553" lon="1.5763017"><ele>158.0</ele><time>2026-05-04T16:22:45.496Z</time></trkpt><trkpt lat="41.2828839" lon="1.5765122"><ele>158.0</ele><time>2026-05-04T16:22:46.492Z</time></trkpt><trkpt lat="41.2828174" lon="1.5767156"><ele>158.0</ele><time>2026-05-04T16:22:47.494Z</time></trkpt><trkpt lat="41.2827451" lon="1.5769243"><ele>158.0</ele><time>2026-05-04T16:22:48.497Z</time></trkpt><trkpt lat="41.2826693" lon="1.5771232"><ele>158.66666666666666</ele><time>2026-05-04T16:22:49.494Z</time></trkpt><trkpt lat="41.2825943" lon="1.5773261"><ele>159.33333333333334</ele><time>2026-05-04T16:22:50.494Z</time></trkpt><trkpt lat="41.2825294" lon="1.5775293"><ele>160.0</ele><time>2026-05-04T16:22:51.497Z</time></trkpt><trkpt lat="41.2824597" lon="1.5777267"><ele>160.33333333333334</ele><time>2026-05-04T16:22:52.5Z</time></trkpt><trkpt lat="41.2823883" lon="1.577925"><ele>160.66666666666666</ele><time>2026-05-04T16:22:53.494Z</time></trkpt><trkpt lat="41.2823136" lon="1.5781271"><ele>161.0</ele><time>2026-05-04T16:22:54.496Z</time></trkpt><trkpt lat="41.2822547" lon="1.5783209"><ele>164.5</ele><time>2026-05-04T16:22:55.497Z</time></trkpt><trkpt lat="41.2821961" lon="1.5785128"><ele>168.0</ele><time>2026-05-04T16:22:56.495Z</time></trkpt><trkpt lat="41.2821347" lon="1.5786907"><ele>171.5</ele><time>2026-05-04T16:22:57.495Z</time></trkpt><trkpt lat="41.2820822" lon="1.5788511"><ele>175.0</ele><time>2026-05-04T16:22:58.496Z</time></trkpt><trkpt lat="41.2820277" lon="1.5790071"><ele>175.0</ele><time>2026-05-04T16:22:59.493Z</time></trkpt><trkpt lat="41.2819717" lon="1.5791641"><ele>175.0</ele><time>2026-05-04T16:23:00.496Z</time></trkpt><trkpt lat="41.281911" lon="1.5793173"><ele>175.0</ele><time>2026-05-04T16:23:01.489Z</time></trkpt><trkpt lat="41.2818543" lon="1.5794582"><ele>175.0</ele><time>2026-05-04T16:23:02.492Z</time></trkpt><trkpt lat="41.2817996" lon="1.5795927"><ele>173.6</ele><time>2026-05-04T16:23:03.494Z</time></trkpt><trkpt lat="41.2817463" lon="1.5797155"><ele>172.2</ele><time>2026-05-04T16:23:04.492Z</time></trkpt><trkpt lat="41.2816865" lon="1.5798352"><ele>170.8</ele><time>2026-05-04T16:23:05.497Z</time></trkpt><trkpt lat="41.2816216" lon="1.5799449"><ele>169.4</ele><time>2026-05-04T16:23:06.49Z</time></trkpt><trkpt lat="41.2815444" lon="1.5800292"><ele>168.0</ele><time>2026-05-04T16:23:07.49Z</time></trkpt><trkpt lat="41.2814619" lon="1.5800981"><ele>168.4</ele><time>2026-05-04T16:23:08.485Z</time></trkpt><trkpt lat="41.2814027" lon="1.5801828"><ele>168.8</ele><time>2026-05-04T16:23:09.521Z</time></trkpt><trkpt lat="41.2813526" lon="1.580292"><ele>169.2</ele><time>2026-05-04T16:23:10.495Z</time></trkpt><trkpt lat="41.2813279" lon="1.5804256"><ele>169.6</ele><time>2026-05-04T16:23:11.49Z</time></trkpt><trkpt lat="41.2812768" lon="1.5805683"><ele>170.0</ele><time>2026-05-04T16:23:12.497Z</time></trkpt><trkpt lat="41.2812112" lon="1.5807098"><ele>170.0</ele><time>2026-05-04T16:23:13.495Z</time></trkpt><trkpt lat="41.2811575" lon="1.5808538"><ele>170.0</ele><time>2026-05-04T16:23:14.494Z</time></trkpt><trkpt lat="41.2810822" lon="1.5810122"><ele>170.0</ele><time>2026-05-04T16:23:15.486Z</time></trkpt><trkpt lat="41.2810093" lon="1.5811583"><ele>170.0</ele><time>2026-05-04T16:23:16.496Z</time></trkpt><trkpt lat="41.2809366" lon="1.5813026"><ele>169.75</ele><time>2026-05-04T16:23:17.494Z</time></trkpt><trkpt lat="41.2808661" lon="1.5814458"><ele>169.5</ele><time>2026-05-04T16:23:18.496Z</time></trkpt><trkpt lat="41.280793" lon="1.5815758"><ele>169.25</ele><time>2026-05-04T16:23:19.495Z</time></trkpt><trkpt lat="41.2807245" lon="1.5817091"><ele>169.0</ele><time>2026-05-04T16:23:20.494Z</time></trkpt><trkpt lat="41.2806543" lon="1.5818407"><ele>169.25</ele><time>2026-05-04T16:23:21.501Z</time></trkpt><trkpt lat="41.2805844" lon="1.5819713"><ele>169.5</ele><time>2026-05-04T16:23:22.496Z</time></trkpt><trkpt lat="41.2805169" lon="1.582099"><ele>169.75</ele><time>2026-05-04T16:23:23.494Z</time></trkpt><trkpt lat="41.2804548" lon="1.5822289"><ele>170.0</ele><time>2026-05-04T16:23:24.491Z</time></trkpt><trkpt lat="41.2803933" lon="1.5823543"><ele>168.8</ele><time>2026-05-04T16:23:25.494Z</time></trkpt><trkpt lat="41.280329" lon="1.5824823"><ele>167.6</ele><time>2026-05-04T16:23:26.487Z</time></trkpt><trkpt lat="41.280273" lon="1.5826019"><ele>166.39999999999998</ele><time>2026-05-04T16:23:27.494Z</time></trkpt><trkpt lat="41.2802183" lon="1.5827228"><ele>165.2</ele><time>2026-05-04T16:23:28.493Z</time></trkpt><trkpt lat="41.2801611" lon="1.582838"><ele>164.0</ele><time>2026-05-04T16:23:29.491Z</time></trkpt><trkpt lat="41.2801073" lon="1.5829431"><ele>163.5</ele><time>2026-05-04T16:23:30.498Z</time></trkpt><trkpt lat="41.2800516" lon="1.5830437"><ele>163.0</ele><time>2026-05-04T16:23:31.491Z</time></trkpt><trkpt lat="41.2800072" lon="1.5831434"><ele>162.5</ele><time>2026-05-04T16:23:32.495Z</time></trkpt><trkpt lat="41.2799661" lon="1.5832376"><ele>162.0</ele><time>2026-05-04T16:23:33.492Z</time></trkpt><trkpt lat="41.2799264" lon="1.5833244"><ele>161.5</ele><time>2026-05-04T16:23:34.492Z</time></trkpt><trkpt lat="41.279891" lon="1.5833981"><ele>161.0</ele><time>2026-05-04T16:23:35.489Z</time></trkpt><trkpt lat="41.2798409" lon="1.5834996"><ele>161.0</ele><time>2026-05-04T16:23:37.487Z</time></trkpt><trkpt lat="41.2797837" lon="1.5835574"><ele>161.0</ele><time>2026-05-04T16:24:35.498Z</time></trkpt><trkpt lat="41.2797034" lon="1.5836986"><ele>161.0</ele><time>2026-05-04T16:24:37.5Z</time></trkpt><trkpt lat="41.279656" lon="1.5837808"><ele>161.0</ele><time>2026-05-04T16:24:38.494Z</time></trkpt><trkpt lat="41.2796045" lon="1.5838757"><ele>161.0</ele><time>2026-05-04T16:24:39.495Z</time></trkpt><trkpt lat="41.2795506" lon="1.5839808"><ele>160.4</ele><time>2026-05-04T16:24:40.5Z</time></trkpt><trkpt lat="41.2794968" lon="1.584083"><ele>159.8</ele><time>2026-05-04T16:24:41.508Z</time></trkpt><trkpt lat="41.2794422" lon="1.584193"><ele>159.20000000000002</ele><time>2026-05-04T16:24:42.493Z</time></trkpt><trkpt lat="41.2793826" lon="1.5843158"><ele>158.60000000000002</ele><time>2026-05-04T16:24:43.497Z</time></trkpt><trkpt lat="41.279324" lon="1.5844399"><ele>158.0</ele><time>2026-05-04T16:24:44.497Z</time></trkpt><trkpt lat="41.2792619" lon="1.5845703"><ele>158.0</ele><time>2026-05-04T16:24:45.5Z</time></trkpt><trkpt lat="41.2791968" lon="1.5847016"><ele>158.0</ele><time>2026-05-04T16:24:46.504Z</time></trkpt><trkpt lat="41.2791319" lon="1.5848339"><ele>158.0</ele><time>2026-05-04T16:24:47.505Z</time></trkpt><trkpt lat="41.2790604" lon="1.5849758"><ele>158.0</ele><time>2026-05-04T16:24:48.504Z</time></trkpt><trkpt lat="41.2789886" lon="1.5851276"><ele>158.25</ele><time>2026-05-04T16:24:49.503Z</time></trkpt><trkpt lat="41.2789147" lon="1.5852753"><ele>158.5</ele><time>2026-05-04T16:24:50.504Z</time></trkpt><trkpt lat="41.2788381" lon="1.5854217"><ele>158.75</ele><time>2026-05-04T16:24:51.506Z</time></trkpt><trkpt lat="41.2787651" lon="1.5855654"><ele>159.0</ele><time>2026-05-04T16:24:52.505Z</time></trkpt><trkpt lat="41.2786852" lon="1.5857112"><ele>158.5</ele><time>2026-05-04T16:24:53.504Z</time></trkpt><trkpt lat="41.2786083" lon="1.5858606"><ele>158.0</ele><time>2026-05-04T16:24:54.505Z</time></trkpt><trkpt lat="41.27853" lon="1.5860132"><ele>157.5</ele><time>2026-05-04T16:24:55.501Z</time></trkpt><trkpt lat="41.2784527" lon="1.5861612"><ele>157.0</ele><time>2026-05-04T16:24:56.496Z</time></trkpt><trkpt lat="41.2783773" lon="1.5863093"><ele>157.0</ele><time>2026-05-04T16:24:57.501Z</time></trkpt><trkpt lat="41.2783065" lon="1.5864497"><ele>157.0</ele><time>2026-05-04T16:24:58.496Z</time></trkpt><trkpt lat="41.278235" lon="1.5865938"><ele>157.0</ele><time>2026-05-04T16:24:59.501Z</time></trkpt><trkpt lat="41.2781674" lon="1.5867374"><ele>157.0</ele><time>2026-05-04T16:25:00.502Z</time></trkpt><trkpt lat="41.2780977" lon="1.5868717"><ele>157.0</ele><time>2026-05-04T16:25:01.498Z</time></trkpt><trkpt lat="41.2780343" lon="1.5869958"><ele>157.0</ele><time>2026-05-04T16:25:02.5Z</time></trkpt><trkpt lat="41.277974" lon="1.5871137"><ele>157.0</ele><time>2026-05-04T16:25:03.501Z</time></trkpt><trkpt lat="41.2779066" lon="1.5872133"><ele>157.0</ele><time>2026-05-04T16:25:04.5Z</time></trkpt><trkpt lat="41.2778257" lon="1.5872884"><ele>157.0</ele><time>2026-05-04T16:25:05.504Z</time></trkpt><trkpt lat="41.2777449" lon="1.5873589"><ele>157.0</ele><time>2026-05-04T16:25:06.503Z</time></trkpt><trkpt lat="41.2776778" lon="1.5874477"><ele>157.0</ele><time>2026-05-04T16:25:07.504Z</time></trkpt><trkpt lat="41.2776337" lon="1.587563"><ele>157.0</ele><time>2026-05-04T16:25:08.496Z</time></trkpt><trkpt lat="41.2776045" lon="1.5876966"><ele>157.0</ele><time>2026-05-04T16:25:09.493Z</time></trkpt><trkpt lat="41.2775821" lon="1.5878435"><ele>157.0</ele><time>2026-05-04T16:25:10.492Z</time></trkpt><trkpt lat="41.2775454" lon="1.5879928"><ele>157.5</ele><time>2026-05-04T16:25:11.496Z</time></trkpt><trkpt lat="41.2774824" lon="1.5881382"><ele>158.0</ele><time>2026-05-04T16:25:12.514Z</time></trkpt><trkpt lat="41.2774125" lon="1.5882832"><ele>158.5</ele><time>2026-05-04T16:25:13.501Z</time></trkpt><trkpt lat="41.2773404" lon="1.5884338"><ele>159.0</ele><time>2026-05-04T16:25:14.501Z</time></trkpt><trkpt lat="41.2772635" lon="1.5885932"><ele>156.66666666666666</ele><time>2026-05-04T16:25:15.489Z</time></trkpt><trkpt lat="41.2771816" lon="1.5887738"><ele>154.33333333333331</ele><time>2026-05-04T16:25:16.493Z</time></trkpt><trkpt lat="41.2770949" lon="1.5889514"><ele>152.0</ele><time>2026-05-04T16:25:17.494Z</time></trkpt><trkpt lat="41.2770123" lon="1.5891265"><ele>152.0</ele><time>2026-05-04T16:25:18.495Z</time></trkpt><trkpt lat="41.2769184" lon="1.5893066"><ele>152.0</ele><time>2026-05-04T16:25:19.502Z</time></trkpt><trkpt lat="41.2768159" lon="1.5894904"><ele>152.0</ele><time>2026-05-04T16:25:20.507Z</time></trkpt><trkpt lat="41.276713" lon="1.5896744"><ele>153.0</ele><time>2026-05-04T16:25:21.507Z</time></trkpt><trkpt lat="41.2766186" lon="1.5898586"><ele>154.0</ele><time>2026-05-04T16:25:22.504Z</time></trkpt><trkpt lat="41.2765253" lon="1.5900343"><ele>155.0</ele><time>2026-05-04T16:25:23.506Z</time></trkpt><trkpt lat="41.2764402" lon="1.5902192"><ele>154.33333333333331</ele><time>2026-05-04T16:25:24.504Z</time></trkpt><trkpt lat="41.2763446" lon="1.5904058"><ele>153.66666666666666</ele><time>2026-05-04T16:25:25.505Z</time></trkpt><trkpt lat="41.2762475" lon="1.5905934"><ele>153.0</ele><time>2026-05-04T16:25:26.507Z</time></trkpt><trkpt lat="41.2761532" lon="1.5907713"><ele>153.0</ele><time>2026-05-04T16:25:27.509Z</time></trkpt><trkpt lat="41.2760596" lon="1.5909462"><ele>153.0</ele><time>2026-05-04T16:25:28.506Z</time></trkpt><trkpt lat="41.2759689" lon="1.5911209"><ele>153.0</ele><time>2026-05-04T16:25:29.5Z</time></trkpt><trkpt lat="41.2758924" lon="1.5912801"><ele>152.5</ele><time>2026-05-04T16:25:30.512Z</time></trkpt><trkpt lat="41.2758201" lon="1.5914411"><ele>152.0</ele><time>2026-05-04T16:25:31.499Z</time></trkpt><trkpt lat="41.2757488" lon="1.5915954"><ele>151.5</ele><time>2026-05-04T16:25:32.499Z</time></trkpt><trkpt lat="41.2756814" lon="1.5917462"><ele>151.0</ele><time>2026-05-04T16:25:33.499Z</time></trkpt><trkpt lat="41.2756164" lon="1.5918854"><ele>151.0</ele><time>2026-05-04T16:25:34.498Z</time></trkpt><trkpt lat="41.2755388" lon="1.5920329"><ele>151.0</ele><time>2026-05-04T16:25:35.499Z</time></trkpt><trkpt lat="41.2754566" lon="1.5921749"><ele>151.0</ele><time>2026-05-04T16:25:36.503Z</time></trkpt><trkpt lat="41.2753769" lon="1.592321"><ele>151.0</ele><time>2026-05-04T16:25:37.499Z</time></trkpt><trkpt lat="41.2752901" lon="1.5924823"><ele>151.0</ele><time>2026-05-04T16:25:38.504Z</time></trkpt><trkpt lat="41.2752108" lon="1.5926503"><ele>151.0</ele><time>2026-05-04T16:25:39.504Z</time></trkpt><trkpt lat="41.2751204" lon="1.5928215"><ele>151.0</ele><time>2026-05-04T16:25:40.502Z</time></trkpt><trkpt lat="41.2750366" lon="1.5929897"><ele>151.66666666666669</ele><time>2026-05-04T16:25:41.501Z</time></trkpt><trkpt lat="41.274945" lon="1.5931623"><ele>152.33333333333334</ele><time>2026-05-04T16:25:42.505Z</time></trkpt><trkpt lat="41.2748549" lon="1.5933406"><ele>153.0</ele><time>2026-05-04T16:25:43.517Z</time></trkpt><trkpt lat="41.2747677" lon="1.5935212"><ele>151.0</ele><time>2026-05-04T16:25:44.504Z</time></trkpt><trkpt lat="41.2746786" lon="1.5937003"><ele>149.0</ele><time>2026-05-04T16:25:45.503Z</time></trkpt><trkpt lat="41.2745887" lon="1.5938818"><ele>147.0</ele><time>2026-05-04T16:25:46.502Z</time></trkpt><trkpt lat="41.2744927" lon="1.5940612"><ele>147.0</ele><time>2026-05-04T16:25:47.501Z</time></trkpt><trkpt lat="41.2744046" lon="1.594238"><ele>147.0</ele><time>2026-05-04T16:25:48.504Z</time></trkpt><trkpt lat="41.2743218" lon="1.5944134"><ele>147.0</ele><time>2026-05-04T16:25:49.502Z</time></trkpt><trkpt lat="41.274236" lon="1.5945828"><ele>146.66666666666666</ele><time>2026-05-04T16:25:50.511Z</time></trkpt><trkpt lat="41.2741493" lon="1.5947479"><ele>146.33333333333331</ele><time>2026-05-04T16:25:51.508Z</time></trkpt><trkpt lat="41.2740676" lon="1.5949216"><ele>146.0</ele><time>2026-05-04T16:25:52.506Z</time></trkpt><trkpt lat="41.27398" lon="1.5950958"><ele>145.66666666666666</ele><time>2026-05-04T16:25:53.503Z</time></trkpt><trkpt lat="41.2738908" lon="1.5952712"><ele>145.33333333333334</ele><time>2026-05-04T16:25:54.506Z</time></trkpt><trkpt lat="41.273806" lon="1.5954512"><ele>145.0</ele><time>2026-05-04T16:25:55.507Z</time></trkpt><trkpt lat="41.27372" lon="1.595632"><ele>145.0</ele><time>2026-05-04T16:25:56.503Z</time></trkpt><trkpt lat="41.2736392" lon="1.5958059"><ele>145.0</ele><time>2026-05-04T16:25:57.505Z</time></trkpt><trkpt lat="41.2735545" lon="1.5959759"><ele>145.0</ele><time>2026-05-04T16:25:58.504Z</time></trkpt><trkpt lat="41.2734736" lon="1.5961457"><ele>144.75</ele><time>2026-05-04T16:25:59.503Z</time></trkpt><trkpt lat="41.2733909" lon="1.5963063"><ele>144.5</ele><time>2026-05-04T16:26:00.508Z</time></trkpt><trkpt lat="41.2733088" lon="1.5964686"><ele>144.25</ele><time>2026-05-04T16:26:01.504Z</time></trkpt><trkpt lat="41.2732292" lon="1.5966339"><ele>144.0</ele><time>2026-05-04T16:26:02.512Z</time></trkpt><trkpt lat="41.2731472" lon="1.5967995"><ele>144.5</ele><time>2026-05-04T16:26:03.51Z</time></trkpt><trkpt lat="41.2730678" lon="1.5969632"><ele>145.0</ele><time>2026-05-04T16:26:04.511Z</time></trkpt><trkpt lat="41.2729917" lon="1.5971287"><ele>145.5</ele><time>2026-05-04T16:26:05.513Z</time></trkpt><trkpt lat="41.2729152" lon="1.5972976"><ele>146.0</ele><time>2026-05-04T16:26:06.515Z</time></trkpt><trkpt lat="41.2728484" lon="1.5974569"><ele>146.0</ele><time>2026-05-04T16:26:07.515Z</time></trkpt><trkpt lat="41.2727855" lon="1.5976351"><ele>146.0</ele><time>2026-05-04T16:26:08.507Z</time></trkpt><trkpt lat="41.2727184" lon="1.5978009"><ele>146.0</ele><time>2026-05-04T16:26:09.516Z</time></trkpt><trkpt lat="41.27266" lon="1.5979737"><ele>146.0</ele><time>2026-05-04T16:26:10.514Z</time></trkpt><trkpt lat="41.2726113" lon="1.5981546"><ele>146.75</ele><time>2026-05-04T16:26:11.515Z</time></trkpt><trkpt lat="41.2725611" lon="1.5983232"><ele>147.5</ele><time>2026-05-04T16:26:12.515Z</time></trkpt><trkpt lat="41.2725103" lon="1.5984827"><ele>148.25</ele><time>2026-05-04T16:26:13.506Z</time></trkpt><trkpt lat="41.2724593" lon="1.5986398"><ele>149.0</ele><time>2026-05-04T16:26:14.519Z</time></trkpt><trkpt lat="41.2724109" lon="1.5987967"><ele>149.25</ele><time>2026-05-04T16:26:15.515Z</time></trkpt><trkpt lat="41.2723687" lon="1.5989513"><ele>149.5</ele><time>2026-05-04T16:26:16.51Z</time></trkpt><trkpt lat="41.2723195" lon="1.5991099"><ele>149.75</ele><time>2026-05-04T16:26:17.5Z</time></trkpt><trkpt lat="41.272271" lon="1.5992812"><ele>150.0</ele><time>2026-05-04T16:26:18.498Z</time></trkpt><trkpt lat="41.2722221" lon="1.5994523"><ele>152.0</ele><time>2026-05-04T16:26:19.503Z</time></trkpt><trkpt lat="41.2721752" lon="1.5996153"><ele>154.0</ele><time>2026-05-04T16:26:20.507Z</time></trkpt><trkpt lat="41.2721298" lon="1.5997778"><ele>156.0</ele><time>2026-05-04T16:26:21.509Z</time></trkpt><trkpt lat="41.2720813" lon="1.5999457"><ele>158.0</ele><time>2026-05-04T16:26:22.477Z</time></trkpt><trkpt lat="41.2720256" lon="1.600118"><ele>158.0</ele><time>2026-05-04T16:26:23.479Z</time></trkpt><trkpt lat="41.2719712" lon="1.6002931"><ele>158.0</ele><time>2026-05-04T16:26:24.472Z</time></trkpt><trkpt lat="41.2719198" lon="1.6004635"><ele>158.0</ele><time>2026-05-04T16:26:25.473Z</time></trkpt><trkpt lat="41.2718721" lon="1.6006365"><ele>158.0</ele><time>2026-05-04T16:26:26.468Z</time></trkpt><trkpt lat="41.2718221" lon="1.6008132"><ele>158.0</ele><time>2026-05-04T16:26:27.472Z</time></trkpt><trkpt lat="41.2717818" lon="1.6009541"><ele>158.0</ele><time>2026-05-04T16:26:28.469Z</time></trkpt><trkpt lat="41.2717421" lon="1.6010877"><ele>158.0</ele><time>2026-05-04T16:26:29.466Z</time></trkpt><trkpt lat="41.2717001" lon="1.6012128"><ele>158.0</ele><time>2026-05-04T16:26:30.466Z</time></trkpt><trkpt lat="41.2716604" lon="1.6013126"><ele>158.0</ele><time>2026-05-04T16:26:31.461Z</time></trkpt><trkpt lat="41.2716113" lon="1.6014118"><ele>158.0</ele><time>2026-05-04T16:26:32.459Z</time></trkpt><trkpt lat="41.2715484" lon="1.6015032"><ele>158.0</ele><time>2026-05-04T16:26:33.465Z</time></trkpt><trkpt lat="41.2714785" lon="1.6015791"><ele>158.0</ele><time>2026-05-04T16:26:34.46Z</time></trkpt><trkpt lat="41.2714259" lon="1.6016595"><ele>158.0</ele><time>2026-05-04T16:26:35.465Z</time></trkpt><trkpt lat="41.2713991" lon="1.6017619"><ele>158.0</ele><time>2026-05-04T16:26:36.468Z</time></trkpt><trkpt lat="41.2714094" lon="1.6018816"><ele>158.0</ele><time>2026-05-04T16:26:37.453Z</time></trkpt><trkpt lat="41.2714449" lon="1.6020005"><ele>157.75</ele><time>2026-05-04T16:26:38.462Z</time></trkpt><trkpt lat="41.2714667" lon="1.6021403"><ele>157.5</ele><time>2026-05-04T16:26:39.466Z</time></trkpt><trkpt lat="41.2714502" lon="1.6022877"><ele>157.25</ele><time>2026-05-04T16:26:40.467Z</time></trkpt><trkpt lat="41.271391" lon="1.6024394"><ele>157.0</ele><time>2026-05-04T16:26:41.461Z</time></trkpt><trkpt lat="41.2713144" lon="1.6025871"><ele>157.0</ele><time>2026-05-04T16:26:42.464Z</time></trkpt><trkpt lat="41.2712332" lon="1.6027389"><ele>157.0</ele><time>2026-05-04T16:26:43.467Z</time></trkpt><trkpt lat="41.2711488" lon="1.6028936"><ele>157.0</ele><time>2026-05-04T16:26:44.465Z</time></trkpt><trkpt lat="41.2710565" lon="1.6030527"><ele>157.0</ele><time>2026-05-04T16:26:45.477Z</time></trkpt><trkpt lat="41.2709669" lon="1.6032143"><ele>157.0</ele><time>2026-05-04T16:26:46.465Z</time></trkpt><trkpt lat="41.2708752" lon="1.6033865"><ele>157.0</ele><time>2026-05-04T16:26:47.465Z</time></trkpt><trkpt lat="41.2707852" lon="1.6035651"><ele>157.0</ele><time>2026-05-04T16:26:48.466Z</time></trkpt><trkpt lat="41.2706953" lon="1.6037424"><ele>157.0</ele><time>2026-05-04T16:26:49.467Z</time></trkpt><trkpt lat="41.2706044" lon="1.6039176"><ele>157.0</ele><time>2026-05-04T16:26:50.471Z</time></trkpt><trkpt lat="41.2705143" lon="1.6040969"><ele>157.0</ele><time>2026-05-04T16:26:51.475Z</time></trkpt><trkpt lat="41.2704308" lon="1.6042651"><ele>157.0</ele><time>2026-05-04T16:26:52.476Z</time></trkpt><trkpt lat="41.2703561" lon="1.6044301"><ele>157.0</ele><time>2026-05-04T16:26:53.471Z</time></trkpt><trkpt lat="41.2702826" lon="1.6045799"><ele>157.0</ele><time>2026-05-04T16:26:54.474Z</time></trkpt><trkpt lat="41.2702156" lon="1.6047095"><ele>157.0</ele><time>2026-05-04T16:26:55.469Z</time></trkpt><trkpt lat="41.2701481" lon="1.6048228"><ele>156.0</ele><time>2026-05-04T16:26:56.47Z</time></trkpt><trkpt lat="41.2700988" lon="1.6048999"><ele>155.0</ele><time>2026-05-04T16:26:57.467Z</time></trkpt><trkpt lat="41.2700565" lon="1.6050064"><ele>154.0</ele><time>2026-05-04T16:27:32.478Z</time></trkpt><trkpt lat="41.2699848" lon="1.6051285"><ele>153.0</ele><time>2026-05-04T16:27:34.468Z</time></trkpt><trkpt lat="41.2699364" lon="1.6052043"><ele>152.0</ele><time>2026-05-04T16:27:35.468Z</time></trkpt><trkpt lat="41.2698807" lon="1.6052951"><ele>151.0</ele><time>2026-05-04T16:27:36.469Z</time></trkpt><trkpt lat="41.2698113" lon="1.6053877"><ele>151.6</ele><time>2026-05-04T16:27:37.471Z</time></trkpt><trkpt lat="41.2697505" lon="1.6054943"><ele>152.2</ele><time>2026-05-04T16:27:38.47Z</time></trkpt><trkpt lat="41.2697023" lon="1.6056224"><ele>152.8</ele><time>2026-05-04T16:27:39.467Z</time></trkpt><trkpt lat="41.269657" lon="1.6057608"><ele>153.4</ele><time>2026-05-04T16:27:40.471Z</time></trkpt><trkpt lat="41.2695976" lon="1.6059083"><ele>154.0</ele><time>2026-05-04T16:27:41.47Z</time></trkpt><trkpt lat="41.2695255" lon="1.6060523"><ele>153.25</ele><time>2026-05-04T16:27:42.475Z</time></trkpt><trkpt lat="41.2694467" lon="1.6062014"><ele>152.5</ele><time>2026-05-04T16:27:43.476Z</time></trkpt><trkpt lat="41.2693693" lon="1.6063502"><ele>151.75</ele><time>2026-05-04T16:27:44.471Z</time></trkpt><trkpt lat="41.2692928" lon="1.6064995"><ele>151.0</ele><time>2026-05-04T16:27:45.47Z</time></trkpt><trkpt lat="41.2692165" lon="1.6066429"><ele>151.0</ele><time>2026-05-04T16:27:46.478Z</time></trkpt><trkpt lat="41.2691397" lon="1.6067796"><ele>151.0</ele><time>2026-05-04T16:27:47.491Z</time></trkpt><trkpt lat="41.2690565" lon="1.6069043"><ele>151.0</ele><time>2026-05-04T16:27:48.475Z</time></trkpt><trkpt lat="41.2689814" lon="1.607014"><ele>151.0</ele><time>2026-05-04T16:27:49.473Z</time></trkpt><trkpt lat="41.2689089" lon="1.6070917"><ele>150.5</ele><time>2026-05-04T16:27:50.476Z</time></trkpt><trkpt lat="41.2688389" lon="1.6071418"><ele>150.0</ele><time>2026-05-04T16:27:51.478Z</time></trkpt><trkpt lat="41.2687755" lon="1.6071807"><ele>149.5</ele><time>2026-05-04T16:27:52.478Z</time></trkpt><trkpt lat="41.268715" lon="1.6072268"><ele>149.0</ele><time>2026-05-04T16:27:53.474Z</time></trkpt><trkpt lat="41.2686657" lon="1.6072841"><ele>148.5</ele><time>2026-05-04T16:27:54.477Z</time></trkpt><trkpt lat="41.2686316" lon="1.6073555"><ele>148.0</ele><time>2026-05-04T16:27:55.481Z</time></trkpt><trkpt lat="41.2686563" lon="1.6075157"><ele>148.0</ele><time>2026-05-04T16:27:57.483Z</time></trkpt><trkpt lat="41.2687139" lon="1.6075956"><ele>148.0</ele><time>2026-05-04T16:27:58.477Z</time></trkpt><trkpt lat="41.2687982" lon="1.6076521"><ele>148.0</ele><time>2026-05-04T16:27:59.48Z</time></trkpt><trkpt lat="41.2689098" lon="1.6076665"><ele>148.0</ele><time>2026-05-04T16:28:00.475Z</time></trkpt><trkpt lat="41.2690285" lon="1.6076492"><ele>148.0</ele><time>2026-05-04T16:28:01.474Z</time></trkpt><trkpt lat="41.2691626" lon="1.6076381"><ele>148.0</ele><time>2026-05-04T16:28:02.483Z</time></trkpt><trkpt lat="41.2693054" lon="1.6076585"><ele>148.0</ele><time>2026-05-04T16:28:03.481Z</time></trkpt><trkpt lat="41.2694532" lon="1.6077156"><ele>148.0</ele><time>2026-05-04T16:28:04.467Z</time></trkpt><trkpt lat="41.2696072" lon="1.607794"><ele>145.66666666666669</ele><time>2026-05-04T16:28:05.478Z</time></trkpt><trkpt lat="41.2697803" lon="1.6078857"><ele>143.33333333333334</ele><time>2026-05-04T16:28:06.473Z</time></trkpt><trkpt lat="41.2699712" lon="1.6079826"><ele>141.0</ele><time>2026-05-04T16:28:07.477Z</time></trkpt><trkpt lat="41.2701664" lon="1.6080809"><ele>141.0</ele><time>2026-05-04T16:28:08.478Z</time></trkpt><trkpt lat="41.2703683" lon="1.6081754"><ele>141.0</ele><time>2026-05-04T16:28:09.48Z</time></trkpt><trkpt lat="41.2705732" lon="1.6082743"><ele>141.0</ele><time>2026-05-04T16:28:10.479Z</time></trkpt><trkpt lat="41.2707747" lon="1.6083715"><ele>140.0</ele><time>2026-05-04T16:28:11.481Z</time></trkpt><trkpt lat="41.2709693" lon="1.6084786"><ele>139.0</ele><time>2026-05-04T16:28:12.481Z</time></trkpt><trkpt lat="41.2711677" lon="1.6085814"><ele>138.0</ele><time>2026-05-04T16:28:13.481Z</time></trkpt><trkpt lat="41.271373" lon="1.6086874"><ele>135.5</ele><time>2026-05-04T16:28:14.484Z</time></trkpt><trkpt lat="41.2715936" lon="1.6087973"><ele>133.0</ele><time>2026-05-04T16:28:15.481Z</time></trkpt><trkpt lat="41.2718001" lon="1.6089099"><ele>133.0</ele><time>2026-05-04T16:28:16.478Z</time></trkpt><trkpt lat="41.2720171" lon="1.6090218"><ele>133.0</ele><time>2026-05-04T16:28:17.494Z</time></trkpt><trkpt lat="41.2722282" lon="1.6091301"><ele>132.5</ele><time>2026-05-04T16:28:18.471Z</time></trkpt><trkpt lat="41.2724369" lon="1.6092429"><ele>132.0</ele><time>2026-05-04T16:28:19.484Z</time></trkpt><trkpt lat="41.2726505" lon="1.6093527"><ele>132.0</ele><time>2026-05-04T16:28:20.483Z</time></trkpt><trkpt lat="41.2728699" lon="1.6094647"><ele>132.0</ele><time>2026-05-04T16:28:21.487Z</time></trkpt><trkpt lat="41.273087" lon="1.6095771"><ele>133.0</ele><time>2026-05-04T16:28:22.483Z</time></trkpt><trkpt lat="41.2732959" lon="1.6096812"><ele>134.0</ele><time>2026-05-04T16:28:23.482Z</time></trkpt><trkpt lat="41.2735142" lon="1.609785"><ele>134.0</ele><time>2026-05-04T16:28:24.479Z</time></trkpt><trkpt lat="41.2737307" lon="1.6098909"><ele>134.0</ele><time>2026-05-04T16:28:25.482Z</time></trkpt><trkpt lat="41.2739488" lon="1.6100054"><ele>136.0</ele><time>2026-05-04T16:28:26.482Z</time></trkpt><trkpt lat="41.2741642" lon="1.6101204"><ele>138.0</ele><time>2026-05-04T16:28:27.485Z</time></trkpt><trkpt lat="41.2743818" lon="1.6102246"><ele>137.5</ele><time>2026-05-04T16:28:28.481Z</time></trkpt><trkpt lat="41.2745951" lon="1.6103316"><ele>137.0</ele><time>2026-05-04T16:28:29.483Z</time></trkpt><trkpt lat="41.2748055" lon="1.6104399"><ele>136.5</ele><time>2026-05-04T16:28:30.49Z</time></trkpt><trkpt lat="41.2750196" lon="1.6105526"><ele>136.0</ele><time>2026-05-04T16:28:31.485Z</time></trkpt><trkpt lat="41.2752355" lon="1.6106663"><ele>136.0</ele><time>2026-05-04T16:28:32.485Z</time></trkpt><trkpt lat="41.2754517" lon="1.6107827"><ele>136.0</ele><time>2026-05-04T16:28:33.484Z</time></trkpt><trkpt lat="41.2756662" lon="1.6108933"><ele>135.5</ele><time>2026-05-04T16:28:34.484Z</time></trkpt><trkpt lat="41.2758844" lon="1.6110064"><ele>135.0</ele><time>2026-05-04T16:28:35.485Z</time></trkpt><trkpt lat="41.2760968" lon="1.6111197"><ele>135.0</ele><time>2026-05-04T16:28:36.485Z</time></trkpt><trkpt lat="41.2763084" lon="1.6112282"><ele>135.0</ele><time>2026-05-04T16:28:37.485Z</time></trkpt><trkpt lat="41.2765147" lon="1.6113282"><ele>135.0</ele><time>2026-05-04T16:28:38.487Z</time></trkpt><trkpt lat="41.2767207" lon="1.6114286"><ele>135.0</ele><time>2026-05-04T16:28:39.484Z</time></trkpt><trkpt lat="41.2769302" lon="1.6115337"><ele>135.0</ele><time>2026-05-04T16:28:40.484Z</time></trkpt><trkpt lat="41.2771297" lon="1.6116362"><ele>135.0</ele><time>2026-05-04T16:28:41.486Z</time></trkpt><trkpt lat="41.2773261" lon="1.6117376"><ele>135.33333333333334</ele><time>2026-05-04T16:28:42.488Z</time></trkpt><trkpt lat="41.277517" lon="1.611832"><ele>135.66666666666669</ele><time>2026-05-04T16:28:43.488Z</time></trkpt><trkpt lat="41.2777201" lon="1.6119315"><ele>136.0</ele><time>2026-05-04T16:28:44.488Z</time></trkpt><trkpt lat="41.27792" lon="1.6120303"><ele>136.0</ele><time>2026-05-04T16:28:45.487Z</time></trkpt><trkpt lat="41.2781191" lon="1.6121307"><ele>136.0</ele><time>2026-05-04T16:28:46.492Z</time></trkpt><trkpt lat="41.2783065" lon="1.6122316"><ele>136.0</ele><time>2026-05-04T16:28:47.487Z</time></trkpt><trkpt lat="41.2784894" lon="1.612336"><ele>136.0</ele><time>2026-05-04T16:28:48.488Z</time></trkpt><trkpt lat="41.2786856" lon="1.6124403"><ele>136.0</ele><time>2026-05-04T16:28:49.493Z</time></trkpt><trkpt lat="41.2788815" lon="1.6125485"><ele>136.0</ele><time>2026-05-04T16:28:50.489Z</time></trkpt><trkpt lat="41.2790754" lon="1.6126537"><ele>136.33333333333334</ele><time>2026-05-04T16:28:51.493Z</time></trkpt><trkpt lat="41.2792695" lon="1.6127543"><ele>136.66666666666666</ele><time>2026-05-04T16:28:52.484Z</time></trkpt><trkpt lat="41.2794648" lon="1.6128557"><ele>137.0</ele><time>2026-05-04T16:28:53.484Z</time></trkpt><trkpt lat="41.2796596" lon="1.6129565"><ele>137.33333333333331</ele><time>2026-05-04T16:28:54.482Z</time></trkpt><trkpt lat="41.2798733" lon="1.6130584"><ele>137.66666666666666</ele><time>2026-05-04T16:28:55.488Z</time></trkpt><trkpt lat="41.2800728" lon="1.6131679"><ele>138.0</ele><time>2026-05-04T16:28:56.49Z</time></trkpt><trkpt lat="41.2802753" lon="1.6132757"><ele>138.0</ele><time>2026-05-04T16:28:57.493Z</time></trkpt><trkpt lat="41.2804788" lon="1.6133842"><ele>138.0</ele><time>2026-05-04T16:28:58.489Z</time></trkpt><trkpt lat="41.2806802" lon="1.613486"><ele>138.0</ele><time>2026-05-04T16:28:59.488Z</time></trkpt><trkpt lat="41.2808833" lon="1.6135881"><ele>138.66666666666666</ele><time>2026-05-04T16:29:00.493Z</time></trkpt><trkpt lat="41.2810887" lon="1.6136921"><ele>139.33333333333331</ele><time>2026-05-04T16:29:01.492Z</time></trkpt><trkpt lat="41.2812924" lon="1.6137933"><ele>140.0</ele><time>2026-05-04T16:29:02.49Z</time></trkpt><trkpt lat="41.2814963" lon="1.613899"><ele>140.0</ele><time>2026-05-04T16:29:03.492Z</time></trkpt><trkpt lat="41.2817058" lon="1.6139831"><ele>140.0</ele><time>2026-05-04T16:29:04.492Z</time></trkpt><trkpt lat="41.2819156" lon="1.6140607"><ele>140.0</ele><time>2026-05-04T16:29:05.496Z</time></trkpt><trkpt lat="41.2821204" lon="1.6141343"><ele>140.66666666666666</ele><time>2026-05-04T16:29:06.491Z</time></trkpt><trkpt lat="41.2823161" lon="1.6142114"><ele>141.33333333333334</ele><time>2026-05-04T16:29:07.489Z</time></trkpt><trkpt lat="41.2825095" lon="1.6143098"><ele>142.0</ele><time>2026-05-04T16:29:08.486Z</time></trkpt><trkpt lat="41.282703" lon="1.6144216"><ele>140.0</ele><time>2026-05-04T16:29:09.474Z</time></trkpt><trkpt lat="41.2828765" lon="1.6145622"><ele>138.0</ele><time>2026-05-04T16:29:10.489Z</time></trkpt><trkpt lat="41.28306" lon="1.6147"><ele>136.0</ele><time>2026-05-04T16:29:11.491Z</time></trkpt><trkpt lat="41.2833819" lon="1.6150695"><ele>136.0</ele><time>2026-05-04T16:29:13.491Z</time></trkpt><trkpt lat="41.2835359" lon="1.6152742"><ele>136.0</ele><time>2026-05-04T16:29:14.489Z</time></trkpt><trkpt lat="41.2836792" lon="1.6154723"><ele>136.0</ele><time>2026-05-04T16:29:15.484Z</time></trkpt><trkpt lat="41.2838378" lon="1.6156618"><ele>136.0</ele><time>2026-05-04T16:29:16.489Z</time></trkpt><trkpt lat="41.2840025" lon="1.6158518"><ele>136.0</ele><time>2026-05-04T16:29:17.493Z</time></trkpt><trkpt lat="41.2841634" lon="1.6160488"><ele>136.0</ele><time>2026-05-04T16:29:18.493Z</time></trkpt><trkpt lat="41.2843234" lon="1.6162398"><ele>136.0</ele><time>2026-05-04T16:29:19.503Z</time></trkpt><trkpt lat="41.2844716" lon="1.6164152"><ele>136.0</ele><time>2026-05-04T16:29:20.491Z</time></trkpt><trkpt lat="41.2846099" lon="1.6165912"><ele>136.0</ele><time>2026-05-04T16:29:21.495Z</time></trkpt><trkpt lat="41.2847473" lon="1.6167631"><ele>136.0</ele><time>2026-05-04T16:29:22.49Z</time></trkpt><trkpt lat="41.2848718" lon="1.6169207"><ele>136.0</ele><time>2026-05-04T16:29:23.492Z</time></trkpt><trkpt lat="41.2849918" lon="1.6170636"><ele>136.0</ele><time>2026-05-04T16:29:24.492Z</time></trkpt><trkpt lat="41.285109" lon="1.6171974"><ele>136.66666666666669</ele><time>2026-05-04T16:29:25.492Z</time></trkpt><trkpt lat="41.2852252" lon="1.6173373"><ele>137.33333333333334</ele><time>2026-05-04T16:29:26.493Z</time></trkpt><trkpt lat="41.285354" lon="1.6174707"><ele>138.0</ele><time>2026-05-04T16:29:27.499Z</time></trkpt><trkpt lat="41.2854886" lon="1.6176042"><ele>138.66666666666666</ele><time>2026-05-04T16:29:28.491Z</time></trkpt><trkpt lat="41.28563" lon="1.6177335"><ele>139.33333333333331</ele><time>2026-05-04T16:29:29.493Z</time></trkpt><trkpt lat="41.2857672" lon="1.6178679"><ele>140.0</ele><time>2026-05-04T16:29:30.498Z</time></trkpt><trkpt lat="41.2859087" lon="1.6180089"><ele>140.66666666666666</ele><time>2026-05-04T16:29:31.492Z</time></trkpt><trkpt lat="41.2860509" lon="1.6181429"><ele>141.33333333333334</ele><time>2026-05-04T16:29:32.49Z</time></trkpt><trkpt lat="41.2861969" lon="1.6182873"><ele>142.0</ele><time>2026-05-04T16:29:33.489Z</time></trkpt><trkpt lat="41.2863482" lon="1.618436"><ele>142.0</ele><time>2026-05-04T16:29:34.49Z</time></trkpt><trkpt lat="41.2864937" lon="1.6185688"><ele>142.0</ele><time>2026-05-04T16:29:35.492Z</time></trkpt><trkpt lat="41.286633" lon="1.6187102"><ele>142.0</ele><time>2026-05-04T16:29:36.493Z</time></trkpt><trkpt lat="41.2867714" lon="1.6188418"><ele>141.33333333333334</ele><time>2026-05-04T16:29:37.49Z</time></trkpt><trkpt lat="41.286897" lon="1.6189716"><ele>140.66666666666666</ele><time>2026-05-04T16:29:38.491Z</time></trkpt><trkpt lat="41.2870239" lon="1.6190975"><ele>140.0</ele><time>2026-05-04T16:29:39.492Z</time></trkpt><trkpt lat="41.2871528" lon="1.6192175"><ele>140.33333333333331</ele><time>2026-05-04T16:29:40.494Z</time></trkpt><trkpt lat="41.2872849" lon="1.6193552"><ele>140.66666666666666</ele><time>2026-05-04T16:29:41.493Z</time></trkpt><trkpt lat="41.2874145" lon="1.6194909"><ele>141.0</ele><time>2026-05-04T16:29:42.493Z</time></trkpt><trkpt lat="41.2875438" lon="1.6196229"><ele>141.66666666666666</ele><time>2026-05-04T16:29:43.496Z</time></trkpt><trkpt lat="41.2876849" lon="1.6197545"><ele>142.33333333333331</ele><time>2026-05-04T16:29:44.495Z</time></trkpt><trkpt lat="41.2878154" lon="1.6198903"><ele>143.0</ele><time>2026-05-04T16:29:45.498Z</time></trkpt><trkpt lat="41.2879511" lon="1.6200171"><ele>143.0</ele><time>2026-05-04T16:29:46.497Z</time></trkpt><trkpt lat="41.2880876" lon="1.6201489"><ele>143.0</ele><time>2026-05-04T16:29:47.498Z</time></trkpt><trkpt lat="41.2882284" lon="1.6202831"><ele>143.0</ele><time>2026-05-04T16:29:48.498Z</time></trkpt><trkpt lat="41.28836" lon="1.6204142"><ele>143.33333333333331</ele><time>2026-05-04T16:29:49.498Z</time></trkpt><trkpt lat="41.2884906" lon="1.6205466"><ele>143.66666666666666</ele><time>2026-05-04T16:29:50.509Z</time></trkpt><trkpt lat="41.2886261" lon="1.6206837"><ele>144.0</ele><time>2026-05-04T16:29:51.494Z</time></trkpt><trkpt lat="41.2887548" lon="1.6208168"><ele>144.0</ele><time>2026-05-04T16:29:52.496Z</time></trkpt><trkpt lat="41.2888845" lon="1.6209444"><ele>144.0</ele><time>2026-05-04T16:29:53.494Z</time></trkpt><trkpt lat="41.2890156" lon="1.6210678"><ele>144.0</ele><time>2026-05-04T16:29:54.496Z</time></trkpt><trkpt lat="41.2891482" lon="1.6211979"><ele>143.33333333333334</ele><time>2026-05-04T16:29:55.496Z</time></trkpt><trkpt lat="41.2892854" lon="1.6213267"><ele>142.66666666666669</ele><time>2026-05-04T16:29:56.492Z</time></trkpt><trkpt lat="41.2894142" lon="1.6214596"><ele>142.0</ele><time>2026-05-04T16:29:57.497Z</time></trkpt><trkpt lat="41.2895485" lon="1.6215886"><ele>142.0</ele><time>2026-05-04T16:29:58.498Z</time></trkpt><trkpt lat="41.28968" lon="1.621717"><ele>142.0</ele><time>2026-05-04T16:29:59.496Z</time></trkpt><trkpt lat="41.2898022" lon="1.6218403"><ele>142.0</ele><time>2026-05-04T16:30:00.497Z</time></trkpt><trkpt lat="41.2899345" lon="1.621965"><ele>143.0</ele><time>2026-05-04T16:30:01.494Z</time></trkpt><trkpt lat="41.2900652" lon="1.6220959"><ele>144.0</ele><time>2026-05-04T16:30:02.496Z</time></trkpt><trkpt lat="41.2901914" lon="1.6222216"><ele>145.0</ele><time>2026-05-04T16:30:03.497Z</time></trkpt><trkpt lat="41.2903183" lon="1.6223407"><ele>145.0</ele><time>2026-05-04T16:30:04.494Z</time></trkpt><trkpt lat="41.2904477" lon="1.6224763"><ele>145.0</ele><time>2026-05-04T16:30:05.492Z</time></trkpt><trkpt lat="41.2905757" lon="1.6226032"><ele>145.0</ele><time>2026-05-04T16:30:06.493Z</time></trkpt><trkpt lat="41.2907018" lon="1.6227296"><ele>147.0</ele><time>2026-05-04T16:30:07.491Z</time></trkpt><trkpt lat="41.2908313" lon="1.6228521"><ele>149.0</ele><time>2026-05-04T16:30:08.527Z</time></trkpt><trkpt lat="41.2909615" lon="1.6229776"><ele>151.0</ele><time>2026-05-04T16:30:09.49Z</time></trkpt><trkpt lat="41.2910908" lon="1.6231065"><ele>151.0</ele><time>2026-05-04T16:30:10.497Z</time></trkpt><trkpt lat="41.2912123" lon="1.6232378"><ele>151.0</ele><time>2026-05-04T16:30:11.492Z</time></trkpt><trkpt lat="41.2913383" lon="1.6233669"><ele>151.0</ele><time>2026-05-04T16:30:12.49Z</time></trkpt><trkpt lat="41.291467" lon="1.6234852"><ele>151.0</ele><time>2026-05-04T16:30:13.492Z</time></trkpt><trkpt lat="41.2915964" lon="1.623604"><ele>151.0</ele><time>2026-05-04T16:30:14.5Z</time></trkpt><trkpt lat="41.2917315" lon="1.6237237"><ele>151.0</ele><time>2026-05-04T16:30:15.496Z</time></trkpt><trkpt lat="41.2918701" lon="1.6238361"><ele>151.0</ele><time>2026-05-04T16:30:16.499Z</time></trkpt><trkpt lat="41.2920054" lon="1.6239468"><ele>151.0</ele><time>2026-05-04T16:30:17.494Z</time></trkpt><trkpt lat="41.2921409" lon="1.6240684"><ele>151.0</ele><time>2026-05-04T16:30:18.495Z</time></trkpt><trkpt lat="41.292282" lon="1.6241891"><ele>150.66666666666669</ele><time>2026-05-04T16:30:19.49Z</time></trkpt><trkpt lat="41.2924247" lon="1.624312"><ele>150.33333333333334</ele><time>2026-05-04T16:30:20.495Z</time></trkpt><trkpt lat="41.2925566" lon="1.6244373"><ele>150.0</ele><time>2026-05-04T16:30:21.514Z</time></trkpt><trkpt lat="41.2926929" lon="1.6245687"><ele>149.33333333333334</ele><time>2026-05-04T16:30:22.498Z</time></trkpt><trkpt lat="41.2928368" lon="1.6246831"><ele>148.66666666666669</ele><time>2026-05-04T16:30:23.493Z</time></trkpt><trkpt lat="41.2929759" lon="1.6248029"><ele>148.0</ele><time>2026-05-04T16:30:24.506Z</time></trkpt><trkpt lat="41.2931174" lon="1.6249188"><ele>147.66666666666669</ele><time>2026-05-04T16:30:25.495Z</time></trkpt><trkpt lat="41.2932452" lon="1.6250393"><ele>147.33333333333334</ele><time>2026-05-04T16:30:26.497Z</time></trkpt><trkpt lat="41.2933774" lon="1.6251638"><ele>147.0</ele><time>2026-05-04T16:30:27.497Z</time></trkpt><trkpt lat="41.2935289" lon="1.6252825"><ele>147.0</ele><time>2026-05-04T16:30:28.497Z</time></trkpt><trkpt lat="41.2936698" lon="1.6254044"><ele>147.0</ele><time>2026-05-04T16:30:29.495Z</time></trkpt><trkpt lat="41.2938098" lon="1.6255342"><ele>147.0</ele><time>2026-05-04T16:30:30.497Z</time></trkpt><trkpt lat="41.2939473" lon="1.6256751"><ele>147.0</ele><time>2026-05-04T16:30:31.49Z</time></trkpt><trkpt lat="41.29408" lon="1.625819"><ele>147.0</ele><time>2026-05-04T16:30:32.491Z</time></trkpt><trkpt lat="41.2941962" lon="1.6259644"><ele>147.0</ele><time>2026-05-04T16:30:33.492Z</time></trkpt><trkpt lat="41.2943264" lon="1.6261161"><ele>146.33333333333334</ele><time>2026-05-04T16:30:34.492Z</time></trkpt><trkpt lat="41.2944524" lon="1.6262733"><ele>145.66666666666669</ele><time>2026-05-04T16:30:35.489Z</time></trkpt><trkpt lat="41.2945743" lon="1.6264351"><ele>145.0</ele><time>2026-05-04T16:30:36.489Z</time></trkpt><trkpt lat="41.2946839" lon="1.6266085"><ele>146.0</ele><time>2026-05-04T16:30:37.489Z</time></trkpt><trkpt lat="41.2947914" lon="1.6267895"><ele>147.0</ele><time>2026-05-04T16:30:38.492Z</time></trkpt><trkpt lat="41.2948962" lon="1.626971"><ele>148.0</ele><time>2026-05-04T16:30:39.491Z</time></trkpt><trkpt lat="41.2949905" lon="1.6271526"><ele>148.0</ele><time>2026-05-04T16:30:40.491Z</time></trkpt><trkpt lat="41.2950864" lon="1.6273417"><ele>148.0</ele><time>2026-05-04T16:30:41.489Z</time></trkpt><trkpt lat="41.2951755" lon="1.6275419"><ele>148.0</ele><time>2026-05-04T16:30:42.489Z</time></trkpt><trkpt lat="41.295257" lon="1.6277346"><ele>147.66666666666669</ele><time>2026-05-04T16:30:43.494Z</time></trkpt><trkpt lat="41.2953307" lon="1.6279327"><ele>147.33333333333334</ele><time>2026-05-04T16:30:44.489Z</time></trkpt><trkpt lat="41.2953943" lon="1.6281407"><ele>147.0</ele><time>2026-05-04T16:30:45.486Z</time></trkpt><trkpt lat="41.2954627" lon="1.6283544"><ele>147.0</ele><time>2026-05-04T16:30:46.486Z</time></trkpt><trkpt lat="41.2955319" lon="1.628562"><ele>147.0</ele><time>2026-05-04T16:30:47.493Z</time></trkpt><trkpt lat="41.295599" lon="1.6287704"><ele>147.0</ele><time>2026-05-04T16:30:48.492Z</time></trkpt><trkpt lat="41.2956576" lon="1.6289772"><ele>147.0</ele><time>2026-05-04T16:30:49.492Z</time></trkpt><trkpt lat="41.2957222" lon="1.6291915"><ele>147.0</ele><time>2026-05-04T16:30:50.495Z</time></trkpt><trkpt lat="41.2957865" lon="1.6294131"><ele>147.0</ele><time>2026-05-04T16:30:51.5Z</time></trkpt><trkpt lat="41.2958447" lon="1.6296349"><ele>145.33333333333334</ele><time>2026-05-04T16:30:52.503Z</time></trkpt><trkpt lat="41.2959089" lon="1.6298662"><ele>143.66666666666669</ele><time>2026-05-04T16:30:53.493Z</time></trkpt><trkpt lat="41.2959735" lon="1.6300848"><ele>142.0</ele><time>2026-05-04T16:30:54.496Z</time></trkpt><trkpt lat="41.2960418" lon="1.630307"><ele>142.0</ele><time>2026-05-04T16:30:55.496Z</time></trkpt><trkpt lat="41.2961209" lon="1.6305209"><ele>142.0</ele><time>2026-05-04T16:30:56.494Z</time></trkpt><trkpt lat="41.2962065" lon="1.6307348"><ele>142.0</ele><time>2026-05-04T16:30:57.495Z</time></trkpt><trkpt lat="41.2962963" lon="1.6309502"><ele>143.0</ele><time>2026-05-04T16:30:58.495Z</time></trkpt><trkpt lat="41.2963983" lon="1.6311479"><ele>144.0</ele><time>2026-05-04T16:30:59.494Z</time></trkpt><trkpt lat="41.2965135" lon="1.6313453"><ele>145.0</ele><time>2026-05-04T16:31:00.495Z</time></trkpt><trkpt lat="41.2966333" lon="1.6315281"><ele>146.33333333333334</ele><time>2026-05-04T16:31:01.49Z</time></trkpt><trkpt lat="41.2967654" lon="1.6316947"><ele>147.66666666666666</ele><time>2026-05-04T16:31:02.493Z</time></trkpt><trkpt lat="41.2969072" lon="1.6318619"><ele>149.0</ele><time>2026-05-04T16:31:03.492Z</time></trkpt><trkpt lat="41.2970548" lon="1.6320138"><ele>150.0</ele><time>2026-05-04T16:31:04.494Z</time></trkpt><trkpt lat="41.2972042" lon="1.6321499"><ele>151.0</ele><time>2026-05-04T16:31:05.493Z</time></trkpt><trkpt lat="41.2973599" lon="1.6322765"><ele>152.0</ele><time>2026-05-04T16:31:06.494Z</time></trkpt><trkpt lat="41.2975254" lon="1.6323863"><ele>153.0</ele><time>2026-05-04T16:31:07.496Z</time></trkpt><trkpt lat="41.2976953" lon="1.6324888"><ele>154.0</ele><time>2026-05-04T16:31:08.497Z</time></trkpt><trkpt lat="41.2978747" lon="1.6325725"><ele>155.0</ele><time>2026-05-04T16:31:09.499Z</time></trkpt><trkpt lat="41.298052" lon="1.6326384"><ele>155.33333333333331</ele><time>2026-05-04T16:31:10.497Z</time></trkpt><trkpt lat="41.2982416" lon="1.6326989"><ele>155.66666666666666</ele><time>2026-05-04T16:31:11.495Z</time></trkpt><trkpt lat="41.2984208" lon="1.6327535"><ele>156.0</ele><time>2026-05-04T16:31:12.496Z</time></trkpt><trkpt lat="41.2985961" lon="1.6328107"><ele>155.66666666666666</ele><time>2026-05-04T16:31:13.493Z</time></trkpt><trkpt lat="41.298778" lon="1.6328606"><ele>155.33333333333331</ele><time>2026-05-04T16:31:14.499Z</time></trkpt><trkpt lat="41.2989732" lon="1.6329151"><ele>155.0</ele><time>2026-05-04T16:31:15.499Z</time></trkpt><trkpt lat="41.2991659" lon="1.632977"><ele>155.0</ele><time>2026-05-04T16:31:16.495Z</time></trkpt><trkpt lat="41.2993437" lon="1.6330466"><ele>155.0</ele><time>2026-05-04T16:31:17.497Z</time></trkpt><trkpt lat="41.2995321" lon="1.6331085"><ele>155.0</ele><time>2026-05-04T16:31:18.492Z</time></trkpt><trkpt lat="41.2997308" lon="1.6331615"><ele>156.0</ele><time>2026-05-04T16:31:19.493Z</time></trkpt><trkpt lat="41.2999157" lon="1.6332224"><ele>157.0</ele><time>2026-05-04T16:31:20.493Z</time></trkpt><trkpt lat="41.3001154" lon="1.6332832"><ele>158.0</ele><time>2026-05-04T16:31:21.503Z</time></trkpt><trkpt lat="41.3003048" lon="1.6333416"><ele>158.0</ele><time>2026-05-04T16:31:22.501Z</time></trkpt><trkpt lat="41.3004886" lon="1.6334022"><ele>158.0</ele><time>2026-05-04T16:31:23.505Z</time></trkpt><trkpt lat="41.3006696" lon="1.6334626"><ele>158.0</ele><time>2026-05-04T16:31:24.5Z</time></trkpt><trkpt lat="41.3008428" lon="1.6335188"><ele>158.33333333333331</ele><time>2026-05-04T16:31:25.499Z</time></trkpt><trkpt lat="41.3010187" lon="1.6335791"><ele>158.66666666666666</ele><time>2026-05-04T16:31:26.501Z</time></trkpt><trkpt lat="41.3011902" lon="1.6336411"><ele>159.0</ele><time>2026-05-04T16:31:27.5Z</time></trkpt><trkpt lat="41.3013681" lon="1.6337023"><ele>158.33333333333334</ele><time>2026-05-04T16:31:28.499Z</time></trkpt><trkpt lat="41.3015403" lon="1.6337587"><ele>157.66666666666669</ele><time>2026-05-04T16:31:29.499Z</time></trkpt><trkpt lat="41.3017143" lon="1.6338162"><ele>157.0</ele><time>2026-05-04T16:31:30.505Z</time></trkpt><trkpt lat="41.3018856" lon="1.6338788"><ele>157.0</ele><time>2026-05-04T16:31:31.497Z</time></trkpt><trkpt lat="41.3020585" lon="1.6339412"><ele>157.0</ele><time>2026-05-04T16:31:32.496Z</time></trkpt><trkpt lat="41.3022298" lon="1.6339975"><ele>157.0</ele><time>2026-05-04T16:31:33.495Z</time></trkpt><trkpt lat="41.3024011" lon="1.6340496"><ele>157.0</ele><time>2026-05-04T16:31:34.497Z</time></trkpt><trkpt lat="41.3025782" lon="1.6340975"><ele>157.0</ele><time>2026-05-04T16:31:35.494Z</time></trkpt><trkpt lat="41.302746" lon="1.6341376"><ele>157.0</ele><time>2026-05-04T16:31:36.496Z</time></trkpt><trkpt lat="41.3029102" lon="1.6341785"><ele>157.0</ele><time>2026-05-04T16:31:37.496Z</time></trkpt><trkpt lat="41.303078" lon="1.634215"><ele>157.0</ele><time>2026-05-04T16:31:38.496Z</time></trkpt><trkpt lat="41.3032468" lon="1.6342461"><ele>157.0</ele><time>2026-05-04T16:31:39.496Z</time></trkpt><trkpt lat="41.3034213" lon="1.634263"><ele>156.66666666666669</ele><time>2026-05-04T16:31:40.497Z</time></trkpt><trkpt lat="41.3035939" lon="1.6342804"><ele>156.33333333333334</ele><time>2026-05-04T16:31:41.495Z</time></trkpt><trkpt lat="41.3037694" lon="1.6342981"><ele>156.0</ele><time>2026-05-04T16:31:42.496Z</time></trkpt><trkpt lat="41.303942" lon="1.6343172"><ele>156.0</ele><time>2026-05-04T16:31:43.497Z</time></trkpt><trkpt lat="41.3041137" lon="1.6343441"><ele>156.0</ele><time>2026-05-04T16:31:44.496Z</time></trkpt><trkpt lat="41.3042839" lon="1.634376"><ele>156.0</ele><time>2026-05-04T16:31:45.495Z</time></trkpt><trkpt lat="41.3044532" lon="1.6344153"><ele>156.0</ele><time>2026-05-04T16:31:46.497Z</time></trkpt><trkpt lat="41.3046247" lon="1.634441"><ele>156.0</ele><time>2026-05-04T16:31:47.492Z</time></trkpt><trkpt lat="41.3047892" lon="1.6344761"><ele>156.0</ele><time>2026-05-04T16:31:48.497Z</time></trkpt><trkpt lat="41.3049569" lon="1.6345047"><ele>154.66666666666666</ele><time>2026-05-04T16:31:49.491Z</time></trkpt><trkpt lat="41.3051207" lon="1.6345371"><ele>153.33333333333331</ele><time>2026-05-04T16:31:50.493Z</time></trkpt><trkpt lat="41.3052849" lon="1.6345786"><ele>152.0</ele><time>2026-05-04T16:31:51.499Z</time></trkpt><trkpt lat="41.3054414" lon="1.6346283"><ele>151.0</ele><time>2026-05-04T16:31:52.495Z</time></trkpt><trkpt lat="41.3055972" lon="1.6346903"><ele>150.0</ele><time>2026-05-04T16:31:53.497Z</time></trkpt><trkpt lat="41.3057516" lon="1.6347594"><ele>149.0</ele><time>2026-05-04T16:31:54.509Z</time></trkpt><trkpt lat="41.3059015" lon="1.6348226"><ele>149.0</ele><time>2026-05-04T16:31:55.496Z</time></trkpt><trkpt lat="41.3060538" lon="1.6348899"><ele>149.0</ele><time>2026-05-04T16:31:56.494Z</time></trkpt><trkpt lat="41.3062054" lon="1.634967"><ele>149.0</ele><time>2026-05-04T16:31:57.498Z</time></trkpt><trkpt lat="41.3063573" lon="1.6350483"><ele>148.33333333333331</ele><time>2026-05-04T16:31:58.501Z</time></trkpt><trkpt lat="41.3065032" lon="1.6351301"><ele>147.66666666666666</ele><time>2026-05-04T16:31:59.506Z</time></trkpt><trkpt lat="41.3066414" lon="1.6352174"><ele>147.0</ele><time>2026-05-04T16:32:00.507Z</time></trkpt><trkpt lat="41.3067818" lon="1.6353087"><ele>147.0</ele><time>2026-05-04T16:32:01.504Z</time></trkpt><trkpt lat="41.3069159" lon="1.635411"><ele>147.0</ele><time>2026-05-04T16:32:02.502Z</time></trkpt><trkpt lat="41.3070481" lon="1.6355152"><ele>147.0</ele><time>2026-05-04T16:32:03.5Z</time></trkpt><trkpt lat="41.3071752" lon="1.6356272"><ele>147.33333333333334</ele><time>2026-05-04T16:32:04.501Z</time></trkpt><trkpt lat="41.3073075" lon="1.635743"><ele>147.66666666666669</ele><time>2026-05-04T16:32:05.502Z</time></trkpt><trkpt lat="41.3074429" lon="1.6358526"><ele>148.0</ele><time>2026-05-04T16:32:06.502Z</time></trkpt><trkpt lat="41.3075726" lon="1.6359674"><ele>148.0</ele><time>2026-05-04T16:32:07.501Z</time></trkpt><trkpt lat="41.3076992" lon="1.6360938"><ele>148.0</ele><time>2026-05-04T16:32:08.502Z</time></trkpt><trkpt lat="41.3078234" lon="1.636225"><ele>148.0</ele><time>2026-05-04T16:32:09.502Z</time></trkpt><trkpt lat="41.307948" lon="1.6363574"><ele>148.66666666666669</ele><time>2026-05-04T16:32:10.502Z</time></trkpt><trkpt lat="41.3080667" lon="1.636494"><ele>149.33333333333334</ele><time>2026-05-04T16:32:11.501Z</time></trkpt><trkpt lat="41.3081875" lon="1.6366306"><ele>150.0</ele><time>2026-05-04T16:32:12.502Z</time></trkpt><trkpt lat="41.3083123" lon="1.6367659"><ele>150.0</ele><time>2026-05-04T16:32:13.503Z</time></trkpt><trkpt lat="41.3084277" lon="1.6369125"><ele>150.0</ele><time>2026-05-04T16:32:14.503Z</time></trkpt><trkpt lat="41.308544" lon="1.6370605"><ele>150.0</ele><time>2026-05-04T16:32:15.505Z</time></trkpt><trkpt lat="41.3086657" lon="1.6372145"><ele>150.0</ele><time>2026-05-04T16:32:16.504Z</time></trkpt><trkpt lat="41.3087891" lon="1.6373545"><ele>150.0</ele><time>2026-05-04T16:32:17.51Z</time></trkpt><trkpt lat="41.3089113" lon="1.6374985"><ele>150.0</ele><time>2026-05-04T16:32:18.498Z</time></trkpt><trkpt lat="41.3090398" lon="1.6376473"><ele>150.0</ele><time>2026-05-04T16:32:19.505Z</time></trkpt><trkpt lat="41.3091536" lon="1.6377863"><ele>150.0</ele><time>2026-05-04T16:32:20.5Z</time></trkpt><trkpt lat="41.3092764" lon="1.6379228"><ele>150.0</ele><time>2026-05-04T16:32:21.507Z</time></trkpt><trkpt lat="41.3094039" lon="1.6380483"><ele>150.0</ele><time>2026-05-04T16:32:22.51Z</time></trkpt><trkpt lat="41.309527" lon="1.6381803"><ele>150.0</ele><time>2026-05-04T16:32:23.504Z</time></trkpt><trkpt lat="41.3096632" lon="1.6383006"><ele>150.0</ele><time>2026-05-04T16:32:24.507Z</time></trkpt><trkpt lat="41.3097946" lon="1.6384266"><ele>151.0</ele><time>2026-05-04T16:32:25.516Z</time></trkpt><trkpt lat="41.3099191" lon="1.6385428"><ele>152.0</ele><time>2026-05-04T16:32:26.504Z</time></trkpt><trkpt lat="41.3100557" lon="1.6386624"><ele>153.0</ele><time>2026-05-04T16:32:27.504Z</time></trkpt><trkpt lat="41.3101923" lon="1.6387803"><ele>153.66666666666666</ele><time>2026-05-04T16:32:28.5Z</time></trkpt><trkpt lat="41.3103277" lon="1.6389057"><ele>154.33333333333331</ele><time>2026-05-04T16:32:29.503Z</time></trkpt><trkpt lat="41.3104676" lon="1.6390173"><ele>155.0</ele><time>2026-05-04T16:32:30.508Z</time></trkpt><trkpt lat="41.3106122" lon="1.639131"><ele>155.0</ele><time>2026-05-04T16:32:31.503Z</time></trkpt><trkpt lat="41.310759" lon="1.6392361"><ele>155.0</ele><time>2026-05-04T16:32:32.503Z</time></trkpt><trkpt lat="41.3109003" lon="1.6393349"><ele>155.0</ele><time>2026-05-04T16:32:33.5Z</time></trkpt><trkpt lat="41.3110541" lon="1.6394318"><ele>155.33333333333331</ele><time>2026-05-04T16:32:34.497Z</time></trkpt><trkpt lat="41.3112049" lon="1.6395243"><ele>155.66666666666666</ele><time>2026-05-04T16:32:35.501Z</time></trkpt><trkpt lat="41.3113555" lon="1.6396098"><ele>156.0</ele><time>2026-05-04T16:32:36.508Z</time></trkpt><trkpt lat="41.3115034" lon="1.6396955"><ele>156.0</ele><time>2026-05-04T16:32:37.498Z</time></trkpt><trkpt lat="41.3116528" lon="1.6397746"><ele>156.0</ele><time>2026-05-04T16:32:38.5Z</time></trkpt><trkpt lat="41.3118008" lon="1.6398579"><ele>156.0</ele><time>2026-05-04T16:32:39.498Z</time></trkpt><trkpt lat="41.3119534" lon="1.6399357"><ele>156.0</ele><time>2026-05-04T16:32:40.497Z</time></trkpt><trkpt lat="41.3121135" lon="1.6400075"><ele>156.0</ele><time>2026-05-04T16:32:41.492Z</time></trkpt><trkpt lat="41.3122704" lon="1.6400823"><ele>156.0</ele><time>2026-05-04T16:32:42.494Z</time></trkpt><trkpt lat="41.3124243" lon="1.6401407"><ele>157.0</ele><time>2026-05-04T16:32:43.492Z</time></trkpt><trkpt lat="41.3125784" lon="1.6401978"><ele>158.0</ele><time>2026-05-04T16:32:44.5Z</time></trkpt><trkpt lat="41.3127373" lon="1.6402564"><ele>159.0</ele><time>2026-05-04T16:32:45.499Z</time></trkpt><trkpt lat="41.3128975" lon="1.640305"><ele>159.0</ele><time>2026-05-04T16:32:46.497Z</time></trkpt><trkpt lat="41.3130528" lon="1.6403507"><ele>159.0</ele><time>2026-05-04T16:32:47.496Z</time></trkpt><trkpt lat="41.3132153" lon="1.6403976"><ele>159.0</ele><time>2026-05-04T16:32:48.5Z</time></trkpt><trkpt lat="41.3133676" lon="1.6404456"><ele>158.66666666666666</ele><time>2026-05-04T16:32:49.496Z</time></trkpt><trkpt lat="41.3135245" lon="1.6404797"><ele>158.33333333333331</ele><time>2026-05-04T16:32:50.5Z</time></trkpt><trkpt lat="41.3136793" lon="1.6405158"><ele>158.0</ele><time>2026-05-04T16:32:51.498Z</time></trkpt><trkpt lat="41.3138376" lon="1.6405585"><ele>157.33333333333331</ele><time>2026-05-04T16:32:52.496Z</time></trkpt><trkpt lat="41.3139926" lon="1.640597"><ele>156.66666666666666</ele><time>2026-05-04T16:32:53.497Z</time></trkpt><trkpt lat="41.3141564" lon="1.6406215"><ele>156.0</ele><time>2026-05-04T16:32:54.499Z</time></trkpt><trkpt lat="41.314319" lon="1.640641"><ele>156.0</ele><time>2026-05-04T16:32:55.498Z</time></trkpt><trkpt lat="41.3144784" lon="1.6406626"><ele>156.0</ele><time>2026-05-04T16:32:56.51Z</time></trkpt><trkpt lat="41.3146417" lon="1.6406765"><ele>156.0</ele><time>2026-05-04T16:32:57.503Z</time></trkpt><trkpt lat="41.3148005" lon="1.6407005"><ele>156.33333333333334</ele><time>2026-05-04T16:32:58.505Z</time></trkpt><trkpt lat="41.3149663" lon="1.6407269"><ele>156.66666666666669</ele><time>2026-05-04T16:32:59.506Z</time></trkpt><trkpt lat="41.3151342" lon="1.6407514"><ele>157.0</ele><time>2026-05-04T16:33:00.502Z</time></trkpt><trkpt lat="41.3152852" lon="1.6407794"><ele>157.0</ele><time>2026-05-04T16:33:01.503Z</time></trkpt><trkpt lat="41.3154439" lon="1.6408071"><ele>157.0</ele><time>2026-05-04T16:33:02.501Z</time></trkpt><trkpt lat="41.3156103" lon="1.6408455"><ele>157.0</ele><time>2026-05-04T16:33:03.502Z</time></trkpt><trkpt lat="41.3157691" lon="1.6408919"><ele>158.0</ele><time>2026-05-04T16:33:04.5Z</time></trkpt><trkpt lat="41.3159267" lon="1.6409437"><ele>159.0</ele><time>2026-05-04T16:33:05.497Z</time></trkpt><trkpt lat="41.3160809" lon="1.6409902"><ele>160.0</ele><time>2026-05-04T16:33:06.502Z</time></trkpt><trkpt lat="41.3162414" lon="1.6410351"><ele>160.0</ele><time>2026-05-04T16:33:07.501Z</time></trkpt><trkpt lat="41.3163913" lon="1.6410892"><ele>160.0</ele><time>2026-05-04T16:33:08.503Z</time></trkpt><trkpt lat="41.3165472" lon="1.6411494"><ele>160.0</ele><time>2026-05-04T16:33:09.501Z</time></trkpt><trkpt lat="41.3166948" lon="1.6412078"><ele>160.0</ele><time>2026-05-04T16:33:10.508Z</time></trkpt><trkpt lat="41.3168469" lon="1.6412755"><ele>160.0</ele><time>2026-05-04T16:33:11.5Z</time></trkpt><trkpt lat="41.3169913" lon="1.6413516"><ele>160.0</ele><time>2026-05-04T16:33:12.503Z</time></trkpt><trkpt lat="41.3171401" lon="1.641423"><ele>160.33333333333334</ele><time>2026-05-04T16:33:13.506Z</time></trkpt><trkpt lat="41.3172887" lon="1.6415024"><ele>160.66666666666666</ele><time>2026-05-04T16:33:14.504Z</time></trkpt><trkpt lat="41.3174354" lon="1.6415809"><ele>161.0</ele><time>2026-05-04T16:33:15.498Z</time></trkpt><trkpt lat="41.3175855" lon="1.6416712"><ele>161.0</ele><time>2026-05-04T16:33:16.504Z</time></trkpt><trkpt lat="41.3177303" lon="1.6417557"><ele>161.0</ele><time>2026-05-04T16:33:17.511Z</time></trkpt><trkpt lat="41.3178779" lon="1.6418508"><ele>161.0</ele><time>2026-05-04T16:33:18.505Z</time></trkpt><trkpt lat="41.3180123" lon="1.6419504"><ele>160.66666666666666</ele><time>2026-05-04T16:33:19.5Z</time></trkpt><trkpt lat="41.3181602" lon="1.6420542"><ele>160.33333333333334</ele><time>2026-05-04T16:33:20.505Z</time></trkpt><trkpt lat="41.3183085" lon="1.6421593"><ele>160.0</ele><time>2026-05-04T16:33:21.504Z</time></trkpt><trkpt lat="41.3184571" lon="1.6422583"><ele>160.0</ele><time>2026-05-04T16:33:22.488Z</time></trkpt><trkpt lat="41.3185893" lon="1.6423745"><ele>160.0</ele><time>2026-05-04T16:33:23.499Z</time></trkpt><trkpt lat="41.3187247" lon="1.642478"><ele>160.0</ele><time>2026-05-04T16:33:24.502Z</time></trkpt><trkpt lat="41.3188616" lon="1.642597"><ele>161.0</ele><time>2026-05-04T16:33:25.499Z</time></trkpt><trkpt lat="41.3189981" lon="1.6427053"><ele>162.0</ele><time>2026-05-04T16:33:26.511Z</time></trkpt><trkpt lat="41.3191307" lon="1.6428231"><ele>163.0</ele><time>2026-05-04T16:33:27.511Z</time></trkpt><trkpt lat="41.3192541" lon="1.6429379"><ele>163.0</ele><time>2026-05-04T16:33:28.498Z</time></trkpt><trkpt lat="41.3193865" lon="1.6430486"><ele>163.0</ele><time>2026-05-04T16:33:29.5Z</time></trkpt><trkpt lat="41.3195168" lon="1.6431586"><ele>163.0</ele><time>2026-05-04T16:33:30.506Z</time></trkpt><trkpt lat="41.3196516" lon="1.6432713"><ele>164.0</ele><time>2026-05-04T16:33:31.501Z</time></trkpt><trkpt lat="41.3197879" lon="1.643381"><ele>165.0</ele><time>2026-05-04T16:33:32.499Z</time></trkpt><trkpt lat="41.3199271" lon="1.6434788"><ele>166.0</ele><time>2026-05-04T16:33:33.504Z</time></trkpt><trkpt lat="41.320067" lon="1.6435702"><ele>166.66666666666669</ele><time>2026-05-04T16:33:34.504Z</time></trkpt><trkpt lat="41.3202064" lon="1.6436606"><ele>167.33333333333334</ele><time>2026-05-04T16:33:35.503Z</time></trkpt><trkpt lat="41.3203452" lon="1.643738"><ele>168.0</ele><time>2026-05-04T16:33:36.501Z</time></trkpt><trkpt lat="41.3204922" lon="1.643802"><ele>168.33333333333334</ele><time>2026-05-04T16:33:37.502Z</time></trkpt><trkpt lat="41.3206368" lon="1.6438621"><ele>168.66666666666669</ele><time>2026-05-04T16:33:38.501Z</time></trkpt><trkpt lat="41.3207823" lon="1.6439199"><ele>169.0</ele><time>2026-05-04T16:33:39.503Z</time></trkpt><trkpt lat="41.3209345" lon="1.6439729"><ele>169.0</ele><time>2026-05-04T16:33:40.499Z</time></trkpt><trkpt lat="41.3210874" lon="1.6440184"><ele>169.0</ele><time>2026-05-04T16:33:41.499Z</time></trkpt><trkpt lat="41.3212335" lon="1.6440637"><ele>169.0</ele><time>2026-05-04T16:33:42.501Z</time></trkpt><trkpt lat="41.3213822" lon="1.6440976"><ele>170.0</ele><time>2026-05-04T16:33:43.501Z</time></trkpt><trkpt lat="41.321538" lon="1.6441196"><ele>171.0</ele><time>2026-05-04T16:33:44.5Z</time></trkpt><trkpt lat="41.3216905" lon="1.6441403"><ele>172.0</ele><time>2026-05-04T16:33:45.502Z</time></trkpt><trkpt lat="41.3218407" lon="1.6441579"><ele>172.0</ele><time>2026-05-04T16:33:46.5Z</time></trkpt><trkpt lat="41.3219943" lon="1.6441669"><ele>172.0</ele><time>2026-05-04T16:33:47.5Z</time></trkpt><trkpt lat="41.3221485" lon="1.6441626"><ele>172.0</ele><time>2026-05-04T16:33:48.504Z</time></trkpt><trkpt lat="41.3223036" lon="1.6441364"><ele>173.66666666666669</ele><time>2026-05-04T16:33:49.501Z</time></trkpt><trkpt lat="41.3224585" lon="1.6441067"><ele>175.33333333333334</ele><time>2026-05-04T16:33:50.505Z</time></trkpt><trkpt lat="41.3226066" lon="1.6440847"><ele>177.0</ele><time>2026-05-04T16:33:51.509Z</time></trkpt><trkpt lat="41.3227678" lon="1.644069"><ele>177.0</ele><time>2026-05-04T16:33:52.493Z</time></trkpt><trkpt lat="41.3229172" lon="1.6440407"><ele>177.0</ele><time>2026-05-04T16:33:53.507Z</time></trkpt><trkpt lat="41.3230655" lon="1.6440169"><ele>177.0</ele><time>2026-05-04T16:33:54.507Z</time></trkpt><trkpt lat="41.3232166" lon="1.6439946"><ele>177.0</ele><time>2026-05-04T16:33:55.508Z</time></trkpt><trkpt lat="41.3233702" lon="1.6439768"><ele>177.0</ele><time>2026-05-04T16:33:56.505Z</time></trkpt><trkpt lat="41.3235207" lon="1.6439622"><ele>177.0</ele><time>2026-05-04T16:33:57.504Z</time></trkpt><trkpt lat="41.3236756" lon="1.6439446"><ele>177.0</ele><time>2026-05-04T16:33:58.511Z</time></trkpt><trkpt lat="41.323832" lon="1.6439476"><ele>177.0</ele><time>2026-05-04T16:33:59.501Z</time></trkpt><trkpt lat="41.3239882" lon="1.6439459"><ele>177.0</ele><time>2026-05-04T16:34:00.506Z</time></trkpt><trkpt lat="41.3241451" lon="1.6439534"><ele>177.66666666666666</ele><time>2026-05-04T16:34:01.503Z</time></trkpt><trkpt lat="41.3243058" lon="1.6439628"><ele>178.33333333333331</ele><time>2026-05-04T16:34:02.504Z</time></trkpt><trkpt lat="41.3244704" lon="1.6439715"><ele>179.0</ele><time>2026-05-04T16:34:03.499Z</time></trkpt><trkpt lat="41.3246218" lon="1.6439972"><ele>179.33333333333331</ele><time>2026-05-04T16:34:04.508Z</time></trkpt><trkpt lat="41.3247815" lon="1.6440321"><ele>179.66666666666666</ele><time>2026-05-04T16:34:05.506Z</time></trkpt><trkpt lat="41.3249335" lon="1.6440825"><ele>180.0</ele><time>2026-05-04T16:34:06.503Z</time></trkpt><trkpt lat="41.3250966" lon="1.6441362"><ele>180.0</ele><time>2026-05-04T16:34:07.504Z</time></trkpt><trkpt lat="41.3252572" lon="1.6442002"><ele>180.0</ele><time>2026-05-04T16:34:08.504Z</time></trkpt><trkpt lat="41.3254109" lon="1.6442697"><ele>180.0</ele><time>2026-05-04T16:34:09.507Z</time></trkpt><trkpt lat="41.3255657" lon="1.6443445"><ele>179.33333333333334</ele><time>2026-05-04T16:34:10.499Z</time></trkpt><trkpt lat="41.3257156" lon="1.6444321"><ele>178.66666666666669</ele><time>2026-05-04T16:34:11.504Z</time></trkpt><trkpt lat="41.3258689" lon="1.6445249"><ele>178.0</ele><time>2026-05-04T16:34:12.502Z</time></trkpt><trkpt lat="41.3260228" lon="1.6446154"><ele>177.0</ele><time>2026-05-04T16:34:13.503Z</time></trkpt><trkpt lat="41.3261684" lon="1.644726"><ele>176.0</ele><time>2026-05-04T16:34:14.502Z</time></trkpt><trkpt lat="41.3263142" lon="1.6448384"><ele>175.0</ele><time>2026-05-04T16:34:15.504Z</time></trkpt><trkpt lat="41.3264579" lon="1.6449543"><ele>174.66666666666669</ele><time>2026-05-04T16:34:16.503Z</time></trkpt><trkpt lat="41.3266" lon="1.64509"><ele>174.33333333333334</ele><time>2026-05-04T16:34:17.504Z</time></trkpt><trkpt lat="41.3267297" lon="1.645229"><ele>174.0</ele><time>2026-05-04T16:34:18.505Z</time></trkpt><trkpt lat="41.3268546" lon="1.645363"><ele>174.66666666666666</ele><time>2026-05-04T16:34:19.508Z</time></trkpt><trkpt lat="41.3269706" lon="1.6455039"><ele>175.33333333333331</ele><time>2026-05-04T16:34:20.508Z</time></trkpt><trkpt lat="41.3270777" lon="1.6456495"><ele>176.0</ele><time>2026-05-04T16:34:21.512Z</time></trkpt><trkpt lat="41.3271875" lon="1.6458022"><ele>176.0</ele><time>2026-05-04T16:34:22.508Z</time></trkpt><trkpt lat="41.3272831" lon="1.6459506"><ele>176.0</ele><time>2026-05-04T16:34:23.515Z</time></trkpt><trkpt lat="41.327382" lon="1.6460979"><ele>176.0</ele><time>2026-05-04T16:34:24.511Z</time></trkpt><trkpt lat="41.3274758" lon="1.6462556"><ele>176.0</ele><time>2026-05-04T16:34:25.501Z</time></trkpt><trkpt lat="41.3275557" lon="1.6464173"><ele>175.66666666666666</ele><time>2026-05-04T16:34:26.503Z</time></trkpt><trkpt lat="41.3276375" lon="1.6465807"><ele>175.33333333333334</ele><time>2026-05-04T16:34:27.508Z</time></trkpt><trkpt lat="41.3277292" lon="1.6467548"><ele>175.0</ele><time>2026-05-04T16:34:28.5Z</time></trkpt><trkpt lat="41.3278048" lon="1.646923"><ele>175.66666666666669</ele><time>2026-05-04T16:34:29.518Z</time></trkpt><trkpt lat="41.3278765" lon="1.6471103"><ele>176.33333333333334</ele><time>2026-05-04T16:34:30.509Z</time></trkpt><trkpt lat="41.3279365" lon="1.6472875"><ele>177.0</ele><time>2026-05-04T16:34:31.505Z</time></trkpt><trkpt lat="41.3280025" lon="1.6474688"><ele>177.33333333333334</ele><time>2026-05-04T16:34:32.502Z</time></trkpt><trkpt lat="41.3280642" lon="1.6476508"><ele>177.66666666666669</ele><time>2026-05-04T16:34:33.504Z</time></trkpt><trkpt lat="41.3281276" lon="1.6478438"><ele>178.0</ele><time>2026-05-04T16:34:34.504Z</time></trkpt><trkpt lat="41.3282256" lon="1.6482127"><ele>179.0</ele><time>2026-05-04T16:34:36.503Z</time></trkpt><trkpt lat="41.3282759" lon="1.6483982"><ele>180.0</ele><time>2026-05-04T16:34:37.501Z</time></trkpt><trkpt lat="41.3283253" lon="1.6485924"><ele>181.0</ele><time>2026-05-04T16:34:38.501Z</time></trkpt><trkpt lat="41.3283787" lon="1.648787"><ele>181.66666666666669</ele><time>2026-05-04T16:34:39.502Z</time></trkpt><trkpt lat="41.3284272" lon="1.6489727"><ele>182.33333333333334</ele><time>2026-05-04T16:34:40.501Z</time></trkpt><trkpt lat="41.3284777" lon="1.6491622"><ele>183.0</ele><time>2026-05-04T16:34:41.502Z</time></trkpt><trkpt lat="41.3285298" lon="1.649352"><ele>184.0</ele><time>2026-05-04T16:34:42.504Z</time></trkpt><trkpt lat="41.3285828" lon="1.6495455"><ele>185.0</ele><time>2026-05-04T16:34:43.505Z</time></trkpt><trkpt lat="41.3286396" lon="1.6497386"><ele>186.0</ele><time>2026-05-04T16:34:44.503Z</time></trkpt><trkpt lat="41.3287019" lon="1.6499286"><ele>186.0</ele><time>2026-05-04T16:34:45.503Z</time></trkpt><trkpt lat="41.3287629" lon="1.6501183"><ele>186.0</ele><time>2026-05-04T16:34:46.509Z</time></trkpt><trkpt lat="41.328828" lon="1.650303"><ele>186.0</ele><time>2026-05-04T16:34:47.507Z</time></trkpt><trkpt lat="41.3288902" lon="1.6504903"><ele>186.33333333333334</ele><time>2026-05-04T16:34:48.507Z</time></trkpt><trkpt lat="41.3289665" lon="1.6506828"><ele>186.66666666666669</ele><time>2026-05-04T16:34:49.502Z</time></trkpt><trkpt lat="41.3290398" lon="1.6508749"><ele>187.0</ele><time>2026-05-04T16:34:50.507Z</time></trkpt><trkpt lat="41.3291242" lon="1.6510667"><ele>188.0</ele><time>2026-05-04T16:34:51.508Z</time></trkpt><trkpt lat="41.3292058" lon="1.651252"><ele>189.0</ele><time>2026-05-04T16:34:52.504Z</time></trkpt><trkpt lat="41.3292912" lon="1.6514372"><ele>190.0</ele><time>2026-05-04T16:34:53.5Z</time></trkpt><trkpt lat="41.329377" lon="1.6516329"><ele>190.0</ele><time>2026-05-04T16:34:54.507Z</time></trkpt><trkpt lat="41.3294693" lon="1.6518174"><ele>190.0</ele><time>2026-05-04T16:34:55.509Z</time></trkpt><trkpt lat="41.3295575" lon="1.6519873"><ele>190.0</ele><time>2026-05-04T16:34:56.503Z</time></trkpt><trkpt lat="41.3296487" lon="1.6521605"><ele>190.66666666666669</ele><time>2026-05-04T16:34:57.505Z</time></trkpt><trkpt lat="41.329745" lon="1.652327"><ele>191.33333333333334</ele><time>2026-05-04T16:34:58.503Z</time></trkpt><trkpt lat="41.3298368" lon="1.6524905"><ele>192.0</ele><time>2026-05-04T16:34:59.502Z</time></trkpt><trkpt lat="41.3299392" lon="1.6526544"><ele>190.66666666666666</ele><time>2026-05-04T16:35:00.512Z</time></trkpt><trkpt lat="41.3300304" lon="1.6528162"><ele>189.33333333333331</ele><time>2026-05-04T16:35:01.497Z</time></trkpt><trkpt lat="41.3301211" lon="1.6529793"><ele>188.0</ele><time>2026-05-04T16:35:02.503Z</time></trkpt><trkpt lat="41.33022" lon="1.6531402"><ele>188.0</ele><time>2026-05-04T16:35:03.505Z</time></trkpt><trkpt lat="41.3303177" lon="1.6532912"><ele>188.0</ele><time>2026-05-04T16:35:04.505Z</time></trkpt><trkpt lat="41.3304061" lon="1.653433"><ele>188.0</ele><time>2026-05-04T16:35:05.505Z</time></trkpt><trkpt lat="41.3304999" lon="1.6535781"><ele>188.0</ele><time>2026-05-04T16:35:06.496Z</time></trkpt><trkpt lat="41.3305911" lon="1.6537196"><ele>187.5</ele><time>2026-05-04T16:35:07.497Z</time></trkpt><trkpt lat="41.3306922" lon="1.6538592"><ele>187.0</ele><time>2026-05-04T16:35:08.5Z</time></trkpt><trkpt lat="41.3307869" lon="1.6539969"><ele>186.5</ele><time>2026-05-04T16:35:09.502Z</time></trkpt><trkpt lat="41.3308806" lon="1.654136"><ele>186.0</ele><time>2026-05-04T16:35:10.502Z</time></trkpt><trkpt lat="41.3309713" lon="1.6542845"><ele>186.0</ele><time>2026-05-04T16:35:11.501Z</time></trkpt><trkpt lat="41.331064" lon="1.6544412"><ele>186.0</ele><time>2026-05-04T16:35:12.501Z</time></trkpt><trkpt lat="41.3311575" lon="1.6546068"><ele>186.0</ele><time>2026-05-04T16:35:13.505Z</time></trkpt><trkpt lat="41.3312446" lon="1.6547826"><ele>185.66666666666666</ele><time>2026-05-04T16:35:14.503Z</time></trkpt><trkpt lat="41.3313379" lon="1.6549695"><ele>185.33333333333331</ele><time>2026-05-04T16:35:15.504Z</time></trkpt><trkpt lat="41.3314262" lon="1.6551503"><ele>185.0</ele><time>2026-05-04T16:35:16.504Z</time></trkpt><trkpt lat="41.3315127" lon="1.6553453"><ele>185.0</ele><time>2026-05-04T16:35:17.504Z</time></trkpt><trkpt lat="41.3316011" lon="1.6555386"><ele>185.0</ele><time>2026-05-04T16:35:18.502Z</time></trkpt><trkpt lat="41.3316819" lon="1.6557376"><ele>185.0</ele><time>2026-05-04T16:35:19.498Z</time></trkpt><trkpt lat="41.3317616" lon="1.6559479"><ele>184.66666666666666</ele><time>2026-05-04T16:35:20.501Z</time></trkpt><trkpt lat="41.3318447" lon="1.6561481"><ele>184.33333333333334</ele><time>2026-05-04T16:35:21.503Z</time></trkpt><trkpt lat="41.3319196" lon="1.6563546"><ele>184.0</ele><time>2026-05-04T16:35:22.501Z</time></trkpt><trkpt lat="41.3319949" lon="1.6565631"><ele>184.0</ele><time>2026-05-04T16:35:23.498Z</time></trkpt><trkpt lat="41.3320589" lon="1.6567715"><ele>184.0</ele><time>2026-05-04T16:35:24.502Z</time></trkpt><trkpt lat="41.3321176" lon="1.6569862"><ele>184.0</ele><time>2026-05-04T16:35:25.506Z</time></trkpt><trkpt lat="41.3321779" lon="1.6571951"><ele>183.33333333333334</ele><time>2026-05-04T16:35:26.502Z</time></trkpt><trkpt lat="41.3322278" lon="1.65741"><ele>182.66666666666666</ele><time>2026-05-04T16:35:27.503Z</time></trkpt><trkpt lat="41.3322727" lon="1.6576269"><ele>182.0</ele><time>2026-05-04T16:35:28.508Z</time></trkpt><trkpt lat="41.3323127" lon="1.6578444"><ele>182.0</ele><time>2026-05-04T16:35:29.502Z</time></trkpt><trkpt lat="41.3323513" lon="1.6580617"><ele>182.0</ele><time>2026-05-04T16:35:30.51Z</time></trkpt><trkpt lat="41.3323793" lon="1.6582823"><ele>182.0</ele><time>2026-05-04T16:35:31.512Z</time></trkpt><trkpt lat="41.332404" lon="1.6585064"><ele>181.33333333333331</ele><time>2026-05-04T16:35:32.502Z</time></trkpt><trkpt lat="41.3324264" lon="1.6587367"><ele>180.66666666666666</ele><time>2026-05-04T16:35:33.5Z</time></trkpt><trkpt lat="41.3324476" lon="1.6589632"><ele>180.0</ele><time>2026-05-04T16:35:34.501Z</time></trkpt><trkpt lat="41.3324643" lon="1.6591909"><ele>180.0</ele><time>2026-05-04T16:35:35.5Z</time></trkpt><trkpt lat="41.3324768" lon="1.6594166"><ele>180.0</ele><time>2026-05-04T16:35:36.502Z</time></trkpt><trkpt lat="41.332488" lon="1.6596399"><ele>180.0</ele><time>2026-05-04T16:35:37.499Z</time></trkpt><trkpt lat="41.3324949" lon="1.6598658"><ele>179.66666666666666</ele><time>2026-05-04T16:35:38.505Z</time></trkpt><trkpt lat="41.3325017" lon="1.6600943"><ele>179.33333333333331</ele><time>2026-05-04T16:35:39.502Z</time></trkpt><trkpt lat="41.3325068" lon="1.6603226"><ele>179.0</ele><time>2026-05-04T16:35:40.502Z</time></trkpt><trkpt lat="41.3325153" lon="1.6605481"><ele>180.0</ele><time>2026-05-04T16:35:41.503Z</time></trkpt><trkpt lat="41.3325214" lon="1.6607794"><ele>181.0</ele><time>2026-05-04T16:35:42.503Z</time></trkpt><trkpt lat="41.3325295" lon="1.6610041"><ele>182.0</ele><time>2026-05-04T16:35:43.505Z</time></trkpt><trkpt lat="41.3325403" lon="1.6612259"><ele>183.66666666666666</ele><time>2026-05-04T16:35:44.506Z</time></trkpt><trkpt lat="41.3325525" lon="1.661446"><ele>185.33333333333334</ele><time>2026-05-04T16:35:45.5Z</time></trkpt><trkpt lat="41.3325641" lon="1.6616636"><ele>187.0</ele><time>2026-05-04T16:35:46.504Z</time></trkpt><trkpt lat="41.3325722" lon="1.6618866"><ele>186.66666666666669</ele><time>2026-05-04T16:35:47.501Z</time></trkpt><trkpt lat="41.3325825" lon="1.6621147"><ele>186.33333333333334</ele><time>2026-05-04T16:35:48.501Z</time></trkpt><trkpt lat="41.3325952" lon="1.6623377"><ele>186.0</ele><time>2026-05-04T16:35:49.501Z</time></trkpt><trkpt lat="41.3326109" lon="1.6625605"><ele>186.66666666666666</ele><time>2026-05-04T16:35:50.499Z</time></trkpt><trkpt lat="41.3326256" lon="1.6627931"><ele>187.33333333333331</ele><time>2026-05-04T16:35:51.504Z</time></trkpt><trkpt lat="41.3326419" lon="1.663021"><ele>188.0</ele><time>2026-05-04T16:35:52.504Z</time></trkpt><trkpt lat="41.3326566" lon="1.6632539"><ele>188.0</ele><time>2026-05-04T16:35:53.504Z</time></trkpt><trkpt lat="41.3326815" lon="1.6634849"><ele>188.0</ele><time>2026-05-04T16:35:54.506Z</time></trkpt><trkpt lat="41.3327019" lon="1.6637127"><ele>188.0</ele><time>2026-05-04T16:35:55.506Z</time></trkpt><trkpt lat="41.3327285" lon="1.6639429"><ele>188.33333333333331</ele><time>2026-05-04T16:35:56.495Z</time></trkpt><trkpt lat="41.3327542" lon="1.6641717"><ele>188.66666666666666</ele><time>2026-05-04T16:35:57.497Z</time></trkpt><trkpt lat="41.3327828" lon="1.6644023"><ele>189.0</ele><time>2026-05-04T16:35:58.498Z</time></trkpt><trkpt lat="41.332808" lon="1.6646216"><ele>189.0</ele><time>2026-05-04T16:35:59.493Z</time></trkpt><trkpt lat="41.3328386" lon="1.66486"><ele>189.0</ele><time>2026-05-04T16:36:00.511Z</time></trkpt><trkpt lat="41.3328738" lon="1.6650728"><ele>189.0</ele><time>2026-05-04T16:36:01.491Z</time></trkpt><trkpt lat="41.3329017" lon="1.6652977"><ele>187.66666666666666</ele><time>2026-05-04T16:36:02.509Z</time></trkpt><trkpt lat="41.3329383" lon="1.6655217"><ele>186.33333333333331</ele><time>2026-05-04T16:36:03.502Z</time></trkpt><trkpt lat="41.3329781" lon="1.6657418"><ele>185.0</ele><time>2026-05-04T16:36:04.502Z</time></trkpt><trkpt lat="41.3330197" lon="1.6659647"><ele>186.0</ele><time>2026-05-04T16:36:05.5Z</time></trkpt><trkpt lat="41.333056" lon="1.6661902"><ele>187.0</ele><time>2026-05-04T16:36:06.497Z</time></trkpt><trkpt lat="41.3330923" lon="1.6664149"><ele>188.0</ele><time>2026-05-04T16:36:07.502Z</time></trkpt><trkpt lat="41.3331161" lon="1.6666357"><ele>188.0</ele><time>2026-05-04T16:36:08.49Z</time></trkpt><trkpt lat="41.3331416" lon="1.6668684"><ele>188.0</ele><time>2026-05-04T16:36:09.49Z</time></trkpt><trkpt lat="41.3331716" lon="1.6670955"><ele>188.0</ele><time>2026-05-04T16:36:10.496Z</time></trkpt><trkpt lat="41.3332082" lon="1.6673268"><ele>187.0</ele><time>2026-05-04T16:36:11.496Z</time></trkpt><trkpt lat="41.3332516" lon="1.6675551"><ele>186.0</ele><time>2026-05-04T16:36:12.496Z</time></trkpt><trkpt lat="41.3332915" lon="1.667773"><ele>185.0</ele><time>2026-05-04T16:36:13.501Z</time></trkpt><trkpt lat="41.3333278" lon="1.6679934"><ele>183.0</ele><time>2026-05-04T16:36:14.503Z</time></trkpt><trkpt lat="41.3333649" lon="1.668211"><ele>181.0</ele><time>2026-05-04T16:36:15.505Z</time></trkpt><trkpt lat="41.3333995" lon="1.6684277"><ele>179.0</ele><time>2026-05-04T16:36:16.505Z</time></trkpt><trkpt lat="41.3334325" lon="1.6686533"><ele>178.33333333333331</ele><time>2026-05-04T16:36:17.504Z</time></trkpt><trkpt lat="41.3334621" lon="1.6688718"><ele>177.66666666666666</ele><time>2026-05-04T16:36:18.505Z</time></trkpt><trkpt lat="41.333495" lon="1.6690928"><ele>177.0</ele><time>2026-05-04T16:36:19.502Z</time></trkpt><trkpt lat="41.3335288" lon="1.6693158"><ele>177.33333333333334</ele><time>2026-05-04T16:36:20.506Z</time></trkpt><trkpt lat="41.3335594" lon="1.6695342"><ele>177.66666666666669</ele><time>2026-05-04T16:36:21.511Z</time></trkpt><trkpt lat="41.3335845" lon="1.6697493"><ele>178.0</ele><time>2026-05-04T16:36:22.508Z</time></trkpt><trkpt lat="41.3336211" lon="1.6699679"><ele>178.0</ele><time>2026-05-04T16:36:23.51Z</time></trkpt><trkpt lat="41.33366" lon="1.6701981"><ele>178.0</ele><time>2026-05-04T16:36:24.51Z</time></trkpt><trkpt lat="41.3336971" lon="1.6704296"><ele>178.0</ele><time>2026-05-04T16:36:25.504Z</time></trkpt><trkpt lat="41.3337284" lon="1.6706592"><ele>178.0</ele><time>2026-05-04T16:36:26.5Z</time></trkpt><trkpt lat="41.3337606" lon="1.6708872"><ele>178.0</ele><time>2026-05-04T16:36:27.508Z</time></trkpt><trkpt lat="41.3337924" lon="1.6711229"><ele>178.0</ele><time>2026-05-04T16:36:28.5Z</time></trkpt><trkpt lat="41.3338179" lon="1.6713517"><ele>177.33333333333334</ele><time>2026-05-04T16:36:29.501Z</time></trkpt><trkpt lat="41.3338564" lon="1.6715838"><ele>176.66666666666666</ele><time>2026-05-04T16:36:30.509Z</time></trkpt><trkpt lat="41.3338877" lon="1.6717996"><ele>176.0</ele><time>2026-05-04T16:36:31.503Z</time></trkpt><trkpt lat="41.333914" lon="1.6720377"><ele>176.0</ele><time>2026-05-04T16:36:32.499Z</time></trkpt><trkpt lat="41.3339382" lon="1.6722677"><ele>176.0</ele><time>2026-05-04T16:36:33.514Z</time></trkpt><trkpt lat="41.3339571" lon="1.6724998"><ele>176.0</ele><time>2026-05-04T16:36:34.5Z</time></trkpt><trkpt lat="41.3339728" lon="1.6727325"><ele>175.33333333333331</ele><time>2026-05-04T16:36:35.502Z</time></trkpt><trkpt lat="41.3339978" lon="1.6729587"><ele>174.66666666666666</ele><time>2026-05-04T16:36:36.501Z</time></trkpt><trkpt lat="41.3340224" lon="1.6731882"><ele>174.0</ele><time>2026-05-04T16:36:37.501Z</time></trkpt><trkpt lat="41.3340477" lon="1.6734088"><ele>174.66666666666666</ele><time>2026-05-04T16:36:38.505Z</time></trkpt><trkpt lat="41.3340725" lon="1.67363"><ele>175.33333333333331</ele><time>2026-05-04T16:36:39.501Z</time></trkpt><trkpt lat="41.3340966" lon="1.673857"><ele>176.0</ele><time>2026-05-04T16:36:40.504Z</time></trkpt><trkpt lat="41.3341174" lon="1.6740825"><ele>176.0</ele><time>2026-05-04T16:36:41.501Z</time></trkpt><trkpt lat="41.3341379" lon="1.6743124"><ele>176.0</ele><time>2026-05-04T16:36:42.501Z</time></trkpt><trkpt lat="41.3341588" lon="1.6745375"><ele>176.0</ele><time>2026-05-04T16:36:43.502Z</time></trkpt><trkpt lat="41.3341785" lon="1.6747661"><ele>176.33333333333331</ele><time>2026-05-04T16:36:44.498Z</time></trkpt><trkpt lat="41.3341964" lon="1.6749957"><ele>176.66666666666666</ele><time>2026-05-04T16:36:45.502Z</time></trkpt><trkpt lat="41.3342116" lon="1.6752236"><ele>177.0</ele><time>2026-05-04T16:36:46.5Z</time></trkpt><trkpt lat="41.3342286" lon="1.6754478"><ele>177.0</ele><time>2026-05-04T16:36:47.502Z</time></trkpt><trkpt lat="41.3342431" lon="1.6756736"><ele>177.0</ele><time>2026-05-04T16:36:48.5Z</time></trkpt><trkpt lat="41.3342583" lon="1.6759013"><ele>177.0</ele><time>2026-05-04T16:36:49.501Z</time></trkpt><trkpt lat="41.3342757" lon="1.6761377"><ele>177.0</ele><time>2026-05-04T16:36:50.512Z</time></trkpt><trkpt lat="41.3342898" lon="1.6763708"><ele>177.0</ele><time>2026-05-04T16:36:51.516Z</time></trkpt><trkpt lat="41.3343006" lon="1.6765938"><ele>177.0</ele><time>2026-05-04T16:36:52.507Z</time></trkpt><trkpt lat="41.3343193" lon="1.6768263"><ele>176.66666666666666</ele><time>2026-05-04T16:36:53.506Z</time></trkpt><trkpt lat="41.3343314" lon="1.6770486"><ele>176.33333333333331</ele><time>2026-05-04T16:36:54.505Z</time></trkpt><trkpt lat="41.3343425" lon="1.6772842"><ele>176.0</ele><time>2026-05-04T16:36:55.504Z</time></trkpt><trkpt lat="41.3343526" lon="1.6775123"><ele>176.0</ele><time>2026-05-04T16:36:56.51Z</time></trkpt><trkpt lat="41.3343603" lon="1.6777298"><ele>176.0</ele><time>2026-05-04T16:36:57.508Z</time></trkpt><trkpt lat="41.3343738" lon="1.6779537"><ele>176.0</ele><time>2026-05-04T16:36:58.512Z</time></trkpt><trkpt lat="41.3343818" lon="1.67818"><ele>176.0</ele><time>2026-05-04T16:36:59.512Z</time></trkpt><trkpt lat="41.3343888" lon="1.6784051"><ele>176.0</ele><time>2026-05-04T16:37:00.509Z</time></trkpt><trkpt lat="41.3343941" lon="1.6786291"><ele>176.0</ele><time>2026-05-04T16:37:01.505Z</time></trkpt><trkpt lat="41.3343982" lon="1.678853"><ele>176.0</ele><time>2026-05-04T16:37:02.504Z</time></trkpt><trkpt lat="41.3344064" lon="1.679077"><ele>176.0</ele><time>2026-05-04T16:37:03.504Z</time></trkpt><trkpt lat="41.3344137" lon="1.6793021"><ele>176.0</ele><time>2026-05-04T16:37:04.524Z</time></trkpt><trkpt lat="41.3344188" lon="1.6795208"><ele>176.33333333333331</ele><time>2026-05-04T16:37:05.505Z</time></trkpt><trkpt lat="41.3344202" lon="1.6797406"><ele>176.66666666666666</ele><time>2026-05-04T16:37:06.504Z</time></trkpt><trkpt lat="41.3344163" lon="1.6799506"><ele>177.0</ele><time>2026-05-04T16:37:07.496Z</time></trkpt><trkpt lat="41.3344177" lon="1.6801615"><ele>178.0</ele><time>2026-05-04T16:37:08.502Z</time></trkpt><trkpt lat="41.3344185" lon="1.6803745"><ele>179.0</ele><time>2026-05-04T16:37:09.502Z</time></trkpt><trkpt lat="41.3344134" lon="1.6805891"><ele>180.0</ele><time>2026-05-04T16:37:10.502Z</time></trkpt><trkpt lat="41.3344066" lon="1.6808023"><ele>180.0</ele><time>2026-05-04T16:37:11.503Z</time></trkpt><trkpt lat="41.3343957" lon="1.6810179"><ele>180.0</ele><time>2026-05-04T16:37:12.504Z</time></trkpt><trkpt lat="41.3343953" lon="1.6812331"><ele>180.0</ele><time>2026-05-04T16:37:13.507Z</time></trkpt><trkpt lat="41.3343985" lon="1.6814469"><ele>181.0</ele><time>2026-05-04T16:37:14.505Z</time></trkpt><trkpt lat="41.3343978" lon="1.6816602"><ele>182.0</ele><time>2026-05-04T16:37:15.509Z</time></trkpt><trkpt lat="41.3343971" lon="1.6818735"><ele>183.0</ele><time>2026-05-04T16:37:16.509Z</time></trkpt><trkpt lat="41.3343909" lon="1.6820925"><ele>183.0</ele><time>2026-05-04T16:37:17.509Z</time></trkpt><trkpt lat="41.3343879" lon="1.6823115"><ele>183.0</ele><time>2026-05-04T16:37:18.508Z</time></trkpt><trkpt lat="41.3343849" lon="1.6825231"><ele>183.0</ele><time>2026-05-04T16:37:19.509Z</time></trkpt><trkpt lat="41.3343781" lon="1.6827375"><ele>183.0</ele><time>2026-05-04T16:37:20.511Z</time></trkpt><trkpt lat="41.3343748" lon="1.6829553"><ele>183.0</ele><time>2026-05-04T16:37:21.516Z</time></trkpt><trkpt lat="41.3343704" lon="1.6831733"><ele>183.0</ele><time>2026-05-04T16:37:22.515Z</time></trkpt><trkpt lat="41.3343582" lon="1.6833924"><ele>186.0</ele><time>2026-05-04T16:37:23.514Z</time></trkpt><trkpt lat="41.3343361" lon="1.6838247"><ele>189.0</ele><time>2026-05-04T16:37:25.512Z</time></trkpt><trkpt lat="41.3343295" lon="1.6840377"><ele>189.0</ele><time>2026-05-04T16:37:26.511Z</time></trkpt><trkpt lat="41.334321" lon="1.6842496"><ele>189.0</ele><time>2026-05-04T16:37:27.51Z</time></trkpt><trkpt lat="41.3343209" lon="1.6844643"><ele>189.0</ele><time>2026-05-04T16:37:28.512Z</time></trkpt><trkpt lat="41.3343174" lon="1.6846827"><ele>189.0</ele><time>2026-05-04T16:37:29.515Z</time></trkpt><trkpt lat="41.3343082" lon="1.6848998"><ele>189.0</ele><time>2026-05-04T16:37:30.517Z</time></trkpt><trkpt lat="41.3343059" lon="1.6851208"><ele>189.0</ele><time>2026-05-04T16:37:31.512Z</time></trkpt><trkpt lat="41.3343049" lon="1.6853397"><ele>188.66666666666666</ele><time>2026-05-04T16:37:32.512Z</time></trkpt><trkpt lat="41.3342986" lon="1.6855539"><ele>188.33333333333331</ele><time>2026-05-04T16:37:33.511Z</time></trkpt><trkpt lat="41.3342914" lon="1.6857571"><ele>188.0</ele><time>2026-05-04T16:37:34.521Z</time></trkpt><trkpt lat="41.3342898" lon="1.6859753"><ele>188.33333333333331</ele><time>2026-05-04T16:37:35.507Z</time></trkpt><trkpt lat="41.3342816" lon="1.6861754"><ele>188.66666666666666</ele><time>2026-05-04T16:37:36.505Z</time></trkpt><trkpt lat="41.3342722" lon="1.6863839"><ele>189.0</ele><time>2026-05-04T16:37:37.512Z</time></trkpt><trkpt lat="41.3342675" lon="1.6865784"><ele>189.0</ele><time>2026-05-04T16:37:38.513Z</time></trkpt><trkpt lat="41.3342628" lon="1.6867815"><ele>189.0</ele><time>2026-05-04T16:37:39.509Z</time></trkpt><trkpt lat="41.3342594" lon="1.6869867"><ele>189.0</ele><time>2026-05-04T16:37:40.509Z</time></trkpt><trkpt lat="41.3342484" lon="1.6871836"><ele>189.5</ele><time>2026-05-04T16:37:41.507Z</time></trkpt><trkpt lat="41.3342407" lon="1.68737"><ele>190.0</ele><time>2026-05-04T16:37:42.51Z</time></trkpt><trkpt lat="41.334231" lon="1.6875505"><ele>190.5</ele><time>2026-05-04T16:37:43.508Z</time></trkpt><trkpt lat="41.3342291" lon="1.6877384"><ele>191.0</ele><time>2026-05-04T16:37:44.505Z</time></trkpt><trkpt lat="41.3342153" lon="1.6879302"><ele>191.0</ele><time>2026-05-04T16:37:45.506Z</time></trkpt><trkpt lat="41.3342043" lon="1.6881308"><ele>191.0</ele><time>2026-05-04T16:37:46.506Z</time></trkpt><trkpt lat="41.3342017" lon="1.688335"><ele>191.0</ele><time>2026-05-04T16:37:47.512Z</time></trkpt><trkpt lat="41.3341933" lon="1.6885428"><ele>192.0</ele><time>2026-05-04T16:37:48.496Z</time></trkpt><trkpt lat="41.3341922" lon="1.6887499"><ele>193.0</ele><time>2026-05-04T16:37:49.507Z</time></trkpt><trkpt lat="41.3341831" lon="1.6889563"><ele>194.0</ele><time>2026-05-04T16:37:50.505Z</time></trkpt><trkpt lat="41.3341725" lon="1.6891623"><ele>194.0</ele><time>2026-05-04T16:37:51.503Z</time></trkpt><trkpt lat="41.3341678" lon="1.6893741"><ele>194.0</ele><time>2026-05-04T16:37:52.509Z</time></trkpt><trkpt lat="41.3341603" lon="1.6895848"><ele>194.0</ele><time>2026-05-04T16:37:53.503Z</time></trkpt><trkpt lat="41.3341521" lon="1.6897853"><ele>194.0</ele><time>2026-05-04T16:37:54.509Z</time></trkpt><trkpt lat="41.3341408" lon="1.6899919"><ele>194.0</ele><time>2026-05-04T16:37:55.509Z</time></trkpt><trkpt lat="41.3341325" lon="1.6901999"><ele>194.0</ele><time>2026-05-04T16:37:56.507Z</time></trkpt><trkpt lat="41.3341194" lon="1.6904172"><ele>194.0</ele><time>2026-05-04T16:37:57.503Z</time></trkpt><trkpt lat="41.3341148" lon="1.6906085"><ele>194.0</ele><time>2026-05-04T16:37:58.506Z</time></trkpt><trkpt lat="41.334115" lon="1.6908129"><ele>194.0</ele><time>2026-05-04T16:37:59.501Z</time></trkpt><trkpt lat="41.3341226" lon="1.6910101"><ele>194.0</ele><time>2026-05-04T16:38:00.508Z</time></trkpt><trkpt lat="41.3341262" lon="1.6912316"><ele>195.0</ele><time>2026-05-04T16:38:01.493Z</time></trkpt><trkpt lat="41.334123" lon="1.6914291"><ele>196.0</ele><time>2026-05-04T16:38:02.505Z</time></trkpt><trkpt lat="41.3341257" lon="1.691623"><ele>197.0</ele><time>2026-05-04T16:38:03.503Z</time></trkpt><trkpt lat="41.3341237" lon="1.691797"><ele>198.0</ele><time>2026-05-04T16:38:04.504Z</time></trkpt><trkpt lat="41.3341182" lon="1.6919672"><ele>198.5</ele><time>2026-05-04T16:38:05.511Z</time></trkpt><trkpt lat="41.3341215" lon="1.6921263"><ele>199.0</ele><time>2026-05-04T16:38:06.505Z</time></trkpt><trkpt lat="41.3341243" lon="1.6922891"><ele>199.5</ele><time>2026-05-04T16:38:07.499Z</time></trkpt><trkpt lat="41.3341211" lon="1.692445"><ele>200.0</ele><time>2026-05-04T16:38:08.505Z</time></trkpt><trkpt lat="41.3341187" lon="1.6926103"><ele>200.5</ele><time>2026-05-04T16:38:09.5Z</time></trkpt><trkpt lat="41.3341178" lon="1.692774"><ele>201.0</ele><time>2026-05-04T16:38:10.507Z</time></trkpt><trkpt lat="41.3341156" lon="1.6929411"><ele>201.5</ele><time>2026-05-04T16:38:11.498Z</time></trkpt><trkpt lat="41.3341145" lon="1.6931022"><ele>202.0</ele><time>2026-05-04T16:38:12.502Z</time></trkpt><trkpt lat="41.3341164" lon="1.6932665"><ele>202.0</ele><time>2026-05-04T16:38:13.5Z</time></trkpt><trkpt lat="41.3341115" lon="1.6934298"><ele>202.0</ele><time>2026-05-04T16:38:14.495Z</time></trkpt><trkpt lat="41.3341105" lon="1.6935949"><ele>202.0</ele><time>2026-05-04T16:38:15.496Z</time></trkpt><trkpt lat="41.3341135" lon="1.693766"><ele>202.0</ele><time>2026-05-04T16:38:16.498Z</time></trkpt><trkpt lat="41.3341163" lon="1.6939476"><ele>202.75</ele><time>2026-05-04T16:38:17.497Z</time></trkpt><trkpt lat="41.3341133" lon="1.6941335"><ele>203.5</ele><time>2026-05-04T16:38:18.492Z</time></trkpt><trkpt lat="41.3341161" lon="1.6943122"><ele>204.25</ele><time>2026-05-04T16:38:19.491Z</time></trkpt><trkpt lat="41.3341146" lon="1.6944983"><ele>205.0</ele><time>2026-05-04T16:38:20.488Z</time></trkpt><trkpt lat="41.33411" lon="1.6947112"><ele>205.25</ele><time>2026-05-04T16:38:21.493Z</time></trkpt><trkpt lat="41.3341099" lon="1.6949195"><ele>205.5</ele><time>2026-05-04T16:38:22.493Z</time></trkpt><trkpt lat="41.3341078" lon="1.6951058"><ele>205.75</ele><time>2026-05-04T16:38:23.493Z</time></trkpt><trkpt lat="41.3341093" lon="1.6952772"><ele>206.0</ele><time>2026-05-04T16:38:24.5Z</time></trkpt><trkpt lat="41.3341107" lon="1.6954312"><ele>205.8</ele><time>2026-05-04T16:38:25.495Z</time></trkpt><trkpt lat="41.3341088" lon="1.6955698"><ele>205.60000000000002</ele><time>2026-05-04T16:38:26.493Z</time></trkpt><trkpt lat="41.3341095" lon="1.6957039"><ele>205.4</ele><time>2026-05-04T16:38:27.495Z</time></trkpt><trkpt lat="41.3341077" lon="1.6958367"><ele>205.2</ele><time>2026-05-04T16:38:28.495Z</time></trkpt><trkpt lat="41.3341104" lon="1.6959739"><ele>205.0</ele><time>2026-05-04T16:38:29.494Z</time></trkpt><trkpt lat="41.3341098" lon="1.6961129"><ele>205.0</ele><time>2026-05-04T16:38:30.505Z</time></trkpt><trkpt lat="41.3341062" lon="1.6962562"><ele>205.0</ele><time>2026-05-04T16:38:31.505Z</time></trkpt><trkpt lat="41.334104" lon="1.6964055"><ele>205.0</ele><time>2026-05-04T16:38:32.501Z</time></trkpt><trkpt lat="41.3340981" lon="1.6965537"><ele>205.0</ele><time>2026-05-04T16:38:33.502Z</time></trkpt><trkpt lat="41.3340948" lon="1.6967044"><ele>205.0</ele><time>2026-05-04T16:38:34.506Z</time></trkpt><trkpt lat="41.3340948" lon="1.6968508"><ele>205.25</ele><time>2026-05-04T16:38:35.503Z</time></trkpt><trkpt lat="41.3340969" lon="1.6970015"><ele>205.5</ele><time>2026-05-04T16:38:36.513Z</time></trkpt><trkpt lat="41.3340954" lon="1.6971522"><ele>205.75</ele><time>2026-05-04T16:38:37.499Z</time></trkpt><trkpt lat="41.3340947" lon="1.6973068"><ele>206.0</ele><time>2026-05-04T16:38:38.501Z</time></trkpt><trkpt lat="41.3340945" lon="1.6974638"><ele>206.0</ele><time>2026-05-04T16:38:39.506Z</time></trkpt><trkpt lat="41.3340918" lon="1.6976201"><ele>206.0</ele><time>2026-05-04T16:38:40.496Z</time></trkpt><trkpt lat="41.3340861" lon="1.6977874"><ele>206.0</ele><time>2026-05-04T16:38:41.499Z</time></trkpt><trkpt lat="41.3340788" lon="1.6979537"><ele>206.0</ele><time>2026-05-04T16:38:42.501Z</time></trkpt><trkpt lat="41.3340731" lon="1.6981278"><ele>205.25</ele><time>2026-05-04T16:38:43.501Z</time></trkpt><trkpt lat="41.3340686" lon="1.6983003"><ele>204.5</ele><time>2026-05-04T16:38:44.502Z</time></trkpt><trkpt lat="41.3340623" lon="1.698468"><ele>203.75</ele><time>2026-05-04T16:38:45.501Z</time></trkpt><trkpt lat="41.3340586" lon="1.6986406"><ele>203.0</ele><time>2026-05-04T16:38:46.498Z</time></trkpt><trkpt lat="41.3340546" lon="1.6988149"><ele>203.0</ele><time>2026-05-04T16:38:47.498Z</time></trkpt><trkpt lat="41.3340484" lon="1.6989928"><ele>203.0</ele><time>2026-05-04T16:38:48.501Z</time></trkpt><trkpt lat="41.3340414" lon="1.6991729"><ele>203.0</ele><time>2026-05-04T16:38:49.498Z</time></trkpt><trkpt lat="41.3340345" lon="1.6993495"><ele>203.0</ele><time>2026-05-04T16:38:50.501Z</time></trkpt><trkpt lat="41.3340261" lon="1.6995274"><ele>203.0</ele><time>2026-05-04T16:38:51.5Z</time></trkpt><trkpt lat="41.3340165" lon="1.6997062"><ele>203.0</ele><time>2026-05-04T16:38:52.5Z</time></trkpt><trkpt lat="41.3340073" lon="1.6998901"><ele>203.0</ele><time>2026-05-04T16:38:53.504Z</time></trkpt><trkpt lat="41.3339994" lon="1.7000833"><ele>203.0</ele><time>2026-05-04T16:38:54.511Z</time></trkpt><trkpt lat="41.3339952" lon="1.7002712"><ele>203.0</ele><time>2026-05-04T16:38:55.509Z</time></trkpt><trkpt lat="41.3339923" lon="1.7004559"><ele>203.0</ele><time>2026-05-04T16:38:56.501Z</time></trkpt><trkpt lat="41.3339883" lon="1.7006355"><ele>203.0</ele><time>2026-05-04T16:38:57.502Z</time></trkpt><trkpt lat="41.3339934" lon="1.7008202"><ele>203.0</ele><time>2026-05-04T16:38:58.505Z</time></trkpt><trkpt lat="41.3340031" lon="1.7010051"><ele>203.0</ele><time>2026-05-04T16:38:59.499Z</time></trkpt><trkpt lat="41.3340163" lon="1.7011924"><ele>203.0</ele><time>2026-05-04T16:39:00.507Z</time></trkpt><trkpt lat="41.3340303" lon="1.7013803"><ele>203.0</ele><time>2026-05-04T16:39:01.504Z</time></trkpt><trkpt lat="41.334045" lon="1.7015743"><ele>203.0</ele><time>2026-05-04T16:39:02.505Z</time></trkpt><trkpt lat="41.3340604" lon="1.7017687"><ele>202.75</ele><time>2026-05-04T16:39:03.506Z</time></trkpt><trkpt lat="41.3340907" lon="1.7019635"><ele>202.5</ele><time>2026-05-04T16:39:04.507Z</time></trkpt><trkpt lat="41.3341271" lon="1.7021557"><ele>202.25</ele><time>2026-05-04T16:39:05.509Z</time></trkpt><trkpt lat="41.3341642" lon="1.7023505"><ele>202.0</ele><time>2026-05-04T16:39:06.508Z</time></trkpt><trkpt lat="41.3342043" lon="1.7025498"><ele>202.66666666666666</ele><time>2026-05-04T16:39:07.513Z</time></trkpt><trkpt lat="41.3342517" lon="1.7027593"><ele>203.33333333333331</ele><time>2026-05-04T16:39:08.508Z</time></trkpt><trkpt lat="41.3342929" lon="1.7029565"><ele>204.0</ele><time>2026-05-04T16:39:09.508Z</time></trkpt><trkpt lat="41.3343409" lon="1.7031435"><ele>204.0</ele><time>2026-05-04T16:39:10.504Z</time></trkpt><trkpt lat="41.3343999" lon="1.7033297"><ele>204.0</ele><time>2026-05-04T16:39:11.506Z</time></trkpt><trkpt lat="41.3344604" lon="1.7035166"><ele>204.0</ele><time>2026-05-04T16:39:12.507Z</time></trkpt><trkpt lat="41.3345242" lon="1.7037001"><ele>203.0</ele><time>2026-05-04T16:39:13.508Z</time></trkpt><trkpt lat="41.3345956" lon="1.7038831"><ele>202.0</ele><time>2026-05-04T16:39:14.506Z</time></trkpt><trkpt lat="41.3346744" lon="1.704066"><ele>201.0</ele><time>2026-05-04T16:39:15.511Z</time></trkpt><trkpt lat="41.3347541" lon="1.7042428"><ele>200.66666666666669</ele><time>2026-05-04T16:39:16.51Z</time></trkpt><trkpt lat="41.3348381" lon="1.7044193"><ele>200.33333333333334</ele><time>2026-05-04T16:39:17.509Z</time></trkpt><trkpt lat="41.3349215" lon="1.7045944"><ele>200.0</ele><time>2026-05-04T16:39:18.508Z</time></trkpt><trkpt lat="41.3350034" lon="1.7047649"><ele>200.0</ele><time>2026-05-04T16:39:19.505Z</time></trkpt><trkpt lat="41.3350906" lon="1.7049272"><ele>200.0</ele><time>2026-05-04T16:39:20.509Z</time></trkpt><trkpt lat="41.3351804" lon="1.7050892"><ele>200.0</ele><time>2026-05-04T16:39:21.512Z</time></trkpt><trkpt lat="41.3352847" lon="1.7052457"><ele>200.33333333333334</ele><time>2026-05-04T16:39:22.514Z</time></trkpt><trkpt lat="41.3353888" lon="1.705399"><ele>200.66666666666669</ele><time>2026-05-04T16:39:23.512Z</time></trkpt><trkpt lat="41.3354984" lon="1.7055508"><ele>201.0</ele><time>2026-05-04T16:39:24.514Z</time></trkpt><trkpt lat="41.3356038" lon="1.7056957"><ele>201.33333333333331</ele><time>2026-05-04T16:39:25.515Z</time></trkpt><trkpt lat="41.3357204" lon="1.7058478"><ele>201.66666666666666</ele><time>2026-05-04T16:39:26.513Z</time></trkpt><trkpt lat="41.3358414" lon="1.705984"><ele>202.0</ele><time>2026-05-04T16:39:27.514Z</time></trkpt><trkpt lat="41.3359621" lon="1.7061184"><ele>202.0</ele><time>2026-05-04T16:39:28.513Z</time></trkpt><trkpt lat="41.3360876" lon="1.7062569"><ele>202.0</ele><time>2026-05-04T16:39:29.51Z</time></trkpt><trkpt lat="41.3362206" lon="1.7063959"><ele>202.0</ele><time>2026-05-04T16:39:30.517Z</time></trkpt><trkpt lat="41.3363573" lon="1.7065283"><ele>201.66666666666666</ele><time>2026-05-04T16:39:31.511Z</time></trkpt><trkpt lat="41.3365028" lon="1.7066474"><ele>201.33333333333331</ele><time>2026-05-04T16:39:32.512Z</time></trkpt><trkpt lat="41.336652" lon="1.7067718"><ele>201.0</ele><time>2026-05-04T16:39:33.513Z</time></trkpt><trkpt lat="41.3368015" lon="1.7068868"><ele>201.33333333333331</ele><time>2026-05-04T16:39:34.509Z</time></trkpt><trkpt lat="41.3369498" lon="1.7069909"><ele>201.66666666666666</ele><time>2026-05-04T16:39:35.509Z</time></trkpt><trkpt lat="41.337097" lon="1.7070872"><ele>202.0</ele><time>2026-05-04T16:39:36.51Z</time></trkpt><trkpt lat="41.337247" lon="1.7071713"><ele>202.66666666666666</ele><time>2026-05-04T16:39:37.51Z</time></trkpt><trkpt lat="41.3374018" lon="1.7072517"><ele>203.33333333333331</ele><time>2026-05-04T16:39:38.519Z</time></trkpt><trkpt lat="41.3375583" lon="1.7073334"><ele>204.0</ele><time>2026-05-04T16:39:39.508Z</time></trkpt><trkpt lat="41.3377106" lon="1.7074094"><ele>204.0</ele><time>2026-05-04T16:39:40.509Z</time></trkpt><trkpt lat="41.3378582" lon="1.707485"><ele>204.0</ele><time>2026-05-04T16:39:41.506Z</time></trkpt><trkpt lat="41.3380045" lon="1.707555"><ele>204.0</ele><time>2026-05-04T16:39:42.508Z</time></trkpt><trkpt lat="41.3381487" lon="1.7076363"><ele>204.33333333333331</ele><time>2026-05-04T16:39:43.509Z</time></trkpt><trkpt lat="41.3382959" lon="1.707719"><ele>204.66666666666666</ele><time>2026-05-04T16:39:44.509Z</time></trkpt><trkpt lat="41.3384367" lon="1.7078013"><ele>205.0</ele><time>2026-05-04T16:39:45.509Z</time></trkpt><trkpt lat="41.3385821" lon="1.7078924"><ele>205.0</ele><time>2026-05-04T16:39:46.507Z</time></trkpt><trkpt lat="41.3387246" lon="1.7079789"><ele>205.0</ele><time>2026-05-04T16:39:47.508Z</time></trkpt><trkpt lat="41.3388683" lon="1.7080705"><ele>205.0</ele><time>2026-05-04T16:39:48.51Z</time></trkpt><trkpt lat="41.3390007" lon="1.7081609"><ele>205.25</ele><time>2026-05-04T16:39:49.508Z</time></trkpt><trkpt lat="41.3391344" lon="1.7082468"><ele>205.5</ele><time>2026-05-04T16:39:50.51Z</time></trkpt><trkpt lat="41.339266" lon="1.7083415"><ele>205.75</ele><time>2026-05-04T16:39:51.511Z</time></trkpt><trkpt lat="41.3393953" lon="1.7084261"><ele>206.0</ele><time>2026-05-04T16:39:52.51Z</time></trkpt><trkpt lat="41.3395237" lon="1.7085065"><ele>205.75</ele><time>2026-05-04T16:39:53.511Z</time></trkpt><trkpt lat="41.339651" lon="1.7085887"><ele>205.5</ele><time>2026-05-04T16:39:54.513Z</time></trkpt><trkpt lat="41.3397766" lon="1.7086765"><ele>205.25</ele><time>2026-05-04T16:39:55.51Z</time></trkpt><trkpt lat="41.3398982" lon="1.7087577"><ele>205.0</ele><time>2026-05-04T16:39:56.506Z</time></trkpt><trkpt lat="41.3400158" lon="1.708841"><ele>204.75</ele><time>2026-05-04T16:39:57.506Z</time></trkpt><trkpt lat="41.3401318" lon="1.7089288"><ele>204.5</ele><time>2026-05-04T16:39:58.508Z</time></trkpt><trkpt lat="41.340248" lon="1.7090146"><ele>204.25</ele><time>2026-05-04T16:39:59.509Z</time></trkpt><trkpt lat="41.3403604" lon="1.709103"><ele>204.0</ele><time>2026-05-04T16:40:00.511Z</time></trkpt><trkpt lat="41.3404764" lon="1.7091875"><ele>204.75</ele><time>2026-05-04T16:40:01.514Z</time></trkpt><trkpt lat="41.3405954" lon="1.7092724"><ele>205.5</ele><time>2026-05-04T16:40:02.507Z</time></trkpt><trkpt lat="41.3407146" lon="1.7093585"><ele>206.25</ele><time>2026-05-04T16:40:03.502Z</time></trkpt><trkpt lat="41.3408222" lon="1.7094481"><ele>207.0</ele><time>2026-05-04T16:40:04.513Z</time></trkpt><trkpt lat="41.3409349" lon="1.7095352"><ele>207.0</ele><time>2026-05-04T16:40:05.509Z</time></trkpt><trkpt lat="41.3410386" lon="1.709612"><ele>207.0</ele><time>2026-05-04T16:40:06.508Z</time></trkpt><trkpt lat="41.341141" lon="1.7096869"><ele>207.0</ele><time>2026-05-04T16:40:07.507Z</time></trkpt><trkpt lat="41.3412338" lon="1.7097605"><ele>207.0</ele><time>2026-05-04T16:40:08.509Z</time></trkpt><trkpt lat="41.341333" lon="1.7098336"><ele>207.39999999999998</ele><time>2026-05-04T16:40:09.517Z</time></trkpt><trkpt lat="41.3414224" lon="1.7099058"><ele>207.79999999999998</ele><time>2026-05-04T16:40:10.511Z</time></trkpt><trkpt lat="41.3415142" lon="1.7099765"><ele>208.2</ele><time>2026-05-04T16:40:11.509Z</time></trkpt><trkpt lat="41.3415993" lon="1.7100535"><ele>208.6</ele><time>2026-05-04T16:40:12.503Z</time></trkpt><trkpt lat="41.3416936" lon="1.710134"><ele>209.0</ele><time>2026-05-04T16:40:13.505Z</time></trkpt><trkpt lat="41.3417869" lon="1.710205"><ele>208.79999999999998</ele><time>2026-05-04T16:40:14.509Z</time></trkpt><trkpt lat="41.3418801" lon="1.7102792"><ele>208.6</ele><time>2026-05-04T16:40:15.508Z</time></trkpt><trkpt lat="41.3419714" lon="1.7103553"><ele>208.4</ele><time>2026-05-04T16:40:16.512Z</time></trkpt><trkpt lat="41.3420662" lon="1.7104301"><ele>208.2</ele><time>2026-05-04T16:40:17.508Z</time></trkpt><trkpt lat="41.3421608" lon="1.7105065"><ele>208.0</ele><time>2026-05-04T16:40:18.507Z</time></trkpt><trkpt lat="41.3422613" lon="1.7105858"><ele>208.75</ele><time>2026-05-04T16:40:19.506Z</time></trkpt><trkpt lat="41.3423603" lon="1.7106675"><ele>209.5</ele><time>2026-05-04T16:40:20.511Z</time></trkpt><trkpt lat="41.3424618" lon="1.710752"><ele>210.25</ele><time>2026-05-04T16:40:21.508Z</time></trkpt><trkpt lat="41.3425684" lon="1.7108395"><ele>211.0</ele><time>2026-05-04T16:40:22.513Z</time></trkpt><trkpt lat="41.3426795" lon="1.7109268"><ele>211.0</ele><time>2026-05-04T16:40:23.509Z</time></trkpt><trkpt lat="41.3427937" lon="1.7110178"><ele>211.0</ele><time>2026-05-04T16:40:24.512Z</time></trkpt><trkpt lat="41.3429085" lon="1.7111069"><ele>211.0</ele><time>2026-05-04T16:40:25.512Z</time></trkpt><trkpt lat="41.3430172" lon="1.7111922"><ele>211.0</ele><time>2026-05-04T16:40:26.511Z</time></trkpt><trkpt lat="41.3431292" lon="1.7112805"><ele>211.5</ele><time>2026-05-04T16:40:27.514Z</time></trkpt><trkpt lat="41.3432437" lon="1.7113744"><ele>212.0</ele><time>2026-05-04T16:40:28.509Z</time></trkpt><trkpt lat="41.3433558" lon="1.711469"><ele>212.5</ele><time>2026-05-04T16:40:29.509Z</time></trkpt><trkpt lat="41.3434684" lon="1.7115614"><ele>213.0</ele><time>2026-05-04T16:40:30.511Z</time></trkpt><trkpt lat="41.3435842" lon="1.7116511"><ele>213.0</ele><time>2026-05-04T16:40:31.507Z</time></trkpt><trkpt lat="41.3436991" lon="1.711739"><ele>213.0</ele><time>2026-05-04T16:40:32.508Z</time></trkpt><trkpt lat="41.3438129" lon="1.7118286"><ele>213.0</ele><time>2026-05-04T16:40:33.507Z</time></trkpt><trkpt lat="41.3439279" lon="1.7119227"><ele>213.0</ele><time>2026-05-04T16:40:34.509Z</time></trkpt><trkpt lat="41.3440389" lon="1.7120174"><ele>211.75</ele><time>2026-05-04T16:40:35.508Z</time></trkpt><trkpt lat="41.3441552" lon="1.7121106"><ele>210.5</ele><time>2026-05-04T16:40:36.509Z</time></trkpt><trkpt lat="41.3442722" lon="1.7121969"><ele>209.25</ele><time>2026-05-04T16:40:37.507Z</time></trkpt><trkpt lat="41.3443803" lon="1.7122773"><ele>208.0</ele><time>2026-05-04T16:40:38.511Z</time></trkpt><trkpt lat="41.3444831" lon="1.7123504"><ele>208.0</ele><time>2026-05-04T16:40:39.507Z</time></trkpt><trkpt lat="41.3445798" lon="1.7124264"><ele>208.0</ele><time>2026-05-04T16:40:40.516Z</time></trkpt><trkpt lat="41.3446585" lon="1.7124922"><ele>208.0</ele><time>2026-05-04T16:40:41.509Z</time></trkpt><trkpt lat="41.3447314" lon="1.7125669"><ele>208.0</ele><time>2026-05-04T16:40:42.512Z</time></trkpt><trkpt lat="41.3448044" lon="1.7126356"><ele>208.0</ele><time>2026-05-04T16:40:43.511Z</time></trkpt><trkpt lat="41.3448795" lon="1.712702"><ele>208.4</ele><time>2026-05-04T16:40:44.509Z</time></trkpt><trkpt lat="41.3449612" lon="1.7127722"><ele>208.8</ele><time>2026-05-04T16:40:45.51Z</time></trkpt><trkpt lat="41.345043" lon="1.7128436"><ele>209.2</ele><time>2026-05-04T16:40:46.51Z</time></trkpt><trkpt lat="41.3451335" lon="1.712918"><ele>209.6</ele><time>2026-05-04T16:40:47.509Z</time></trkpt><trkpt lat="41.3452323" lon="1.7129918"><ele>210.0</ele><time>2026-05-04T16:40:48.508Z</time></trkpt><trkpt lat="41.3453379" lon="1.7130702"><ele>210.0</ele><time>2026-05-04T16:40:49.509Z</time></trkpt><trkpt lat="41.3454393" lon="1.7131501"><ele>210.0</ele><time>2026-05-04T16:40:50.509Z</time></trkpt><trkpt lat="41.3455406" lon="1.7132288"><ele>210.0</ele><time>2026-05-04T16:40:51.512Z</time></trkpt><trkpt lat="41.3456395" lon="1.7133025"><ele>210.0</ele><time>2026-05-04T16:40:52.51Z</time></trkpt><trkpt lat="41.3457385" lon="1.7133729"><ele>211.0</ele><time>2026-05-04T16:40:53.509Z</time></trkpt><trkpt lat="41.3458391" lon="1.7134466"><ele>212.0</ele><time>2026-05-04T16:40:54.512Z</time></trkpt><trkpt lat="41.3459411" lon="1.713522"><ele>213.0</ele><time>2026-05-04T16:40:55.51Z</time></trkpt><trkpt lat="41.3460452" lon="1.7135984"><ele>214.0</ele><time>2026-05-04T16:40:56.511Z</time></trkpt><trkpt lat="41.3461494" lon="1.7136765"><ele>214.25</ele><time>2026-05-04T16:40:57.515Z</time></trkpt><trkpt lat="41.3462539" lon="1.7137495"><ele>214.5</ele><time>2026-05-04T16:40:58.516Z</time></trkpt><trkpt lat="41.3463602" lon="1.7138269"><ele>214.75</ele><time>2026-05-04T16:40:59.511Z</time></trkpt><trkpt lat="41.3464664" lon="1.7139046"><ele>215.0</ele><time>2026-05-04T16:41:00.517Z</time></trkpt><trkpt lat="41.3465734" lon="1.7139794"><ele>215.25</ele><time>2026-05-04T16:41:01.513Z</time></trkpt><trkpt lat="41.3466814" lon="1.7140579"><ele>215.5</ele><time>2026-05-04T16:41:02.513Z</time></trkpt><trkpt lat="41.3467942" lon="1.7141382"><ele>215.75</ele><time>2026-05-04T16:41:03.512Z</time></trkpt><trkpt lat="41.3469058" lon="1.7142192"><ele>216.0</ele><time>2026-05-04T16:41:04.512Z</time></trkpt><trkpt lat="41.3470163" lon="1.7143024"><ele>216.0</ele><time>2026-05-04T16:41:05.514Z</time></trkpt><trkpt lat="41.34713" lon="1.7143818"><ele>216.0</ele><time>2026-05-04T16:41:06.511Z</time></trkpt><trkpt lat="41.3472396" lon="1.7144646"><ele>216.0</ele><time>2026-05-04T16:41:07.508Z</time></trkpt><trkpt lat="41.347348" lon="1.71455"><ele>216.0</ele><time>2026-05-04T16:41:08.51Z</time></trkpt><trkpt lat="41.3474556" lon="1.7146362"><ele>216.5</ele><time>2026-05-04T16:41:09.509Z</time></trkpt><trkpt lat="41.347568" lon="1.7147199"><ele>217.0</ele><time>2026-05-04T16:41:10.51Z</time></trkpt><trkpt lat="41.3476806" lon="1.7148035"><ele>217.5</ele><time>2026-05-04T16:41:11.52Z</time></trkpt><trkpt lat="41.3477939" lon="1.7148879"><ele>218.0</ele><time>2026-05-04T16:41:12.512Z</time></trkpt><trkpt lat="41.3479067" lon="1.7149728"><ele>218.0</ele><time>2026-05-04T16:41:13.511Z</time></trkpt><trkpt lat="41.3480197" lon="1.7150601"><ele>218.0</ele><time>2026-05-04T16:41:14.511Z</time></trkpt><trkpt lat="41.3481341" lon="1.7151501"><ele>218.0</ele><time>2026-05-04T16:41:15.51Z</time></trkpt><trkpt lat="41.3482482" lon="1.715244"><ele>218.0</ele><time>2026-05-04T16:41:16.515Z</time></trkpt><trkpt lat="41.3483615" lon="1.7153427"><ele>218.5</ele><time>2026-05-04T16:41:17.509Z</time></trkpt><trkpt lat="41.348472" lon="1.7154477"><ele>219.0</ele><time>2026-05-04T16:41:18.514Z</time></trkpt><trkpt lat="41.3485833" lon="1.7155614"><ele>219.5</ele><time>2026-05-04T16:41:19.506Z</time></trkpt><trkpt lat="41.3486936" lon="1.7156974"><ele>220.0</ele><time>2026-05-04T16:41:20.51Z</time></trkpt><trkpt lat="41.3487965" lon="1.7158439"><ele>220.0</ele><time>2026-05-04T16:41:21.511Z</time></trkpt><trkpt lat="41.3488869" lon="1.7159855"><ele>220.0</ele><time>2026-05-04T16:41:22.513Z</time></trkpt><trkpt lat="41.3489712" lon="1.7161363"><ele>220.0</ele><time>2026-05-04T16:41:23.51Z</time></trkpt><trkpt lat="41.3490449" lon="1.7162859"><ele>220.0</ele><time>2026-05-04T16:41:24.512Z</time></trkpt><trkpt lat="41.3491159" lon="1.7164431"><ele>221.0</ele><time>2026-05-04T16:41:25.512Z</time></trkpt><trkpt lat="41.3491855" lon="1.7166131"><ele>222.0</ele><time>2026-05-04T16:41:26.513Z</time></trkpt><trkpt lat="41.3492457" lon="1.7167844"><ele>223.0</ele><time>2026-05-04T16:41:27.512Z</time></trkpt><trkpt lat="41.3492938" lon="1.7169659"><ele>224.0</ele><time>2026-05-04T16:41:28.511Z</time></trkpt><trkpt lat="41.349333" lon="1.7171494"><ele>224.5</ele><time>2026-05-04T16:41:29.514Z</time></trkpt><trkpt lat="41.3493768" lon="1.7173249"><ele>225.0</ele><time>2026-05-04T16:41:30.519Z</time></trkpt><trkpt lat="41.34942" lon="1.7175013"><ele>225.5</ele><time>2026-05-04T16:41:31.512Z</time></trkpt><trkpt lat="41.3494594" lon="1.7176737"><ele>226.0</ele><time>2026-05-04T16:41:32.513Z</time></trkpt><trkpt lat="41.349506" lon="1.7178574"><ele>226.75</ele><time>2026-05-04T16:41:33.507Z</time></trkpt><trkpt lat="41.3495455" lon="1.7180361"><ele>227.5</ele><time>2026-05-04T16:41:34.506Z</time></trkpt><trkpt lat="41.3495936" lon="1.7182128"><ele>228.25</ele><time>2026-05-04T16:41:35.505Z</time></trkpt><trkpt lat="41.3496363" lon="1.7183936"><ele>229.0</ele><time>2026-05-04T16:41:36.509Z</time></trkpt><trkpt lat="41.3496999" lon="1.7185562"><ele>228.25</ele><time>2026-05-04T16:41:37.502Z</time></trkpt><trkpt lat="41.3497305" lon="1.7187737"><ele>227.5</ele><time>2026-05-04T16:41:38.492Z</time></trkpt><trkpt lat="41.3497611" lon="1.7189259"><ele>226.75</ele><time>2026-05-04T16:41:39.481Z</time></trkpt><trkpt lat="41.3497876" lon="1.7190733"><ele>226.0</ele><time>2026-05-04T16:41:40.497Z</time></trkpt><trkpt lat="41.3498189" lon="1.719219"><ele>226.0</ele><time>2026-05-04T16:41:41.508Z</time></trkpt><trkpt lat="41.3498532" lon="1.7193616"><ele>226.00000000000003</ele><time>2026-05-04T16:41:42.527Z</time></trkpt><trkpt lat="41.3498856" lon="1.7195015"><ele>226.00000000000003</ele><time>2026-05-04T16:41:43.504Z</time></trkpt><trkpt lat="41.3499108" lon="1.71965"><ele>226.0</ele><time>2026-05-04T16:41:44.508Z</time></trkpt><trkpt lat="41.3499336" lon="1.7197821"><ele>226.0</ele><time>2026-05-04T16:41:45.505Z</time></trkpt><trkpt lat="41.3499621" lon="1.7199147"><ele>225.8</ele><time>2026-05-04T16:41:46.51Z</time></trkpt><trkpt lat="41.3499839" lon="1.7200409"><ele>225.60000000000002</ele><time>2026-05-04T16:41:47.504Z</time></trkpt><trkpt lat="41.3500006" lon="1.7201637"><ele>225.4</ele><time>2026-05-04T16:41:48.509Z</time></trkpt><trkpt lat="41.3500162" lon="1.7202909"><ele>225.2</ele><time>2026-05-04T16:41:49.508Z</time></trkpt><trkpt lat="41.3500315" lon="1.7204119"><ele>225.0</ele><time>2026-05-04T16:41:50.507Z</time></trkpt><trkpt lat="41.3500482" lon="1.720517"><ele>225.0</ele><time>2026-05-04T16:41:51.512Z</time></trkpt><trkpt lat="41.3500651" lon="1.7206114"><ele>225.0</ele><time>2026-05-04T16:41:52.509Z</time></trkpt><trkpt lat="41.3500779" lon="1.7206937"><ele>225.0</ele><time>2026-05-04T16:41:53.507Z</time></trkpt><trkpt lat="41.3500998" lon="1.7208218"><ele>225.0</ele><time>2026-05-04T16:41:55.511Z</time></trkpt><trkpt lat="41.3501202" lon="1.720908"><ele>225.0</ele><time>2026-05-04T16:41:57.508Z</time></trkpt><trkpt lat="41.3501766" lon="1.7207938"><ele>225.0</ele><time>2026-05-04T16:44:01.517Z</time></trkpt></trkseg><trkseg><trkpt lat="41.3508699" lon="1.8219259"><ele>289.0</ele><time>2026-05-04T17:13:34.948Z</time></trkpt><trkpt lat="41.3511868" lon="1.8220755"><ele>289.0</ele><time>2026-05-04T17:13:37.929Z</time></trkpt><trkpt lat="41.3513069" lon="1.8220983"><ele>290.59999999999997</ele><time>2026-05-04T17:13:38.929Z</time></trkpt><trkpt lat="41.3514197" lon="1.822118"><ele>292.2</ele><time>2026-05-04T17:13:39.944Z</time></trkpt><trkpt lat="41.3515212" lon="1.8221446"><ele>293.79999999999995</ele><time>2026-05-04T17:13:40.93Z</time></trkpt><trkpt lat="41.3516028" lon="1.8221957"><ele>295.4</ele><time>2026-05-04T17:13:41.939Z</time></trkpt><trkpt lat="41.351658" lon="1.8222816"><ele>297.0</ele><time>2026-05-04T17:13:42.93Z</time></trkpt><trkpt lat="41.3516582" lon="1.8223992"><ele>297.0</ele><time>2026-05-04T17:13:43.937Z</time></trkpt><trkpt lat="41.3516258" lon="1.8225306"><ele>297.0</ele><time>2026-05-04T17:13:44.927Z</time></trkpt><trkpt lat="41.3515938" lon="1.8226723"><ele>297.0</ele><time>2026-05-04T17:13:45.929Z</time></trkpt><trkpt lat="41.3515743" lon="1.8228254"><ele>297.0</ele><time>2026-05-04T17:13:46.933Z</time></trkpt><trkpt lat="41.3515742" lon="1.8229934"><ele>296.0</ele><time>2026-05-04T17:13:47.927Z</time></trkpt><trkpt lat="41.351587" lon="1.8231549"><ele>295.0</ele><time>2026-05-04T17:13:48.928Z</time></trkpt><trkpt lat="41.3516168" lon="1.8233097"><ele>294.0</ele><time>2026-05-04T17:13:49.938Z</time></trkpt><trkpt lat="41.3517581" lon="1.8235179"><ele>292.0</ele><time>2026-05-04T17:13:51.731Z</time></trkpt><trkpt lat="41.3519226" lon="1.8236422"><ele>290.0</ele><time>2026-05-04T17:13:53.525Z</time></trkpt><trkpt lat="41.3519992" lon="1.8237159"><ele>288.0</ele><time>2026-05-04T17:13:54.498Z</time></trkpt><trkpt lat="41.3520622" lon="1.8238059"><ele>286.0</ele><time>2026-05-04T17:13:55.497Z</time></trkpt><trkpt lat="41.3520868" lon="1.8239204"><ele>286.0</ele><time>2026-05-04T17:13:56.529Z</time></trkpt><trkpt lat="41.3520652" lon="1.824039"><ele>286.0</ele><time>2026-05-04T17:13:57.492Z</time></trkpt><trkpt lat="41.3520313" lon="1.8241718"><ele>286.0</ele><time>2026-05-04T17:13:58.499Z</time></trkpt><trkpt lat="41.3520204" lon="1.824312"><ele>286.0</ele><time>2026-05-04T17:13:59.501Z</time></trkpt><trkpt lat="41.3520504" lon="1.8244408"><ele>286.0</ele><time>2026-05-04T17:14:00.503Z</time></trkpt><trkpt lat="41.3521182" lon="1.8245582"><ele>285.8</ele><time>2026-05-04T17:14:01.497Z</time></trkpt><trkpt lat="41.3521659" lon="1.8246858"><ele>285.6</ele><time>2026-05-04T17:14:02.496Z</time></trkpt><trkpt lat="41.3521816" lon="1.8248254"><ele>285.4</ele><time>2026-05-04T17:14:03.503Z</time></trkpt><trkpt lat="41.3521474" lon="1.8249655"><ele>285.2</ele><time>2026-05-04T17:14:04.499Z</time></trkpt><trkpt lat="41.35208" lon="1.8250995"><ele>285.0</ele><time>2026-05-04T17:14:05.488Z</time></trkpt><trkpt lat="41.3520045" lon="1.8252354"><ele>284.5</ele><time>2026-05-04T17:14:06.5Z</time></trkpt><trkpt lat="41.3519314" lon="1.8253768"><ele>284.0</ele><time>2026-05-04T17:14:07.496Z</time></trkpt><trkpt lat="41.3518731" lon="1.8255192"><ele>283.5</ele><time>2026-05-04T17:14:08.496Z</time></trkpt><trkpt lat="41.351832" lon="1.825667"><ele>283.0</ele><time>2026-05-04T17:14:09.497Z</time></trkpt><trkpt lat="41.3518317" lon="1.8258168"><ele>283.0</ele><time>2026-05-04T17:14:10.504Z</time></trkpt><trkpt lat="41.3518705" lon="1.8259745"><ele>283.0</ele><time>2026-05-04T17:14:11.498Z</time></trkpt><trkpt lat="41.3519189" lon="1.8261312"><ele>283.0</ele><time>2026-05-04T17:14:12.503Z</time></trkpt><trkpt lat="41.3519749" lon="1.8262854"><ele>283.0</ele><time>2026-05-04T17:14:13.497Z</time></trkpt><trkpt lat="41.3520465" lon="1.8264257"><ele>281.5</ele><time>2026-05-04T17:14:14.498Z</time></trkpt><trkpt lat="41.3521449" lon="1.8265421"><ele>280.0</ele><time>2026-05-04T17:14:15.498Z</time></trkpt><trkpt lat="41.3522612" lon="1.8266185"><ele>278.5</ele><time>2026-05-04T17:14:16.491Z</time></trkpt><trkpt lat="41.3523646" lon="1.8266879"><ele>277.0</ele><time>2026-05-04T17:14:17.493Z</time></trkpt><trkpt lat="41.3524519" lon="1.8267686"><ele>279.4</ele><time>2026-05-04T17:14:18.494Z</time></trkpt><trkpt lat="41.352499" lon="1.8268577"><ele>281.79999999999995</ele><time>2026-05-04T17:14:19.502Z</time></trkpt><trkpt lat="41.3525075" lon="1.8269723"><ele>284.2</ele><time>2026-05-04T17:14:20.497Z</time></trkpt><trkpt lat="41.3524709" lon="1.8271051"><ele>286.59999999999997</ele><time>2026-05-04T17:14:21.494Z</time></trkpt><trkpt lat="41.3524131" lon="1.8272443"><ele>289.0</ele><time>2026-05-04T17:14:22.497Z</time></trkpt><trkpt lat="41.3523838" lon="1.8273916"><ele>289.0</ele><time>2026-05-04T17:14:23.492Z</time></trkpt><trkpt lat="41.3523722" lon="1.8275524"><ele>289.0</ele><time>2026-05-04T17:14:24.491Z</time></trkpt><trkpt lat="41.3523763" lon="1.8277174"><ele>289.0</ele><time>2026-05-04T17:14:25.494Z</time></trkpt><trkpt lat="41.3523854" lon="1.827884"><ele>289.0</ele><time>2026-05-04T17:14:26.51Z</time></trkpt><trkpt lat="41.3523982" lon="1.8280476"><ele>288.25</ele><time>2026-05-04T17:14:27.514Z</time></trkpt><trkpt lat="41.3524207" lon="1.8282044"><ele>287.5</ele><time>2026-05-04T17:14:28.49Z</time></trkpt><trkpt lat="41.3524517" lon="1.8283547"><ele>286.75</ele><time>2026-05-04T17:14:29.493Z</time></trkpt><trkpt lat="41.3525003" lon="1.8284922"><ele>286.0</ele><time>2026-05-04T17:14:30.501Z</time></trkpt><trkpt lat="41.3525753" lon="1.828581"><ele>286.0</ele><time>2026-05-04T17:14:31.501Z</time></trkpt><trkpt lat="41.3526382" lon="1.8286527"><ele>286.0</ele><time>2026-05-04T17:14:32.496Z</time></trkpt><trkpt lat="41.3526605" lon="1.8287424"><ele>286.0</ele><time>2026-05-04T17:14:33.495Z</time></trkpt><trkpt lat="41.3526333" lon="1.8288582"><ele>286.0</ele><time>2026-05-04T17:14:34.508Z</time></trkpt><trkpt lat="41.3525705" lon="1.8289665"><ele>286.0</ele><time>2026-05-04T17:14:35.492Z</time></trkpt><trkpt lat="41.3524977" lon="1.8290757"><ele>286.0</ele><time>2026-05-04T17:14:36.494Z</time></trkpt><trkpt lat="41.3524165" lon="1.8291787"><ele>286.0</ele><time>2026-05-04T17:14:37.489Z</time></trkpt><trkpt lat="41.3523286" lon="1.8292736"><ele>286.0</ele><time>2026-05-04T17:14:38.495Z</time></trkpt><trkpt lat="41.3522291" lon="1.8293406"><ele>286.0</ele><time>2026-05-04T17:14:39.492Z</time></trkpt><trkpt lat="41.3521228" lon="1.8293979"><ele>287.5</ele><time>2026-05-04T17:14:40.494Z</time></trkpt><trkpt lat="41.3520154" lon="1.8294577"><ele>289.0</ele><time>2026-05-04T17:14:41.499Z</time></trkpt><trkpt lat="41.3519095" lon="1.8295187"><ele>290.5</ele><time>2026-05-04T17:14:42.498Z</time></trkpt><trkpt lat="41.3518073" lon="1.8295804"><ele>292.0</ele><time>2026-05-04T17:14:43.501Z</time></trkpt><trkpt lat="41.3517114" lon="1.8296402"><ele>292.0</ele><time>2026-05-04T17:14:44.499Z</time></trkpt><trkpt lat="41.3516213" lon="1.8296928"><ele>292.0</ele><time>2026-05-04T17:14:45.5Z</time></trkpt><trkpt lat="41.3515389" lon="1.8297408"><ele>292.0</ele><time>2026-05-04T17:14:46.504Z</time></trkpt><trkpt lat="41.3514587" lon="1.8297812"><ele>292.0</ele><time>2026-05-04T17:14:47.492Z</time></trkpt><trkpt lat="41.3513688" lon="1.8298028"><ele>292.0</ele><time>2026-05-04T17:14:48.497Z</time></trkpt><trkpt lat="41.3512786" lon="1.8297794"><ele>294.0</ele><time>2026-05-04T17:14:49.5Z</time></trkpt><trkpt lat="41.351182" lon="1.8297103"><ele>296.0</ele><time>2026-05-04T17:14:50.498Z</time></trkpt><trkpt lat="41.3510978" lon="1.829619"><ele>298.0</ele><time>2026-05-04T17:14:51.494Z</time></trkpt><trkpt lat="41.3510275" lon="1.8295132"><ele>300.0</ele><time>2026-05-04T17:14:52.496Z</time></trkpt><trkpt lat="41.3509734" lon="1.8293954"><ele>302.0</ele><time>2026-05-04T17:14:53.487Z</time></trkpt><trkpt lat="41.3509387" lon="1.8292677"><ele>302.0</ele><time>2026-05-04T17:14:54.488Z</time></trkpt><trkpt lat="41.3509049" lon="1.8291398"><ele>302.0</ele><time>2026-05-04T17:14:55.487Z</time></trkpt><trkpt lat="41.3508575" lon="1.8290219"><ele>302.0</ele><time>2026-05-04T17:14:56.495Z</time></trkpt><trkpt lat="41.3507943" lon="1.8289127"><ele>302.0</ele><time>2026-05-04T17:14:57.488Z</time></trkpt><trkpt lat="41.3507137" lon="1.8288202"><ele>302.0</ele><time>2026-05-04T17:14:58.505Z</time></trkpt><trkpt lat="41.3506187" lon="1.8287412"><ele>303.5</ele><time>2026-05-04T17:14:59.485Z</time></trkpt><trkpt lat="41.3505143" lon="1.8286639"><ele>305.0</ele><time>2026-05-04T17:15:00.484Z</time></trkpt><trkpt lat="41.3504039" lon="1.8285799"><ele>306.5</ele><time>2026-05-04T17:15:01.479Z</time></trkpt><trkpt lat="41.3502889" lon="1.8284938"><ele>308.0</ele><time>2026-05-04T17:15:02.499Z</time></trkpt><trkpt lat="41.3501699" lon="1.8283945"><ele>308.0</ele><time>2026-05-04T17:15:03.491Z</time></trkpt><trkpt lat="41.3500494" lon="1.8282927"><ele>308.0</ele><time>2026-05-04T17:15:04.492Z</time></trkpt><trkpt lat="41.3499256" lon="1.8281913"><ele>308.0</ele><time>2026-05-04T17:15:05.492Z</time></trkpt><trkpt lat="41.3497932" lon="1.8281312"><ele>308.0</ele><time>2026-05-04T17:15:06.495Z</time></trkpt><trkpt lat="41.3496601" lon="1.8281141"><ele>308.5</ele><time>2026-05-04T17:15:07.495Z</time></trkpt><trkpt lat="41.3495273" lon="1.8281367"><ele>309.0</ele><time>2026-05-04T17:15:08.489Z</time></trkpt><trkpt lat="41.349406" lon="1.8281979"><ele>309.5</ele><time>2026-05-04T17:15:09.505Z</time></trkpt><trkpt lat="41.349311" lon="1.8283056"><ele>310.0</ele><time>2026-05-04T17:15:10.505Z</time></trkpt><trkpt lat="41.3492575" lon="1.8284459"><ele>309.4</ele><time>2026-05-04T17:15:11.504Z</time></trkpt><trkpt lat="41.3492319" lon="1.8285829"><ele>308.8</ele><time>2026-05-04T17:15:12.5Z</time></trkpt><trkpt lat="41.3492141" lon="1.8287291"><ele>308.2</ele><time>2026-05-04T17:15:13.496Z</time></trkpt><trkpt lat="41.3492307" lon="1.8288657"><ele>307.6</ele><time>2026-05-04T17:15:14.494Z</time></trkpt><trkpt lat="41.3492534" lon="1.8290145"><ele>307.0</ele><time>2026-05-04T17:15:15.493Z</time></trkpt><trkpt lat="41.3492738" lon="1.8291688"><ele>307.25</ele><time>2026-05-04T17:15:16.499Z</time></trkpt><trkpt lat="41.3492812" lon="1.8293355"><ele>307.5</ele><time>2026-05-04T17:15:17.493Z</time></trkpt><trkpt lat="41.3492654" lon="1.8295091"><ele>307.75</ele><time>2026-05-04T17:15:18.493Z</time></trkpt><trkpt lat="41.3492272" lon="1.8296941"><ele>308.0</ele><time>2026-05-04T17:15:19.496Z</time></trkpt><trkpt lat="41.3491697" lon="1.8298794"><ele>308.0</ele><time>2026-05-04T17:15:20.497Z</time></trkpt><trkpt lat="41.3491001" lon="1.8300639"><ele>308.0</ele><time>2026-05-04T17:15:21.502Z</time></trkpt><trkpt lat="41.3490426" lon="1.830246"><ele>308.0</ele><time>2026-05-04T17:15:22.496Z</time></trkpt><trkpt lat="41.3490183" lon="1.8304257"><ele>308.0</ele><time>2026-05-04T17:15:23.515Z</time></trkpt><trkpt lat="41.349033" lon="1.8306152"><ele>308.33333333333337</ele><time>2026-05-04T17:15:24.5Z</time></trkpt><trkpt lat="41.3490802" lon="1.8308138"><ele>308.6666666666667</ele><time>2026-05-04T17:15:25.497Z</time></trkpt><trkpt lat="41.3491363" lon="1.8310049"><ele>309.0</ele><time>2026-05-04T17:15:26.496Z</time></trkpt><trkpt lat="41.3492172" lon="1.8311621"><ele>307.5</ele><time>2026-05-04T17:15:27.489Z</time></trkpt><trkpt lat="41.3493062" lon="1.8312947"><ele>306.0</ele><time>2026-05-04T17:15:28.496Z</time></trkpt><trkpt lat="41.3493997" lon="1.8314033"><ele>304.5</ele><time>2026-05-04T17:15:29.519Z</time></trkpt><trkpt lat="41.3495019" lon="1.831524"><ele>303.0</ele><time>2026-05-04T17:15:30.498Z</time></trkpt><trkpt lat="41.3495922" lon="1.8316716"><ele>301.25</ele><time>2026-05-04T17:15:31.49Z</time></trkpt><trkpt lat="41.3496559" lon="1.8318395"><ele>299.5</ele><time>2026-05-04T17:15:32.494Z</time></trkpt><trkpt lat="41.3496894" lon="1.8320121"><ele>297.75</ele><time>2026-05-04T17:15:33.5Z</time></trkpt><trkpt lat="41.3497193" lon="1.8321807"><ele>296.0</ele><time>2026-05-04T17:15:34.496Z</time></trkpt><trkpt lat="41.3497627" lon="1.8323364"><ele>299.5</ele><time>2026-05-04T17:15:35.496Z</time></trkpt><trkpt lat="41.3498263" lon="1.8324809"><ele>303.0</ele><time>2026-05-04T17:15:36.497Z</time></trkpt><trkpt lat="41.3498947" lon="1.8326166"><ele>306.5</ele><time>2026-05-04T17:15:37.501Z</time></trkpt><trkpt lat="41.3499536" lon="1.8327533"><ele>310.0</ele><time>2026-05-04T17:15:38.492Z</time></trkpt><trkpt lat="41.3499978" lon="1.8328918"><ele>310.0</ele><time>2026-05-04T17:15:39.504Z</time></trkpt><trkpt lat="41.3500076" lon="1.8330356"><ele>310.0</ele><time>2026-05-04T17:15:40.501Z</time></trkpt><trkpt lat="41.3499651" lon="1.8331791"><ele>310.0</ele><time>2026-05-04T17:15:41.503Z</time></trkpt><trkpt lat="41.34988" lon="1.833314"><ele>310.0</ele><time>2026-05-04T17:15:42.493Z</time></trkpt><trkpt lat="41.3497848" lon="1.8334439"><ele>308.25</ele><time>2026-05-04T17:15:43.489Z</time></trkpt><trkpt lat="41.3496842" lon="1.8335568"><ele>306.5</ele><time>2026-05-04T17:15:44.493Z</time></trkpt><trkpt lat="41.349577" lon="1.8336544"><ele>304.75</ele><time>2026-05-04T17:15:45.493Z</time></trkpt><trkpt lat="41.3494677" lon="1.8337397"><ele>303.0</ele><time>2026-05-04T17:15:46.496Z</time></trkpt><trkpt lat="41.3493652" lon="1.8338193"><ele>303.0</ele><time>2026-05-04T17:15:47.49Z</time></trkpt><trkpt lat="41.3492636" lon="1.8338929"><ele>303.0</ele><time>2026-05-04T17:15:48.49Z</time></trkpt><trkpt lat="41.3491709" lon="1.8339631"><ele>303.0</ele><time>2026-05-04T17:15:49.497Z</time></trkpt><trkpt lat="41.349089" lon="1.8340326"><ele>303.0</ele><time>2026-05-04T17:15:50.492Z</time></trkpt><trkpt lat="41.3490271" lon="1.8341192"><ele>303.0</ele><time>2026-05-04T17:15:51.503Z</time></trkpt><trkpt lat="41.3489885" lon="1.8342333"><ele>302.8333333333333</ele><time>2026-05-04T17:15:52.504Z</time></trkpt><trkpt lat="41.3489779" lon="1.8343564"><ele>302.6666666666667</ele><time>2026-05-04T17:15:53.502Z</time></trkpt><trkpt lat="41.348986" lon="1.8344779"><ele>302.5</ele><time>2026-05-04T17:15:54.498Z</time></trkpt><trkpt lat="41.3489989" lon="1.8345946"><ele>302.33333333333337</ele><time>2026-05-04T17:15:55.498Z</time></trkpt><trkpt lat="41.3490323" lon="1.8347048"><ele>302.1666666666667</ele><time>2026-05-04T17:15:56.512Z</time></trkpt><trkpt lat="41.3490891" lon="1.8347868"><ele>302.0</ele><time>2026-05-04T17:15:57.499Z</time></trkpt><trkpt lat="41.3491638" lon="1.8348328"><ele>302.0</ele><time>2026-05-04T17:15:58.501Z</time></trkpt><trkpt lat="41.3492616" lon="1.8348447"><ele>302.0</ele><time>2026-05-04T17:15:59.499Z</time></trkpt><trkpt lat="41.3493738" lon="1.8348344"><ele>302.0</ele><time>2026-05-04T17:16:00.542Z</time></trkpt><trkpt lat="41.3494934" lon="1.8348176"><ele>302.0</ele><time>2026-05-04T17:16:01.504Z</time></trkpt><trkpt lat="41.349617" lon="1.8347946"><ele>302.2</ele><time>2026-05-04T17:16:02.498Z</time></trkpt><trkpt lat="41.3497402" lon="1.8347729"><ele>302.4</ele><time>2026-05-04T17:16:03.493Z</time></trkpt><trkpt lat="41.3498541" lon="1.8347553"><ele>302.6</ele><time>2026-05-04T17:16:04.487Z</time></trkpt><trkpt lat="41.3499549" lon="1.8347519"><ele>302.8</ele><time>2026-05-04T17:16:05.485Z</time></trkpt><trkpt lat="41.3500446" lon="1.8347514"><ele>303.0</ele><time>2026-05-04T17:16:06.487Z</time></trkpt><trkpt lat="41.350125" lon="1.8347512"><ele>303.0</ele><time>2026-05-04T17:16:07.493Z</time></trkpt><trkpt lat="41.3501963" lon="1.8347744"><ele>303.0</ele><time>2026-05-04T17:16:08.493Z</time></trkpt><trkpt lat="41.3502534" lon="1.8348283"><ele>303.0</ele><time>2026-05-04T17:16:09.498Z</time></trkpt><trkpt lat="41.3502813" lon="1.834925"><ele>303.0</ele><time>2026-05-04T17:16:10.495Z</time></trkpt><trkpt lat="41.3502599" lon="1.8350361"><ele>303.0</ele><time>2026-05-04T17:16:11.496Z</time></trkpt><trkpt lat="41.3501869" lon="1.8351281"><ele>303.0</ele><time>2026-05-04T17:16:12.489Z</time></trkpt><trkpt lat="41.3500839" lon="1.8351956"><ele>301.75</ele><time>2026-05-04T17:16:13.484Z</time></trkpt><trkpt lat="41.3499791" lon="1.8352567"><ele>300.5</ele><time>2026-05-04T17:16:14.487Z</time></trkpt><trkpt lat="41.3498675" lon="1.8353269"><ele>299.25</ele><time>2026-05-04T17:16:15.494Z</time></trkpt><trkpt lat="41.349762" lon="1.8353959"><ele>298.0</ele><time>2026-05-04T17:16:16.487Z</time></trkpt><trkpt lat="41.3496536" lon="1.8354689"><ele>298.0</ele><time>2026-05-04T17:16:17.495Z</time></trkpt><trkpt lat="41.3495389" lon="1.8355586"><ele>298.0</ele><time>2026-05-04T17:16:18.483Z</time></trkpt><trkpt lat="41.3494264" lon="1.8356584"><ele>298.0</ele><time>2026-05-04T17:16:19.49Z</time></trkpt><trkpt lat="41.3493189" lon="1.8357741"><ele>298.0</ele><time>2026-05-04T17:16:20.49Z</time></trkpt><trkpt lat="41.3492096" lon="1.8358978"><ele>300.0</ele><time>2026-05-04T17:16:21.484Z</time></trkpt><trkpt lat="41.3490955" lon="1.8360489"><ele>302.0</ele><time>2026-05-04T17:16:22.487Z</time></trkpt><trkpt lat="41.3489747" lon="1.836196"><ele>304.0</ele><time>2026-05-04T17:16:23.488Z</time></trkpt><trkpt lat="41.3488505" lon="1.8363454"><ele>299.0</ele><time>2026-05-04T17:16:24.486Z</time></trkpt><trkpt lat="41.3487307" lon="1.8364976"><ele>294.0</ele><time>2026-05-04T17:16:25.487Z</time></trkpt><trkpt lat="41.3486115" lon="1.8366346"><ele>289.0</ele><time>2026-05-04T17:16:26.486Z</time></trkpt><trkpt lat="41.3485004" lon="1.8367701"><ele>289.5</ele><time>2026-05-04T17:16:27.489Z</time></trkpt><trkpt lat="41.3483869" lon="1.8369141"><ele>290.0</ele><time>2026-05-04T17:16:28.492Z</time></trkpt><trkpt lat="41.3482845" lon="1.8370507"><ele>290.5</ele><time>2026-05-04T17:16:29.489Z</time></trkpt><trkpt lat="41.3481981" lon="1.8371657"><ele>291.0</ele><time>2026-05-04T17:16:30.506Z</time></trkpt><trkpt lat="41.3481151" lon="1.8372823"><ele>288.75</ele><time>2026-05-04T17:16:31.486Z</time></trkpt><trkpt lat="41.3480368" lon="1.8373919"><ele>286.5</ele><time>2026-05-04T17:16:32.499Z</time></trkpt><trkpt lat="41.3479584" lon="1.8375082"><ele>284.25</ele><time>2026-05-04T17:16:33.493Z</time></trkpt><trkpt lat="41.3478674" lon="1.8376319"><ele>282.0</ele><time>2026-05-04T17:16:34.493Z</time></trkpt><trkpt lat="41.3477915" lon="1.8377365"><ele>280.5</ele><time>2026-05-04T17:16:35.493Z</time></trkpt><trkpt lat="41.3477319" lon="1.8378691"><ele>279.0</ele><time>2026-05-04T17:16:36.489Z</time></trkpt><trkpt lat="41.3476976" lon="1.8380226"><ele>277.5</ele><time>2026-05-04T17:16:37.496Z</time></trkpt><trkpt lat="41.3476752" lon="1.8381785"><ele>276.0</ele><time>2026-05-04T17:16:38.49Z</time></trkpt><trkpt lat="41.3476652" lon="1.8383373"><ele>275.0</ele><time>2026-05-04T17:16:39.489Z</time></trkpt><trkpt lat="41.3476756" lon="1.8384977"><ele>274.0</ele><time>2026-05-04T17:16:40.498Z</time></trkpt><trkpt lat="41.3477194" lon="1.8386444"><ele>273.0</ele><time>2026-05-04T17:16:41.486Z</time></trkpt><trkpt lat="41.3477837" lon="1.8387883"><ele>272.0</ele><time>2026-05-04T17:16:42.493Z</time></trkpt><trkpt lat="41.347878" lon="1.8389004"><ele>272.0</ele><time>2026-05-04T17:16:43.493Z</time></trkpt><trkpt lat="41.3479699" lon="1.8389953"><ele>272.0</ele><time>2026-05-04T17:16:44.487Z</time></trkpt><trkpt lat="41.3480603" lon="1.8390816"><ele>272.0</ele><time>2026-05-04T17:16:45.486Z</time></trkpt><trkpt lat="41.348142" lon="1.8391707"><ele>272.0</ele><time>2026-05-04T17:16:46.487Z</time></trkpt><trkpt lat="41.3482031" lon="1.8392779"><ele>272.0</ele><time>2026-05-04T17:16:47.491Z</time></trkpt><trkpt lat="41.3482417" lon="1.8394044"><ele>274.2</ele><time>2026-05-04T17:16:48.496Z</time></trkpt><trkpt lat="41.3482526" lon="1.8395429"><ele>276.4</ele><time>2026-05-04T17:16:49.486Z</time></trkpt><trkpt lat="41.3482462" lon="1.8396767"><ele>278.6</ele><time>2026-05-04T17:16:50.493Z</time></trkpt><trkpt lat="41.3482281" lon="1.8398101"><ele>280.8</ele><time>2026-05-04T17:16:51.497Z</time></trkpt><trkpt lat="41.348184" lon="1.839925"><ele>283.0</ele><time>2026-05-04T17:16:52.495Z</time></trkpt><trkpt lat="41.3481099" lon="1.8400118"><ele>282.5</ele><time>2026-05-04T17:16:53.492Z</time></trkpt><trkpt lat="41.3480074" lon="1.8400634"><ele>282.0</ele><time>2026-05-04T17:16:54.494Z</time></trkpt><trkpt lat="41.3478878" lon="1.8400799"><ele>281.5</ele><time>2026-05-04T17:16:55.492Z</time></trkpt><trkpt lat="41.347768" lon="1.8400526"><ele>281.0</ele><time>2026-05-04T17:16:56.493Z</time></trkpt><trkpt lat="41.3476624" lon="1.8399937"><ele>281.0</ele><time>2026-05-04T17:16:57.488Z</time></trkpt><trkpt lat="41.3475651" lon="1.8399253"><ele>281.0</ele><time>2026-05-04T17:16:58.495Z</time></trkpt><trkpt lat="41.3473666" lon="1.8398081"><ele>281.0</ele><time>2026-05-04T17:17:00.497Z</time></trkpt><trkpt lat="41.3472626" lon="1.8397761"><ele>281.0</ele><time>2026-05-04T17:17:01.505Z</time></trkpt><trkpt lat="41.3471543" lon="1.8397677"><ele>279.0</ele><time>2026-05-04T17:17:02.496Z</time></trkpt><trkpt lat="41.3470415" lon="1.8397988"><ele>277.0</ele><time>2026-05-04T17:17:03.493Z</time></trkpt><trkpt lat="41.346929" lon="1.8398678"><ele>275.0</ele><time>2026-05-04T17:17:04.49Z</time></trkpt><trkpt lat="41.3468181" lon="1.8399567"><ele>273.0</ele><time>2026-05-04T17:17:05.493Z</time></trkpt><trkpt lat="41.3467128" lon="1.8400481"><ele>275.25</ele><time>2026-05-04T17:17:06.491Z</time></trkpt><trkpt lat="41.3466234" lon="1.8401462"><ele>277.5</ele><time>2026-05-04T17:17:07.496Z</time></trkpt><trkpt lat="41.3465469" lon="1.8402714"><ele>279.75</ele><time>2026-05-04T17:17:08.5Z</time></trkpt><trkpt lat="41.3464867" lon="1.8404181"><ele>282.0</ele><time>2026-05-04T17:17:09.497Z</time></trkpt><trkpt lat="41.3464462" lon="1.8405861"><ele>282.0</ele><time>2026-05-04T17:17:10.498Z</time></trkpt><trkpt lat="41.3464214" lon="1.8407425"><ele>282.0</ele><time>2026-05-04T17:17:11.492Z</time></trkpt><trkpt lat="41.3463931" lon="1.840885"><ele>282.0</ele><time>2026-05-04T17:17:12.496Z</time></trkpt><trkpt lat="41.346354" lon="1.840997"><ele>282.0</ele><time>2026-05-04T17:17:13.502Z</time></trkpt><trkpt lat="41.3462919" lon="1.8410655"><ele>282.0</ele><time>2026-05-04T17:17:14.5Z</time></trkpt><trkpt lat="41.3462078" lon="1.841086"><ele>282.6</ele><time>2026-05-04T17:17:15.496Z</time></trkpt><trkpt lat="41.3461186" lon="1.8410368"><ele>283.2</ele><time>2026-05-04T17:17:16.502Z</time></trkpt><trkpt lat="41.3460344" lon="1.8409473"><ele>283.8</ele><time>2026-05-04T17:17:17.496Z</time></trkpt><trkpt lat="41.3459393" lon="1.8408885"><ele>284.4</ele><time>2026-05-04T17:17:18.492Z</time></trkpt><trkpt lat="41.3458408" lon="1.8408398"><ele>285.0</ele><time>2026-05-04T17:17:19.497Z</time></trkpt><trkpt lat="41.3457409" lon="1.8407988"><ele>282.25</ele><time>2026-05-04T17:17:20.498Z</time></trkpt><trkpt lat="41.3456357" lon="1.8407758"><ele>279.5</ele><time>2026-05-04T17:17:21.499Z</time></trkpt><trkpt lat="41.3455274" lon="1.8407768"><ele>276.75</ele><time>2026-05-04T17:17:22.499Z</time></trkpt><trkpt lat="41.3454151" lon="1.8408221"><ele>274.0</ele><time>2026-05-04T17:17:23.496Z</time></trkpt><trkpt lat="41.3453016" lon="1.8408843"><ele>273.0</ele><time>2026-05-04T17:17:24.495Z</time></trkpt><trkpt lat="41.3451841" lon="1.8409521"><ele>272.0</ele><time>2026-05-04T17:17:25.5Z</time></trkpt><trkpt lat="41.3450645" lon="1.8410236"><ele>271.0</ele><time>2026-05-04T17:17:26.502Z</time></trkpt><trkpt lat="41.3449479" lon="1.8410953"><ele>270.0</ele><time>2026-05-04T17:17:27.501Z</time></trkpt><trkpt lat="41.3448288" lon="1.8411556"><ele>270.5</ele><time>2026-05-04T17:17:28.5Z</time></trkpt><trkpt lat="41.3447147" lon="1.8412114"><ele>271.0</ele><time>2026-05-04T17:17:29.506Z</time></trkpt><trkpt lat="41.3446024" lon="1.8412575"><ele>271.5</ele><time>2026-05-04T17:17:30.505Z</time></trkpt><trkpt lat="41.3444956" lon="1.8413027"><ele>272.0</ele><time>2026-05-04T17:17:31.502Z</time></trkpt><trkpt lat="41.3443985" lon="1.8413449"><ele>272.0</ele><time>2026-05-04T17:17:32.522Z</time></trkpt><trkpt lat="41.3443045" lon="1.8413875"><ele>272.0</ele><time>2026-05-04T17:17:33.498Z</time></trkpt><trkpt lat="41.3442195" lon="1.8414296"><ele>272.0</ele><time>2026-05-04T17:17:34.496Z</time></trkpt><trkpt lat="41.3441472" lon="1.8414912"><ele>272.0</ele><time>2026-05-04T17:17:35.502Z</time></trkpt><trkpt lat="41.3440947" lon="1.8415808"><ele>272.0</ele><time>2026-05-04T17:17:36.506Z</time></trkpt><trkpt lat="41.3440825" lon="1.8417028"><ele>270.25</ele><time>2026-05-04T17:17:37.504Z</time></trkpt><trkpt lat="41.3441049" lon="1.841847"><ele>268.5</ele><time>2026-05-04T17:17:38.505Z</time></trkpt><trkpt lat="41.3441669" lon="1.8419719"><ele>266.75</ele><time>2026-05-04T17:17:39.501Z</time></trkpt><trkpt lat="41.3442427" lon="1.8420968"><ele>265.0</ele><time>2026-05-04T17:17:40.504Z</time></trkpt><trkpt lat="41.3443187" lon="1.8422248"><ele>265.0</ele><time>2026-05-04T17:17:41.503Z</time></trkpt><trkpt lat="41.3443996" lon="1.8423563"><ele>265.0</ele><time>2026-05-04T17:17:42.507Z</time></trkpt><trkpt lat="41.3444816" lon="1.8424915"><ele>265.0</ele><time>2026-05-04T17:17:43.505Z</time></trkpt><trkpt lat="41.3445642" lon="1.8426255"><ele>265.0</ele><time>2026-05-04T17:17:44.508Z</time></trkpt><trkpt lat="41.3446456" lon="1.8427626"><ele>266.5</ele><time>2026-05-04T17:17:45.501Z</time></trkpt><trkpt lat="41.3447199" lon="1.842901"><ele>268.0</ele><time>2026-05-04T17:17:46.505Z</time></trkpt><trkpt lat="41.344794" lon="1.843042"><ele>269.5</ele><time>2026-05-04T17:17:47.504Z</time></trkpt><trkpt lat="41.3448612" lon="1.8431798"><ele>271.0</ele><time>2026-05-04T17:17:48.503Z</time></trkpt><trkpt lat="41.3449267" lon="1.8433175"><ele>271.0</ele><time>2026-05-04T17:17:49.506Z</time></trkpt><trkpt lat="41.344996" lon="1.8434462"><ele>271.0</ele><time>2026-05-04T17:17:50.502Z</time></trkpt><trkpt lat="41.3450696" lon="1.8435649"><ele>271.0</ele><time>2026-05-04T17:17:51.502Z</time></trkpt><trkpt lat="41.3451559" lon="1.843674"><ele>271.0</ele><time>2026-05-04T17:17:52.501Z</time></trkpt><trkpt lat="41.345251" lon="1.8437765"><ele>271.25</ele><time>2026-05-04T17:17:53.502Z</time></trkpt><trkpt lat="41.3453517" lon="1.8438783"><ele>271.5</ele><time>2026-05-04T17:17:54.502Z</time></trkpt><trkpt lat="41.3454559" lon="1.8439821"><ele>271.75</ele><time>2026-05-04T17:17:55.496Z</time></trkpt><trkpt lat="41.3455591" lon="1.8440903"><ele>272.0</ele><time>2026-05-04T17:17:56.506Z</time></trkpt><trkpt lat="41.345665" lon="1.8441995"><ele>269.5</ele><time>2026-05-04T17:17:57.493Z</time></trkpt><trkpt lat="41.3457743" lon="1.8443097"><ele>267.0</ele><time>2026-05-04T17:17:58.502Z</time></trkpt><trkpt lat="41.3458814" lon="1.8444226"><ele>264.5</ele><time>2026-05-04T17:17:59.501Z</time></trkpt><trkpt lat="41.3459889" lon="1.8445316"><ele>262.0</ele><time>2026-05-04T17:18:00.506Z</time></trkpt><trkpt lat="41.3461008" lon="1.8446288"><ele>262.0</ele><time>2026-05-04T17:18:01.498Z</time></trkpt><trkpt lat="41.346222" lon="1.8447057"><ele>262.0</ele><time>2026-05-04T17:18:02.499Z</time></trkpt><trkpt lat="41.346347" lon="1.8447555"><ele>262.0</ele><time>2026-05-04T17:18:03.515Z</time></trkpt><trkpt lat="41.3464798" lon="1.8447884"><ele>262.0</ele><time>2026-05-04T17:18:04.498Z</time></trkpt><trkpt lat="41.3466099" lon="1.8448137"><ele>262.4</ele><time>2026-05-04T17:18:05.497Z</time></trkpt><trkpt lat="41.3467263" lon="1.8448432"><ele>262.79999999999995</ele><time>2026-05-04T17:18:06.492Z</time></trkpt><trkpt lat="41.3468247" lon="1.8448761"><ele>263.2</ele><time>2026-05-04T17:18:07.497Z</time></trkpt><trkpt lat="41.3469161" lon="1.844924"><ele>263.59999999999997</ele><time>2026-05-04T17:18:08.494Z</time></trkpt><trkpt lat="41.3469907" lon="1.8449978"><ele>264.0</ele><time>2026-05-04T17:18:09.497Z</time></trkpt><trkpt lat="41.3470318" lon="1.8451138"><ele>263.0</ele><time>2026-05-04T17:18:10.5Z</time></trkpt><trkpt lat="41.3470006" lon="1.845425"><ele>262.0</ele><time>2026-05-04T17:18:12.493Z</time></trkpt><trkpt lat="41.3469638" lon="1.8455904"><ele>261.0</ele><time>2026-05-04T17:18:13.5Z</time></trkpt><trkpt lat="41.346931" lon="1.845763"><ele>261.0</ele><time>2026-05-04T17:18:14.498Z</time></trkpt><trkpt lat="41.3469086" lon="1.8459316"><ele>261.0</ele><time>2026-05-04T17:18:15.495Z</time></trkpt><trkpt lat="41.3468908" lon="1.846093"><ele>261.0</ele><time>2026-05-04T17:18:16.494Z</time></trkpt><trkpt lat="41.3468742" lon="1.8462558"><ele>261.0</ele><time>2026-05-04T17:18:17.495Z</time></trkpt><trkpt lat="41.346861" lon="1.8464205"><ele>261.25</ele><time>2026-05-04T17:18:18.489Z</time></trkpt><trkpt lat="41.3468426" lon="1.8465955"><ele>261.5</ele><time>2026-05-04T17:18:19.491Z</time></trkpt><trkpt lat="41.3468231" lon="1.846767"><ele>261.75</ele><time>2026-05-04T17:18:20.491Z</time></trkpt><trkpt lat="41.3468023" lon="1.8469376"><ele>262.0</ele><time>2026-05-04T17:18:21.495Z</time></trkpt><trkpt lat="41.346781" lon="1.8471053"><ele>263.0</ele><time>2026-05-04T17:18:22.488Z</time></trkpt><trkpt lat="41.3467558" lon="1.847275"><ele>264.0</ele><time>2026-05-04T17:18:23.495Z</time></trkpt><trkpt lat="41.3467245" lon="1.8474454"><ele>265.0</ele><time>2026-05-04T17:18:24.496Z</time></trkpt><trkpt lat="41.3466827" lon="1.8476092"><ele>266.0</ele><time>2026-05-04T17:18:25.499Z</time></trkpt><trkpt lat="41.3466317" lon="1.847771"><ele>267.0</ele><time>2026-05-04T17:18:26.502Z</time></trkpt><trkpt lat="41.3465923" lon="1.8479277"><ele>268.0</ele><time>2026-05-04T17:18:27.498Z</time></trkpt><trkpt lat="41.3465512" lon="1.8480922"><ele>269.0</ele><time>2026-05-04T17:18:28.5Z</time></trkpt><trkpt lat="41.3465212" lon="1.848259"><ele>270.0</ele><time>2026-05-04T17:18:29.492Z</time></trkpt><trkpt lat="41.346504" lon="1.8484306"><ele>270.25</ele><time>2026-05-04T17:18:30.496Z</time></trkpt><trkpt lat="41.3464958" lon="1.8486117"><ele>270.5</ele><time>2026-05-04T17:18:31.493Z</time></trkpt><trkpt lat="41.3464956" lon="1.8487972"><ele>270.75</ele><time>2026-05-04T17:18:32.498Z</time></trkpt><trkpt lat="41.3464977" lon="1.8489823"><ele>271.0</ele><time>2026-05-04T17:18:33.493Z</time></trkpt><trkpt lat="41.3464875" lon="1.8491747"><ele>271.5</ele><time>2026-05-04T17:18:34.512Z</time></trkpt><trkpt lat="41.3464706" lon="1.8493663"><ele>272.0</ele><time>2026-05-04T17:18:35.492Z</time></trkpt><trkpt lat="41.3464546" lon="1.849555"><ele>272.5</ele><time>2026-05-04T17:18:36.494Z</time></trkpt><trkpt lat="41.346429" lon="1.8497477"><ele>273.0</ele><time>2026-05-04T17:18:37.494Z</time></trkpt><trkpt lat="41.3464059" lon="1.8499432"><ele>274.0</ele><time>2026-05-04T17:18:38.494Z</time></trkpt><trkpt lat="41.3463807" lon="1.8501407"><ele>275.0</ele><time>2026-05-04T17:18:39.494Z</time></trkpt><trkpt lat="41.346361" lon="1.8503363"><ele>276.0</ele><time>2026-05-04T17:18:40.494Z</time></trkpt><trkpt lat="41.3463323" lon="1.8505446"><ele>272.6666666666667</ele><time>2026-05-04T17:18:41.494Z</time></trkpt><trkpt lat="41.3463058" lon="1.8507491"><ele>269.33333333333337</ele><time>2026-05-04T17:18:42.491Z</time></trkpt><trkpt lat="41.3462838" lon="1.8509519"><ele>266.0</ele><time>2026-05-04T17:18:43.487Z</time></trkpt><trkpt lat="41.3462577" lon="1.8511409"><ele>266.0</ele><time>2026-05-04T17:18:44.496Z</time></trkpt><trkpt lat="41.3462405" lon="1.8513236"><ele>266.0</ele><time>2026-05-04T17:18:45.49Z</time></trkpt><trkpt lat="41.3462185" lon="1.8514969"><ele>266.0</ele><time>2026-05-04T17:18:46.492Z</time></trkpt><trkpt lat="41.3462032" lon="1.8516662"><ele>266.0</ele><time>2026-05-04T17:18:47.495Z</time></trkpt><trkpt lat="41.3461894" lon="1.8518247"><ele>267.0</ele><time>2026-05-04T17:18:48.492Z</time></trkpt><trkpt lat="41.3461689" lon="1.851995"><ele>268.0</ele><time>2026-05-04T17:18:49.492Z</time></trkpt><trkpt lat="41.3461455" lon="1.8521712"><ele>269.0</ele><time>2026-05-04T17:18:50.491Z</time></trkpt><trkpt lat="41.34613" lon="1.8523493"><ele>270.0</ele><time>2026-05-04T17:18:51.493Z</time></trkpt><trkpt lat="41.3461129" lon="1.8525191"><ele>270.25</ele><time>2026-05-04T17:18:52.485Z</time></trkpt><trkpt lat="41.346093" lon="1.852677"><ele>270.5</ele><time>2026-05-04T17:18:53.489Z</time></trkpt><trkpt lat="41.3460728" lon="1.8528317"><ele>270.75</ele><time>2026-05-04T17:18:54.488Z</time></trkpt><trkpt lat="41.3460512" lon="1.8529867"><ele>271.0</ele><time>2026-05-04T17:18:55.483Z</time></trkpt><trkpt lat="41.3460324" lon="1.8531434"><ele>271.0</ele><time>2026-05-04T17:18:56.498Z</time></trkpt><trkpt lat="41.3460197" lon="1.8532984"><ele>271.0</ele><time>2026-05-04T17:18:57.486Z</time></trkpt><trkpt lat="41.3460171" lon="1.8534556"><ele>271.0</ele><time>2026-05-04T17:18:58.491Z</time></trkpt><trkpt lat="41.3460305" lon="1.8536222"><ele>271.0</ele><time>2026-05-04T17:18:59.486Z</time></trkpt><trkpt lat="41.34606" lon="1.8537909"><ele>271.0</ele><time>2026-05-04T17:19:00.497Z</time></trkpt><trkpt lat="41.3460975" lon="1.8539635"><ele>271.0</ele><time>2026-05-04T17:19:01.491Z</time></trkpt><trkpt lat="41.3461459" lon="1.8541396"><ele>271.0</ele><time>2026-05-04T17:19:02.491Z</time></trkpt><trkpt lat="41.3461952" lon="1.8543181"><ele>271.0</ele><time>2026-05-04T17:19:03.491Z</time></trkpt><trkpt lat="41.346259" lon="1.8545007"><ele>269.66666666666663</ele><time>2026-05-04T17:19:04.491Z</time></trkpt><trkpt lat="41.3463342" lon="1.8546872"><ele>268.3333333333333</ele><time>2026-05-04T17:19:05.514Z</time></trkpt><trkpt lat="41.3464024" lon="1.8548699"><ele>267.0</ele><time>2026-05-04T17:19:06.487Z</time></trkpt><trkpt lat="41.3464737" lon="1.855032"><ele>269.25</ele><time>2026-05-04T17:19:07.49Z</time></trkpt><trkpt lat="41.3465458" lon="1.8551846"><ele>271.5</ele><time>2026-05-04T17:19:08.494Z</time></trkpt><trkpt lat="41.3466184" lon="1.8553409"><ele>273.75</ele><time>2026-05-04T17:19:09.496Z</time></trkpt><trkpt lat="41.3466839" lon="1.8554899"><ele>276.0</ele><time>2026-05-04T17:19:10.496Z</time></trkpt><trkpt lat="41.3467627" lon="1.8556388"><ele>276.0</ele><time>2026-05-04T17:19:11.495Z</time></trkpt><trkpt lat="41.3468411" lon="1.8557774"><ele>276.0</ele><time>2026-05-04T17:19:12.494Z</time></trkpt><trkpt lat="41.3469174" lon="1.8559164"><ele>276.0</ele><time>2026-05-04T17:19:13.492Z</time></trkpt><trkpt lat="41.3469862" lon="1.8560598"><ele>276.0</ele><time>2026-05-04T17:19:14.489Z</time></trkpt><trkpt lat="41.3470304" lon="1.8562199"><ele>277.0</ele><time>2026-05-04T17:19:15.496Z</time></trkpt><trkpt lat="41.3470451" lon="1.8563907"><ele>278.0</ele><time>2026-05-04T17:19:16.494Z</time></trkpt><trkpt lat="41.3470439" lon="1.8565564"><ele>279.0</ele><time>2026-05-04T17:19:17.489Z</time></trkpt><trkpt lat="41.3470319" lon="1.8567221"><ele>280.0</ele><time>2026-05-04T17:19:18.481Z</time></trkpt><trkpt lat="41.3470101" lon="1.8568769"><ele>280.0</ele><time>2026-05-04T17:19:19.489Z</time></trkpt><trkpt lat="41.3469782" lon="1.857015"><ele>280.0</ele><time>2026-05-04T17:19:20.488Z</time></trkpt><trkpt lat="41.3469308" lon="1.8571413"><ele>280.0</ele><time>2026-05-04T17:19:21.486Z</time></trkpt><trkpt lat="41.3468711" lon="1.8572523"><ele>280.0</ele><time>2026-05-04T17:19:22.495Z</time></trkpt><trkpt lat="41.3468018" lon="1.8573606"><ele>280.0</ele><time>2026-05-04T17:19:23.486Z</time></trkpt><trkpt lat="41.3467206" lon="1.8574538"><ele>280.0</ele><time>2026-05-04T17:19:24.492Z</time></trkpt><trkpt lat="41.3466285" lon="1.8575379"><ele>280.0</ele><time>2026-05-04T17:19:25.491Z</time></trkpt><trkpt lat="41.3465306" lon="1.8576204"><ele>280.0</ele><time>2026-05-04T17:19:26.501Z</time></trkpt><trkpt lat="41.3464304" lon="1.8577085"><ele>280.0</ele><time>2026-05-04T17:19:27.493Z</time></trkpt><trkpt lat="41.3463288" lon="1.8577973"><ele>280.5</ele><time>2026-05-04T17:19:28.496Z</time></trkpt><trkpt lat="41.3462309" lon="1.8578896"><ele>281.0</ele><time>2026-05-04T17:19:29.499Z</time></trkpt><trkpt lat="41.3461337" lon="1.8579805"><ele>281.5</ele><time>2026-05-04T17:19:30.496Z</time></trkpt><trkpt lat="41.3460341" lon="1.8580602"><ele>282.0</ele><time>2026-05-04T17:19:31.496Z</time></trkpt><trkpt lat="41.3459387" lon="1.8581364"><ele>282.0</ele><time>2026-05-04T17:19:32.495Z</time></trkpt><trkpt lat="41.3458404" lon="1.8582025"><ele>282.0</ele><time>2026-05-04T17:19:33.497Z</time></trkpt><trkpt lat="41.3457349" lon="1.8582347"><ele>282.0</ele><time>2026-05-04T17:19:34.507Z</time></trkpt><trkpt lat="41.3456278" lon="1.8582341"><ele>282.0</ele><time>2026-05-04T17:19:35.489Z</time></trkpt><trkpt lat="41.3455176" lon="1.8581952"><ele>282.0</ele><time>2026-05-04T17:19:36.499Z</time></trkpt><trkpt lat="41.3454109" lon="1.8581337"><ele>281.0</ele><time>2026-05-04T17:19:37.488Z</time></trkpt><trkpt lat="41.345308" lon="1.8580429"><ele>280.0</ele><time>2026-05-04T17:19:38.49Z</time></trkpt><trkpt lat="41.3452178" lon="1.8579167"><ele>279.0</ele><time>2026-05-04T17:19:39.484Z</time></trkpt><trkpt lat="41.3451308" lon="1.8577781"><ele>278.0</ele><time>2026-05-04T17:19:40.485Z</time></trkpt><trkpt lat="41.3450395" lon="1.8576496"><ele>280.5</ele><time>2026-05-04T17:19:41.485Z</time></trkpt><trkpt lat="41.3449457" lon="1.8575315"><ele>283.0</ele><time>2026-05-04T17:19:42.48Z</time></trkpt><trkpt lat="41.3448458" lon="1.8574262"><ele>285.5</ele><time>2026-05-04T17:19:43.488Z</time></trkpt><trkpt lat="41.3447319" lon="1.8573527"><ele>288.0</ele><time>2026-05-04T17:19:44.485Z</time></trkpt><trkpt lat="41.3446075" lon="1.8573137"><ele>288.0</ele><time>2026-05-04T17:19:45.484Z</time></trkpt><trkpt lat="41.3444841" lon="1.8572958"><ele>288.0</ele><time>2026-05-04T17:19:46.482Z</time></trkpt><trkpt lat="41.3443527" lon="1.857285"><ele>288.0</ele><time>2026-05-04T17:19:47.482Z</time></trkpt><trkpt lat="41.3442161" lon="1.8572952"><ele>288.0</ele><time>2026-05-04T17:19:48.48Z</time></trkpt><trkpt lat="41.3440835" lon="1.8573253"><ele>288.0</ele><time>2026-05-04T17:19:49.478Z</time></trkpt><trkpt lat="41.3439539" lon="1.8573712"><ele>288.0</ele><time>2026-05-04T17:19:50.481Z</time></trkpt><trkpt lat="41.3438317" lon="1.857433"><ele>288.0</ele><time>2026-05-04T17:19:51.486Z</time></trkpt><trkpt lat="41.3437179" lon="1.8575071"><ele>288.0</ele><time>2026-05-04T17:19:52.485Z</time></trkpt><trkpt lat="41.343604" lon="1.8575849"><ele>288.0</ele><time>2026-05-04T17:19:53.482Z</time></trkpt><trkpt lat="41.3434943" lon="1.8576741"><ele>288.0</ele><time>2026-05-04T17:19:54.483Z</time></trkpt><trkpt lat="41.3433838" lon="1.8577741"><ele>288.0</ele><time>2026-05-04T17:19:55.485Z</time></trkpt><trkpt lat="41.3432804" lon="1.8578906"><ele>288.0</ele><time>2026-05-04T17:19:56.487Z</time></trkpt><trkpt lat="41.3431848" lon="1.8580104"><ele>288.0</ele><time>2026-05-04T17:19:57.482Z</time></trkpt><trkpt lat="41.3431001" lon="1.8581379"><ele>288.0</ele><time>2026-05-04T17:19:58.48Z</time></trkpt><trkpt lat="41.3430182" lon="1.8582673"><ele>288.0</ele><time>2026-05-04T17:19:59.484Z</time></trkpt><trkpt lat="41.3429411" lon="1.8583956"><ele>288.0</ele><time>2026-05-04T17:20:00.487Z</time></trkpt><trkpt lat="41.3428622" lon="1.8585201"><ele>288.0</ele><time>2026-05-04T17:20:01.483Z</time></trkpt><trkpt lat="41.3427829" lon="1.8586395"><ele>288.0</ele><time>2026-05-04T17:20:02.486Z</time></trkpt><trkpt lat="41.3427048" lon="1.8587463"><ele>288.0</ele><time>2026-05-04T17:20:03.483Z</time></trkpt><trkpt lat="41.3426246" lon="1.8588415"><ele>288.0</ele><time>2026-05-04T17:20:04.483Z</time></trkpt><trkpt lat="41.3425423" lon="1.8589171"><ele>288.0</ele><time>2026-05-04T17:20:05.485Z</time></trkpt><trkpt lat="41.3424546" lon="1.8589677"><ele>288.0</ele><time>2026-05-04T17:20:06.496Z</time></trkpt><trkpt lat="41.342364" lon="1.8589673"><ele>288.0</ele><time>2026-05-04T17:20:07.508Z</time></trkpt><trkpt lat="41.3422849" lon="1.8589023"><ele>288.0</ele><time>2026-05-04T17:20:08.486Z</time></trkpt><trkpt lat="41.3422195" lon="1.858777"><ele>288.0</ele><time>2026-05-04T17:20:09.483Z</time></trkpt><trkpt lat="41.3421527" lon="1.8586469"><ele>288.0</ele><time>2026-05-04T17:20:10.474Z</time></trkpt><trkpt lat="41.3420659" lon="1.8585569"><ele>288.0</ele><time>2026-05-04T17:20:11.482Z</time></trkpt><trkpt lat="41.3419718" lon="1.8585197"><ele>288.0</ele><time>2026-05-04T17:20:12.483Z</time></trkpt><trkpt lat="41.3418532" lon="1.8585369"><ele>288.0</ele><time>2026-05-04T17:20:13.479Z</time></trkpt><trkpt lat="41.3417414" lon="1.8585836"><ele>288.0</ele><time>2026-05-04T17:20:14.484Z</time></trkpt><trkpt lat="41.3416285" lon="1.8586445"><ele>288.0</ele><time>2026-05-04T17:20:15.479Z</time></trkpt><trkpt lat="41.3415191" lon="1.8587203"><ele>288.0</ele><time>2026-05-04T17:20:16.482Z</time></trkpt><trkpt lat="41.3414166" lon="1.8588184"><ele>288.0</ele><time>2026-05-04T17:20:17.481Z</time></trkpt><trkpt lat="41.3413144" lon="1.8589207"><ele>288.0</ele><time>2026-05-04T17:20:18.485Z</time></trkpt><trkpt lat="41.3412122" lon="1.8590193"><ele>289.0</ele><time>2026-05-04T17:20:19.48Z</time></trkpt><trkpt lat="41.3411094" lon="1.8591116"><ele>290.0</ele><time>2026-05-04T17:20:20.484Z</time></trkpt><trkpt lat="41.3410061" lon="1.8592078"><ele>291.0</ele><time>2026-05-04T17:20:21.484Z</time></trkpt><trkpt lat="41.3409043" lon="1.8593057"><ele>292.0</ele><time>2026-05-04T17:20:22.484Z</time></trkpt><trkpt lat="41.3408015" lon="1.8593974"><ele>293.4</ele><time>2026-05-04T17:20:23.486Z</time></trkpt><trkpt lat="41.3407039" lon="1.8594899"><ele>294.79999999999995</ele><time>2026-05-04T17:20:24.485Z</time></trkpt><trkpt lat="41.3406116" lon="1.8595777"><ele>296.2</ele><time>2026-05-04T17:20:25.487Z</time></trkpt><trkpt lat="41.3405275" lon="1.8596691"><ele>297.59999999999997</ele><time>2026-05-04T17:20:26.488Z</time></trkpt><trkpt lat="41.3404619" lon="1.8597778"><ele>299.0</ele><time>2026-05-04T17:20:27.483Z</time></trkpt><trkpt lat="41.3404061" lon="1.8598913"><ele>299.2</ele><time>2026-05-04T17:20:28.482Z</time></trkpt><trkpt lat="41.3403451" lon="1.8600042"><ele>299.4</ele><time>2026-05-04T17:20:29.48Z</time></trkpt><trkpt lat="41.3402723" lon="1.8600883"><ele>299.6</ele><time>2026-05-04T17:20:30.479Z</time></trkpt><trkpt lat="41.3401859" lon="1.8601409"><ele>299.8</ele><time>2026-05-04T17:20:31.476Z</time></trkpt><trkpt lat="41.34009" lon="1.860154"><ele>300.0</ele><time>2026-05-04T17:20:32.479Z</time></trkpt><trkpt lat="41.3399871" lon="1.8601013"><ele>300.0</ele><time>2026-05-04T17:20:33.478Z</time></trkpt><trkpt lat="41.339892" lon="1.8600265"><ele>300.0</ele><time>2026-05-04T17:20:34.473Z</time></trkpt><trkpt lat="41.3397969" lon="1.8599459"><ele>300.0</ele><time>2026-05-04T17:20:35.477Z</time></trkpt><trkpt lat="41.3396953" lon="1.8598776"><ele>300.0</ele><time>2026-05-04T17:20:36.479Z</time></trkpt><trkpt lat="41.3395949" lon="1.8598193"><ele>300.0</ele><time>2026-05-04T17:20:37.473Z</time></trkpt><trkpt lat="41.3394975" lon="1.8597644"><ele>300.4</ele><time>2026-05-04T17:20:38.515Z</time></trkpt><trkpt lat="41.3393945" lon="1.859721"><ele>300.8</ele><time>2026-05-04T17:20:39.48Z</time></trkpt><trkpt lat="41.3392929" lon="1.8596839"><ele>301.2</ele><time>2026-05-04T17:20:40.477Z</time></trkpt><trkpt lat="41.3391868" lon="1.8596566"><ele>301.6</ele><time>2026-05-04T17:20:41.479Z</time></trkpt><trkpt lat="41.3390779" lon="1.8596494"><ele>302.0</ele><time>2026-05-04T17:20:42.472Z</time></trkpt><trkpt lat="41.3389656" lon="1.8596726"><ele>300.5</ele><time>2026-05-04T17:20:43.482Z</time></trkpt><trkpt lat="41.3388615" lon="1.8597282"><ele>299.0</ele><time>2026-05-04T17:20:44.486Z</time></trkpt><trkpt lat="41.3387665" lon="1.8598225"><ele>297.5</ele><time>2026-05-04T17:20:45.482Z</time></trkpt><trkpt lat="41.3386703" lon="1.8599603"><ele>296.0</ele><time>2026-05-04T17:20:46.479Z</time></trkpt><trkpt lat="41.3385763" lon="1.8601065"><ele>297.5</ele><time>2026-05-04T17:20:47.478Z</time></trkpt><trkpt lat="41.3384864" lon="1.860257"><ele>299.0</ele><time>2026-05-04T17:20:48.482Z</time></trkpt><trkpt lat="41.3384016" lon="1.8604113"><ele>300.5</ele><time>2026-05-04T17:20:49.479Z</time></trkpt><trkpt lat="41.3383176" lon="1.8605638"><ele>302.0</ele><time>2026-05-04T17:20:50.482Z</time></trkpt><trkpt lat="41.3382398" lon="1.8607295"><ele>302.0</ele><time>2026-05-04T17:20:51.477Z</time></trkpt><trkpt lat="41.3381744" lon="1.8609194"><ele>302.0</ele><time>2026-05-04T17:20:52.482Z</time></trkpt><trkpt lat="41.3381125" lon="1.8611068"><ele>302.0</ele><time>2026-05-04T17:20:53.483Z</time></trkpt><trkpt lat="41.3380381" lon="1.8612777"><ele>300.6666666666667</ele><time>2026-05-04T17:20:54.48Z</time></trkpt><trkpt lat="41.3379569" lon="1.8614445"><ele>299.3333333333333</ele><time>2026-05-04T17:20:55.479Z</time></trkpt><trkpt lat="41.3378559" lon="1.861597"><ele>298.0</ele><time>2026-05-04T17:20:56.483Z</time></trkpt><trkpt lat="41.3377589" lon="1.8617478"><ele>302.25</ele><time>2026-05-04T17:20:57.48Z</time></trkpt><trkpt lat="41.3376577" lon="1.8618965"><ele>306.5</ele><time>2026-05-04T17:20:58.481Z</time></trkpt><trkpt lat="41.3375652" lon="1.8620423"><ele>310.75</ele><time>2026-05-04T17:20:59.48Z</time></trkpt><trkpt lat="41.3374772" lon="1.8621877"><ele>315.0</ele><time>2026-05-04T17:21:00.48Z</time></trkpt><trkpt lat="41.3373833" lon="1.8623311"><ele>315.0</ele><time>2026-05-04T17:21:01.479Z</time></trkpt><trkpt lat="41.3372849" lon="1.86248"><ele>315.0</ele><time>2026-05-04T17:21:02.478Z</time></trkpt><trkpt lat="41.3371993" lon="1.8626264"><ele>315.0</ele><time>2026-05-04T17:21:03.481Z</time></trkpt><trkpt lat="41.3371123" lon="1.8627741"><ele>315.0</ele><time>2026-05-04T17:21:04.481Z</time></trkpt><trkpt lat="41.3370331" lon="1.8629175"><ele>314.0</ele><time>2026-05-04T17:21:05.482Z</time></trkpt><trkpt lat="41.3369506" lon="1.8630297"><ele>313.0</ele><time>2026-05-04T17:21:06.484Z</time></trkpt><trkpt lat="41.3368747" lon="1.8631336"><ele>312.0</ele><time>2026-05-04T17:21:07.487Z</time></trkpt><trkpt lat="41.3367899" lon="1.8632276"><ele>311.0</ele><time>2026-05-04T17:21:08.505Z</time></trkpt><trkpt lat="41.3367" lon="1.8632979"><ele>310.0</ele><time>2026-05-04T17:21:09.486Z</time></trkpt><trkpt lat="41.33661" lon="1.8633518"><ele>310.0</ele><time>2026-05-04T17:21:10.481Z</time></trkpt><trkpt lat="41.3365078" lon="1.8633896"><ele>310.0</ele><time>2026-05-04T17:21:11.481Z</time></trkpt><trkpt lat="41.3363949" lon="1.8634108"><ele>310.0</ele><time>2026-05-04T17:21:12.477Z</time></trkpt><trkpt lat="41.3362722" lon="1.8634161"><ele>310.0</ele><time>2026-05-04T17:21:13.481Z</time></trkpt><trkpt lat="41.3361436" lon="1.8633989"><ele>309.25</ele><time>2026-05-04T17:21:14.486Z</time></trkpt><trkpt lat="41.3360203" lon="1.8633574"><ele>308.5</ele><time>2026-05-04T17:21:15.487Z</time></trkpt><trkpt lat="41.3358967" lon="1.8632993"><ele>307.75</ele><time>2026-05-04T17:21:16.485Z</time></trkpt><trkpt lat="41.3357792" lon="1.8632202"><ele>307.0</ele><time>2026-05-04T17:21:17.489Z</time></trkpt><trkpt lat="41.3356614" lon="1.8631266"><ele>307.5</ele><time>2026-05-04T17:21:18.484Z</time></trkpt><trkpt lat="41.3355439" lon="1.863023"><ele>308.0</ele><time>2026-05-04T17:21:19.491Z</time></trkpt><trkpt lat="41.335432" lon="1.8629195"><ele>308.5</ele><time>2026-05-04T17:21:20.493Z</time></trkpt><trkpt lat="41.3353217" lon="1.8628261"><ele>309.0</ele><time>2026-05-04T17:21:21.491Z</time></trkpt><trkpt lat="41.335218" lon="1.8627411"><ele>309.0</ele><time>2026-05-04T17:21:22.491Z</time></trkpt><trkpt lat="41.3351214" lon="1.8626614"><ele>309.0</ele><time>2026-05-04T17:21:23.491Z</time></trkpt><trkpt lat="41.3350261" lon="1.8625896"><ele>309.0</ele><time>2026-05-04T17:21:24.496Z</time></trkpt><trkpt lat="41.3349249" lon="1.8625389"><ele>309.0</ele><time>2026-05-04T17:21:25.49Z</time></trkpt><trkpt lat="41.3348221" lon="1.8625095"><ele>309.0</ele><time>2026-05-04T17:21:26.501Z</time></trkpt><trkpt lat="41.3347086" lon="1.8625145"><ele>308.5</ele><time>2026-05-04T17:21:27.494Z</time></trkpt><trkpt lat="41.3345905" lon="1.8625552"><ele>308.0</ele><time>2026-05-04T17:21:28.498Z</time></trkpt><trkpt lat="41.3344718" lon="1.8626232"><ele>307.5</ele><time>2026-05-04T17:21:29.497Z</time></trkpt><trkpt lat="41.334367" lon="1.8627212"><ele>307.0</ele><time>2026-05-04T17:21:30.493Z</time></trkpt><trkpt lat="41.3342786" lon="1.862843"><ele>307.0</ele><time>2026-05-04T17:21:31.49Z</time></trkpt><trkpt lat="41.3342047" lon="1.8629958"><ele>307.0</ele><time>2026-05-04T17:21:32.493Z</time></trkpt><trkpt lat="41.3341599" lon="1.86318"><ele>307.0</ele><time>2026-05-04T17:21:33.492Z</time></trkpt><trkpt lat="41.334136" lon="1.8633879"><ele>307.0</ele><time>2026-05-04T17:21:34.492Z</time></trkpt><trkpt lat="41.3341374" lon="1.8636245"><ele>307.0</ele><time>2026-05-04T17:21:35.492Z</time></trkpt><trkpt lat="41.3341732" lon="1.8638514"><ele>307.0</ele><time>2026-05-04T17:21:36.492Z</time></trkpt><trkpt lat="41.3342286" lon="1.8640791"><ele>307.0</ele><time>2026-05-04T17:21:37.49Z</time></trkpt><trkpt lat="41.334282" lon="1.8643048"><ele>307.0</ele><time>2026-05-04T17:21:38.49Z</time></trkpt><trkpt lat="41.3343502" lon="1.864526"><ele>307.0</ele><time>2026-05-04T17:21:39.504Z</time></trkpt><trkpt lat="41.3344371" lon="1.8647368"><ele>307.0</ele><time>2026-05-04T17:21:40.483Z</time></trkpt><trkpt lat="41.3345551" lon="1.8649416"><ele>307.0</ele><time>2026-05-04T17:21:41.492Z</time></trkpt><trkpt lat="41.334677" lon="1.8651414"><ele>307.0</ele><time>2026-05-04T17:21:42.488Z</time></trkpt><trkpt lat="41.3347881" lon="1.8653305"><ele>307.0</ele><time>2026-05-04T17:21:43.487Z</time></trkpt><trkpt lat="41.3348821" lon="1.865523"><ele>309.75</ele><time>2026-05-04T17:21:44.486Z</time></trkpt><trkpt lat="41.3349272" lon="1.8657136"><ele>312.5</ele><time>2026-05-04T17:21:45.486Z</time></trkpt><trkpt lat="41.3349605" lon="1.8659115"><ele>315.25</ele><time>2026-05-04T17:21:46.487Z</time></trkpt><trkpt lat="41.3349745" lon="1.8661061"><ele>318.0</ele><time>2026-05-04T17:21:47.485Z</time></trkpt><trkpt lat="41.3349918" lon="1.8663162"><ele>318.0</ele><time>2026-05-04T17:21:48.479Z</time></trkpt><trkpt lat="41.3349988" lon="1.8665194"><ele>318.0</ele><time>2026-05-04T17:21:49.479Z</time></trkpt><trkpt lat="41.3350053" lon="1.8667418"><ele>318.0</ele><time>2026-05-04T17:21:50.476Z</time></trkpt><trkpt lat="41.3350028" lon="1.8669789"><ele>317.6666666666667</ele><time>2026-05-04T17:21:51.484Z</time></trkpt><trkpt lat="41.3349841" lon="1.8672275"><ele>317.33333333333337</ele><time>2026-05-04T17:21:52.481Z</time></trkpt><trkpt lat="41.3349431" lon="1.8674754"><ele>317.0</ele><time>2026-05-04T17:21:53.487Z</time></trkpt><trkpt lat="41.3348959" lon="1.86773"><ele>317.6666666666667</ele><time>2026-05-04T17:21:54.483Z</time></trkpt><trkpt lat="41.3348438" lon="1.867991"><ele>318.3333333333333</ele><time>2026-05-04T17:21:55.49Z</time></trkpt><trkpt lat="41.3347948" lon="1.8682468"><ele>319.0</ele><time>2026-05-04T17:21:56.495Z</time></trkpt><trkpt lat="41.3347418" lon="1.868509"><ele>318.66666666666663</ele><time>2026-05-04T17:21:57.491Z</time></trkpt><trkpt lat="41.3346826" lon="1.8687767"><ele>318.3333333333333</ele><time>2026-05-04T17:21:58.491Z</time></trkpt><trkpt lat="41.3346168" lon="1.8690351"><ele>318.0</ele><time>2026-05-04T17:21:59.492Z</time></trkpt><trkpt lat="41.3345247" lon="1.8692786"><ele>318.0</ele><time>2026-05-04T17:22:00.497Z</time></trkpt><trkpt lat="41.334402" lon="1.8695043"><ele>318.0</ele><time>2026-05-04T17:22:01.489Z</time></trkpt><trkpt lat="41.3342721" lon="1.8697343"><ele>318.0</ele><time>2026-05-04T17:22:02.492Z</time></trkpt><trkpt lat="41.334151" lon="1.8699526"><ele>319.0</ele><time>2026-05-04T17:22:03.485Z</time></trkpt><trkpt lat="41.3340398" lon="1.8701523"><ele>320.0</ele><time>2026-05-04T17:22:04.488Z</time></trkpt><trkpt lat="41.3339417" lon="1.8703674"><ele>321.0</ele><time>2026-05-04T17:22:05.485Z</time></trkpt><trkpt lat="41.3338687" lon="1.8706069"><ele>318.0</ele><time>2026-05-04T17:22:06.49Z</time></trkpt><trkpt lat="41.3338208" lon="1.8708557"><ele>315.0</ele><time>2026-05-04T17:22:07.488Z</time></trkpt><trkpt lat="41.3337898" lon="1.8710762"><ele>312.0</ele><time>2026-05-04T17:22:08.493Z</time></trkpt><trkpt lat="41.3337683" lon="1.8712726"><ele>312.0</ele><time>2026-05-04T17:22:09.489Z</time></trkpt><trkpt lat="41.3337639" lon="1.871446"><ele>312.0</ele><time>2026-05-04T17:22:10.509Z</time></trkpt><trkpt lat="41.3337993" lon="1.8716037"><ele>312.0</ele><time>2026-05-04T17:22:11.487Z</time></trkpt><trkpt lat="41.3338668" lon="1.8717582"><ele>312.0</ele><time>2026-05-04T17:22:12.49Z</time></trkpt><trkpt lat="41.3339696" lon="1.8718928"><ele>313.0</ele><time>2026-05-04T17:22:13.488Z</time></trkpt><trkpt lat="41.3340962" lon="1.8720166"><ele>314.0</ele><time>2026-05-04T17:22:14.487Z</time></trkpt><trkpt lat="41.3342222" lon="1.8721449"><ele>315.0</ele><time>2026-05-04T17:22:15.489Z</time></trkpt><trkpt lat="41.3343685" lon="1.872278"><ele>315.0</ele><time>2026-05-04T17:22:16.496Z</time></trkpt><trkpt lat="41.3345217" lon="1.8724035"><ele>315.0</ele><time>2026-05-04T17:22:17.493Z</time></trkpt><trkpt lat="41.334672" lon="1.8725374"><ele>315.0</ele><time>2026-05-04T17:22:18.492Z</time></trkpt><trkpt lat="41.3348226" lon="1.8726728"><ele>317.3333333333333</ele><time>2026-05-04T17:22:19.49Z</time></trkpt><trkpt lat="41.3349604" lon="1.8728031"><ele>319.66666666666663</ele><time>2026-05-04T17:22:20.49Z</time></trkpt><trkpt lat="41.3350673" lon="1.8729697"><ele>322.0</ele><time>2026-05-04T17:22:21.488Z</time></trkpt><trkpt lat="41.3351527" lon="1.8731727"><ele>322.0</ele><time>2026-05-04T17:22:22.489Z</time></trkpt><trkpt lat="41.3352073" lon="1.8733896"><ele>322.0</ele><time>2026-05-04T17:22:23.486Z</time></trkpt><trkpt lat="41.3352605" lon="1.8736098"><ele>322.0</ele><time>2026-05-04T17:22:24.49Z</time></trkpt><trkpt lat="41.3352949" lon="1.8738387"><ele>323.3333333333333</ele><time>2026-05-04T17:22:25.492Z</time></trkpt><trkpt lat="41.3353161" lon="1.8740714"><ele>324.6666666666667</ele><time>2026-05-04T17:22:26.491Z</time></trkpt><trkpt lat="41.3353389" lon="1.8743182"><ele>326.0</ele><time>2026-05-04T17:22:27.489Z</time></trkpt><trkpt lat="41.3353376" lon="1.8745693"><ele>327.0</ele><time>2026-05-04T17:22:28.488Z</time></trkpt><trkpt lat="41.3353222" lon="1.8748216"><ele>328.0</ele><time>2026-05-04T17:22:29.488Z</time></trkpt><trkpt lat="41.3353019" lon="1.8750735"><ele>329.0</ele><time>2026-05-04T17:22:30.493Z</time></trkpt><trkpt lat="41.3352862" lon="1.8753304"><ele>330.0</ele><time>2026-05-04T17:22:31.484Z</time></trkpt><trkpt lat="41.3352982" lon="1.8755948"><ele>331.0</ele><time>2026-05-04T17:22:32.484Z</time></trkpt><trkpt lat="41.3353457" lon="1.8758416"><ele>332.0</ele><time>2026-05-04T17:22:33.488Z</time></trkpt><trkpt lat="41.3354014" lon="1.876056"><ele>333.0</ele><time>2026-05-04T17:22:34.491Z</time></trkpt><trkpt lat="41.3354419" lon="1.8762124"><ele>334.0</ele><time>2026-05-04T17:22:35.487Z</time></trkpt><trkpt lat="41.3354697" lon="1.8763475"><ele>335.0</ele><time>2026-05-04T17:22:36.487Z</time></trkpt><trkpt lat="41.3354535" lon="1.8764641"><ele>336.0</ele><time>2026-05-04T17:22:37.483Z</time></trkpt><trkpt lat="41.3354002" lon="1.8765689"><ele>337.0</ele><time>2026-05-04T17:22:38.495Z</time></trkpt><trkpt lat="41.3353216" lon="1.8766579"><ele>337.0</ele><time>2026-05-04T17:22:39.496Z</time></trkpt><trkpt lat="41.3352379" lon="1.8767523"><ele>337.0</ele><time>2026-05-04T17:22:40.491Z</time></trkpt><trkpt lat="41.3351597" lon="1.876849"><ele>337.0</ele><time>2026-05-04T17:22:41.517Z</time></trkpt><trkpt lat="41.3350685" lon="1.8769512"><ele>337.0</ele><time>2026-05-04T17:22:42.496Z</time></trkpt><trkpt lat="41.3349665" lon="1.8770502"><ele>337.0</ele><time>2026-05-04T17:22:43.499Z</time></trkpt><trkpt lat="41.3348466" lon="1.8771574"><ele>337.0</ele><time>2026-05-04T17:22:44.492Z</time></trkpt><trkpt lat="41.334723" lon="1.8772701"><ele>337.0</ele><time>2026-05-04T17:22:45.491Z</time></trkpt><trkpt lat="41.3345795" lon="1.8773956"><ele>337.0</ele><time>2026-05-04T17:22:46.494Z</time></trkpt><trkpt lat="41.3344529" lon="1.8775379"><ele>337.0</ele><time>2026-05-04T17:22:47.49Z</time></trkpt><trkpt lat="41.3343683" lon="1.8777023"><ele>337.0</ele><time>2026-05-04T17:22:48.495Z</time></trkpt><trkpt lat="41.3343309" lon="1.8778863"><ele>337.0</ele><time>2026-05-04T17:22:49.5Z</time></trkpt><trkpt lat="41.3343422" lon="1.8780651"><ele>337.0</ele><time>2026-05-04T17:22:50.501Z</time></trkpt><trkpt lat="41.3343761" lon="1.8782224"><ele>337.0</ele><time>2026-05-04T17:22:51.491Z</time></trkpt><trkpt lat="41.3343971" lon="1.8784155"><ele>337.0</ele><time>2026-05-04T17:22:52.495Z</time></trkpt><trkpt lat="41.3344257" lon="1.8786063"><ele>337.3333333333333</ele><time>2026-05-04T17:22:53.492Z</time></trkpt><trkpt lat="41.3344484" lon="1.8788191"><ele>337.6666666666667</ele><time>2026-05-04T17:22:54.494Z</time></trkpt><trkpt lat="41.3344621" lon="1.8790385"><ele>338.0</ele><time>2026-05-04T17:22:55.488Z</time></trkpt><trkpt lat="41.3344813" lon="1.8792639"><ele>337.0</ele><time>2026-05-04T17:22:56.49Z</time></trkpt><trkpt lat="41.3345026" lon="1.8794761"><ele>336.0</ele><time>2026-05-04T17:22:57.485Z</time></trkpt><trkpt lat="41.3345231" lon="1.8796766"><ele>335.0</ele><time>2026-05-04T17:22:58.484Z</time></trkpt><trkpt lat="41.334559" lon="1.8798656"><ele>335.0</ele><time>2026-05-04T17:22:59.485Z</time></trkpt><trkpt lat="41.3346342" lon="1.8800492"><ele>335.0</ele><time>2026-05-04T17:23:00.487Z</time></trkpt><trkpt lat="41.3347257" lon="1.8802027"><ele>335.0</ele><time>2026-05-04T17:23:01.484Z</time></trkpt><trkpt lat="41.3348031" lon="1.8803373"><ele>335.0</ele><time>2026-05-04T17:23:02.491Z</time></trkpt><trkpt lat="41.3348456" lon="1.8804811"><ele>335.0</ele><time>2026-05-04T17:23:03.481Z</time></trkpt><trkpt lat="41.3348465" lon="1.8806448"><ele>335.0</ele><time>2026-05-04T17:23:04.481Z</time></trkpt><trkpt lat="41.3348136" lon="1.8808017"><ele>335.0</ele><time>2026-05-04T17:23:05.489Z</time></trkpt><trkpt lat="41.3347486" lon="1.8809453"><ele>335.0</ele><time>2026-05-04T17:23:06.484Z</time></trkpt><trkpt lat="41.3346866" lon="1.8811013"><ele>335.0</ele><time>2026-05-04T17:23:07.489Z</time></trkpt><trkpt lat="41.3346205" lon="1.8812657"><ele>335.0</ele><time>2026-05-04T17:23:08.487Z</time></trkpt><trkpt lat="41.334564" lon="1.8814387"><ele>335.0</ele><time>2026-05-04T17:23:09.486Z</time></trkpt><trkpt lat="41.3345036" lon="1.8816248"><ele>335.0</ele><time>2026-05-04T17:23:10.492Z</time></trkpt><trkpt lat="41.3344476" lon="1.881813"><ele>335.6666666666667</ele><time>2026-05-04T17:23:11.492Z</time></trkpt><trkpt lat="41.3344005" lon="1.8820143"><ele>336.3333333333333</ele><time>2026-05-04T17:23:12.504Z</time></trkpt><trkpt lat="41.3343659" lon="1.8822094"><ele>337.0</ele><time>2026-05-04T17:23:13.502Z</time></trkpt><trkpt lat="41.3343678" lon="1.8824326"><ele>336.25</ele><time>2026-05-04T17:23:14.49Z</time></trkpt><trkpt lat="41.3343794" lon="1.8826339"><ele>335.5</ele><time>2026-05-04T17:23:15.494Z</time></trkpt><trkpt lat="41.3344207" lon="1.8828129"><ele>334.75</ele><time>2026-05-04T17:23:16.493Z</time></trkpt><trkpt lat="41.334485" lon="1.8829664"><ele>334.0</ele><time>2026-05-04T17:23:17.497Z</time></trkpt><trkpt lat="41.3345814" lon="1.8831001"><ele>334.0</ele><time>2026-05-04T17:23:18.497Z</time></trkpt><trkpt lat="41.3347049" lon="1.8832254"><ele>334.0</ele><time>2026-05-04T17:23:19.496Z</time></trkpt><trkpt lat="41.3348392" lon="1.8833282"><ele>334.0</ele><time>2026-05-04T17:23:20.486Z</time></trkpt><trkpt lat="41.3349875" lon="1.883434"><ele>335.66666666666663</ele><time>2026-05-04T17:23:21.491Z</time></trkpt><trkpt lat="41.3351404" lon="1.8835495"><ele>337.3333333333333</ele><time>2026-05-04T17:23:22.493Z</time></trkpt><trkpt lat="41.3352898" lon="1.8836732"><ele>339.0</ele><time>2026-05-04T17:23:23.494Z</time></trkpt><trkpt lat="41.3354285" lon="1.8838223"><ele>339.0</ele><time>2026-05-04T17:23:24.492Z</time></trkpt><trkpt lat="41.3355485" lon="1.8839914"><ele>339.0</ele><time>2026-05-04T17:23:25.486Z</time></trkpt><trkpt lat="41.3356613" lon="1.8841662"><ele>339.0</ele><time>2026-05-04T17:23:26.49Z</time></trkpt><trkpt lat="41.3357556" lon="1.8843569"><ele>341.3333333333333</ele><time>2026-05-04T17:23:27.493Z</time></trkpt><trkpt lat="41.3358478" lon="1.8845655"><ele>343.66666666666663</ele><time>2026-05-04T17:23:28.492Z</time></trkpt><trkpt lat="41.3359166" lon="1.884773"><ele>346.0</ele><time>2026-05-04T17:23:29.49Z</time></trkpt><trkpt lat="41.3359791" lon="1.8849817"><ele>345.66666666666663</ele><time>2026-05-04T17:23:30.495Z</time></trkpt><trkpt lat="41.3360326" lon="1.8851834"><ele>345.3333333333333</ele><time>2026-05-04T17:23:31.493Z</time></trkpt><trkpt lat="41.336078" lon="1.8853793"><ele>345.0</ele><time>2026-05-04T17:23:32.485Z</time></trkpt><trkpt lat="41.3360991" lon="1.8855739"><ele>345.0</ele><time>2026-05-04T17:23:33.489Z</time></trkpt><trkpt lat="41.3360918" lon="1.8857664"><ele>345.0</ele><time>2026-05-04T17:23:34.491Z</time></trkpt><trkpt lat="41.3360599" lon="1.8859647"><ele>345.0</ele><time>2026-05-04T17:23:35.489Z</time></trkpt><trkpt lat="41.3360171" lon="1.8861475"><ele>345.0</ele><time>2026-05-04T17:23:36.5Z</time></trkpt><trkpt lat="41.3359914" lon="1.8863299"><ele>344.5</ele><time>2026-05-04T17:23:37.495Z</time></trkpt><trkpt lat="41.3359929" lon="1.8865205"><ele>344.0</ele><time>2026-05-04T17:23:38.497Z</time></trkpt><trkpt lat="41.3360247" lon="1.8866864"><ele>343.5</ele><time>2026-05-04T17:23:39.496Z</time></trkpt><trkpt lat="41.3360887" lon="1.8868338"><ele>343.0</ele><time>2026-05-04T17:23:40.498Z</time></trkpt><trkpt lat="41.3361832" lon="1.8869531"><ele>342.75</ele><time>2026-05-04T17:23:41.494Z</time></trkpt><trkpt lat="41.3362929" lon="1.8870575"><ele>342.5</ele><time>2026-05-04T17:23:42.499Z</time></trkpt><trkpt lat="41.3364244" lon="1.8871457"><ele>342.25</ele><time>2026-05-04T17:23:43.516Z</time></trkpt><trkpt lat="41.3365707" lon="1.8872447"><ele>342.0</ele><time>2026-05-04T17:23:44.505Z</time></trkpt><trkpt lat="41.3367138" lon="1.8873587"><ele>342.3333333333333</ele><time>2026-05-04T17:23:45.497Z</time></trkpt><trkpt lat="41.336833" lon="1.8875029"><ele>342.66666666666663</ele><time>2026-05-04T17:23:46.493Z</time></trkpt><trkpt lat="41.3369389" lon="1.8876825"><ele>343.0</ele><time>2026-05-04T17:23:47.491Z</time></trkpt><trkpt lat="41.3370173" lon="1.8878962"><ele>343.0</ele><time>2026-05-04T17:23:48.491Z</time></trkpt><trkpt lat="41.3370819" lon="1.8881202"><ele>343.0</ele><time>2026-05-04T17:23:49.487Z</time></trkpt><trkpt lat="41.3371348" lon="1.8883471"><ele>343.0</ele><time>2026-05-04T17:23:50.491Z</time></trkpt><trkpt lat="41.3371897" lon="1.8885897"><ele>346.3333333333333</ele><time>2026-05-04T17:23:51.493Z</time></trkpt><trkpt lat="41.3372494" lon="1.8888381"><ele>349.6666666666667</ele><time>2026-05-04T17:23:52.492Z</time></trkpt><trkpt lat="41.3373133" lon="1.8890868"><ele>353.0</ele><time>2026-05-04T17:23:53.494Z</time></trkpt><trkpt lat="41.3373755" lon="1.889342"><ele>353.33333333333337</ele><time>2026-05-04T17:23:54.495Z</time></trkpt><trkpt lat="41.3374486" lon="1.8895832"><ele>353.6666666666667</ele><time>2026-05-04T17:23:55.495Z</time></trkpt><trkpt lat="41.3375152" lon="1.8898348"><ele>354.0</ele><time>2026-05-04T17:23:56.503Z</time></trkpt><trkpt lat="41.3375836" lon="1.8900864"><ele>353.3333333333333</ele><time>2026-05-04T17:23:57.492Z</time></trkpt><trkpt lat="41.3376498" lon="1.8903342"><ele>352.66666666666663</ele><time>2026-05-04T17:23:58.488Z</time></trkpt><trkpt lat="41.3377029" lon="1.8905772"><ele>352.0</ele><time>2026-05-04T17:23:59.489Z</time></trkpt><trkpt lat="41.3377452" lon="1.8908344"><ele>351.66666666666663</ele><time>2026-05-04T17:24:00.497Z</time></trkpt><trkpt lat="41.3377763" lon="1.8910742"><ele>351.3333333333333</ele><time>2026-05-04T17:24:01.488Z</time></trkpt><trkpt lat="41.3377934" lon="1.8913183"><ele>351.0</ele><time>2026-05-04T17:24:02.494Z</time></trkpt><trkpt lat="41.3377945" lon="1.8915675"><ele>350.6666666666667</ele><time>2026-05-04T17:24:03.498Z</time></trkpt><trkpt lat="41.3377926" lon="1.8918017"><ele>350.33333333333337</ele><time>2026-05-04T17:24:04.49Z</time></trkpt><trkpt lat="41.3378047" lon="1.8920339"><ele>350.0</ele><time>2026-05-04T17:24:05.49Z</time></trkpt><trkpt lat="41.3378266" lon="1.8922763"><ele>350.0</ele><time>2026-05-04T17:24:06.489Z</time></trkpt><trkpt lat="41.3378826" lon="1.8924962"><ele>350.0</ele><time>2026-05-04T17:24:07.49Z</time></trkpt><trkpt lat="41.3379537" lon="1.892713"><ele>350.0</ele><time>2026-05-04T17:24:08.491Z</time></trkpt><trkpt lat="41.3380565" lon="1.8929147"><ele>352.0</ele><time>2026-05-04T17:24:09.486Z</time></trkpt><trkpt lat="41.3381642" lon="1.893107"><ele>354.0</ele><time>2026-05-04T17:24:10.491Z</time></trkpt><trkpt lat="41.3382779" lon="1.8933064"><ele>356.0</ele><time>2026-05-04T17:24:11.494Z</time></trkpt><trkpt lat="41.3383842" lon="1.8935101"><ele>356.0</ele><time>2026-05-04T17:24:12.497Z</time></trkpt><trkpt lat="41.3385007" lon="1.8937196"><ele>356.0</ele><time>2026-05-04T17:24:13.5Z</time></trkpt><trkpt lat="41.3386043" lon="1.8939258"><ele>356.0</ele><time>2026-05-04T17:24:14.514Z</time></trkpt><trkpt lat="41.3387031" lon="1.894111"><ele>355.33333333333337</ele><time>2026-05-04T17:24:15.489Z</time></trkpt><trkpt lat="41.3387941" lon="1.894291"><ele>354.6666666666667</ele><time>2026-05-04T17:24:16.488Z</time></trkpt><trkpt lat="41.3388604" lon="1.8944846"><ele>354.0</ele><time>2026-05-04T17:24:17.484Z</time></trkpt><trkpt lat="41.3388987" lon="1.8946892"><ele>362.0</ele><time>2026-05-04T17:24:18.482Z</time></trkpt><trkpt lat="41.3389266" lon="1.8949091"><ele>370.0</ele><time>2026-05-04T17:24:19.482Z</time></trkpt><trkpt lat="41.3389441" lon="1.8951305"><ele>378.0</ele><time>2026-05-04T17:24:20.491Z</time></trkpt><trkpt lat="41.3389455" lon="1.895359"><ele>379.0</ele><time>2026-05-04T17:24:21.478Z</time></trkpt><trkpt lat="41.3389189" lon="1.8955927"><ele>380.0</ele><time>2026-05-04T17:24:22.482Z</time></trkpt><trkpt lat="41.3388755" lon="1.8958176"><ele>381.0</ele><time>2026-05-04T17:24:23.482Z</time></trkpt><trkpt lat="41.3388141" lon="1.8960501"><ele>372.6666666666667</ele><time>2026-05-04T17:24:24.484Z</time></trkpt><trkpt lat="41.3387277" lon="1.8962564"><ele>364.33333333333337</ele><time>2026-05-04T17:24:25.478Z</time></trkpt><trkpt lat="41.3386389" lon="1.8964767"><ele>356.0</ele><time>2026-05-04T17:24:26.483Z</time></trkpt><trkpt lat="41.3385515" lon="1.8967057"><ele>357.6666666666667</ele><time>2026-05-04T17:24:27.487Z</time></trkpt><trkpt lat="41.3384641" lon="1.8969188"><ele>359.3333333333333</ele><time>2026-05-04T17:24:28.485Z</time></trkpt><trkpt lat="41.3383766" lon="1.8971022"><ele>361.0</ele><time>2026-05-04T17:24:29.479Z</time></trkpt><trkpt lat="41.3382993" lon="1.8972685"><ele>361.0</ele><time>2026-05-04T17:24:30.479Z</time></trkpt><trkpt lat="41.3382369" lon="1.8974177"><ele>361.0</ele><time>2026-05-04T17:24:31.475Z</time></trkpt><trkpt lat="41.3381856" lon="1.897548"><ele>361.0</ele><time>2026-05-04T17:24:32.48Z</time></trkpt><trkpt lat="41.3381538" lon="1.897647"><ele>361.0</ele><time>2026-05-04T17:24:33.472Z</time></trkpt><trkpt lat="41.338121" lon="1.8977453"><ele>361.0</ele><time>2026-05-04T17:24:35.485Z</time></trkpt><trkpt lat="41.3380607" lon="1.8977891"><ele>359.0</ele><time>2026-05-04T17:25:44.493Z</time></trkpt><trkpt lat="41.3379742" lon="1.897864"><ele>357.0</ele><time>2026-05-04T17:25:46.513Z</time></trkpt><trkpt lat="41.337917" lon="1.897947"><ele>355.0</ele><time>2026-05-04T17:25:47.493Z</time></trkpt><trkpt lat="41.3377855" lon="1.8981656"><ele>353.0</ele><time>2026-05-04T17:25:49.493Z</time></trkpt><trkpt lat="41.3377127" lon="1.8982912"><ele>353.0</ele><time>2026-05-04T17:25:50.494Z</time></trkpt><trkpt lat="41.3376309" lon="1.8984175"><ele>353.0</ele><time>2026-05-04T17:25:51.489Z</time></trkpt><trkpt lat="41.3375414" lon="1.8985473"><ele>353.0</ele><time>2026-05-04T17:25:52.505Z</time></trkpt><trkpt lat="41.3374464" lon="1.8986928"><ele>353.0</ele><time>2026-05-04T17:25:53.504Z</time></trkpt><trkpt lat="41.3373543" lon="1.8988449"><ele>352.75</ele><time>2026-05-04T17:25:54.5Z</time></trkpt><trkpt lat="41.3372758" lon="1.8990029"><ele>352.5</ele><time>2026-05-04T17:25:55.492Z</time></trkpt><trkpt lat="41.337208" lon="1.8991649"><ele>352.25</ele><time>2026-05-04T17:25:56.496Z</time></trkpt><trkpt lat="41.3371513" lon="1.8993221"><ele>352.0</ele><time>2026-05-04T17:25:57.502Z</time></trkpt><trkpt lat="41.3371072" lon="1.8994642"><ele>352.0</ele><time>2026-05-04T17:25:58.502Z</time></trkpt><trkpt lat="41.3370481" lon="1.8995662"><ele>352.0</ele><time>2026-05-04T17:25:59.492Z</time></trkpt><trkpt lat="41.3369916" lon="1.8996475"><ele>352.0</ele><time>2026-05-04T17:26:00.5Z</time></trkpt><trkpt lat="41.3369512" lon="1.8997362"><ele>352.0</ele><time>2026-05-04T17:26:01.49Z</time></trkpt><trkpt lat="41.3369302" lon="1.8998283"><ele>352.0</ele><time>2026-05-04T17:26:02.506Z</time></trkpt><trkpt lat="41.3369361" lon="1.899928"><ele>352.0</ele><time>2026-05-04T17:26:03.503Z</time></trkpt><trkpt lat="41.3369847" lon="1.9000382"><ele>352.20000000000005</ele><time>2026-05-04T17:26:04.498Z</time></trkpt><trkpt lat="41.3370263" lon="1.9001521"><ele>352.4</ele><time>2026-05-04T17:26:05.501Z</time></trkpt><trkpt lat="41.3370383" lon="1.9002779"><ele>352.6</ele><time>2026-05-04T17:26:06.5Z</time></trkpt><trkpt lat="41.3370321" lon="1.9004182"><ele>352.79999999999995</ele><time>2026-05-04T17:26:07.497Z</time></trkpt><trkpt lat="41.3370129" lon="1.9005724"><ele>353.0</ele><time>2026-05-04T17:26:08.494Z</time></trkpt><trkpt lat="41.3369891" lon="1.9007368"><ele>353.0</ele><time>2026-05-04T17:26:09.489Z</time></trkpt><trkpt lat="41.3369628" lon="1.9009044"><ele>353.0</ele><time>2026-05-04T17:26:10.496Z</time></trkpt><trkpt lat="41.3369373" lon="1.9010822"><ele>353.0</ele><time>2026-05-04T17:26:11.498Z</time></trkpt><trkpt lat="41.3369136" lon="1.9012713"><ele>353.0</ele><time>2026-05-04T17:26:12.497Z</time></trkpt><trkpt lat="41.3368834" lon="1.9014716"><ele>353.33333333333337</ele><time>2026-05-04T17:26:13.497Z</time></trkpt><trkpt lat="41.3368467" lon="1.9016877"><ele>353.6666666666667</ele><time>2026-05-04T17:26:14.496Z</time></trkpt><trkpt lat="41.3368084" lon="1.9018995"><ele>354.0</ele><time>2026-05-04T17:26:15.492Z</time></trkpt><trkpt lat="41.3367683" lon="1.9021133"><ele>354.3333333333333</ele><time>2026-05-04T17:26:16.497Z</time></trkpt><trkpt lat="41.3367247" lon="1.9023306"><ele>354.66666666666663</ele><time>2026-05-04T17:26:17.515Z</time></trkpt><trkpt lat="41.3366894" lon="1.902545"><ele>355.0</ele><time>2026-05-04T17:26:18.498Z</time></trkpt><trkpt lat="41.3366486" lon="1.9027665"><ele>354.25</ele><time>2026-05-04T17:26:19.501Z</time></trkpt><trkpt lat="41.3365991" lon="1.902975"><ele>353.5</ele><time>2026-05-04T17:26:20.496Z</time></trkpt><trkpt lat="41.33654" lon="1.9031588"><ele>352.75</ele><time>2026-05-04T17:26:21.488Z</time></trkpt><trkpt lat="41.3364668" lon="1.9032834"><ele>352.0</ele><time>2026-05-04T17:26:22.495Z</time></trkpt><trkpt lat="41.3363861" lon="1.9033604"><ele>352.0</ele><time>2026-05-04T17:26:23.495Z</time></trkpt><trkpt lat="41.3363117" lon="1.9033956"><ele>352.0</ele><time>2026-05-04T17:26:24.491Z</time></trkpt><trkpt lat="41.3362154" lon="1.903406"><ele>352.0</ele><time>2026-05-04T17:26:25.485Z</time></trkpt><trkpt lat="41.3361255" lon="1.9034145"><ele>352.0</ele><time>2026-05-04T17:26:26.486Z</time></trkpt><trkpt lat="41.3360185" lon="1.9034551"><ele>352.0</ele><time>2026-05-04T17:26:27.488Z</time></trkpt><trkpt lat="41.3359152" lon="1.9035067"><ele>352.5</ele><time>2026-05-04T17:26:28.486Z</time></trkpt><trkpt lat="41.3357997" lon="1.9035535"><ele>353.0</ele><time>2026-05-04T17:26:29.491Z</time></trkpt><trkpt lat="41.3356696" lon="1.9035949"><ele>353.5</ele><time>2026-05-04T17:26:30.494Z</time></trkpt><trkpt lat="41.33553" lon="1.9036369"><ele>354.0</ele><time>2026-05-04T17:26:31.49Z</time></trkpt><trkpt lat="41.3353802" lon="1.9036877"><ele>354.0</ele><time>2026-05-04T17:26:32.494Z</time></trkpt><trkpt lat="41.3352217" lon="1.9037543"><ele>354.0</ele><time>2026-05-04T17:26:33.497Z</time></trkpt><trkpt lat="41.3350502" lon="1.9038344"><ele>354.0</ele><time>2026-05-04T17:26:34.5Z</time></trkpt><trkpt lat="41.3348848" lon="1.90392"><ele>354.0</ele><time>2026-05-04T17:26:35.501Z</time></trkpt><trkpt lat="41.334719" lon="1.9040138"><ele>354.0</ele><time>2026-05-04T17:26:36.502Z</time></trkpt><trkpt lat="41.3345555" lon="1.9041277"><ele>354.0</ele><time>2026-05-04T17:26:37.499Z</time></trkpt><trkpt lat="41.3343926" lon="1.9042393"><ele>354.6666666666667</ele><time>2026-05-04T17:26:38.501Z</time></trkpt><trkpt lat="41.3342342" lon="1.9043576"><ele>355.33333333333337</ele><time>2026-05-04T17:26:39.5Z</time></trkpt><trkpt lat="41.3340753" lon="1.9044835"><ele>356.0</ele><time>2026-05-04T17:26:40.502Z</time></trkpt><trkpt lat="41.333917" lon="1.9046236"><ele>356.0</ele><time>2026-05-04T17:26:41.508Z</time></trkpt><trkpt lat="41.3337687" lon="1.9047754"><ele>356.0</ele><time>2026-05-04T17:26:42.503Z</time></trkpt><trkpt lat="41.3336174" lon="1.9049414"><ele>356.0</ele><time>2026-05-04T17:26:43.505Z</time></trkpt><trkpt lat="41.3334766" lon="1.9051191"><ele>355.6666666666667</ele><time>2026-05-04T17:26:44.499Z</time></trkpt><trkpt lat="41.333332" lon="1.905299"><ele>355.3333333333333</ele><time>2026-05-04T17:26:45.497Z</time></trkpt><trkpt lat="41.3331886" lon="1.9054979"><ele>355.0</ele><time>2026-05-04T17:26:46.502Z</time></trkpt><trkpt lat="41.333044" lon="1.9056938"><ele>355.0</ele><time>2026-05-04T17:26:47.504Z</time></trkpt><trkpt lat="41.3328925" lon="1.9058904"><ele>355.0</ele><time>2026-05-04T17:26:48.521Z</time></trkpt><trkpt lat="41.3327396" lon="1.9060834"><ele>355.0</ele><time>2026-05-04T17:26:49.503Z</time></trkpt><trkpt lat="41.3325902" lon="1.906283"><ele>355.0</ele><time>2026-05-04T17:26:50.503Z</time></trkpt><trkpt lat="41.3324306" lon="1.9064832"><ele>355.0</ele><time>2026-05-04T17:26:51.499Z</time></trkpt><trkpt lat="41.3322788" lon="1.9066798"><ele>355.0</ele><time>2026-05-04T17:26:52.504Z</time></trkpt><trkpt lat="41.3321186" lon="1.9068825"><ele>356.66666666666663</ele><time>2026-05-04T17:26:53.502Z</time></trkpt><trkpt lat="41.331963" lon="1.9071001"><ele>358.3333333333333</ele><time>2026-05-04T17:26:54.499Z</time></trkpt><trkpt lat="41.3318112" lon="1.9073022"><ele>360.0</ele><time>2026-05-04T17:26:55.5Z</time></trkpt><trkpt lat="41.3316531" lon="1.9075106"><ele>360.0</ele><time>2026-05-04T17:26:56.5Z</time></trkpt><trkpt lat="41.3315015" lon="1.9077196"><ele>360.0</ele><time>2026-05-04T17:26:57.499Z</time></trkpt><trkpt lat="41.3313409" lon="1.9079297"><ele>360.0</ele><time>2026-05-04T17:26:58.504Z</time></trkpt><trkpt lat="41.3311849" lon="1.9081433"><ele>360.6666666666667</ele><time>2026-05-04T17:26:59.502Z</time></trkpt><trkpt lat="41.3310343" lon="1.9083539"><ele>361.33333333333337</ele><time>2026-05-04T17:27:00.502Z</time></trkpt><trkpt lat="41.3308726" lon="1.9085628"><ele>362.0</ele><time>2026-05-04T17:27:01.505Z</time></trkpt><trkpt lat="41.3307112" lon="1.9087837"><ele>363.6666666666667</ele><time>2026-05-04T17:27:02.501Z</time></trkpt><trkpt lat="41.3305495" lon="1.9089879"><ele>365.3333333333333</ele><time>2026-05-04T17:27:03.501Z</time></trkpt><trkpt lat="41.3303921" lon="1.9092012"><ele>367.0</ele><time>2026-05-04T17:27:04.504Z</time></trkpt><trkpt lat="41.3302327" lon="1.9094169"><ele>367.0</ele><time>2026-05-04T17:27:05.504Z</time></trkpt><trkpt lat="41.3300704" lon="1.909634"><ele>367.0</ele><time>2026-05-04T17:27:06.501Z</time></trkpt><trkpt lat="41.3299181" lon="1.9098543"><ele>369.5</ele><time>2026-05-04T17:27:07.497Z</time></trkpt><trkpt lat="41.3297729" lon="1.9100906"><ele>372.0</ele><time>2026-05-04T17:27:08.497Z</time></trkpt><trkpt lat="41.3296382" lon="1.9103262"><ele>373.0</ele><time>2026-05-04T17:27:09.494Z</time></trkpt><trkpt lat="41.3295105" lon="1.9105737"><ele>374.0</ele><time>2026-05-04T17:27:10.499Z</time></trkpt><trkpt lat="41.3293848" lon="1.9108264"><ele>374.0</ele><time>2026-05-04T17:27:11.494Z</time></trkpt><trkpt lat="41.3292698" lon="1.9110795"><ele>374.0</ele><time>2026-05-04T17:27:12.499Z</time></trkpt><trkpt lat="41.3291609" lon="1.9113387"><ele>374.0</ele><time>2026-05-04T17:27:13.498Z</time></trkpt><trkpt lat="41.3290621" lon="1.9116005"><ele>374.0</ele><time>2026-05-04T17:27:14.499Z</time></trkpt><trkpt lat="41.3289732" lon="1.9118634"><ele>374.0</ele><time>2026-05-04T17:27:15.496Z</time></trkpt><trkpt lat="41.3288798" lon="1.9121319"><ele>374.0</ele><time>2026-05-04T17:27:16.493Z</time></trkpt><trkpt lat="41.3288031" lon="1.9124074"><ele>375.0</ele><time>2026-05-04T17:27:17.49Z</time></trkpt><trkpt lat="41.3287332" lon="1.912688"><ele>376.0</ele><time>2026-05-04T17:27:18.486Z</time></trkpt><trkpt lat="41.3286804" lon="1.9129502"><ele>377.0</ele><time>2026-05-04T17:27:19.513Z</time></trkpt><trkpt lat="41.3286387" lon="1.9131972"><ele>377.0</ele><time>2026-05-04T17:27:20.492Z</time></trkpt><trkpt lat="41.328599" lon="1.9134419"><ele>377.0</ele><time>2026-05-04T17:27:21.498Z</time></trkpt><trkpt lat="41.3285712" lon="1.9136722"><ele>377.0</ele><time>2026-05-04T17:27:22.49Z</time></trkpt><trkpt lat="41.3285477" lon="1.9138842"><ele>377.0</ele><time>2026-05-04T17:27:23.495Z</time></trkpt><trkpt lat="41.3285261" lon="1.9140857"><ele>377.0</ele><time>2026-05-04T17:27:24.497Z</time></trkpt><trkpt lat="41.3285134" lon="1.9142901"><ele>377.0</ele><time>2026-05-04T17:27:25.498Z</time></trkpt><trkpt lat="41.3285065" lon="1.9144993"><ele>377.25</ele><time>2026-05-04T17:27:26.499Z</time></trkpt><trkpt lat="41.3285055" lon="1.9146922"><ele>377.5</ele><time>2026-05-04T17:27:27.497Z</time></trkpt><trkpt lat="41.3285132" lon="1.9148773"><ele>377.75</ele><time>2026-05-04T17:27:28.501Z</time></trkpt><trkpt lat="41.3285202" lon="1.9150631"><ele>378.0</ele><time>2026-05-04T17:27:29.502Z</time></trkpt><trkpt lat="41.3285318" lon="1.9152464"><ele>377.5</ele><time>2026-05-04T17:27:30.504Z</time></trkpt><trkpt lat="41.3285482" lon="1.9154207"><ele>377.0</ele><time>2026-05-04T17:27:31.5Z</time></trkpt><trkpt lat="41.3285669" lon="1.9155944"><ele>376.5</ele><time>2026-05-04T17:27:32.502Z</time></trkpt><trkpt lat="41.3285816" lon="1.9157755"><ele>376.0</ele><time>2026-05-04T17:27:33.501Z</time></trkpt><trkpt lat="41.3285988" lon="1.9159723"><ele>375.0</ele><time>2026-05-04T17:27:34.501Z</time></trkpt><trkpt lat="41.3286208" lon="1.9161603"><ele>374.0</ele><time>2026-05-04T17:27:35.5Z</time></trkpt><trkpt lat="41.3286441" lon="1.9163546"><ele>373.0</ele><time>2026-05-04T17:27:36.499Z</time></trkpt><trkpt lat="41.3286654" lon="1.9165412"><ele>372.0</ele><time>2026-05-04T17:27:37.5Z</time></trkpt><trkpt lat="41.328693" lon="1.9167358"><ele>371.25</ele><time>2026-05-04T17:27:38.5Z</time></trkpt><trkpt lat="41.3287201" lon="1.9169346"><ele>370.5</ele><time>2026-05-04T17:27:39.5Z</time></trkpt><trkpt lat="41.328751" lon="1.91713"><ele>369.75</ele><time>2026-05-04T17:27:40.5Z</time></trkpt><trkpt lat="41.3287813" lon="1.9173217"><ele>369.0</ele><time>2026-05-04T17:27:41.498Z</time></trkpt><trkpt lat="41.3288099" lon="1.9175077"><ele>369.5</ele><time>2026-05-04T17:27:42.498Z</time></trkpt><trkpt lat="41.3288345" lon="1.9176963"><ele>370.0</ele><time>2026-05-04T17:27:43.498Z</time></trkpt><trkpt lat="41.32886" lon="1.9178923"><ele>370.5</ele><time>2026-05-04T17:27:44.501Z</time></trkpt><trkpt lat="41.3288741" lon="1.9180846"><ele>371.0</ele><time>2026-05-04T17:27:45.504Z</time></trkpt><trkpt lat="41.3288837" lon="1.9182743"><ele>371.0</ele><time>2026-05-04T17:27:46.499Z</time></trkpt><trkpt lat="41.3288917" lon="1.9184524"><ele>371.0</ele><time>2026-05-04T17:27:47.499Z</time></trkpt><trkpt lat="41.3288929" lon="1.9186407"><ele>371.0</ele><time>2026-05-04T17:27:48.501Z</time></trkpt><trkpt lat="41.3288931" lon="1.9188174"><ele>371.0</ele><time>2026-05-04T17:27:49.502Z</time></trkpt><trkpt lat="41.3288892" lon="1.9189843"><ele>371.0</ele><time>2026-05-04T17:27:50.518Z</time></trkpt><trkpt lat="41.3288849" lon="1.9191519"><ele>371.0</ele><time>2026-05-04T17:27:51.499Z</time></trkpt><trkpt lat="41.3288824" lon="1.9193085"><ele>371.0</ele><time>2026-05-04T17:27:52.503Z</time></trkpt><trkpt lat="41.3288878" lon="1.9194643"><ele>371.0</ele><time>2026-05-04T17:27:53.499Z</time></trkpt><trkpt lat="41.3288895" lon="1.9196096"><ele>371.0</ele><time>2026-05-04T17:27:54.494Z</time></trkpt><trkpt lat="41.3288888" lon="1.9197436"><ele>371.0</ele><time>2026-05-04T17:27:55.494Z</time></trkpt><trkpt lat="41.3288845" lon="1.9198597"><ele>371.0</ele><time>2026-05-04T17:27:56.498Z</time></trkpt><trkpt lat="41.3288662" lon="1.9199655"><ele>371.0</ele><time>2026-05-04T17:27:57.499Z</time></trkpt><trkpt lat="41.3288374" lon="1.9200633"><ele>371.0</ele><time>2026-05-04T17:27:58.499Z</time></trkpt><trkpt lat="41.3287991" lon="1.9201579"><ele>371.0</ele><time>2026-05-04T17:27:59.498Z</time></trkpt><trkpt lat="41.3287688" lon="1.9202576"><ele>371.0</ele><time>2026-05-04T17:28:00.501Z</time></trkpt><trkpt lat="41.3287539" lon="1.9203596"><ele>371.0</ele><time>2026-05-04T17:28:01.501Z</time></trkpt><trkpt lat="41.3287732" lon="1.920475"><ele>371.0</ele><time>2026-05-04T17:28:02.501Z</time></trkpt><trkpt lat="41.3288179" lon="1.9205902"><ele>371.0</ele><time>2026-05-04T17:28:03.497Z</time></trkpt><trkpt lat="41.3288674" lon="1.9207182"><ele>371.0</ele><time>2026-05-04T17:28:04.496Z</time></trkpt><trkpt lat="41.3288926" lon="1.9208606"><ele>370.5</ele><time>2026-05-04T17:28:05.497Z</time></trkpt><trkpt lat="41.3288983" lon="1.9210193"><ele>370.0</ele><time>2026-05-04T17:28:06.497Z</time></trkpt><trkpt lat="41.3288955" lon="1.9211821"><ele>369.5</ele><time>2026-05-04T17:28:07.5Z</time></trkpt><trkpt lat="41.3288973" lon="1.921356"><ele>369.0</ele><time>2026-05-04T17:28:08.501Z</time></trkpt><trkpt lat="41.3288988" lon="1.9215361"><ele>369.0</ele><time>2026-05-04T17:28:09.501Z</time></trkpt><trkpt lat="41.3288952" lon="1.9217164"><ele>369.0</ele><time>2026-05-04T17:28:10.5Z</time></trkpt><trkpt lat="41.3288935" lon="1.9218967"><ele>369.0</ele><time>2026-05-04T17:28:11.5Z</time></trkpt><trkpt lat="41.3288895" lon="1.9220766"><ele>369.0</ele><time>2026-05-04T17:28:12.5Z</time></trkpt><trkpt lat="41.3288848" lon="1.9222515"><ele>369.5</ele><time>2026-05-04T17:28:13.503Z</time></trkpt><trkpt lat="41.3288819" lon="1.9224164"><ele>370.0</ele><time>2026-05-04T17:28:14.5Z</time></trkpt><trkpt lat="41.3288837" lon="1.9225749"><ele>370.5</ele><time>2026-05-04T17:28:15.498Z</time></trkpt><trkpt lat="41.3288812" lon="1.9227239"><ele>371.0</ele><time>2026-05-04T17:28:16.503Z</time></trkpt><trkpt lat="41.3288765" lon="1.9228674"><ele>371.0</ele><time>2026-05-04T17:28:17.502Z</time></trkpt><trkpt lat="41.3288717" lon="1.9230139"><ele>371.0</ele><time>2026-05-04T17:28:18.501Z</time></trkpt><trkpt lat="41.3288654" lon="1.9231589"><ele>371.0</ele><time>2026-05-04T17:28:19.502Z</time></trkpt><trkpt lat="41.328858" lon="1.9233131"><ele>371.0</ele><time>2026-05-04T17:28:20.505Z</time></trkpt><trkpt lat="41.3288506" lon="1.9234704"><ele>371.0</ele><time>2026-05-04T17:28:21.519Z</time></trkpt><trkpt lat="41.328846" lon="1.923633"><ele>371.0</ele><time>2026-05-04T17:28:22.502Z</time></trkpt><trkpt lat="41.3288366" lon="1.9238034"><ele>371.0</ele><time>2026-05-04T17:28:23.504Z</time></trkpt><trkpt lat="41.3288233" lon="1.923976"><ele>371.0</ele><time>2026-05-04T17:28:24.499Z</time></trkpt><trkpt lat="41.3288078" lon="1.9241507"><ele>371.25</ele><time>2026-05-04T17:28:25.501Z</time></trkpt><trkpt lat="41.3287872" lon="1.9243299"><ele>371.5</ele><time>2026-05-04T17:28:26.504Z</time></trkpt><trkpt lat="41.3287676" lon="1.924497"><ele>371.75</ele><time>2026-05-04T17:28:27.504Z</time></trkpt><trkpt lat="41.3287476" lon="1.9246561"><ele>372.0</ele><time>2026-05-04T17:28:28.501Z</time></trkpt><trkpt lat="41.3287204" lon="1.9248068"><ele>372.0</ele><time>2026-05-04T17:28:29.503Z</time></trkpt><trkpt lat="41.3286951" lon="1.9249501"><ele>372.0</ele><time>2026-05-04T17:28:30.505Z</time></trkpt><trkpt lat="41.3286694" lon="1.9250917"><ele>372.0</ele><time>2026-05-04T17:28:31.501Z</time></trkpt><trkpt lat="41.3286372" lon="1.9252342"><ele>372.0</ele><time>2026-05-04T17:28:32.497Z</time></trkpt><trkpt lat="41.3286103" lon="1.9253772"><ele>372.0</ele><time>2026-05-04T17:28:33.497Z</time></trkpt><trkpt lat="41.3285827" lon="1.9255148"><ele>372.20000000000005</ele><time>2026-05-04T17:28:34.499Z</time></trkpt><trkpt lat="41.3285566" lon="1.9256578"><ele>372.4</ele><time>2026-05-04T17:28:35.497Z</time></trkpt><trkpt lat="41.3285283" lon="1.9257927"><ele>372.6</ele><time>2026-05-04T17:28:36.5Z</time></trkpt><trkpt lat="41.3285021" lon="1.9259234"><ele>372.79999999999995</ele><time>2026-05-04T17:28:37.498Z</time></trkpt><trkpt lat="41.3284736" lon="1.9260477"><ele>373.0</ele><time>2026-05-04T17:28:38.498Z</time></trkpt><trkpt lat="41.328444" lon="1.9261658"><ele>373.5</ele><time>2026-05-04T17:28:39.492Z</time></trkpt><trkpt lat="41.3284034" lon="1.9262684"><ele>374.0</ele><time>2026-05-04T17:28:40.493Z</time></trkpt><trkpt lat="41.3283486" lon="1.9263466"><ele>374.5</ele><time>2026-05-04T17:28:41.491Z</time></trkpt><trkpt lat="41.3282854" lon="1.9264062"><ele>375.0</ele><time>2026-05-04T17:28:42.49Z</time></trkpt><trkpt lat="41.3282233" lon="1.9264598"><ele>375.5</ele><time>2026-05-04T17:28:43.49Z</time></trkpt><trkpt lat="41.3281762" lon="1.9265354"><ele>376.0</ele><time>2026-05-04T17:28:44.496Z</time></trkpt><trkpt lat="41.3281534" lon="1.9266277"><ele>376.20000000000005</ele><time>2026-05-04T17:28:45.496Z</time></trkpt><trkpt lat="41.3281594" lon="1.926742"><ele>376.40000000000003</ele><time>2026-05-04T17:28:46.499Z</time></trkpt><trkpt lat="41.3281893" lon="1.9268578"><ele>376.6</ele><time>2026-05-04T17:28:47.496Z</time></trkpt><trkpt lat="41.3282189" lon="1.9269898"><ele>376.8</ele><time>2026-05-04T17:28:48.495Z</time></trkpt><trkpt lat="41.3282351" lon="1.9271207"><ele>377.0</ele><time>2026-05-04T17:28:49.491Z</time></trkpt><trkpt lat="41.3282275" lon="1.9272627"><ele>377.0</ele><time>2026-05-04T17:28:50.492Z</time></trkpt><trkpt lat="41.3282054" lon="1.9274126"><ele>377.0</ele><time>2026-05-04T17:28:51.498Z</time></trkpt><trkpt lat="41.3281801" lon="1.9275748"><ele>377.0</ele><time>2026-05-04T17:28:52.517Z</time></trkpt><trkpt lat="41.3281535" lon="1.9277466"><ele>377.0</ele><time>2026-05-04T17:28:53.496Z</time></trkpt><trkpt lat="41.3281282" lon="1.9279242"><ele>377.0</ele><time>2026-05-04T17:28:54.497Z</time></trkpt><trkpt lat="41.3281019" lon="1.9281059"><ele>377.0</ele><time>2026-05-04T17:28:55.497Z</time></trkpt><trkpt lat="41.3280755" lon="1.9282885"><ele>377.0</ele><time>2026-05-04T17:28:56.508Z</time></trkpt><trkpt lat="41.3280565" lon="1.928465"><ele>377.0</ele><time>2026-05-04T17:28:57.489Z</time></trkpt><trkpt lat="41.3280382" lon="1.928637"><ele>378.75</ele><time>2026-05-04T17:28:58.502Z</time></trkpt><trkpt lat="41.3280268" lon="1.9288046"><ele>380.5</ele><time>2026-05-04T17:28:59.501Z</time></trkpt><trkpt lat="41.328016" lon="1.9289665"><ele>382.25</ele><time>2026-05-04T17:29:00.5Z</time></trkpt><trkpt lat="41.3280065" lon="1.9291262"><ele>384.0</ele><time>2026-05-04T17:29:01.494Z</time></trkpt><trkpt lat="41.3279992" lon="1.9292826"><ele>384.0</ele><time>2026-05-04T17:29:02.496Z</time></trkpt><trkpt lat="41.3279914" lon="1.9294356"><ele>384.0</ele><time>2026-05-04T17:29:03.494Z</time></trkpt><trkpt lat="41.327978" lon="1.9295952"><ele>384.0</ele><time>2026-05-04T17:29:04.495Z</time></trkpt><trkpt lat="41.3279684" lon="1.9297592"><ele>384.0</ele><time>2026-05-04T17:29:05.497Z</time></trkpt><trkpt lat="41.3279587" lon="1.9299306"><ele>382.0</ele><time>2026-05-04T17:29:06.498Z</time></trkpt><trkpt lat="41.327948" lon="1.9301039"><ele>380.0</ele><time>2026-05-04T17:29:07.498Z</time></trkpt><trkpt lat="41.3279395" lon="1.9302729"><ele>378.0</ele><time>2026-05-04T17:29:08.509Z</time></trkpt><trkpt lat="41.3279274" lon="1.9304464"><ele>376.0</ele><time>2026-05-04T17:29:09.501Z</time></trkpt><trkpt lat="41.327917" lon="1.9306203"><ele>376.0</ele><time>2026-05-04T17:29:10.502Z</time></trkpt><trkpt lat="41.3279067" lon="1.9307946"><ele>376.0</ele><time>2026-05-04T17:29:11.501Z</time></trkpt><trkpt lat="41.3278978" lon="1.9309677"><ele>376.0</ele><time>2026-05-04T17:29:12.501Z</time></trkpt><trkpt lat="41.3278866" lon="1.9311402"><ele>376.0</ele><time>2026-05-04T17:29:13.498Z</time></trkpt><trkpt lat="41.3278745" lon="1.9313144"><ele>377.5</ele><time>2026-05-04T17:29:14.499Z</time></trkpt><trkpt lat="41.3278663" lon="1.9314867"><ele>379.0</ele><time>2026-05-04T17:29:15.501Z</time></trkpt><trkpt lat="41.3278573" lon="1.9316564"><ele>380.5</ele><time>2026-05-04T17:29:16.503Z</time></trkpt><trkpt lat="41.3278476" lon="1.9318306"><ele>382.0</ele><time>2026-05-04T17:29:17.501Z</time></trkpt><trkpt lat="41.3278376" lon="1.9320029"><ele>383.5</ele><time>2026-05-04T17:29:18.498Z</time></trkpt><trkpt lat="41.3278287" lon="1.932178"><ele>385.0</ele><time>2026-05-04T17:29:19.502Z</time></trkpt><trkpt lat="41.3278202" lon="1.9323576"><ele>386.5</ele><time>2026-05-04T17:29:20.501Z</time></trkpt><trkpt lat="41.3278123" lon="1.9325332"><ele>388.0</ele><time>2026-05-04T17:29:21.503Z</time></trkpt><trkpt lat="41.3278032" lon="1.9327139"><ele>388.75</ele><time>2026-05-04T17:29:22.504Z</time></trkpt><trkpt lat="41.3278009" lon="1.9329064"><ele>389.5</ele><time>2026-05-04T17:29:23.522Z</time></trkpt><trkpt lat="41.3277975" lon="1.9331069"><ele>390.25</ele><time>2026-05-04T17:29:24.5Z</time></trkpt><trkpt lat="41.3277967" lon="1.9332919"><ele>391.0</ele><time>2026-05-04T17:29:25.503Z</time></trkpt><trkpt lat="41.3278131" lon="1.9334831"><ele>391.25</ele><time>2026-05-04T17:29:26.504Z</time></trkpt><trkpt lat="41.327841" lon="1.9336641"><ele>391.5</ele><time>2026-05-04T17:29:27.503Z</time></trkpt><trkpt lat="41.32788" lon="1.9338519"><ele>391.75</ele><time>2026-05-04T17:29:28.498Z</time></trkpt><trkpt lat="41.3279119" lon="1.9340312"><ele>392.0</ele><time>2026-05-04T17:29:29.498Z</time></trkpt><trkpt lat="41.3279529" lon="1.9341949"><ele>393.0</ele><time>2026-05-04T17:29:30.508Z</time></trkpt><trkpt lat="41.328" lon="1.9343658"><ele>394.0</ele><time>2026-05-04T17:29:31.497Z</time></trkpt><trkpt lat="41.3280498" lon="1.9345433"><ele>395.0</ele><time>2026-05-04T17:29:32.5Z</time></trkpt><trkpt lat="41.3280993" lon="1.9347202"><ele>396.0</ele><time>2026-05-04T17:29:33.499Z</time></trkpt><trkpt lat="41.3281425" lon="1.9348963"><ele>394.25</ele><time>2026-05-04T17:29:34.499Z</time></trkpt><trkpt lat="41.3281819" lon="1.9350679"><ele>392.5</ele><time>2026-05-04T17:29:35.501Z</time></trkpt><trkpt lat="41.3282211" lon="1.9352434"><ele>390.75</ele><time>2026-05-04T17:29:36.501Z</time></trkpt><trkpt lat="41.3282545" lon="1.9354196"><ele>389.0</ele><time>2026-05-04T17:29:37.5Z</time></trkpt><trkpt lat="41.328288" lon="1.9355911"><ele>389.0</ele><time>2026-05-04T17:29:38.501Z</time></trkpt><trkpt lat="41.3283105" lon="1.9357679"><ele>389.0</ele><time>2026-05-04T17:29:39.5Z</time></trkpt><trkpt lat="41.328316" lon="1.9359521"><ele>389.0</ele><time>2026-05-04T17:29:40.494Z</time></trkpt><trkpt lat="41.3283188" lon="1.9361289"><ele>389.0</ele><time>2026-05-04T17:29:41.5Z</time></trkpt><trkpt lat="41.3283128" lon="1.9362969"><ele>389.2</ele><time>2026-05-04T17:29:42.501Z</time></trkpt><trkpt lat="41.3283022" lon="1.9364489"><ele>389.4</ele><time>2026-05-04T17:29:43.5Z</time></trkpt><trkpt lat="41.3282984" lon="1.9365876"><ele>389.6</ele><time>2026-05-04T17:29:44.503Z</time></trkpt><trkpt lat="41.3282866" lon="1.9367148"><ele>389.8</ele><time>2026-05-04T17:29:45.501Z</time></trkpt><trkpt lat="41.328281" lon="1.9368392"><ele>390.0</ele><time>2026-05-04T17:29:46.504Z</time></trkpt><trkpt lat="41.3282758" lon="1.9369683"><ele>390.2</ele><time>2026-05-04T17:29:47.497Z</time></trkpt><trkpt lat="41.328268" lon="1.9370931"><ele>390.4</ele><time>2026-05-04T17:29:48.5Z</time></trkpt><trkpt lat="41.3282575" lon="1.9372162"><ele>390.6</ele><time>2026-05-04T17:29:49.5Z</time></trkpt><trkpt lat="41.3282495" lon="1.9373383"><ele>390.8</ele><time>2026-05-04T17:29:50.501Z</time></trkpt><trkpt lat="41.3282417" lon="1.93746"><ele>391.0</ele><time>2026-05-04T17:29:51.501Z</time></trkpt><trkpt lat="41.3282325" lon="1.9375757"><ele>391.00000000000006</ele><time>2026-05-04T17:29:52.501Z</time></trkpt><trkpt lat="41.3282169" lon="1.9376846"><ele>391.0</ele><time>2026-05-04T17:29:53.501Z</time></trkpt><trkpt lat="41.3281927" lon="1.9377816"><ele>391.0</ele><time>2026-05-04T17:29:54.524Z</time></trkpt><trkpt lat="41.328148" lon="1.9378707"><ele>391.0</ele><time>2026-05-04T17:29:55.498Z</time></trkpt><trkpt lat="41.3281046" lon="1.9379628"><ele>391.00000000000006</ele><time>2026-05-04T17:29:56.499Z</time></trkpt><trkpt lat="41.3280753" lon="1.9380813"><ele>391.0</ele><time>2026-05-04T17:29:57.501Z</time></trkpt><trkpt lat="41.3280789" lon="1.9382094"><ele>391.0</ele><time>2026-05-04T17:29:58.501Z</time></trkpt><trkpt lat="41.3281123" lon="1.9383282"><ele>391.0</ele><time>2026-05-04T17:29:59.504Z</time></trkpt><trkpt lat="41.3281604" lon="1.9384542"><ele>391.0</ele><time>2026-05-04T17:30:00.504Z</time></trkpt><trkpt lat="41.328197" lon="1.9385969"><ele>391.0</ele><time>2026-05-04T17:30:01.493Z</time></trkpt><trkpt lat="41.3282215" lon="1.9387512"><ele>391.0</ele><time>2026-05-04T17:30:02.497Z</time></trkpt><trkpt lat="41.3282404" lon="1.9389155"><ele>391.5</ele><time>2026-05-04T17:30:03.503Z</time></trkpt><trkpt lat="41.3282493" lon="1.9390767"><ele>392.0</ele><time>2026-05-04T17:30:04.499Z</time></trkpt><trkpt lat="41.3282481" lon="1.9392421"><ele>392.5</ele><time>2026-05-04T17:30:05.498Z</time></trkpt><trkpt lat="41.3282396" lon="1.9394119"><ele>393.0</ele><time>2026-05-04T17:30:06.503Z</time></trkpt><trkpt lat="41.3282268" lon="1.9395789"><ele>393.0</ele><time>2026-05-04T17:30:07.506Z</time></trkpt><trkpt lat="41.3282069" lon="1.9397428"><ele>393.0</ele><time>2026-05-04T17:30:08.511Z</time></trkpt><trkpt lat="41.3281865" lon="1.9399089"><ele>393.0</ele><time>2026-05-04T17:30:09.504Z</time></trkpt><trkpt lat="41.3281701" lon="1.9400695"><ele>393.0</ele><time>2026-05-04T17:30:10.504Z</time></trkpt><trkpt lat="41.3281534" lon="1.9402324"><ele>392.75</ele><time>2026-05-04T17:30:11.508Z</time></trkpt><trkpt lat="41.3281359" lon="1.9403996"><ele>392.5</ele><time>2026-05-04T17:30:12.507Z</time></trkpt><trkpt lat="41.3281178" lon="1.9405684"><ele>392.25</ele><time>2026-05-04T17:30:13.507Z</time></trkpt><trkpt lat="41.3280999" lon="1.9407387"><ele>392.0</ele><time>2026-05-04T17:30:14.509Z</time></trkpt><trkpt lat="41.3280779" lon="1.940912"><ele>392.75</ele><time>2026-05-04T17:30:15.507Z</time></trkpt><trkpt lat="41.3280563" lon="1.9410822"><ele>393.5</ele><time>2026-05-04T17:30:16.508Z</time></trkpt><trkpt lat="41.3280328" lon="1.9412579"><ele>394.25</ele><time>2026-05-04T17:30:17.506Z</time></trkpt><trkpt lat="41.3280114" lon="1.941436"><ele>395.0</ele><time>2026-05-04T17:30:18.506Z</time></trkpt><trkpt lat="41.3279845" lon="1.9416129"><ele>396.0</ele><time>2026-05-04T17:30:19.507Z</time></trkpt><trkpt lat="41.3279627" lon="1.9417932"><ele>397.0</ele><time>2026-05-04T17:30:20.508Z</time></trkpt><trkpt lat="41.3279377" lon="1.9419704"><ele>398.0</ele><time>2026-05-04T17:30:21.506Z</time></trkpt><trkpt lat="41.3279112" lon="1.9421486"><ele>399.0</ele><time>2026-05-04T17:30:22.512Z</time></trkpt><trkpt lat="41.3278844" lon="1.9423171"><ele>399.0</ele><time>2026-05-04T17:30:23.511Z</time></trkpt><trkpt lat="41.3278606" lon="1.9424946"><ele>399.0</ele><time>2026-05-04T17:30:24.507Z</time></trkpt><trkpt lat="41.3278414" lon="1.9426705"><ele>399.0</ele><time>2026-05-04T17:30:25.527Z</time></trkpt><trkpt lat="41.3278185" lon="1.9428447"><ele>399.0</ele><time>2026-05-04T17:30:26.506Z</time></trkpt><trkpt lat="41.3277927" lon="1.9430174"><ele>399.75</ele><time>2026-05-04T17:30:27.514Z</time></trkpt><trkpt lat="41.3277709" lon="1.9431873"><ele>400.5</ele><time>2026-05-04T17:30:28.508Z</time></trkpt><trkpt lat="41.3277501" lon="1.9433586"><ele>401.25</ele><time>2026-05-04T17:30:29.508Z</time></trkpt><trkpt lat="41.32773" lon="1.9435308"><ele>402.0</ele><time>2026-05-04T17:30:30.512Z</time></trkpt><trkpt lat="41.3277136" lon="1.9436962"><ele>402.75</ele><time>2026-05-04T17:30:31.511Z</time></trkpt><trkpt lat="41.3276927" lon="1.943862"><ele>403.5</ele><time>2026-05-04T17:30:32.508Z</time></trkpt><trkpt lat="41.3276723" lon="1.9440225"><ele>404.25</ele><time>2026-05-04T17:30:33.508Z</time></trkpt><trkpt lat="41.3276483" lon="1.9441875"><ele>405.0</ele><time>2026-05-04T17:30:34.507Z</time></trkpt><trkpt lat="41.3276173" lon="1.9443485"><ele>405.25</ele><time>2026-05-04T17:30:35.506Z</time></trkpt><trkpt lat="41.3275828" lon="1.9445048"><ele>405.5</ele><time>2026-05-04T17:30:36.509Z</time></trkpt><trkpt lat="41.3275438" lon="1.9446604"><ele>405.75</ele><time>2026-05-04T17:30:37.508Z</time></trkpt><trkpt lat="41.3274991" lon="1.9448169"><ele>406.0</ele><time>2026-05-04T17:30:38.509Z</time></trkpt><trkpt lat="41.327452" lon="1.9449683"><ele>407.0</ele><time>2026-05-04T17:30:39.506Z</time></trkpt><trkpt lat="41.3274059" lon="1.9451143"><ele>408.0</ele><time>2026-05-04T17:30:40.508Z</time></trkpt><trkpt lat="41.3273561" lon="1.9452578"><ele>409.0</ele><time>2026-05-04T17:30:41.51Z</time></trkpt><trkpt lat="41.3273069" lon="1.9453981"><ele>410.0</ele><time>2026-05-04T17:30:42.506Z</time></trkpt><trkpt lat="41.3272529" lon="1.9455412"><ele>410.25</ele><time>2026-05-04T17:30:43.511Z</time></trkpt><trkpt lat="41.3271988" lon="1.9456809"><ele>410.5</ele><time>2026-05-04T17:30:44.509Z</time></trkpt><trkpt lat="41.3271466" lon="1.9458202"><ele>410.75</ele><time>2026-05-04T17:30:45.51Z</time></trkpt><trkpt lat="41.3270937" lon="1.9459518"><ele>411.0</ele><time>2026-05-04T17:30:46.505Z</time></trkpt><trkpt lat="41.3270437" lon="1.9460732"><ele>411.0</ele><time>2026-05-04T17:30:47.509Z</time></trkpt><trkpt lat="41.3270091" lon="1.9461652"><ele>411.0</ele><time>2026-05-04T17:30:48.51Z</time></trkpt><trkpt lat="41.3269398" lon="1.9462714"><ele>411.0</ele><time>2026-05-04T17:30:50.509Z</time></trkpt><trkpt lat="41.326856" lon="1.9463172"><ele>411.0</ele><time>2026-05-04T17:30:52.507Z</time></trkpt><trkpt lat="41.3267749" lon="1.946396"><ele>411.0</ele><time>2026-05-04T17:30:54.505Z</time></trkpt><trkpt lat="41.3267468" lon="1.946522"><ele>411.0</ele><time>2026-05-04T17:30:56.529Z</time></trkpt><trkpt lat="41.3267495" lon="1.9466614"><ele>411.0</ele><time>2026-05-04T17:30:58.508Z</time></trkpt><trkpt lat="41.3267367" lon="1.9467448"><ele>411.0</ele><time>2026-05-04T17:30:59.508Z</time></trkpt><trkpt lat="41.3267073" lon="1.946825"><ele>411.0</ele><time>2026-05-04T17:31:00.516Z</time></trkpt><trkpt lat="41.3266465" lon="1.9469148"><ele>411.0</ele><time>2026-05-04T17:31:01.506Z</time></trkpt><trkpt lat="41.3265673" lon="1.9469981"><ele>411.0</ele><time>2026-05-04T17:31:02.509Z</time></trkpt><trkpt lat="41.3264749" lon="1.9470761"><ele>411.4</ele><time>2026-05-04T17:31:03.509Z</time></trkpt><trkpt lat="41.3263779" lon="1.9471318"><ele>411.8</ele><time>2026-05-04T17:31:04.509Z</time></trkpt><trkpt lat="41.3262779" lon="1.9471707"><ele>412.2</ele><time>2026-05-04T17:31:05.507Z</time></trkpt><trkpt lat="41.3261724" lon="1.9472097"><ele>412.59999999999997</ele><time>2026-05-04T17:31:06.51Z</time></trkpt><trkpt lat="41.3260715" lon="1.947257"><ele>413.0</ele><time>2026-05-04T17:31:07.511Z</time></trkpt><trkpt lat="41.3259716" lon="1.9473161"><ele>413.0</ele><time>2026-05-04T17:31:08.507Z</time></trkpt><trkpt lat="41.3258795" lon="1.9473935"><ele>413.0</ele><time>2026-05-04T17:31:09.501Z</time></trkpt><trkpt lat="41.3257896" lon="1.9474945"><ele>413.0</ele><time>2026-05-04T17:31:10.5Z</time></trkpt><trkpt lat="41.325706" lon="1.9476152"><ele>413.0</ele><time>2026-05-04T17:31:11.494Z</time></trkpt><trkpt lat="41.3256261" lon="1.9477318"><ele>415.0</ele><time>2026-05-04T17:31:12.492Z</time></trkpt><trkpt lat="41.3255615" lon="1.9478507"><ele>417.0</ele><time>2026-05-04T17:31:13.496Z</time></trkpt><trkpt lat="41.3254978" lon="1.9479636"><ele>419.0</ele><time>2026-05-04T17:31:14.496Z</time></trkpt><trkpt lat="41.3254368" lon="1.948075"><ele>421.0</ele><time>2026-05-04T17:31:15.496Z</time></trkpt><trkpt lat="41.3253832" lon="1.9481834"><ele>423.0</ele><time>2026-05-04T17:31:16.493Z</time></trkpt><trkpt lat="41.3253335" lon="1.9482931"><ele>416.59999999999997</ele><time>2026-05-04T17:31:17.5Z</time></trkpt><trkpt lat="41.3252839" lon="1.9484092"><ele>410.2</ele><time>2026-05-04T17:31:18.497Z</time></trkpt><trkpt lat="41.325232" lon="1.9485229"><ele>403.8</ele><time>2026-05-04T17:31:19.499Z</time></trkpt><trkpt lat="41.3251752" lon="1.9486317"><ele>397.4</ele><time>2026-05-04T17:31:20.499Z</time></trkpt><trkpt lat="41.3251062" lon="1.9487291"><ele>391.0</ele><time>2026-05-04T17:31:21.501Z</time></trkpt><trkpt lat="41.3250302" lon="1.9488258"><ele>391.0</ele><time>2026-05-04T17:31:22.506Z</time></trkpt><trkpt lat="41.3249522" lon="1.9489127"><ele>391.0</ele><time>2026-05-04T17:31:23.507Z</time></trkpt><trkpt lat="41.3248671" lon="1.9489881"><ele>391.0</ele><time>2026-05-04T17:31:24.502Z</time></trkpt><trkpt lat="41.3247792" lon="1.9490543"><ele>391.0</ele><time>2026-05-04T17:31:25.499Z</time></trkpt><trkpt lat="41.3246891" lon="1.9491041"><ele>391.0</ele><time>2026-05-04T17:31:26.501Z</time></trkpt><trkpt lat="41.324594" lon="1.9491407"><ele>392.8</ele><time>2026-05-04T17:31:27.517Z</time></trkpt><trkpt lat="41.3244966" lon="1.9491563"><ele>394.6</ele><time>2026-05-04T17:31:28.503Z</time></trkpt><trkpt lat="41.3243921" lon="1.9491592"><ele>396.4</ele><time>2026-05-04T17:31:29.502Z</time></trkpt><trkpt lat="41.3242939" lon="1.9491523"><ele>398.2</ele><time>2026-05-04T17:31:30.506Z</time></trkpt><trkpt lat="41.3241988" lon="1.9491359"><ele>400.0</ele><time>2026-05-04T17:31:31.498Z</time></trkpt><trkpt lat="41.3241028" lon="1.9491146"><ele>400.00000000000006</ele><time>2026-05-04T17:31:32.5Z</time></trkpt><trkpt lat="41.324008" lon="1.9491074"><ele>400.0</ele><time>2026-05-04T17:31:33.5Z</time></trkpt><trkpt lat="41.3239156" lon="1.9490996"><ele>400.0</ele><time>2026-05-04T17:31:34.496Z</time></trkpt><trkpt lat="41.3238328" lon="1.9491112"><ele>400.0</ele><time>2026-05-04T17:31:35.495Z</time></trkpt><trkpt lat="41.323765" lon="1.9491396"><ele>400.00000000000006</ele><time>2026-05-04T17:31:36.499Z</time></trkpt><trkpt lat="41.3236895" lon="1.9492102"><ele>400.0</ele><time>2026-05-04T17:31:38.505Z</time></trkpt><trkpt lat="41.3236365" lon="1.9492584"><ele>393.0</ele><time>2026-05-04T17:31:40.495Z</time></trkpt><trkpt lat="41.3235417" lon="1.9492624"><ele>386.0</ele><time>2026-05-04T17:32:51.492Z</time></trkpt><trkpt lat="41.3234111" lon="1.9492914"><ele>379.0</ele><time>2026-05-04T17:32:53.495Z</time></trkpt><trkpt lat="41.3233236" lon="1.9493154"><ele>372.0</ele><time>2026-05-04T17:32:54.499Z</time></trkpt><trkpt lat="41.3232321" lon="1.9493494"><ele>365.0</ele><time>2026-05-04T17:32:55.497Z</time></trkpt><trkpt lat="41.3231268" lon="1.9493904"><ele>368.25</ele><time>2026-05-04T17:32:56.494Z</time></trkpt><trkpt lat="41.3230146" lon="1.9494321"><ele>371.5</ele><time>2026-05-04T17:32:57.495Z</time></trkpt><trkpt lat="41.3228955" lon="1.9494702"><ele>374.75</ele><time>2026-05-04T17:32:58.494Z</time></trkpt><trkpt lat="41.3227827" lon="1.9495055"><ele>378.0</ele><time>2026-05-04T17:32:59.493Z</time></trkpt><trkpt lat="41.3226852" lon="1.9495368"><ele>378.0</ele><time>2026-05-04T17:33:00.514Z</time></trkpt><trkpt lat="41.3225966" lon="1.9495747"><ele>378.0</ele><time>2026-05-04T17:33:01.494Z</time></trkpt><trkpt lat="41.3225259" lon="1.9496127"><ele>378.0</ele><time>2026-05-04T17:33:02.49Z</time></trkpt><trkpt lat="41.3224696" lon="1.9496585"><ele>378.0</ele><time>2026-05-04T17:33:03.494Z</time></trkpt><trkpt lat="41.3224088" lon="1.9497963"><ele>378.0</ele><time>2026-05-04T17:33:05.497Z</time></trkpt><trkpt lat="41.3224436" lon="1.9499253"><ele>378.0</ele><time>2026-05-04T17:33:07.485Z</time></trkpt><trkpt lat="41.3225662" lon="1.9499277"><ele>378.0</ele><time>2026-05-04T17:33:09.497Z</time></trkpt><trkpt lat="41.3226628" lon="1.9498765"><ele>378.0</ele><time>2026-05-04T17:33:10.496Z</time></trkpt><trkpt lat="41.3227776" lon="1.9498147"><ele>378.0</ele><time>2026-05-04T17:33:11.493Z</time></trkpt><trkpt lat="41.3229008" lon="1.9497579"><ele>378.0</ele><time>2026-05-04T17:33:12.503Z</time></trkpt><trkpt lat="41.3230392" lon="1.949713"><ele>378.0</ele><time>2026-05-04T17:33:13.501Z</time></trkpt><trkpt lat="41.3231897" lon="1.9496718"><ele>378.0</ele><time>2026-05-04T17:33:14.492Z</time></trkpt><trkpt lat="41.3233531" lon="1.9496317"><ele>373.6666666666667</ele><time>2026-05-04T17:33:15.495Z</time></trkpt><trkpt lat="41.3235221" lon="1.9495961"><ele>369.33333333333337</ele><time>2026-05-04T17:33:16.498Z</time></trkpt><trkpt lat="41.3236853" lon="1.9495642"><ele>365.0</ele><time>2026-05-04T17:33:17.503Z</time></trkpt><trkpt lat="41.3238387" lon="1.9495437"><ele>364.25</ele><time>2026-05-04T17:33:18.5Z</time></trkpt><trkpt lat="41.3239745" lon="1.9495309"><ele>363.5</ele><time>2026-05-04T17:33:19.499Z</time></trkpt><trkpt lat="41.3241098" lon="1.9495494"><ele>362.75</ele><time>2026-05-04T17:33:20.496Z</time></trkpt><trkpt lat="41.3242291" lon="1.9495939"><ele>362.0</ele><time>2026-05-04T17:33:21.499Z</time></trkpt><trkpt lat="41.3243574" lon="1.9496645"><ele>362.0</ele><time>2026-05-04T17:33:22.499Z</time></trkpt><trkpt lat="41.3244752" lon="1.949734"><ele>362.0</ele><time>2026-05-04T17:33:23.503Z</time></trkpt><trkpt lat="41.324594" lon="1.9497779"><ele>362.0</ele><time>2026-05-04T17:33:24.503Z</time></trkpt><trkpt lat="41.3247298" lon="1.9497882"><ele>362.0</ele><time>2026-05-04T17:33:25.507Z</time></trkpt><trkpt lat="41.3248705" lon="1.9497499"><ele>360.6666666666667</ele><time>2026-05-04T17:33:26.501Z</time></trkpt><trkpt lat="41.3250194" lon="1.9496984"><ele>359.3333333333333</ele><time>2026-05-04T17:33:27.498Z</time></trkpt><trkpt lat="41.3251723" lon="1.949618"><ele>358.0</ele><time>2026-05-04T17:33:28.502Z</time></trkpt><trkpt lat="41.3253225" lon="1.9495481"><ele>358.0</ele><time>2026-05-04T17:33:29.507Z</time></trkpt><trkpt lat="41.3254567" lon="1.9494835"><ele>358.0</ele><time>2026-05-04T17:33:30.506Z</time></trkpt><trkpt lat="41.3255839" lon="1.9494286"><ele>358.0</ele><time>2026-05-04T17:33:31.531Z</time></trkpt><trkpt lat="41.3257042" lon="1.9493768"><ele>358.0</ele><time>2026-05-04T17:33:32.498Z</time></trkpt><trkpt lat="41.3257993" lon="1.9493447"><ele>356.2</ele><time>2026-05-04T17:33:33.503Z</time></trkpt><trkpt lat="41.3258861" lon="1.9493293"><ele>354.4</ele><time>2026-05-04T17:33:34.5Z</time></trkpt><trkpt lat="41.3259684" lon="1.9493488"><ele>352.59999999999997</ele><time>2026-05-04T17:33:35.502Z</time></trkpt><trkpt lat="41.3260185" lon="1.949401"><ele>350.79999999999995</ele><time>2026-05-04T17:33:36.5Z</time></trkpt><trkpt lat="41.3260073" lon="1.9495661"><ele>349.0</ele><time>2026-05-04T17:33:38.501Z</time></trkpt><trkpt lat="41.3259377" lon="1.9496469"><ele>349.0</ele><time>2026-05-04T17:33:39.502Z</time></trkpt><trkpt lat="41.3258348" lon="1.9496877"><ele>349.0</ele><time>2026-05-04T17:33:40.503Z</time></trkpt><trkpt lat="41.3257176" lon="1.9496803"><ele>349.0</ele><time>2026-05-04T17:33:41.502Z</time></trkpt><trkpt lat="41.325606" lon="1.9496777"><ele>349.0</ele><time>2026-05-04T17:33:42.482Z</time></trkpt><trkpt lat="41.3254923" lon="1.9497059"><ele>351.25</ele><time>2026-05-04T17:33:43.5Z</time></trkpt><trkpt lat="41.3253751" lon="1.9497623"><ele>353.5</ele><time>2026-05-04T17:33:44.495Z</time></trkpt><trkpt lat="41.3252537" lon="1.9498504"><ele>355.75</ele><time>2026-05-04T17:33:45.5Z</time></trkpt><trkpt lat="41.3251299" lon="1.949962"><ele>358.0</ele><time>2026-05-04T17:33:46.491Z</time></trkpt><trkpt lat="41.3250086" lon="1.9500808"><ele>350.5</ele><time>2026-05-04T17:33:47.498Z</time></trkpt><trkpt lat="41.3248878" lon="1.9502013"><ele>343.0</ele><time>2026-05-04T17:33:48.501Z</time></trkpt><trkpt lat="41.3247884" lon="1.9502903"><ele>335.5</ele><time>2026-05-04T17:33:49.503Z</time></trkpt><trkpt lat="41.3246801" lon="1.9503581"><ele>328.0</ele><time>2026-05-04T17:33:50.495Z</time></trkpt><trkpt lat="41.3245635" lon="1.9503972"><ele>327.75</ele><time>2026-05-04T17:33:51.513Z</time></trkpt><trkpt lat="41.3244417" lon="1.9504056"><ele>327.5</ele><time>2026-05-04T17:33:52.506Z</time></trkpt><trkpt lat="41.3242964" lon="1.950387"><ele>327.25</ele><time>2026-05-04T17:33:53.509Z</time></trkpt><trkpt lat="41.3241538" lon="1.9503598"><ele>327.0</ele><time>2026-05-04T17:33:54.495Z</time></trkpt><trkpt lat="41.3239973" lon="1.950346"><ele>327.0</ele><time>2026-05-04T17:33:55.505Z</time></trkpt><trkpt lat="41.3238458" lon="1.9503479"><ele>327.0</ele><time>2026-05-04T17:33:56.506Z</time></trkpt><trkpt lat="41.3236913" lon="1.9503648"><ele>327.0</ele><time>2026-05-04T17:33:57.505Z</time></trkpt><trkpt lat="41.3235523" lon="1.9504008"><ele>327.0</ele><time>2026-05-04T17:33:58.507Z</time></trkpt><trkpt lat="41.3234117" lon="1.9504647"><ele>327.0</ele><time>2026-05-04T17:33:59.499Z</time></trkpt><trkpt lat="41.3232836" lon="1.9505505"><ele>327.0</ele><time>2026-05-04T17:34:00.506Z</time></trkpt><trkpt lat="41.3231579" lon="1.9506357"><ele>327.0</ele><time>2026-05-04T17:34:01.499Z</time></trkpt><trkpt lat="41.3230246" lon="1.950702"><ele>327.0</ele><time>2026-05-04T17:34:02.516Z</time></trkpt><trkpt lat="41.3228894" lon="1.950755"><ele>329.0</ele><time>2026-05-04T17:34:03.493Z</time></trkpt><trkpt lat="41.3227496" lon="1.9507954"><ele>331.0</ele><time>2026-05-04T17:34:04.496Z</time></trkpt><trkpt lat="41.3226125" lon="1.9508391"><ele>333.0</ele><time>2026-05-04T17:34:05.495Z</time></trkpt><trkpt lat="41.3224762" lon="1.9508817"><ele>335.0</ele><time>2026-05-04T17:34:06.495Z</time></trkpt><trkpt lat="41.322327" lon="1.9509097"><ele>334.0</ele><time>2026-05-04T17:34:07.493Z</time></trkpt><trkpt lat="41.3221901" lon="1.950934"><ele>333.0</ele><time>2026-05-04T17:34:08.489Z</time></trkpt><trkpt lat="41.3220599" lon="1.9509719"><ele>332.0</ele><time>2026-05-04T17:34:09.488Z</time></trkpt><trkpt lat="41.3219321" lon="1.9510449"><ele>331.0</ele><time>2026-05-04T17:34:10.489Z</time></trkpt><trkpt lat="41.3218494" lon="1.951142"><ele>331.0</ele><time>2026-05-04T17:34:11.479Z</time></trkpt><trkpt lat="41.3217673" lon="1.9512623"><ele>331.0</ele><time>2026-05-04T17:34:12.476Z</time></trkpt><trkpt lat="41.3217096" lon="1.9513986"><ele>331.0</ele><time>2026-05-04T17:34:13.474Z</time></trkpt><trkpt lat="41.3216847" lon="1.9515436"><ele>331.0</ele><time>2026-05-04T17:34:14.482Z</time></trkpt><trkpt lat="41.3216707" lon="1.9516854"><ele>326.25</ele><time>2026-05-04T17:34:15.486Z</time></trkpt><trkpt lat="41.3216694" lon="1.9518257"><ele>321.5</ele><time>2026-05-04T17:34:16.483Z</time></trkpt><trkpt lat="41.321721" lon="1.9520997"><ele>316.75</ele><time>2026-05-04T17:34:18.48Z</time></trkpt><trkpt lat="41.3217358" lon="1.9522077"><ele>312.0</ele><time>2026-05-04T17:34:19.485Z</time></trkpt><trkpt lat="41.3217201" lon="1.9523175"><ele>312.0</ele><time>2026-05-04T17:34:20.493Z</time></trkpt><trkpt lat="41.3216636" lon="1.9524153"><ele>312.0</ele><time>2026-05-04T17:34:21.487Z</time></trkpt><trkpt lat="41.3215748" lon="1.952506"><ele>312.0</ele><time>2026-05-04T17:34:22.487Z</time></trkpt><trkpt lat="41.3214681" lon="1.9526"><ele>312.0</ele><time>2026-05-04T17:34:23.489Z</time></trkpt><trkpt lat="41.321368" lon="1.9526887"><ele>311.5</ele><time>2026-05-04T17:34:24.484Z</time></trkpt><trkpt lat="41.3212759" lon="1.9528075"><ele>311.0</ele><time>2026-05-04T17:34:25.481Z</time></trkpt><trkpt lat="41.3211982" lon="1.9529532"><ele>310.5</ele><time>2026-05-04T17:34:26.49Z</time></trkpt><trkpt lat="41.3211297" lon="1.9531044"><ele>310.0</ele><time>2026-05-04T17:34:27.496Z</time></trkpt><trkpt lat="41.3210664" lon="1.953253"><ele>304.6</ele><time>2026-05-04T17:34:28.493Z</time></trkpt><trkpt lat="41.3210063" lon="1.9533752"><ele>299.2</ele><time>2026-05-04T17:34:29.504Z</time></trkpt><trkpt lat="41.3209436" lon="1.9534646"><ele>293.8</ele><time>2026-05-04T17:34:30.509Z</time></trkpt><trkpt lat="41.3208693" lon="1.9535233"><ele>288.4</ele><time>2026-05-04T17:34:31.503Z</time></trkpt><trkpt lat="41.3207709" lon="1.9535494"><ele>283.0</ele><time>2026-05-04T17:34:32.501Z</time></trkpt><trkpt lat="41.3206524" lon="1.9535484"><ele>281.75</ele><time>2026-05-04T17:34:33.539Z</time></trkpt><trkpt lat="41.320529" lon="1.9535377"><ele>280.5</ele><time>2026-05-04T17:34:34.497Z</time></trkpt><trkpt lat="41.3204039" lon="1.9535178"><ele>279.25</ele><time>2026-05-04T17:34:35.505Z</time></trkpt><trkpt lat="41.3202759" lon="1.9534863"><ele>278.0</ele><time>2026-05-04T17:34:36.498Z</time></trkpt><trkpt lat="41.3201635" lon="1.9534366"><ele>283.25</ele><time>2026-05-04T17:34:37.493Z</time></trkpt><trkpt lat="41.3200635" lon="1.9533626"><ele>288.5</ele><time>2026-05-04T17:34:38.486Z</time></trkpt><trkpt lat="41.3199694" lon="1.9532596"><ele>293.75</ele><time>2026-05-04T17:34:39.492Z</time></trkpt><trkpt lat="41.319887" lon="1.9531196"><ele>299.0</ele><time>2026-05-04T17:34:40.49Z</time></trkpt><trkpt lat="41.3198005" lon="1.9530146"><ele>303.0</ele><time>2026-05-04T17:34:41.489Z</time></trkpt><trkpt lat="41.3197087" lon="1.9529452"><ele>307.0</ele><time>2026-05-04T17:34:42.492Z</time></trkpt><trkpt lat="41.3196135" lon="1.9529184"><ele>311.0</ele><time>2026-05-04T17:34:43.492Z</time></trkpt><trkpt lat="41.3195246" lon="1.9529253"><ele>315.0</ele><time>2026-05-04T17:34:44.492Z</time></trkpt><trkpt lat="41.3194477" lon="1.9529697"><ele>319.0</ele><time>2026-05-04T17:34:45.491Z</time></trkpt><trkpt lat="41.3193925" lon="1.9530524"><ele>319.0</ele><time>2026-05-04T17:34:46.491Z</time></trkpt><trkpt lat="41.319349" lon="1.9531913"><ele>319.0</ele><time>2026-05-04T17:34:47.486Z</time></trkpt><trkpt lat="41.3193184" lon="1.9533512"><ele>319.0</ele><time>2026-05-04T17:34:48.487Z</time></trkpt><trkpt lat="41.3192906" lon="1.953521"><ele>319.0</ele><time>2026-05-04T17:34:49.479Z</time></trkpt><trkpt lat="41.3192615" lon="1.9537029"><ele>315.3333333333333</ele><time>2026-05-04T17:34:50.48Z</time></trkpt><trkpt lat="41.3192374" lon="1.9538915"><ele>311.6666666666667</ele><time>2026-05-04T17:34:51.48Z</time></trkpt><trkpt lat="41.3192198" lon="1.9540919"><ele>308.0</ele><time>2026-05-04T17:34:52.478Z</time></trkpt><trkpt lat="41.3192088" lon="1.954299"><ele>305.5</ele><time>2026-05-04T17:34:53.482Z</time></trkpt><trkpt lat="41.319229" lon="1.9545175"><ele>303.0</ele><time>2026-05-04T17:34:54.48Z</time></trkpt><trkpt lat="41.3192507" lon="1.9547004"><ele>300.5</ele><time>2026-05-04T17:34:55.48Z</time></trkpt><trkpt lat="41.3192565" lon="1.9548618"><ele>298.0</ele><time>2026-05-04T17:34:56.481Z</time></trkpt><trkpt lat="41.3192234" lon="1.9550256"><ele>297.75</ele><time>2026-05-04T17:34:57.486Z</time></trkpt><trkpt lat="41.3191871" lon="1.9551955"><ele>297.5</ele><time>2026-05-04T17:34:58.482Z</time></trkpt><trkpt lat="41.3191591" lon="1.955354"><ele>297.25</ele><time>2026-05-04T17:34:59.486Z</time></trkpt><trkpt lat="41.3191667" lon="1.9554979"><ele>297.0</ele><time>2026-05-04T17:35:00.483Z</time></trkpt><trkpt lat="41.3191898" lon="1.9556353"><ele>297.0</ele><time>2026-05-04T17:35:01.477Z</time></trkpt><trkpt lat="41.3192301" lon="1.955766"><ele>297.0</ele><time>2026-05-04T17:35:02.48Z</time></trkpt><trkpt lat="41.319289" lon="1.9558933"><ele>297.0</ele><time>2026-05-04T17:35:03.504Z</time></trkpt><trkpt lat="41.3193537" lon="1.9560174"><ele>297.0</ele><time>2026-05-04T17:35:04.482Z</time></trkpt><trkpt lat="41.319411" lon="1.9561386"><ele>297.0</ele><time>2026-05-04T17:35:05.489Z</time></trkpt><trkpt lat="41.3194542" lon="1.9562643"><ele>296.0</ele><time>2026-05-04T17:35:06.493Z</time></trkpt><trkpt lat="41.3194778" lon="1.9563926"><ele>295.0</ele><time>2026-05-04T17:35:07.499Z</time></trkpt><trkpt lat="41.3194756" lon="1.9565188"><ele>294.0</ele><time>2026-05-04T17:35:08.491Z</time></trkpt><trkpt lat="41.3194509" lon="1.956637"><ele>293.0</ele><time>2026-05-04T17:35:09.49Z</time></trkpt><trkpt lat="41.3194072" lon="1.9567462"><ele>292.0</ele><time>2026-05-04T17:35:10.501Z</time></trkpt><trkpt lat="41.3193274" lon="1.9568464"><ele>289.0</ele><time>2026-05-04T17:35:11.5Z</time></trkpt><trkpt lat="41.3192325" lon="1.9569423"><ele>286.0</ele><time>2026-05-04T17:35:12.502Z</time></trkpt><trkpt lat="41.3191451" lon="1.9570457"><ele>283.0</ele><time>2026-05-04T17:35:13.498Z</time></trkpt><trkpt lat="41.3190822" lon="1.9571624"><ele>280.0</ele><time>2026-05-04T17:35:14.497Z</time></trkpt><trkpt lat="41.3190392" lon="1.9573006"><ele>280.0</ele><time>2026-05-04T17:35:15.501Z</time></trkpt><trkpt lat="41.3190277" lon="1.9574522"><ele>280.0</ele><time>2026-05-04T17:35:16.493Z</time></trkpt><trkpt lat="41.3190232" lon="1.957596"><ele>280.0</ele><time>2026-05-04T17:35:17.493Z</time></trkpt><trkpt lat="41.3190094" lon="1.95773"><ele>280.0</ele><time>2026-05-04T17:35:18.497Z</time></trkpt><trkpt lat="41.3189757" lon="1.9578375"><ele>280.0</ele><time>2026-05-04T17:35:19.497Z</time></trkpt><trkpt lat="41.3189293" lon="1.957923"><ele>279.0</ele><time>2026-05-04T17:35:20.511Z</time></trkpt><trkpt lat="41.3188667" lon="1.9579506"><ele>278.0</ele><time>2026-05-04T17:35:21.511Z</time></trkpt><trkpt lat="41.3187923" lon="1.9579331"><ele>277.0</ele><time>2026-05-04T17:35:22.51Z</time></trkpt><trkpt lat="41.3187248" lon="1.9578589"><ele>276.0</ele><time>2026-05-04T17:35:23.499Z</time></trkpt><trkpt lat="41.3186659" lon="1.9577645"><ele>275.0</ele><time>2026-05-04T17:35:24.505Z</time></trkpt><trkpt lat="41.3186043" lon="1.9576507"><ele>274.0</ele><time>2026-05-04T17:35:25.501Z</time></trkpt><trkpt lat="41.3185526" lon="1.9575277"><ele>274.0</ele><time>2026-05-04T17:35:26.5Z</time></trkpt><trkpt lat="41.3185069" lon="1.9573959"><ele>274.0</ele><time>2026-05-04T17:35:27.503Z</time></trkpt><trkpt lat="41.3184681" lon="1.9572485"><ele>274.0</ele><time>2026-05-04T17:35:28.499Z</time></trkpt><trkpt lat="41.3184256" lon="1.9570908"><ele>274.0</ele><time>2026-05-04T17:35:29.498Z</time></trkpt><trkpt lat="41.3183729" lon="1.9569275"><ele>274.0</ele><time>2026-05-04T17:35:30.495Z</time></trkpt><trkpt lat="41.3183056" lon="1.9567716"><ele>274.0</ele><time>2026-05-04T17:35:31.491Z</time></trkpt><trkpt lat="41.3182232" lon="1.956623"><ele>274.0</ele><time>2026-05-04T17:35:32.488Z</time></trkpt><trkpt lat="41.3181302" lon="1.9564818"><ele>274.0</ele><time>2026-05-04T17:35:33.493Z</time></trkpt><trkpt lat="41.3180296" lon="1.9563516"><ele>275.75</ele><time>2026-05-04T17:35:34.511Z</time></trkpt><trkpt lat="41.3179159" lon="1.9562236"><ele>277.5</ele><time>2026-05-04T17:35:35.498Z</time></trkpt><trkpt lat="41.3178172" lon="1.9560843"><ele>279.25</ele><time>2026-05-04T17:35:36.498Z</time></trkpt><trkpt lat="41.3177407" lon="1.9559366"><ele>281.0</ele><time>2026-05-04T17:35:37.498Z</time></trkpt><trkpt lat="41.3176646" lon="1.9557966"><ele>281.0</ele><time>2026-05-04T17:35:38.501Z</time></trkpt><trkpt lat="41.3175765" lon="1.9556739"><ele>281.0</ele><time>2026-05-04T17:35:39.5Z</time></trkpt><trkpt lat="41.3174822" lon="1.9555692"><ele>281.0</ele><time>2026-05-04T17:35:40.498Z</time></trkpt><trkpt lat="41.3173778" lon="1.9554778"><ele>281.0</ele><time>2026-05-04T17:35:41.501Z</time></trkpt><trkpt lat="41.3172768" lon="1.9553932"><ele>282.5</ele><time>2026-05-04T17:35:42.5Z</time></trkpt><trkpt lat="41.3171848" lon="1.9552975"><ele>284.0</ele><time>2026-05-04T17:35:43.493Z</time></trkpt><trkpt lat="41.3170998" lon="1.9551906"><ele>285.5</ele><time>2026-05-04T17:35:44.49Z</time></trkpt><trkpt lat="41.3170227" lon="1.955069"><ele>287.0</ele><time>2026-05-04T17:35:45.493Z</time></trkpt><trkpt lat="41.3169454" lon="1.9549572"><ele>287.0</ele><time>2026-05-04T17:35:46.493Z</time></trkpt><trkpt lat="41.3168797" lon="1.9548608"><ele>287.0</ele><time>2026-05-04T17:35:47.491Z</time></trkpt><trkpt lat="41.3168111" lon="1.9547886"><ele>287.0</ele><time>2026-05-04T17:35:48.5Z</time></trkpt><trkpt lat="41.3167426" lon="1.9547541"><ele>287.0</ele><time>2026-05-04T17:35:49.495Z</time></trkpt><trkpt lat="41.3166224" lon="1.95482"><ele>287.0</ele><time>2026-05-04T17:35:51.495Z</time></trkpt><trkpt lat="41.3165693" lon="1.9549155"><ele>289.5</ele><time>2026-05-04T17:35:52.495Z</time></trkpt><trkpt lat="41.3165273" lon="1.9550375"><ele>292.0</ele><time>2026-05-04T17:35:53.486Z</time></trkpt><trkpt lat="41.3164849" lon="1.9551752"><ele>294.5</ele><time>2026-05-04T17:35:54.488Z</time></trkpt><trkpt lat="41.3164411" lon="1.9553192"><ele>297.0</ele><time>2026-05-04T17:35:55.487Z</time></trkpt><trkpt lat="41.3163966" lon="1.9554723"><ele>297.0</ele><time>2026-05-04T17:35:56.484Z</time></trkpt><trkpt lat="41.316353" lon="1.9556419"><ele>297.0</ele><time>2026-05-04T17:35:57.491Z</time></trkpt><trkpt lat="41.3163091" lon="1.9558228"><ele>297.0</ele><time>2026-05-04T17:35:58.488Z</time></trkpt><trkpt lat="41.3162574" lon="1.9560046"><ele>297.0</ele><time>2026-05-04T17:35:59.489Z</time></trkpt><trkpt lat="41.3161991" lon="1.9561928"><ele>291.0</ele><time>2026-05-04T17:36:00.486Z</time></trkpt><trkpt lat="41.3161247" lon="1.9563953"><ele>285.0</ele><time>2026-05-04T17:36:01.481Z</time></trkpt><trkpt lat="41.3160331" lon="1.9565914"><ele>279.0</ele><time>2026-05-04T17:36:02.492Z</time></trkpt><trkpt lat="41.3159409" lon="1.9567705"><ele>275.0</ele><time>2026-05-04T17:36:03.487Z</time></trkpt><trkpt lat="41.3158631" lon="1.9569158"><ele>271.0</ele><time>2026-05-04T17:36:04.491Z</time></trkpt><trkpt lat="41.3157975" lon="1.9570389"><ele>267.0</ele><time>2026-05-04T17:36:05.509Z</time></trkpt><trkpt lat="41.3157364" lon="1.9571634"><ele>263.0</ele><time>2026-05-04T17:36:06.488Z</time></trkpt><trkpt lat="41.3156802" lon="1.9572871"><ele>263.0</ele><time>2026-05-04T17:36:07.496Z</time></trkpt><trkpt lat="41.3156278" lon="1.9574173"><ele>263.0</ele><time>2026-05-04T17:36:08.488Z</time></trkpt><trkpt lat="41.3155922" lon="1.9575759"><ele>263.0</ele><time>2026-05-04T17:36:09.484Z</time></trkpt><trkpt lat="41.3155884" lon="1.9577274"><ele>263.0</ele><time>2026-05-04T17:36:10.484Z</time></trkpt><trkpt lat="41.3156114" lon="1.9578875"><ele>262.2</ele><time>2026-05-04T17:36:11.484Z</time></trkpt><trkpt lat="41.315647" lon="1.9580292"><ele>261.4</ele><time>2026-05-04T17:36:12.485Z</time></trkpt><trkpt lat="41.3156986" lon="1.9581676"><ele>260.59999999999997</ele><time>2026-05-04T17:36:13.487Z</time></trkpt><trkpt lat="41.3157544" lon="1.9582907"><ele>259.8</ele><time>2026-05-04T17:36:14.485Z</time></trkpt><trkpt lat="41.3158016" lon="1.9584118"><ele>259.0</ele><time>2026-05-04T17:36:15.491Z</time></trkpt><trkpt lat="41.3158366" lon="1.9585314"><ele>258.0</ele><time>2026-05-04T17:36:16.489Z</time></trkpt><trkpt lat="41.315839" lon="1.9586645"><ele>257.0</ele><time>2026-05-04T17:36:17.5Z</time></trkpt><trkpt lat="41.3158143" lon="1.9588209"><ele>256.0</ele><time>2026-05-04T17:36:18.498Z</time></trkpt><trkpt lat="41.315788" lon="1.9589781"><ele>255.0</ele><time>2026-05-04T17:36:19.501Z</time></trkpt><trkpt lat="41.3157658" lon="1.9591391"><ele>254.0</ele><time>2026-05-04T17:36:20.498Z</time></trkpt><trkpt lat="41.3157415" lon="1.959291"><ele>253.0</ele><time>2026-05-04T17:36:21.502Z</time></trkpt><trkpt lat="41.3157172" lon="1.9594312"><ele>252.0</ele><time>2026-05-04T17:36:22.496Z</time></trkpt><trkpt lat="41.3156858" lon="1.9595548"><ele>251.0</ele><time>2026-05-04T17:36:23.493Z</time></trkpt><trkpt lat="41.3156452" lon="1.9596651"><ele>250.0</ele><time>2026-05-04T17:36:24.503Z</time></trkpt><trkpt lat="41.3155961" lon="1.9597503"><ele>249.0</ele><time>2026-05-04T17:36:25.5Z</time></trkpt><trkpt lat="41.3155095" lon="1.9597959"><ele>248.0</ele><time>2026-05-04T17:36:26.495Z</time></trkpt><trkpt lat="41.3154088" lon="1.9598302"><ele>247.0</ele><time>2026-05-04T17:36:27.501Z</time></trkpt><trkpt lat="41.315309" lon="1.9598795"><ele>246.0</ele><time>2026-05-04T17:36:28.495Z</time></trkpt><trkpt lat="41.3152123" lon="1.959939"><ele>245.0</ele><time>2026-05-04T17:36:29.499Z</time></trkpt><trkpt lat="41.3151334" lon="1.9600372"><ele>245.0</ele><time>2026-05-04T17:36:30.505Z</time></trkpt><trkpt lat="41.3150757" lon="1.9601706"><ele>245.0</ele><time>2026-05-04T17:36:31.501Z</time></trkpt><trkpt lat="41.3150273" lon="1.9603162"><ele>245.0</ele><time>2026-05-04T17:36:32.499Z</time></trkpt><trkpt lat="41.3149774" lon="1.9604616"><ele>245.0</ele><time>2026-05-04T17:36:33.496Z</time></trkpt><trkpt lat="41.3149242" lon="1.9606131"><ele>245.0</ele><time>2026-05-04T17:36:34.493Z</time></trkpt><trkpt lat="41.3148674" lon="1.9607768"><ele>245.0</ele><time>2026-05-04T17:36:35.501Z</time></trkpt><trkpt lat="41.3148198" lon="1.9609549"><ele>245.0</ele><time>2026-05-04T17:36:36.519Z</time></trkpt><trkpt lat="41.3147817" lon="1.9611429"><ele>245.0</ele><time>2026-05-04T17:36:37.493Z</time></trkpt><trkpt lat="41.3147563" lon="1.9613509"><ele>245.25</ele><time>2026-05-04T17:36:38.491Z</time></trkpt><trkpt lat="41.3147465" lon="1.9615471"><ele>245.5</ele><time>2026-05-04T17:36:39.496Z</time></trkpt><trkpt lat="41.3147488" lon="1.9617275"><ele>245.75</ele><time>2026-05-04T17:36:40.506Z</time></trkpt><trkpt lat="41.3147456" lon="1.9619114"><ele>246.0</ele><time>2026-05-04T17:36:41.501Z</time></trkpt><trkpt lat="41.3147385" lon="1.962093"><ele>240.5</ele><time>2026-05-04T17:36:42.503Z</time></trkpt><trkpt lat="41.3147256" lon="1.9622656"><ele>235.0</ele><time>2026-05-04T17:36:43.508Z</time></trkpt><trkpt lat="41.3147191" lon="1.962433"><ele>229.5</ele><time>2026-05-04T17:36:44.509Z</time></trkpt><trkpt lat="41.3147168" lon="1.9625974"><ele>224.0</ele><time>2026-05-04T17:36:45.508Z</time></trkpt><trkpt lat="41.3147103" lon="1.9627604"><ele>222.0</ele><time>2026-05-04T17:36:46.501Z</time></trkpt><trkpt lat="41.3147218" lon="1.9629169"><ele>219.99999999999997</ele><time>2026-05-04T17:36:47.502Z</time></trkpt><trkpt lat="41.3147369" lon="1.9630594"><ele>217.99999999999997</ele><time>2026-05-04T17:36:48.508Z</time></trkpt><trkpt lat="41.3147593" lon="1.9631991"><ele>216.0</ele><time>2026-05-04T17:36:49.501Z</time></trkpt><trkpt lat="41.3147801" lon="1.9633427"><ele>214.0</ele><time>2026-05-04T17:36:50.502Z</time></trkpt><trkpt lat="41.3147907" lon="1.9634957"><ele>212.0</ele><time>2026-05-04T17:36:51.497Z</time></trkpt><trkpt lat="41.314784" lon="1.9636574"><ele>210.0</ele><time>2026-05-04T17:36:52.494Z</time></trkpt><trkpt lat="41.3147573" lon="1.9638244"><ele>208.0</ele><time>2026-05-04T17:36:53.501Z</time></trkpt><trkpt lat="41.3147202" lon="1.9639914"><ele>206.0</ele><time>2026-05-04T17:36:54.501Z</time></trkpt><trkpt lat="41.314682" lon="1.964156"><ele>207.0</ele><time>2026-05-04T17:36:55.494Z</time></trkpt><trkpt lat="41.3146462" lon="1.9643234"><ele>208.0</ele><time>2026-05-04T17:36:56.493Z</time></trkpt><trkpt lat="41.314624" lon="1.9644928"><ele>209.0</ele><time>2026-05-04T17:36:57.495Z</time></trkpt><trkpt lat="41.3146125" lon="1.9646538"><ele>210.0</ele><time>2026-05-04T17:36:58.492Z</time></trkpt><trkpt lat="41.3146156" lon="1.9648215"><ele>210.0</ele><time>2026-05-04T17:36:59.496Z</time></trkpt><trkpt lat="41.3146341" lon="1.9649716"><ele>210.0</ele><time>2026-05-04T17:37:00.495Z</time></trkpt><trkpt lat="41.3146581" lon="1.9651118"><ele>210.0</ele><time>2026-05-04T17:37:01.491Z</time></trkpt><trkpt lat="41.3146699" lon="1.965248"><ele>210.0</ele><time>2026-05-04T17:37:02.491Z</time></trkpt><trkpt lat="41.3146562" lon="1.9653755"><ele>210.0</ele><time>2026-05-04T17:37:03.494Z</time></trkpt><trkpt lat="41.31461" lon="1.9654932"><ele>212.5</ele><time>2026-05-04T17:37:04.493Z</time></trkpt><trkpt lat="41.3145347" lon="1.9655972"><ele>215.0</ele><time>2026-05-04T17:37:05.491Z</time></trkpt><trkpt lat="41.314452" lon="1.9656945"><ele>217.5</ele><time>2026-05-04T17:37:06.495Z</time></trkpt><trkpt lat="41.314368" lon="1.9657939"><ele>220.0</ele><time>2026-05-04T17:37:07.516Z</time></trkpt><trkpt lat="41.3142839" lon="1.9659072"><ele>222.5</ele><time>2026-05-04T17:37:08.489Z</time></trkpt><trkpt lat="41.3142075" lon="1.9660236"><ele>225.0</ele><time>2026-05-04T17:37:09.493Z</time></trkpt><trkpt lat="41.3141251" lon="1.9661302"><ele>227.5</ele><time>2026-05-04T17:37:10.492Z</time></trkpt><trkpt lat="41.3140458" lon="1.966246"><ele>230.0</ele><time>2026-05-04T17:37:11.503Z</time></trkpt><trkpt lat="41.3139632" lon="1.9663665"><ele>224.5</ele><time>2026-05-04T17:37:12.502Z</time></trkpt><trkpt lat="41.313883" lon="1.9664812"><ele>219.0</ele><time>2026-05-04T17:37:13.502Z</time></trkpt><trkpt lat="41.3138048" lon="1.9665967"><ele>213.5</ele><time>2026-05-04T17:37:14.501Z</time></trkpt><trkpt lat="41.313735" lon="1.9667167"><ele>208.0</ele><time>2026-05-04T17:37:15.499Z</time></trkpt><trkpt lat="41.3136785" lon="1.9668498"><ele>208.0</ele><time>2026-05-04T17:37:16.495Z</time></trkpt><trkpt lat="41.3136455" lon="1.9669976"><ele>208.0</ele><time>2026-05-04T17:37:17.495Z</time></trkpt><trkpt lat="41.3136198" lon="1.9671588"><ele>208.0</ele><time>2026-05-04T17:37:18.497Z</time></trkpt><trkpt lat="41.3136119" lon="1.9673241"><ele>208.0</ele><time>2026-05-04T17:37:19.499Z</time></trkpt><trkpt lat="41.3136148" lon="1.9674951"><ele>206.75</ele><time>2026-05-04T17:37:20.501Z</time></trkpt><trkpt lat="41.3136226" lon="1.9676679"><ele>205.5</ele><time>2026-05-04T17:37:21.503Z</time></trkpt><trkpt lat="41.3136291" lon="1.9678337"><ele>204.25</ele><time>2026-05-04T17:37:22.506Z</time></trkpt><trkpt lat="41.3136259" lon="1.9679962"><ele>203.0</ele><time>2026-05-04T17:37:23.501Z</time></trkpt><trkpt lat="41.3136092" lon="1.9681552"><ele>203.0</ele><time>2026-05-04T17:37:24.498Z</time></trkpt><trkpt lat="41.3135732" lon="1.968314"><ele>203.0</ele><time>2026-05-04T17:37:25.498Z</time></trkpt><trkpt lat="41.313517" lon="1.9684881"><ele>203.0</ele><time>2026-05-04T17:37:26.507Z</time></trkpt><trkpt lat="41.313447" lon="1.9686647"><ele>203.0</ele><time>2026-05-04T17:37:27.505Z</time></trkpt><trkpt lat="41.3133609" lon="1.9688525"><ele>200.0</ele><time>2026-05-04T17:37:28.506Z</time></trkpt><trkpt lat="41.3132875" lon="1.9690328"><ele>197.0</ele><time>2026-05-04T17:37:29.501Z</time></trkpt><trkpt lat="41.3132051" lon="1.9692113"><ele>194.0</ele><time>2026-05-04T17:37:30.508Z</time></trkpt><trkpt lat="41.3131302" lon="1.9694032"><ele>191.33333333333334</ele><time>2026-05-04T17:37:31.502Z</time></trkpt><trkpt lat="41.3130558" lon="1.9695919"><ele>188.66666666666669</ele><time>2026-05-04T17:37:32.497Z</time></trkpt><trkpt lat="41.3129765" lon="1.969784"><ele>186.0</ele><time>2026-05-04T17:37:33.5Z</time></trkpt><trkpt lat="41.3129028" lon="1.9699722"><ele>185.66666666666666</ele><time>2026-05-04T17:37:34.505Z</time></trkpt><trkpt lat="41.3128281" lon="1.9701586"><ele>185.33333333333331</ele><time>2026-05-04T17:37:35.506Z</time></trkpt><trkpt lat="41.3127605" lon="1.9703414"><ele>185.0</ele><time>2026-05-04T17:37:36.504Z</time></trkpt><trkpt lat="41.3126009" lon="1.9706933"><ele>185.0</ele><time>2026-05-04T17:37:38.53Z</time></trkpt><trkpt lat="41.3125191" lon="1.9708672"><ele>185.0</ele><time>2026-05-04T17:37:39.504Z</time></trkpt><trkpt lat="41.3124398" lon="1.9710399"><ele>185.0</ele><time>2026-05-04T17:37:40.506Z</time></trkpt><trkpt lat="41.3123595" lon="1.9711944"><ele>185.0</ele><time>2026-05-04T17:37:41.501Z</time></trkpt><trkpt lat="41.3122814" lon="1.9713606"><ele>180.0</ele><time>2026-05-04T17:37:42.506Z</time></trkpt><trkpt lat="41.312197" lon="1.9715345"><ele>175.0</ele><time>2026-05-04T17:37:43.506Z</time></trkpt><trkpt lat="41.3121208" lon="1.971701"><ele>170.0</ele><time>2026-05-04T17:37:44.505Z</time></trkpt><trkpt lat="41.3120506" lon="1.9718786"><ele>170.0</ele><time>2026-05-04T17:37:45.506Z</time></trkpt><trkpt lat="41.3119824" lon="1.9720539"><ele>170.0</ele><time>2026-05-04T17:37:46.505Z</time></trkpt><trkpt lat="41.3119248" lon="1.9722106"><ele>170.0</ele><time>2026-05-04T17:37:47.507Z</time></trkpt><trkpt lat="41.3118688" lon="1.9723601"><ele>170.0</ele><time>2026-05-04T17:37:48.504Z</time></trkpt><trkpt lat="41.3118233" lon="1.9724783"><ele>171.8</ele><time>2026-05-04T17:37:49.502Z</time></trkpt><trkpt lat="41.3117672" lon="1.9726163"><ele>173.6</ele><time>2026-05-04T17:37:50.498Z</time></trkpt><trkpt lat="41.3116961" lon="1.9727221"><ele>175.39999999999998</ele><time>2026-05-04T17:37:51.498Z</time></trkpt><trkpt lat="41.3116114" lon="1.9727983"><ele>177.2</ele><time>2026-05-04T17:37:52.492Z</time></trkpt><trkpt lat="41.3115161" lon="1.9728498"><ele>179.0</ele><time>2026-05-04T17:37:53.497Z</time></trkpt><trkpt lat="41.3114359" lon="1.9728948"><ele>174.0</ele><time>2026-05-04T17:37:54.494Z</time></trkpt><trkpt lat="41.3113635" lon="1.9729613"><ele>169.0</ele><time>2026-05-04T17:37:55.494Z</time></trkpt><trkpt lat="41.3112976" lon="1.9730468"><ele>164.0</ele><time>2026-05-04T17:37:56.492Z</time></trkpt><trkpt lat="41.311245" lon="1.9731546"><ele>159.0</ele><time>2026-05-04T17:37:57.493Z</time></trkpt><trkpt lat="41.311205" lon="1.97329"><ele>154.0</ele><time>2026-05-04T17:37:58.494Z</time></trkpt><trkpt lat="41.3111858" lon="1.9734493"><ele>154.0</ele><time>2026-05-04T17:37:59.496Z</time></trkpt><trkpt lat="41.3111721" lon="1.9736142"><ele>154.0</ele><time>2026-05-04T17:38:00.5Z</time></trkpt><trkpt lat="41.3111535" lon="1.9737801"><ele>154.0</ele><time>2026-05-04T17:38:01.496Z</time></trkpt><trkpt lat="41.311132" lon="1.9739401"><ele>154.0</ele><time>2026-05-04T17:38:02.493Z</time></trkpt><trkpt lat="41.3111113" lon="1.9740979"><ele>156.75</ele><time>2026-05-04T17:38:03.494Z</time></trkpt><trkpt lat="41.3110873" lon="1.974257"><ele>159.5</ele><time>2026-05-04T17:38:04.494Z</time></trkpt><trkpt lat="41.3110598" lon="1.9744102"><ele>162.25</ele><time>2026-05-04T17:38:05.493Z</time></trkpt><trkpt lat="41.3110318" lon="1.9745594"><ele>165.0</ele><time>2026-05-04T17:38:06.49Z</time></trkpt><trkpt lat="41.3109954" lon="1.9747113"><ele>165.0</ele><time>2026-05-04T17:38:07.49Z</time></trkpt><trkpt lat="41.3109394" lon="1.9748604"><ele>165.0</ele><time>2026-05-04T17:38:08.481Z</time></trkpt><trkpt lat="41.3108687" lon="1.9749958"><ele>165.0</ele><time>2026-05-04T17:38:09.513Z</time></trkpt><trkpt lat="41.3107714" lon="1.9751055"><ele>165.0</ele><time>2026-05-04T17:38:10.482Z</time></trkpt><trkpt lat="41.3106716" lon="1.9751924"><ele>162.5</ele><time>2026-05-04T17:38:11.488Z</time></trkpt><trkpt lat="41.3105587" lon="1.9752607"><ele>160.0</ele><time>2026-05-04T17:38:12.489Z</time></trkpt><trkpt lat="41.3104453" lon="1.9753186"><ele>157.5</ele><time>2026-05-04T17:38:13.474Z</time></trkpt><trkpt lat="41.3103362" lon="1.9753725"><ele>155.0</ele><time>2026-05-04T17:38:14.488Z</time></trkpt><trkpt lat="41.3102275" lon="1.9754414"><ele>155.0</ele><time>2026-05-04T17:38:15.485Z</time></trkpt><trkpt lat="41.3101292" lon="1.9755388"><ele>155.0</ele><time>2026-05-04T17:38:16.485Z</time></trkpt><trkpt lat="41.3100496" lon="1.9756549"><ele>155.0</ele><time>2026-05-04T17:38:17.492Z</time></trkpt><trkpt lat="41.3099808" lon="1.9757977"><ele>155.0</ele><time>2026-05-04T17:38:18.493Z</time></trkpt><trkpt lat="41.3099236" lon="1.975962"><ele>153.75</ele><time>2026-05-04T17:38:19.493Z</time></trkpt><trkpt lat="41.3098734" lon="1.9761386"><ele>152.5</ele><time>2026-05-04T17:38:20.495Z</time></trkpt><trkpt lat="41.3098292" lon="1.976328"><ele>151.25</ele><time>2026-05-04T17:38:21.495Z</time></trkpt><trkpt lat="41.3097995" lon="1.9765283"><ele>150.0</ele><time>2026-05-04T17:38:22.499Z</time></trkpt><trkpt lat="41.3097691" lon="1.9767356"><ele>142.66666666666666</ele><time>2026-05-04T17:38:23.501Z</time></trkpt><trkpt lat="41.3097293" lon="1.9769409"><ele>135.33333333333331</ele><time>2026-05-04T17:38:24.497Z</time></trkpt><trkpt lat="41.3096847" lon="1.9771296"><ele>128.0</ele><time>2026-05-04T17:38:25.494Z</time></trkpt><trkpt lat="41.3096433" lon="1.9773218"><ele>127.0</ele><time>2026-05-04T17:38:26.498Z</time></trkpt><trkpt lat="41.3096012" lon="1.9775215"><ele>126.0</ele><time>2026-05-04T17:38:27.494Z</time></trkpt><trkpt lat="41.3095596" lon="1.9777222"><ele>125.0</ele><time>2026-05-04T17:38:28.493Z</time></trkpt><trkpt lat="41.3095224" lon="1.9779157"><ele>125.0</ele><time>2026-05-04T17:38:29.495Z</time></trkpt><trkpt lat="41.3094757" lon="1.9781116"><ele>125.0</ele><time>2026-05-04T17:38:30.497Z</time></trkpt><trkpt lat="41.3094286" lon="1.9783002"><ele>125.0</ele><time>2026-05-04T17:38:31.497Z</time></trkpt><trkpt lat="41.3093861" lon="1.9784844"><ele>125.0</ele><time>2026-05-04T17:38:32.491Z</time></trkpt><trkpt lat="41.3093453" lon="1.9786794"><ele>125.0</ele><time>2026-05-04T17:38:33.492Z</time></trkpt><trkpt lat="41.309318" lon="1.9788737"><ele>125.0</ele><time>2026-05-04T17:38:34.493Z</time></trkpt><trkpt lat="41.3093159" lon="1.9790576"><ele>125.0</ele><time>2026-05-04T17:38:35.491Z</time></trkpt><trkpt lat="41.3093207" lon="1.9792304"><ele>125.0</ele><time>2026-05-04T17:38:36.488Z</time></trkpt><trkpt lat="41.3093312" lon="1.9793823"><ele>125.6</ele><time>2026-05-04T17:38:37.492Z</time></trkpt><trkpt lat="41.3093494" lon="1.9795301"><ele>126.2</ele><time>2026-05-04T17:38:38.492Z</time></trkpt><trkpt lat="41.3093632" lon="1.9796713"><ele>126.80000000000001</ele><time>2026-05-04T17:38:39.496Z</time></trkpt><trkpt lat="41.309366" lon="1.9798003"><ele>127.4</ele><time>2026-05-04T17:38:40.51Z</time></trkpt><trkpt lat="41.3093441" lon="1.9799354"><ele>128.0</ele><time>2026-05-04T17:38:41.49Z</time></trkpt><trkpt lat="41.3093038" lon="1.9800472"><ele>129.4</ele><time>2026-05-04T17:38:42.494Z</time></trkpt><trkpt lat="41.3092352" lon="1.9801471"><ele>130.8</ele><time>2026-05-04T17:38:43.492Z</time></trkpt><trkpt lat="41.3091464" lon="1.9802271"><ele>132.2</ele><time>2026-05-04T17:38:44.493Z</time></trkpt><trkpt lat="41.3090457" lon="1.9802982"><ele>133.6</ele><time>2026-05-04T17:38:45.493Z</time></trkpt><trkpt lat="41.3089466" lon="1.9803669"><ele>135.0</ele><time>2026-05-04T17:38:46.495Z</time></trkpt><trkpt lat="41.3088513" lon="1.9804426"><ele>130.8</ele><time>2026-05-04T17:38:47.492Z</time></trkpt><trkpt lat="41.3087705" lon="1.9805375"><ele>126.6</ele><time>2026-05-04T17:38:48.494Z</time></trkpt><trkpt lat="41.3087073" lon="1.9806455"><ele>122.4</ele><time>2026-05-04T17:38:49.495Z</time></trkpt><trkpt lat="41.3086665" lon="1.9807651"><ele>118.2</ele><time>2026-05-04T17:38:50.494Z</time></trkpt><trkpt lat="41.308655" lon="1.980888"><ele>114.0</ele><time>2026-05-04T17:38:51.501Z</time></trkpt><trkpt lat="41.308668" lon="1.9810163"><ele>114.0</ele><time>2026-05-04T17:38:52.5Z</time></trkpt><trkpt lat="41.3086959" lon="1.9811406"><ele>114.0</ele><time>2026-05-04T17:38:53.502Z</time></trkpt><trkpt lat="41.3087367" lon="1.9812512"><ele>114.0</ele><time>2026-05-04T17:38:54.505Z</time></trkpt><trkpt lat="41.3087702" lon="1.9813681"><ele>114.0</ele><time>2026-05-04T17:38:55.509Z</time></trkpt><trkpt lat="41.3087655" lon="1.9814849"><ele>114.0</ele><time>2026-05-04T17:38:56.508Z</time></trkpt><trkpt lat="41.3087179" lon="1.9815956"><ele>113.2</ele><time>2026-05-04T17:38:57.496Z</time></trkpt><trkpt lat="41.3086459" lon="1.9816861"><ele>112.4</ele><time>2026-05-04T17:38:58.495Z</time></trkpt><trkpt lat="41.3085626" lon="1.9817587"><ele>111.6</ele><time>2026-05-04T17:38:59.494Z</time></trkpt><trkpt lat="41.3084829" lon="1.9818404"><ele>110.8</ele><time>2026-05-04T17:39:00.501Z</time></trkpt><trkpt lat="41.3084127" lon="1.9819291"><ele>110.0</ele><time>2026-05-04T17:39:01.494Z</time></trkpt><trkpt lat="41.3083542" lon="1.9820218"><ele>109.99999999999999</ele><time>2026-05-04T17:39:02.492Z</time></trkpt><trkpt lat="41.3083169" lon="1.9821242"><ele>110.0</ele><time>2026-05-04T17:39:03.509Z</time></trkpt><trkpt lat="41.3083046" lon="1.9822348"><ele>110.0</ele><time>2026-05-04T17:39:04.499Z</time></trkpt><trkpt lat="41.3083058" lon="1.9823391"><ele>110.0</ele><time>2026-05-04T17:39:05.502Z</time></trkpt><trkpt lat="41.3083286" lon="1.9824415"><ele>109.99999999999999</ele><time>2026-05-04T17:39:06.511Z</time></trkpt><trkpt lat="41.3083745" lon="1.982536"><ele>110.0</ele><time>2026-05-04T17:39:07.513Z</time></trkpt><trkpt lat="41.3084495" lon="1.9826151"><ele>110.2</ele><time>2026-05-04T17:39:08.501Z</time></trkpt><trkpt lat="41.3085288" lon="1.9826885"><ele>110.4</ele><time>2026-05-04T17:39:09.5Z</time></trkpt><trkpt lat="41.3086156" lon="1.9827619"><ele>110.6</ele><time>2026-05-04T17:39:10.505Z</time></trkpt><trkpt lat="41.3087013" lon="1.9828389"><ele>110.8</ele><time>2026-05-04T17:39:11.543Z</time></trkpt><trkpt lat="41.308778" lon="1.9829111"><ele>111.0</ele><time>2026-05-04T17:39:12.5Z</time></trkpt><trkpt lat="41.3088314" lon="1.982995"><ele>111.0</ele><time>2026-05-04T17:39:13.499Z</time></trkpt><trkpt lat="41.3088577" lon="1.9830812"><ele>111.0</ele><time>2026-05-04T17:39:14.498Z</time></trkpt><trkpt lat="41.3088542" lon="1.9831706"><ele>111.0</ele><time>2026-05-04T17:39:15.494Z</time></trkpt><trkpt lat="41.3087989" lon="1.9832489"><ele>111.0</ele><time>2026-05-04T17:39:16.499Z</time></trkpt><trkpt lat="41.3087093" lon="1.9833139"><ele>111.0</ele><time>2026-05-04T17:39:17.489Z</time></trkpt><trkpt lat="41.308605" lon="1.9833585"><ele>111.0</ele><time>2026-05-04T17:39:18.487Z</time></trkpt><trkpt lat="41.3084964" lon="1.9833758"><ele>108.5</ele><time>2026-05-04T17:39:19.485Z</time></trkpt><trkpt lat="41.3083727" lon="1.9833774"><ele>106.0</ele><time>2026-05-04T17:39:20.485Z</time></trkpt><trkpt lat="41.3082441" lon="1.9833828"><ele>103.5</ele><time>2026-05-04T17:39:21.488Z</time></trkpt><trkpt lat="41.308113" lon="1.9834072"><ele>101.0</ele><time>2026-05-04T17:39:22.491Z</time></trkpt><trkpt lat="41.3079808" lon="1.98346"><ele>101.0</ele><time>2026-05-04T17:39:23.491Z</time></trkpt><trkpt lat="41.3078508" lon="1.9835311"><ele>101.0</ele><time>2026-05-04T17:39:24.49Z</time></trkpt><trkpt lat="41.3077252" lon="1.9836194"><ele>101.0</ele><time>2026-05-04T17:39:25.493Z</time></trkpt><trkpt lat="41.3076122" lon="1.9837233"><ele>101.0</ele><time>2026-05-04T17:39:26.492Z</time></trkpt><trkpt lat="41.3075152" lon="1.9838315"><ele>101.0</ele><time>2026-05-04T17:39:27.488Z</time></trkpt><trkpt lat="41.3074377" lon="1.9839527"><ele>101.0</ele><time>2026-05-04T17:39:28.501Z</time></trkpt><trkpt lat="41.3073841" lon="1.9840882"><ele>101.0</ele><time>2026-05-04T17:39:29.503Z</time></trkpt><trkpt lat="41.3073559" lon="1.9842425"><ele>101.0</ele><time>2026-05-04T17:39:30.503Z</time></trkpt><trkpt lat="41.3073485" lon="1.9844148"><ele>101.0</ele><time>2026-05-04T17:39:31.499Z</time></trkpt><trkpt lat="41.3073545" lon="1.9845994"><ele>101.0</ele><time>2026-05-04T17:39:32.497Z</time></trkpt><trkpt lat="41.3073618" lon="1.9847832"><ele>101.0</ele><time>2026-05-04T17:39:33.496Z</time></trkpt><trkpt lat="41.307362" lon="1.9849601"><ele>101.0</ele><time>2026-05-04T17:39:34.496Z</time></trkpt><trkpt lat="41.3073547" lon="1.9851495"><ele>101.0</ele><time>2026-05-04T17:39:35.494Z</time></trkpt><trkpt lat="41.3073239" lon="1.9853393"><ele>101.0</ele><time>2026-05-04T17:39:36.494Z</time></trkpt><trkpt lat="41.3072727" lon="1.9855401"><ele>101.0</ele><time>2026-05-04T17:39:37.495Z</time></trkpt><trkpt lat="41.3072232" lon="1.9857403"><ele>92.66666666666666</ele><time>2026-05-04T17:39:38.497Z</time></trkpt><trkpt lat="41.307183" lon="1.9859412"><ele>84.33333333333333</ele><time>2026-05-04T17:39:39.495Z</time></trkpt><trkpt lat="41.3071558" lon="1.9861403"><ele>76.0</ele><time>2026-05-04T17:39:40.497Z</time></trkpt><trkpt lat="41.3071391" lon="1.9863489"><ele>76.0</ele><time>2026-05-04T17:39:41.519Z</time></trkpt><trkpt lat="41.3071288" lon="1.9865376"><ele>76.0</ele><time>2026-05-04T17:39:42.499Z</time></trkpt><trkpt lat="41.3071242" lon="1.9867257"><ele>76.0</ele><time>2026-05-04T17:39:43.498Z</time></trkpt><trkpt lat="41.3071032" lon="1.986904"><ele>76.0</ele><time>2026-05-04T17:39:44.498Z</time></trkpt><trkpt lat="41.3070715" lon="1.9870576"><ele>75.75</ele><time>2026-05-04T17:39:45.496Z</time></trkpt><trkpt lat="41.3070136" lon="1.9872094"><ele>75.5</ele><time>2026-05-04T17:39:46.497Z</time></trkpt><trkpt lat="41.3069298" lon="1.9873509"><ele>75.25</ele><time>2026-05-04T17:39:47.498Z</time></trkpt><trkpt lat="41.3068401" lon="1.9874909"><ele>75.0</ele><time>2026-05-04T17:39:48.499Z</time></trkpt><trkpt lat="41.3067597" lon="1.987633"><ele>74.75</ele><time>2026-05-04T17:39:49.493Z</time></trkpt><trkpt lat="41.3066933" lon="1.9877805"><ele>74.5</ele><time>2026-05-04T17:39:50.495Z</time></trkpt><trkpt lat="41.3066567" lon="1.9879452"><ele>74.25</ele><time>2026-05-04T17:39:51.493Z</time></trkpt><trkpt lat="41.3066231" lon="1.9881131"><ele>74.0</ele><time>2026-05-04T17:39:52.495Z</time></trkpt><trkpt lat="41.3066057" lon="1.9882781"><ele>72.5</ele><time>2026-05-04T17:39:53.496Z</time></trkpt><trkpt lat="41.3065975" lon="1.9884379"><ele>71.0</ele><time>2026-05-04T17:39:54.5Z</time></trkpt><trkpt lat="41.3065969" lon="1.988596"><ele>69.5</ele><time>2026-05-04T17:39:55.502Z</time></trkpt><trkpt lat="41.3066121" lon="1.9887413"><ele>68.0</ele><time>2026-05-04T17:39:56.511Z</time></trkpt><trkpt lat="41.3066539" lon="1.9888744"><ele>68.0</ele><time>2026-05-04T17:39:57.509Z</time></trkpt><trkpt lat="41.3067238" lon="1.9889925"><ele>68.0</ele><time>2026-05-04T17:39:58.511Z</time></trkpt><trkpt lat="41.306815" lon="1.9890962"><ele>68.0</ele><time>2026-05-04T17:39:59.504Z</time></trkpt><trkpt lat="41.306924" lon="1.9891864"><ele>68.0</ele><time>2026-05-04T17:40:00.51Z</time></trkpt><trkpt lat="41.3070376" lon="1.9892736"><ele>66.75</ele><time>2026-05-04T17:40:01.505Z</time></trkpt><trkpt lat="41.3071561" lon="1.9893567"><ele>65.5</ele><time>2026-05-04T17:40:02.507Z</time></trkpt><trkpt lat="41.3072722" lon="1.9894406"><ele>64.25</ele><time>2026-05-04T17:40:03.508Z</time></trkpt><trkpt lat="41.3073889" lon="1.9895277"><ele>63.0</ele><time>2026-05-04T17:40:04.508Z</time></trkpt><trkpt lat="41.3074926" lon="1.9896198"><ele>63.0</ele><time>2026-05-04T17:40:05.508Z</time></trkpt><trkpt lat="41.3075828" lon="1.9897129"><ele>63.0</ele><time>2026-05-04T17:40:06.506Z</time></trkpt><trkpt lat="41.3076622" lon="1.9898024"><ele>63.0</ele><time>2026-05-04T17:40:07.504Z</time></trkpt><trkpt lat="41.3077317" lon="1.9898827"><ele>63.0</ele><time>2026-05-04T17:40:08.509Z</time></trkpt><trkpt lat="41.307784" lon="1.9899747"><ele>63.0</ele><time>2026-05-04T17:40:09.51Z</time></trkpt><trkpt lat="41.3078146" lon="1.9900631"><ele>61.666666666666664</ele><time>2026-05-04T17:40:10.501Z</time></trkpt><trkpt lat="41.3078299" lon="1.9901504"><ele>60.33333333333333</ele><time>2026-05-04T17:40:11.502Z</time></trkpt><trkpt lat="41.3078228" lon="1.9902376"><ele>59.0</ele><time>2026-05-04T17:40:12.519Z</time></trkpt><trkpt lat="41.3077955" lon="1.9903265"><ele>57.666666666666664</ele><time>2026-05-04T17:40:13.509Z</time></trkpt><trkpt lat="41.3077515" lon="1.9904123"><ele>56.33333333333333</ele><time>2026-05-04T17:40:14.501Z</time></trkpt><trkpt lat="41.3076986" lon="1.9904991"><ele>55.0</ele><time>2026-05-04T17:40:15.508Z</time></trkpt><trkpt lat="41.3076517" lon="1.990589"><ele>54.99999999999999</ele><time>2026-05-04T17:40:16.513Z</time></trkpt><trkpt lat="41.3076209" lon="1.9906852"><ele>55.0</ele><time>2026-05-04T17:40:17.506Z</time></trkpt><trkpt lat="41.3076118" lon="1.9907927"><ele>55.0</ele><time>2026-05-04T17:40:18.504Z</time></trkpt><trkpt lat="41.3076187" lon="1.9908976"><ele>55.0</ele><time>2026-05-04T17:40:19.51Z</time></trkpt><trkpt lat="41.3076344" lon="1.9910041"><ele>54.99999999999999</ele><time>2026-05-04T17:40:20.508Z</time></trkpt><trkpt lat="41.3076429" lon="1.9911134"><ele>55.0</ele><time>2026-05-04T17:40:21.51Z</time></trkpt><trkpt lat="41.3076396" lon="1.9912216"><ele>54.49999999999999</ele><time>2026-05-04T17:40:22.505Z</time></trkpt><trkpt lat="41.3076244" lon="1.9913299"><ele>54.0</ele><time>2026-05-04T17:40:23.506Z</time></trkpt><trkpt lat="41.3076007" lon="1.9914382"><ele>53.5</ele><time>2026-05-04T17:40:24.506Z</time></trkpt><trkpt lat="41.3075693" lon="1.9915424"><ele>53.0</ele><time>2026-05-04T17:40:25.505Z</time></trkpt><trkpt lat="41.3075319" lon="1.9916375"><ele>52.49999999999999</ele><time>2026-05-04T17:40:26.505Z</time></trkpt><trkpt lat="41.3074913" lon="1.9917132"><ele>52.0</ele><time>2026-05-04T17:40:27.508Z</time></trkpt><trkpt lat="41.3074397" lon="1.9917895"><ele>51.666666666666664</ele><time>2026-05-04T17:40:29.511Z</time></trkpt><trkpt lat="41.3074068" lon="1.9918684"><ele>51.33333333333333</ele><time>2026-05-04T17:42:31.505Z</time></trkpt><trkpt lat="41.3073827" lon="1.9919623"><ele>51.0</ele><time>2026-05-04T17:43:51.506Z</time></trkpt><trkpt lat="41.3073582" lon="1.9920475"><ele>50.66666666666667</ele><time>2026-05-04T17:43:52.506Z</time></trkpt><trkpt lat="41.3073258" lon="1.9921552"><ele>50.333333333333336</ele><time>2026-05-04T17:43:53.498Z</time></trkpt><trkpt lat="41.3072838" lon="1.9922712"><ele>50.0</ele><time>2026-05-04T17:43:54.499Z</time></trkpt><trkpt lat="41.3072348" lon="1.9923947"><ele>48.4</ele><time>2026-05-04T17:43:55.506Z</time></trkpt><trkpt lat="41.3071811" lon="1.9925249"><ele>46.8</ele><time>2026-05-04T17:43:56.509Z</time></trkpt><trkpt lat="41.3071231" lon="1.9926534"><ele>45.2</ele><time>2026-05-04T17:43:57.508Z</time></trkpt><trkpt lat="41.3070616" lon="1.9927684"><ele>43.6</ele><time>2026-05-04T17:43:58.506Z</time></trkpt><trkpt lat="41.3070079" lon="1.992868"><ele>42.0</ele><time>2026-05-04T17:43:59.513Z</time></trkpt><trkpt lat="41.3069541" lon="1.9929568"><ele>42.0</ele><time>2026-05-04T17:44:00.502Z</time></trkpt><trkpt lat="41.3069062" lon="1.9930326"><ele>42.0</ele><time>2026-05-04T17:44:01.511Z</time></trkpt><trkpt lat="41.3068523" lon="1.9930967"><ele>42.0</ele><time>2026-05-04T17:44:02.509Z</time></trkpt><trkpt lat="41.3067932" lon="1.9931533"><ele>42.0</ele><time>2026-05-04T17:44:03.511Z</time></trkpt><trkpt lat="41.3067302" lon="1.9932111"><ele>42.0</ele><time>2026-05-04T17:44:04.512Z</time></trkpt><trkpt lat="41.3066597" lon="1.9932756"><ele>42.0</ele><time>2026-05-04T17:44:05.51Z</time></trkpt><trkpt lat="41.3065875" lon="1.9933443"><ele>41.5</ele><time>2026-05-04T17:44:06.512Z</time></trkpt><trkpt lat="41.3065127" lon="1.9934081"><ele>41.0</ele><time>2026-05-04T17:44:07.509Z</time></trkpt><trkpt lat="41.3064465" lon="1.9934601"><ele>40.5</ele><time>2026-05-04T17:44:08.505Z</time></trkpt><trkpt lat="41.3063842" lon="1.9934936"><ele>40.0</ele><time>2026-05-04T17:44:09.501Z</time></trkpt><trkpt lat="41.3062951" lon="1.9935055"><ele>39.5</ele><time>2026-05-04T17:44:11.505Z</time></trkpt><trkpt lat="41.3061937" lon="1.9935105"><ele>39.0</ele><time>2026-05-04T17:44:13.504Z</time></trkpt><trkpt lat="41.3061189" lon="1.9935619"><ele>38.6</ele><time>2026-05-04T17:44:15.501Z</time></trkpt><trkpt lat="41.3060978" lon="1.9936781"><ele>38.2</ele><time>2026-05-04T17:44:17.5Z</time></trkpt><trkpt lat="41.3061491" lon="1.9938008"><ele>37.800000000000004</ele><time>2026-05-04T17:44:19.513Z</time></trkpt><trkpt lat="41.3062091" lon="1.9938748"><ele>37.4</ele><time>2026-05-04T17:44:21.502Z</time></trkpt><trkpt lat="41.3062686" lon="1.9939417"><ele>37.0</ele><time>2026-05-04T17:44:39.51Z</time></trkpt><trkpt lat="41.3063102" lon="1.9940854"><ele>36.800000000000004</ele><time>2026-05-04T17:44:41.496Z</time></trkpt><trkpt lat="41.3063622" lon="1.9942198"><ele>36.6</ele><time>2026-05-04T17:44:43.499Z</time></trkpt><trkpt lat="41.3063871" lon="1.9943117"><ele>36.400000000000006</ele><time>2026-05-04T17:44:44.501Z</time></trkpt><trkpt lat="41.3064195" lon="1.9944144"><ele>36.2</ele><time>2026-05-04T17:44:45.497Z</time></trkpt><trkpt lat="41.3064558" lon="1.9945315"><ele>36.0</ele><time>2026-05-04T17:44:46.497Z</time></trkpt><trkpt lat="41.3064954" lon="1.9946558"><ele>35.8</ele><time>2026-05-04T17:44:47.501Z</time></trkpt><trkpt lat="41.3065261" lon="1.9947775"><ele>35.6</ele><time>2026-05-04T17:44:48.484Z</time></trkpt><trkpt lat="41.3065514" lon="1.9948923"><ele>35.4</ele><time>2026-05-04T17:44:49.486Z</time></trkpt><trkpt lat="41.3065839" lon="1.9950019"><ele>35.2</ele><time>2026-05-04T17:44:50.505Z</time></trkpt><trkpt lat="41.3066239" lon="1.9951044"><ele>35.0</ele><time>2026-05-04T17:44:51.489Z</time></trkpt><trkpt lat="41.3066621" lon="1.9952153"><ele>34.33333333333333</ele><time>2026-05-04T17:44:52.484Z</time></trkpt><trkpt lat="41.3067033" lon="1.995328"><ele>33.666666666666664</ele><time>2026-05-04T17:44:53.493Z</time></trkpt><trkpt lat="41.306737" lon="1.9954412"><ele>33.0</ele><time>2026-05-04T17:44:54.497Z</time></trkpt><trkpt lat="41.3067675" lon="1.9955493"><ele>32.333333333333336</ele><time>2026-05-04T17:44:55.493Z</time></trkpt><trkpt lat="41.3067985" lon="1.9956514"><ele>31.666666666666668</ele><time>2026-05-04T17:44:56.486Z</time></trkpt><trkpt lat="41.306828" lon="1.99574"><ele>31.0</ele><time>2026-05-04T17:44:57.485Z</time></trkpt><trkpt lat="41.3068573" lon="1.9958312"><ele>30.666666666666668</ele><time>2026-05-04T17:44:58.492Z</time></trkpt><trkpt lat="41.3068867" lon="1.995922"><ele>30.333333333333336</ele><time>2026-05-04T17:44:59.492Z</time></trkpt><trkpt lat="41.3069121" lon="1.9960116"><ele>30.0</ele><time>2026-05-04T17:45:00.491Z</time></trkpt><trkpt lat="41.3069403" lon="1.9961054"><ele>29.666666666666664</ele><time>2026-05-04T17:45:01.49Z</time></trkpt><trkpt lat="41.3069672" lon="1.9961991"><ele>29.333333333333332</ele><time>2026-05-04T17:45:02.489Z</time></trkpt><trkpt lat="41.306995" lon="1.9962964"><ele>29.0</ele><time>2026-05-04T17:45:03.489Z</time></trkpt><trkpt lat="41.3070216" lon="1.9963924"><ele>28.999999999999996</ele><time>2026-05-04T17:45:04.489Z</time></trkpt><trkpt lat="41.3070478" lon="1.9964927"><ele>29.0</ele><time>2026-05-04T17:45:05.488Z</time></trkpt><trkpt lat="41.3070707" lon="1.9965967"><ele>29.0</ele><time>2026-05-04T17:45:06.488Z</time></trkpt><trkpt lat="41.3070899" lon="1.9967028"><ele>29.0</ele><time>2026-05-04T17:45:07.486Z</time></trkpt><trkpt lat="41.3071142" lon="1.9967987"><ele>28.999999999999996</ele><time>2026-05-04T17:45:08.488Z</time></trkpt><trkpt lat="41.3071383" lon="1.996888"><ele>29.0</ele><time>2026-05-04T17:45:09.487Z</time></trkpt><trkpt lat="41.3071579" lon="1.9969784"><ele>28.666666666666664</ele><time>2026-05-04T17:45:10.493Z</time></trkpt><trkpt lat="41.3071814" lon="1.9970682"><ele>28.333333333333332</ele><time>2026-05-04T17:45:11.485Z</time></trkpt><trkpt lat="41.3072006" lon="1.9971637"><ele>28.0</ele><time>2026-05-04T17:45:12.486Z</time></trkpt><trkpt lat="41.3072268" lon="1.9972548"><ele>27.666666666666664</ele><time>2026-05-04T17:45:13.483Z</time></trkpt><trkpt lat="41.3072463" lon="1.9973425"><ele>27.333333333333332</ele><time>2026-05-04T17:45:14.484Z</time></trkpt><trkpt lat="41.3072939" lon="1.9974928"><ele>27.0</ele><time>2026-05-04T17:45:16.482Z</time></trkpt><trkpt lat="41.3073443" lon="1.9976327"><ele>27.833333333333332</ele><time>2026-05-04T17:45:18.483Z</time></trkpt><trkpt lat="41.3073996" lon="1.9977797"><ele>28.666666666666664</ele><time>2026-05-04T17:45:20.482Z</time></trkpt><trkpt lat="41.3074219" lon="1.9978581"><ele>29.5</ele><time>2026-05-04T17:45:21.499Z</time></trkpt><trkpt lat="41.307448" lon="1.998003"><ele>30.333333333333332</ele><time>2026-05-04T17:45:23.49Z</time></trkpt><trkpt lat="41.3074711" lon="1.9981062"><ele>31.166666666666664</ele><time>2026-05-04T17:45:25.492Z</time></trkpt><trkpt lat="41.3075126" lon="1.998179"><ele>32.0</ele><time>2026-05-04T17:45:34.484Z</time></trkpt><trkpt lat="41.3075801" lon="1.9983039"><ele>31.6</ele><time>2026-05-04T17:45:36.486Z</time></trkpt><trkpt lat="41.3076066" lon="1.9983842"><ele>31.200000000000003</ele><time>2026-05-04T17:45:37.485Z</time></trkpt><trkpt lat="41.3076393" lon="1.9985298"><ele>30.8</ele><time>2026-05-04T17:45:39.481Z</time></trkpt><trkpt lat="41.3076729" lon="1.9986978"><ele>30.4</ele><time>2026-05-04T17:45:41.479Z</time></trkpt><trkpt lat="41.3076946" lon="1.9987985"><ele>30.0</ele><time>2026-05-04T17:45:42.477Z</time></trkpt><trkpt lat="41.3077208" lon="1.9989022"><ele>30.0</ele><time>2026-05-04T17:45:43.481Z</time></trkpt><trkpt lat="41.3077446" lon="1.9990052"><ele>30.0</ele><time>2026-05-04T17:45:44.483Z</time></trkpt><trkpt lat="41.3077814" lon="1.9991102"><ele>30.0</ele><time>2026-05-04T17:45:45.49Z</time></trkpt><trkpt lat="41.3078159" lon="1.9992149"><ele>30.0</ele><time>2026-05-04T17:45:46.492Z</time></trkpt><trkpt lat="41.3078456" lon="1.9993224"><ele>30.0</ele><time>2026-05-04T17:45:47.49Z</time></trkpt><trkpt lat="41.3078718" lon="1.9994298"><ele>30.0</ele><time>2026-05-04T17:45:48.492Z</time></trkpt><trkpt lat="41.307898" lon="1.9995339"><ele>29.833333333333332</ele><time>2026-05-04T17:45:49.49Z</time></trkpt><trkpt lat="41.3079297" lon="1.9996275"><ele>29.666666666666664</ele><time>2026-05-04T17:45:50.488Z</time></trkpt><trkpt lat="41.3079628" lon="1.9997196"><ele>29.5</ele><time>2026-05-04T17:45:51.488Z</time></trkpt><trkpt lat="41.3079888" lon="1.999818"><ele>29.333333333333332</ele><time>2026-05-04T17:45:52.503Z</time></trkpt><trkpt lat="41.3080208" lon="1.9999143"><ele>29.166666666666664</ele><time>2026-05-04T17:45:53.489Z</time></trkpt><trkpt lat="41.3080531" lon="2.0000097"><ele>29.0</ele><time>2026-05-04T17:45:54.489Z</time></trkpt><trkpt lat="41.3080813" lon="2.000105"><ele>30.833333333333332</ele><time>2026-05-04T17:45:55.489Z</time></trkpt><trkpt lat="41.3081099" lon="2.0001967"><ele>32.666666666666664</ele><time>2026-05-04T17:45:56.492Z</time></trkpt><trkpt lat="41.3081401" lon="2.0002832"><ele>34.5</ele><time>2026-05-04T17:45:57.491Z</time></trkpt><trkpt lat="41.3081712" lon="2.0003733"><ele>36.333333333333336</ele><time>2026-05-04T17:45:58.494Z</time></trkpt><trkpt lat="41.3081976" lon="2.0004634"><ele>38.16666666666667</ele><time>2026-05-04T17:45:59.487Z</time></trkpt><trkpt lat="41.3082195" lon="2.0005479"><ele>40.0</ele><time>2026-05-04T17:46:00.496Z</time></trkpt><trkpt lat="41.3082773" lon="2.0006854"><ele>40.0</ele><time>2026-05-04T17:46:02.489Z</time></trkpt><trkpt lat="41.3083115" lon="2.0007617"><ele>40.0</ele><time>2026-05-04T17:46:03.484Z</time></trkpt><trkpt lat="41.3083573" lon="2.0008449"><ele>40.0</ele><time>2026-05-04T17:46:04.485Z</time></trkpt><trkpt lat="41.3084097" lon="2.0009258"><ele>40.0</ele><time>2026-05-04T17:46:05.489Z</time></trkpt><trkpt lat="41.308466" lon="2.0010166"><ele>40.0</ele><time>2026-05-04T17:46:06.482Z</time></trkpt><trkpt lat="41.3085246" lon="2.001107"><ele>40.0</ele><time>2026-05-04T17:46:07.479Z</time></trkpt><trkpt lat="41.3085829" lon="2.0011973"><ele>40.0</ele><time>2026-05-04T17:46:08.483Z</time></trkpt><trkpt lat="41.3086358" lon="2.001276"><ele>40.0</ele><time>2026-05-04T17:46:09.483Z</time></trkpt><trkpt lat="41.3086898" lon="2.0013499"><ele>40.0</ele><time>2026-05-04T17:46:10.481Z</time></trkpt><trkpt lat="41.3087367" lon="2.0014114"><ele>40.0</ele><time>2026-05-04T17:46:11.49Z</time></trkpt><trkpt lat="41.3087845" lon="2.0014676"><ele>40.0</ele><time>2026-05-04T17:46:12.489Z</time></trkpt><trkpt lat="41.3088374" lon="2.001596"><ele>40.0</ele><time>2026-05-04T17:46:14.487Z</time></trkpt><trkpt lat="41.3088139" lon="2.0017511"><ele>40.0</ele><time>2026-05-04T17:46:16.499Z</time></trkpt><trkpt lat="41.3088042" lon="2.001838"><ele>40.0</ele><time>2026-05-04T17:46:17.492Z</time></trkpt><trkpt lat="41.3088266" lon="2.002007"><ele>40.0</ele><time>2026-05-04T17:46:19.492Z</time></trkpt><trkpt lat="41.3088798" lon="2.0021624"><ele>40.0</ele><time>2026-05-04T17:46:21.488Z</time></trkpt><trkpt lat="41.3089307" lon="2.0022247"><ele>40.0</ele><time>2026-05-04T17:46:22.496Z</time></trkpt><trkpt lat="41.3089954" lon="2.0022472"><ele>39.5</ele><time>2026-05-04T17:46:23.515Z</time></trkpt><trkpt lat="41.3090714" lon="2.0022485"><ele>39.0</ele><time>2026-05-04T17:46:24.49Z</time></trkpt><trkpt lat="41.3091466" lon="2.0022367"><ele>38.5</ele><time>2026-05-04T17:46:25.486Z</time></trkpt><trkpt lat="41.3092113" lon="2.0022153"><ele>38.0</ele><time>2026-05-04T17:46:26.489Z</time></trkpt><trkpt lat="41.3093144" lon="2.0021833"><ele>37.5</ele><time>2026-05-04T17:46:28.497Z</time></trkpt><trkpt lat="41.3094121" lon="2.0022056"><ele>37.0</ele><time>2026-05-04T17:46:30.505Z</time></trkpt><trkpt lat="41.3094689" lon="2.0022858"><ele>37.0</ele><time>2026-05-04T17:46:32.505Z</time></trkpt><trkpt lat="41.3095185" lon="2.0023712"><ele>37.0</ele><time>2026-05-04T17:46:34.499Z</time></trkpt><trkpt lat="41.3095827" lon="2.0024741"><ele>37.0</ele><time>2026-05-04T17:46:37.497Z</time></trkpt><trkpt lat="41.3096254" lon="2.0025748"><ele>37.0</ele><time>2026-05-04T17:46:39.499Z</time></trkpt><trkpt lat="41.3096886" lon="2.0026689"><ele>37.0</ele><time>2026-05-04T17:46:41.497Z</time></trkpt><trkpt lat="41.3097381" lon="2.0027267"><ele>37.0</ele><time>2026-05-04T17:46:43.492Z</time></trkpt><trkpt lat="41.309805" lon="2.0027536"><ele>36.800000000000004</ele><time>2026-05-04T17:46:46.493Z</time></trkpt><trkpt lat="41.3098949" lon="2.0027068"><ele>36.6</ele><time>2026-05-04T17:46:49.492Z</time></trkpt><trkpt lat="41.3099572" lon="2.0026086"><ele>36.400000000000006</ele><time>2026-05-04T17:46:51.496Z</time></trkpt><trkpt lat="41.3100135" lon="2.0024848"><ele>36.2</ele><time>2026-05-04T17:46:53.5Z</time></trkpt><trkpt lat="41.3100674" lon="2.0023496"><ele>36.0</ele><time>2026-05-04T17:46:55.494Z</time></trkpt><trkpt lat="41.3101349" lon="2.0022259"><ele>36.0</ele><time>2026-05-04T17:46:57.489Z</time></trkpt><trkpt lat="41.3101998" lon="2.0020586"><ele>36.0</ele><time>2026-05-04T17:47:00.49Z</time></trkpt><trkpt lat="41.3102392" lon="2.0019514"><ele>36.0</ele><time>2026-05-04T17:47:02.5Z</time></trkpt><trkpt lat="41.3102507" lon="2.0018607"><ele>36.0</ele><time>2026-05-04T17:47:04.494Z</time></trkpt><trkpt lat="41.3102087" lon="2.0017801"><ele>36.0</ele><time>2026-05-04T17:47:10.444Z</time></trkpt><trkpt lat="41.3101421" lon="2.0016388"><ele>36.0</ele><time>2026-05-04T17:47:18.444Z</time></trkpt><trkpt lat="41.3101124" lon="2.0017529"><ele>36.0</ele><time>2026-05-04T17:47:28.46Z</time></trkpt><trkpt lat="41.3100709" lon="2.0018696"><ele>36.0</ele><time>2026-05-04T17:47:31.48Z</time></trkpt><trkpt lat="41.3100311" lon="2.0019548"><ele>36.0</ele><time>2026-05-04T17:49:28.506Z</time></trkpt><trkpt lat="41.3099648" lon="2.0020155"><ele>36.0</ele><time>2026-05-04T17:50:46.503Z</time></trkpt><trkpt lat="41.3098918" lon="2.0019965"><ele>36.0</ele><time>2026-05-04T18:03:15.513Z</time></trkpt><trkpt lat="41.3098601" lon="2.0018857"><ele>36.0</ele><time>2026-05-04T18:04:07.462Z</time></trkpt><trkpt lat="41.309797" lon="2.0018488"><ele>36.0</ele><time>2026-05-04T18:04:10.467Z</time></trkpt><trkpt lat="41.3100097" lon="2.001851"><ele>36.0</ele><time>2026-05-04T18:05:16.471Z</time></trkpt><trkpt lat="41.3101027" lon="2.0018855"><ele>36.0</ele><time>2026-05-04T18:05:22.473Z</time></trkpt><trkpt lat="41.3101689" lon="2.0018913"><ele>36.0</ele><time>2026-05-04T18:05:28.452Z</time></trkpt><trkpt lat="41.3103166" lon="2.0018584"><ele>36.0</ele><time>2026-05-04T18:05:39.489Z</time></trkpt><trkpt lat="41.3103394" lon="2.0017523"><ele>36.0</ele><time>2026-05-04T18:05:53.492Z</time></trkpt><trkpt lat="41.3103576" lon="2.0015248"><ele>36.0</ele><time>2026-05-04T18:05:56.505Z</time></trkpt><trkpt lat="41.3103649" lon="2.0013807"><ele>36.0</ele><time>2026-05-04T18:05:58.501Z</time></trkpt><trkpt lat="41.3103754" lon="2.0012661"><ele>36.0</ele><time>2026-05-04T18:06:00.505Z</time></trkpt><trkpt lat="41.3103908" lon="2.0011809"><ele>36.0</ele><time>2026-05-04T18:06:02.504Z</time></trkpt><trkpt lat="41.3103777" lon="2.0012799"><ele>36.0</ele><time>2026-05-04T18:06:07.497Z</time></trkpt><trkpt lat="41.3103557" lon="2.0014599"><ele>36.0</ele><time>2026-05-04T18:06:09.488Z</time></trkpt><trkpt lat="41.3103451" lon="2.0015505"><ele>36.0</ele><time>2026-05-04T18:06:10.492Z</time></trkpt><trkpt lat="41.3103235" lon="2.001656"><ele>36.0</ele><time>2026-05-04T18:06:11.49Z</time></trkpt><trkpt lat="41.3102902" lon="2.0017861"><ele>36.0</ele><time>2026-05-04T18:06:13.509Z</time></trkpt><trkpt lat="41.3102594" lon="2.0018757"><ele>36.0</ele><time>2026-05-04T18:06:15.502Z</time></trkpt><trkpt lat="41.3101908" lon="2.0018823"><ele>36.0</ele><time>2026-05-04T18:06:18.5Z</time></trkpt><trkpt lat="41.3101082" lon="2.0018663"><ele>36.0</ele><time>2026-05-04T18:06:21.473Z</time></trkpt><trkpt lat="41.310032" lon="2.0018386"><ele>36.0</ele><time>2026-05-04T18:06:24.434Z</time></trkpt><trkpt lat="41.3099602" lon="2.0018414"><ele>36.0</ele><time>2026-05-04T18:06:25.439Z</time></trkpt><trkpt lat="41.3099601" lon="2.0019658"><ele>36.0</ele><time>2026-05-04T18:06:28.456Z</time></trkpt><trkpt lat="41.3099233" lon="2.00207"><ele>36.0</ele><time>2026-05-04T18:06:29.446Z</time></trkpt><trkpt lat="41.3098641" lon="2.0022071"><ele>36.0</ele><time>2026-05-04T18:06:30.446Z</time></trkpt><trkpt lat="41.3098211" lon="2.00229"><ele>36.0</ele><time>2026-05-04T18:06:31.44Z</time></trkpt><trkpt lat="41.3097582" lon="2.0023023"><ele>36.0</ele><time>2026-05-04T18:06:33.448Z</time></trkpt><trkpt lat="41.3096861" lon="2.0022838"><ele>36.0</ele><time>2026-05-04T18:06:34.452Z</time></trkpt><trkpt lat="41.309648" lon="2.0021876"><ele>36.0</ele><time>2026-05-04T18:06:35.458Z</time></trkpt><trkpt lat="41.3096073" lon="2.0021001"><ele>36.0</ele><time>2026-05-04T18:06:37.456Z</time></trkpt><trkpt lat="41.309623" lon="2.0019941"><ele>36.0</ele><time>2026-05-04T18:06:43.462Z</time></trkpt><trkpt lat="41.3097986" lon="2.001939"><ele>36.0</ele><time>2026-05-04T18:09:15.476Z</time></trkpt><trkpt lat="41.3099198" lon="2.0019328"><ele>36.0</ele><time>2026-05-04T18:09:17.49Z</time></trkpt><trkpt lat="41.310017" lon="2.0019487"><ele>36.0</ele><time>2026-05-04T18:09:20.511Z</time></trkpt><trkpt lat="41.3101027" lon="2.001926"><ele>36.0</ele><time>2026-05-04T18:09:22.507Z</time></trkpt><trkpt lat="41.3101755" lon="2.0018958"><ele>36.0</ele><time>2026-05-04T18:09:24.492Z</time></trkpt><trkpt lat="41.3102613" lon="2.0017986"><ele>36.0</ele><time>2026-05-04T18:09:26.504Z</time></trkpt><trkpt lat="41.3102963" lon="2.0017134"><ele>36.0</ele><time>2026-05-04T18:09:27.492Z</time></trkpt><trkpt lat="41.3103069" lon="2.0016166"><ele>36.714285714285715</ele><time>2026-05-04T18:09:28.488Z</time></trkpt><trkpt lat="41.3103259" lon="2.001521"><ele>37.42857142857143</ele><time>2026-05-04T18:09:29.504Z</time></trkpt><trkpt lat="41.3103464" lon="2.0014385"><ele>38.14285714285714</ele><time>2026-05-04T18:09:30.499Z</time></trkpt><trkpt lat="41.3103577" lon="2.0013457"><ele>38.85714285714286</ele><time>2026-05-04T18:09:31.503Z</time></trkpt><trkpt lat="41.3103687" lon="2.0012427"><ele>39.57142857142857</ele><time>2026-05-04T18:09:32.498Z</time></trkpt><trkpt lat="41.3103813" lon="2.00114"><ele>40.285714285714285</ele><time>2026-05-04T18:09:33.512Z</time></trkpt><trkpt lat="41.3103934" lon="2.0010454"><ele>41.0</ele><time>2026-05-04T18:09:34.498Z</time></trkpt><trkpt lat="41.310402" lon="2.00095"><ele>41.0</ele><time>2026-05-04T18:09:35.497Z</time></trkpt><trkpt lat="41.3104089" lon="2.0008605"><ele>41.0</ele><time>2026-05-04T18:09:36.503Z</time></trkpt><trkpt lat="41.3104297" lon="2.0007087"><ele>41.0</ele><time>2026-05-04T18:09:38.508Z</time></trkpt><trkpt lat="41.310448" lon="2.0005848"><ele>41.0</ele><time>2026-05-04T18:09:40.501Z</time></trkpt><trkpt lat="41.3104537" lon="2.0004667"><ele>41.0</ele><time>2026-05-04T18:09:42.502Z</time></trkpt><trkpt lat="41.3104599" lon="2.0003567"><ele>41.33333333333333</ele><time>2026-05-04T18:09:44.497Z</time></trkpt><trkpt lat="41.3104772" lon="2.0002548"><ele>41.666666666666664</ele><time>2026-05-04T18:09:46.5Z</time></trkpt><trkpt lat="41.3105135" lon="2.0001142"><ele>42.0</ele><time>2026-05-04T18:09:48.502Z</time></trkpt><trkpt lat="41.3105237" lon="2.000017"><ele>42.333333333333336</ele><time>2026-05-04T18:09:49.508Z</time></trkpt><trkpt lat="41.3105327" lon="1.9998999"><ele>42.66666666666667</ele><time>2026-05-04T18:09:50.501Z</time></trkpt><trkpt lat="41.3105509" lon="1.9997777"><ele>43.0</ele><time>2026-05-04T18:09:51.5Z</time></trkpt><trkpt lat="41.3105688" lon="1.9996556"><ele>42.8</ele><time>2026-05-04T18:09:52.51Z</time></trkpt><trkpt lat="41.310582" lon="1.9995342"><ele>42.599999999999994</ele><time>2026-05-04T18:09:53.498Z</time></trkpt><trkpt lat="41.3106016" lon="1.9994083"><ele>42.400000000000006</ele><time>2026-05-04T18:09:54.497Z</time></trkpt><trkpt lat="41.3106323" lon="1.9992758"><ele>42.2</ele><time>2026-05-04T18:09:55.498Z</time></trkpt><trkpt lat="41.3106633" lon="1.9991391"><ele>42.0</ele><time>2026-05-04T18:09:56.503Z</time></trkpt><trkpt lat="41.3106952" lon="1.9990033"><ele>42.0</ele><time>2026-05-04T18:09:57.5Z</time></trkpt><trkpt lat="41.3107371" lon="1.9988681"><ele>42.0</ele><time>2026-05-04T18:09:58.492Z</time></trkpt><trkpt lat="41.31078" lon="1.9987344"><ele>42.0</ele><time>2026-05-04T18:09:59.494Z</time></trkpt><trkpt lat="41.3108253" lon="1.9986045"><ele>42.0</ele><time>2026-05-04T18:10:00.492Z</time></trkpt><trkpt lat="41.3108772" lon="1.9984667"><ele>42.0</ele><time>2026-05-04T18:10:01.493Z</time></trkpt><trkpt lat="41.3109253" lon="1.9983362"><ele>43.2</ele><time>2026-05-04T18:10:02.484Z</time></trkpt><trkpt lat="41.3109647" lon="1.9982136"><ele>44.400000000000006</ele><time>2026-05-04T18:10:03.482Z</time></trkpt><trkpt lat="41.3110023" lon="1.9980923"><ele>45.599999999999994</ele><time>2026-05-04T18:10:04.495Z</time></trkpt><trkpt lat="41.3110278" lon="1.9979793"><ele>46.8</ele><time>2026-05-04T18:10:05.483Z</time></trkpt><trkpt lat="41.3110459" lon="1.9978631"><ele>48.0</ele><time>2026-05-04T18:10:06.479Z</time></trkpt><trkpt lat="41.3110573" lon="1.9977403"><ele>48.0</ele><time>2026-05-04T18:10:07.487Z</time></trkpt><trkpt lat="41.3110577" lon="1.9976155"><ele>48.0</ele><time>2026-05-04T18:10:08.492Z</time></trkpt><trkpt lat="41.3110542" lon="1.9974834"><ele>48.0</ele><time>2026-05-04T18:10:09.495Z</time></trkpt><trkpt lat="41.3110493" lon="1.9973355"><ele>48.0</ele><time>2026-05-04T18:10:10.489Z</time></trkpt><trkpt lat="41.3110453" lon="1.9971885"><ele>48.0</ele><time>2026-05-04T18:10:11.496Z</time></trkpt><trkpt lat="41.3110404" lon="1.9970346"><ele>49.5</ele><time>2026-05-04T18:10:12.486Z</time></trkpt><trkpt lat="41.3110393" lon="1.9968811"><ele>51.0</ele><time>2026-05-04T18:10:13.492Z</time></trkpt><trkpt lat="41.3110379" lon="1.9967296"><ele>52.5</ele><time>2026-05-04T18:10:14.485Z</time></trkpt><trkpt lat="41.3110399" lon="1.9965701"><ele>54.0</ele><time>2026-05-04T18:10:15.484Z</time></trkpt><trkpt lat="41.3110451" lon="1.9964092"><ele>54.75</ele><time>2026-05-04T18:10:16.485Z</time></trkpt><trkpt lat="41.3110486" lon="1.9962512"><ele>55.5</ele><time>2026-05-04T18:10:17.483Z</time></trkpt><trkpt lat="41.3110422" lon="1.9961013"><ele>56.25</ele><time>2026-05-04T18:10:18.485Z</time></trkpt><trkpt lat="41.3110345" lon="1.9959465"><ele>57.0</ele><time>2026-05-04T18:10:19.486Z</time></trkpt><trkpt lat="41.3110221" lon="1.9957936"><ele>57.2</ele><time>2026-05-04T18:10:20.487Z</time></trkpt><trkpt lat="41.3109968" lon="1.9956466"><ele>57.400000000000006</ele><time>2026-05-04T18:10:21.484Z</time></trkpt><trkpt lat="41.3109789" lon="1.9955162"><ele>57.599999999999994</ele><time>2026-05-04T18:10:22.488Z</time></trkpt><trkpt lat="41.3109579" lon="1.9954019"><ele>57.8</ele><time>2026-05-04T18:10:23.49Z</time></trkpt><trkpt lat="41.3109302" lon="1.9952927"><ele>58.0</ele><time>2026-05-04T18:10:24.493Z</time></trkpt><trkpt lat="41.3108954" lon="1.995181"><ele>58.0</ele><time>2026-05-04T18:10:25.492Z</time></trkpt><trkpt lat="41.3108626" lon="1.995061"><ele>58.0</ele><time>2026-05-04T18:10:26.496Z</time></trkpt><trkpt lat="41.3108242" lon="1.9949453"><ele>58.0</ele><time>2026-05-04T18:10:27.499Z</time></trkpt><trkpt lat="41.310787" lon="1.9948318"><ele>58.0</ele><time>2026-05-04T18:10:28.492Z</time></trkpt><trkpt lat="41.3107546" lon="1.9947235"><ele>58.0</ele><time>2026-05-04T18:10:29.495Z</time></trkpt><trkpt lat="41.3107176" lon="1.9946194"><ele>57.83333333333333</ele><time>2026-05-04T18:10:30.49Z</time></trkpt><trkpt lat="41.3106858" lon="1.9945285"><ele>57.666666666666664</ele><time>2026-05-04T18:10:31.484Z</time></trkpt><trkpt lat="41.3106587" lon="1.9944477"><ele>57.5</ele><time>2026-05-04T18:10:32.483Z</time></trkpt><trkpt lat="41.3106396" lon="1.9943173"><ele>57.33333333333333</ele><time>2026-05-04T18:10:34.491Z</time></trkpt><trkpt lat="41.3106505" lon="1.9941922"><ele>57.166666666666664</ele><time>2026-05-04T18:10:36.499Z</time></trkpt><trkpt lat="41.3106253" lon="1.9940629"><ele>57.0</ele><time>2026-05-04T18:10:38.5Z</time></trkpt><trkpt lat="41.3105481" lon="1.9940245"><ele>57.166666666666664</ele><time>2026-05-04T18:10:40.497Z</time></trkpt><trkpt lat="41.3104439" lon="1.9941059"><ele>57.33333333333333</ele><time>2026-05-04T18:10:42.492Z</time></trkpt><trkpt lat="41.3103861" lon="1.9941655"><ele>57.5</ele><time>2026-05-04T18:10:43.496Z</time></trkpt><trkpt lat="41.3103288" lon="1.9942147"><ele>57.666666666666664</ele><time>2026-05-04T18:10:44.497Z</time></trkpt><trkpt lat="41.3102669" lon="1.9942586"><ele>57.83333333333333</ele><time>2026-05-04T18:10:45.496Z</time></trkpt><trkpt lat="41.3101968" lon="1.9942875"><ele>58.0</ele><time>2026-05-04T18:10:46.501Z</time></trkpt><trkpt lat="41.31013" lon="1.9943114"><ele>58.0</ele><time>2026-05-04T18:10:47.49Z</time></trkpt><trkpt lat="41.3100434" lon="1.994341"><ele>58.0</ele><time>2026-05-04T18:10:49.491Z</time></trkpt><trkpt lat="41.3099758" lon="1.9943628"><ele>58.0</ele><time>2026-05-04T18:10:51.492Z</time></trkpt><trkpt lat="41.309879" lon="1.9943187"><ele>58.0</ele><time>2026-05-04T18:10:54.498Z</time></trkpt><trkpt lat="41.3098145" lon="1.9941932"><ele>58.0</ele><time>2026-05-04T18:10:56.496Z</time></trkpt><trkpt lat="41.3097592" lon="1.994046"><ele>57.33333333333333</ele><time>2026-05-04T18:10:58.495Z</time></trkpt><trkpt lat="41.3097021" lon="1.9939127"><ele>56.666666666666664</ele><time>2026-05-04T18:11:00.496Z</time></trkpt><trkpt lat="41.3096659" lon="1.9938362"><ele>56.0</ele><time>2026-05-04T18:11:01.498Z</time></trkpt><trkpt lat="41.3096405" lon="1.9937497"><ele>55.33333333333333</ele><time>2026-05-04T18:11:02.495Z</time></trkpt><trkpt lat="41.3096058" lon="1.993668"><ele>54.666666666666664</ele><time>2026-05-04T18:11:03.493Z</time></trkpt><trkpt lat="41.3095622" lon="1.9935835"><ele>54.0</ele><time>2026-05-04T18:11:04.492Z</time></trkpt><trkpt lat="41.3095126" lon="1.9934982"><ele>54.0</ele><time>2026-05-04T18:11:05.492Z</time></trkpt><trkpt lat="41.3094697" lon="1.9934181"><ele>54.0</ele><time>2026-05-04T18:11:06.509Z</time></trkpt><trkpt lat="41.3094215" lon="1.9933438"><ele>54.0</ele><time>2026-05-04T18:11:07.494Z</time></trkpt><trkpt lat="41.3093763" lon="1.99326"><ele>54.0</ele><time>2026-05-04T18:11:08.501Z</time></trkpt><trkpt lat="41.3093154" lon="1.9931668"><ele>54.0</ele><time>2026-05-04T18:11:09.489Z</time></trkpt><trkpt lat="41.3092603" lon="1.9930692"><ele>54.0</ele><time>2026-05-04T18:11:10.489Z</time></trkpt><trkpt lat="41.3092005" lon="1.9929613"><ele>54.400000000000006</ele><time>2026-05-04T18:11:11.495Z</time></trkpt><trkpt lat="41.3091427" lon="1.9928467"><ele>54.800000000000004</ele><time>2026-05-04T18:11:12.5Z</time></trkpt><trkpt lat="41.309085" lon="1.9927296"><ele>55.199999999999996</ele><time>2026-05-04T18:11:13.499Z</time></trkpt><trkpt lat="41.3090296" lon="1.9926203"><ele>55.599999999999994</ele><time>2026-05-04T18:11:14.501Z</time></trkpt><trkpt lat="41.3089764" lon="1.9925191"><ele>56.0</ele><time>2026-05-04T18:11:15.499Z</time></trkpt><trkpt lat="41.3089277" lon="1.992438"><ele>55.333333333333336</ele><time>2026-05-04T18:11:16.5Z</time></trkpt><trkpt lat="41.3088848" lon="1.9923606"><ele>54.66666666666667</ele><time>2026-05-04T18:11:17.501Z</time></trkpt><trkpt lat="41.3088474" lon="1.992287"><ele>54.0</ele><time>2026-05-04T18:11:18.496Z</time></trkpt><trkpt lat="41.308803" lon="1.9922038"><ele>53.33333333333333</ele><time>2026-05-04T18:11:19.497Z</time></trkpt><trkpt lat="41.3087572" lon="1.9921129"><ele>52.666666666666664</ele><time>2026-05-04T18:11:20.501Z</time></trkpt><trkpt lat="41.3086994" lon="1.9920264"><ele>52.0</ele><time>2026-05-04T18:11:21.502Z</time></trkpt><trkpt lat="41.3086447" lon="1.9919422"><ele>52.0</ele><time>2026-05-04T18:11:22.508Z</time></trkpt><trkpt lat="41.3085862" lon="1.9918492"><ele>52.0</ele><time>2026-05-04T18:11:23.497Z</time></trkpt><trkpt lat="41.3085276" lon="1.9917492"><ele>52.0</ele><time>2026-05-04T18:11:24.501Z</time></trkpt><trkpt lat="41.3084627" lon="1.9916465"><ele>52.0</ele><time>2026-05-04T18:11:25.5Z</time></trkpt><trkpt lat="41.308405" lon="1.9915373"><ele>52.0</ele><time>2026-05-04T18:11:26.502Z</time></trkpt><trkpt lat="41.3083462" lon="1.9914368"><ele>53.33333333333333</ele><time>2026-05-04T18:11:27.505Z</time></trkpt><trkpt lat="41.3082839" lon="1.9913413"><ele>54.666666666666664</ele><time>2026-05-04T18:11:28.499Z</time></trkpt><trkpt lat="41.3082294" lon="1.9912463"><ele>56.0</ele><time>2026-05-04T18:11:29.502Z</time></trkpt><trkpt lat="41.3081864" lon="1.9911551"><ele>57.33333333333333</ele><time>2026-05-04T18:11:30.5Z</time></trkpt><trkpt lat="41.3081447" lon="1.9910693"><ele>58.666666666666664</ele><time>2026-05-04T18:11:31.5Z</time></trkpt><trkpt lat="41.3081102" lon="1.9909899"><ele>60.0</ele><time>2026-05-04T18:11:32.5Z</time></trkpt><trkpt lat="41.3080833" lon="1.9909113"><ele>59.0</ele><time>2026-05-04T18:11:33.499Z</time></trkpt><trkpt lat="41.3080302" lon="1.9907744"><ele>58.0</ele><time>2026-05-04T18:11:35.5Z</time></trkpt><trkpt lat="41.3079755" lon="1.990645"><ele>57.0</ele><time>2026-05-04T18:11:37.524Z</time></trkpt><trkpt lat="41.3079257" lon="1.9905178"><ele>56.0</ele><time>2026-05-04T18:11:39.503Z</time></trkpt><trkpt lat="41.3078476" lon="1.9904193"><ele>55.0</ele><time>2026-05-04T18:11:41.505Z</time></trkpt><trkpt lat="41.3077904" lon="1.9903783"><ele>54.99999999999999</ele><time>2026-05-04T18:11:42.502Z</time></trkpt><trkpt lat="41.3076681" lon="1.9903723"><ele>55.0</ele><time>2026-05-04T18:11:44.509Z</time></trkpt><trkpt lat="41.3076102" lon="1.9904183"><ele>55.0</ele><time>2026-05-04T18:11:45.516Z</time></trkpt><trkpt lat="41.3075637" lon="1.9904969"><ele>55.0</ele><time>2026-05-04T18:11:46.512Z</time></trkpt><trkpt lat="41.3075477" lon="1.9906067"><ele>54.99999999999999</ele><time>2026-05-04T18:11:47.525Z</time></trkpt><trkpt lat="41.3075464" lon="1.9907393"><ele>55.0</ele><time>2026-05-04T18:11:48.513Z</time></trkpt><trkpt lat="41.3075623" lon="1.9908682"><ele>54.4</ele><time>2026-05-04T18:11:49.505Z</time></trkpt><trkpt lat="41.3075883" lon="1.9909905"><ele>53.8</ele><time>2026-05-04T18:11:50.521Z</time></trkpt><trkpt lat="41.3076062" lon="1.9911238"><ele>53.2</ele><time>2026-05-04T18:11:51.509Z</time></trkpt><trkpt lat="41.3076052" lon="1.991247"><ele>52.6</ele><time>2026-05-04T18:11:52.514Z</time></trkpt><trkpt lat="41.3075879" lon="1.9913714"><ele>52.0</ele><time>2026-05-04T18:11:53.503Z</time></trkpt><trkpt lat="41.3075593" lon="1.9914917"><ele>52.0</ele><time>2026-05-04T18:11:54.509Z</time></trkpt><trkpt lat="41.3075213" lon="1.9916091"><ele>52.0</ele><time>2026-05-04T18:11:55.514Z</time></trkpt><trkpt lat="41.3074816" lon="1.9917337"><ele>52.0</ele><time>2026-05-04T18:11:56.515Z</time></trkpt><trkpt lat="41.3074397" lon="1.9918582"><ele>52.0</ele><time>2026-05-04T18:11:57.516Z</time></trkpt><trkpt lat="41.3073958" lon="1.9919903"><ele>52.0</ele><time>2026-05-04T18:11:58.511Z</time></trkpt><trkpt lat="41.3073508" lon="1.9921235"><ele>51.5</ele><time>2026-05-04T18:11:59.513Z</time></trkpt><trkpt lat="41.3073002" lon="1.9922668"><ele>51.0</ele><time>2026-05-04T18:12:00.513Z</time></trkpt><trkpt lat="41.3072453" lon="1.9924109"><ele>50.5</ele><time>2026-05-04T18:12:01.511Z</time></trkpt><trkpt lat="41.3071898" lon="1.9925461"><ele>50.0</ele><time>2026-05-04T18:12:02.506Z</time></trkpt><trkpt lat="41.3071279" lon="1.9926709"><ele>48.66666666666667</ele><time>2026-05-04T18:12:03.502Z</time></trkpt><trkpt lat="41.3070678" lon="1.9927819"><ele>47.333333333333336</ele><time>2026-05-04T18:12:04.508Z</time></trkpt><trkpt lat="41.3070131" lon="1.9928715"><ele>46.0</ele><time>2026-05-04T18:12:05.505Z</time></trkpt><trkpt lat="41.3069623" lon="1.9929425"><ele>44.66666666666667</ele><time>2026-05-04T18:12:06.504Z</time></trkpt><trkpt lat="41.306914" lon="1.9930167"><ele>43.333333333333336</ele><time>2026-05-04T18:12:07.52Z</time></trkpt><trkpt lat="41.306861" lon="1.993084"><ele>42.0</ele><time>2026-05-04T18:12:08.503Z</time></trkpt><trkpt lat="41.3068084" lon="1.993149"><ele>42.0</ele><time>2026-05-04T18:12:09.501Z</time></trkpt><trkpt lat="41.3067537" lon="1.9932022"><ele>42.0</ele><time>2026-05-04T18:12:10.503Z</time></trkpt><trkpt lat="41.3066996" lon="1.9932455"><ele>42.0</ele><time>2026-05-04T18:12:11.506Z</time></trkpt><trkpt lat="41.3066458" lon="1.9932891"><ele>42.0</ele><time>2026-05-04T18:12:12.512Z</time></trkpt><trkpt lat="41.3065463" lon="1.9933718"><ele>42.0</ele><time>2026-05-04T18:12:14.509Z</time></trkpt><trkpt lat="41.3064639" lon="1.9934376"><ele>42.0</ele><time>2026-05-04T18:12:16.521Z</time></trkpt><trkpt lat="41.3063762" lon="1.9934851"><ele>41.0</ele><time>2026-05-04T18:12:18.509Z</time></trkpt><trkpt lat="41.3062767" lon="1.9934997"><ele>40.0</ele><time>2026-05-04T18:12:20.505Z</time></trkpt><trkpt lat="41.3061626" lon="1.9935043"><ele>39.0</ele><time>2026-05-04T18:12:22.502Z</time></trkpt><trkpt lat="41.306055" lon="1.9935906"><ele>38.0</ele><time>2026-05-04T18:12:24.501Z</time></trkpt><trkpt lat="41.3059925" lon="1.9936529"><ele>37.0</ele><time>2026-05-04T18:12:25.501Z</time></trkpt><trkpt lat="41.305924" lon="1.9936996"><ele>37.0</ele><time>2026-05-04T18:12:26.508Z</time></trkpt><trkpt lat="41.3058454" lon="1.9937418"><ele>37.0</ele><time>2026-05-04T18:12:27.507Z</time></trkpt><trkpt lat="41.3057616" lon="1.9937888"><ele>37.0</ele><time>2026-05-04T18:12:28.508Z</time></trkpt><trkpt lat="41.3056705" lon="1.9938315"><ele>37.0</ele><time>2026-05-04T18:12:29.506Z</time></trkpt><trkpt lat="41.3055811" lon="1.9938809"><ele>37.0</ele><time>2026-05-04T18:12:30.502Z</time></trkpt><trkpt lat="41.3054901" lon="1.9939262"><ele>36.0</ele><time>2026-05-04T18:12:31.504Z</time></trkpt><trkpt lat="41.3053998" lon="1.9939679"><ele>35.0</ele><time>2026-05-04T18:12:32.506Z</time></trkpt><trkpt lat="41.305308" lon="1.9940054"><ele>34.0</ele><time>2026-05-04T18:12:33.497Z</time></trkpt><trkpt lat="41.3052249" lon="1.9940351"><ele>33.0</ele><time>2026-05-04T18:12:34.505Z</time></trkpt><trkpt lat="41.3051439" lon="1.9940639"><ele>32.0</ele><time>2026-05-04T18:12:35.504Z</time></trkpt><trkpt lat="41.3050642" lon="1.9940975"><ele>31.0</ele><time>2026-05-04T18:12:36.508Z</time></trkpt><trkpt lat="41.3049927" lon="1.9941407"><ele>30.833333333333336</ele><time>2026-05-04T18:12:37.507Z</time></trkpt><trkpt lat="41.3049182" lon="1.9941847"><ele>30.666666666666668</ele><time>2026-05-04T18:12:38.524Z</time></trkpt><trkpt lat="41.3048427" lon="1.9942226"><ele>30.5</ele><time>2026-05-04T18:12:39.507Z</time></trkpt><trkpt lat="41.3047611" lon="1.9942599"><ele>30.333333333333336</ele><time>2026-05-04T18:12:40.504Z</time></trkpt><trkpt lat="41.3046796" lon="1.9943024"><ele>30.166666666666668</ele><time>2026-05-04T18:12:41.5Z</time></trkpt><trkpt lat="41.304593" lon="1.9943449"><ele>30.0</ele><time>2026-05-04T18:12:42.505Z</time></trkpt><trkpt lat="41.3045053" lon="1.9943795"><ele>30.0</ele><time>2026-05-04T18:12:43.506Z</time></trkpt><trkpt lat="41.3044152" lon="1.9944246"><ele>30.0</ele><time>2026-05-04T18:12:44.513Z</time></trkpt><trkpt lat="41.3043257" lon="1.9944698"><ele>30.0</ele><time>2026-05-04T18:12:45.506Z</time></trkpt><trkpt lat="41.3042298" lon="1.9945165"><ele>30.0</ele><time>2026-05-04T18:12:46.502Z</time></trkpt><trkpt lat="41.3041307" lon="1.9945624"><ele>30.0</ele><time>2026-05-04T18:12:47.504Z</time></trkpt><trkpt lat="41.3040297" lon="1.9946228"><ele>30.0</ele><time>2026-05-04T18:12:48.504Z</time></trkpt><trkpt lat="41.3039324" lon="1.9946799"><ele>30.0</ele><time>2026-05-04T18:12:49.504Z</time></trkpt><trkpt lat="41.3038383" lon="1.994748"><ele>30.0</ele><time>2026-05-04T18:12:50.502Z</time></trkpt><trkpt lat="41.3037503" lon="1.9948105"><ele>30.0</ele><time>2026-05-04T18:12:51.506Z</time></trkpt><trkpt lat="41.3036695" lon="1.9948765"><ele>30.0</ele><time>2026-05-04T18:12:52.511Z</time></trkpt><trkpt lat="41.3035874" lon="1.9949532"><ele>29.6</ele><time>2026-05-04T18:12:53.505Z</time></trkpt><trkpt lat="41.3035067" lon="1.9950288"><ele>29.2</ele><time>2026-05-04T18:12:54.503Z</time></trkpt><trkpt lat="41.3034318" lon="1.995097"><ele>28.799999999999997</ele><time>2026-05-04T18:12:55.502Z</time></trkpt><trkpt lat="41.3033667" lon="1.9951559"><ele>28.4</ele><time>2026-05-04T18:12:56.504Z</time></trkpt><trkpt lat="41.3033108" lon="1.9952179"><ele>28.0</ele><time>2026-05-04T18:12:57.499Z</time></trkpt><trkpt lat="41.3032176" lon="1.995318"><ele>28.000000000000004</ele><time>2026-05-04T18:12:59.502Z</time></trkpt><trkpt lat="41.3031662" lon="1.9953802"><ele>28.0</ele><time>2026-05-04T18:13:00.509Z</time></trkpt><trkpt lat="41.3031156" lon="1.9954349"><ele>28.0</ele><time>2026-05-04T18:13:01.51Z</time></trkpt><trkpt lat="41.3030707" lon="1.9954955"><ele>28.0</ele><time>2026-05-04T18:13:02.508Z</time></trkpt><trkpt lat="41.3029949" lon="1.9956011"><ele>28.000000000000004</ele><time>2026-05-04T18:13:04.509Z</time></trkpt><trkpt lat="41.302917" lon="1.9957123"><ele>28.0</ele><time>2026-05-04T18:13:06.509Z</time></trkpt><trkpt lat="41.3028349" lon="1.9958068"><ele>27.833333333333336</ele><time>2026-05-04T18:13:08.505Z</time></trkpt><trkpt lat="41.3027408" lon="1.9958968"><ele>27.666666666666668</ele><time>2026-05-04T18:13:10.509Z</time></trkpt><trkpt lat="41.3026815" lon="1.995931"><ele>27.5</ele><time>2026-05-04T18:13:11.506Z</time></trkpt><trkpt lat="41.3026161" lon="1.9959512"><ele>27.333333333333336</ele><time>2026-05-04T18:13:12.508Z</time></trkpt><trkpt lat="41.3025439" lon="1.9959578"><ele>27.166666666666668</ele><time>2026-05-04T18:13:13.51Z</time></trkpt><trkpt lat="41.3024728" lon="1.9959802"><ele>27.0</ele><time>2026-05-04T18:13:14.508Z</time></trkpt><trkpt lat="41.3024162" lon="1.9960174"><ele>27.0</ele><time>2026-05-04T18:13:15.509Z</time></trkpt><trkpt lat="41.3023783" lon="1.9960938"><ele>27.000000000000004</ele><time>2026-05-04T18:13:16.512Z</time></trkpt><trkpt lat="41.3023609" lon="1.9961871"><ele>27.000000000000004</ele><time>2026-05-04T18:13:17.501Z</time></trkpt><trkpt lat="41.302344" lon="1.9962834"><ele>27.0</ele><time>2026-05-04T18:13:18.506Z</time></trkpt><trkpt lat="41.3023116" lon="1.9963818"><ele>27.0</ele><time>2026-05-04T18:13:19.505Z</time></trkpt><trkpt lat="41.3022097" lon="1.9965558"><ele>27.200000000000003</ele><time>2026-05-04T18:13:21.506Z</time></trkpt><trkpt lat="41.3021392" lon="1.9966413"><ele>27.400000000000002</ele><time>2026-05-04T18:13:22.502Z</time></trkpt><trkpt lat="41.3020678" lon="1.9967275"><ele>27.599999999999998</ele><time>2026-05-04T18:13:23.501Z</time></trkpt><trkpt lat="41.3019973" lon="1.9968158"><ele>27.799999999999997</ele><time>2026-05-04T18:13:24.499Z</time></trkpt><trkpt lat="41.3019235" lon="1.9968951"><ele>28.0</ele><time>2026-05-04T18:13:25.497Z</time></trkpt><trkpt lat="41.3018477" lon="1.9969825"><ele>28.0</ele><time>2026-05-04T18:13:26.499Z</time></trkpt><trkpt lat="41.3017748" lon="1.997066"><ele>27.999999999999996</ele><time>2026-05-04T18:13:27.495Z</time></trkpt><trkpt lat="41.3017021" lon="1.9971479"><ele>27.999999999999996</ele><time>2026-05-04T18:13:28.499Z</time></trkpt><trkpt lat="41.3016306" lon="1.997231"><ele>28.0</ele><time>2026-05-04T18:13:29.497Z</time></trkpt><trkpt lat="41.3015649" lon="1.9973218"><ele>28.0</ele><time>2026-05-04T18:13:30.495Z</time></trkpt><trkpt lat="41.3014946" lon="1.9974078"><ele>28.0</ele><time>2026-05-04T18:13:31.493Z</time></trkpt><trkpt lat="41.3014276" lon="1.9974854"><ele>28.0</ele><time>2026-05-04T18:13:32.498Z</time></trkpt><trkpt lat="41.30137" lon="1.9975588"><ele>28.0</ele><time>2026-05-04T18:13:33.493Z</time></trkpt><trkpt lat="41.3013187" lon="1.9976266"><ele>28.0</ele><time>2026-05-04T18:13:34.496Z</time></trkpt><trkpt lat="41.3012695" lon="1.9976851"><ele>28.0</ele><time>2026-05-04T18:13:35.498Z</time></trkpt><trkpt lat="41.3012242" lon="1.9977456"><ele>28.0</ele><time>2026-05-04T18:13:36.5Z</time></trkpt><trkpt lat="41.3011778" lon="1.9978043"><ele>28.0</ele><time>2026-05-04T18:13:37.503Z</time></trkpt><trkpt lat="41.3010857" lon="1.9979153"><ele>28.000000000000004</ele><time>2026-05-04T18:13:39.512Z</time></trkpt><trkpt lat="41.3010294" lon="1.997979"><ele>28.0</ele><time>2026-05-04T18:13:40.524Z</time></trkpt><trkpt lat="41.3009704" lon="1.9980405"><ele>28.0</ele><time>2026-05-04T18:13:41.51Z</time></trkpt><trkpt lat="41.3009135" lon="1.9981046"><ele>28.0</ele><time>2026-05-04T18:13:42.512Z</time></trkpt><trkpt lat="41.300856" lon="1.998175"><ele>28.000000000000004</ele><time>2026-05-04T18:13:43.511Z</time></trkpt><trkpt lat="41.3007967" lon="1.9982375"><ele>28.0</ele><time>2026-05-04T18:13:44.513Z</time></trkpt><trkpt lat="41.3007343" lon="1.9982955"><ele>27.571428571428573</ele><time>2026-05-04T18:13:45.517Z</time></trkpt><trkpt lat="41.300676" lon="1.9983551"><ele>27.142857142857142</ele><time>2026-05-04T18:13:46.51Z</time></trkpt><trkpt lat="41.3006221" lon="1.9984184"><ele>26.714285714285715</ele><time>2026-05-04T18:13:47.508Z</time></trkpt><trkpt lat="41.3005678" lon="1.9984798"><ele>26.285714285714285</ele><time>2026-05-04T18:13:48.508Z</time></trkpt><trkpt lat="41.3005108" lon="1.9985458"><ele>25.857142857142858</ele><time>2026-05-04T18:13:49.507Z</time></trkpt><trkpt lat="41.3004592" lon="1.9986109"><ele>25.42857142857143</ele><time>2026-05-04T18:13:50.506Z</time></trkpt><trkpt lat="41.3004067" lon="1.9986754"><ele>25.0</ele><time>2026-05-04T18:13:51.504Z</time></trkpt><trkpt lat="41.3003577" lon="1.9987327"><ele>25.000000000000004</ele><time>2026-05-04T18:13:52.509Z</time></trkpt><trkpt lat="41.3003054" lon="1.9987845"><ele>25.0</ele><time>2026-05-04T18:13:53.504Z</time></trkpt><trkpt lat="41.3001912" lon="1.9988604"><ele>25.0</ele><time>2026-05-04T18:13:55.501Z</time></trkpt><trkpt lat="41.3001361" lon="1.9989104"><ele>25.0</ele><time>2026-05-04T18:13:56.508Z</time></trkpt><trkpt lat="41.3000907" lon="1.998973"><ele>25.000000000000004</ele><time>2026-05-04T18:13:57.512Z</time></trkpt><trkpt lat="41.3000572" lon="1.9990493"><ele>25.0</ele><time>2026-05-04T18:13:58.512Z</time></trkpt><trkpt lat="41.3000059" lon="1.9991738"><ele>24.000000000000004</ele><time>2026-05-04T18:14:00.507Z</time></trkpt><trkpt lat="41.29996" lon="1.9992417"><ele>23.0</ele><time>2026-05-04T18:14:02.5Z</time></trkpt><trkpt lat="41.2999365" lon="1.9993252"><ele>22.0</ele><time>2026-05-04T18:14:24.505Z</time></trkpt><trkpt lat="41.2998639" lon="1.9994182"><ele>21.0</ele><time>2026-05-04T18:14:26.509Z</time></trkpt><trkpt lat="41.2998129" lon="1.9994924"><ele>20.0</ele><time>2026-05-04T18:14:27.507Z</time></trkpt><trkpt lat="41.2997634" lon="1.9995832"><ele>19.0</ele><time>2026-05-04T18:14:28.509Z</time></trkpt><trkpt lat="41.2997071" lon="1.9996754"><ele>19.0</ele><time>2026-05-04T18:14:29.508Z</time></trkpt><trkpt lat="41.2996497" lon="1.9997787"><ele>19.0</ele><time>2026-05-04T18:14:30.51Z</time></trkpt><trkpt lat="41.2995827" lon="1.9998998"><ele>19.0</ele><time>2026-05-04T18:14:31.506Z</time></trkpt><trkpt lat="41.2995123" lon="2.0000296"><ele>19.0</ele><time>2026-05-04T18:14:32.505Z</time></trkpt><trkpt lat="41.2994468" lon="2.0001724"><ele>19.0</ele><time>2026-05-04T18:14:33.502Z</time></trkpt><trkpt lat="41.2993821" lon="2.0003251"><ele>19.0</ele><time>2026-05-04T18:14:34.499Z</time></trkpt><trkpt lat="41.2993236" lon="2.0004854"><ele>19.0</ele><time>2026-05-04T18:14:35.507Z</time></trkpt><trkpt lat="41.2992675" lon="2.0006489"><ele>19.0</ele><time>2026-05-04T18:14:36.504Z</time></trkpt><trkpt lat="41.2992181" lon="2.0008214"><ele>18.25</ele><time>2026-05-04T18:14:37.507Z</time></trkpt><trkpt lat="41.2991698" lon="2.0009969"><ele>17.5</ele><time>2026-05-04T18:14:38.51Z</time></trkpt><trkpt lat="41.2991199" lon="2.0011802"><ele>16.75</ele><time>2026-05-04T18:14:39.505Z</time></trkpt><trkpt lat="41.2990744" lon="2.0013829"><ele>16.0</ele><time>2026-05-04T18:14:40.51Z</time></trkpt><trkpt lat="41.2990231" lon="2.0015736"><ele>15.333333333333332</ele><time>2026-05-04T18:14:41.503Z</time></trkpt><trkpt lat="41.2989798" lon="2.0017746"><ele>14.666666666666668</ele><time>2026-05-04T18:14:42.525Z</time></trkpt><trkpt lat="41.2989381" lon="2.0019769"><ele>14.0</ele><time>2026-05-04T18:14:43.508Z</time></trkpt><trkpt lat="41.2988882" lon="2.0021732"><ele>15.333333333333334</ele><time>2026-05-04T18:14:44.512Z</time></trkpt><trkpt lat="41.2988382" lon="2.0023694"><ele>16.666666666666668</ele><time>2026-05-04T18:14:45.508Z</time></trkpt><trkpt lat="41.2987774" lon="2.0025627"><ele>18.0</ele><time>2026-05-04T18:14:46.509Z</time></trkpt><trkpt lat="41.2987094" lon="2.002753"><ele>15.333333333333334</ele><time>2026-05-04T18:14:47.507Z</time></trkpt><trkpt lat="41.2986291" lon="2.00294"><ele>12.666666666666668</ele><time>2026-05-04T18:14:48.501Z</time></trkpt><trkpt lat="41.2985501" lon="2.0031199"><ele>10.0</ele><time>2026-05-04T18:14:49.494Z</time></trkpt><trkpt lat="41.2984575" lon="2.0032916"><ele>9.333333333333334</ele><time>2026-05-04T18:14:50.498Z</time></trkpt><trkpt lat="41.2983586" lon="2.0034657"><ele>8.666666666666666</ele><time>2026-05-04T18:14:51.5Z</time></trkpt><trkpt lat="41.2982579" lon="2.0036253"><ele>8.0</ele><time>2026-05-04T18:14:52.505Z</time></trkpt><trkpt lat="41.2981461" lon="2.0037733"><ele>8.0</ele><time>2026-05-04T18:14:53.503Z</time></trkpt><trkpt lat="41.298031" lon="2.0039092"><ele>8.0</ele><time>2026-05-04T18:14:54.508Z</time></trkpt><trkpt lat="41.2979079" lon="2.0040324"><ele>8.0</ele><time>2026-05-04T18:14:55.505Z</time></trkpt><trkpt lat="41.2977925" lon="2.00415"><ele>8.25</ele><time>2026-05-04T18:14:56.506Z</time></trkpt><trkpt lat="41.2976782" lon="2.0042613"><ele>8.5</ele><time>2026-05-04T18:14:57.506Z</time></trkpt><trkpt lat="41.2975492" lon="2.0043624"><ele>8.75</ele><time>2026-05-04T18:14:58.5Z</time></trkpt><trkpt lat="41.297416" lon="2.0044525"><ele>9.0</ele><time>2026-05-04T18:14:59.504Z</time></trkpt><trkpt lat="41.2973013" lon="2.0045686"><ele>8.0</ele><time>2026-05-04T18:15:00.512Z</time></trkpt><trkpt lat="41.2971789" lon="2.0046771"><ele>7.0</ele><time>2026-05-04T18:15:01.505Z</time></trkpt><trkpt lat="41.2970483" lon="2.0047931"><ele>6.0</ele><time>2026-05-04T18:15:02.501Z</time></trkpt><trkpt lat="41.2969106" lon="2.0049108"><ele>7.0</ele><time>2026-05-04T18:15:03.496Z</time></trkpt><trkpt lat="41.2967771" lon="2.0050211"><ele>8.0</ele><time>2026-05-04T18:15:04.504Z</time></trkpt><trkpt lat="41.296643" lon="2.0051366"><ele>9.0</ele><time>2026-05-04T18:15:05.504Z</time></trkpt><trkpt lat="41.296503" lon="2.0052596"><ele>8.0</ele><time>2026-05-04T18:15:06.507Z</time></trkpt><trkpt lat="41.2963548" lon="2.0053843"><ele>7.0</ele><time>2026-05-04T18:15:07.503Z</time></trkpt><trkpt lat="41.2962065" lon="2.0055084"><ele>6.0</ele><time>2026-05-04T18:15:08.505Z</time></trkpt><trkpt lat="41.2960635" lon="2.0056258"><ele>6.0</ele><time>2026-05-04T18:15:09.504Z</time></trkpt><trkpt lat="41.2959179" lon="2.0057457"><ele>6.0</ele><time>2026-05-04T18:15:10.505Z</time></trkpt><trkpt lat="41.295773" lon="2.0058722"><ele>6.0</ele><time>2026-05-04T18:15:11.51Z</time></trkpt><trkpt lat="41.295628" lon="2.0060015"><ele>6.0</ele><time>2026-05-04T18:15:12.509Z</time></trkpt><trkpt lat="41.2954914" lon="2.0061311"><ele>6.0</ele><time>2026-05-04T18:15:13.519Z</time></trkpt><trkpt lat="41.2953445" lon="2.0062568"><ele>6.0</ele><time>2026-05-04T18:15:14.506Z</time></trkpt><trkpt lat="41.2952053" lon="2.0063751"><ele>6.0</ele><time>2026-05-04T18:15:15.504Z</time></trkpt><trkpt lat="41.295065" lon="2.0064934"><ele>6.0</ele><time>2026-05-04T18:15:16.509Z</time></trkpt><trkpt lat="41.2949246" lon="2.0066196"><ele>6.0</ele><time>2026-05-04T18:15:17.507Z</time></trkpt><trkpt lat="41.2947805" lon="2.006742"><ele>5.333333333333333</ele><time>2026-05-04T18:15:18.501Z</time></trkpt><trkpt lat="41.2946337" lon="2.0068651"><ele>4.666666666666666</ele><time>2026-05-04T18:15:19.501Z</time></trkpt><trkpt lat="41.2944935" lon="2.0069945"><ele>4.0</ele><time>2026-05-04T18:15:20.499Z</time></trkpt><trkpt lat="41.2943524" lon="2.007126"><ele>4.0</ele><time>2026-05-04T18:15:21.497Z</time></trkpt><trkpt lat="41.2942105" lon="2.0072485"><ele>4.0</ele><time>2026-05-04T18:15:22.498Z</time></trkpt><trkpt lat="41.294074" lon="2.0073602"><ele>4.0</ele><time>2026-05-04T18:15:23.502Z</time></trkpt><trkpt lat="41.2939344" lon="2.0074754"><ele>4.666666666666666</ele><time>2026-05-04T18:15:24.501Z</time></trkpt><trkpt lat="41.2937983" lon="2.0075972"><ele>5.333333333333333</ele><time>2026-05-04T18:15:25.501Z</time></trkpt><trkpt lat="41.2936573" lon="2.0077154"><ele>6.0</ele><time>2026-05-04T18:15:26.504Z</time></trkpt><trkpt lat="41.2935174" lon="2.0078363"><ele>6.0</ele><time>2026-05-04T18:15:27.503Z</time></trkpt><trkpt lat="41.2933769" lon="2.0079709"><ele>6.0</ele><time>2026-05-04T18:15:28.505Z</time></trkpt><trkpt lat="41.2932362" lon="2.0080951"><ele>6.0</ele><time>2026-05-04T18:15:29.504Z</time></trkpt><trkpt lat="41.2931022" lon="2.0082123"><ele>5.666666666666667</ele><time>2026-05-04T18:15:30.505Z</time></trkpt><trkpt lat="41.2929648" lon="2.008339"><ele>5.333333333333334</ele><time>2026-05-04T18:15:31.503Z</time></trkpt><trkpt lat="41.2928279" lon="2.0084668"><ele>5.0</ele><time>2026-05-04T18:15:32.505Z</time></trkpt><trkpt lat="41.2926959" lon="2.008596"><ele>5.0</ele><time>2026-05-04T18:15:33.505Z</time></trkpt><trkpt lat="41.2925692" lon="2.008726"><ele>5.0</ele><time>2026-05-04T18:15:34.505Z</time></trkpt><trkpt lat="41.2924444" lon="2.0088494"><ele>5.0</ele><time>2026-05-04T18:15:35.501Z</time></trkpt><trkpt lat="41.2923244" lon="2.0089655"><ele>5.25</ele><time>2026-05-04T18:15:36.502Z</time></trkpt><trkpt lat="41.2922111" lon="2.00908"><ele>5.5</ele><time>2026-05-04T18:15:37.505Z</time></trkpt><trkpt lat="41.2921055" lon="2.0091874"><ele>5.75</ele><time>2026-05-04T18:15:38.506Z</time></trkpt><trkpt lat="41.2920039" lon="2.0092894"><ele>6.0</ele><time>2026-05-04T18:15:39.506Z</time></trkpt><trkpt lat="41.2919092" lon="2.0093857"><ele>6.0</ele><time>2026-05-04T18:15:40.504Z</time></trkpt><trkpt lat="41.2918179" lon="2.009482"><ele>6.0</ele><time>2026-05-04T18:15:41.504Z</time></trkpt><trkpt lat="41.2917231" lon="2.0095858"><ele>6.0</ele><time>2026-05-04T18:15:42.52Z</time></trkpt><trkpt lat="41.2916313" lon="2.0096834"><ele>6.0</ele><time>2026-05-04T18:15:43.52Z</time></trkpt><trkpt lat="41.2915311" lon="2.0097868"><ele>6.0</ele><time>2026-05-04T18:15:44.53Z</time></trkpt><trkpt lat="41.2914308" lon="2.0098879"><ele>6.0</ele><time>2026-05-04T18:15:45.518Z</time></trkpt><trkpt lat="41.2913284" lon="2.0099901"><ele>6.0</ele><time>2026-05-04T18:15:46.52Z</time></trkpt><trkpt lat="41.2912199" lon="2.0100982"><ele>6.0</ele><time>2026-05-04T18:15:47.515Z</time></trkpt><trkpt lat="41.2911131" lon="2.0102057"><ele>6.0</ele><time>2026-05-04T18:15:48.516Z</time></trkpt><trkpt lat="41.2910038" lon="2.0103141"><ele>6.0</ele><time>2026-05-04T18:15:49.513Z</time></trkpt><trkpt lat="41.290892" lon="2.010414"><ele>6.0</ele><time>2026-05-04T18:15:50.515Z</time></trkpt><trkpt lat="41.2907812" lon="2.0105155"><ele>6.0</ele><time>2026-05-04T18:15:51.518Z</time></trkpt><trkpt lat="41.290673" lon="2.0106217"><ele>6.0</ele><time>2026-05-04T18:15:52.522Z</time></trkpt><trkpt lat="41.290564" lon="2.0107204"><ele>6.0</ele><time>2026-05-04T18:15:53.515Z</time></trkpt><trkpt lat="41.2904544" lon="2.0108161"><ele>6.0</ele><time>2026-05-04T18:15:54.513Z</time></trkpt><trkpt lat="41.2903488" lon="2.0108998"><ele>6.0</ele><time>2026-05-04T18:15:55.504Z</time></trkpt><trkpt lat="41.2902575" lon="2.0109622"><ele>6.0</ele><time>2026-05-04T18:15:56.507Z</time></trkpt><trkpt lat="41.2901788" lon="2.0110009"><ele>6.0</ele><time>2026-05-04T18:15:57.509Z</time></trkpt><trkpt lat="41.290097" lon="2.0110072"><ele>6.0</ele><time>2026-05-04T18:15:58.502Z</time></trkpt><trkpt lat="41.2900274" lon="2.0109689"><ele>6.0</ele><time>2026-05-04T18:15:59.503Z</time></trkpt><trkpt lat="41.2899585" lon="2.0108993"><ele>6.0</ele><time>2026-05-04T18:16:00.498Z</time></trkpt><trkpt lat="41.2898982" lon="2.0108064"><ele>6.0</ele><time>2026-05-04T18:16:01.496Z</time></trkpt><trkpt lat="41.2898385" lon="2.010707"><ele>6.0</ele><time>2026-05-04T18:16:02.498Z</time></trkpt><trkpt lat="41.2897734" lon="2.010596"><ele>6.0</ele><time>2026-05-04T18:16:03.501Z</time></trkpt><trkpt lat="41.2897109" lon="2.0104788"><ele>6.0</ele><time>2026-05-04T18:16:04.499Z</time></trkpt><trkpt lat="41.2896472" lon="2.0103822"><ele>6.0</ele><time>2026-05-04T18:16:05.498Z</time></trkpt><trkpt lat="41.2895831" lon="2.0103035"><ele>6.0</ele><time>2026-05-04T18:16:06.501Z</time></trkpt><trkpt lat="41.2895241" lon="2.0102698"><ele>5.8</ele><time>2026-05-04T18:16:07.505Z</time></trkpt><trkpt lat="41.2894368" lon="2.0103371"><ele>5.6</ele><time>2026-05-04T18:16:09.502Z</time></trkpt><trkpt lat="41.2894397" lon="2.0105181"><ele>5.4</ele><time>2026-05-04T18:16:11.502Z</time></trkpt><trkpt lat="41.2894732" lon="2.0106289"><ele>5.2</ele><time>2026-05-04T18:16:12.504Z</time></trkpt><trkpt lat="41.289524" lon="2.0107493"><ele>5.0</ele><time>2026-05-04T18:16:13.507Z</time></trkpt><trkpt lat="41.2895814" lon="2.0108858"><ele>5.0</ele><time>2026-05-04T18:16:14.501Z</time></trkpt><trkpt lat="41.2896382" lon="2.0110278"><ele>5.0</ele><time>2026-05-04T18:16:15.532Z</time></trkpt><trkpt lat="41.2896953" lon="2.0111679"><ele>5.0</ele><time>2026-05-04T18:16:16.504Z</time></trkpt><trkpt lat="41.2897552" lon="2.0113075"><ele>5.0</ele><time>2026-05-04T18:16:17.498Z</time></trkpt><trkpt lat="41.2898223" lon="2.0114526"><ele>5.25</ele><time>2026-05-04T18:16:18.491Z</time></trkpt><trkpt lat="41.2898866" lon="2.0116037"><ele>5.5</ele><time>2026-05-04T18:16:19.5Z</time></trkpt><trkpt lat="41.28995" lon="2.0117621"><ele>5.75</ele><time>2026-05-04T18:16:20.5Z</time></trkpt><trkpt lat="41.2900188" lon="2.0119267"><ele>6.0</ele><time>2026-05-04T18:16:21.51Z</time></trkpt><trkpt lat="41.2900876" lon="2.0120843"><ele>5.25</ele><time>2026-05-04T18:16:22.496Z</time></trkpt><trkpt lat="41.2901573" lon="2.0122477"><ele>4.5</ele><time>2026-05-04T18:16:23.503Z</time></trkpt><trkpt lat="41.2902286" lon="2.0124101"><ele>3.75</ele><time>2026-05-04T18:16:24.502Z</time></trkpt><trkpt lat="41.2903141" lon="2.0125694"><ele>3.0</ele><time>2026-05-04T18:16:25.508Z</time></trkpt><trkpt lat="41.2903895" lon="2.0127204"><ele>3.0</ele><time>2026-05-04T18:16:26.509Z</time></trkpt><trkpt lat="41.290466" lon="2.0128821"><ele>3.0</ele><time>2026-05-04T18:16:27.508Z</time></trkpt><trkpt lat="41.2905373" lon="2.013048"><ele>3.0</ele><time>2026-05-04T18:16:28.505Z</time></trkpt><trkpt lat="41.2905993" lon="2.0132111"><ele>3.0</ele><time>2026-05-04T18:16:29.506Z</time></trkpt><trkpt lat="41.2906719" lon="2.0133679"><ele>3.25</ele><time>2026-05-04T18:16:30.507Z</time></trkpt><trkpt lat="41.290743" lon="2.0135133"><ele>3.5</ele><time>2026-05-04T18:16:31.518Z</time></trkpt><trkpt lat="41.2908084" lon="2.0136631"><ele>3.75</ele><time>2026-05-04T18:16:32.503Z</time></trkpt><trkpt lat="41.2908722" lon="2.0137975"><ele>4.0</ele><time>2026-05-04T18:16:33.516Z</time></trkpt><trkpt lat="41.2909286" lon="2.0139263"><ele>4.0</ele><time>2026-05-04T18:16:34.509Z</time></trkpt><trkpt lat="41.2909863" lon="2.0140505"><ele>4.0</ele><time>2026-05-04T18:16:35.51Z</time></trkpt><trkpt lat="41.2910421" lon="2.0141659"><ele>4.0</ele><time>2026-05-04T18:16:36.507Z</time></trkpt><trkpt lat="41.2910937" lon="2.0142679"><ele>4.0</ele><time>2026-05-04T18:16:37.507Z</time></trkpt><trkpt lat="41.2911402" lon="2.0143503"><ele>4.0</ele><time>2026-05-04T18:16:38.511Z</time></trkpt><trkpt lat="41.2911888" lon="2.0144662"><ele>4.2</ele><time>2026-05-04T18:16:40.497Z</time></trkpt><trkpt lat="41.2912001" lon="2.0145705"><ele>4.4</ele><time>2026-05-04T18:16:42.502Z</time></trkpt><trkpt lat="41.2911971" lon="2.0147028"><ele>4.6</ele><time>2026-05-04T18:16:44.51Z</time></trkpt><trkpt lat="41.2911082" lon="2.0148491"><ele>4.8</ele><time>2026-05-04T18:16:46.517Z</time></trkpt><trkpt lat="41.291031" lon="2.0149149"><ele>5.0</ele><time>2026-05-04T18:16:47.503Z</time></trkpt><trkpt lat="41.2909401" lon="2.0149716"><ele>5.0</ele><time>2026-05-04T18:16:48.504Z</time></trkpt><trkpt lat="41.2908436" lon="2.015026"><ele>5.0</ele><time>2026-05-04T18:16:49.51Z</time></trkpt><trkpt lat="41.2907467" lon="2.0150741"><ele>5.0</ele><time>2026-05-04T18:16:50.508Z</time></trkpt><trkpt lat="41.2906398" lon="2.0151219"><ele>5.0</ele><time>2026-05-04T18:16:51.518Z</time></trkpt><trkpt lat="41.2905292" lon="2.0151661"><ele>5.0</ele><time>2026-05-04T18:16:52.509Z</time></trkpt><trkpt lat="41.2904198" lon="2.0152136"><ele>4.8</ele><time>2026-05-04T18:16:53.514Z</time></trkpt><trkpt lat="41.2903094" lon="2.0152603"><ele>4.6</ele><time>2026-05-04T18:16:54.509Z</time></trkpt><trkpt lat="41.2901998" lon="2.0153007"><ele>4.4</ele><time>2026-05-04T18:16:55.509Z</time></trkpt><trkpt lat="41.2900979" lon="2.0153324"><ele>4.2</ele><time>2026-05-04T18:16:56.513Z</time></trkpt><trkpt lat="41.2900081" lon="2.0153638"><ele>4.0</ele><time>2026-05-04T18:16:57.516Z</time></trkpt><trkpt lat="41.2899263" lon="2.0153972"><ele>3.9999999999999996</ele><time>2026-05-04T18:16:58.509Z</time></trkpt><trkpt lat="41.2898448" lon="2.0154312"><ele>4.0</ele><time>2026-05-04T18:16:59.511Z</time></trkpt><trkpt lat="41.2897571" lon="2.0154612"><ele>4.0</ele><time>2026-05-04T18:17:00.512Z</time></trkpt><trkpt lat="41.2896737" lon="2.0154931"><ele>4.0</ele><time>2026-05-04T18:17:01.509Z</time></trkpt><trkpt lat="41.289589" lon="2.0155251"><ele>3.9999999999999996</ele><time>2026-05-04T18:17:02.508Z</time></trkpt><trkpt lat="41.289505" lon="2.0155629"><ele>4.0</ele><time>2026-05-04T18:17:03.506Z</time></trkpt><trkpt lat="41.2894109" lon="2.0156059"><ele>4.2</ele><time>2026-05-04T18:17:04.506Z</time></trkpt><trkpt lat="41.2893183" lon="2.0156396"><ele>4.4</ele><time>2026-05-04T18:17:05.508Z</time></trkpt><trkpt lat="41.289226" lon="2.0156767"><ele>4.6</ele><time>2026-05-04T18:17:06.503Z</time></trkpt><trkpt lat="41.2891328" lon="2.0157131"><ele>4.8</ele><time>2026-05-04T18:17:07.508Z</time></trkpt><trkpt lat="41.2890312" lon="2.0157528"><ele>5.0</ele><time>2026-05-04T18:17:08.508Z</time></trkpt><trkpt lat="41.2889319" lon="2.0157955"><ele>4.8</ele><time>2026-05-04T18:17:09.505Z</time></trkpt><trkpt lat="41.2888328" lon="2.0158371"><ele>4.6</ele><time>2026-05-04T18:17:10.51Z</time></trkpt><trkpt lat="41.2887383" lon="2.0158743"><ele>4.4</ele><time>2026-05-04T18:17:11.506Z</time></trkpt><trkpt lat="41.2886443" lon="2.0159132"><ele>4.2</ele><time>2026-05-04T18:17:12.51Z</time></trkpt><trkpt lat="41.28855" lon="2.0159478"><ele>4.0</ele><time>2026-05-04T18:17:13.51Z</time></trkpt><trkpt lat="41.2884706" lon="2.0159827"><ele>3.9999999999999996</ele><time>2026-05-04T18:17:14.509Z</time></trkpt><trkpt lat="41.2883981" lon="2.0160107"><ele>4.0</ele><time>2026-05-04T18:17:15.511Z</time></trkpt><trkpt lat="41.2883368" lon="2.0160383"><ele>4.0</ele><time>2026-05-04T18:17:16.517Z</time></trkpt><trkpt lat="41.2882403" lon="2.0160744"><ele>4.0</ele><time>2026-05-04T18:17:18.505Z</time></trkpt><trkpt lat="41.2881363" lon="2.016098"><ele>3.9999999999999996</ele><time>2026-05-04T18:17:20.508Z</time></trkpt><trkpt lat="41.2880379" lon="2.0160841"><ele>4.0</ele><time>2026-05-04T18:17:22.514Z</time></trkpt><trkpt lat="41.2879427" lon="2.0161496"><ele>3.9999999999999996</ele><time>2026-05-04T18:17:24.506Z</time></trkpt><trkpt lat="41.2878911" lon="2.0162026"><ele>4.0</ele><time>2026-05-04T18:17:25.505Z</time></trkpt><trkpt lat="41.2878279" lon="2.0162464"><ele>4.0</ele><time>2026-05-04T18:17:26.506Z</time></trkpt><trkpt lat="41.2877549" lon="2.016277"><ele>4.0</ele><time>2026-05-04T18:17:27.507Z</time></trkpt><trkpt lat="41.2876719" lon="2.0163034"><ele>3.9999999999999996</ele><time>2026-05-04T18:17:28.507Z</time></trkpt><trkpt lat="41.287584" lon="2.0163394"><ele>4.0</ele><time>2026-05-04T18:17:29.508Z</time></trkpt><trkpt lat="41.2874877" lon="2.0163784"><ele>4.0</ele><time>2026-05-04T18:17:30.506Z</time></trkpt><trkpt lat="41.2873877" lon="2.0164185"><ele>4.0</ele><time>2026-05-04T18:17:31.51Z</time></trkpt><trkpt lat="41.2872916" lon="2.0164575"><ele>4.0</ele><time>2026-05-04T18:17:32.51Z</time></trkpt><trkpt lat="41.2871869" lon="2.0165022"><ele>4.0</ele><time>2026-05-04T18:17:33.503Z</time></trkpt><trkpt lat="41.2870796" lon="2.0165449"><ele>4.0</ele><time>2026-05-04T18:17:34.507Z</time></trkpt><trkpt lat="41.2869682" lon="2.0165936"><ele>3.8000000000000003</ele><time>2026-05-04T18:17:35.506Z</time></trkpt><trkpt lat="41.286859" lon="2.0166425"><ele>3.6000000000000005</ele><time>2026-05-04T18:17:36.507Z</time></trkpt><trkpt lat="41.2867537" lon="2.0166884"><ele>3.4</ele><time>2026-05-04T18:17:37.51Z</time></trkpt><trkpt lat="41.2866508" lon="2.0167375"><ele>3.2</ele><time>2026-05-04T18:17:38.51Z</time></trkpt><trkpt lat="41.2865457" lon="2.0167765"><ele>3.0</ele><time>2026-05-04T18:17:39.504Z</time></trkpt><trkpt lat="41.2864336" lon="2.016815"><ele>3.25</ele><time>2026-05-04T18:17:40.507Z</time></trkpt><trkpt lat="41.2863167" lon="2.0168617"><ele>3.5</ele><time>2026-05-04T18:17:41.513Z</time></trkpt><trkpt lat="41.2861982" lon="2.0169044"><ele>3.75</ele><time>2026-05-04T18:17:42.51Z</time></trkpt><trkpt lat="41.2860697" lon="2.0169531"><ele>4.0</ele><time>2026-05-04T18:17:43.504Z</time></trkpt><trkpt lat="41.2859421" lon="2.0170009"><ele>4.0</ele><time>2026-05-04T18:17:44.513Z</time></trkpt><trkpt lat="41.2858108" lon="2.0170487"><ele>4.0</ele><time>2026-05-04T18:17:45.509Z</time></trkpt><trkpt lat="41.2856764" lon="2.0171072"><ele>4.0</ele><time>2026-05-04T18:17:46.503Z</time></trkpt><trkpt lat="41.2855402" lon="2.0171693"><ele>4.0</ele><time>2026-05-04T18:17:47.519Z</time></trkpt><trkpt lat="41.2854028" lon="2.017229"><ele>4.0</ele><time>2026-05-04T18:17:48.504Z</time></trkpt><trkpt lat="41.2852616" lon="2.0172894"><ele>4.0</ele><time>2026-05-04T18:17:49.504Z</time></trkpt><trkpt lat="41.2851167" lon="2.0173494"><ele>4.0</ele><time>2026-05-04T18:17:50.51Z</time></trkpt><trkpt lat="41.284971" lon="2.0174059"><ele>4.0</ele><time>2026-05-04T18:17:51.504Z</time></trkpt><trkpt lat="41.2848225" lon="2.0174663"><ele>4.0</ele><time>2026-05-04T18:17:52.504Z</time></trkpt><trkpt lat="41.2846657" lon="2.0175382"><ele>4.0</ele><time>2026-05-04T18:17:53.507Z</time></trkpt><trkpt lat="41.2845061" lon="2.0176016"><ele>4.333333333333333</ele><time>2026-05-04T18:17:54.508Z</time></trkpt><trkpt lat="41.2843528" lon="2.0176571"><ele>4.666666666666667</ele><time>2026-05-04T18:17:55.51Z</time></trkpt><trkpt lat="41.2841931" lon="2.0177237"><ele>5.0</ele><time>2026-05-04T18:17:56.516Z</time></trkpt><trkpt lat="41.284034" lon="2.0177841"><ele>4.666666666666667</ele><time>2026-05-04T18:17:57.513Z</time></trkpt><trkpt lat="41.2838715" lon="2.017852"><ele>4.333333333333333</ele><time>2026-05-04T18:17:58.507Z</time></trkpt><trkpt lat="41.2837142" lon="2.0179205"><ele>4.0</ele><time>2026-05-04T18:17:59.512Z</time></trkpt><trkpt lat="41.2835605" lon="2.0179922"><ele>4.0</ele><time>2026-05-04T18:18:00.511Z</time></trkpt><trkpt lat="41.2833989" lon="2.0180556"><ele>4.0</ele><time>2026-05-04T18:18:01.511Z</time></trkpt><trkpt lat="41.2832374" lon="2.0181092"><ele>4.0</ele><time>2026-05-04T18:18:02.512Z</time></trkpt><trkpt lat="41.2830701" lon="2.0181859"><ele>4.0</ele><time>2026-05-04T18:18:03.507Z</time></trkpt><trkpt lat="41.2829075" lon="2.0182525"><ele>4.0</ele><time>2026-05-04T18:18:04.504Z</time></trkpt><trkpt lat="41.28276" lon="2.0183185"><ele>4.0</ele><time>2026-05-04T18:18:05.503Z</time></trkpt><trkpt lat="41.282619" lon="2.0183751"><ele>4.0</ele><time>2026-05-04T18:18:06.503Z</time></trkpt><trkpt lat="41.282474" lon="2.0184323"><ele>4.0</ele><time>2026-05-04T18:18:07.503Z</time></trkpt><trkpt lat="41.2823275" lon="2.0184877"><ele>4.0</ele><time>2026-05-04T18:18:08.503Z</time></trkpt><trkpt lat="41.2821954" lon="2.0185438"><ele>4.0</ele><time>2026-05-04T18:18:09.506Z</time></trkpt><trkpt lat="41.2820544" lon="2.0186072"><ele>3.5</ele><time>2026-05-04T18:18:10.511Z</time></trkpt><trkpt lat="41.2819107" lon="2.0186636"><ele>3.0</ele><time>2026-05-04T18:18:11.509Z</time></trkpt><trkpt lat="41.2817704" lon="2.018719"><ele>2.5</ele><time>2026-05-04T18:18:12.512Z</time></trkpt><trkpt lat="41.2816277" lon="2.0187807"><ele>2.0</ele><time>2026-05-04T18:18:13.509Z</time></trkpt><trkpt lat="41.2814811" lon="2.0188455"><ele>2.333333333333333</ele><time>2026-05-04T18:18:14.508Z</time></trkpt><trkpt lat="41.2813282" lon="2.0189229"><ele>2.6666666666666665</ele><time>2026-05-04T18:18:15.505Z</time></trkpt><trkpt lat="41.2811704" lon="2.0189938"><ele>3.0</ele><time>2026-05-04T18:18:16.51Z</time></trkpt><trkpt lat="41.2810102" lon="2.0190598"><ele>3.0</ele><time>2026-05-04T18:18:17.514Z</time></trkpt><trkpt lat="41.2808378" lon="2.0191154"><ele>3.0</ele><time>2026-05-04T18:18:18.522Z</time></trkpt><trkpt lat="41.2806712" lon="2.0191585"><ele>3.0</ele><time>2026-05-04T18:18:19.506Z</time></trkpt><trkpt lat="41.2805047" lon="2.0192177"><ele>3.333333333333333</ele><time>2026-05-04T18:18:20.507Z</time></trkpt><trkpt lat="41.2803324" lon="2.0192742"><ele>3.6666666666666665</ele><time>2026-05-04T18:18:21.51Z</time></trkpt><trkpt lat="41.2801515" lon="2.0193343"><ele>4.0</ele><time>2026-05-04T18:18:22.51Z</time></trkpt><trkpt lat="41.2799804" lon="2.0193884"><ele>4.0</ele><time>2026-05-04T18:18:23.509Z</time></trkpt><trkpt lat="41.2798039" lon="2.0194358"><ele>4.0</ele><time>2026-05-04T18:18:24.506Z</time></trkpt><trkpt lat="41.2796266" lon="2.0194783"><ele>4.0</ele><time>2026-05-04T18:18:25.507Z</time></trkpt><trkpt lat="41.2794492" lon="2.0195126"><ele>4.666666666666666</ele><time>2026-05-04T18:18:26.516Z</time></trkpt><trkpt lat="41.279271" lon="2.0195455"><ele>5.333333333333333</ele><time>2026-05-04T18:18:27.513Z</time></trkpt><trkpt lat="41.2790957" lon="2.0195814"><ele>6.0</ele><time>2026-05-04T18:18:28.504Z</time></trkpt><trkpt lat="41.2789198" lon="2.019598"><ele>6.0</ele><time>2026-05-04T18:18:29.508Z</time></trkpt><trkpt lat="41.2787529" lon="2.0196151"><ele>6.0</ele><time>2026-05-04T18:18:30.507Z</time></trkpt><trkpt lat="41.27859" lon="2.0196357"><ele>6.0</ele><time>2026-05-04T18:18:31.506Z</time></trkpt><trkpt lat="41.278423" lon="2.0196527"><ele>6.0</ele><time>2026-05-04T18:18:32.506Z</time></trkpt><trkpt lat="41.2782542" lon="2.0196622"><ele>6.0</ele><time>2026-05-04T18:18:33.508Z</time></trkpt><trkpt lat="41.27809" lon="2.0196628"><ele>6.0</ele><time>2026-05-04T18:18:34.512Z</time></trkpt><trkpt lat="41.277916" lon="2.0196694"><ele>5.0</ele><time>2026-05-04T18:18:35.507Z</time></trkpt><trkpt lat="41.2777441" lon="2.0196728"><ele>4.0</ele><time>2026-05-04T18:18:36.509Z</time></trkpt><trkpt lat="41.2775672" lon="2.0196781"><ele>3.0</ele><time>2026-05-04T18:18:37.508Z</time></trkpt><trkpt lat="41.2773942" lon="2.0196822"><ele>3.0</ele><time>2026-05-04T18:18:38.508Z</time></trkpt><trkpt lat="41.2772202" lon="2.0196773"><ele>3.0</ele><time>2026-05-04T18:18:39.508Z</time></trkpt><trkpt lat="41.2770468" lon="2.0196733"><ele>3.0</ele><time>2026-05-04T18:18:40.508Z</time></trkpt><trkpt lat="41.2768758" lon="2.0196705"><ele>3.0</ele><time>2026-05-04T18:18:41.511Z</time></trkpt><trkpt lat="41.2766973" lon="2.019675"><ele>3.0</ele><time>2026-05-04T18:18:42.509Z</time></trkpt><trkpt lat="41.276521" lon="2.0196828"><ele>3.0</ele><time>2026-05-04T18:18:43.509Z</time></trkpt><trkpt lat="41.2763483" lon="2.0196842"><ele>3.666666666666667</ele><time>2026-05-04T18:18:44.512Z</time></trkpt><trkpt lat="41.2761689" lon="2.0196843"><ele>4.333333333333334</ele><time>2026-05-04T18:18:45.51Z</time></trkpt><trkpt lat="41.2760023" lon="2.019679"><ele>5.0</ele><time>2026-05-04T18:18:46.509Z</time></trkpt><trkpt lat="41.2758407" lon="2.0196728"><ele>5.0</ele><time>2026-05-04T18:18:47.519Z</time></trkpt><trkpt lat="41.2756877" lon="2.0196803"><ele>5.0</ele><time>2026-05-04T18:18:48.513Z</time></trkpt><trkpt lat="41.2755336" lon="2.0196774"><ele>5.0</ele><time>2026-05-04T18:18:49.527Z</time></trkpt><trkpt lat="41.2753728" lon="2.0196706"><ele>3.666666666666667</ele><time>2026-05-04T18:18:50.505Z</time></trkpt><trkpt lat="41.2752141" lon="2.019673"><ele>2.3333333333333335</ele><time>2026-05-04T18:18:51.511Z</time></trkpt><trkpt lat="41.2750444" lon="2.0196775"><ele>1.0</ele><time>2026-05-04T18:18:52.508Z</time></trkpt><trkpt lat="41.2748758" lon="2.0196876"><ele>2.0</ele><time>2026-05-04T18:18:53.509Z</time></trkpt><trkpt lat="41.2747073" lon="2.0196931"><ele>3.0</ele><time>2026-05-04T18:18:54.515Z</time></trkpt><trkpt lat="41.2745386" lon="2.0196919"><ele>4.0</ele><time>2026-05-04T18:18:55.51Z</time></trkpt><trkpt lat="41.2743736" lon="2.0196925"><ele>4.0</ele><time>2026-05-04T18:18:56.514Z</time></trkpt><trkpt lat="41.2742038" lon="2.0196975"><ele>4.0</ele><time>2026-05-04T18:18:57.511Z</time></trkpt><trkpt lat="41.2740433" lon="2.0196979"><ele>4.0</ele><time>2026-05-04T18:18:58.506Z</time></trkpt><trkpt lat="41.2738745" lon="2.0196989"><ele>5.666666666666666</ele><time>2026-05-04T18:18:59.51Z</time></trkpt><trkpt lat="41.2737121" lon="2.0196975"><ele>7.333333333333333</ele><time>2026-05-04T18:19:00.501Z</time></trkpt><trkpt lat="41.2735599" lon="2.0197044"><ele>9.0</ele><time>2026-05-04T18:19:01.499Z</time></trkpt><trkpt lat="41.2734119" lon="2.0197138"><ele>9.0</ele><time>2026-05-04T18:19:02.506Z</time></trkpt><trkpt lat="41.273262" lon="2.0197079"><ele>9.0</ele><time>2026-05-04T18:19:03.502Z</time></trkpt><trkpt lat="41.2731218" lon="2.0197094"><ele>9.0</ele><time>2026-05-04T18:19:04.507Z</time></trkpt><trkpt lat="41.2729874" lon="2.0197195"><ele>9.0</ele><time>2026-05-04T18:19:05.505Z</time></trkpt><trkpt lat="41.2728617" lon="2.0197227"><ele>8.4</ele><time>2026-05-04T18:19:06.502Z</time></trkpt><trkpt lat="41.2727627" lon="2.0197107"><ele>7.800000000000001</ele><time>2026-05-04T18:19:07.493Z</time></trkpt><trkpt lat="41.2726765" lon="2.0196905"><ele>7.199999999999999</ele><time>2026-05-04T18:19:08.499Z</time></trkpt><trkpt lat="41.2725833" lon="2.0196728"><ele>6.6</ele><time>2026-05-04T18:19:09.487Z</time></trkpt><trkpt lat="41.272497" lon="2.0196575"><ele>6.0</ele><time>2026-05-04T18:19:10.5Z</time></trkpt><trkpt lat="41.2723929" lon="2.0196442"><ele>6.0</ele><time>2026-05-04T18:19:11.5Z</time></trkpt><trkpt lat="41.2722974" lon="2.0196626"><ele>6.0</ele><time>2026-05-04T18:19:12.504Z</time></trkpt><trkpt lat="41.2721902" lon="2.0196871"><ele>6.0</ele><time>2026-05-04T18:19:13.499Z</time></trkpt><trkpt lat="41.2720753" lon="2.0196981"><ele>6.0</ele><time>2026-05-04T18:19:14.497Z</time></trkpt><trkpt lat="41.2719488" lon="2.019696"><ele>6.0</ele><time>2026-05-04T18:19:15.5Z</time></trkpt><trkpt lat="41.271814" lon="2.0196914"><ele>6.0</ele><time>2026-05-04T18:19:16.504Z</time></trkpt><trkpt lat="41.2716795" lon="2.0196921"><ele>6.0</ele><time>2026-05-04T18:19:17.507Z</time></trkpt><trkpt lat="41.2715422" lon="2.0196896"><ele>6.0</ele><time>2026-05-04T18:19:18.504Z</time></trkpt><trkpt lat="41.2714073" lon="2.0196904"><ele>6.0</ele><time>2026-05-04T18:19:19.506Z</time></trkpt><trkpt lat="41.2712715" lon="2.0196903"><ele>6.0</ele><time>2026-05-04T18:19:20.522Z</time></trkpt><trkpt lat="41.2711373" lon="2.0196897"><ele>6.0</ele><time>2026-05-04T18:19:21.507Z</time></trkpt><trkpt lat="41.271003" lon="2.0196881"><ele>6.0</ele><time>2026-05-04T18:19:22.51Z</time></trkpt><trkpt lat="41.2708714" lon="2.0196866"><ele>6.0</ele><time>2026-05-04T18:19:23.509Z</time></trkpt><trkpt lat="41.2707402" lon="2.0196896"><ele>6.0</ele><time>2026-05-04T18:19:24.509Z</time></trkpt><trkpt lat="41.2706249" lon="2.0196937"><ele>6.0</ele><time>2026-05-04T18:19:25.508Z</time></trkpt><trkpt lat="41.270512" lon="2.0196939"><ele>6.0</ele><time>2026-05-04T18:19:26.515Z</time></trkpt><trkpt lat="41.2702957" lon="2.0196993"><ele>6.0</ele><time>2026-05-04T18:19:28.507Z</time></trkpt><trkpt lat="41.2702" lon="2.0197052"><ele>6.5</ele><time>2026-05-04T18:19:29.505Z</time></trkpt><trkpt lat="41.2701051" lon="2.019707"><ele>7.0</ele><time>2026-05-04T18:19:30.51Z</time></trkpt><trkpt lat="41.2700167" lon="2.0197054"><ele>7.5</ele><time>2026-05-04T18:19:31.51Z</time></trkpt><trkpt lat="41.2699307" lon="2.0197071"><ele>8.0</ele><time>2026-05-04T18:19:32.506Z</time></trkpt><trkpt lat="41.2698544" lon="2.0197118"><ele>8.5</ele><time>2026-05-04T18:19:33.511Z</time></trkpt><trkpt lat="41.2697759" lon="2.0197104"><ele>9.0</ele><time>2026-05-04T18:19:34.509Z</time></trkpt><trkpt lat="41.2697007" lon="2.019702"><ele>9.5</ele><time>2026-05-04T18:19:35.509Z</time></trkpt><trkpt lat="41.269628" lon="2.0196828"><ele>10.0</ele><time>2026-05-04T18:19:36.508Z</time></trkpt><trkpt lat="41.2695672" lon="2.0196451"><ele>10.5</ele><time>2026-05-04T18:19:37.507Z</time></trkpt><trkpt lat="41.2695214" lon="2.0195793"><ele>11.0</ele><time>2026-05-04T18:19:38.492Z</time></trkpt><trkpt lat="41.269471" lon="2.0194535"><ele>11.5</ele><time>2026-05-04T18:19:40.5Z</time></trkpt><trkpt lat="41.2694632" lon="2.0193406"><ele>12.0</ele><time>2026-05-04T18:19:42.486Z</time></trkpt><trkpt lat="41.2694602" lon="2.0191651"><ele>11.8</ele><time>2026-05-04T18:19:44.482Z</time></trkpt><trkpt lat="41.2694559" lon="2.0190321"><ele>11.6</ele><time>2026-05-04T18:19:45.483Z</time></trkpt><trkpt lat="41.2694471" lon="2.0188879"><ele>11.4</ele><time>2026-05-04T18:19:46.483Z</time></trkpt><trkpt lat="41.2694354" lon="2.0187333"><ele>11.200000000000001</ele><time>2026-05-04T18:19:47.484Z</time></trkpt><trkpt lat="41.2694227" lon="2.0185734"><ele>11.0</ele><time>2026-05-04T18:19:48.483Z</time></trkpt><trkpt lat="41.2694065" lon="2.0183898"><ele>10.5</ele><time>2026-05-04T18:19:49.481Z</time></trkpt><trkpt lat="41.2693907" lon="2.0182061"><ele>10.0</ele><time>2026-05-04T18:19:50.48Z</time></trkpt><trkpt lat="41.2693752" lon="2.018043"><ele>9.5</ele><time>2026-05-04T18:19:51.492Z</time></trkpt><trkpt lat="41.2693668" lon="2.0179104"><ele>9.0</ele><time>2026-05-04T18:19:52.482Z</time></trkpt><trkpt lat="41.2693665" lon="2.0177935"><ele>9.0</ele><time>2026-05-04T18:19:53.486Z</time></trkpt><trkpt lat="41.2693813" lon="2.0176807"><ele>9.0</ele><time>2026-05-04T18:19:54.489Z</time></trkpt><trkpt lat="41.26942" lon="2.0175797"><ele>9.0</ele><time>2026-05-04T18:19:55.484Z</time></trkpt><trkpt lat="41.2694864" lon="2.0175082"><ele>9.0</ele><time>2026-05-04T18:19:56.493Z</time></trkpt><trkpt lat="41.2695655" lon="2.0174762"><ele>9.0</ele><time>2026-05-04T18:19:57.479Z</time></trkpt><trkpt lat="41.2696502" lon="2.0174726"><ele>9.0</ele><time>2026-05-04T18:19:58.486Z</time></trkpt><trkpt lat="41.2697383" lon="2.0174921"><ele>8.8</ele><time>2026-05-04T18:19:59.494Z</time></trkpt><trkpt lat="41.2698245" lon="2.0175219"><ele>8.600000000000001</ele><time>2026-05-04T18:20:00.5Z</time></trkpt><trkpt lat="41.2699012" lon="2.0175829"><ele>8.4</ele><time>2026-05-04T18:20:01.5Z</time></trkpt><trkpt lat="41.269966" lon="2.0176826"><ele>8.200000000000001</ele><time>2026-05-04T18:20:02.501Z</time></trkpt><trkpt lat="41.2700109" lon="2.0178055"><ele>8.0</ele><time>2026-05-04T18:20:03.678Z</time></trkpt><trkpt lat="41.2700381" lon="2.0180728"><ele>8.0</ele><time>2026-05-04T18:20:05.494Z</time></trkpt><trkpt lat="41.2700365" lon="2.0182251"><ele>8.0</ele><time>2026-05-04T18:20:06.492Z</time></trkpt><trkpt lat="41.270036" lon="2.018386"><ele>8.0</ele><time>2026-05-04T18:20:07.492Z</time></trkpt><trkpt lat="41.2700469" lon="2.0185474"><ele>8.0</ele><time>2026-05-04T18:20:08.487Z</time></trkpt><trkpt lat="41.2700605" lon="2.0187172"><ele>8.333333333333332</ele><time>2026-05-04T18:20:09.488Z</time></trkpt><trkpt lat="41.270074" lon="2.018906"><ele>8.666666666666666</ele><time>2026-05-04T18:20:10.488Z</time></trkpt><trkpt lat="41.2700934" lon="2.0191002"><ele>9.0</ele><time>2026-05-04T18:20:11.484Z</time></trkpt><trkpt lat="41.2701106" lon="2.019312"><ele>9.0</ele><time>2026-05-04T18:20:12.484Z</time></trkpt><trkpt lat="41.2701352" lon="2.0195239"><ele>9.0</ele><time>2026-05-04T18:20:13.491Z</time></trkpt><trkpt lat="41.2701593" lon="2.0197481"><ele>9.0</ele><time>2026-05-04T18:20:14.491Z</time></trkpt><trkpt lat="41.2701821" lon="2.019973"><ele>8.666666666666666</ele><time>2026-05-04T18:20:15.493Z</time></trkpt><trkpt lat="41.2702072" lon="2.0201991"><ele>8.333333333333332</ele><time>2026-05-04T18:20:16.505Z</time></trkpt><trkpt lat="41.2702316" lon="2.0204287"><ele>8.0</ele><time>2026-05-04T18:20:17.497Z</time></trkpt><trkpt lat="41.2702572" lon="2.0206641"><ele>8.0</ele><time>2026-05-04T18:20:18.503Z</time></trkpt><trkpt lat="41.2702707" lon="2.0208905"><ele>8.0</ele><time>2026-05-04T18:20:19.49Z</time></trkpt><trkpt lat="41.2702909" lon="2.0211224"><ele>8.0</ele><time>2026-05-04T18:20:20.496Z</time></trkpt><trkpt lat="41.2703202" lon="2.0213644"><ele>8.0</ele><time>2026-05-04T18:20:21.499Z</time></trkpt><trkpt lat="41.2703494" lon="2.021597"><ele>8.0</ele><time>2026-05-04T18:20:22.517Z</time></trkpt><trkpt lat="41.2703799" lon="2.0218519"><ele>8.0</ele><time>2026-05-04T18:20:23.499Z</time></trkpt><trkpt lat="41.2704042" lon="2.0220921"><ele>7.666666666666666</ele><time>2026-05-04T18:20:24.497Z</time></trkpt><trkpt lat="41.2704321" lon="2.0223492"><ele>7.333333333333334</ele><time>2026-05-04T18:20:25.497Z</time></trkpt><trkpt lat="41.2704635" lon="2.022599"><ele>7.0</ele><time>2026-05-04T18:20:26.5Z</time></trkpt><trkpt lat="41.2704932" lon="2.0228514"><ele>7.333333333333334</ele><time>2026-05-04T18:20:27.498Z</time></trkpt><trkpt lat="41.2705294" lon="2.0231059"><ele>7.666666666666666</ele><time>2026-05-04T18:20:28.49Z</time></trkpt><trkpt lat="41.2705596" lon="2.0233602"><ele>8.0</ele><time>2026-05-04T18:20:29.492Z</time></trkpt><trkpt lat="41.2705917" lon="2.0236224"><ele>8.0</ele><time>2026-05-04T18:20:30.492Z</time></trkpt><trkpt lat="41.2706228" lon="2.0238923"><ele>8.0</ele><time>2026-05-04T18:20:31.493Z</time></trkpt><trkpt lat="41.2706544" lon="2.0241538"><ele>8.0</ele><time>2026-05-04T18:20:32.494Z</time></trkpt><trkpt lat="41.2706772" lon="2.0244273"><ele>9.0</ele><time>2026-05-04T18:20:33.489Z</time></trkpt><trkpt lat="41.2707091" lon="2.0246924"><ele>10.0</ele><time>2026-05-04T18:20:34.491Z</time></trkpt><trkpt lat="41.2707394" lon="2.0249646"><ele>11.0</ele><time>2026-05-04T18:20:35.491Z</time></trkpt><trkpt lat="41.2707684" lon="2.0252393"><ele>11.0</ele><time>2026-05-04T18:20:36.49Z</time></trkpt><trkpt lat="41.2707982" lon="2.025514"><ele>11.0</ele><time>2026-05-04T18:20:37.497Z</time></trkpt><trkpt lat="41.2708286" lon="2.0257946"><ele>11.0</ele><time>2026-05-04T18:20:38.497Z</time></trkpt><trkpt lat="41.2708596" lon="2.02608"><ele>10.666666666666666</ele><time>2026-05-04T18:20:39.501Z</time></trkpt><trkpt lat="41.2708896" lon="2.0263627"><ele>10.333333333333334</ele><time>2026-05-04T18:20:40.496Z</time></trkpt><trkpt lat="41.2709113" lon="2.0266449"><ele>10.0</ele><time>2026-05-04T18:20:41.497Z</time></trkpt><trkpt lat="41.2709351" lon="2.0269216"><ele>10.0</ele><time>2026-05-04T18:20:42.504Z</time></trkpt><trkpt lat="41.2709553" lon="2.0272033"><ele>10.0</ele><time>2026-05-04T18:20:43.507Z</time></trkpt><trkpt lat="41.2709751" lon="2.0274883"><ele>10.0</ele><time>2026-05-04T18:20:44.5Z</time></trkpt><trkpt lat="41.2710056" lon="2.0277669"><ele>10.333333333333334</ele><time>2026-05-04T18:20:45.501Z</time></trkpt><trkpt lat="41.2710415" lon="2.0280473"><ele>10.666666666666666</ele><time>2026-05-04T18:20:46.498Z</time></trkpt><trkpt lat="41.2710601" lon="2.0283284"><ele>11.0</ele><time>2026-05-04T18:20:47.504Z</time></trkpt><trkpt lat="41.2710955" lon="2.02861"><ele>10.333333333333332</ele><time>2026-05-04T18:20:48.5Z</time></trkpt><trkpt lat="41.2711235" lon="2.0288917"><ele>9.666666666666666</ele><time>2026-05-04T18:20:49.499Z</time></trkpt><trkpt lat="41.2711419" lon="2.0291865"><ele>9.0</ele><time>2026-05-04T18:20:50.504Z</time></trkpt><trkpt lat="41.2711658" lon="2.0294706"><ele>8.666666666666666</ele><time>2026-05-04T18:20:51.503Z</time></trkpt><trkpt lat="41.2711783" lon="2.0297566"><ele>8.333333333333332</ele><time>2026-05-04T18:20:52.504Z</time></trkpt><trkpt lat="41.2711914" lon="2.0300391"><ele>8.0</ele><time>2026-05-04T18:20:53.528Z</time></trkpt><trkpt lat="41.2712154" lon="2.0303343"><ele>8.0</ele><time>2026-05-04T18:20:54.506Z</time></trkpt><trkpt lat="41.2712434" lon="2.0306176"><ele>8.0</ele><time>2026-05-04T18:20:55.495Z</time></trkpt><trkpt lat="41.271282" lon="2.0309028"><ele>8.0</ele><time>2026-05-04T18:20:56.5Z</time></trkpt><trkpt lat="41.2713041" lon="2.0311938"><ele>8.333333333333332</ele><time>2026-05-04T18:20:57.501Z</time></trkpt><trkpt lat="41.2713286" lon="2.0314858"><ele>8.666666666666666</ele><time>2026-05-04T18:20:58.495Z</time></trkpt><trkpt lat="41.271371" lon="2.0317635"><ele>9.0</ele><time>2026-05-04T18:20:59.496Z</time></trkpt><trkpt lat="41.2714042" lon="2.0320358"><ele>9.0</ele><time>2026-05-04T18:21:00.496Z</time></trkpt><trkpt lat="41.2714204" lon="2.0322955"><ele>9.0</ele><time>2026-05-04T18:21:01.489Z</time></trkpt><trkpt lat="41.2714492" lon="2.0325394"><ele>9.0</ele><time>2026-05-04T18:21:02.495Z</time></trkpt><trkpt lat="41.2714775" lon="2.032794"><ele>9.0</ele><time>2026-05-04T18:21:03.499Z</time></trkpt><trkpt lat="41.2714961" lon="2.0330496"><ele>9.0</ele><time>2026-05-04T18:21:04.496Z</time></trkpt><trkpt lat="41.2715169" lon="2.0333069"><ele>9.0</ele><time>2026-05-04T18:21:05.491Z</time></trkpt><trkpt lat="41.2715443" lon="2.0335668"><ele>9.0</ele><time>2026-05-04T18:21:06.499Z</time></trkpt><trkpt lat="41.271565" lon="2.0338288"><ele>9.0</ele><time>2026-05-04T18:21:07.5Z</time></trkpt><trkpt lat="41.27159" lon="2.0340875"><ele>9.0</ele><time>2026-05-04T18:21:08.501Z</time></trkpt><trkpt lat="41.271613" lon="2.0343388"><ele>9.0</ele><time>2026-05-04T18:21:09.498Z</time></trkpt><trkpt lat="41.2716253" lon="2.034601"><ele>9.0</ele><time>2026-05-04T18:21:10.497Z</time></trkpt><trkpt lat="41.2716477" lon="2.0348665"><ele>9.0</ele><time>2026-05-04T18:21:11.502Z</time></trkpt><trkpt lat="41.2716769" lon="2.0351359"><ele>9.0</ele><time>2026-05-04T18:21:12.503Z</time></trkpt><trkpt lat="41.2717065" lon="2.0353957"><ele>9.0</ele><time>2026-05-04T18:21:13.508Z</time></trkpt><trkpt lat="41.2717247" lon="2.0356639"><ele>9.0</ele><time>2026-05-04T18:21:14.502Z</time></trkpt><trkpt lat="41.271741" lon="2.0359287"><ele>9.0</ele><time>2026-05-04T18:21:15.493Z</time></trkpt><trkpt lat="41.2717576" lon="2.0362004"><ele>9.0</ele><time>2026-05-04T18:21:16.506Z</time></trkpt><trkpt lat="41.271788" lon="2.0364705"><ele>9.0</ele><time>2026-05-04T18:21:17.504Z</time></trkpt><trkpt lat="41.2718211" lon="2.0367496"><ele>9.0</ele><time>2026-05-04T18:21:18.502Z</time></trkpt><trkpt lat="41.2718444" lon="2.0370322"><ele>9.0</ele><time>2026-05-04T18:21:19.503Z</time></trkpt><trkpt lat="41.2718663" lon="2.0373124"><ele>9.0</ele><time>2026-05-04T18:21:20.493Z</time></trkpt><trkpt lat="41.2718863" lon="2.037597"><ele>9.0</ele><time>2026-05-04T18:21:21.502Z</time></trkpt><trkpt lat="41.2719166" lon="2.0378912"><ele>9.0</ele><time>2026-05-04T18:21:22.502Z</time></trkpt><trkpt lat="41.2719368" lon="2.0381875"><ele>9.0</ele><time>2026-05-04T18:21:23.517Z</time></trkpt><trkpt lat="41.2719609" lon="2.0384823"><ele>9.333333333333334</ele><time>2026-05-04T18:21:24.501Z</time></trkpt><trkpt lat="41.2719945" lon="2.0387642"><ele>9.666666666666668</ele><time>2026-05-04T18:21:25.498Z</time></trkpt><trkpt lat="41.2720201" lon="2.039039"><ele>10.0</ele><time>2026-05-04T18:21:26.509Z</time></trkpt><trkpt lat="41.2720452" lon="2.0392992"><ele>10.0</ele><time>2026-05-04T18:21:27.504Z</time></trkpt><trkpt lat="41.2720745" lon="2.0395493"><ele>10.0</ele><time>2026-05-04T18:21:28.496Z</time></trkpt><trkpt lat="41.2721049" lon="2.039803"><ele>10.0</ele><time>2026-05-04T18:21:29.496Z</time></trkpt><trkpt lat="41.2721408" lon="2.0400403"><ele>9.666666666666668</ele><time>2026-05-04T18:21:30.495Z</time></trkpt><trkpt lat="41.272177" lon="2.0402713"><ele>9.333333333333334</ele><time>2026-05-04T18:21:31.495Z</time></trkpt><trkpt lat="41.2722114" lon="2.0404837"><ele>9.0</ele><time>2026-05-04T18:21:32.498Z</time></trkpt><trkpt lat="41.2722425" lon="2.0406906"><ele>8.75</ele><time>2026-05-04T18:21:33.494Z</time></trkpt><trkpt lat="41.2722779" lon="2.0408919"><ele>8.5</ele><time>2026-05-04T18:21:34.498Z</time></trkpt><trkpt lat="41.2723107" lon="2.041087"><ele>8.25</ele><time>2026-05-04T18:21:35.5Z</time></trkpt><trkpt lat="41.2723452" lon="2.0412653"><ele>8.0</ele><time>2026-05-04T18:21:36.498Z</time></trkpt><trkpt lat="41.2723903" lon="2.0414429"><ele>8.0</ele><time>2026-05-04T18:21:37.489Z</time></trkpt><trkpt lat="41.2724308" lon="2.0416108"><ele>8.0</ele><time>2026-05-04T18:21:38.493Z</time></trkpt><trkpt lat="41.2724565" lon="2.0417638"><ele>8.0</ele><time>2026-05-04T18:21:39.495Z</time></trkpt><trkpt lat="41.2724856" lon="2.0419003"><ele>8.0</ele><time>2026-05-04T18:21:40.487Z</time></trkpt><trkpt lat="41.2725226" lon="2.0420153"><ele>7.833333333333333</ele><time>2026-05-04T18:21:41.494Z</time></trkpt><trkpt lat="41.2725532" lon="2.0421225"><ele>7.666666666666666</ele><time>2026-05-04T18:21:42.486Z</time></trkpt><trkpt lat="41.2725779" lon="2.0422242"><ele>7.5</ele><time>2026-05-04T18:21:43.487Z</time></trkpt><trkpt lat="41.2725961" lon="2.042317"><ele>7.333333333333334</ele><time>2026-05-04T18:21:44.49Z</time></trkpt><trkpt lat="41.2725936" lon="2.0424645"><ele>7.166666666666667</ele><time>2026-05-04T18:21:46.501Z</time></trkpt><trkpt lat="41.2725286" lon="2.0425615"><ele>7.0</ele><time>2026-05-04T18:21:48.497Z</time></trkpt><trkpt lat="41.2724497" lon="2.0426373"><ele>7.0</ele><time>2026-05-04T18:21:50.497Z</time></trkpt><trkpt lat="41.2724005" lon="2.0427008"><ele>7.0</ele><time>2026-05-04T18:21:52.489Z</time></trkpt><trkpt lat="41.2723557" lon="2.042773"><ele>7.0</ele><time>2026-05-04T18:22:02.512Z</time></trkpt><trkpt lat="41.2722987" lon="2.0428274"><ele>7.0</ele><time>2026-05-04T18:22:05.495Z</time></trkpt><trkpt lat="41.2722818" lon="2.0429101"><ele>7.0</ele><time>2026-05-04T18:22:08.496Z</time></trkpt><trkpt lat="41.2723009" lon="2.0429947"><ele>7.0</ele><time>2026-05-04T18:22:27.516Z</time></trkpt><trkpt lat="41.2723286" lon="2.0430983"><ele>7.0</ele><time>2026-05-04T18:22:29.499Z</time></trkpt><trkpt lat="41.2723597" lon="2.0432156"><ele>7.000000000000001</ele><time>2026-05-04T18:22:31.501Z</time></trkpt><trkpt lat="41.2723605" lon="2.0433199"><ele>7.0</ele><time>2026-05-04T18:22:33.497Z</time></trkpt><trkpt lat="41.2722785" lon="2.0433519"><ele>7.0</ele><time>2026-05-04T18:22:36.502Z</time></trkpt><trkpt lat="41.2722118" lon="2.0433327"><ele>7.0</ele><time>2026-05-04T18:22:39.504Z</time></trkpt><trkpt lat="41.2721368" lon="2.0432594"><ele>7.000000000000001</ele><time>2026-05-04T18:22:42.503Z</time></trkpt><trkpt lat="41.2720662" lon="2.0431839"><ele>7.0</ele><time>2026-05-04T18:22:44.495Z</time></trkpt><trkpt lat="41.2719948" lon="2.0431331"><ele>10.0</ele><time>2026-05-04T18:22:48.498Z</time></trkpt></trkseg></trk></gpx>